<?xml version="1.0" encoding="UTF-8" standalone="no" ?>
<gpx xmlns="http://www.topografix.com/GPX/1/1" xmlns:xsi="http://www.w3.org/2001/XMLSchema-instance" xsi:schemaLocation="http://www.topografix.com/GPX/1/1 http://www.topografix.com/GPX/1/1/gpx.xsd" version="1.1" creator="VisuGPX - https://www.visugpx.com">
  <metadata>
    <name>Endurance trail templiers 2015</name>
    <desc><![CDATA[Endurance trail des templiers 2015
Trace openrunner corrigée avec &seuil=20&moyenne=5]]></desc>
  </metadata>
  <trk>
    <name><![CDATA[--Millau-- OR-4370064:ENDURANCE TRAIL 2015]]></name>
    <trkseg>
      <trkpt lat="44.11355" lon="3.08715">
        <ele>360</ele>
        <time>2015-10-09T19:09:18Z</time>
      </trkpt>
      <trkpt lat="44.11356" lon="3.08712">
        <ele>360</ele>
        <time>2015-10-09T19:11:18Z</time>
      </trkpt>
      <trkpt lat="44.11361" lon="3.08706">
        <ele>360</ele>
        <time>2015-10-09T19:13:18Z</time>
      </trkpt>
      <trkpt lat="44.1137" lon="3.08687">
        <ele>360</ele>
        <time>2015-10-09T19:15:18Z</time>
      </trkpt>
      <trkpt lat="44.11374" lon="3.08673">
        <ele>360</ele>
        <time>2015-10-09T19:17:18Z</time>
      </trkpt>
      <trkpt lat="44.11382" lon="3.08658">
        <ele>360</ele>
        <time>2015-10-09T19:19:18Z</time>
      </trkpt>
      <trkpt lat="44.11394" lon="3.08655">
        <ele>360</ele>
        <time>2015-10-09T19:21:18Z</time>
      </trkpt>
      <trkpt lat="44.11409" lon="3.08659">
        <ele>360</ele>
        <time>2015-10-09T19:23:18Z</time>
      </trkpt>
      <trkpt lat="44.11423" lon="3.08662">
        <ele>360</ele>
        <time>2015-10-09T19:25:18Z</time>
      </trkpt>
      <trkpt lat="44.11437" lon="3.08664">
        <ele>360</ele>
        <time>2015-10-09T19:27:18Z</time>
      </trkpt>
      <trkpt lat="44.11451" lon="3.08666">
        <ele>360</ele>
        <time>2015-10-09T19:29:18Z</time>
      </trkpt>
      <trkpt lat="44.11462" lon="3.08669">
        <ele>361</ele>
        <time>2015-10-09T19:31:18Z</time>
      </trkpt>
      <trkpt lat="44.11476" lon="3.08672">
        <ele>361</ele>
        <time>2015-10-09T19:33:18Z</time>
      </trkpt>
      <trkpt lat="44.11487" lon="3.08679">
        <ele>361</ele>
        <time>2015-10-09T19:35:18Z</time>
      </trkpt>
      <trkpt lat="44.11499" lon="3.08688">
        <ele>361</ele>
        <time>2015-10-09T19:37:18Z</time>
      </trkpt>
      <trkpt lat="44.11511" lon="3.08694">
        <ele>361</ele>
        <time>2015-10-09T19:39:18Z</time>
      </trkpt>
      <trkpt lat="44.11522" lon="3.08701">
        <ele>361</ele>
        <time>2015-10-09T19:41:18Z</time>
      </trkpt>
      <trkpt lat="44.11534" lon="3.08711">
        <ele>361</ele>
        <time>2015-10-09T19:43:18Z</time>
      </trkpt>
      <trkpt lat="44.11546" lon="3.08722">
        <ele>361</ele>
        <time>2015-10-09T19:45:18Z</time>
      </trkpt>
      <trkpt lat="44.11559" lon="3.08728">
        <ele>362</ele>
        <time>2015-10-09T19:47:18Z</time>
      </trkpt>
      <trkpt lat="44.11571" lon="3.08737">
        <ele>362</ele>
        <time>2015-10-09T19:49:18Z</time>
      </trkpt>
      <trkpt lat="44.11582" lon="3.08745">
        <ele>363</ele>
        <time>2015-10-09T19:51:18Z</time>
      </trkpt>
      <trkpt lat="44.11596" lon="3.08748">
        <ele>363</ele>
        <time>2015-10-09T19:53:18Z</time>
      </trkpt>
      <trkpt lat="44.11608" lon="3.08757">
        <ele>363</ele>
        <time>2015-10-09T19:55:18Z</time>
      </trkpt>
      <trkpt lat="44.1162" lon="3.08767">
        <ele>362</ele>
        <time>2015-10-09T19:57:18Z</time>
      </trkpt>
      <trkpt lat="44.11633" lon="3.08774">
        <ele>362</ele>
        <time>2015-10-09T19:59:18Z</time>
      </trkpt>
      <trkpt lat="44.11648" lon="3.08783">
        <ele>362</ele>
        <time>2015-10-09T20:01:18Z</time>
      </trkpt>
      <trkpt lat="44.1166" lon="3.0879">
        <ele>362</ele>
        <time>2015-10-09T20:03:18Z</time>
      </trkpt>
      <trkpt lat="44.11672" lon="3.08802">
        <ele>362</ele>
        <time>2015-10-09T20:05:18Z</time>
      </trkpt>
      <trkpt lat="44.11687" lon="3.0881">
        <ele>362</ele>
        <time>2015-10-09T20:07:18Z</time>
      </trkpt>
      <trkpt lat="44.11698" lon="3.0882">
        <ele>362</ele>
        <time>2015-10-09T20:09:18Z</time>
      </trkpt>
      <trkpt lat="44.11726" lon="3.08846">
        <ele>363</ele>
        <time>2015-10-09T20:11:18Z</time>
      </trkpt>
      <trkpt lat="44.11736" lon="3.08855">
        <ele>363</ele>
        <time>2015-10-09T20:13:18Z</time>
      </trkpt>
      <trkpt lat="44.1175" lon="3.08871">
        <ele>363</ele>
        <time>2015-10-09T20:15:18Z</time>
      </trkpt>
      <trkpt lat="44.1176" lon="3.0888">
        <ele>363</ele>
        <time>2015-10-09T20:17:18Z</time>
      </trkpt>
      <trkpt lat="44.11773" lon="3.08896">
        <ele>363</ele>
        <time>2015-10-09T20:19:18Z</time>
      </trkpt>
      <trkpt lat="44.11787" lon="3.0891">
        <ele>363</ele>
        <time>2015-10-09T20:21:18Z</time>
      </trkpt>
      <trkpt lat="44.11797" lon="3.08923">
        <ele>363</ele>
        <time>2015-10-09T20:23:18Z</time>
      </trkpt>
      <trkpt lat="44.11806" lon="3.08936">
        <ele>364</ele>
        <time>2015-10-09T20:25:18Z</time>
      </trkpt>
      <trkpt lat="44.1182" lon="3.08954">
        <ele>365</ele>
        <time>2015-10-09T20:27:18Z</time>
      </trkpt>
      <trkpt lat="44.11835" lon="3.08969">
        <ele>365</ele>
        <time>2015-10-09T20:29:18Z</time>
      </trkpt>
      <trkpt lat="44.11844" lon="3.08983">
        <ele>365</ele>
        <time>2015-10-09T20:31:18Z</time>
      </trkpt>
      <trkpt lat="44.11852" lon="3.08996">
        <ele>365</ele>
        <time>2015-10-09T20:33:18Z</time>
      </trkpt>
      <trkpt lat="44.11863" lon="3.09016">
        <ele>366</ele>
        <time>2015-10-09T20:35:18Z</time>
      </trkpt>
      <trkpt lat="44.11868" lon="3.09025">
        <ele>366</ele>
        <time>2015-10-09T20:37:18Z</time>
      </trkpt>
      <trkpt lat="44.11878" lon="3.0904">
        <ele>366</ele>
        <time>2015-10-09T20:39:18Z</time>
      </trkpt>
      <trkpt lat="44.11891" lon="3.09059">
        <ele>365</ele>
        <time>2015-10-09T20:41:18Z</time>
      </trkpt>
      <trkpt lat="44.11905" lon="3.09078">
        <ele>364</ele>
        <time>2015-10-09T20:43:18Z</time>
      </trkpt>
      <trkpt lat="44.11929" lon="3.0911">
        <ele>365</ele>
        <time>2015-10-09T20:45:18Z</time>
      </trkpt>
      <trkpt lat="44.11936" lon="3.09122">
        <ele>366</ele>
        <time>2015-10-09T20:47:18Z</time>
      </trkpt>
      <trkpt lat="44.11945" lon="3.09138">
        <ele>367</ele>
        <time>2015-10-09T20:49:18Z</time>
      </trkpt>
      <trkpt lat="44.11953" lon="3.09149">
        <ele>367</ele>
        <time>2015-10-09T20:51:18Z</time>
      </trkpt>
      <trkpt lat="44.11965" lon="3.09161">
        <ele>367</ele>
        <time>2015-10-09T20:53:18Z</time>
      </trkpt>
      <trkpt lat="44.11974" lon="3.09177">
        <ele>369</ele>
        <time>2015-10-09T20:55:18Z</time>
      </trkpt>
      <trkpt lat="44.11984" lon="3.09193">
        <ele>370</ele>
        <time>2015-10-09T20:57:18Z</time>
      </trkpt>
      <trkpt lat="44.11989" lon="3.09208">
        <ele>371</ele>
        <time>2015-10-09T20:59:18Z</time>
      </trkpt>
      <trkpt lat="44.11992" lon="3.09227">
        <ele>373</ele>
        <time>2015-10-09T21:01:18Z</time>
      </trkpt>
      <trkpt lat="44.12" lon="3.09243">
        <ele>373</ele>
        <time>2015-10-09T21:03:18Z</time>
      </trkpt>
      <trkpt lat="44.12012" lon="3.09265">
        <ele>374</ele>
        <time>2015-10-09T21:05:18Z</time>
      </trkpt>
      <trkpt lat="44.12022" lon="3.09276">
        <ele>373</ele>
        <time>2015-10-09T21:07:18Z</time>
      </trkpt>
      <trkpt lat="44.12033" lon="3.0929">
        <ele>373</ele>
        <time>2015-10-09T21:09:18Z</time>
      </trkpt>
      <trkpt lat="44.12048" lon="3.09304">
        <ele>371</ele>
        <time>2015-10-09T21:11:18Z</time>
      </trkpt>
      <trkpt lat="44.12057" lon="3.09318">
        <ele>371</ele>
        <time>2015-10-09T21:13:18Z</time>
      </trkpt>
      <trkpt lat="44.12066" lon="3.09334">
        <ele>370</ele>
        <time>2015-10-09T21:15:18Z</time>
      </trkpt>
      <trkpt lat="44.12074" lon="3.09348">
        <ele>370</ele>
        <time>2015-10-09T21:17:18Z</time>
      </trkpt>
      <trkpt lat="44.12085" lon="3.09363">
        <ele>369</ele>
        <time>2015-10-09T21:19:18Z</time>
      </trkpt>
      <trkpt lat="44.12093" lon="3.09379">
        <ele>369</ele>
        <time>2015-10-09T21:21:18Z</time>
      </trkpt>
      <trkpt lat="44.12103" lon="3.09397">
        <ele>369</ele>
        <time>2015-10-09T21:23:18Z</time>
      </trkpt>
      <trkpt lat="44.12118" lon="3.09429">
        <ele>369</ele>
        <time>2015-10-09T21:25:18Z</time>
      </trkpt>
      <trkpt lat="44.12127" lon="3.09445">
        <ele>369</ele>
        <time>2015-10-09T21:27:18Z</time>
      </trkpt>
      <trkpt lat="44.12136" lon="3.09463">
        <ele>369</ele>
        <time>2015-10-09T21:29:18Z</time>
      </trkpt>
      <trkpt lat="44.12146" lon="3.09479">
        <ele>368</ele>
        <time>2015-10-09T21:31:18Z</time>
      </trkpt>
      <trkpt lat="44.12156" lon="3.09496">
        <ele>368</ele>
        <time>2015-10-09T21:33:18Z</time>
      </trkpt>
      <trkpt lat="44.12167" lon="3.09514">
        <ele>368</ele>
        <time>2015-10-09T21:35:18Z</time>
      </trkpt>
      <trkpt lat="44.12177" lon="3.0953">
        <ele>369</ele>
        <time>2015-10-09T21:37:18Z</time>
      </trkpt>
      <trkpt lat="44.122" lon="3.09561">
        <ele>370</ele>
        <time>2015-10-09T21:39:18Z</time>
      </trkpt>
      <trkpt lat="44.12211" lon="3.09574">
        <ele>370</ele>
        <time>2015-10-09T21:41:18Z</time>
      </trkpt>
      <trkpt lat="44.12225" lon="3.0959">
        <ele>370</ele>
        <time>2015-10-09T21:43:18Z</time>
      </trkpt>
      <trkpt lat="44.12234" lon="3.09601">
        <ele>370</ele>
        <time>2015-10-09T21:45:18Z</time>
      </trkpt>
      <trkpt lat="44.12244" lon="3.09615">
        <ele>370</ele>
        <time>2015-10-09T21:47:18Z</time>
      </trkpt>
      <trkpt lat="44.1226" lon="3.09632">
        <ele>371</ele>
        <time>2015-10-09T21:49:18Z</time>
      </trkpt>
      <trkpt lat="44.12271" lon="3.09645">
        <ele>372</ele>
        <time>2015-10-09T21:51:18Z</time>
      </trkpt>
      <trkpt lat="44.12284" lon="3.0966">
        <ele>372</ele>
        <time>2015-10-09T21:53:18Z</time>
      </trkpt>
      <trkpt lat="44.12293" lon="3.09671">
        <ele>372</ele>
        <time>2015-10-09T21:55:18Z</time>
      </trkpt>
      <trkpt lat="44.12305" lon="3.09688">
        <ele>372</ele>
        <time>2015-10-09T21:57:18Z</time>
      </trkpt>
      <trkpt lat="44.12314" lon="3.09699">
        <ele>371</ele>
        <time>2015-10-09T21:59:18Z</time>
      </trkpt>
      <trkpt lat="44.12324" lon="3.09711">
        <ele>371</ele>
        <time>2015-10-09T22:01:18Z</time>
      </trkpt>
      <trkpt lat="44.12335" lon="3.09727">
        <ele>370</ele>
        <time>2015-10-09T22:03:18Z</time>
      </trkpt>
      <trkpt lat="44.12346" lon="3.09741">
        <ele>370</ele>
        <time>2015-10-09T22:05:18Z</time>
      </trkpt>
      <trkpt lat="44.12352" lon="3.09756">
        <ele>370</ele>
        <time>2015-10-09T22:07:18Z</time>
      </trkpt>
      <trkpt lat="44.12361" lon="3.09773">
        <ele>371</ele>
        <time>2015-10-09T22:09:18Z</time>
      </trkpt>
      <trkpt lat="44.12368" lon="3.09791">
        <ele>372</ele>
        <time>2015-10-09T22:11:18Z</time>
      </trkpt>
      <trkpt lat="44.12377" lon="3.09811">
        <ele>372</ele>
        <time>2015-10-09T22:13:18Z</time>
      </trkpt>
      <trkpt lat="44.12383" lon="3.09829">
        <ele>373</ele>
        <time>2015-10-09T22:15:18Z</time>
      </trkpt>
      <trkpt lat="44.12388" lon="3.09842">
        <ele>373</ele>
        <time>2015-10-09T22:17:18Z</time>
      </trkpt>
      <trkpt lat="44.12393" lon="3.09861">
        <ele>373</ele>
        <time>2015-10-09T22:19:18Z</time>
      </trkpt>
      <trkpt lat="44.12399" lon="3.09885">
        <ele>374</ele>
        <time>2015-10-09T22:21:18Z</time>
      </trkpt>
      <trkpt lat="44.12403" lon="3.09899">
        <ele>374</ele>
        <time>2015-10-09T22:23:18Z</time>
      </trkpt>
      <trkpt lat="44.1241" lon="3.09915">
        <ele>373</ele>
        <time>2015-10-09T22:25:18Z</time>
      </trkpt>
      <trkpt lat="44.12417" lon="3.09933">
        <ele>374</ele>
        <time>2015-10-09T22:27:18Z</time>
      </trkpt>
      <trkpt lat="44.12427" lon="3.09951">
        <ele>375</ele>
        <time>2015-10-09T22:29:18Z</time>
      </trkpt>
      <trkpt lat="44.12439" lon="3.09967">
        <ele>376</ele>
        <time>2015-10-09T22:31:18Z</time>
      </trkpt>
      <trkpt lat="44.12449" lon="3.09979">
        <ele>375</ele>
        <time>2015-10-09T22:33:18Z</time>
      </trkpt>
      <trkpt lat="44.12459" lon="3.0999">
        <ele>375</ele>
        <time>2015-10-09T22:35:18Z</time>
      </trkpt>
      <trkpt lat="44.12469" lon="3.09996">
        <ele>374</ele>
        <time>2015-10-09T22:37:18Z</time>
      </trkpt>
      <trkpt lat="44.12483" lon="3.10008">
        <ele>373</ele>
        <time>2015-10-09T22:39:18Z</time>
      </trkpt>
      <trkpt lat="44.12493" lon="3.10018">
        <ele>373</ele>
        <time>2015-10-09T22:41:18Z</time>
      </trkpt>
      <trkpt lat="44.12507" lon="3.10028">
        <ele>373</ele>
        <time>2015-10-09T22:43:18Z</time>
      </trkpt>
      <trkpt lat="44.1252" lon="3.10036">
        <ele>373</ele>
        <time>2015-10-09T22:45:18Z</time>
      </trkpt>
      <trkpt lat="44.1253" lon="3.10041">
        <ele>373</ele>
        <time>2015-10-09T22:47:18Z</time>
      </trkpt>
      <trkpt lat="44.12543" lon="3.10046">
        <ele>373</ele>
        <time>2015-10-09T22:49:18Z</time>
      </trkpt>
      <trkpt lat="44.12558" lon="3.10051">
        <ele>372</ele>
        <time>2015-10-09T22:51:18Z</time>
      </trkpt>
      <trkpt lat="44.12573" lon="3.10055">
        <ele>372</ele>
        <time>2015-10-09T22:53:18Z</time>
      </trkpt>
      <trkpt lat="44.12602" lon="3.1006">
        <ele>371</ele>
        <time>2015-10-09T22:55:18Z</time>
      </trkpt>
      <trkpt lat="44.12616" lon="3.10061">
        <ele>371</ele>
        <time>2015-10-09T22:57:18Z</time>
      </trkpt>
      <trkpt lat="44.12632" lon="3.10062">
        <ele>372</ele>
        <time>2015-10-09T22:59:18Z</time>
      </trkpt>
      <trkpt lat="44.12653" lon="3.1006">
        <ele>371</ele>
        <time>2015-10-09T23:01:18Z</time>
      </trkpt>
      <trkpt lat="44.12671" lon="3.10059">
        <ele>371</ele>
        <time>2015-10-09T23:03:18Z</time>
      </trkpt>
      <trkpt lat="44.12701" lon="3.10058">
        <ele>372</ele>
        <time>2015-10-09T23:05:18Z</time>
      </trkpt>
      <trkpt lat="44.12716" lon="3.10058">
        <ele>372</ele>
        <time>2015-10-09T23:07:18Z</time>
      </trkpt>
      <trkpt lat="44.12721" lon="3.10058">
        <ele>372</ele>
        <time>2015-10-09T23:09:18Z</time>
      </trkpt>
      <trkpt lat="44.12735" lon="3.10057">
        <ele>372</ele>
        <time>2015-10-09T23:11:18Z</time>
      </trkpt>
      <trkpt lat="44.12756" lon="3.10055">
        <ele>373</ele>
        <time>2015-10-09T23:13:18Z</time>
      </trkpt>
      <trkpt lat="44.12771" lon="3.10051">
        <ele>373</ele>
        <time>2015-10-09T23:15:18Z</time>
      </trkpt>
      <trkpt lat="44.12786" lon="3.10048">
        <ele>374</ele>
        <time>2015-10-09T23:17:18Z</time>
      </trkpt>
      <trkpt lat="44.12805" lon="3.10039">
        <ele>374</ele>
        <time>2015-10-09T23:19:18Z</time>
      </trkpt>
      <trkpt lat="44.12819" lon="3.10032">
        <ele>373</ele>
        <time>2015-10-09T23:21:18Z</time>
      </trkpt>
      <trkpt lat="44.12833" lon="3.10026">
        <ele>373</ele>
        <time>2015-10-09T23:23:18Z</time>
      </trkpt>
      <trkpt lat="44.12846" lon="3.10022">
        <ele>373</ele>
        <time>2015-10-09T23:25:18Z</time>
      </trkpt>
      <trkpt lat="44.12861" lon="3.10017">
        <ele>373</ele>
        <time>2015-10-09T23:27:18Z</time>
      </trkpt>
      <trkpt lat="44.12871" lon="3.10015">
        <ele>373</ele>
        <time>2015-10-09T23:29:18Z</time>
      </trkpt>
      <trkpt lat="44.12885" lon="3.10012">
        <ele>373</ele>
        <time>2015-10-09T23:31:18Z</time>
      </trkpt>
      <trkpt lat="44.12899" lon="3.10008">
        <ele>373</ele>
        <time>2015-10-09T23:33:18Z</time>
      </trkpt>
      <trkpt lat="44.12912" lon="3.10003">
        <ele>372</ele>
        <time>2015-10-09T23:35:18Z</time>
      </trkpt>
      <trkpt lat="44.12926" lon="3.1">
        <ele>372</ele>
        <time>2015-10-09T23:37:18Z</time>
      </trkpt>
      <trkpt lat="44.12942" lon="3.09995">
        <ele>372</ele>
        <time>2015-10-09T23:39:18Z</time>
      </trkpt>
      <trkpt lat="44.12957" lon="3.09989">
        <ele>371</ele>
        <time>2015-10-09T23:41:18Z</time>
      </trkpt>
      <trkpt lat="44.12974" lon="3.09986">
        <ele>371</ele>
        <time>2015-10-09T23:43:18Z</time>
      </trkpt>
      <trkpt lat="44.12989" lon="3.09984">
        <ele>371</ele>
        <time>2015-10-09T23:45:18Z</time>
      </trkpt>
      <trkpt lat="44.1301" lon="3.09984">
        <ele>371</ele>
        <time>2015-10-09T23:47:18Z</time>
      </trkpt>
      <trkpt lat="44.1303" lon="3.09985">
        <ele>371</ele>
        <time>2015-10-09T23:49:18Z</time>
      </trkpt>
      <trkpt lat="44.1305" lon="3.09987">
        <ele>370</ele>
        <time>2015-10-09T23:51:18Z</time>
      </trkpt>
      <trkpt lat="44.13068" lon="3.09989">
        <ele>370</ele>
        <time>2015-10-09T23:53:18Z</time>
      </trkpt>
      <trkpt lat="44.13085" lon="3.0999">
        <ele>370</ele>
        <time>2015-10-09T23:55:18Z</time>
      </trkpt>
      <trkpt lat="44.13099" lon="3.09991">
        <ele>370</ele>
        <time>2015-10-09T23:57:18Z</time>
      </trkpt>
      <trkpt lat="44.13115" lon="3.09992">
        <ele>370</ele>
        <time>2015-10-09T23:59:18Z</time>
      </trkpt>
      <trkpt lat="44.13142" lon="3.10001">
        <ele>370</ele>
        <time>2015-10-10T00:01:18Z</time>
      </trkpt>
      <trkpt lat="44.13156" lon="3.10008">
        <ele>371</ele>
        <time>2015-10-10T00:03:18Z</time>
      </trkpt>
      <trkpt lat="44.13169" lon="3.10013">
        <ele>372</ele>
        <time>2015-10-10T00:05:18Z</time>
      </trkpt>
      <trkpt lat="44.1318" lon="3.10018">
        <ele>372</ele>
        <time>2015-10-10T00:07:18Z</time>
      </trkpt>
      <trkpt lat="44.13197" lon="3.10028">
        <ele>372</ele>
        <time>2015-10-10T00:09:18Z</time>
      </trkpt>
      <trkpt lat="44.13214" lon="3.10036">
        <ele>372</ele>
        <time>2015-10-10T00:11:18Z</time>
      </trkpt>
      <trkpt lat="44.13227" lon="3.10046">
        <ele>373</ele>
        <time>2015-10-10T00:13:18Z</time>
      </trkpt>
      <trkpt lat="44.1324" lon="3.10059">
        <ele>374</ele>
        <time>2015-10-10T00:15:18Z</time>
      </trkpt>
      <trkpt lat="44.13252" lon="3.10071">
        <ele>375</ele>
        <time>2015-10-10T00:17:18Z</time>
      </trkpt>
      <trkpt lat="44.13258" lon="3.10078">
        <ele>376</ele>
        <time>2015-10-10T00:19:18Z</time>
      </trkpt>
      <trkpt lat="44.1327" lon="3.10089">
        <ele>377</ele>
        <time>2015-10-10T00:21:18Z</time>
      </trkpt>
      <trkpt lat="44.13283" lon="3.10104">
        <ele>379</ele>
        <time>2015-10-10T00:23:18Z</time>
      </trkpt>
      <trkpt lat="44.13305" lon="3.10128">
        <ele>382</ele>
        <time>2015-10-10T00:25:18Z</time>
      </trkpt>
      <trkpt lat="44.13319" lon="3.10141">
        <ele>383</ele>
        <time>2015-10-10T00:27:18Z</time>
      </trkpt>
      <trkpt lat="44.13328" lon="3.1015">
        <ele>384</ele>
        <time>2015-10-10T00:29:18Z</time>
      </trkpt>
      <trkpt lat="44.13338" lon="3.10158">
        <ele>385</ele>
        <time>2015-10-10T00:31:18Z</time>
      </trkpt>
      <trkpt lat="44.1335" lon="3.10165">
        <ele>385</ele>
        <time>2015-10-10T00:33:18Z</time>
      </trkpt>
      <trkpt lat="44.13362" lon="3.10175">
        <ele>386</ele>
        <time>2015-10-10T00:35:18Z</time>
      </trkpt>
      <trkpt lat="44.13374" lon="3.10183">
        <ele>386</ele>
        <time>2015-10-10T00:37:18Z</time>
      </trkpt>
      <trkpt lat="44.13388" lon="3.10193">
        <ele>387</ele>
        <time>2015-10-10T00:39:18Z</time>
      </trkpt>
      <trkpt lat="44.13394" lon="3.10207">
        <ele>389</ele>
        <time>2015-10-10T00:41:18Z</time>
      </trkpt>
      <trkpt lat="44.13407" lon="3.10217">
        <ele>390</ele>
        <time>2015-10-10T00:43:18Z</time>
      </trkpt>
      <trkpt lat="44.13416" lon="3.10227">
        <ele>392</ele>
        <time>2015-10-10T00:45:18Z</time>
      </trkpt>
      <trkpt lat="44.13426" lon="3.10243">
        <ele>395</ele>
        <time>2015-10-10T00:47:18Z</time>
      </trkpt>
      <trkpt lat="44.13432" lon="3.10257">
        <ele>398</ele>
        <time>2015-10-10T00:49:18Z</time>
      </trkpt>
      <trkpt lat="44.13445" lon="3.10267">
        <ele>400</ele>
        <time>2015-10-10T00:51:18Z</time>
      </trkpt>
      <trkpt lat="44.13456" lon="3.10271">
        <ele>400</ele>
        <time>2015-10-10T00:53:18Z</time>
      </trkpt>
      <trkpt lat="44.13467" lon="3.10279">
        <ele>402</ele>
        <time>2015-10-10T00:55:18Z</time>
      </trkpt>
      <trkpt lat="44.13476" lon="3.10284">
        <ele>402</ele>
        <time>2015-10-10T00:57:18Z</time>
      </trkpt>
      <trkpt lat="44.13491" lon="3.10287">
        <ele>402</ele>
        <time>2015-10-10T00:59:18Z</time>
      </trkpt>
      <trkpt lat="44.13504" lon="3.10294">
        <ele>403</ele>
        <time>2015-10-10T01:01:18Z</time>
      </trkpt>
      <trkpt lat="44.13518" lon="3.10299">
        <ele>403</ele>
        <time>2015-10-10T01:03:18Z</time>
      </trkpt>
      <trkpt lat="44.13532" lon="3.10304">
        <ele>403</ele>
        <time>2015-10-10T01:05:18Z</time>
      </trkpt>
      <trkpt lat="44.1354" lon="3.10305">
        <ele>403</ele>
        <time>2015-10-10T01:07:18Z</time>
      </trkpt>
      <trkpt lat="44.13551" lon="3.1031">
        <ele>403</ele>
        <time>2015-10-10T01:09:18Z</time>
      </trkpt>
      <trkpt lat="44.13562" lon="3.10315">
        <ele>403</ele>
        <time>2015-10-10T01:11:18Z</time>
      </trkpt>
      <trkpt lat="44.13577" lon="3.10322">
        <ele>404</ele>
        <time>2015-10-10T01:13:18Z</time>
      </trkpt>
      <trkpt lat="44.13592" lon="3.10331">
        <ele>405</ele>
        <time>2015-10-10T01:15:18Z</time>
      </trkpt>
      <trkpt lat="44.13606" lon="3.10337">
        <ele>405</ele>
        <time>2015-10-10T01:17:18Z</time>
      </trkpt>
      <trkpt lat="44.13616" lon="3.10345">
        <ele>408</ele>
        <time>2015-10-10T01:19:18Z</time>
      </trkpt>
      <trkpt lat="44.13638" lon="3.10357">
        <ele>411</ele>
        <time>2015-10-10T01:21:18Z</time>
      </trkpt>
      <trkpt lat="44.13655" lon="3.10364">
        <ele>412</ele>
        <time>2015-10-10T01:23:18Z</time>
      </trkpt>
      <trkpt lat="44.13671" lon="3.10369">
        <ele>413</ele>
        <time>2015-10-10T01:25:18Z</time>
      </trkpt>
      <trkpt lat="44.13686" lon="3.10371">
        <ele>412</ele>
        <time>2015-10-10T01:27:18Z</time>
      </trkpt>
      <trkpt lat="44.137" lon="3.10376">
        <ele>413</ele>
        <time>2015-10-10T01:29:18Z</time>
      </trkpt>
      <trkpt lat="44.13713" lon="3.10382">
        <ele>415</ele>
        <time>2015-10-10T01:31:18Z</time>
      </trkpt>
      <trkpt lat="44.13727" lon="3.10388">
        <ele>416</ele>
        <time>2015-10-10T01:33:18Z</time>
      </trkpt>
      <trkpt lat="44.13746" lon="3.10393">
        <ele>416</ele>
        <time>2015-10-10T01:35:18Z</time>
      </trkpt>
      <trkpt lat="44.13764" lon="3.10396">
        <ele>416</ele>
        <time>2015-10-10T01:37:18Z</time>
      </trkpt>
      <trkpt lat="44.13775" lon="3.10402">
        <ele>418</ele>
        <time>2015-10-10T01:39:18Z</time>
      </trkpt>
      <trkpt lat="44.13788" lon="3.1041">
        <ele>420</ele>
        <time>2015-10-10T01:41:18Z</time>
      </trkpt>
      <trkpt lat="44.13801" lon="3.10421">
        <ele>423</ele>
        <time>2015-10-10T01:43:18Z</time>
      </trkpt>
      <trkpt lat="44.13817" lon="3.10429">
        <ele>426</ele>
        <time>2015-10-10T01:45:18Z</time>
      </trkpt>
      <trkpt lat="44.13832" lon="3.10438">
        <ele>430</ele>
        <time>2015-10-10T01:47:18Z</time>
      </trkpt>
      <trkpt lat="44.13844" lon="3.10446">
        <ele>433</ele>
        <time>2015-10-10T01:49:18Z</time>
      </trkpt>
      <trkpt lat="44.13854" lon="3.10449">
        <ele>433</ele>
        <time>2015-10-10T01:51:18Z</time>
      </trkpt>
      <trkpt lat="44.13872" lon="3.10453">
        <ele>434</ele>
        <time>2015-10-10T01:53:18Z</time>
      </trkpt>
      <trkpt lat="44.13889" lon="3.10459">
        <ele>435</ele>
        <time>2015-10-10T01:55:18Z</time>
      </trkpt>
      <trkpt lat="44.13902" lon="3.10464">
        <ele>437</ele>
        <time>2015-10-10T01:57:18Z</time>
      </trkpt>
      <trkpt lat="44.13917" lon="3.10468">
        <ele>437</ele>
        <time>2015-10-10T01:59:18Z</time>
      </trkpt>
      <trkpt lat="44.13933" lon="3.10465">
        <ele>434</ele>
        <time>2015-10-10T02:01:18Z</time>
      </trkpt>
      <trkpt lat="44.13946" lon="3.10466">
        <ele>434</ele>
        <time>2015-10-10T02:03:18Z</time>
      </trkpt>
      <trkpt lat="44.13962" lon="3.10472">
        <ele>435</ele>
        <time>2015-10-10T02:05:18Z</time>
      </trkpt>
      <trkpt lat="44.13974" lon="3.10479">
        <ele>436</ele>
        <time>2015-10-10T02:07:18Z</time>
      </trkpt>
      <trkpt lat="44.13985" lon="3.10487">
        <ele>438</ele>
        <time>2015-10-10T02:09:18Z</time>
      </trkpt>
      <trkpt lat="44.13999" lon="3.10494">
        <ele>439</ele>
        <time>2015-10-10T02:11:18Z</time>
      </trkpt>
      <trkpt lat="44.14012" lon="3.10498">
        <ele>438</ele>
        <time>2015-10-10T02:13:18Z</time>
      </trkpt>
      <trkpt lat="44.1402" lon="3.10502">
        <ele>437</ele>
        <time>2015-10-10T02:15:18Z</time>
      </trkpt>
      <trkpt lat="44.14035" lon="3.10516">
        <ele>437</ele>
        <time>2015-10-10T02:17:18Z</time>
      </trkpt>
      <trkpt lat="44.14046" lon="3.10529">
        <ele>437</ele>
        <time>2015-10-10T02:19:18Z</time>
      </trkpt>
      <trkpt lat="44.14056" lon="3.10545">
        <ele>437</ele>
        <time>2015-10-10T02:21:18Z</time>
      </trkpt>
      <trkpt lat="44.14063" lon="3.10564">
        <ele>438</ele>
        <time>2015-10-10T02:23:18Z</time>
      </trkpt>
      <trkpt lat="44.14063" lon="3.10582">
        <ele>441</ele>
        <time>2015-10-10T02:25:18Z</time>
      </trkpt>
      <trkpt lat="44.14059" lon="3.10599">
        <ele>443</ele>
        <time>2015-10-10T02:27:18Z</time>
      </trkpt>
      <trkpt lat="44.14049" lon="3.10623">
        <ele>446</ele>
        <time>2015-10-10T02:29:18Z</time>
      </trkpt>
      <trkpt lat="44.14044" lon="3.10636">
        <ele>448</ele>
        <time>2015-10-10T02:31:18Z</time>
      </trkpt>
      <trkpt lat="44.1403" lon="3.10653">
        <ele>451</ele>
        <time>2015-10-10T02:33:18Z</time>
      </trkpt>
      <trkpt lat="44.14022" lon="3.10659">
        <ele>452</ele>
        <time>2015-10-10T02:35:18Z</time>
      </trkpt>
      <trkpt lat="44.14015" lon="3.10666">
        <ele>454</ele>
        <time>2015-10-10T02:37:18Z</time>
      </trkpt>
      <trkpt lat="44.14008" lon="3.10675">
        <ele>456</ele>
        <time>2015-10-10T02:39:18Z</time>
      </trkpt>
      <trkpt lat="44.13997" lon="3.10677">
        <ele>458</ele>
        <time>2015-10-10T02:41:18Z</time>
      </trkpt>
      <trkpt lat="44.13988" lon="3.10678">
        <ele>459</ele>
        <time>2015-10-10T02:43:18Z</time>
      </trkpt>
      <trkpt lat="44.13978" lon="3.10675">
        <ele>460</ele>
        <time>2015-10-10T02:45:18Z</time>
      </trkpt>
      <trkpt lat="44.13968" lon="3.10667">
        <ele>461</ele>
        <time>2015-10-10T02:47:18Z</time>
      </trkpt>
      <trkpt lat="44.13964" lon="3.10659">
        <ele>462</ele>
        <time>2015-10-10T02:49:18Z</time>
      </trkpt>
      <trkpt lat="44.13963" lon="3.10656">
        <ele>462</ele>
        <time>2015-10-10T02:51:18Z</time>
      </trkpt>
      <trkpt lat="44.13962" lon="3.10638">
        <ele>463</ele>
        <time>2015-10-10T02:53:18Z</time>
      </trkpt>
      <trkpt lat="44.13963" lon="3.10629">
        <ele>463</ele>
        <time>2015-10-10T02:55:18Z</time>
      </trkpt>
      <trkpt lat="44.13964" lon="3.10618">
        <ele>463</ele>
        <time>2015-10-10T02:57:18Z</time>
      </trkpt>
      <trkpt lat="44.1396" lon="3.106">
        <ele>465</ele>
        <time>2015-10-10T02:59:18Z</time>
      </trkpt>
      <trkpt lat="44.13958" lon="3.10595">
        <ele>465</ele>
        <time>2015-10-10T03:01:18Z</time>
      </trkpt>
      <trkpt lat="44.13954" lon="3.10595">
        <ele>465</ele>
        <time>2015-10-10T03:03:18Z</time>
      </trkpt>
      <trkpt lat="44.13942" lon="3.10597">
        <ele>466</ele>
        <time>2015-10-10T03:05:18Z</time>
      </trkpt>
      <trkpt lat="44.13928" lon="3.10596">
        <ele>468</ele>
        <time>2015-10-10T03:07:18Z</time>
      </trkpt>
      <trkpt lat="44.13917" lon="3.10597">
        <ele>469</ele>
        <time>2015-10-10T03:09:18Z</time>
      </trkpt>
      <trkpt lat="44.13911" lon="3.10598">
        <ele>469</ele>
        <time>2015-10-10T03:11:18Z</time>
      </trkpt>
      <trkpt lat="44.13905" lon="3.106">
        <ele>469</ele>
        <time>2015-10-10T03:13:18Z</time>
      </trkpt>
      <trkpt lat="44.139" lon="3.10603">
        <ele>469</ele>
        <time>2015-10-10T03:15:18Z</time>
      </trkpt>
      <trkpt lat="44.13897" lon="3.10606">
        <ele>469</ele>
        <time>2015-10-10T03:17:18Z</time>
      </trkpt>
      <trkpt lat="44.13888" lon="3.10619">
        <ele>469</ele>
        <time>2015-10-10T03:19:18Z</time>
      </trkpt>
      <trkpt lat="44.13878" lon="3.10632">
        <ele>470</ele>
        <time>2015-10-10T03:21:18Z</time>
      </trkpt>
      <trkpt lat="44.13864" lon="3.10653">
        <ele>470</ele>
        <time>2015-10-10T03:23:18Z</time>
      </trkpt>
      <trkpt lat="44.13857" lon="3.10665">
        <ele>471</ele>
        <time>2015-10-10T03:25:18Z</time>
      </trkpt>
      <trkpt lat="44.13851" lon="3.10676">
        <ele>472</ele>
        <time>2015-10-10T03:27:18Z</time>
      </trkpt>
      <trkpt lat="44.13847" lon="3.10684">
        <ele>472</ele>
        <time>2015-10-10T03:29:18Z</time>
      </trkpt>
      <trkpt lat="44.1384" lon="3.10699">
        <ele>474</ele>
        <time>2015-10-10T03:31:18Z</time>
      </trkpt>
      <trkpt lat="44.13835" lon="3.10713">
        <ele>475</ele>
        <time>2015-10-10T03:33:18Z</time>
      </trkpt>
      <trkpt lat="44.13825" lon="3.10739">
        <ele>478</ele>
        <time>2015-10-10T03:35:18Z</time>
      </trkpt>
      <trkpt lat="44.13823" lon="3.10747">
        <ele>479</ele>
        <time>2015-10-10T03:37:18Z</time>
      </trkpt>
      <trkpt lat="44.13822" lon="3.10758">
        <ele>481</ele>
        <time>2015-10-10T03:39:18Z</time>
      </trkpt>
      <trkpt lat="44.13822" lon="3.10767">
        <ele>483</ele>
        <time>2015-10-10T03:41:18Z</time>
      </trkpt>
      <trkpt lat="44.13822" lon="3.10779">
        <ele>485</ele>
        <time>2015-10-10T03:43:18Z</time>
      </trkpt>
      <trkpt lat="44.13821" lon="3.10788">
        <ele>487</ele>
        <time>2015-10-10T03:45:18Z</time>
      </trkpt>
      <trkpt lat="44.13822" lon="3.10798">
        <ele>489</ele>
        <time>2015-10-10T03:47:18Z</time>
      </trkpt>
      <trkpt lat="44.13826" lon="3.10815">
        <ele>492</ele>
        <time>2015-10-10T03:49:18Z</time>
      </trkpt>
      <trkpt lat="44.13829" lon="3.10828">
        <ele>494</ele>
        <time>2015-10-10T03:51:18Z</time>
      </trkpt>
      <trkpt lat="44.13829" lon="3.10834">
        <ele>495</ele>
        <time>2015-10-10T03:53:18Z</time>
      </trkpt>
      <trkpt lat="44.13836" lon="3.10845">
        <ele>497</ele>
        <time>2015-10-10T03:55:18Z</time>
      </trkpt>
      <trkpt lat="44.13843" lon="3.10857">
        <ele>498</ele>
        <time>2015-10-10T03:57:18Z</time>
      </trkpt>
      <trkpt lat="44.13854" lon="3.10872">
        <ele>500</ele>
        <time>2015-10-10T03:59:18Z</time>
      </trkpt>
      <trkpt lat="44.13862" lon="3.10888">
        <ele>502</ele>
        <time>2015-10-10T04:01:18Z</time>
      </trkpt>
      <trkpt lat="44.13864" lon="3.10896">
        <ele>504</ele>
        <time>2015-10-10T04:03:18Z</time>
      </trkpt>
      <trkpt lat="44.1387" lon="3.10908">
        <ele>505</ele>
        <time>2015-10-10T04:05:18Z</time>
      </trkpt>
      <trkpt lat="44.13873" lon="3.10922">
        <ele>507</ele>
        <time>2015-10-10T04:07:18Z</time>
      </trkpt>
      <trkpt lat="44.1388" lon="3.10942">
        <ele>510</ele>
        <time>2015-10-10T04:09:18Z</time>
      </trkpt>
      <trkpt lat="44.13887" lon="3.10953">
        <ele>511</ele>
        <time>2015-10-10T04:11:18Z</time>
      </trkpt>
      <trkpt lat="44.13892" lon="3.10962">
        <ele>511</ele>
        <time>2015-10-10T04:13:18Z</time>
      </trkpt>
      <trkpt lat="44.13899" lon="3.10976">
        <ele>512</ele>
        <time>2015-10-10T04:15:18Z</time>
      </trkpt>
      <trkpt lat="44.13902" lon="3.1099">
        <ele>514</ele>
        <time>2015-10-10T04:17:18Z</time>
      </trkpt>
      <trkpt lat="44.13902" lon="3.10992">
        <ele>514</ele>
        <time>2015-10-10T04:19:18Z</time>
      </trkpt>
      <trkpt lat="44.13905" lon="3.11005">
        <ele>516</ele>
        <time>2015-10-10T04:21:18Z</time>
      </trkpt>
      <trkpt lat="44.13906" lon="3.11016">
        <ele>519</ele>
        <time>2015-10-10T04:23:18Z</time>
      </trkpt>
      <trkpt lat="44.13906" lon="3.11028">
        <ele>523</ele>
        <time>2015-10-10T04:25:18Z</time>
      </trkpt>
      <trkpt lat="44.13906" lon="3.11039">
        <ele>526</ele>
        <time>2015-10-10T04:27:18Z</time>
      </trkpt>
      <trkpt lat="44.13906" lon="3.1105">
        <ele>529</ele>
        <time>2015-10-10T04:29:18Z</time>
      </trkpt>
      <trkpt lat="44.13908" lon="3.11056">
        <ele>530</ele>
        <time>2015-10-10T04:31:18Z</time>
      </trkpt>
      <trkpt lat="44.13908" lon="3.11067">
        <ele>533</ele>
        <time>2015-10-10T04:33:18Z</time>
      </trkpt>
      <trkpt lat="44.13909" lon="3.1107">
        <ele>534</ele>
        <time>2015-10-10T04:35:18Z</time>
      </trkpt>
      <trkpt lat="44.13911" lon="3.11079">
        <ele>536</ele>
        <time>2015-10-10T04:37:18Z</time>
      </trkpt>
      <trkpt lat="44.13911" lon="3.11086">
        <ele>538</ele>
        <time>2015-10-10T04:39:18Z</time>
      </trkpt>
      <trkpt lat="44.13914" lon="3.11093">
        <ele>538</ele>
        <time>2015-10-10T04:41:18Z</time>
      </trkpt>
      <trkpt lat="44.13915" lon="3.11094">
        <ele>538</ele>
        <time>2015-10-10T04:43:18Z</time>
      </trkpt>
      <trkpt lat="44.13916" lon="3.11096">
        <ele>538</ele>
        <time>2015-10-10T04:45:18Z</time>
      </trkpt>
      <trkpt lat="44.13918" lon="3.11105">
        <ele>540</ele>
        <time>2015-10-10T04:47:18Z</time>
      </trkpt>
      <trkpt lat="44.13922" lon="3.11113">
        <ele>541</ele>
        <time>2015-10-10T04:49:18Z</time>
      </trkpt>
      <trkpt lat="44.13927" lon="3.1112">
        <ele>541</ele>
        <time>2015-10-10T04:51:18Z</time>
      </trkpt>
      <trkpt lat="44.1393" lon="3.11127">
        <ele>542</ele>
        <time>2015-10-10T04:53:18Z</time>
      </trkpt>
      <trkpt lat="44.13934" lon="3.1113">
        <ele>541</ele>
        <time>2015-10-10T04:55:18Z</time>
      </trkpt>
      <trkpt lat="44.13936" lon="3.11134">
        <ele>542</ele>
        <time>2015-10-10T04:57:18Z</time>
      </trkpt>
      <trkpt lat="44.13942" lon="3.11149">
        <ele>543</ele>
        <time>2015-10-10T04:59:18Z</time>
      </trkpt>
      <trkpt lat="44.13942" lon="3.1115">
        <ele>544</ele>
        <time>2015-10-10T05:01:18Z</time>
      </trkpt>
      <trkpt lat="44.13945" lon="3.1116">
        <ele>545</ele>
        <time>2015-10-10T05:03:18Z</time>
      </trkpt>
      <trkpt lat="44.13946" lon="3.11161">
        <ele>545</ele>
        <time>2015-10-10T05:05:18Z</time>
      </trkpt>
      <trkpt lat="44.13947" lon="3.11166">
        <ele>546</ele>
        <time>2015-10-10T05:07:18Z</time>
      </trkpt>
      <trkpt lat="44.13948" lon="3.11179">
        <ele>548</ele>
        <time>2015-10-10T05:09:18Z</time>
      </trkpt>
      <trkpt lat="44.1395" lon="3.11181">
        <ele>548</ele>
        <time>2015-10-10T05:11:18Z</time>
      </trkpt>
      <trkpt lat="44.13951" lon="3.11183">
        <ele>548</ele>
        <time>2015-10-10T05:13:18Z</time>
      </trkpt>
      <trkpt lat="44.13951" lon="3.11188">
        <ele>549</ele>
        <time>2015-10-10T05:15:18Z</time>
      </trkpt>
      <trkpt lat="44.13954" lon="3.11202">
        <ele>551</ele>
        <time>2015-10-10T05:17:18Z</time>
      </trkpt>
      <trkpt lat="44.13954" lon="3.11209">
        <ele>552</ele>
        <time>2015-10-10T05:19:18Z</time>
      </trkpt>
      <trkpt lat="44.13949" lon="3.11206">
        <ele>554</ele>
        <time>2015-10-10T05:21:18Z</time>
      </trkpt>
      <trkpt lat="44.13944" lon="3.11202">
        <ele>556</ele>
        <time>2015-10-10T05:23:18Z</time>
      </trkpt>
      <trkpt lat="44.13936" lon="3.11189">
        <ele>557</ele>
        <time>2015-10-10T05:25:18Z</time>
      </trkpt>
      <trkpt lat="44.13932" lon="3.11187">
        <ele>558</ele>
        <time>2015-10-10T05:27:18Z</time>
      </trkpt>
      <trkpt lat="44.13929" lon="3.11185">
        <ele>559</ele>
        <time>2015-10-10T05:29:18Z</time>
      </trkpt>
      <trkpt lat="44.13925" lon="3.1118">
        <ele>560</ele>
        <time>2015-10-10T05:31:18Z</time>
      </trkpt>
      <trkpt lat="44.13923" lon="3.11181">
        <ele>561</ele>
        <time>2015-10-10T05:33:18Z</time>
      </trkpt>
      <trkpt lat="44.13916" lon="3.1118">
        <ele>565</ele>
        <time>2015-10-10T05:35:18Z</time>
      </trkpt>
      <trkpt lat="44.13915" lon="3.11179">
        <ele>565</ele>
        <time>2015-10-10T05:37:18Z</time>
      </trkpt>
      <trkpt lat="44.13906" lon="3.11177">
        <ele>569</ele>
        <time>2015-10-10T05:39:18Z</time>
      </trkpt>
      <trkpt lat="44.13898" lon="3.11174">
        <ele>572</ele>
        <time>2015-10-10T05:41:18Z</time>
      </trkpt>
      <trkpt lat="44.13896" lon="3.11171">
        <ele>573</ele>
        <time>2015-10-10T05:43:18Z</time>
      </trkpt>
      <trkpt lat="44.13894" lon="3.1117">
        <ele>573</ele>
        <time>2015-10-10T05:45:18Z</time>
      </trkpt>
      <trkpt lat="44.13892" lon="3.11169">
        <ele>574</ele>
        <time>2015-10-10T05:47:18Z</time>
      </trkpt>
      <trkpt lat="44.13883" lon="3.11162">
        <ele>576</ele>
        <time>2015-10-10T05:49:18Z</time>
      </trkpt>
      <trkpt lat="44.13876" lon="3.1116">
        <ele>579</ele>
        <time>2015-10-10T05:51:18Z</time>
      </trkpt>
      <trkpt lat="44.13873" lon="3.11158">
        <ele>580</ele>
        <time>2015-10-10T05:53:18Z</time>
      </trkpt>
      <trkpt lat="44.1387" lon="3.11152">
        <ele>580</ele>
        <time>2015-10-10T05:55:18Z</time>
      </trkpt>
      <trkpt lat="44.13865" lon="3.11149">
        <ele>581</ele>
        <time>2015-10-10T05:57:18Z</time>
      </trkpt>
      <trkpt lat="44.13862" lon="3.11144">
        <ele>581</ele>
        <time>2015-10-10T05:59:18Z</time>
      </trkpt>
      <trkpt lat="44.13857" lon="3.11142">
        <ele>583</ele>
        <time>2015-10-10T06:01:18Z</time>
      </trkpt>
      <trkpt lat="44.13854" lon="3.11142">
        <ele>584</ele>
        <time>2015-10-10T06:03:18Z</time>
      </trkpt>
      <trkpt lat="44.1385" lon="3.11143">
        <ele>587</ele>
        <time>2015-10-10T06:05:18Z</time>
      </trkpt>
      <trkpt lat="44.13846" lon="3.11142">
        <ele>588</ele>
        <time>2015-10-10T06:07:18Z</time>
      </trkpt>
      <trkpt lat="44.13843" lon="3.11141">
        <ele>590</ele>
        <time>2015-10-10T06:09:18Z</time>
      </trkpt>
      <trkpt lat="44.13834" lon="3.1114">
        <ele>594</ele>
        <time>2015-10-10T06:11:18Z</time>
      </trkpt>
      <trkpt lat="44.13832" lon="3.11139">
        <ele>594</ele>
        <time>2015-10-10T06:13:18Z</time>
      </trkpt>
      <trkpt lat="44.13829" lon="3.11138">
        <ele>596</ele>
        <time>2015-10-10T06:15:18Z</time>
      </trkpt>
      <trkpt lat="44.13823" lon="3.11135">
        <ele>598</ele>
        <time>2015-10-10T06:17:18Z</time>
      </trkpt>
      <trkpt lat="44.13819" lon="3.11132">
        <ele>599</ele>
        <time>2015-10-10T06:19:18Z</time>
      </trkpt>
      <trkpt lat="44.13815" lon="3.1113">
        <ele>600</ele>
        <time>2015-10-10T06:21:18Z</time>
      </trkpt>
      <trkpt lat="44.1381" lon="3.11129">
        <ele>602</ele>
        <time>2015-10-10T06:23:18Z</time>
      </trkpt>
      <trkpt lat="44.13806" lon="3.11125">
        <ele>603</ele>
        <time>2015-10-10T06:25:18Z</time>
      </trkpt>
      <trkpt lat="44.13805" lon="3.11124">
        <ele>603</ele>
        <time>2015-10-10T06:27:18Z</time>
      </trkpt>
      <trkpt lat="44.13803" lon="3.11122">
        <ele>603</ele>
        <time>2015-10-10T06:29:18Z</time>
      </trkpt>
      <trkpt lat="44.13796" lon="3.1112">
        <ele>606</ele>
        <time>2015-10-10T06:31:18Z</time>
      </trkpt>
      <trkpt lat="44.1379" lon="3.11117">
        <ele>608</ele>
        <time>2015-10-10T06:33:18Z</time>
      </trkpt>
      <trkpt lat="44.13788" lon="3.11115">
        <ele>608</ele>
        <time>2015-10-10T06:35:18Z</time>
      </trkpt>
      <trkpt lat="44.13782" lon="3.11109">
        <ele>609</ele>
        <time>2015-10-10T06:37:18Z</time>
      </trkpt>
      <trkpt lat="44.13781" lon="3.11108">
        <ele>609</ele>
        <time>2015-10-10T06:39:18Z</time>
      </trkpt>
      <trkpt lat="44.13776" lon="3.11101">
        <ele>609</ele>
        <time>2015-10-10T06:41:18Z</time>
      </trkpt>
      <trkpt lat="44.13772" lon="3.11101">
        <ele>611</ele>
        <time>2015-10-10T06:43:18Z</time>
      </trkpt>
      <trkpt lat="44.13766" lon="3.11099">
        <ele>613</ele>
        <time>2015-10-10T06:45:18Z</time>
      </trkpt>
      <trkpt lat="44.13758" lon="3.11094">
        <ele>615</ele>
        <time>2015-10-10T06:47:18Z</time>
      </trkpt>
      <trkpt lat="44.13751" lon="3.11093">
        <ele>618</ele>
        <time>2015-10-10T06:49:18Z</time>
      </trkpt>
      <trkpt lat="44.1375" lon="3.11094">
        <ele>619</ele>
        <time>2015-10-10T06:51:18Z</time>
      </trkpt>
      <trkpt lat="44.13743" lon="3.11095">
        <ele>621</ele>
        <time>2015-10-10T06:53:18Z</time>
      </trkpt>
      <trkpt lat="44.13736" lon="3.11098">
        <ele>623</ele>
        <time>2015-10-10T06:55:18Z</time>
      </trkpt>
      <trkpt lat="44.13732" lon="3.11101">
        <ele>625</ele>
        <time>2015-10-10T06:57:18Z</time>
      </trkpt>
      <trkpt lat="44.13722" lon="3.11104">
        <ele>628</ele>
        <time>2015-10-10T06:59:18Z</time>
      </trkpt>
      <trkpt lat="44.13721" lon="3.11105">
        <ele>629</ele>
        <time>2015-10-10T07:01:18Z</time>
      </trkpt>
      <trkpt lat="44.13711" lon="3.11107">
        <ele>631</ele>
        <time>2015-10-10T07:03:18Z</time>
      </trkpt>
      <trkpt lat="44.13707" lon="3.11108">
        <ele>632</ele>
        <time>2015-10-10T07:05:18Z</time>
      </trkpt>
      <trkpt lat="44.13699" lon="3.11109">
        <ele>634</ele>
        <time>2015-10-10T07:07:18Z</time>
      </trkpt>
      <trkpt lat="44.13693" lon="3.11113">
        <ele>637</ele>
        <time>2015-10-10T07:09:18Z</time>
      </trkpt>
      <trkpt lat="44.13692" lon="3.11114">
        <ele>638</ele>
        <time>2015-10-10T07:11:18Z</time>
      </trkpt>
      <trkpt lat="44.1369" lon="3.11116">
        <ele>639</ele>
        <time>2015-10-10T07:13:18Z</time>
      </trkpt>
      <trkpt lat="44.1368" lon="3.1112">
        <ele>643</ele>
        <time>2015-10-10T07:15:18Z</time>
      </trkpt>
      <trkpt lat="44.13672" lon="3.11122">
        <ele>645</ele>
        <time>2015-10-10T07:17:18Z</time>
      </trkpt>
      <trkpt lat="44.1367" lon="3.11121">
        <ele>645</ele>
        <time>2015-10-10T07:19:18Z</time>
      </trkpt>
      <trkpt lat="44.13668" lon="3.11122">
        <ele>646</ele>
        <time>2015-10-10T07:21:18Z</time>
      </trkpt>
      <trkpt lat="44.13664" lon="3.11131">
        <ele>650</ele>
        <time>2015-10-10T07:23:18Z</time>
      </trkpt>
      <trkpt lat="44.13663" lon="3.11134">
        <ele>652</ele>
        <time>2015-10-10T07:25:18Z</time>
      </trkpt>
      <trkpt lat="44.1366" lon="3.11134">
        <ele>652</ele>
        <time>2015-10-10T07:27:18Z</time>
      </trkpt>
      <trkpt lat="44.13651" lon="3.11135">
        <ele>653</ele>
        <time>2015-10-10T07:29:18Z</time>
      </trkpt>
      <trkpt lat="44.1365" lon="3.11135">
        <ele>653</ele>
        <time>2015-10-10T07:31:18Z</time>
      </trkpt>
      <trkpt lat="44.13644" lon="3.1114">
        <ele>655</ele>
        <time>2015-10-10T07:33:18Z</time>
      </trkpt>
      <trkpt lat="44.13637" lon="3.11145">
        <ele>658</ele>
        <time>2015-10-10T07:35:18Z</time>
      </trkpt>
      <trkpt lat="44.13635" lon="3.11151">
        <ele>661</ele>
        <time>2015-10-10T07:37:18Z</time>
      </trkpt>
      <trkpt lat="44.13629" lon="3.11153">
        <ele>662</ele>
        <time>2015-10-10T07:39:18Z</time>
      </trkpt>
      <trkpt lat="44.13622" lon="3.11156">
        <ele>664</ele>
        <time>2015-10-10T07:41:18Z</time>
      </trkpt>
      <trkpt lat="44.13611" lon="3.1116">
        <ele>666</ele>
        <time>2015-10-10T07:43:18Z</time>
      </trkpt>
      <trkpt lat="44.1361" lon="3.11161">
        <ele>667</ele>
        <time>2015-10-10T07:45:18Z</time>
      </trkpt>
      <trkpt lat="44.13606" lon="3.11161">
        <ele>667</ele>
        <time>2015-10-10T07:47:18Z</time>
      </trkpt>
      <trkpt lat="44.13599" lon="3.11162">
        <ele>668</ele>
        <time>2015-10-10T07:49:18Z</time>
      </trkpt>
      <trkpt lat="44.13593" lon="3.11164">
        <ele>669</ele>
        <time>2015-10-10T07:51:18Z</time>
      </trkpt>
      <trkpt lat="44.13589" lon="3.11165">
        <ele>670</ele>
        <time>2015-10-10T07:53:18Z</time>
      </trkpt>
      <trkpt lat="44.13584" lon="3.11165">
        <ele>670</ele>
        <time>2015-10-10T07:55:18Z</time>
      </trkpt>
      <trkpt lat="44.13579" lon="3.11167">
        <ele>671</ele>
        <time>2015-10-10T07:57:18Z</time>
      </trkpt>
      <trkpt lat="44.13573" lon="3.1117">
        <ele>673</ele>
        <time>2015-10-10T07:59:18Z</time>
      </trkpt>
      <trkpt lat="44.1357" lon="3.11172">
        <ele>674</ele>
        <time>2015-10-10T08:01:18Z</time>
      </trkpt>
      <trkpt lat="44.13567" lon="3.11174">
        <ele>675</ele>
        <time>2015-10-10T08:03:18Z</time>
      </trkpt>
      <trkpt lat="44.13565" lon="3.11177">
        <ele>677</ele>
        <time>2015-10-10T08:05:18Z</time>
      </trkpt>
      <trkpt lat="44.13563" lon="3.11178">
        <ele>678</ele>
        <time>2015-10-10T08:07:18Z</time>
      </trkpt>
      <trkpt lat="44.13557" lon="3.11183">
        <ele>681</ele>
        <time>2015-10-10T08:09:18Z</time>
      </trkpt>
      <trkpt lat="44.13553" lon="3.11184">
        <ele>682</ele>
        <time>2015-10-10T08:11:18Z</time>
      </trkpt>
      <trkpt lat="44.13549" lon="3.11188">
        <ele>684</ele>
        <time>2015-10-10T08:13:18Z</time>
      </trkpt>
      <trkpt lat="44.13546" lon="3.1119">
        <ele>685</ele>
        <time>2015-10-10T08:15:18Z</time>
      </trkpt>
      <trkpt lat="44.13543" lon="3.11191">
        <ele>686</ele>
        <time>2015-10-10T08:17:18Z</time>
      </trkpt>
      <trkpt lat="44.13537" lon="3.11193">
        <ele>687</ele>
        <time>2015-10-10T08:19:18Z</time>
      </trkpt>
      <trkpt lat="44.13535" lon="3.11194">
        <ele>688</ele>
        <time>2015-10-10T08:21:18Z</time>
      </trkpt>
      <trkpt lat="44.13533" lon="3.11195">
        <ele>688</ele>
        <time>2015-10-10T08:23:18Z</time>
      </trkpt>
      <trkpt lat="44.13528" lon="3.11197">
        <ele>690</ele>
        <time>2015-10-10T08:25:18Z</time>
      </trkpt>
      <trkpt lat="44.13524" lon="3.11199">
        <ele>691</ele>
        <time>2015-10-10T08:27:18Z</time>
      </trkpt>
      <trkpt lat="44.1352" lon="3.112">
        <ele>692</ele>
        <time>2015-10-10T08:29:18Z</time>
      </trkpt>
      <trkpt lat="44.13516" lon="3.112">
        <ele>692</ele>
        <time>2015-10-10T08:31:18Z</time>
      </trkpt>
      <trkpt lat="44.13511" lon="3.11202">
        <ele>693</ele>
        <time>2015-10-10T08:33:18Z</time>
      </trkpt>
      <trkpt lat="44.13508" lon="3.11203">
        <ele>694</ele>
        <time>2015-10-10T08:35:18Z</time>
      </trkpt>
      <trkpt lat="44.13506" lon="3.11205">
        <ele>695</ele>
        <time>2015-10-10T08:37:18Z</time>
      </trkpt>
      <trkpt lat="44.13502" lon="3.11206">
        <ele>696</ele>
        <time>2015-10-10T08:39:18Z</time>
      </trkpt>
      <trkpt lat="44.13502" lon="3.11207">
        <ele>697</ele>
        <time>2015-10-10T08:41:18Z</time>
      </trkpt>
      <trkpt lat="44.13499" lon="3.11206">
        <ele>696</ele>
        <time>2015-10-10T08:43:18Z</time>
      </trkpt>
      <trkpt lat="44.1349" lon="3.11207">
        <ele>697</ele>
        <time>2015-10-10T08:45:18Z</time>
      </trkpt>
      <trkpt lat="44.13484" lon="3.11208">
        <ele>698</ele>
        <time>2015-10-10T08:47:18Z</time>
      </trkpt>
      <trkpt lat="44.1348" lon="3.1121">
        <ele>699</ele>
        <time>2015-10-10T08:49:18Z</time>
      </trkpt>
      <trkpt lat="44.13477" lon="3.11212">
        <ele>700</ele>
        <time>2015-10-10T08:51:18Z</time>
      </trkpt>
      <trkpt lat="44.13473" lon="3.11216">
        <ele>703</ele>
        <time>2015-10-10T08:53:18Z</time>
      </trkpt>
      <trkpt lat="44.1347" lon="3.11218">
        <ele>704</ele>
        <time>2015-10-10T08:55:18Z</time>
      </trkpt>
      <trkpt lat="44.13467" lon="3.11219">
        <ele>704</ele>
        <time>2015-10-10T08:57:18Z</time>
      </trkpt>
      <trkpt lat="44.13461" lon="3.11223">
        <ele>707</ele>
        <time>2015-10-10T08:59:18Z</time>
      </trkpt>
      <trkpt lat="44.13455" lon="3.11225">
        <ele>708</ele>
        <time>2015-10-10T09:01:18Z</time>
      </trkpt>
      <trkpt lat="44.13454" lon="3.11227">
        <ele>709</ele>
        <time>2015-10-10T09:03:18Z</time>
      </trkpt>
      <trkpt lat="44.13452" lon="3.11229">
        <ele>711</ele>
        <time>2015-10-10T09:05:18Z</time>
      </trkpt>
      <trkpt lat="44.13448" lon="3.1123">
        <ele>711</ele>
        <time>2015-10-10T09:07:18Z</time>
      </trkpt>
      <trkpt lat="44.13442" lon="3.11234">
        <ele>714</ele>
        <time>2015-10-10T09:09:18Z</time>
      </trkpt>
      <trkpt lat="44.13439" lon="3.11235">
        <ele>714</ele>
        <time>2015-10-10T09:11:18Z</time>
      </trkpt>
      <trkpt lat="44.13434" lon="3.11237">
        <ele>715</ele>
        <time>2015-10-10T09:13:18Z</time>
      </trkpt>
      <trkpt lat="44.13429" lon="3.1124">
        <ele>717</ele>
        <time>2015-10-10T09:15:18Z</time>
      </trkpt>
      <trkpt lat="44.13423" lon="3.11243">
        <ele>719</ele>
        <time>2015-10-10T09:17:18Z</time>
      </trkpt>
      <trkpt lat="44.13417" lon="3.11246">
        <ele>721</ele>
        <time>2015-10-10T09:19:18Z</time>
      </trkpt>
      <trkpt lat="44.13412" lon="3.11252">
        <ele>724</ele>
        <time>2015-10-10T09:21:18Z</time>
      </trkpt>
      <trkpt lat="44.13412" lon="3.11257">
        <ele>727</ele>
        <time>2015-10-10T09:23:18Z</time>
      </trkpt>
      <trkpt lat="44.13413" lon="3.11258">
        <ele>727</ele>
        <time>2015-10-10T09:25:18Z</time>
      </trkpt>
      <trkpt lat="44.13422" lon="3.1126">
        <ele>728</ele>
        <time>2015-10-10T09:27:18Z</time>
      </trkpt>
      <trkpt lat="44.13434" lon="3.11261">
        <ele>728</ele>
        <time>2015-10-10T09:29:18Z</time>
      </trkpt>
      <trkpt lat="44.13438" lon="3.11264">
        <ele>730</ele>
        <time>2015-10-10T09:31:18Z</time>
      </trkpt>
      <trkpt lat="44.13436" lon="3.11267">
        <ele>731</ele>
        <time>2015-10-10T09:33:18Z</time>
      </trkpt>
      <trkpt lat="44.13425" lon="3.11273">
        <ele>734</ele>
        <time>2015-10-10T09:35:18Z</time>
      </trkpt>
      <trkpt lat="44.13419" lon="3.11277">
        <ele>736</ele>
        <time>2015-10-10T09:37:18Z</time>
      </trkpt>
      <trkpt lat="44.13412" lon="3.1128">
        <ele>738</ele>
        <time>2015-10-10T09:39:18Z</time>
      </trkpt>
      <trkpt lat="44.13408" lon="3.11281">
        <ele>738</ele>
        <time>2015-10-10T09:41:18Z</time>
      </trkpt>
      <trkpt lat="44.13405" lon="3.11283">
        <ele>739</ele>
        <time>2015-10-10T09:43:18Z</time>
      </trkpt>
      <trkpt lat="44.134" lon="3.11288">
        <ele>742</ele>
        <time>2015-10-10T09:45:18Z</time>
      </trkpt>
      <trkpt lat="44.13395" lon="3.1129">
        <ele>743</ele>
        <time>2015-10-10T09:47:18Z</time>
      </trkpt>
      <trkpt lat="44.13392" lon="3.11292">
        <ele>744</ele>
        <time>2015-10-10T09:49:18Z</time>
      </trkpt>
      <trkpt lat="44.13388" lon="3.11297">
        <ele>747</ele>
        <time>2015-10-10T09:51:18Z</time>
      </trkpt>
      <trkpt lat="44.13385" lon="3.113">
        <ele>748</ele>
        <time>2015-10-10T09:53:18Z</time>
      </trkpt>
      <trkpt lat="44.13382" lon="3.11304">
        <ele>750</ele>
        <time>2015-10-10T09:55:18Z</time>
      </trkpt>
      <trkpt lat="44.13376" lon="3.11309">
        <ele>753</ele>
        <time>2015-10-10T09:57:18Z</time>
      </trkpt>
      <trkpt lat="44.13372" lon="3.11311">
        <ele>754</ele>
        <time>2015-10-10T09:59:18Z</time>
      </trkpt>
      <trkpt lat="44.13373" lon="3.11315">
        <ele>756</ele>
        <time>2015-10-10T10:01:18Z</time>
      </trkpt>
      <trkpt lat="44.13376" lon="3.11317">
        <ele>757</ele>
        <time>2015-10-10T10:03:18Z</time>
      </trkpt>
      <trkpt lat="44.13379" lon="3.11317">
        <ele>757</ele>
        <time>2015-10-10T10:05:18Z</time>
      </trkpt>
      <trkpt lat="44.13388" lon="3.11315">
        <ele>755</ele>
        <time>2015-10-10T10:07:18Z</time>
      </trkpt>
      <trkpt lat="44.13391" lon="3.11318">
        <ele>757</ele>
        <time>2015-10-10T10:09:18Z</time>
      </trkpt>
      <trkpt lat="44.13398" lon="3.11323">
        <ele>759</ele>
        <time>2015-10-10T10:11:18Z</time>
      </trkpt>
      <trkpt lat="44.13405" lon="3.11331">
        <ele>763</ele>
        <time>2015-10-10T10:13:18Z</time>
      </trkpt>
      <trkpt lat="44.13408" lon="3.11336">
        <ele>765</ele>
        <time>2015-10-10T10:15:18Z</time>
      </trkpt>
      <trkpt lat="44.13411" lon="3.1134">
        <ele>767</ele>
        <time>2015-10-10T10:17:18Z</time>
      </trkpt>
      <trkpt lat="44.13413" lon="3.11342">
        <ele>767</ele>
        <time>2015-10-10T10:19:18Z</time>
      </trkpt>
      <trkpt lat="44.13419" lon="3.11347">
        <ele>769</ele>
        <time>2015-10-10T10:21:18Z</time>
      </trkpt>
      <trkpt lat="44.13424" lon="3.1135">
        <ele>771</ele>
        <time>2015-10-10T10:23:18Z</time>
      </trkpt>
      <trkpt lat="44.13435" lon="3.11353">
        <ele>772</ele>
        <time>2015-10-10T10:25:18Z</time>
      </trkpt>
      <trkpt lat="44.13438" lon="3.11354">
        <ele>773</ele>
        <time>2015-10-10T10:27:18Z</time>
      </trkpt>
      <trkpt lat="44.13443" lon="3.11357">
        <ele>774</ele>
        <time>2015-10-10T10:29:18Z</time>
      </trkpt>
      <trkpt lat="44.13449" lon="3.11358">
        <ele>774</ele>
        <time>2015-10-10T10:31:18Z</time>
      </trkpt>
      <trkpt lat="44.13452" lon="3.11363">
        <ele>776</ele>
        <time>2015-10-10T10:33:18Z</time>
      </trkpt>
      <trkpt lat="44.13461" lon="3.11365">
        <ele>777</ele>
        <time>2015-10-10T10:35:18Z</time>
      </trkpt>
      <trkpt lat="44.13467" lon="3.11367">
        <ele>778</ele>
        <time>2015-10-10T10:37:18Z</time>
      </trkpt>
      <trkpt lat="44.13472" lon="3.11371">
        <ele>780</ele>
        <time>2015-10-10T10:39:18Z</time>
      </trkpt>
      <trkpt lat="44.1348" lon="3.11377">
        <ele>783</ele>
        <time>2015-10-10T10:41:18Z</time>
      </trkpt>
      <trkpt lat="44.13489" lon="3.1138">
        <ele>784</ele>
        <time>2015-10-10T10:43:18Z</time>
      </trkpt>
      <trkpt lat="44.13497" lon="3.11383">
        <ele>786</ele>
        <time>2015-10-10T10:45:18Z</time>
      </trkpt>
      <trkpt lat="44.13499" lon="3.11385">
        <ele>787</ele>
        <time>2015-10-10T10:47:18Z</time>
      </trkpt>
      <trkpt lat="44.13503" lon="3.11385">
        <ele>786</ele>
        <time>2015-10-10T10:49:18Z</time>
      </trkpt>
      <trkpt lat="44.1351" lon="3.11393">
        <ele>789</ele>
        <time>2015-10-10T10:51:18Z</time>
      </trkpt>
      <trkpt lat="44.13516" lon="3.11393">
        <ele>789</ele>
        <time>2015-10-10T10:53:18Z</time>
      </trkpt>
      <trkpt lat="44.1352" lon="3.11397">
        <ele>790</ele>
        <time>2015-10-10T10:55:18Z</time>
      </trkpt>
      <trkpt lat="44.13524" lon="3.11402">
        <ele>792</ele>
        <time>2015-10-10T10:57:18Z</time>
      </trkpt>
      <trkpt lat="44.13532" lon="3.11414">
        <ele>796</ele>
        <time>2015-10-10T10:59:18Z</time>
      </trkpt>
      <trkpt lat="44.13535" lon="3.11417">
        <ele>797</ele>
        <time>2015-10-10T11:01:18Z</time>
      </trkpt>
      <trkpt lat="44.13538" lon="3.1142">
        <ele>798</ele>
        <time>2015-10-10T11:03:18Z</time>
      </trkpt>
      <trkpt lat="44.13544" lon="3.11426">
        <ele>799</ele>
        <time>2015-10-10T11:05:18Z</time>
      </trkpt>
      <trkpt lat="44.13549" lon="3.11432">
        <ele>800</ele>
        <time>2015-10-10T11:07:18Z</time>
      </trkpt>
      <trkpt lat="44.13552" lon="3.11436">
        <ele>801</ele>
        <time>2015-10-10T11:09:18Z</time>
      </trkpt>
      <trkpt lat="44.13556" lon="3.11443">
        <ele>802</ele>
        <time>2015-10-10T11:11:18Z</time>
      </trkpt>
      <trkpt lat="44.13561" lon="3.11448">
        <ele>803</ele>
        <time>2015-10-10T11:13:18Z</time>
      </trkpt>
      <trkpt lat="44.13565" lon="3.11453">
        <ele>804</ele>
        <time>2015-10-10T11:15:18Z</time>
      </trkpt>
      <trkpt lat="44.13569" lon="3.11461">
        <ele>806</ele>
        <time>2015-10-10T11:17:18Z</time>
      </trkpt>
      <trkpt lat="44.13575" lon="3.11471">
        <ele>808</ele>
        <time>2015-10-10T11:19:18Z</time>
      </trkpt>
      <trkpt lat="44.13579" lon="3.11477">
        <ele>809</ele>
        <time>2015-10-10T11:21:18Z</time>
      </trkpt>
      <trkpt lat="44.13586" lon="3.11487">
        <ele>810</ele>
        <time>2015-10-10T11:23:18Z</time>
      </trkpt>
      <trkpt lat="44.1359" lon="3.11496">
        <ele>810</ele>
        <time>2015-10-10T11:25:18Z</time>
      </trkpt>
      <trkpt lat="44.13592" lon="3.11507">
        <ele>811</ele>
        <time>2015-10-10T11:27:18Z</time>
      </trkpt>
      <trkpt lat="44.13592" lon="3.11515">
        <ele>811</ele>
        <time>2015-10-10T11:29:18Z</time>
      </trkpt>
      <trkpt lat="44.1359" lon="3.11519">
        <ele>813</ele>
        <time>2015-10-10T11:31:18Z</time>
      </trkpt>
      <trkpt lat="44.13586" lon="3.11523">
        <ele>815</ele>
        <time>2015-10-10T11:33:18Z</time>
      </trkpt>
      <trkpt lat="44.13578" lon="3.11525">
        <ele>817</ele>
        <time>2015-10-10T11:35:18Z</time>
      </trkpt>
      <trkpt lat="44.13572" lon="3.1153">
        <ele>818</ele>
        <time>2015-10-10T11:37:18Z</time>
      </trkpt>
      <trkpt lat="44.13569" lon="3.11544">
        <ele>820</ele>
        <time>2015-10-10T11:39:18Z</time>
      </trkpt>
      <trkpt lat="44.13565" lon="3.11553">
        <ele>822</ele>
        <time>2015-10-10T11:41:18Z</time>
      </trkpt>
      <trkpt lat="44.13564" lon="3.11554">
        <ele>822</ele>
        <time>2015-10-10T11:43:18Z</time>
      </trkpt>
      <trkpt lat="44.1356" lon="3.11562">
        <ele>823</ele>
        <time>2015-10-10T11:45:18Z</time>
      </trkpt>
      <trkpt lat="44.13559" lon="3.11577">
        <ele>825</ele>
        <time>2015-10-10T11:47:18Z</time>
      </trkpt>
      <trkpt lat="44.13558" lon="3.11587">
        <ele>826</ele>
        <time>2015-10-10T11:49:18Z</time>
      </trkpt>
      <trkpt lat="44.13555" lon="3.11599">
        <ele>828</ele>
        <time>2015-10-10T11:51:18Z</time>
      </trkpt>
      <trkpt lat="44.13557" lon="3.11613">
        <ele>829</ele>
        <time>2015-10-10T11:53:18Z</time>
      </trkpt>
      <trkpt lat="44.13556" lon="3.1162">
        <ele>829</ele>
        <time>2015-10-10T11:55:18Z</time>
      </trkpt>
      <trkpt lat="44.13554" lon="3.11642">
        <ele>831</ele>
        <time>2015-10-10T11:57:18Z</time>
      </trkpt>
      <trkpt lat="44.13552" lon="3.11658">
        <ele>833</ele>
        <time>2015-10-10T11:59:18Z</time>
      </trkpt>
      <trkpt lat="44.13553" lon="3.11673">
        <ele>834</ele>
        <time>2015-10-10T12:01:18Z</time>
      </trkpt>
      <trkpt lat="44.13555" lon="3.11683">
        <ele>834</ele>
        <time>2015-10-10T12:03:18Z</time>
      </trkpt>
      <trkpt lat="44.13556" lon="3.11699">
        <ele>835</ele>
        <time>2015-10-10T12:05:18Z</time>
      </trkpt>
      <trkpt lat="44.13557" lon="3.11712">
        <ele>835</ele>
        <time>2015-10-10T12:07:18Z</time>
      </trkpt>
      <trkpt lat="44.13556" lon="3.11727">
        <ele>836</ele>
        <time>2015-10-10T12:09:18Z</time>
      </trkpt>
      <trkpt lat="44.13551" lon="3.11738">
        <ele>837</ele>
        <time>2015-10-10T12:11:18Z</time>
      </trkpt>
      <trkpt lat="44.13547" lon="3.11751">
        <ele>838</ele>
        <time>2015-10-10T12:13:18Z</time>
      </trkpt>
      <trkpt lat="44.13542" lon="3.11764">
        <ele>838</ele>
        <time>2015-10-10T12:15:18Z</time>
      </trkpt>
      <trkpt lat="44.1354" lon="3.11773">
        <ele>838</ele>
        <time>2015-10-10T12:17:18Z</time>
      </trkpt>
      <trkpt lat="44.13536" lon="3.11794">
        <ele>838</ele>
        <time>2015-10-10T12:19:18Z</time>
      </trkpt>
      <trkpt lat="44.13523" lon="3.11833">
        <ele>838</ele>
        <time>2015-10-10T12:21:18Z</time>
      </trkpt>
      <trkpt lat="44.13513" lon="3.11869">
        <ele>837</ele>
        <time>2015-10-10T12:23:18Z</time>
      </trkpt>
      <trkpt lat="44.13507" lon="3.11886">
        <ele>836</ele>
        <time>2015-10-10T12:25:18Z</time>
      </trkpt>
      <trkpt lat="44.13501" lon="3.11903">
        <ele>836</ele>
        <time>2015-10-10T12:27:18Z</time>
      </trkpt>
      <trkpt lat="44.13496" lon="3.11922">
        <ele>835</ele>
        <time>2015-10-10T12:29:18Z</time>
      </trkpt>
      <trkpt lat="44.13491" lon="3.11936">
        <ele>833</ele>
        <time>2015-10-10T12:31:18Z</time>
      </trkpt>
      <trkpt lat="44.13487" lon="3.11952">
        <ele>832</ele>
        <time>2015-10-10T12:33:18Z</time>
      </trkpt>
      <trkpt lat="44.13481" lon="3.11973">
        <ele>830</ele>
        <time>2015-10-10T12:35:18Z</time>
      </trkpt>
      <trkpt lat="44.13477" lon="3.11991">
        <ele>829</ele>
        <time>2015-10-10T12:37:18Z</time>
      </trkpt>
      <trkpt lat="44.13465" lon="3.12028">
        <ele>828</ele>
        <time>2015-10-10T12:39:18Z</time>
      </trkpt>
      <trkpt lat="44.1346" lon="3.12041">
        <ele>827</ele>
        <time>2015-10-10T12:41:18Z</time>
      </trkpt>
      <trkpt lat="44.13458" lon="3.1205">
        <ele>827</ele>
        <time>2015-10-10T12:43:18Z</time>
      </trkpt>
      <trkpt lat="44.13454" lon="3.12057">
        <ele>827</ele>
        <time>2015-10-10T12:45:18Z</time>
      </trkpt>
      <trkpt lat="44.13447" lon="3.12073">
        <ele>827</ele>
        <time>2015-10-10T12:47:18Z</time>
      </trkpt>
      <trkpt lat="44.1344" lon="3.12082">
        <ele>827</ele>
        <time>2015-10-10T12:49:18Z</time>
      </trkpt>
      <trkpt lat="44.13433" lon="3.12091">
        <ele>828</ele>
        <time>2015-10-10T12:51:18Z</time>
      </trkpt>
      <trkpt lat="44.13427" lon="3.12098">
        <ele>829</ele>
        <time>2015-10-10T12:53:18Z</time>
      </trkpt>
      <trkpt lat="44.13423" lon="3.12105">
        <ele>830</ele>
        <time>2015-10-10T12:55:18Z</time>
      </trkpt>
      <trkpt lat="44.13415" lon="3.12112">
        <ele>831</ele>
        <time>2015-10-10T12:57:18Z</time>
      </trkpt>
      <trkpt lat="44.13402" lon="3.12127">
        <ele>834</ele>
        <time>2015-10-10T12:59:18Z</time>
      </trkpt>
      <trkpt lat="44.13394" lon="3.12138">
        <ele>835</ele>
        <time>2015-10-10T13:01:18Z</time>
      </trkpt>
      <trkpt lat="44.13387" lon="3.12147">
        <ele>837</ele>
        <time>2015-10-10T13:03:18Z</time>
      </trkpt>
      <trkpt lat="44.13386" lon="3.12149">
        <ele>837</ele>
        <time>2015-10-10T13:05:18Z</time>
      </trkpt>
      <trkpt lat="44.13378" lon="3.1216">
        <ele>838</ele>
        <time>2015-10-10T13:07:18Z</time>
      </trkpt>
      <trkpt lat="44.13374" lon="3.12164">
        <ele>839</ele>
        <time>2015-10-10T13:09:18Z</time>
      </trkpt>
      <trkpt lat="44.13368" lon="3.1217">
        <ele>840</ele>
        <time>2015-10-10T13:11:18Z</time>
      </trkpt>
      <trkpt lat="44.13363" lon="3.12175">
        <ele>840</ele>
        <time>2015-10-10T13:13:18Z</time>
      </trkpt>
      <trkpt lat="44.13358" lon="3.1218">
        <ele>841</ele>
        <time>2015-10-10T13:15:18Z</time>
      </trkpt>
      <trkpt lat="44.13352" lon="3.12185">
        <ele>842</ele>
        <time>2015-10-10T13:17:18Z</time>
      </trkpt>
      <trkpt lat="44.1335" lon="3.1219">
        <ele>842</ele>
        <time>2015-10-10T13:19:18Z</time>
      </trkpt>
      <trkpt lat="44.13348" lon="3.12194">
        <ele>842</ele>
        <time>2015-10-10T13:21:18Z</time>
      </trkpt>
      <trkpt lat="44.13348" lon="3.12197">
        <ele>842</ele>
        <time>2015-10-10T13:23:18Z</time>
      </trkpt>
      <trkpt lat="44.1335" lon="3.122">
        <ele>842</ele>
        <time>2015-10-10T13:25:18Z</time>
      </trkpt>
      <trkpt lat="44.13352" lon="3.12202">
        <ele>842</ele>
        <time>2015-10-10T13:27:18Z</time>
      </trkpt>
      <trkpt lat="44.13354" lon="3.12203">
        <ele>842</ele>
        <time>2015-10-10T13:29:18Z</time>
      </trkpt>
      <trkpt lat="44.13356" lon="3.12206">
        <ele>842</ele>
        <time>2015-10-10T13:31:18Z</time>
      </trkpt>
      <trkpt lat="44.13364" lon="3.12213">
        <ele>841</ele>
        <time>2015-10-10T13:33:18Z</time>
      </trkpt>
      <trkpt lat="44.13374" lon="3.12222">
        <ele>841</ele>
        <time>2015-10-10T13:35:18Z</time>
      </trkpt>
      <trkpt lat="44.13385" lon="3.1223">
        <ele>840</ele>
        <time>2015-10-10T13:37:18Z</time>
      </trkpt>
      <trkpt lat="44.13397" lon="3.1224">
        <ele>840</ele>
        <time>2015-10-10T13:39:18Z</time>
      </trkpt>
      <trkpt lat="44.1341" lon="3.12249">
        <ele>839</ele>
        <time>2015-10-10T13:41:18Z</time>
      </trkpt>
      <trkpt lat="44.13423" lon="3.12257">
        <ele>839</ele>
        <time>2015-10-10T13:43:18Z</time>
      </trkpt>
      <trkpt lat="44.13437" lon="3.12262">
        <ele>838</ele>
        <time>2015-10-10T13:45:18Z</time>
      </trkpt>
      <trkpt lat="44.1345" lon="3.1227">
        <ele>837</ele>
        <time>2015-10-10T13:47:18Z</time>
      </trkpt>
      <trkpt lat="44.13457" lon="3.12282">
        <ele>837</ele>
        <time>2015-10-10T13:49:18Z</time>
      </trkpt>
      <trkpt lat="44.1346" lon="3.12295">
        <ele>837</ele>
        <time>2015-10-10T13:51:18Z</time>
      </trkpt>
      <trkpt lat="44.1346" lon="3.12315">
        <ele>837</ele>
        <time>2015-10-10T13:53:18Z</time>
      </trkpt>
      <trkpt lat="44.13455" lon="3.12331">
        <ele>838</ele>
        <time>2015-10-10T13:55:18Z</time>
      </trkpt>
      <trkpt lat="44.1345" lon="3.12344">
        <ele>838</ele>
        <time>2015-10-10T13:57:18Z</time>
      </trkpt>
      <trkpt lat="44.13443" lon="3.12356">
        <ele>838</ele>
        <time>2015-10-10T13:59:18Z</time>
      </trkpt>
      <trkpt lat="44.13443" lon="3.12373">
        <ele>839</ele>
        <time>2015-10-10T14:01:18Z</time>
      </trkpt>
      <trkpt lat="44.13445" lon="3.12379">
        <ele>839</ele>
        <time>2015-10-10T14:03:18Z</time>
      </trkpt>
      <trkpt lat="44.13453" lon="3.12393">
        <ele>839</ele>
        <time>2015-10-10T14:05:18Z</time>
      </trkpt>
      <trkpt lat="44.13455" lon="3.12402">
        <ele>840</ele>
        <time>2015-10-10T14:07:18Z</time>
      </trkpt>
      <trkpt lat="44.13456" lon="3.12425">
        <ele>840</ele>
        <time>2015-10-10T14:09:18Z</time>
      </trkpt>
      <trkpt lat="44.1345" lon="3.12461">
        <ele>841</ele>
        <time>2015-10-10T14:11:18Z</time>
      </trkpt>
      <trkpt lat="44.13448" lon="3.12477">
        <ele>842</ele>
        <time>2015-10-10T14:13:18Z</time>
      </trkpt>
      <trkpt lat="44.13445" lon="3.12492">
        <ele>842</ele>
        <time>2015-10-10T14:15:18Z</time>
      </trkpt>
      <trkpt lat="44.13441" lon="3.12508">
        <ele>842</ele>
        <time>2015-10-10T14:17:18Z</time>
      </trkpt>
      <trkpt lat="44.13441" lon="3.12521">
        <ele>842</ele>
        <time>2015-10-10T14:19:18Z</time>
      </trkpt>
      <trkpt lat="44.13442" lon="3.12526">
        <ele>843</ele>
        <time>2015-10-10T14:21:18Z</time>
      </trkpt>
      <trkpt lat="44.13444" lon="3.1254">
        <ele>843</ele>
        <time>2015-10-10T14:23:18Z</time>
      </trkpt>
      <trkpt lat="44.1345" lon="3.1257">
        <ele>844</ele>
        <time>2015-10-10T14:25:18Z</time>
      </trkpt>
      <trkpt lat="44.13454" lon="3.12586">
        <ele>845</ele>
        <time>2015-10-10T14:27:18Z</time>
      </trkpt>
      <trkpt lat="44.1346" lon="3.12601">
        <ele>846</ele>
        <time>2015-10-10T14:29:18Z</time>
      </trkpt>
      <trkpt lat="44.13469" lon="3.12618">
        <ele>847</ele>
        <time>2015-10-10T14:31:18Z</time>
      </trkpt>
      <trkpt lat="44.13481" lon="3.12631">
        <ele>848</ele>
        <time>2015-10-10T14:33:18Z</time>
      </trkpt>
      <trkpt lat="44.13492" lon="3.12641">
        <ele>848</ele>
        <time>2015-10-10T14:35:18Z</time>
      </trkpt>
      <trkpt lat="44.13503" lon="3.12651">
        <ele>849</ele>
        <time>2015-10-10T14:37:18Z</time>
      </trkpt>
      <trkpt lat="44.13513" lon="3.12662">
        <ele>850</ele>
        <time>2015-10-10T14:39:18Z</time>
      </trkpt>
      <trkpt lat="44.13522" lon="3.12675">
        <ele>850</ele>
        <time>2015-10-10T14:41:18Z</time>
      </trkpt>
      <trkpt lat="44.13528" lon="3.12686">
        <ele>850</ele>
        <time>2015-10-10T14:43:18Z</time>
      </trkpt>
      <trkpt lat="44.13537" lon="3.12698">
        <ele>850</ele>
        <time>2015-10-10T14:45:18Z</time>
      </trkpt>
      <trkpt lat="44.13546" lon="3.1271">
        <ele>850</ele>
        <time>2015-10-10T14:47:18Z</time>
      </trkpt>
      <trkpt lat="44.13557" lon="3.12722">
        <ele>849</ele>
        <time>2015-10-10T14:49:18Z</time>
      </trkpt>
      <trkpt lat="44.13568" lon="3.12732">
        <ele>849</ele>
        <time>2015-10-10T14:51:18Z</time>
      </trkpt>
      <trkpt lat="44.13584" lon="3.12744">
        <ele>849</ele>
        <time>2015-10-10T14:53:18Z</time>
      </trkpt>
      <trkpt lat="44.13597" lon="3.12752">
        <ele>849</ele>
        <time>2015-10-10T14:55:18Z</time>
      </trkpt>
      <trkpt lat="44.13609" lon="3.12757">
        <ele>848</ele>
        <time>2015-10-10T14:57:18Z</time>
      </trkpt>
      <trkpt lat="44.1362" lon="3.1276">
        <ele>848</ele>
        <time>2015-10-10T14:59:18Z</time>
      </trkpt>
      <trkpt lat="44.13632" lon="3.12762">
        <ele>847</ele>
        <time>2015-10-10T15:01:18Z</time>
      </trkpt>
      <trkpt lat="44.13647" lon="3.12763">
        <ele>847</ele>
        <time>2015-10-10T15:03:18Z</time>
      </trkpt>
      <trkpt lat="44.13662" lon="3.12765">
        <ele>847</ele>
        <time>2015-10-10T15:05:18Z</time>
      </trkpt>
      <trkpt lat="44.13679" lon="3.12769">
        <ele>846</ele>
        <time>2015-10-10T15:07:18Z</time>
      </trkpt>
      <trkpt lat="44.13694" lon="3.12771">
        <ele>846</ele>
        <time>2015-10-10T15:09:18Z</time>
      </trkpt>
      <trkpt lat="44.13725" lon="3.12773">
        <ele>845</ele>
        <time>2015-10-10T15:11:18Z</time>
      </trkpt>
      <trkpt lat="44.13738" lon="3.12777">
        <ele>844</ele>
        <time>2015-10-10T15:13:18Z</time>
      </trkpt>
      <trkpt lat="44.13754" lon="3.12788">
        <ele>843</ele>
        <time>2015-10-10T15:15:18Z</time>
      </trkpt>
      <trkpt lat="44.13767" lon="3.12797">
        <ele>841</ele>
        <time>2015-10-10T15:17:18Z</time>
      </trkpt>
      <trkpt lat="44.13786" lon="3.12811">
        <ele>839</ele>
        <time>2015-10-10T15:19:18Z</time>
      </trkpt>
      <trkpt lat="44.138" lon="3.12822">
        <ele>837</ele>
        <time>2015-10-10T15:21:18Z</time>
      </trkpt>
      <trkpt lat="44.13813" lon="3.12834">
        <ele>836</ele>
        <time>2015-10-10T15:23:18Z</time>
      </trkpt>
      <trkpt lat="44.13826" lon="3.12843">
        <ele>835</ele>
        <time>2015-10-10T15:25:18Z</time>
      </trkpt>
      <trkpt lat="44.1384" lon="3.12855">
        <ele>834</ele>
        <time>2015-10-10T15:27:18Z</time>
      </trkpt>
      <trkpt lat="44.13855" lon="3.12867">
        <ele>834</ele>
        <time>2015-10-10T15:29:18Z</time>
      </trkpt>
      <trkpt lat="44.13862" lon="3.12883">
        <ele>833</ele>
        <time>2015-10-10T15:31:18Z</time>
      </trkpt>
      <trkpt lat="44.13867" lon="3.12898">
        <ele>833</ele>
        <time>2015-10-10T15:33:18Z</time>
      </trkpt>
      <trkpt lat="44.13868" lon="3.12898">
        <ele>833</ele>
        <time>2015-10-10T15:35:18Z</time>
      </trkpt>
      <trkpt lat="44.13875" lon="3.12898">
        <ele>833</ele>
        <time>2015-10-10T15:37:18Z</time>
      </trkpt>
      <trkpt lat="44.13889" lon="3.12895">
        <ele>833</ele>
        <time>2015-10-10T15:39:18Z</time>
      </trkpt>
      <trkpt lat="44.139" lon="3.12891">
        <ele>832</ele>
        <time>2015-10-10T15:41:18Z</time>
      </trkpt>
      <trkpt lat="44.1391" lon="3.12888">
        <ele>832</ele>
        <time>2015-10-10T15:43:18Z</time>
      </trkpt>
      <trkpt lat="44.13922" lon="3.12889">
        <ele>831</ele>
        <time>2015-10-10T15:45:18Z</time>
      </trkpt>
      <trkpt lat="44.13934" lon="3.12888">
        <ele>830</ele>
        <time>2015-10-10T15:47:18Z</time>
      </trkpt>
      <trkpt lat="44.13944" lon="3.1289">
        <ele>830</ele>
        <time>2015-10-10T15:49:18Z</time>
      </trkpt>
      <trkpt lat="44.13959" lon="3.1289">
        <ele>829</ele>
        <time>2015-10-10T15:51:18Z</time>
      </trkpt>
      <trkpt lat="44.13972" lon="3.12892">
        <ele>828</ele>
        <time>2015-10-10T15:53:18Z</time>
      </trkpt>
      <trkpt lat="44.13983" lon="3.12895">
        <ele>828</ele>
        <time>2015-10-10T15:55:18Z</time>
      </trkpt>
      <trkpt lat="44.13993" lon="3.12897">
        <ele>828</ele>
        <time>2015-10-10T15:57:18Z</time>
      </trkpt>
      <trkpt lat="44.13999" lon="3.12896">
        <ele>827</ele>
        <time>2015-10-10T15:59:18Z</time>
      </trkpt>
      <trkpt lat="44.14012" lon="3.12901">
        <ele>828</ele>
        <time>2015-10-10T16:01:18Z</time>
      </trkpt>
      <trkpt lat="44.14015" lon="3.12902">
        <ele>828</ele>
        <time>2015-10-10T16:03:18Z</time>
      </trkpt>
      <trkpt lat="44.14027" lon="3.1291">
        <ele>830</ele>
        <time>2015-10-10T16:05:18Z</time>
      </trkpt>
      <trkpt lat="44.14037" lon="3.12918">
        <ele>831</ele>
        <time>2015-10-10T16:07:18Z</time>
      </trkpt>
      <trkpt lat="44.14047" lon="3.12922">
        <ele>832</ele>
        <time>2015-10-10T16:09:18Z</time>
      </trkpt>
      <trkpt lat="44.14062" lon="3.12927">
        <ele>832</ele>
        <time>2015-10-10T16:11:18Z</time>
      </trkpt>
      <trkpt lat="44.14074" lon="3.1293">
        <ele>832</ele>
        <time>2015-10-10T16:13:18Z</time>
      </trkpt>
      <trkpt lat="44.1409" lon="3.1293">
        <ele>832</ele>
        <time>2015-10-10T16:15:18Z</time>
      </trkpt>
      <trkpt lat="44.14099" lon="3.12933">
        <ele>832</ele>
        <time>2015-10-10T16:17:18Z</time>
      </trkpt>
      <trkpt lat="44.14111" lon="3.12927">
        <ele>832</ele>
        <time>2015-10-10T16:19:18Z</time>
      </trkpt>
      <trkpt lat="44.14113" lon="3.12926">
        <ele>832</ele>
        <time>2015-10-10T16:21:18Z</time>
      </trkpt>
      <trkpt lat="44.14127" lon="3.12924">
        <ele>832</ele>
        <time>2015-10-10T16:23:18Z</time>
      </trkpt>
      <trkpt lat="44.14138" lon="3.12923">
        <ele>831</ele>
        <time>2015-10-10T16:25:18Z</time>
      </trkpt>
      <trkpt lat="44.14142" lon="3.12922">
        <ele>831</ele>
        <time>2015-10-10T16:27:18Z</time>
      </trkpt>
      <trkpt lat="44.14153" lon="3.12922">
        <ele>831</ele>
        <time>2015-10-10T16:29:18Z</time>
      </trkpt>
      <trkpt lat="44.14161" lon="3.12926">
        <ele>832</ele>
        <time>2015-10-10T16:31:18Z</time>
      </trkpt>
      <trkpt lat="44.14163" lon="3.12927">
        <ele>832</ele>
        <time>2015-10-10T16:33:18Z</time>
      </trkpt>
      <trkpt lat="44.1418" lon="3.12937">
        <ele>831</ele>
        <time>2015-10-10T16:35:18Z</time>
      </trkpt>
      <trkpt lat="44.14191" lon="3.12948">
        <ele>830</ele>
        <time>2015-10-10T16:37:18Z</time>
      </trkpt>
      <trkpt lat="44.14198" lon="3.12958">
        <ele>830</ele>
        <time>2015-10-10T16:39:18Z</time>
      </trkpt>
      <trkpt lat="44.142" lon="3.12961">
        <ele>829</ele>
        <time>2015-10-10T16:41:18Z</time>
      </trkpt>
      <trkpt lat="44.14208" lon="3.1296">
        <ele>828</ele>
        <time>2015-10-10T16:43:18Z</time>
      </trkpt>
      <trkpt lat="44.14213" lon="3.1296">
        <ele>828</ele>
        <time>2015-10-10T16:45:18Z</time>
      </trkpt>
      <trkpt lat="44.14222" lon="3.12961">
        <ele>827</ele>
        <time>2015-10-10T16:47:18Z</time>
      </trkpt>
      <trkpt lat="44.14233" lon="3.12964">
        <ele>825</ele>
        <time>2015-10-10T16:49:18Z</time>
      </trkpt>
      <trkpt lat="44.14244" lon="3.12965">
        <ele>824</ele>
        <time>2015-10-10T16:51:18Z</time>
      </trkpt>
      <trkpt lat="44.14258" lon="3.12969">
        <ele>822</ele>
        <time>2015-10-10T16:53:18Z</time>
      </trkpt>
      <trkpt lat="44.14272" lon="3.12968">
        <ele>821</ele>
        <time>2015-10-10T16:55:18Z</time>
      </trkpt>
      <trkpt lat="44.14282" lon="3.12971">
        <ele>819</ele>
        <time>2015-10-10T16:57:18Z</time>
      </trkpt>
      <trkpt lat="44.14293" lon="3.12965">
        <ele>818</ele>
        <time>2015-10-10T16:59:18Z</time>
      </trkpt>
      <trkpt lat="44.14303" lon="3.12963">
        <ele>817</ele>
        <time>2015-10-10T17:01:18Z</time>
      </trkpt>
      <trkpt lat="44.1431" lon="3.12962">
        <ele>816</ele>
        <time>2015-10-10T17:03:18Z</time>
      </trkpt>
      <trkpt lat="44.14317" lon="3.12959">
        <ele>815</ele>
        <time>2015-10-10T17:05:18Z</time>
      </trkpt>
      <trkpt lat="44.14325" lon="3.12952">
        <ele>814</ele>
        <time>2015-10-10T17:07:18Z</time>
      </trkpt>
      <trkpt lat="44.14336" lon="3.12946">
        <ele>812</ele>
        <time>2015-10-10T17:09:18Z</time>
      </trkpt>
      <trkpt lat="44.14349" lon="3.1294">
        <ele>810</ele>
        <time>2015-10-10T17:11:18Z</time>
      </trkpt>
      <trkpt lat="44.14356" lon="3.12937">
        <ele>809</ele>
        <time>2015-10-10T17:13:18Z</time>
      </trkpt>
      <trkpt lat="44.14368" lon="3.1293">
        <ele>807</ele>
        <time>2015-10-10T17:15:18Z</time>
      </trkpt>
      <trkpt lat="44.14374" lon="3.12923">
        <ele>805</ele>
        <time>2015-10-10T17:17:18Z</time>
      </trkpt>
      <trkpt lat="44.14386" lon="3.1291">
        <ele>802</ele>
        <time>2015-10-10T17:19:18Z</time>
      </trkpt>
      <trkpt lat="44.14395" lon="3.12903">
        <ele>800</ele>
        <time>2015-10-10T17:21:18Z</time>
      </trkpt>
      <trkpt lat="44.14406" lon="3.12893">
        <ele>797</ele>
        <time>2015-10-10T17:23:18Z</time>
      </trkpt>
      <trkpt lat="44.14409" lon="3.12881">
        <ele>795</ele>
        <time>2015-10-10T17:25:18Z</time>
      </trkpt>
      <trkpt lat="44.14409" lon="3.12865">
        <ele>793</ele>
        <time>2015-10-10T17:27:18Z</time>
      </trkpt>
      <trkpt lat="44.14411" lon="3.12854">
        <ele>792</ele>
        <time>2015-10-10T17:29:18Z</time>
      </trkpt>
      <trkpt lat="44.14415" lon="3.12846">
        <ele>790</ele>
        <time>2015-10-10T17:31:18Z</time>
      </trkpt>
      <trkpt lat="44.14416" lon="3.12844">
        <ele>789</ele>
        <time>2015-10-10T17:33:18Z</time>
      </trkpt>
      <trkpt lat="44.14425" lon="3.12841">
        <ele>789</ele>
        <time>2015-10-10T17:35:18Z</time>
      </trkpt>
      <trkpt lat="44.14429" lon="3.12836">
        <ele>788</ele>
        <time>2015-10-10T17:37:18Z</time>
      </trkpt>
      <trkpt lat="44.14436" lon="3.12835">
        <ele>787</ele>
        <time>2015-10-10T17:39:18Z</time>
      </trkpt>
      <trkpt lat="44.14441" lon="3.12837">
        <ele>787</ele>
        <time>2015-10-10T17:41:18Z</time>
      </trkpt>
      <trkpt lat="44.14444" lon="3.12843">
        <ele>788</ele>
        <time>2015-10-10T17:43:18Z</time>
      </trkpt>
      <trkpt lat="44.14453" lon="3.12851">
        <ele>788</ele>
        <time>2015-10-10T17:45:18Z</time>
      </trkpt>
      <trkpt lat="44.14456" lon="3.12857">
        <ele>789</ele>
        <time>2015-10-10T17:47:18Z</time>
      </trkpt>
      <trkpt lat="44.14459" lon="3.12859">
        <ele>789</ele>
        <time>2015-10-10T17:49:18Z</time>
      </trkpt>
      <trkpt lat="44.14468" lon="3.12856">
        <ele>788</ele>
        <time>2015-10-10T17:51:18Z</time>
      </trkpt>
      <trkpt lat="44.1447" lon="3.12856">
        <ele>788</ele>
        <time>2015-10-10T17:53:18Z</time>
      </trkpt>
      <trkpt lat="44.1448" lon="3.12847">
        <ele>787</ele>
        <time>2015-10-10T17:55:18Z</time>
      </trkpt>
      <trkpt lat="44.14481" lon="3.12838">
        <ele>786</ele>
        <time>2015-10-10T17:57:18Z</time>
      </trkpt>
      <trkpt lat="44.14474" lon="3.12828">
        <ele>785</ele>
        <time>2015-10-10T17:59:18Z</time>
      </trkpt>
      <trkpt lat="44.14473" lon="3.12825">
        <ele>784</ele>
        <time>2015-10-10T18:01:18Z</time>
      </trkpt>
      <trkpt lat="44.14471" lon="3.12815">
        <ele>783</ele>
        <time>2015-10-10T18:03:18Z</time>
      </trkpt>
      <trkpt lat="44.14468" lon="3.12803">
        <ele>780</ele>
        <time>2015-10-10T18:05:18Z</time>
      </trkpt>
      <trkpt lat="44.1445" lon="3.12781">
        <ele>776</ele>
        <time>2015-10-10T18:07:18Z</time>
      </trkpt>
      <trkpt lat="44.14444" lon="3.12765">
        <ele>772</ele>
        <time>2015-10-10T18:09:18Z</time>
      </trkpt>
      <trkpt lat="44.14442" lon="3.12759">
        <ele>771</ele>
        <time>2015-10-10T18:11:18Z</time>
      </trkpt>
      <trkpt lat="44.14436" lon="3.12748">
        <ele>768</ele>
        <time>2015-10-10T18:13:18Z</time>
      </trkpt>
      <trkpt lat="44.14425" lon="3.12737">
        <ele>765</ele>
        <time>2015-10-10T18:15:18Z</time>
      </trkpt>
      <trkpt lat="44.1442" lon="3.12734">
        <ele>764</ele>
        <time>2015-10-10T18:17:18Z</time>
      </trkpt>
      <trkpt lat="44.14415" lon="3.12728">
        <ele>763</ele>
        <time>2015-10-10T18:19:18Z</time>
      </trkpt>
      <trkpt lat="44.14412" lon="3.12717">
        <ele>761</ele>
        <time>2015-10-10T18:21:18Z</time>
      </trkpt>
      <trkpt lat="44.14407" lon="3.12707">
        <ele>760</ele>
        <time>2015-10-10T18:23:18Z</time>
      </trkpt>
      <trkpt lat="44.14401" lon="3.1269">
        <ele>758</ele>
        <time>2015-10-10T18:25:18Z</time>
      </trkpt>
      <trkpt lat="44.14398" lon="3.1268">
        <ele>757</ele>
        <time>2015-10-10T18:27:18Z</time>
      </trkpt>
      <trkpt lat="44.14396" lon="3.12662">
        <ele>753</ele>
        <time>2015-10-10T18:29:18Z</time>
      </trkpt>
      <trkpt lat="44.14397" lon="3.12648">
        <ele>751</ele>
        <time>2015-10-10T18:31:18Z</time>
      </trkpt>
      <trkpt lat="44.14397" lon="3.12634">
        <ele>748</ele>
        <time>2015-10-10T18:33:18Z</time>
      </trkpt>
      <trkpt lat="44.1439" lon="3.12623">
        <ele>747</ele>
        <time>2015-10-10T18:35:18Z</time>
      </trkpt>
      <trkpt lat="44.14381" lon="3.12606">
        <ele>745</ele>
        <time>2015-10-10T18:37:18Z</time>
      </trkpt>
      <trkpt lat="44.14374" lon="3.12598">
        <ele>743</ele>
        <time>2015-10-10T18:39:18Z</time>
      </trkpt>
      <trkpt lat="44.14371" lon="3.12591">
        <ele>742</ele>
        <time>2015-10-10T18:41:18Z</time>
      </trkpt>
      <trkpt lat="44.14363" lon="3.12583">
        <ele>740</ele>
        <time>2015-10-10T18:43:18Z</time>
      </trkpt>
      <trkpt lat="44.14358" lon="3.12577">
        <ele>739</ele>
        <time>2015-10-10T18:45:18Z</time>
      </trkpt>
      <trkpt lat="44.14352" lon="3.12573">
        <ele>739</ele>
        <time>2015-10-10T18:47:18Z</time>
      </trkpt>
      <trkpt lat="44.14349" lon="3.12572">
        <ele>738</ele>
        <time>2015-10-10T18:49:18Z</time>
      </trkpt>
      <trkpt lat="44.14339" lon="3.12556">
        <ele>734</ele>
        <time>2015-10-10T18:51:18Z</time>
      </trkpt>
      <trkpt lat="44.14338" lon="3.12544">
        <ele>732</ele>
        <time>2015-10-10T18:53:18Z</time>
      </trkpt>
      <trkpt lat="44.1433" lon="3.12528">
        <ele>728</ele>
        <time>2015-10-10T18:55:18Z</time>
      </trkpt>
      <trkpt lat="44.14328" lon="3.12516">
        <ele>725</ele>
        <time>2015-10-10T18:57:18Z</time>
      </trkpt>
      <trkpt lat="44.1433" lon="3.12509">
        <ele>723</ele>
        <time>2015-10-10T18:59:18Z</time>
      </trkpt>
      <trkpt lat="44.14327" lon="3.12499">
        <ele>721</ele>
        <time>2015-10-10T19:01:18Z</time>
      </trkpt>
      <trkpt lat="44.14331" lon="3.12495">
        <ele>720</ele>
        <time>2015-10-10T19:03:18Z</time>
      </trkpt>
      <trkpt lat="44.14338" lon="3.12479">
        <ele>720</ele>
        <time>2015-10-10T19:05:18Z</time>
      </trkpt>
      <trkpt lat="44.14333" lon="3.12465">
        <ele>718</ele>
        <time>2015-10-10T19:07:18Z</time>
      </trkpt>
      <trkpt lat="44.14332" lon="3.12462">
        <ele>718</ele>
        <time>2015-10-10T19:09:18Z</time>
      </trkpt>
      <trkpt lat="44.14329" lon="3.12446">
        <ele>717</ele>
        <time>2015-10-10T19:11:18Z</time>
      </trkpt>
      <trkpt lat="44.14338" lon="3.12432">
        <ele>716</ele>
        <time>2015-10-10T19:13:18Z</time>
      </trkpt>
      <trkpt lat="44.14348" lon="3.12425">
        <ele>718</ele>
        <time>2015-10-10T19:15:18Z</time>
      </trkpt>
      <trkpt lat="44.14352" lon="3.12421">
        <ele>719</ele>
        <time>2015-10-10T19:17:18Z</time>
      </trkpt>
      <trkpt lat="44.14353" lon="3.12409">
        <ele>718</ele>
        <time>2015-10-10T19:19:18Z</time>
      </trkpt>
      <trkpt lat="44.14355" lon="3.12403">
        <ele>718</ele>
        <time>2015-10-10T19:21:18Z</time>
      </trkpt>
      <trkpt lat="44.14362" lon="3.1239">
        <ele>719</ele>
        <time>2015-10-10T19:23:18Z</time>
      </trkpt>
      <trkpt lat="44.14369" lon="3.12366">
        <ele>719</ele>
        <time>2015-10-10T19:25:18Z</time>
      </trkpt>
      <trkpt lat="44.1437" lon="3.12349">
        <ele>718</ele>
        <time>2015-10-10T19:27:18Z</time>
      </trkpt>
      <trkpt lat="44.14368" lon="3.12333">
        <ele>716</ele>
        <time>2015-10-10T19:29:18Z</time>
      </trkpt>
      <trkpt lat="44.14369" lon="3.12319">
        <ele>716</ele>
        <time>2015-10-10T19:31:18Z</time>
      </trkpt>
      <trkpt lat="44.14374" lon="3.12303">
        <ele>716</ele>
        <time>2015-10-10T19:33:18Z</time>
      </trkpt>
      <trkpt lat="44.14369" lon="3.12291">
        <ele>715</ele>
        <time>2015-10-10T19:35:18Z</time>
      </trkpt>
      <trkpt lat="44.14365" lon="3.12277">
        <ele>714</ele>
        <time>2015-10-10T19:37:18Z</time>
      </trkpt>
      <trkpt lat="44.1436" lon="3.12256">
        <ele>713</ele>
        <time>2015-10-10T19:39:18Z</time>
      </trkpt>
      <trkpt lat="44.14351" lon="3.1224">
        <ele>709</ele>
        <time>2015-10-10T19:41:18Z</time>
      </trkpt>
      <trkpt lat="44.14351" lon="3.12237">
        <ele>709</ele>
        <time>2015-10-10T19:43:18Z</time>
      </trkpt>
      <trkpt lat="44.1435" lon="3.12218">
        <ele>706</ele>
        <time>2015-10-10T19:45:18Z</time>
      </trkpt>
      <trkpt lat="44.14348" lon="3.12208">
        <ele>704</ele>
        <time>2015-10-10T19:47:18Z</time>
      </trkpt>
      <trkpt lat="44.14352" lon="3.12185">
        <ele>703</ele>
        <time>2015-10-10T19:49:18Z</time>
      </trkpt>
      <trkpt lat="44.1435" lon="3.12174">
        <ele>700</ele>
        <time>2015-10-10T19:51:18Z</time>
      </trkpt>
      <trkpt lat="44.14349" lon="3.12158">
        <ele>697</ele>
        <time>2015-10-10T19:53:18Z</time>
      </trkpt>
      <trkpt lat="44.14348" lon="3.12145">
        <ele>695</ele>
        <time>2015-10-10T19:55:18Z</time>
      </trkpt>
      <trkpt lat="44.14348" lon="3.12132">
        <ele>693</ele>
        <time>2015-10-10T19:57:18Z</time>
      </trkpt>
      <trkpt lat="44.14348" lon="3.12124">
        <ele>691</ele>
        <time>2015-10-10T19:59:18Z</time>
      </trkpt>
      <trkpt lat="44.14352" lon="3.1211">
        <ele>691</ele>
        <time>2015-10-10T20:01:18Z</time>
      </trkpt>
      <trkpt lat="44.14357" lon="3.12094">
        <ele>691</ele>
        <time>2015-10-10T20:03:18Z</time>
      </trkpt>
      <trkpt lat="44.14365" lon="3.12083">
        <ele>695</ele>
        <time>2015-10-10T20:05:18Z</time>
      </trkpt>
      <trkpt lat="44.14372" lon="3.12076">
        <ele>698</ele>
        <time>2015-10-10T20:07:18Z</time>
      </trkpt>
      <trkpt lat="44.14376" lon="3.12071">
        <ele>700</ele>
        <time>2015-10-10T20:09:18Z</time>
      </trkpt>
      <trkpt lat="44.14379" lon="3.12064">
        <ele>701</ele>
        <time>2015-10-10T20:11:18Z</time>
      </trkpt>
      <trkpt lat="44.14379" lon="3.12052">
        <ele>700</ele>
        <time>2015-10-10T20:13:18Z</time>
      </trkpt>
      <trkpt lat="44.14377" lon="3.12035">
        <ele>697</ele>
        <time>2015-10-10T20:15:18Z</time>
      </trkpt>
      <trkpt lat="44.14376" lon="3.12033">
        <ele>696</ele>
        <time>2015-10-10T20:17:18Z</time>
      </trkpt>
      <trkpt lat="44.14376" lon="3.1202">
        <ele>694</ele>
        <time>2015-10-10T20:19:18Z</time>
      </trkpt>
      <trkpt lat="44.14373" lon="3.12004">
        <ele>690</ele>
        <time>2015-10-10T20:21:18Z</time>
      </trkpt>
      <trkpt lat="44.14372" lon="3.11991">
        <ele>687</ele>
        <time>2015-10-10T20:23:18Z</time>
      </trkpt>
      <trkpt lat="44.1437" lon="3.1197">
        <ele>682</ele>
        <time>2015-10-10T20:25:18Z</time>
      </trkpt>
      <trkpt lat="44.14372" lon="3.11959">
        <ele>681</ele>
        <time>2015-10-10T20:27:18Z</time>
      </trkpt>
      <trkpt lat="44.14374" lon="3.11949">
        <ele>681</ele>
        <time>2015-10-10T20:29:18Z</time>
      </trkpt>
      <trkpt lat="44.14384" lon="3.11934">
        <ele>684</ele>
        <time>2015-10-10T20:31:18Z</time>
      </trkpt>
      <trkpt lat="44.14387" lon="3.11919">
        <ele>683</ele>
        <time>2015-10-10T20:33:18Z</time>
      </trkpt>
      <trkpt lat="44.14389" lon="3.11906">
        <ele>684</ele>
        <time>2015-10-10T20:35:18Z</time>
      </trkpt>
      <trkpt lat="44.14394" lon="3.11894">
        <ele>687</ele>
        <time>2015-10-10T20:37:18Z</time>
      </trkpt>
      <trkpt lat="44.14391" lon="3.11885">
        <ele>686</ele>
        <time>2015-10-10T20:39:18Z</time>
      </trkpt>
      <trkpt lat="44.14396" lon="3.11875">
        <ele>688</ele>
        <time>2015-10-10T20:41:18Z</time>
      </trkpt>
      <trkpt lat="44.14393" lon="3.1187">
        <ele>687</ele>
        <time>2015-10-10T20:43:18Z</time>
      </trkpt>
      <trkpt lat="44.14388" lon="3.11866">
        <ele>684</ele>
        <time>2015-10-10T20:45:18Z</time>
      </trkpt>
      <trkpt lat="44.14382" lon="3.11875">
        <ele>681</ele>
        <time>2015-10-10T20:47:18Z</time>
      </trkpt>
      <trkpt lat="44.1438" lon="3.11879">
        <ele>680</ele>
        <time>2015-10-10T20:49:18Z</time>
      </trkpt>
      <trkpt lat="44.14371" lon="3.11887">
        <ele>674</ele>
        <time>2015-10-10T20:51:18Z</time>
      </trkpt>
      <trkpt lat="44.14359" lon="3.11866">
        <ele>669</ele>
        <time>2015-10-10T20:53:18Z</time>
      </trkpt>
      <trkpt lat="44.14347" lon="3.11858">
        <ele>663</ele>
        <time>2015-10-10T20:55:18Z</time>
      </trkpt>
      <trkpt lat="44.14341" lon="3.11854">
        <ele>661</ele>
        <time>2015-10-10T20:57:18Z</time>
      </trkpt>
      <trkpt lat="44.14331" lon="3.11849">
        <ele>656</ele>
        <time>2015-10-10T20:59:18Z</time>
      </trkpt>
      <trkpt lat="44.14317" lon="3.11841">
        <ele>649</ele>
        <time>2015-10-10T21:01:18Z</time>
      </trkpt>
      <trkpt lat="44.14308" lon="3.11836">
        <ele>645</ele>
        <time>2015-10-10T21:03:18Z</time>
      </trkpt>
      <trkpt lat="44.14301" lon="3.11831">
        <ele>642</ele>
        <time>2015-10-10T21:05:18Z</time>
      </trkpt>
      <trkpt lat="44.14291" lon="3.11823">
        <ele>638</ele>
        <time>2015-10-10T21:07:18Z</time>
      </trkpt>
      <trkpt lat="44.1429" lon="3.11821">
        <ele>638</ele>
        <time>2015-10-10T21:09:18Z</time>
      </trkpt>
      <trkpt lat="44.14283" lon="3.11804">
        <ele>637</ele>
        <time>2015-10-10T21:11:18Z</time>
      </trkpt>
      <trkpt lat="44.14284" lon="3.11789">
        <ele>640</ele>
        <time>2015-10-10T21:13:18Z</time>
      </trkpt>
      <trkpt lat="44.14279" lon="3.11772">
        <ele>639</ele>
        <time>2015-10-10T21:15:18Z</time>
      </trkpt>
      <trkpt lat="44.14277" lon="3.11754">
        <ele>640</ele>
        <time>2015-10-10T21:17:18Z</time>
      </trkpt>
      <trkpt lat="44.14272" lon="3.11738">
        <ele>639</ele>
        <time>2015-10-10T21:19:18Z</time>
      </trkpt>
      <trkpt lat="44.14268" lon="3.11727">
        <ele>637</ele>
        <time>2015-10-10T21:21:18Z</time>
      </trkpt>
      <trkpt lat="44.14265" lon="3.1172">
        <ele>636</ele>
        <time>2015-10-10T21:23:18Z</time>
      </trkpt>
      <trkpt lat="44.14256" lon="3.1171">
        <ele>630</ele>
        <time>2015-10-10T21:25:18Z</time>
      </trkpt>
      <trkpt lat="44.1425" lon="3.117">
        <ele>626</ele>
        <time>2015-10-10T21:27:18Z</time>
      </trkpt>
      <trkpt lat="44.14239" lon="3.1169">
        <ele>621</ele>
        <time>2015-10-10T21:29:18Z</time>
      </trkpt>
      <trkpt lat="44.14235" lon="3.11676">
        <ele>620</ele>
        <time>2015-10-10T21:31:18Z</time>
      </trkpt>
      <trkpt lat="44.14233" lon="3.11654">
        <ele>618</ele>
        <time>2015-10-10T21:33:18Z</time>
      </trkpt>
      <trkpt lat="44.14233" lon="3.1163">
        <ele>617</ele>
        <time>2015-10-10T21:35:18Z</time>
      </trkpt>
      <trkpt lat="44.14232" lon="3.11616">
        <ele>615</ele>
        <time>2015-10-10T21:37:18Z</time>
      </trkpt>
      <trkpt lat="44.14235" lon="3.11593">
        <ele>615</ele>
        <time>2015-10-10T21:39:18Z</time>
      </trkpt>
      <trkpt lat="44.14237" lon="3.11575">
        <ele>613</ele>
        <time>2015-10-10T21:41:18Z</time>
      </trkpt>
      <trkpt lat="44.14241" lon="3.11559">
        <ele>611</ele>
        <time>2015-10-10T21:43:18Z</time>
      </trkpt>
      <trkpt lat="44.14246" lon="3.11544">
        <ele>610</ele>
        <time>2015-10-10T21:45:18Z</time>
      </trkpt>
      <trkpt lat="44.14251" lon="3.11529">
        <ele>609</ele>
        <time>2015-10-10T21:47:18Z</time>
      </trkpt>
      <trkpt lat="44.14257" lon="3.11515">
        <ele>607</ele>
        <time>2015-10-10T21:49:18Z</time>
      </trkpt>
      <trkpt lat="44.14262" lon="3.11506">
        <ele>607</ele>
        <time>2015-10-10T21:51:18Z</time>
      </trkpt>
      <trkpt lat="44.14267" lon="3.11496">
        <ele>606</ele>
        <time>2015-10-10T21:53:18Z</time>
      </trkpt>
      <trkpt lat="44.14271" lon="3.11486">
        <ele>603</ele>
        <time>2015-10-10T21:55:18Z</time>
      </trkpt>
      <trkpt lat="44.14274" lon="3.11475">
        <ele>600</ele>
        <time>2015-10-10T21:57:18Z</time>
      </trkpt>
      <trkpt lat="44.14282" lon="3.11465">
        <ele>599</ele>
        <time>2015-10-10T21:59:18Z</time>
      </trkpt>
      <trkpt lat="44.14287" lon="3.11456">
        <ele>597</ele>
        <time>2015-10-10T22:01:18Z</time>
      </trkpt>
      <trkpt lat="44.14302" lon="3.11437">
        <ele>595</ele>
        <time>2015-10-10T22:03:18Z</time>
      </trkpt>
      <trkpt lat="44.14312" lon="3.11421">
        <ele>592</ele>
        <time>2015-10-10T22:05:18Z</time>
      </trkpt>
      <trkpt lat="44.14321" lon="3.1141">
        <ele>590</ele>
        <time>2015-10-10T22:07:18Z</time>
      </trkpt>
      <trkpt lat="44.14329" lon="3.114">
        <ele>587</ele>
        <time>2015-10-10T22:09:18Z</time>
      </trkpt>
      <trkpt lat="44.14336" lon="3.11392">
        <ele>585</ele>
        <time>2015-10-10T22:11:18Z</time>
      </trkpt>
      <trkpt lat="44.14346" lon="3.11382">
        <ele>582</ele>
        <time>2015-10-10T22:13:18Z</time>
      </trkpt>
      <trkpt lat="44.14356" lon="3.11372">
        <ele>580</ele>
        <time>2015-10-10T22:15:18Z</time>
      </trkpt>
      <trkpt lat="44.14365" lon="3.11364">
        <ele>577</ele>
        <time>2015-10-10T22:17:18Z</time>
      </trkpt>
      <trkpt lat="44.14377" lon="3.11356">
        <ele>576</ele>
        <time>2015-10-10T22:19:18Z</time>
      </trkpt>
      <trkpt lat="44.14385" lon="3.11349">
        <ele>574</ele>
        <time>2015-10-10T22:21:18Z</time>
      </trkpt>
      <trkpt lat="44.14395" lon="3.11337">
        <ele>570</ele>
        <time>2015-10-10T22:23:18Z</time>
      </trkpt>
      <trkpt lat="44.14405" lon="3.11329">
        <ele>568</ele>
        <time>2015-10-10T22:25:18Z</time>
      </trkpt>
      <trkpt lat="44.14412" lon="3.11322">
        <ele>567</ele>
        <time>2015-10-10T22:27:18Z</time>
      </trkpt>
      <trkpt lat="44.14425" lon="3.11312">
        <ele>566</ele>
        <time>2015-10-10T22:29:18Z</time>
      </trkpt>
      <trkpt lat="44.14434" lon="3.11305">
        <ele>565</ele>
        <time>2015-10-10T22:31:18Z</time>
      </trkpt>
      <trkpt lat="44.1444" lon="3.11299">
        <ele>564</ele>
        <time>2015-10-10T22:33:18Z</time>
      </trkpt>
      <trkpt lat="44.14448" lon="3.11288">
        <ele>561</ele>
        <time>2015-10-10T22:35:18Z</time>
      </trkpt>
      <trkpt lat="44.14467" lon="3.11271">
        <ele>557</ele>
        <time>2015-10-10T22:37:18Z</time>
      </trkpt>
      <trkpt lat="44.14474" lon="3.11263">
        <ele>554</ele>
        <time>2015-10-10T22:39:18Z</time>
      </trkpt>
      <trkpt lat="44.14481" lon="3.11255">
        <ele>552</ele>
        <time>2015-10-10T22:41:18Z</time>
      </trkpt>
      <trkpt lat="44.14487" lon="3.11247">
        <ele>549</ele>
        <time>2015-10-10T22:43:18Z</time>
      </trkpt>
      <trkpt lat="44.14491" lon="3.11237">
        <ele>547</ele>
        <time>2015-10-10T22:45:18Z</time>
      </trkpt>
      <trkpt lat="44.14498" lon="3.11226">
        <ele>545</ele>
        <time>2015-10-10T22:47:18Z</time>
      </trkpt>
      <trkpt lat="44.14508" lon="3.11207">
        <ele>541</ele>
        <time>2015-10-10T22:49:18Z</time>
      </trkpt>
      <trkpt lat="44.14514" lon="3.11196">
        <ele>538</ele>
        <time>2015-10-10T22:51:18Z</time>
      </trkpt>
      <trkpt lat="44.14522" lon="3.11177">
        <ele>533</ele>
        <time>2015-10-10T22:53:18Z</time>
      </trkpt>
      <trkpt lat="44.14528" lon="3.11165">
        <ele>530</ele>
        <time>2015-10-10T22:55:18Z</time>
      </trkpt>
      <trkpt lat="44.14537" lon="3.1115">
        <ele>528</ele>
        <time>2015-10-10T22:57:18Z</time>
      </trkpt>
      <trkpt lat="44.14547" lon="3.11136">
        <ele>525</ele>
        <time>2015-10-10T22:59:18Z</time>
      </trkpt>
      <trkpt lat="44.14564" lon="3.11117">
        <ele>522</ele>
        <time>2015-10-10T23:01:18Z</time>
      </trkpt>
      <trkpt lat="44.14574" lon="3.11106">
        <ele>520</ele>
        <time>2015-10-10T23:03:18Z</time>
      </trkpt>
      <trkpt lat="44.14585" lon="3.11096">
        <ele>519</ele>
        <time>2015-10-10T23:05:18Z</time>
      </trkpt>
      <trkpt lat="44.14596" lon="3.11087">
        <ele>516</ele>
        <time>2015-10-10T23:07:18Z</time>
      </trkpt>
      <trkpt lat="44.14606" lon="3.11078">
        <ele>514</ele>
        <time>2015-10-10T23:09:18Z</time>
      </trkpt>
      <trkpt lat="44.14615" lon="3.1107">
        <ele>512</ele>
        <time>2015-10-10T23:11:18Z</time>
      </trkpt>
      <trkpt lat="44.14625" lon="3.11061">
        <ele>510</ele>
        <time>2015-10-10T23:13:18Z</time>
      </trkpt>
      <trkpt lat="44.14634" lon="3.11047">
        <ele>507</ele>
        <time>2015-10-10T23:15:18Z</time>
      </trkpt>
      <trkpt lat="44.14636" lon="3.1103">
        <ele>503</ele>
        <time>2015-10-10T23:17:18Z</time>
      </trkpt>
      <trkpt lat="44.14643" lon="3.11015">
        <ele>500</ele>
        <time>2015-10-10T23:19:18Z</time>
      </trkpt>
      <trkpt lat="44.14658" lon="3.11005">
        <ele>498</ele>
        <time>2015-10-10T23:21:18Z</time>
      </trkpt>
      <trkpt lat="44.14681" lon="3.10991">
        <ele>497</ele>
        <time>2015-10-10T23:23:18Z</time>
      </trkpt>
      <trkpt lat="44.1469" lon="3.1098">
        <ele>495</ele>
        <time>2015-10-10T23:25:18Z</time>
      </trkpt>
      <trkpt lat="44.14691" lon="3.10969">
        <ele>493</ele>
        <time>2015-10-10T23:27:18Z</time>
      </trkpt>
      <trkpt lat="44.14702" lon="3.10953">
        <ele>492</ele>
        <time>2015-10-10T23:29:18Z</time>
      </trkpt>
      <trkpt lat="44.1471" lon="3.10938">
        <ele>490</ele>
        <time>2015-10-10T23:31:18Z</time>
      </trkpt>
      <trkpt lat="44.14717" lon="3.1092">
        <ele>487</ele>
        <time>2015-10-10T23:33:18Z</time>
      </trkpt>
      <trkpt lat="44.14727" lon="3.10902">
        <ele>486</ele>
        <time>2015-10-10T23:35:18Z</time>
      </trkpt>
      <trkpt lat="44.14737" lon="3.10886">
        <ele>485</ele>
        <time>2015-10-10T23:37:18Z</time>
      </trkpt>
      <trkpt lat="44.14745" lon="3.10874">
        <ele>484</ele>
        <time>2015-10-10T23:39:18Z</time>
      </trkpt>
      <trkpt lat="44.14748" lon="3.10865">
        <ele>484</ele>
        <time>2015-10-10T23:41:18Z</time>
      </trkpt>
      <trkpt lat="44.14754" lon="3.10852">
        <ele>483</ele>
        <time>2015-10-10T23:43:18Z</time>
      </trkpt>
      <trkpt lat="44.14759" lon="3.10838">
        <ele>482</ele>
        <time>2015-10-10T23:45:18Z</time>
      </trkpt>
      <trkpt lat="44.14766" lon="3.10815">
        <ele>481</ele>
        <time>2015-10-10T23:47:18Z</time>
      </trkpt>
      <trkpt lat="44.14777" lon="3.10781">
        <ele>480</ele>
        <time>2015-10-10T23:49:18Z</time>
      </trkpt>
      <trkpt lat="44.14782" lon="3.10751">
        <ele>479</ele>
        <time>2015-10-10T23:51:18Z</time>
      </trkpt>
      <trkpt lat="44.14787" lon="3.1073">
        <ele>478</ele>
        <time>2015-10-10T23:53:18Z</time>
      </trkpt>
      <trkpt lat="44.14792" lon="3.10706">
        <ele>476</ele>
        <time>2015-10-10T23:55:18Z</time>
      </trkpt>
      <trkpt lat="44.14794" lon="3.10681">
        <ele>475</ele>
        <time>2015-10-10T23:57:18Z</time>
      </trkpt>
      <trkpt lat="44.14795" lon="3.10662">
        <ele>472</ele>
        <time>2015-10-10T23:59:18Z</time>
      </trkpt>
      <trkpt lat="44.14794" lon="3.10651">
        <ele>469</ele>
        <time>2015-10-11T00:01:18Z</time>
      </trkpt>
      <trkpt lat="44.148" lon="3.10643">
        <ele>468</ele>
        <time>2015-10-11T00:03:18Z</time>
      </trkpt>
      <trkpt lat="44.14811" lon="3.10635">
        <ele>468</ele>
        <time>2015-10-11T00:05:18Z</time>
      </trkpt>
      <trkpt lat="44.14824" lon="3.10626">
        <ele>468</ele>
        <time>2015-10-11T00:07:18Z</time>
      </trkpt>
      <trkpt lat="44.14837" lon="3.10622">
        <ele>469</ele>
        <time>2015-10-11T00:09:18Z</time>
      </trkpt>
      <trkpt lat="44.14849" lon="3.10615">
        <ele>469</ele>
        <time>2015-10-11T00:11:18Z</time>
      </trkpt>
      <trkpt lat="44.14858" lon="3.10611">
        <ele>469</ele>
        <time>2015-10-11T00:13:18Z</time>
      </trkpt>
      <trkpt lat="44.1487" lon="3.1061">
        <ele>471</ele>
        <time>2015-10-11T00:15:18Z</time>
      </trkpt>
      <trkpt lat="44.14878" lon="3.1061">
        <ele>472</ele>
        <time>2015-10-11T00:17:18Z</time>
      </trkpt>
      <trkpt lat="44.14889" lon="3.10603">
        <ele>472</ele>
        <time>2015-10-11T00:19:18Z</time>
      </trkpt>
      <trkpt lat="44.14899" lon="3.10586">
        <ele>470</ele>
        <time>2015-10-11T00:21:18Z</time>
      </trkpt>
      <trkpt lat="44.14906" lon="3.10575">
        <ele>468</ele>
        <time>2015-10-11T00:23:18Z</time>
      </trkpt>
      <trkpt lat="44.14918" lon="3.1056">
        <ele>465</ele>
        <time>2015-10-11T00:25:18Z</time>
      </trkpt>
      <trkpt lat="44.14921" lon="3.10556">
        <ele>464</ele>
        <time>2015-10-11T00:27:18Z</time>
      </trkpt>
      <trkpt lat="44.14927" lon="3.10547">
        <ele>461</ele>
        <time>2015-10-11T00:29:18Z</time>
      </trkpt>
      <trkpt lat="44.14933" lon="3.10543">
        <ele>460</ele>
        <time>2015-10-11T00:31:18Z</time>
      </trkpt>
      <trkpt lat="44.1494" lon="3.10535">
        <ele>458</ele>
        <time>2015-10-11T00:33:18Z</time>
      </trkpt>
      <trkpt lat="44.14948" lon="3.10528">
        <ele>456</ele>
        <time>2015-10-11T00:35:18Z</time>
      </trkpt>
      <trkpt lat="44.14959" lon="3.10522">
        <ele>455</ele>
        <time>2015-10-11T00:37:18Z</time>
      </trkpt>
      <trkpt lat="44.14967" lon="3.10514">
        <ele>453</ele>
        <time>2015-10-11T00:39:18Z</time>
      </trkpt>
      <trkpt lat="44.1498" lon="3.10508">
        <ele>452</ele>
        <time>2015-10-11T00:41:18Z</time>
      </trkpt>
      <trkpt lat="44.14994" lon="3.10506">
        <ele>452</ele>
        <time>2015-10-11T00:43:18Z</time>
      </trkpt>
      <trkpt lat="44.15004" lon="3.10501">
        <ele>450</ele>
        <time>2015-10-11T00:45:18Z</time>
      </trkpt>
      <trkpt lat="44.1501" lon="3.10493">
        <ele>447</ele>
        <time>2015-10-11T00:47:18Z</time>
      </trkpt>
      <trkpt lat="44.1501" lon="3.10488">
        <ele>446</ele>
        <time>2015-10-11T00:49:18Z</time>
      </trkpt>
      <trkpt lat="44.15014" lon="3.10481">
        <ele>443</ele>
        <time>2015-10-11T00:51:18Z</time>
      </trkpt>
      <trkpt lat="44.15025" lon="3.10468">
        <ele>439</ele>
        <time>2015-10-11T00:53:18Z</time>
      </trkpt>
      <trkpt lat="44.15035" lon="3.10451">
        <ele>433</ele>
        <time>2015-10-11T00:55:18Z</time>
      </trkpt>
      <trkpt lat="44.15043" lon="3.10436">
        <ele>428</ele>
        <time>2015-10-11T00:57:18Z</time>
      </trkpt>
      <trkpt lat="44.15053" lon="3.10421">
        <ele>423</ele>
        <time>2015-10-11T00:59:18Z</time>
      </trkpt>
      <trkpt lat="44.15064" lon="3.10412">
        <ele>420</ele>
        <time>2015-10-11T01:01:18Z</time>
      </trkpt>
      <trkpt lat="44.15074" lon="3.10404">
        <ele>418</ele>
        <time>2015-10-11T01:03:18Z</time>
      </trkpt>
      <trkpt lat="44.15085" lon="3.10395">
        <ele>416</ele>
        <time>2015-10-11T01:05:18Z</time>
      </trkpt>
      <trkpt lat="44.151" lon="3.10384">
        <ele>412</ele>
        <time>2015-10-11T01:07:18Z</time>
      </trkpt>
      <trkpt lat="44.15109" lon="3.10379">
        <ele>411</ele>
        <time>2015-10-11T01:09:18Z</time>
      </trkpt>
      <trkpt lat="44.15121" lon="3.10374">
        <ele>409</ele>
        <time>2015-10-11T01:11:18Z</time>
      </trkpt>
      <trkpt lat="44.15134" lon="3.1037">
        <ele>408</ele>
        <time>2015-10-11T01:13:18Z</time>
      </trkpt>
      <trkpt lat="44.15144" lon="3.10365">
        <ele>407</ele>
        <time>2015-10-11T01:15:18Z</time>
      </trkpt>
      <trkpt lat="44.15154" lon="3.10357">
        <ele>406</ele>
        <time>2015-10-11T01:17:18Z</time>
      </trkpt>
      <trkpt lat="44.15163" lon="3.10346">
        <ele>404</ele>
        <time>2015-10-11T01:19:18Z</time>
      </trkpt>
      <trkpt lat="44.15165" lon="3.10334">
        <ele>402</ele>
        <time>2015-10-11T01:21:18Z</time>
      </trkpt>
      <trkpt lat="44.15159" lon="3.10332">
        <ele>402</ele>
        <time>2015-10-11T01:23:18Z</time>
      </trkpt>
      <trkpt lat="44.15138" lon="3.10322">
        <ele>400</ele>
        <time>2015-10-11T01:25:18Z</time>
      </trkpt>
      <trkpt lat="44.15128" lon="3.1031">
        <ele>398</ele>
        <time>2015-10-11T01:27:18Z</time>
      </trkpt>
      <trkpt lat="44.15121" lon="3.10304">
        <ele>396</ele>
        <time>2015-10-11T01:29:18Z</time>
      </trkpt>
      <trkpt lat="44.15113" lon="3.10295">
        <ele>394</ele>
        <time>2015-10-11T01:31:18Z</time>
      </trkpt>
      <trkpt lat="44.15116" lon="3.10291">
        <ele>394</ele>
        <time>2015-10-11T01:33:18Z</time>
      </trkpt>
      <trkpt lat="44.15119" lon="3.10285">
        <ele>393</ele>
        <time>2015-10-11T01:35:18Z</time>
      </trkpt>
      <trkpt lat="44.15124" lon="3.10278">
        <ele>392</ele>
        <time>2015-10-11T01:37:18Z</time>
      </trkpt>
      <trkpt lat="44.15122" lon="3.10267">
        <ele>390</ele>
        <time>2015-10-11T01:39:18Z</time>
      </trkpt>
      <trkpt lat="44.15111" lon="3.10255">
        <ele>387</ele>
        <time>2015-10-11T01:41:18Z</time>
      </trkpt>
      <trkpt lat="44.15093" lon="3.1025">
        <ele>385</ele>
        <time>2015-10-11T01:43:18Z</time>
      </trkpt>
      <trkpt lat="44.1508" lon="3.10244">
        <ele>384</ele>
        <time>2015-10-11T01:45:18Z</time>
      </trkpt>
      <trkpt lat="44.15046" lon="3.10231">
        <ele>382</ele>
        <time>2015-10-11T01:47:18Z</time>
      </trkpt>
      <trkpt lat="44.15025" lon="3.10225">
        <ele>381</ele>
        <time>2015-10-11T01:49:18Z</time>
      </trkpt>
      <trkpt lat="44.15007" lon="3.1022">
        <ele>380</ele>
        <time>2015-10-11T01:51:18Z</time>
      </trkpt>
      <trkpt lat="44.1497" lon="3.10207">
        <ele>376</ele>
        <time>2015-10-11T01:53:18Z</time>
      </trkpt>
      <trkpt lat="44.14953" lon="3.10199">
        <ele>374</ele>
        <time>2015-10-11T01:55:18Z</time>
      </trkpt>
      <trkpt lat="44.14945" lon="3.1019">
        <ele>373</ele>
        <time>2015-10-11T01:57:18Z</time>
      </trkpt>
      <trkpt lat="44.14933" lon="3.10173">
        <ele>370</ele>
        <time>2015-10-11T01:59:18Z</time>
      </trkpt>
      <trkpt lat="44.14932" lon="3.10154">
        <ele>369</ele>
        <time>2015-10-11T02:01:18Z</time>
      </trkpt>
      <trkpt lat="44.14931" lon="3.10138">
        <ele>369</ele>
        <time>2015-10-11T02:03:18Z</time>
      </trkpt>
      <trkpt lat="44.14931" lon="3.10112">
        <ele>368</ele>
        <time>2015-10-11T02:05:18Z</time>
      </trkpt>
      <trkpt lat="44.14931" lon="3.10091">
        <ele>368</ele>
        <time>2015-10-11T02:07:18Z</time>
      </trkpt>
      <trkpt lat="44.14931" lon="3.1007">
        <ele>367</ele>
        <time>2015-10-11T02:09:18Z</time>
      </trkpt>
      <trkpt lat="44.14931" lon="3.10067">
        <ele>367</ele>
        <time>2015-10-11T02:11:18Z</time>
      </trkpt>
      <trkpt lat="44.14931" lon="3.10061">
        <ele>367</ele>
        <time>2015-10-11T02:13:18Z</time>
      </trkpt>
      <trkpt lat="44.14929" lon="3.10058">
        <ele>367</ele>
        <time>2015-10-11T02:15:18Z</time>
      </trkpt>
      <trkpt lat="44.14926" lon="3.10053">
        <ele>367</ele>
        <time>2015-10-11T02:17:18Z</time>
      </trkpt>
      <trkpt lat="44.14922" lon="3.10049">
        <ele>367</ele>
        <time>2015-10-11T02:19:18Z</time>
      </trkpt>
      <trkpt lat="44.14924" lon="3.10048">
        <ele>367</ele>
        <time>2015-10-11T02:21:18Z</time>
      </trkpt>
      <trkpt lat="44.14927" lon="3.10046">
        <ele>367</ele>
        <time>2015-10-11T02:23:18Z</time>
      </trkpt>
      <trkpt lat="44.1493" lon="3.10044">
        <ele>367</ele>
        <time>2015-10-11T02:25:18Z</time>
      </trkpt>
      <trkpt lat="44.14935" lon="3.1004">
        <ele>367</ele>
        <time>2015-10-11T02:27:18Z</time>
      </trkpt>
      <trkpt lat="44.14938" lon="3.10042">
        <ele>367</ele>
        <time>2015-10-11T02:29:18Z</time>
      </trkpt>
      <trkpt lat="44.14944" lon="3.10054">
        <ele>367</ele>
        <time>2015-10-11T02:31:18Z</time>
      </trkpt>
      <trkpt lat="44.14954" lon="3.10073">
        <ele>367</ele>
        <time>2015-10-11T02:33:18Z</time>
      </trkpt>
      <trkpt lat="44.14968" lon="3.10076">
        <ele>366</ele>
        <time>2015-10-11T02:35:18Z</time>
      </trkpt>
      <trkpt lat="44.14983" lon="3.10076">
        <ele>366</ele>
        <time>2015-10-11T02:37:18Z</time>
      </trkpt>
      <trkpt lat="44.14995" lon="3.10077">
        <ele>365</ele>
        <time>2015-10-11T02:39:18Z</time>
      </trkpt>
      <trkpt lat="44.15009" lon="3.10079">
        <ele>365</ele>
        <time>2015-10-11T02:41:18Z</time>
      </trkpt>
      <trkpt lat="44.15024" lon="3.10082">
        <ele>366</ele>
        <time>2015-10-11T02:43:18Z</time>
      </trkpt>
      <trkpt lat="44.15039" lon="3.1009">
        <ele>366</ele>
        <time>2015-10-11T02:45:18Z</time>
      </trkpt>
      <trkpt lat="44.15051" lon="3.10097">
        <ele>367</ele>
        <time>2015-10-11T02:47:18Z</time>
      </trkpt>
      <trkpt lat="44.15064" lon="3.10099">
        <ele>367</ele>
        <time>2015-10-11T02:49:18Z</time>
      </trkpt>
      <trkpt lat="44.15074" lon="3.10099">
        <ele>368</ele>
        <time>2015-10-11T02:51:18Z</time>
      </trkpt>
      <trkpt lat="44.15095" lon="3.101">
        <ele>368</ele>
        <time>2015-10-11T02:53:18Z</time>
      </trkpt>
      <trkpt lat="44.15111" lon="3.10099">
        <ele>369</ele>
        <time>2015-10-11T02:55:18Z</time>
      </trkpt>
      <trkpt lat="44.15125" lon="3.10101">
        <ele>369</ele>
        <time>2015-10-11T02:57:18Z</time>
      </trkpt>
      <trkpt lat="44.15132" lon="3.10101">
        <ele>369</ele>
        <time>2015-10-11T02:59:18Z</time>
      </trkpt>
      <trkpt lat="44.15149" lon="3.10103">
        <ele>370</ele>
        <time>2015-10-11T03:01:18Z</time>
      </trkpt>
      <trkpt lat="44.15166" lon="3.10101">
        <ele>371</ele>
        <time>2015-10-11T03:03:18Z</time>
      </trkpt>
      <trkpt lat="44.15178" lon="3.10101">
        <ele>370</ele>
        <time>2015-10-11T03:05:18Z</time>
      </trkpt>
      <trkpt lat="44.15189" lon="3.10096">
        <ele>369</ele>
        <time>2015-10-11T03:07:18Z</time>
      </trkpt>
      <trkpt lat="44.15199" lon="3.10091">
        <ele>369</ele>
        <time>2015-10-11T03:09:18Z</time>
      </trkpt>
      <trkpt lat="44.15213" lon="3.10087">
        <ele>368</ele>
        <time>2015-10-11T03:11:18Z</time>
      </trkpt>
      <trkpt lat="44.15226" lon="3.10081">
        <ele>367</ele>
        <time>2015-10-11T03:13:18Z</time>
      </trkpt>
      <trkpt lat="44.15235" lon="3.10078">
        <ele>367</ele>
        <time>2015-10-11T03:15:18Z</time>
      </trkpt>
      <trkpt lat="44.15246" lon="3.1007">
        <ele>366</ele>
        <time>2015-10-11T03:17:18Z</time>
      </trkpt>
      <trkpt lat="44.15256" lon="3.10053">
        <ele>366</ele>
        <time>2015-10-11T03:19:18Z</time>
      </trkpt>
      <trkpt lat="44.15269" lon="3.10045">
        <ele>366</ele>
        <time>2015-10-11T03:21:18Z</time>
      </trkpt>
      <trkpt lat="44.15285" lon="3.10031">
        <ele>367</ele>
        <time>2015-10-11T03:23:18Z</time>
      </trkpt>
      <trkpt lat="44.15298" lon="3.10023">
        <ele>367</ele>
        <time>2015-10-11T03:25:18Z</time>
      </trkpt>
      <trkpt lat="44.15326" lon="3.10009">
        <ele>368</ele>
        <time>2015-10-11T03:27:18Z</time>
      </trkpt>
      <trkpt lat="44.15339" lon="3.10002">
        <ele>368</ele>
        <time>2015-10-11T03:29:18Z</time>
      </trkpt>
      <trkpt lat="44.15356" lon="3.09994">
        <ele>367</ele>
        <time>2015-10-11T03:31:18Z</time>
      </trkpt>
      <trkpt lat="44.15366" lon="3.09988">
        <ele>367</ele>
        <time>2015-10-11T03:33:18Z</time>
      </trkpt>
      <trkpt lat="44.15379" lon="3.09981">
        <ele>367</ele>
        <time>2015-10-11T03:35:18Z</time>
      </trkpt>
      <trkpt lat="44.15389" lon="3.09975">
        <ele>367</ele>
        <time>2015-10-11T03:37:18Z</time>
      </trkpt>
      <trkpt lat="44.15397" lon="3.0997">
        <ele>367</ele>
        <time>2015-10-11T03:39:18Z</time>
      </trkpt>
      <trkpt lat="44.15404" lon="3.09967">
        <ele>367</ele>
        <time>2015-10-11T03:41:18Z</time>
      </trkpt>
      <trkpt lat="44.15412" lon="3.09963">
        <ele>366</ele>
        <time>2015-10-11T03:43:18Z</time>
      </trkpt>
      <trkpt lat="44.15421" lon="3.09962">
        <ele>366</ele>
        <time>2015-10-11T03:45:18Z</time>
      </trkpt>
      <trkpt lat="44.15433" lon="3.09965">
        <ele>366</ele>
        <time>2015-10-11T03:47:18Z</time>
      </trkpt>
      <trkpt lat="44.15448" lon="3.09966">
        <ele>367</ele>
        <time>2015-10-11T03:49:18Z</time>
      </trkpt>
      <trkpt lat="44.15461" lon="3.09962">
        <ele>367</ele>
        <time>2015-10-11T03:51:18Z</time>
      </trkpt>
      <trkpt lat="44.15475" lon="3.09959">
        <ele>367</ele>
        <time>2015-10-11T03:53:18Z</time>
      </trkpt>
      <trkpt lat="44.15502" lon="3.09956">
        <ele>368</ele>
        <time>2015-10-11T03:55:18Z</time>
      </trkpt>
      <trkpt lat="44.15521" lon="3.09955">
        <ele>368</ele>
        <time>2015-10-11T03:57:18Z</time>
      </trkpt>
      <trkpt lat="44.15537" lon="3.09955">
        <ele>369</ele>
        <time>2015-10-11T03:59:18Z</time>
      </trkpt>
      <trkpt lat="44.15548" lon="3.09952">
        <ele>369</ele>
        <time>2015-10-11T04:01:18Z</time>
      </trkpt>
      <trkpt lat="44.15565" lon="3.09951">
        <ele>370</ele>
        <time>2015-10-11T04:03:18Z</time>
      </trkpt>
      <trkpt lat="44.15578" lon="3.09955">
        <ele>370</ele>
        <time>2015-10-11T04:05:18Z</time>
      </trkpt>
      <trkpt lat="44.15591" lon="3.0996">
        <ele>370</ele>
        <time>2015-10-11T04:07:18Z</time>
      </trkpt>
      <trkpt lat="44.15601" lon="3.09963">
        <ele>370</ele>
        <time>2015-10-11T04:09:18Z</time>
      </trkpt>
      <trkpt lat="44.15614" lon="3.09968">
        <ele>370</ele>
        <time>2015-10-11T04:11:18Z</time>
      </trkpt>
      <trkpt lat="44.15628" lon="3.09973">
        <ele>370</ele>
        <time>2015-10-11T04:13:18Z</time>
      </trkpt>
      <trkpt lat="44.15641" lon="3.09978">
        <ele>370</ele>
        <time>2015-10-11T04:15:18Z</time>
      </trkpt>
      <trkpt lat="44.15654" lon="3.09981">
        <ele>370</ele>
        <time>2015-10-11T04:17:18Z</time>
      </trkpt>
      <trkpt lat="44.15666" lon="3.09988">
        <ele>370</ele>
        <time>2015-10-11T04:19:18Z</time>
      </trkpt>
      <trkpt lat="44.15675" lon="3.09994">
        <ele>370</ele>
        <time>2015-10-11T04:21:18Z</time>
      </trkpt>
      <trkpt lat="44.15682" lon="3.0999">
        <ele>370</ele>
        <time>2015-10-11T04:23:18Z</time>
      </trkpt>
      <trkpt lat="44.15689" lon="3.09987">
        <ele>370</ele>
        <time>2015-10-11T04:25:18Z</time>
      </trkpt>
      <trkpt lat="44.15694" lon="3.09981">
        <ele>371</ele>
        <time>2015-10-11T04:27:18Z</time>
      </trkpt>
      <trkpt lat="44.15701" lon="3.09971">
        <ele>371</ele>
        <time>2015-10-11T04:29:18Z</time>
      </trkpt>
      <trkpt lat="44.15712" lon="3.09954">
        <ele>372</ele>
        <time>2015-10-11T04:31:18Z</time>
      </trkpt>
      <trkpt lat="44.15719" lon="3.09945">
        <ele>372</ele>
        <time>2015-10-11T04:33:18Z</time>
      </trkpt>
      <trkpt lat="44.15726" lon="3.09936">
        <ele>372</ele>
        <time>2015-10-11T04:35:18Z</time>
      </trkpt>
      <trkpt lat="44.1573" lon="3.09929">
        <ele>372</ele>
        <time>2015-10-11T04:37:18Z</time>
      </trkpt>
      <trkpt lat="44.15741" lon="3.09916">
        <ele>372</ele>
        <time>2015-10-11T04:39:18Z</time>
      </trkpt>
      <trkpt lat="44.15741" lon="3.09915">
        <ele>372</ele>
        <time>2015-10-11T04:41:18Z</time>
      </trkpt>
      <trkpt lat="44.15738" lon="3.09911">
        <ele>373</ele>
        <time>2015-10-11T04:43:18Z</time>
      </trkpt>
      <trkpt lat="44.15736" lon="3.09909">
        <ele>373</ele>
        <time>2015-10-11T04:45:18Z</time>
      </trkpt>
      <trkpt lat="44.15734" lon="3.09905">
        <ele>373</ele>
        <time>2015-10-11T04:47:18Z</time>
      </trkpt>
      <trkpt lat="44.15731" lon="3.09901">
        <ele>373</ele>
        <time>2015-10-11T04:49:18Z</time>
      </trkpt>
      <trkpt lat="44.15728" lon="3.09897">
        <ele>374</ele>
        <time>2015-10-11T04:51:18Z</time>
      </trkpt>
      <trkpt lat="44.15725" lon="3.09892">
        <ele>374</ele>
        <time>2015-10-11T04:53:18Z</time>
      </trkpt>
      <trkpt lat="44.15722" lon="3.0989">
        <ele>374</ele>
        <time>2015-10-11T04:55:18Z</time>
      </trkpt>
      <trkpt lat="44.15721" lon="3.09894">
        <ele>374</ele>
        <time>2015-10-11T04:57:18Z</time>
      </trkpt>
      <trkpt lat="44.1572" lon="3.09898">
        <ele>374</ele>
        <time>2015-10-11T04:59:18Z</time>
      </trkpt>
      <trkpt lat="44.1572" lon="3.09902">
        <ele>374</ele>
        <time>2015-10-11T05:01:18Z</time>
      </trkpt>
      <trkpt lat="44.15724" lon="3.09909">
        <ele>373</ele>
        <time>2015-10-11T05:03:18Z</time>
      </trkpt>
      <trkpt lat="44.15732" lon="3.09921">
        <ele>373</ele>
        <time>2015-10-11T05:05:18Z</time>
      </trkpt>
      <trkpt lat="44.15742" lon="3.09937">
        <ele>372</ele>
        <time>2015-10-11T05:07:18Z</time>
      </trkpt>
      <trkpt lat="44.15758" lon="3.0996">
        <ele>372</ele>
        <time>2015-10-11T05:09:18Z</time>
      </trkpt>
      <trkpt lat="44.15762" lon="3.09955">
        <ele>373</ele>
        <time>2015-10-11T05:11:18Z</time>
      </trkpt>
      <trkpt lat="44.15764" lon="3.09952">
        <ele>373</ele>
        <time>2015-10-11T05:13:18Z</time>
      </trkpt>
      <trkpt lat="44.15767" lon="3.09944">
        <ele>373</ele>
        <time>2015-10-11T05:15:18Z</time>
      </trkpt>
      <trkpt lat="44.15772" lon="3.09935">
        <ele>374</ele>
        <time>2015-10-11T05:17:18Z</time>
      </trkpt>
      <trkpt lat="44.15778" lon="3.09929">
        <ele>374</ele>
        <time>2015-10-11T05:19:18Z</time>
      </trkpt>
      <trkpt lat="44.15791" lon="3.09915">
        <ele>375</ele>
        <time>2015-10-11T05:21:18Z</time>
      </trkpt>
      <trkpt lat="44.15797" lon="3.09908">
        <ele>375</ele>
        <time>2015-10-11T05:23:18Z</time>
      </trkpt>
      <trkpt lat="44.15804" lon="3.09903">
        <ele>376</ele>
        <time>2015-10-11T05:25:18Z</time>
      </trkpt>
      <trkpt lat="44.15812" lon="3.09895">
        <ele>376</ele>
        <time>2015-10-11T05:27:18Z</time>
      </trkpt>
      <trkpt lat="44.15819" lon="3.09884">
        <ele>376</ele>
        <time>2015-10-11T05:29:18Z</time>
      </trkpt>
      <trkpt lat="44.15824" lon="3.09878">
        <ele>376</ele>
        <time>2015-10-11T05:31:18Z</time>
      </trkpt>
      <trkpt lat="44.15831" lon="3.0987">
        <ele>376</ele>
        <time>2015-10-11T05:33:18Z</time>
      </trkpt>
      <trkpt lat="44.15836" lon="3.09863">
        <ele>377</ele>
        <time>2015-10-11T05:35:18Z</time>
      </trkpt>
      <trkpt lat="44.15846" lon="3.0985">
        <ele>378</ele>
        <time>2015-10-11T05:37:18Z</time>
      </trkpt>
      <trkpt lat="44.15855" lon="3.09839">
        <ele>379</ele>
        <time>2015-10-11T05:39:18Z</time>
      </trkpt>
      <trkpt lat="44.15864" lon="3.09825">
        <ele>381</ele>
        <time>2015-10-11T05:41:18Z</time>
      </trkpt>
      <trkpt lat="44.15871" lon="3.0981">
        <ele>381</ele>
        <time>2015-10-11T05:43:18Z</time>
      </trkpt>
      <trkpt lat="44.1588" lon="3.09794">
        <ele>382</ele>
        <time>2015-10-11T05:45:18Z</time>
      </trkpt>
      <trkpt lat="44.15886" lon="3.0978">
        <ele>383</ele>
        <time>2015-10-11T05:47:18Z</time>
      </trkpt>
      <trkpt lat="44.15893" lon="3.09768">
        <ele>383</ele>
        <time>2015-10-11T05:49:18Z</time>
      </trkpt>
      <trkpt lat="44.15901" lon="3.09752">
        <ele>383</ele>
        <time>2015-10-11T05:51:18Z</time>
      </trkpt>
      <trkpt lat="44.15909" lon="3.09735">
        <ele>382</ele>
        <time>2015-10-11T05:53:18Z</time>
      </trkpt>
      <trkpt lat="44.15916" lon="3.09721">
        <ele>382</ele>
        <time>2015-10-11T05:55:18Z</time>
      </trkpt>
      <trkpt lat="44.15921" lon="3.09713">
        <ele>382</ele>
        <time>2015-10-11T05:57:18Z</time>
      </trkpt>
      <trkpt lat="44.15928" lon="3.09701">
        <ele>382</ele>
        <time>2015-10-11T05:59:18Z</time>
      </trkpt>
      <trkpt lat="44.15943" lon="3.09716">
        <ele>387</ele>
        <time>2015-10-11T06:01:18Z</time>
      </trkpt>
      <trkpt lat="44.15944" lon="3.09717">
        <ele>387</ele>
        <time>2015-10-11T06:03:18Z</time>
      </trkpt>
      <trkpt lat="44.15948" lon="3.09724">
        <ele>389</ele>
        <time>2015-10-11T06:05:18Z</time>
      </trkpt>
      <trkpt lat="44.15946" lon="3.09726">
        <ele>388</ele>
        <time>2015-10-11T06:07:18Z</time>
      </trkpt>
      <trkpt lat="44.15948" lon="3.09727">
        <ele>389</ele>
        <time>2015-10-11T06:09:18Z</time>
      </trkpt>
      <trkpt lat="44.15951" lon="3.09725">
        <ele>389</ele>
        <time>2015-10-11T06:11:18Z</time>
      </trkpt>
      <trkpt lat="44.15952" lon="3.09725">
        <ele>390</ele>
        <time>2015-10-11T06:13:18Z</time>
      </trkpt>
      <trkpt lat="44.15953" lon="3.09728">
        <ele>390</ele>
        <time>2015-10-11T06:15:18Z</time>
      </trkpt>
      <trkpt lat="44.15951" lon="3.0973">
        <ele>390</ele>
        <time>2015-10-11T06:17:18Z</time>
      </trkpt>
      <trkpt lat="44.15948" lon="3.09735">
        <ele>390</ele>
        <time>2015-10-11T06:19:18Z</time>
      </trkpt>
      <trkpt lat="44.15945" lon="3.09739">
        <ele>390</ele>
        <time>2015-10-11T06:21:18Z</time>
      </trkpt>
      <trkpt lat="44.15942" lon="3.09742">
        <ele>389</ele>
        <time>2015-10-11T06:23:18Z</time>
      </trkpt>
      <trkpt lat="44.15939" lon="3.09747">
        <ele>389</ele>
        <time>2015-10-11T06:25:18Z</time>
      </trkpt>
      <trkpt lat="44.15937" lon="3.09752">
        <ele>389</ele>
        <time>2015-10-11T06:27:18Z</time>
      </trkpt>
      <trkpt lat="44.15936" lon="3.09756">
        <ele>389</ele>
        <time>2015-10-11T06:29:18Z</time>
      </trkpt>
      <trkpt lat="44.15937" lon="3.09761">
        <ele>390</ele>
        <time>2015-10-11T06:31:18Z</time>
      </trkpt>
      <trkpt lat="44.15938" lon="3.09763">
        <ele>390</ele>
        <time>2015-10-11T06:33:18Z</time>
      </trkpt>
      <trkpt lat="44.15938" lon="3.09768">
        <ele>391</ele>
        <time>2015-10-11T06:35:18Z</time>
      </trkpt>
      <trkpt lat="44.15937" lon="3.09772">
        <ele>391</ele>
        <time>2015-10-11T06:37:18Z</time>
      </trkpt>
      <trkpt lat="44.15938" lon="3.09776">
        <ele>392</ele>
        <time>2015-10-11T06:39:18Z</time>
      </trkpt>
      <trkpt lat="44.15939" lon="3.09781">
        <ele>392</ele>
        <time>2015-10-11T06:41:18Z</time>
      </trkpt>
      <trkpt lat="44.1594" lon="3.09788">
        <ele>393</ele>
        <time>2015-10-11T06:43:18Z</time>
      </trkpt>
      <trkpt lat="44.15941" lon="3.09796">
        <ele>394</ele>
        <time>2015-10-11T06:45:18Z</time>
      </trkpt>
      <trkpt lat="44.15942" lon="3.09801">
        <ele>395</ele>
        <time>2015-10-11T06:47:18Z</time>
      </trkpt>
      <trkpt lat="44.15943" lon="3.09808">
        <ele>396</ele>
        <time>2015-10-11T06:49:18Z</time>
      </trkpt>
      <trkpt lat="44.15946" lon="3.09814">
        <ele>397</ele>
        <time>2015-10-11T06:51:18Z</time>
      </trkpt>
      <trkpt lat="44.15946" lon="3.09821">
        <ele>398</ele>
        <time>2015-10-11T06:53:18Z</time>
      </trkpt>
      <trkpt lat="44.15946" lon="3.09831">
        <ele>399</ele>
        <time>2015-10-11T06:55:18Z</time>
      </trkpt>
      <trkpt lat="44.15947" lon="3.09841">
        <ele>400</ele>
        <time>2015-10-11T06:57:18Z</time>
      </trkpt>
      <trkpt lat="44.15945" lon="3.09848">
        <ele>400</ele>
        <time>2015-10-11T06:59:18Z</time>
      </trkpt>
      <trkpt lat="44.15944" lon="3.09858">
        <ele>401</ele>
        <time>2015-10-11T07:01:18Z</time>
      </trkpt>
      <trkpt lat="44.15942" lon="3.09864">
        <ele>401</ele>
        <time>2015-10-11T07:03:18Z</time>
      </trkpt>
      <trkpt lat="44.15942" lon="3.09875">
        <ele>402</ele>
        <time>2015-10-11T07:05:18Z</time>
      </trkpt>
      <trkpt lat="44.1594" lon="3.09897">
        <ele>404</ele>
        <time>2015-10-11T07:07:18Z</time>
      </trkpt>
      <trkpt lat="44.15937" lon="3.09911">
        <ele>405</ele>
        <time>2015-10-11T07:09:18Z</time>
      </trkpt>
      <trkpt lat="44.15936" lon="3.09927">
        <ele>406</ele>
        <time>2015-10-11T07:11:18Z</time>
      </trkpt>
      <trkpt lat="44.15942" lon="3.09926">
        <ele>407</ele>
        <time>2015-10-11T07:13:18Z</time>
      </trkpt>
      <trkpt lat="44.15943" lon="3.09926">
        <ele>407</ele>
        <time>2015-10-11T07:15:18Z</time>
      </trkpt>
      <trkpt lat="44.15949" lon="3.09926">
        <ele>409</ele>
        <time>2015-10-11T07:17:18Z</time>
      </trkpt>
      <trkpt lat="44.15958" lon="3.09928">
        <ele>412</ele>
        <time>2015-10-11T07:19:18Z</time>
      </trkpt>
      <trkpt lat="44.15966" lon="3.09929">
        <ele>414</ele>
        <time>2015-10-11T07:21:18Z</time>
      </trkpt>
      <trkpt lat="44.15973" lon="3.09936">
        <ele>416</ele>
        <time>2015-10-11T07:23:18Z</time>
      </trkpt>
      <trkpt lat="44.15983" lon="3.09951">
        <ele>419</ele>
        <time>2015-10-11T07:25:18Z</time>
      </trkpt>
      <trkpt lat="44.15989" lon="3.09965">
        <ele>422</ele>
        <time>2015-10-11T07:27:18Z</time>
      </trkpt>
      <trkpt lat="44.15995" lon="3.09974">
        <ele>424</ele>
        <time>2015-10-11T07:29:18Z</time>
      </trkpt>
      <trkpt lat="44.16001" lon="3.09984">
        <ele>426</ele>
        <time>2015-10-11T07:31:18Z</time>
      </trkpt>
      <trkpt lat="44.16002" lon="3.09995">
        <ele>427</ele>
        <time>2015-10-11T07:33:18Z</time>
      </trkpt>
      <trkpt lat="44.16004" lon="3.10006">
        <ele>429</ele>
        <time>2015-10-11T07:35:18Z</time>
      </trkpt>
      <trkpt lat="44.16005" lon="3.10016">
        <ele>429</ele>
        <time>2015-10-11T07:37:18Z</time>
      </trkpt>
      <trkpt lat="44.16006" lon="3.10025">
        <ele>430</ele>
        <time>2015-10-11T07:39:18Z</time>
      </trkpt>
      <trkpt lat="44.16012" lon="3.1004">
        <ele>433</ele>
        <time>2015-10-11T07:41:18Z</time>
      </trkpt>
      <trkpt lat="44.16017" lon="3.10049">
        <ele>435</ele>
        <time>2015-10-11T07:43:18Z</time>
      </trkpt>
      <trkpt lat="44.16021" lon="3.10063">
        <ele>437</ele>
        <time>2015-10-11T07:45:18Z</time>
      </trkpt>
      <trkpt lat="44.16024" lon="3.10074">
        <ele>438</ele>
        <time>2015-10-11T07:47:18Z</time>
      </trkpt>
      <trkpt lat="44.16037" lon="3.10093">
        <ele>444</ele>
        <time>2015-10-11T07:49:18Z</time>
      </trkpt>
      <trkpt lat="44.16042" lon="3.10105">
        <ele>446</ele>
        <time>2015-10-11T07:51:18Z</time>
      </trkpt>
      <trkpt lat="44.16043" lon="3.1012">
        <ele>447</ele>
        <time>2015-10-11T07:53:18Z</time>
      </trkpt>
      <trkpt lat="44.16045" lon="3.1013">
        <ele>448</ele>
        <time>2015-10-11T07:55:18Z</time>
      </trkpt>
      <trkpt lat="44.16047" lon="3.10137">
        <ele>449</ele>
        <time>2015-10-11T07:57:18Z</time>
      </trkpt>
      <trkpt lat="44.16049" lon="3.10143">
        <ele>450</ele>
        <time>2015-10-11T07:59:18Z</time>
      </trkpt>
      <trkpt lat="44.16051" lon="3.10151">
        <ele>451</ele>
        <time>2015-10-11T08:01:18Z</time>
      </trkpt>
      <trkpt lat="44.16051" lon="3.10162">
        <ele>451</ele>
        <time>2015-10-11T08:03:18Z</time>
      </trkpt>
      <trkpt lat="44.16056" lon="3.10167">
        <ele>454</ele>
        <time>2015-10-11T08:05:18Z</time>
      </trkpt>
      <trkpt lat="44.1606" lon="3.10164">
        <ele>455</ele>
        <time>2015-10-11T08:07:18Z</time>
      </trkpt>
      <trkpt lat="44.16062" lon="3.10167">
        <ele>456</ele>
        <time>2015-10-11T08:09:18Z</time>
      </trkpt>
      <trkpt lat="44.16065" lon="3.1017">
        <ele>457</ele>
        <time>2015-10-11T08:11:18Z</time>
      </trkpt>
      <trkpt lat="44.16078" lon="3.10175">
        <ele>462</ele>
        <time>2015-10-11T08:13:18Z</time>
      </trkpt>
      <trkpt lat="44.16085" lon="3.10173">
        <ele>465</ele>
        <time>2015-10-11T08:15:18Z</time>
      </trkpt>
      <trkpt lat="44.16087" lon="3.10174">
        <ele>466</ele>
        <time>2015-10-11T08:17:18Z</time>
      </trkpt>
      <trkpt lat="44.16083" lon="3.10182">
        <ele>464</ele>
        <time>2015-10-11T08:19:18Z</time>
      </trkpt>
      <trkpt lat="44.16083" lon="3.10187">
        <ele>464</ele>
        <time>2015-10-11T08:21:18Z</time>
      </trkpt>
      <trkpt lat="44.16083" lon="3.102">
        <ele>464</ele>
        <time>2015-10-11T08:23:18Z</time>
      </trkpt>
      <trkpt lat="44.16084" lon="3.10208">
        <ele>464</ele>
        <time>2015-10-11T08:25:18Z</time>
      </trkpt>
      <trkpt lat="44.16089" lon="3.10218">
        <ele>465</ele>
        <time>2015-10-11T08:27:18Z</time>
      </trkpt>
      <trkpt lat="44.16091" lon="3.10231">
        <ele>465</ele>
        <time>2015-10-11T08:29:18Z</time>
      </trkpt>
      <trkpt lat="44.16092" lon="3.10235">
        <ele>466</ele>
        <time>2015-10-11T08:31:18Z</time>
      </trkpt>
      <trkpt lat="44.16094" lon="3.10245">
        <ele>466</ele>
        <time>2015-10-11T08:33:18Z</time>
      </trkpt>
      <trkpt lat="44.16098" lon="3.10252">
        <ele>467</ele>
        <time>2015-10-11T08:35:18Z</time>
      </trkpt>
      <trkpt lat="44.16098" lon="3.10254">
        <ele>466</ele>
        <time>2015-10-11T08:37:18Z</time>
      </trkpt>
      <trkpt lat="44.16101" lon="3.10258">
        <ele>467</ele>
        <time>2015-10-11T08:39:18Z</time>
      </trkpt>
      <trkpt lat="44.16105" lon="3.1026">
        <ele>468</ele>
        <time>2015-10-11T08:41:18Z</time>
      </trkpt>
      <trkpt lat="44.16107" lon="3.1026">
        <ele>468</ele>
        <time>2015-10-11T08:43:18Z</time>
      </trkpt>
      <trkpt lat="44.16112" lon="3.10267">
        <ele>469</ele>
        <time>2015-10-11T08:45:18Z</time>
      </trkpt>
      <trkpt lat="44.16118" lon="3.10273">
        <ele>470</ele>
        <time>2015-10-11T08:47:18Z</time>
      </trkpt>
      <trkpt lat="44.16119" lon="3.10274">
        <ele>470</ele>
        <time>2015-10-11T08:49:18Z</time>
      </trkpt>
      <trkpt lat="44.16123" lon="3.10278">
        <ele>470</ele>
        <time>2015-10-11T08:51:18Z</time>
      </trkpt>
      <trkpt lat="44.16132" lon="3.10282">
        <ele>473</ele>
        <time>2015-10-11T08:53:18Z</time>
      </trkpt>
      <trkpt lat="44.16137" lon="3.10292">
        <ele>472</ele>
        <time>2015-10-11T08:55:18Z</time>
      </trkpt>
      <trkpt lat="44.16147" lon="3.10311">
        <ele>471</ele>
        <time>2015-10-11T08:57:18Z</time>
      </trkpt>
      <trkpt lat="44.16154" lon="3.10316">
        <ele>472</ele>
        <time>2015-10-11T08:59:18Z</time>
      </trkpt>
      <trkpt lat="44.16163" lon="3.1032">
        <ele>474</ele>
        <time>2015-10-11T09:01:18Z</time>
      </trkpt>
      <trkpt lat="44.1617" lon="3.10324">
        <ele>474</ele>
        <time>2015-10-11T09:03:18Z</time>
      </trkpt>
      <trkpt lat="44.16177" lon="3.10329">
        <ele>474</ele>
        <time>2015-10-11T09:05:18Z</time>
      </trkpt>
      <trkpt lat="44.16187" lon="3.10333">
        <ele>473</ele>
        <time>2015-10-11T09:07:18Z</time>
      </trkpt>
      <trkpt lat="44.16188" lon="3.10332">
        <ele>474</ele>
        <time>2015-10-11T09:09:18Z</time>
      </trkpt>
      <trkpt lat="44.16191" lon="3.10328">
        <ele>475</ele>
        <time>2015-10-11T09:11:18Z</time>
      </trkpt>
      <trkpt lat="44.16195" lon="3.10316">
        <ele>478</ele>
        <time>2015-10-11T09:13:18Z</time>
      </trkpt>
      <trkpt lat="44.16192" lon="3.10309">
        <ele>479</ele>
        <time>2015-10-11T09:15:18Z</time>
      </trkpt>
      <trkpt lat="44.16189" lon="3.10305">
        <ele>480</ele>
        <time>2015-10-11T09:17:18Z</time>
      </trkpt>
      <trkpt lat="44.16192" lon="3.10302">
        <ele>481</ele>
        <time>2015-10-11T09:19:18Z</time>
      </trkpt>
      <trkpt lat="44.16201" lon="3.10305">
        <ele>481</ele>
        <time>2015-10-11T09:21:18Z</time>
      </trkpt>
      <trkpt lat="44.16212" lon="3.10307">
        <ele>481</ele>
        <time>2015-10-11T09:23:18Z</time>
      </trkpt>
      <trkpt lat="44.16225" lon="3.10299">
        <ele>484</ele>
        <time>2015-10-11T09:25:18Z</time>
      </trkpt>
      <trkpt lat="44.16236" lon="3.10289">
        <ele>488</ele>
        <time>2015-10-11T09:27:18Z</time>
      </trkpt>
      <trkpt lat="44.16247" lon="3.10286">
        <ele>490</ele>
        <time>2015-10-11T09:29:18Z</time>
      </trkpt>
      <trkpt lat="44.16256" lon="3.10285">
        <ele>490</ele>
        <time>2015-10-11T09:31:18Z</time>
      </trkpt>
      <trkpt lat="44.16267" lon="3.10283">
        <ele>489</ele>
        <time>2015-10-11T09:33:18Z</time>
      </trkpt>
      <trkpt lat="44.1628" lon="3.10284">
        <ele>487</ele>
        <time>2015-10-11T09:35:18Z</time>
      </trkpt>
      <trkpt lat="44.16292" lon="3.10293">
        <ele>483</ele>
        <time>2015-10-11T09:37:18Z</time>
      </trkpt>
      <trkpt lat="44.16301" lon="3.10301">
        <ele>480</ele>
        <time>2015-10-11T09:39:18Z</time>
      </trkpt>
      <trkpt lat="44.16316" lon="3.10306">
        <ele>478</ele>
        <time>2015-10-11T09:41:18Z</time>
      </trkpt>
      <trkpt lat="44.16328" lon="3.10307">
        <ele>476</ele>
        <time>2015-10-11T09:43:18Z</time>
      </trkpt>
      <trkpt lat="44.16342" lon="3.10315">
        <ele>474</ele>
        <time>2015-10-11T09:45:18Z</time>
      </trkpt>
      <trkpt lat="44.16354" lon="3.10323">
        <ele>473</ele>
        <time>2015-10-11T09:47:18Z</time>
      </trkpt>
      <trkpt lat="44.16365" lon="3.10325">
        <ele>474</ele>
        <time>2015-10-11T09:49:18Z</time>
      </trkpt>
      <trkpt lat="44.16378" lon="3.10325">
        <ele>474</ele>
        <time>2015-10-11T09:51:18Z</time>
      </trkpt>
      <trkpt lat="44.16392" lon="3.10337">
        <ele>473</ele>
        <time>2015-10-11T09:53:18Z</time>
      </trkpt>
      <trkpt lat="44.164" lon="3.10345">
        <ele>472</ele>
        <time>2015-10-11T09:55:18Z</time>
      </trkpt>
      <trkpt lat="44.16408" lon="3.10355">
        <ele>471</ele>
        <time>2015-10-11T09:57:18Z</time>
      </trkpt>
      <trkpt lat="44.16419" lon="3.1036">
        <ele>471</ele>
        <time>2015-10-11T09:59:18Z</time>
      </trkpt>
      <trkpt lat="44.16432" lon="3.10367">
        <ele>472</ele>
        <time>2015-10-11T10:01:18Z</time>
      </trkpt>
      <trkpt lat="44.16442" lon="3.10371">
        <ele>474</ele>
        <time>2015-10-11T10:03:18Z</time>
      </trkpt>
      <trkpt lat="44.16454" lon="3.10366">
        <ele>476</ele>
        <time>2015-10-11T10:05:18Z</time>
      </trkpt>
      <trkpt lat="44.16462" lon="3.10363">
        <ele>478</ele>
        <time>2015-10-11T10:07:18Z</time>
      </trkpt>
      <trkpt lat="44.16471" lon="3.10364">
        <ele>479</ele>
        <time>2015-10-11T10:09:18Z</time>
      </trkpt>
      <trkpt lat="44.16474" lon="3.10368">
        <ele>480</ele>
        <time>2015-10-11T10:11:18Z</time>
      </trkpt>
      <trkpt lat="44.16481" lon="3.10379">
        <ele>480</ele>
        <time>2015-10-11T10:13:18Z</time>
      </trkpt>
      <trkpt lat="44.16487" lon="3.10381">
        <ele>481</ele>
        <time>2015-10-11T10:15:18Z</time>
      </trkpt>
      <trkpt lat="44.16495" lon="3.10384">
        <ele>482</ele>
        <time>2015-10-11T10:17:18Z</time>
      </trkpt>
      <trkpt lat="44.16503" lon="3.10393">
        <ele>483</ele>
        <time>2015-10-11T10:19:18Z</time>
      </trkpt>
      <trkpt lat="44.16509" lon="3.10402">
        <ele>483</ele>
        <time>2015-10-11T10:21:18Z</time>
      </trkpt>
      <trkpt lat="44.16512" lon="3.10407">
        <ele>484</ele>
        <time>2015-10-11T10:23:18Z</time>
      </trkpt>
      <trkpt lat="44.16519" lon="3.10423">
        <ele>484</ele>
        <time>2015-10-11T10:25:18Z</time>
      </trkpt>
      <trkpt lat="44.16528" lon="3.10432">
        <ele>486</ele>
        <time>2015-10-11T10:27:18Z</time>
      </trkpt>
      <trkpt lat="44.16535" lon="3.10434">
        <ele>488</ele>
        <time>2015-10-11T10:29:18Z</time>
      </trkpt>
      <trkpt lat="44.16546" lon="3.10442">
        <ele>490</ele>
        <time>2015-10-11T10:31:18Z</time>
      </trkpt>
      <trkpt lat="44.16552" lon="3.10451">
        <ele>492</ele>
        <time>2015-10-11T10:33:18Z</time>
      </trkpt>
      <trkpt lat="44.16558" lon="3.10453">
        <ele>493</ele>
        <time>2015-10-11T10:35:18Z</time>
      </trkpt>
      <trkpt lat="44.16564" lon="3.10453">
        <ele>494</ele>
        <time>2015-10-11T10:37:18Z</time>
      </trkpt>
      <trkpt lat="44.16568" lon="3.10452">
        <ele>495</ele>
        <time>2015-10-11T10:39:18Z</time>
      </trkpt>
      <trkpt lat="44.16573" lon="3.10451">
        <ele>497</ele>
        <time>2015-10-11T10:41:18Z</time>
      </trkpt>
      <trkpt lat="44.16581" lon="3.10449">
        <ele>499</ele>
        <time>2015-10-11T10:43:18Z</time>
      </trkpt>
      <trkpt lat="44.16589" lon="3.1045">
        <ele>501</ele>
        <time>2015-10-11T10:45:18Z</time>
      </trkpt>
      <trkpt lat="44.1659" lon="3.10452">
        <ele>501</ele>
        <time>2015-10-11T10:47:18Z</time>
      </trkpt>
      <trkpt lat="44.16593" lon="3.10457">
        <ele>502</ele>
        <time>2015-10-11T10:49:18Z</time>
      </trkpt>
      <trkpt lat="44.16608" lon="3.10473">
        <ele>506</ele>
        <time>2015-10-11T10:51:18Z</time>
      </trkpt>
      <trkpt lat="44.16611" lon="3.10475">
        <ele>507</ele>
        <time>2015-10-11T10:53:18Z</time>
      </trkpt>
      <trkpt lat="44.16619" lon="3.10479">
        <ele>509</ele>
        <time>2015-10-11T10:55:18Z</time>
      </trkpt>
      <trkpt lat="44.16624" lon="3.10481">
        <ele>511</ele>
        <time>2015-10-11T10:57:18Z</time>
      </trkpt>
      <trkpt lat="44.1663" lon="3.10486">
        <ele>512</ele>
        <time>2015-10-11T10:59:18Z</time>
      </trkpt>
      <trkpt lat="44.16636" lon="3.10502">
        <ele>514</ele>
        <time>2015-10-11T11:01:18Z</time>
      </trkpt>
      <trkpt lat="44.16637" lon="3.10503">
        <ele>514</ele>
        <time>2015-10-11T11:03:18Z</time>
      </trkpt>
      <trkpt lat="44.16644" lon="3.10516">
        <ele>516</ele>
        <time>2015-10-11T11:05:18Z</time>
      </trkpt>
      <trkpt lat="44.1665" lon="3.10533">
        <ele>518</ele>
        <time>2015-10-11T11:07:18Z</time>
      </trkpt>
      <trkpt lat="44.16653" lon="3.10547">
        <ele>519</ele>
        <time>2015-10-11T11:09:18Z</time>
      </trkpt>
      <trkpt lat="44.16654" lon="3.10563">
        <ele>519</ele>
        <time>2015-10-11T11:11:18Z</time>
      </trkpt>
      <trkpt lat="44.16656" lon="3.10581">
        <ele>519</ele>
        <time>2015-10-11T11:13:18Z</time>
      </trkpt>
      <trkpt lat="44.16659" lon="3.10597">
        <ele>520</ele>
        <time>2015-10-11T11:15:18Z</time>
      </trkpt>
      <trkpt lat="44.16662" lon="3.10612">
        <ele>521</ele>
        <time>2015-10-11T11:17:18Z</time>
      </trkpt>
      <trkpt lat="44.16668" lon="3.10648">
        <ele>523</ele>
        <time>2015-10-11T11:19:18Z</time>
      </trkpt>
      <trkpt lat="44.16671" lon="3.10661">
        <ele>524</ele>
        <time>2015-10-11T11:21:18Z</time>
      </trkpt>
      <trkpt lat="44.16674" lon="3.10675">
        <ele>524</ele>
        <time>2015-10-11T11:23:18Z</time>
      </trkpt>
      <trkpt lat="44.16675" lon="3.10682">
        <ele>524</ele>
        <time>2015-10-11T11:25:18Z</time>
      </trkpt>
      <trkpt lat="44.16679" lon="3.1069">
        <ele>524</ele>
        <time>2015-10-11T11:27:18Z</time>
      </trkpt>
      <trkpt lat="44.16689" lon="3.10703">
        <ele>525</ele>
        <time>2015-10-11T11:29:18Z</time>
      </trkpt>
      <trkpt lat="44.167" lon="3.10716">
        <ele>525</ele>
        <time>2015-10-11T11:31:18Z</time>
      </trkpt>
      <trkpt lat="44.16713" lon="3.10721">
        <ele>526</ele>
        <time>2015-10-11T11:33:18Z</time>
      </trkpt>
      <trkpt lat="44.16726" lon="3.10721">
        <ele>527</ele>
        <time>2015-10-11T11:35:18Z</time>
      </trkpt>
      <trkpt lat="44.16735" lon="3.10721">
        <ele>528</ele>
        <time>2015-10-11T11:37:18Z</time>
      </trkpt>
      <trkpt lat="44.16745" lon="3.10725">
        <ele>528</ele>
        <time>2015-10-11T11:39:18Z</time>
      </trkpt>
      <trkpt lat="44.16757" lon="3.10733">
        <ele>528</ele>
        <time>2015-10-11T11:41:18Z</time>
      </trkpt>
      <trkpt lat="44.16767" lon="3.10738">
        <ele>528</ele>
        <time>2015-10-11T11:43:18Z</time>
      </trkpt>
      <trkpt lat="44.16794" lon="3.10745">
        <ele>530</ele>
        <time>2015-10-11T11:45:18Z</time>
      </trkpt>
      <trkpt lat="44.16805" lon="3.10752">
        <ele>530</ele>
        <time>2015-10-11T11:47:18Z</time>
      </trkpt>
      <trkpt lat="44.1683" lon="3.10766">
        <ele>530</ele>
        <time>2015-10-11T11:49:18Z</time>
      </trkpt>
      <trkpt lat="44.16842" lon="3.10774">
        <ele>530</ele>
        <time>2015-10-11T11:51:18Z</time>
      </trkpt>
      <trkpt lat="44.16852" lon="3.10786">
        <ele>529</ele>
        <time>2015-10-11T11:53:18Z</time>
      </trkpt>
      <trkpt lat="44.16862" lon="3.10804">
        <ele>527</ele>
        <time>2015-10-11T11:55:18Z</time>
      </trkpt>
      <trkpt lat="44.16871" lon="3.10817">
        <ele>526</ele>
        <time>2015-10-11T11:57:18Z</time>
      </trkpt>
      <trkpt lat="44.16881" lon="3.10834">
        <ele>524</ele>
        <time>2015-10-11T11:59:18Z</time>
      </trkpt>
      <trkpt lat="44.16892" lon="3.10853">
        <ele>523</ele>
        <time>2015-10-11T12:01:18Z</time>
      </trkpt>
      <trkpt lat="44.16899" lon="3.10867">
        <ele>523</ele>
        <time>2015-10-11T12:03:18Z</time>
      </trkpt>
      <trkpt lat="44.16904" lon="3.10872">
        <ele>523</ele>
        <time>2015-10-11T12:05:18Z</time>
      </trkpt>
      <trkpt lat="44.16912" lon="3.10886">
        <ele>523</ele>
        <time>2015-10-11T12:07:18Z</time>
      </trkpt>
      <trkpt lat="44.16916" lon="3.10903">
        <ele>522</ele>
        <time>2015-10-11T12:09:18Z</time>
      </trkpt>
      <trkpt lat="44.16921" lon="3.10915">
        <ele>521</ele>
        <time>2015-10-11T12:11:18Z</time>
      </trkpt>
      <trkpt lat="44.16929" lon="3.10927">
        <ele>522</ele>
        <time>2015-10-11T12:13:18Z</time>
      </trkpt>
      <trkpt lat="44.16936" lon="3.10941">
        <ele>522</ele>
        <time>2015-10-11T12:15:18Z</time>
      </trkpt>
      <trkpt lat="44.16943" lon="3.10955">
        <ele>522</ele>
        <time>2015-10-11T12:17:18Z</time>
      </trkpt>
      <trkpt lat="44.16945" lon="3.10968">
        <ele>521</ele>
        <time>2015-10-11T12:19:18Z</time>
      </trkpt>
      <trkpt lat="44.16943" lon="3.10985">
        <ele>518</ele>
        <time>2015-10-11T12:21:18Z</time>
      </trkpt>
      <trkpt lat="44.16941" lon="3.11019">
        <ele>514</ele>
        <time>2015-10-11T12:23:18Z</time>
      </trkpt>
      <trkpt lat="44.16943" lon="3.11033">
        <ele>513</ele>
        <time>2015-10-11T12:25:18Z</time>
      </trkpt>
      <trkpt lat="44.16946" lon="3.11054">
        <ele>511</ele>
        <time>2015-10-11T12:27:18Z</time>
      </trkpt>
      <trkpt lat="44.1695" lon="3.11071">
        <ele>511</ele>
        <time>2015-10-11T12:29:18Z</time>
      </trkpt>
      <trkpt lat="44.16955" lon="3.11084">
        <ele>510</ele>
        <time>2015-10-11T12:31:18Z</time>
      </trkpt>
      <trkpt lat="44.16963" lon="3.11119">
        <ele>506</ele>
        <time>2015-10-11T12:33:18Z</time>
      </trkpt>
      <trkpt lat="44.16971" lon="3.11132">
        <ele>506</ele>
        <time>2015-10-11T12:35:18Z</time>
      </trkpt>
      <trkpt lat="44.16982" lon="3.11141">
        <ele>508</ele>
        <time>2015-10-11T12:37:18Z</time>
      </trkpt>
      <trkpt lat="44.16989" lon="3.11149">
        <ele>508</ele>
        <time>2015-10-11T12:39:18Z</time>
      </trkpt>
      <trkpt lat="44.16996" lon="3.11162">
        <ele>508</ele>
        <time>2015-10-11T12:41:18Z</time>
      </trkpt>
      <trkpt lat="44.17004" lon="3.11178">
        <ele>506</ele>
        <time>2015-10-11T12:43:18Z</time>
      </trkpt>
      <trkpt lat="44.17012" lon="3.11194">
        <ele>504</ele>
        <time>2015-10-11T12:45:18Z</time>
      </trkpt>
      <trkpt lat="44.17016" lon="3.11203">
        <ele>503</ele>
        <time>2015-10-11T12:47:18Z</time>
      </trkpt>
      <trkpt lat="44.17024" lon="3.11215">
        <ele>501</ele>
        <time>2015-10-11T12:49:18Z</time>
      </trkpt>
      <trkpt lat="44.17029" lon="3.11226">
        <ele>500</ele>
        <time>2015-10-11T12:51:18Z</time>
      </trkpt>
      <trkpt lat="44.17038" lon="3.11239">
        <ele>499</ele>
        <time>2015-10-11T12:53:18Z</time>
      </trkpt>
      <trkpt lat="44.17049" lon="3.11252">
        <ele>498</ele>
        <time>2015-10-11T12:55:18Z</time>
      </trkpt>
      <trkpt lat="44.17063" lon="3.11263">
        <ele>499</ele>
        <time>2015-10-11T12:57:18Z</time>
      </trkpt>
      <trkpt lat="44.17077" lon="3.11276">
        <ele>499</ele>
        <time>2015-10-11T12:59:18Z</time>
      </trkpt>
      <trkpt lat="44.17086" lon="3.11284">
        <ele>499</ele>
        <time>2015-10-11T13:01:18Z</time>
      </trkpt>
      <trkpt lat="44.17101" lon="3.11292">
        <ele>498</ele>
        <time>2015-10-11T13:03:18Z</time>
      </trkpt>
      <trkpt lat="44.17114" lon="3.11302">
        <ele>496</ele>
        <time>2015-10-11T13:05:18Z</time>
      </trkpt>
      <trkpt lat="44.17124" lon="3.11318">
        <ele>493</ele>
        <time>2015-10-11T13:07:18Z</time>
      </trkpt>
      <trkpt lat="44.17133" lon="3.11328">
        <ele>491</ele>
        <time>2015-10-11T13:09:18Z</time>
      </trkpt>
      <trkpt lat="44.17135" lon="3.1133">
        <ele>491</ele>
        <time>2015-10-11T13:11:18Z</time>
      </trkpt>
      <trkpt lat="44.17144" lon="3.11337">
        <ele>490</ele>
        <time>2015-10-11T13:13:18Z</time>
      </trkpt>
      <trkpt lat="44.17156" lon="3.1135">
        <ele>489</ele>
        <time>2015-10-11T13:15:18Z</time>
      </trkpt>
      <trkpt lat="44.17169" lon="3.11356">
        <ele>489</ele>
        <time>2015-10-11T13:17:18Z</time>
      </trkpt>
      <trkpt lat="44.17177" lon="3.1136">
        <ele>490</ele>
        <time>2015-10-11T13:19:18Z</time>
      </trkpt>
      <trkpt lat="44.17189" lon="3.11363">
        <ele>492</ele>
        <time>2015-10-11T13:21:18Z</time>
      </trkpt>
      <trkpt lat="44.17193" lon="3.11367">
        <ele>492</ele>
        <time>2015-10-11T13:23:18Z</time>
      </trkpt>
      <trkpt lat="44.17189" lon="3.11383">
        <ele>490</ele>
        <time>2015-10-11T13:25:18Z</time>
      </trkpt>
      <trkpt lat="44.17181" lon="3.11394">
        <ele>487</ele>
        <time>2015-10-11T13:27:18Z</time>
      </trkpt>
      <trkpt lat="44.17178" lon="3.114">
        <ele>486</ele>
        <time>2015-10-11T13:29:18Z</time>
      </trkpt>
      <trkpt lat="44.17174" lon="3.11405">
        <ele>485</ele>
        <time>2015-10-11T13:31:18Z</time>
      </trkpt>
      <trkpt lat="44.17167" lon="3.11419">
        <ele>482</ele>
        <time>2015-10-11T13:33:18Z</time>
      </trkpt>
      <trkpt lat="44.17164" lon="3.11432">
        <ele>480</ele>
        <time>2015-10-11T13:35:18Z</time>
      </trkpt>
      <trkpt lat="44.17164" lon="3.11453">
        <ele>478</ele>
        <time>2015-10-11T13:37:18Z</time>
      </trkpt>
      <trkpt lat="44.17164" lon="3.1147">
        <ele>476</ele>
        <time>2015-10-11T13:39:18Z</time>
      </trkpt>
      <trkpt lat="44.17159" lon="3.1149">
        <ele>473</ele>
        <time>2015-10-11T13:41:18Z</time>
      </trkpt>
      <trkpt lat="44.17163" lon="3.11505">
        <ele>472</ele>
        <time>2015-10-11T13:43:18Z</time>
      </trkpt>
      <trkpt lat="44.17168" lon="3.11515">
        <ele>472</ele>
        <time>2015-10-11T13:45:18Z</time>
      </trkpt>
      <trkpt lat="44.17173" lon="3.11531">
        <ele>472</ele>
        <time>2015-10-11T13:47:18Z</time>
      </trkpt>
      <trkpt lat="44.17178" lon="3.11549">
        <ele>472</ele>
        <time>2015-10-11T13:49:18Z</time>
      </trkpt>
      <trkpt lat="44.17183" lon="3.11562">
        <ele>473</ele>
        <time>2015-10-11T13:51:18Z</time>
      </trkpt>
      <trkpt lat="44.17189" lon="3.11575">
        <ele>473</ele>
        <time>2015-10-11T13:53:18Z</time>
      </trkpt>
      <trkpt lat="44.17196" lon="3.11586">
        <ele>474</ele>
        <time>2015-10-11T13:55:18Z</time>
      </trkpt>
      <trkpt lat="44.17205" lon="3.116">
        <ele>476</ele>
        <time>2015-10-11T13:57:18Z</time>
      </trkpt>
      <trkpt lat="44.1721" lon="3.11605">
        <ele>477</ele>
        <time>2015-10-11T13:59:18Z</time>
      </trkpt>
      <trkpt lat="44.17218" lon="3.11613">
        <ele>479</ele>
        <time>2015-10-11T14:01:18Z</time>
      </trkpt>
      <trkpt lat="44.17222" lon="3.11617">
        <ele>481</ele>
        <time>2015-10-11T14:03:18Z</time>
      </trkpt>
      <trkpt lat="44.17232" lon="3.1162">
        <ele>483</ele>
        <time>2015-10-11T14:05:18Z</time>
      </trkpt>
      <trkpt lat="44.1724" lon="3.11624">
        <ele>485</ele>
        <time>2015-10-11T14:07:18Z</time>
      </trkpt>
      <trkpt lat="44.17251" lon="3.11626">
        <ele>488</ele>
        <time>2015-10-11T14:09:18Z</time>
      </trkpt>
      <trkpt lat="44.17252" lon="3.11626">
        <ele>489</ele>
        <time>2015-10-11T14:11:18Z</time>
      </trkpt>
      <trkpt lat="44.1726" lon="3.11633">
        <ele>492</ele>
        <time>2015-10-11T14:13:18Z</time>
      </trkpt>
      <trkpt lat="44.17261" lon="3.11643">
        <ele>493</ele>
        <time>2015-10-11T14:15:18Z</time>
      </trkpt>
      <trkpt lat="44.17259" lon="3.11649">
        <ele>492</ele>
        <time>2015-10-11T14:17:18Z</time>
      </trkpt>
      <trkpt lat="44.17257" lon="3.11663">
        <ele>492</ele>
        <time>2015-10-11T14:19:18Z</time>
      </trkpt>
      <trkpt lat="44.17254" lon="3.1167">
        <ele>491</ele>
        <time>2015-10-11T14:21:18Z</time>
      </trkpt>
      <trkpt lat="44.17252" lon="3.11686">
        <ele>490</ele>
        <time>2015-10-11T14:23:18Z</time>
      </trkpt>
      <trkpt lat="44.17251" lon="3.11697">
        <ele>490</ele>
        <time>2015-10-11T14:25:18Z</time>
      </trkpt>
      <trkpt lat="44.17251" lon="3.117">
        <ele>490</ele>
        <time>2015-10-11T14:27:18Z</time>
      </trkpt>
      <trkpt lat="44.17255" lon="3.11719">
        <ele>491</ele>
        <time>2015-10-11T14:29:18Z</time>
      </trkpt>
      <trkpt lat="44.17255" lon="3.11721">
        <ele>491</ele>
        <time>2015-10-11T14:31:18Z</time>
      </trkpt>
      <trkpt lat="44.17262" lon="3.11751">
        <ele>493</ele>
        <time>2015-10-11T14:33:18Z</time>
      </trkpt>
      <trkpt lat="44.17265" lon="3.11763">
        <ele>493</ele>
        <time>2015-10-11T14:35:18Z</time>
      </trkpt>
      <trkpt lat="44.17272" lon="3.11782">
        <ele>493</ele>
        <time>2015-10-11T14:37:18Z</time>
      </trkpt>
      <trkpt lat="44.17278" lon="3.11794">
        <ele>493</ele>
        <time>2015-10-11T14:39:18Z</time>
      </trkpt>
      <trkpt lat="44.17287" lon="3.1181">
        <ele>494</ele>
        <time>2015-10-11T14:41:18Z</time>
      </trkpt>
      <trkpt lat="44.17296" lon="3.11825">
        <ele>494</ele>
        <time>2015-10-11T14:43:18Z</time>
      </trkpt>
      <trkpt lat="44.17301" lon="3.11834">
        <ele>494</ele>
        <time>2015-10-11T14:45:18Z</time>
      </trkpt>
      <trkpt lat="44.17309" lon="3.11846">
        <ele>495</ele>
        <time>2015-10-11T14:47:18Z</time>
      </trkpt>
      <trkpt lat="44.17318" lon="3.1186">
        <ele>496</ele>
        <time>2015-10-11T14:49:18Z</time>
      </trkpt>
      <trkpt lat="44.17324" lon="3.11877">
        <ele>495</ele>
        <time>2015-10-11T14:51:18Z</time>
      </trkpt>
      <trkpt lat="44.17328" lon="3.11892">
        <ele>494</ele>
        <time>2015-10-11T14:53:18Z</time>
      </trkpt>
      <trkpt lat="44.17333" lon="3.11911">
        <ele>492</ele>
        <time>2015-10-11T14:55:18Z</time>
      </trkpt>
      <trkpt lat="44.17337" lon="3.11922">
        <ele>491</ele>
        <time>2015-10-11T14:57:18Z</time>
      </trkpt>
      <trkpt lat="44.17343" lon="3.11943">
        <ele>490</ele>
        <time>2015-10-11T14:59:18Z</time>
      </trkpt>
      <trkpt lat="44.17341" lon="3.11956">
        <ele>489</ele>
        <time>2015-10-11T15:01:18Z</time>
      </trkpt>
      <trkpt lat="44.17337" lon="3.11965">
        <ele>488</ele>
        <time>2015-10-11T15:03:18Z</time>
      </trkpt>
      <trkpt lat="44.17335" lon="3.11987">
        <ele>487</ele>
        <time>2015-10-11T15:05:18Z</time>
      </trkpt>
      <trkpt lat="44.17328" lon="3.12001">
        <ele>486</ele>
        <time>2015-10-11T15:07:18Z</time>
      </trkpt>
      <trkpt lat="44.17317" lon="3.12018">
        <ele>485</ele>
        <time>2015-10-11T15:09:18Z</time>
      </trkpt>
      <trkpt lat="44.17308" lon="3.12036">
        <ele>484</ele>
        <time>2015-10-11T15:11:18Z</time>
      </trkpt>
      <trkpt lat="44.17301" lon="3.12057">
        <ele>483</ele>
        <time>2015-10-11T15:13:18Z</time>
      </trkpt>
      <trkpt lat="44.17295" lon="3.12068">
        <ele>483</ele>
        <time>2015-10-11T15:15:18Z</time>
      </trkpt>
      <trkpt lat="44.17285" lon="3.12081">
        <ele>482</ele>
        <time>2015-10-11T15:17:18Z</time>
      </trkpt>
      <trkpt lat="44.17275" lon="3.12084">
        <ele>482</ele>
        <time>2015-10-11T15:19:18Z</time>
      </trkpt>
      <trkpt lat="44.17273" lon="3.12085">
        <ele>482</ele>
        <time>2015-10-11T15:21:18Z</time>
      </trkpt>
      <trkpt lat="44.17272" lon="3.12102">
        <ele>479</ele>
        <time>2015-10-11T15:23:18Z</time>
      </trkpt>
      <trkpt lat="44.1728" lon="3.12113">
        <ele>478</ele>
        <time>2015-10-11T15:25:18Z</time>
      </trkpt>
      <trkpt lat="44.17289" lon="3.12124">
        <ele>477</ele>
        <time>2015-10-11T15:27:18Z</time>
      </trkpt>
      <trkpt lat="44.173" lon="3.12135">
        <ele>476</ele>
        <time>2015-10-11T15:29:18Z</time>
      </trkpt>
      <trkpt lat="44.17306" lon="3.12144">
        <ele>475</ele>
        <time>2015-10-11T15:31:18Z</time>
      </trkpt>
      <trkpt lat="44.17318" lon="3.12146">
        <ele>476</ele>
        <time>2015-10-11T15:33:18Z</time>
      </trkpt>
      <trkpt lat="44.17326" lon="3.12146">
        <ele>476</ele>
        <time>2015-10-11T15:35:18Z</time>
      </trkpt>
      <trkpt lat="44.17345" lon="3.12154">
        <ele>475</ele>
        <time>2015-10-11T15:37:18Z</time>
      </trkpt>
      <trkpt lat="44.17357" lon="3.12145">
        <ele>475</ele>
        <time>2015-10-11T15:39:18Z</time>
      </trkpt>
      <trkpt lat="44.17368" lon="3.1214">
        <ele>474</ele>
        <time>2015-10-11T15:41:18Z</time>
      </trkpt>
      <trkpt lat="44.17374" lon="3.12139">
        <ele>474</ele>
        <time>2015-10-11T15:43:18Z</time>
      </trkpt>
      <trkpt lat="44.17387" lon="3.12133">
        <ele>473</ele>
        <time>2015-10-11T15:45:18Z</time>
      </trkpt>
      <trkpt lat="44.17399" lon="3.12129">
        <ele>472</ele>
        <time>2015-10-11T15:47:18Z</time>
      </trkpt>
      <trkpt lat="44.17406" lon="3.12124">
        <ele>472</ele>
        <time>2015-10-11T15:49:18Z</time>
      </trkpt>
      <trkpt lat="44.17421" lon="3.1212">
        <ele>471</ele>
        <time>2015-10-11T15:51:18Z</time>
      </trkpt>
      <trkpt lat="44.17432" lon="3.12119">
        <ele>469</ele>
        <time>2015-10-11T15:53:18Z</time>
      </trkpt>
      <trkpt lat="44.17435" lon="3.12118">
        <ele>468</ele>
        <time>2015-10-11T15:55:18Z</time>
      </trkpt>
      <trkpt lat="44.17449" lon="3.12108">
        <ele>467</ele>
        <time>2015-10-11T15:57:18Z</time>
      </trkpt>
      <trkpt lat="44.17463" lon="3.12103">
        <ele>466</ele>
        <time>2015-10-11T15:59:18Z</time>
      </trkpt>
      <trkpt lat="44.17477" lon="3.12103">
        <ele>463</ele>
        <time>2015-10-11T16:01:18Z</time>
      </trkpt>
      <trkpt lat="44.17491" lon="3.12104">
        <ele>461</ele>
        <time>2015-10-11T16:03:18Z</time>
      </trkpt>
      <trkpt lat="44.17507" lon="3.12106">
        <ele>459</ele>
        <time>2015-10-11T16:05:18Z</time>
      </trkpt>
      <trkpt lat="44.1752" lon="3.1211">
        <ele>458</ele>
        <time>2015-10-11T16:07:18Z</time>
      </trkpt>
      <trkpt lat="44.17532" lon="3.12111">
        <ele>457</ele>
        <time>2015-10-11T16:09:18Z</time>
      </trkpt>
      <trkpt lat="44.17545" lon="3.12112">
        <ele>456</ele>
        <time>2015-10-11T16:11:18Z</time>
      </trkpt>
      <trkpt lat="44.1756" lon="3.12109">
        <ele>456</ele>
        <time>2015-10-11T16:13:18Z</time>
      </trkpt>
      <trkpt lat="44.17564" lon="3.12107">
        <ele>457</ele>
        <time>2015-10-11T16:15:18Z</time>
      </trkpt>
      <trkpt lat="44.17573" lon="3.12101">
        <ele>457</ele>
        <time>2015-10-11T16:17:18Z</time>
      </trkpt>
      <trkpt lat="44.17581" lon="3.12098">
        <ele>458</ele>
        <time>2015-10-11T16:19:18Z</time>
      </trkpt>
      <trkpt lat="44.17584" lon="3.12098">
        <ele>458</ele>
        <time>2015-10-11T16:21:18Z</time>
      </trkpt>
      <trkpt lat="44.17594" lon="3.12098">
        <ele>458</ele>
        <time>2015-10-11T16:23:18Z</time>
      </trkpt>
      <trkpt lat="44.17597" lon="3.12098">
        <ele>458</ele>
        <time>2015-10-11T16:25:18Z</time>
      </trkpt>
      <trkpt lat="44.17606" lon="3.12097">
        <ele>458</ele>
        <time>2015-10-11T16:27:18Z</time>
      </trkpt>
      <trkpt lat="44.17613" lon="3.12096">
        <ele>459</ele>
        <time>2015-10-11T16:29:18Z</time>
      </trkpt>
      <trkpt lat="44.17624" lon="3.12091">
        <ele>460</ele>
        <time>2015-10-11T16:31:18Z</time>
      </trkpt>
      <trkpt lat="44.17634" lon="3.12087">
        <ele>460</ele>
        <time>2015-10-11T16:33:18Z</time>
      </trkpt>
      <trkpt lat="44.17644" lon="3.12082">
        <ele>461</ele>
        <time>2015-10-11T16:35:18Z</time>
      </trkpt>
      <trkpt lat="44.17655" lon="3.12074">
        <ele>463</ele>
        <time>2015-10-11T16:37:18Z</time>
      </trkpt>
      <trkpt lat="44.17669" lon="3.12067">
        <ele>464</ele>
        <time>2015-10-11T16:39:18Z</time>
      </trkpt>
      <trkpt lat="44.17681" lon="3.12065">
        <ele>465</ele>
        <time>2015-10-11T16:41:18Z</time>
      </trkpt>
      <trkpt lat="44.17696" lon="3.12065">
        <ele>466</ele>
        <time>2015-10-11T16:43:18Z</time>
      </trkpt>
      <trkpt lat="44.17708" lon="3.12068">
        <ele>467</ele>
        <time>2015-10-11T16:45:18Z</time>
      </trkpt>
      <trkpt lat="44.17717" lon="3.12071">
        <ele>467</ele>
        <time>2015-10-11T16:47:18Z</time>
      </trkpt>
      <trkpt lat="44.17727" lon="3.12072">
        <ele>468</ele>
        <time>2015-10-11T16:49:18Z</time>
      </trkpt>
      <trkpt lat="44.17736" lon="3.12074">
        <ele>468</ele>
        <time>2015-10-11T16:51:18Z</time>
      </trkpt>
      <trkpt lat="44.17744" lon="3.12075">
        <ele>469</ele>
        <time>2015-10-11T16:53:18Z</time>
      </trkpt>
      <trkpt lat="44.17751" lon="3.12076">
        <ele>469</ele>
        <time>2015-10-11T16:55:18Z</time>
      </trkpt>
      <trkpt lat="44.17763" lon="3.12078">
        <ele>471</ele>
        <time>2015-10-11T16:57:18Z</time>
      </trkpt>
      <trkpt lat="44.17772" lon="3.1208">
        <ele>472</ele>
        <time>2015-10-11T16:59:18Z</time>
      </trkpt>
      <trkpt lat="44.17782" lon="3.12081">
        <ele>473</ele>
        <time>2015-10-11T17:01:18Z</time>
      </trkpt>
      <trkpt lat="44.17791" lon="3.12082">
        <ele>474</ele>
        <time>2015-10-11T17:03:18Z</time>
      </trkpt>
      <trkpt lat="44.17798" lon="3.12082">
        <ele>475</ele>
        <time>2015-10-11T17:05:18Z</time>
      </trkpt>
      <trkpt lat="44.17816" lon="3.12084">
        <ele>477</ele>
        <time>2015-10-11T17:07:18Z</time>
      </trkpt>
      <trkpt lat="44.17829" lon="3.12084">
        <ele>479</ele>
        <time>2015-10-11T17:09:18Z</time>
      </trkpt>
      <trkpt lat="44.17838" lon="3.12087">
        <ele>481</ele>
        <time>2015-10-11T17:11:18Z</time>
      </trkpt>
      <trkpt lat="44.17847" lon="3.1209">
        <ele>482</ele>
        <time>2015-10-11T17:13:18Z</time>
      </trkpt>
      <trkpt lat="44.17856" lon="3.12093">
        <ele>484</ele>
        <time>2015-10-11T17:15:18Z</time>
      </trkpt>
      <trkpt lat="44.17862" lon="3.12094">
        <ele>485</ele>
        <time>2015-10-11T17:17:18Z</time>
      </trkpt>
      <trkpt lat="44.17872" lon="3.12097">
        <ele>487</ele>
        <time>2015-10-11T17:19:18Z</time>
      </trkpt>
      <trkpt lat="44.17878" lon="3.12102">
        <ele>488</ele>
        <time>2015-10-11T17:21:18Z</time>
      </trkpt>
      <trkpt lat="44.17879" lon="3.12104">
        <ele>488</ele>
        <time>2015-10-11T17:23:18Z</time>
      </trkpt>
      <trkpt lat="44.17889" lon="3.12114">
        <ele>489</ele>
        <time>2015-10-11T17:25:18Z</time>
      </trkpt>
      <trkpt lat="44.17895" lon="3.1212">
        <ele>489</ele>
        <time>2015-10-11T17:27:18Z</time>
      </trkpt>
      <trkpt lat="44.17902" lon="3.12128">
        <ele>489</ele>
        <time>2015-10-11T17:29:18Z</time>
      </trkpt>
      <trkpt lat="44.17911" lon="3.12129">
        <ele>491</ele>
        <time>2015-10-11T17:31:18Z</time>
      </trkpt>
      <trkpt lat="44.17917" lon="3.1213">
        <ele>492</ele>
        <time>2015-10-11T17:33:18Z</time>
      </trkpt>
      <trkpt lat="44.17919" lon="3.12131">
        <ele>492</ele>
        <time>2015-10-11T17:35:18Z</time>
      </trkpt>
      <trkpt lat="44.17926" lon="3.12134">
        <ele>492</ele>
        <time>2015-10-11T17:37:18Z</time>
      </trkpt>
      <trkpt lat="44.17932" lon="3.12135">
        <ele>493</ele>
        <time>2015-10-11T17:39:18Z</time>
      </trkpt>
      <trkpt lat="44.17945" lon="3.12131">
        <ele>494</ele>
        <time>2015-10-11T17:41:18Z</time>
      </trkpt>
      <trkpt lat="44.17954" lon="3.12127">
        <ele>496</ele>
        <time>2015-10-11T17:43:18Z</time>
      </trkpt>
      <trkpt lat="44.17962" lon="3.12127">
        <ele>497</ele>
        <time>2015-10-11T17:45:18Z</time>
      </trkpt>
      <trkpt lat="44.17964" lon="3.12127">
        <ele>497</ele>
        <time>2015-10-11T17:47:18Z</time>
      </trkpt>
      <trkpt lat="44.17975" lon="3.12126">
        <ele>498</ele>
        <time>2015-10-11T17:49:18Z</time>
      </trkpt>
      <trkpt lat="44.17977" lon="3.12126">
        <ele>498</ele>
        <time>2015-10-11T17:51:18Z</time>
      </trkpt>
      <trkpt lat="44.17987" lon="3.12124">
        <ele>500</ele>
        <time>2015-10-11T17:53:18Z</time>
      </trkpt>
      <trkpt lat="44.18001" lon="3.12122">
        <ele>501</ele>
        <time>2015-10-11T17:55:18Z</time>
      </trkpt>
      <trkpt lat="44.18004" lon="3.12122">
        <ele>501</ele>
        <time>2015-10-11T17:57:18Z</time>
      </trkpt>
      <trkpt lat="44.18015" lon="3.12116">
        <ele>502</ele>
        <time>2015-10-11T17:59:18Z</time>
      </trkpt>
      <trkpt lat="44.18025" lon="3.12116">
        <ele>502</ele>
        <time>2015-10-11T18:01:18Z</time>
      </trkpt>
      <trkpt lat="44.18033" lon="3.12125">
        <ele>500</ele>
        <time>2015-10-11T18:03:18Z</time>
      </trkpt>
      <trkpt lat="44.18038" lon="3.12135">
        <ele>499</ele>
        <time>2015-10-11T18:05:18Z</time>
      </trkpt>
      <trkpt lat="44.1805" lon="3.12141">
        <ele>498</ele>
        <time>2015-10-11T18:07:18Z</time>
      </trkpt>
      <trkpt lat="44.18062" lon="3.1215">
        <ele>496</ele>
        <time>2015-10-11T18:09:18Z</time>
      </trkpt>
      <trkpt lat="44.18069" lon="3.12155">
        <ele>495</ele>
        <time>2015-10-11T18:11:18Z</time>
      </trkpt>
      <trkpt lat="44.18078" lon="3.12169">
        <ele>493</ele>
        <time>2015-10-11T18:13:18Z</time>
      </trkpt>
      <trkpt lat="44.18085" lon="3.12177">
        <ele>491</ele>
        <time>2015-10-11T18:15:18Z</time>
      </trkpt>
      <trkpt lat="44.18095" lon="3.1218">
        <ele>491</ele>
        <time>2015-10-11T18:17:18Z</time>
      </trkpt>
      <trkpt lat="44.18107" lon="3.12184">
        <ele>490</ele>
        <time>2015-10-11T18:19:18Z</time>
      </trkpt>
      <trkpt lat="44.18118" lon="3.1219">
        <ele>489</ele>
        <time>2015-10-11T18:21:18Z</time>
      </trkpt>
      <trkpt lat="44.18127" lon="3.12191">
        <ele>489</ele>
        <time>2015-10-11T18:23:18Z</time>
      </trkpt>
      <trkpt lat="44.18141" lon="3.12189">
        <ele>490</ele>
        <time>2015-10-11T18:25:18Z</time>
      </trkpt>
      <trkpt lat="44.18154" lon="3.12188">
        <ele>491</ele>
        <time>2015-10-11T18:27:18Z</time>
      </trkpt>
      <trkpt lat="44.18165" lon="3.12187">
        <ele>492</ele>
        <time>2015-10-11T18:29:18Z</time>
      </trkpt>
      <trkpt lat="44.1817" lon="3.12187">
        <ele>492</ele>
        <time>2015-10-11T18:31:18Z</time>
      </trkpt>
      <trkpt lat="44.18183" lon="3.12191">
        <ele>493</ele>
        <time>2015-10-11T18:33:18Z</time>
      </trkpt>
      <trkpt lat="44.18197" lon="3.12199">
        <ele>492</ele>
        <time>2015-10-11T18:35:18Z</time>
      </trkpt>
      <trkpt lat="44.18205" lon="3.12208">
        <ele>490</ele>
        <time>2015-10-11T18:37:18Z</time>
      </trkpt>
      <trkpt lat="44.1821" lon="3.12211">
        <ele>490</ele>
        <time>2015-10-11T18:39:18Z</time>
      </trkpt>
      <trkpt lat="44.18224" lon="3.12227">
        <ele>487</ele>
        <time>2015-10-11T18:41:18Z</time>
      </trkpt>
      <trkpt lat="44.18261" lon="3.12262">
        <ele>482</ele>
        <time>2015-10-11T18:43:18Z</time>
      </trkpt>
      <trkpt lat="44.18271" lon="3.12278">
        <ele>480</ele>
        <time>2015-10-11T18:45:18Z</time>
      </trkpt>
      <trkpt lat="44.18281" lon="3.12294">
        <ele>477</ele>
        <time>2015-10-11T18:47:18Z</time>
      </trkpt>
      <trkpt lat="44.18292" lon="3.12305">
        <ele>476</ele>
        <time>2015-10-11T18:49:18Z</time>
      </trkpt>
      <trkpt lat="44.18304" lon="3.12311">
        <ele>475</ele>
        <time>2015-10-11T18:51:18Z</time>
      </trkpt>
      <trkpt lat="44.1831" lon="3.12316">
        <ele>474</ele>
        <time>2015-10-11T18:53:18Z</time>
      </trkpt>
      <trkpt lat="44.18321" lon="3.12321">
        <ele>474</ele>
        <time>2015-10-11T18:55:18Z</time>
      </trkpt>
      <trkpt lat="44.18332" lon="3.12326">
        <ele>473</ele>
        <time>2015-10-11T18:57:18Z</time>
      </trkpt>
      <trkpt lat="44.18345" lon="3.12333">
        <ele>473</ele>
        <time>2015-10-11T18:59:18Z</time>
      </trkpt>
      <trkpt lat="44.18354" lon="3.12341">
        <ele>472</ele>
        <time>2015-10-11T19:01:18Z</time>
      </trkpt>
      <trkpt lat="44.18365" lon="3.1235">
        <ele>471</ele>
        <time>2015-10-11T19:03:18Z</time>
      </trkpt>
      <trkpt lat="44.18373" lon="3.12359">
        <ele>470</ele>
        <time>2015-10-11T19:05:18Z</time>
      </trkpt>
      <trkpt lat="44.18383" lon="3.12369">
        <ele>468</ele>
        <time>2015-10-11T19:07:18Z</time>
      </trkpt>
      <trkpt lat="44.18395" lon="3.12377">
        <ele>467</ele>
        <time>2015-10-11T19:09:18Z</time>
      </trkpt>
      <trkpt lat="44.18407" lon="3.12385">
        <ele>467</ele>
        <time>2015-10-11T19:11:18Z</time>
      </trkpt>
      <trkpt lat="44.18419" lon="3.12392">
        <ele>467</ele>
        <time>2015-10-11T19:13:18Z</time>
      </trkpt>
      <trkpt lat="44.1843" lon="3.12397">
        <ele>467</ele>
        <time>2015-10-11T19:15:18Z</time>
      </trkpt>
      <trkpt lat="44.18442" lon="3.12406">
        <ele>467</ele>
        <time>2015-10-11T19:17:18Z</time>
      </trkpt>
      <trkpt lat="44.18454" lon="3.12421">
        <ele>464</ele>
        <time>2015-10-11T19:19:18Z</time>
      </trkpt>
      <trkpt lat="44.18464" lon="3.12433">
        <ele>462</ele>
        <time>2015-10-11T19:21:18Z</time>
      </trkpt>
      <trkpt lat="44.18473" lon="3.1244">
        <ele>461</ele>
        <time>2015-10-11T19:23:18Z</time>
      </trkpt>
      <trkpt lat="44.18483" lon="3.12448">
        <ele>460</ele>
        <time>2015-10-11T19:25:18Z</time>
      </trkpt>
      <trkpt lat="44.18496" lon="3.12453">
        <ele>461</ele>
        <time>2015-10-11T19:27:18Z</time>
      </trkpt>
      <trkpt lat="44.18511" lon="3.12459">
        <ele>461</ele>
        <time>2015-10-11T19:29:18Z</time>
      </trkpt>
      <trkpt lat="44.18524" lon="3.12465">
        <ele>460</ele>
        <time>2015-10-11T19:31:18Z</time>
      </trkpt>
      <trkpt lat="44.18535" lon="3.12471">
        <ele>460</ele>
        <time>2015-10-11T19:33:18Z</time>
      </trkpt>
      <trkpt lat="44.18545" lon="3.12477">
        <ele>459</ele>
        <time>2015-10-11T19:35:18Z</time>
      </trkpt>
      <trkpt lat="44.18558" lon="3.12487">
        <ele>457</ele>
        <time>2015-10-11T19:37:18Z</time>
      </trkpt>
      <trkpt lat="44.18568" lon="3.12495">
        <ele>455</ele>
        <time>2015-10-11T19:39:18Z</time>
      </trkpt>
      <trkpt lat="44.1858" lon="3.12505">
        <ele>452</ele>
        <time>2015-10-11T19:41:18Z</time>
      </trkpt>
      <trkpt lat="44.18595" lon="3.1251">
        <ele>451</ele>
        <time>2015-10-11T19:43:18Z</time>
      </trkpt>
      <trkpt lat="44.18607" lon="3.12511">
        <ele>451</ele>
        <time>2015-10-11T19:45:18Z</time>
      </trkpt>
      <trkpt lat="44.18627" lon="3.12507">
        <ele>454</ele>
        <time>2015-10-11T19:47:18Z</time>
      </trkpt>
      <trkpt lat="44.18639" lon="3.12516">
        <ele>450</ele>
        <time>2015-10-11T19:49:18Z</time>
      </trkpt>
      <trkpt lat="44.18653" lon="3.12525">
        <ele>447</ele>
        <time>2015-10-11T19:51:18Z</time>
      </trkpt>
      <trkpt lat="44.18664" lon="3.1253">
        <ele>446</ele>
        <time>2015-10-11T19:53:18Z</time>
      </trkpt>
      <trkpt lat="44.1868" lon="3.12537">
        <ele>443</ele>
        <time>2015-10-11T19:55:18Z</time>
      </trkpt>
      <trkpt lat="44.18691" lon="3.12543">
        <ele>440</ele>
        <time>2015-10-11T19:57:18Z</time>
      </trkpt>
      <trkpt lat="44.18703" lon="3.1255">
        <ele>437</ele>
        <time>2015-10-11T19:59:18Z</time>
      </trkpt>
      <trkpt lat="44.18714" lon="3.12556">
        <ele>434</ele>
        <time>2015-10-11T20:01:18Z</time>
      </trkpt>
      <trkpt lat="44.18729" lon="3.12563">
        <ele>431</ele>
        <time>2015-10-11T20:03:18Z</time>
      </trkpt>
      <trkpt lat="44.18746" lon="3.12559">
        <ele>432</ele>
        <time>2015-10-11T20:05:18Z</time>
      </trkpt>
      <trkpt lat="44.18759" lon="3.1255">
        <ele>434</ele>
        <time>2015-10-11T20:07:18Z</time>
      </trkpt>
      <trkpt lat="44.18788" lon="3.12531">
        <ele>435</ele>
        <time>2015-10-11T20:09:18Z</time>
      </trkpt>
      <trkpt lat="44.188" lon="3.12525">
        <ele>434</ele>
        <time>2015-10-11T20:11:18Z</time>
      </trkpt>
      <trkpt lat="44.18816" lon="3.12518">
        <ele>433</ele>
        <time>2015-10-11T20:13:18Z</time>
      </trkpt>
      <trkpt lat="44.18831" lon="3.12507">
        <ele>432</ele>
        <time>2015-10-11T20:15:18Z</time>
      </trkpt>
      <trkpt lat="44.18842" lon="3.12494">
        <ele>433</ele>
        <time>2015-10-11T20:17:18Z</time>
      </trkpt>
      <trkpt lat="44.1885" lon="3.12484">
        <ele>435</ele>
        <time>2015-10-11T20:19:18Z</time>
      </trkpt>
      <trkpt lat="44.18861" lon="3.12471">
        <ele>437</ele>
        <time>2015-10-11T20:21:18Z</time>
      </trkpt>
      <trkpt lat="44.18871" lon="3.12462">
        <ele>437</ele>
        <time>2015-10-11T20:23:18Z</time>
      </trkpt>
      <trkpt lat="44.18878" lon="3.1246">
        <ele>437</ele>
        <time>2015-10-11T20:25:18Z</time>
      </trkpt>
      <trkpt lat="44.18892" lon="3.12458">
        <ele>435</ele>
        <time>2015-10-11T20:27:18Z</time>
      </trkpt>
      <trkpt lat="44.18903" lon="3.12455">
        <ele>434</ele>
        <time>2015-10-11T20:29:18Z</time>
      </trkpt>
      <trkpt lat="44.18917" lon="3.12454">
        <ele>432</ele>
        <time>2015-10-11T20:31:18Z</time>
      </trkpt>
      <trkpt lat="44.18923" lon="3.12458">
        <ele>432</ele>
        <time>2015-10-11T20:33:18Z</time>
      </trkpt>
      <trkpt lat="44.18933" lon="3.12472">
        <ele>430</ele>
        <time>2015-10-11T20:35:18Z</time>
      </trkpt>
      <trkpt lat="44.18934" lon="3.12486">
        <ele>427</ele>
        <time>2015-10-11T20:37:18Z</time>
      </trkpt>
      <trkpt lat="44.18928" lon="3.12506">
        <ele>424</ele>
        <time>2015-10-11T20:39:18Z</time>
      </trkpt>
      <trkpt lat="44.18922" lon="3.12527">
        <ele>422</ele>
        <time>2015-10-11T20:41:18Z</time>
      </trkpt>
      <trkpt lat="44.18913" lon="3.12546">
        <ele>421</ele>
        <time>2015-10-11T20:43:18Z</time>
      </trkpt>
      <trkpt lat="44.18904" lon="3.12561">
        <ele>420</ele>
        <time>2015-10-11T20:45:18Z</time>
      </trkpt>
      <trkpt lat="44.1889" lon="3.12581">
        <ele>417</ele>
        <time>2015-10-11T20:47:18Z</time>
      </trkpt>
      <trkpt lat="44.1888" lon="3.12594">
        <ele>416</ele>
        <time>2015-10-11T20:49:18Z</time>
      </trkpt>
      <trkpt lat="44.18872" lon="3.12603">
        <ele>415</ele>
        <time>2015-10-11T20:51:18Z</time>
      </trkpt>
      <trkpt lat="44.18864" lon="3.12614">
        <ele>413</ele>
        <time>2015-10-11T20:53:18Z</time>
      </trkpt>
      <trkpt lat="44.18857" lon="3.12634">
        <ele>411</ele>
        <time>2015-10-11T20:55:18Z</time>
      </trkpt>
      <trkpt lat="44.18853" lon="3.12653">
        <ele>410</ele>
        <time>2015-10-11T20:57:18Z</time>
      </trkpt>
      <trkpt lat="44.18852" lon="3.12676">
        <ele>407</ele>
        <time>2015-10-11T20:59:18Z</time>
      </trkpt>
      <trkpt lat="44.18854" lon="3.12695">
        <ele>405</ele>
        <time>2015-10-11T21:01:18Z</time>
      </trkpt>
      <trkpt lat="44.1886" lon="3.12716">
        <ele>402</ele>
        <time>2015-10-11T21:03:18Z</time>
      </trkpt>
      <trkpt lat="44.18865" lon="3.1273">
        <ele>401</ele>
        <time>2015-10-11T21:05:18Z</time>
      </trkpt>
      <trkpt lat="44.18868" lon="3.12743">
        <ele>399</ele>
        <time>2015-10-11T21:07:18Z</time>
      </trkpt>
      <trkpt lat="44.18872" lon="3.12783">
        <ele>395</ele>
        <time>2015-10-11T21:09:18Z</time>
      </trkpt>
      <trkpt lat="44.18873" lon="3.12802">
        <ele>394</ele>
        <time>2015-10-11T21:11:18Z</time>
      </trkpt>
      <trkpt lat="44.18874" lon="3.12823">
        <ele>392</ele>
        <time>2015-10-11T21:13:18Z</time>
      </trkpt>
      <trkpt lat="44.18873" lon="3.12842">
        <ele>390</ele>
        <time>2015-10-11T21:15:18Z</time>
      </trkpt>
      <trkpt lat="44.18874" lon="3.1286">
        <ele>389</ele>
        <time>2015-10-11T21:17:18Z</time>
      </trkpt>
      <trkpt lat="44.18878" lon="3.12906">
        <ele>387</ele>
        <time>2015-10-11T21:19:18Z</time>
      </trkpt>
      <trkpt lat="44.1888" lon="3.12926">
        <ele>386</ele>
        <time>2015-10-11T21:21:18Z</time>
      </trkpt>
      <trkpt lat="44.18878" lon="3.12945">
        <ele>385</ele>
        <time>2015-10-11T21:23:18Z</time>
      </trkpt>
      <trkpt lat="44.18877" lon="3.12964">
        <ele>385</ele>
        <time>2015-10-11T21:25:18Z</time>
      </trkpt>
      <trkpt lat="44.18875" lon="3.12983">
        <ele>385</ele>
        <time>2015-10-11T21:27:18Z</time>
      </trkpt>
      <trkpt lat="44.18871" lon="3.13008">
        <ele>384</ele>
        <time>2015-10-11T21:29:18Z</time>
      </trkpt>
      <trkpt lat="44.18867" lon="3.13019">
        <ele>384</ele>
        <time>2015-10-11T21:31:18Z</time>
      </trkpt>
      <trkpt lat="44.18871" lon="3.13021">
        <ele>384</ele>
        <time>2015-10-11T21:33:18Z</time>
      </trkpt>
      <trkpt lat="44.1888" lon="3.13019">
        <ele>384</ele>
        <time>2015-10-11T21:35:18Z</time>
      </trkpt>
      <trkpt lat="44.18887" lon="3.13014">
        <ele>384</ele>
        <time>2015-10-11T21:37:18Z</time>
      </trkpt>
      <trkpt lat="44.18891" lon="3.13014">
        <ele>384</ele>
        <time>2015-10-11T21:39:18Z</time>
      </trkpt>
      <trkpt lat="44.18893" lon="3.13017">
        <ele>384</ele>
        <time>2015-10-11T21:41:18Z</time>
      </trkpt>
      <trkpt lat="44.18893" lon="3.13026">
        <ele>384</ele>
        <time>2015-10-11T21:43:18Z</time>
      </trkpt>
      <trkpt lat="44.18892" lon="3.13027">
        <ele>384</ele>
        <time>2015-10-11T21:45:18Z</time>
      </trkpt>
      <trkpt lat="44.18891" lon="3.1304">
        <ele>385</ele>
        <time>2015-10-11T21:47:18Z</time>
      </trkpt>
      <trkpt lat="44.18892" lon="3.13041">
        <ele>385</ele>
        <time>2015-10-11T21:49:18Z</time>
      </trkpt>
      <trkpt lat="44.18899" lon="3.13044">
        <ele>385</ele>
        <time>2015-10-11T21:51:18Z</time>
      </trkpt>
      <trkpt lat="44.1891" lon="3.13047">
        <ele>385</ele>
        <time>2015-10-11T21:53:18Z</time>
      </trkpt>
      <trkpt lat="44.1893" lon="3.13049">
        <ele>386</ele>
        <time>2015-10-11T21:55:18Z</time>
      </trkpt>
      <trkpt lat="44.18939" lon="3.1305">
        <ele>386</ele>
        <time>2015-10-11T21:57:18Z</time>
      </trkpt>
      <trkpt lat="44.18948" lon="3.13049">
        <ele>386</ele>
        <time>2015-10-11T21:59:18Z</time>
      </trkpt>
      <trkpt lat="44.18956" lon="3.13051">
        <ele>387</ele>
        <time>2015-10-11T22:01:18Z</time>
      </trkpt>
      <trkpt lat="44.18958" lon="3.13051">
        <ele>387</ele>
        <time>2015-10-11T22:03:18Z</time>
      </trkpt>
      <trkpt lat="44.18961" lon="3.13053">
        <ele>387</ele>
        <time>2015-10-11T22:05:18Z</time>
      </trkpt>
      <trkpt lat="44.18968" lon="3.13054">
        <ele>387</ele>
        <time>2015-10-11T22:07:18Z</time>
      </trkpt>
      <trkpt lat="44.18972" lon="3.13055">
        <ele>387</ele>
        <time>2015-10-11T22:09:18Z</time>
      </trkpt>
      <trkpt lat="44.18977" lon="3.13053">
        <ele>387</ele>
        <time>2015-10-11T22:11:18Z</time>
      </trkpt>
      <trkpt lat="44.18985" lon="3.13054">
        <ele>388</ele>
        <time>2015-10-11T22:13:18Z</time>
      </trkpt>
      <trkpt lat="44.18995" lon="3.13051">
        <ele>388</ele>
        <time>2015-10-11T22:15:18Z</time>
      </trkpt>
      <trkpt lat="44.19004" lon="3.13051">
        <ele>388</ele>
        <time>2015-10-11T22:17:18Z</time>
      </trkpt>
      <trkpt lat="44.19014" lon="3.1305">
        <ele>389</ele>
        <time>2015-10-11T22:19:18Z</time>
      </trkpt>
      <trkpt lat="44.19028" lon="3.13049">
        <ele>390</ele>
        <time>2015-10-11T22:21:18Z</time>
      </trkpt>
      <trkpt lat="44.19041" lon="3.13045">
        <ele>391</ele>
        <time>2015-10-11T22:23:18Z</time>
      </trkpt>
      <trkpt lat="44.19051" lon="3.13044">
        <ele>391</ele>
        <time>2015-10-11T22:25:18Z</time>
      </trkpt>
      <trkpt lat="44.19055" lon="3.13044">
        <ele>392</ele>
        <time>2015-10-11T22:27:18Z</time>
      </trkpt>
      <trkpt lat="44.19067" lon="3.1304">
        <ele>392</ele>
        <time>2015-10-11T22:29:18Z</time>
      </trkpt>
      <trkpt lat="44.19079" lon="3.13038">
        <ele>393</ele>
        <time>2015-10-11T22:31:18Z</time>
      </trkpt>
      <trkpt lat="44.19079" lon="3.13024">
        <ele>394</ele>
        <time>2015-10-11T22:33:18Z</time>
      </trkpt>
      <trkpt lat="44.1908" lon="3.13006">
        <ele>395</ele>
        <time>2015-10-11T22:35:18Z</time>
      </trkpt>
      <trkpt lat="44.19079" lon="3.12987">
        <ele>395</ele>
        <time>2015-10-11T22:37:18Z</time>
      </trkpt>
      <trkpt lat="44.19078" lon="3.12973">
        <ele>396</ele>
        <time>2015-10-11T22:39:18Z</time>
      </trkpt>
      <trkpt lat="44.19076" lon="3.12953">
        <ele>396</ele>
        <time>2015-10-11T22:41:18Z</time>
      </trkpt>
      <trkpt lat="44.19073" lon="3.12936">
        <ele>396</ele>
        <time>2015-10-11T22:43:18Z</time>
      </trkpt>
      <trkpt lat="44.19073" lon="3.12919">
        <ele>397</ele>
        <time>2015-10-11T22:45:18Z</time>
      </trkpt>
      <trkpt lat="44.19075" lon="3.12899">
        <ele>398</ele>
        <time>2015-10-11T22:47:18Z</time>
      </trkpt>
      <trkpt lat="44.19078" lon="3.12884">
        <ele>398</ele>
        <time>2015-10-11T22:49:18Z</time>
      </trkpt>
      <trkpt lat="44.19082" lon="3.12867">
        <ele>399</ele>
        <time>2015-10-11T22:51:18Z</time>
      </trkpt>
      <trkpt lat="44.19086" lon="3.12848">
        <ele>400</ele>
        <time>2015-10-11T22:53:18Z</time>
      </trkpt>
      <trkpt lat="44.19089" lon="3.12833">
        <ele>401</ele>
        <time>2015-10-11T22:55:18Z</time>
      </trkpt>
      <trkpt lat="44.19093" lon="3.12814">
        <ele>401</ele>
        <time>2015-10-11T22:57:18Z</time>
      </trkpt>
      <trkpt lat="44.19097" lon="3.12801">
        <ele>401</ele>
        <time>2015-10-11T22:59:18Z</time>
      </trkpt>
      <trkpt lat="44.191" lon="3.12786">
        <ele>401</ele>
        <time>2015-10-11T23:01:18Z</time>
      </trkpt>
      <trkpt lat="44.19105" lon="3.12766">
        <ele>400</ele>
        <time>2015-10-11T23:03:18Z</time>
      </trkpt>
      <trkpt lat="44.19106" lon="3.12747">
        <ele>400</ele>
        <time>2015-10-11T23:05:18Z</time>
      </trkpt>
      <trkpt lat="44.19103" lon="3.12726">
        <ele>399</ele>
        <time>2015-10-11T23:07:18Z</time>
      </trkpt>
      <trkpt lat="44.19103" lon="3.12702">
        <ele>399</ele>
        <time>2015-10-11T23:09:18Z</time>
      </trkpt>
      <trkpt lat="44.19105" lon="3.12692">
        <ele>399</ele>
        <time>2015-10-11T23:11:18Z</time>
      </trkpt>
      <trkpt lat="44.19111" lon="3.12686">
        <ele>399</ele>
        <time>2015-10-11T23:13:18Z</time>
      </trkpt>
      <trkpt lat="44.19117" lon="3.12683">
        <ele>399</ele>
        <time>2015-10-11T23:15:18Z</time>
      </trkpt>
      <trkpt lat="44.19125" lon="3.1268">
        <ele>400</ele>
        <time>2015-10-11T23:17:18Z</time>
      </trkpt>
      <trkpt lat="44.19135" lon="3.12675">
        <ele>400</ele>
        <time>2015-10-11T23:19:18Z</time>
      </trkpt>
      <trkpt lat="44.1914" lon="3.12676">
        <ele>401</ele>
        <time>2015-10-11T23:21:18Z</time>
      </trkpt>
      <trkpt lat="44.1915" lon="3.12687">
        <ele>402</ele>
        <time>2015-10-11T23:23:18Z</time>
      </trkpt>
      <trkpt lat="44.19161" lon="3.12695">
        <ele>404</ele>
        <time>2015-10-11T23:25:18Z</time>
      </trkpt>
      <trkpt lat="44.1917" lon="3.12698">
        <ele>405</ele>
        <time>2015-10-11T23:27:18Z</time>
      </trkpt>
      <trkpt lat="44.19182" lon="3.12703">
        <ele>406</ele>
        <time>2015-10-11T23:29:18Z</time>
      </trkpt>
      <trkpt lat="44.19196" lon="3.12709">
        <ele>408</ele>
        <time>2015-10-11T23:31:18Z</time>
      </trkpt>
      <trkpt lat="44.1922" lon="3.12722">
        <ele>410</ele>
        <time>2015-10-11T23:33:18Z</time>
      </trkpt>
      <trkpt lat="44.19231" lon="3.12726">
        <ele>412</ele>
        <time>2015-10-11T23:35:18Z</time>
      </trkpt>
      <trkpt lat="44.19242" lon="3.12731">
        <ele>413</ele>
        <time>2015-10-11T23:37:18Z</time>
      </trkpt>
      <trkpt lat="44.19251" lon="3.12737">
        <ele>414</ele>
        <time>2015-10-11T23:39:18Z</time>
      </trkpt>
      <trkpt lat="44.1926" lon="3.12744">
        <ele>416</ele>
        <time>2015-10-11T23:41:18Z</time>
      </trkpt>
      <trkpt lat="44.19272" lon="3.12749">
        <ele>419</ele>
        <time>2015-10-11T23:43:18Z</time>
      </trkpt>
      <trkpt lat="44.19277" lon="3.12754">
        <ele>420</ele>
        <time>2015-10-11T23:45:18Z</time>
      </trkpt>
      <trkpt lat="44.19288" lon="3.12759">
        <ele>422</ele>
        <time>2015-10-11T23:47:18Z</time>
      </trkpt>
      <trkpt lat="44.19291" lon="3.12759">
        <ele>422</ele>
        <time>2015-10-11T23:49:18Z</time>
      </trkpt>
      <trkpt lat="44.19296" lon="3.12757">
        <ele>423</ele>
        <time>2015-10-11T23:51:18Z</time>
      </trkpt>
      <trkpt lat="44.19307" lon="3.12751">
        <ele>425</ele>
        <time>2015-10-11T23:53:18Z</time>
      </trkpt>
      <trkpt lat="44.19311" lon="3.12748">
        <ele>425</ele>
        <time>2015-10-11T23:55:18Z</time>
      </trkpt>
      <trkpt lat="44.19316" lon="3.12749">
        <ele>426</ele>
        <time>2015-10-11T23:57:18Z</time>
      </trkpt>
      <trkpt lat="44.19324" lon="3.12752">
        <ele>427</ele>
        <time>2015-10-11T23:59:18Z</time>
      </trkpt>
      <trkpt lat="44.19327" lon="3.12753">
        <ele>428</ele>
        <time>2015-10-12T00:01:18Z</time>
      </trkpt>
      <trkpt lat="44.1933" lon="3.12754">
        <ele>429</ele>
        <time>2015-10-12T00:03:18Z</time>
      </trkpt>
      <trkpt lat="44.19336" lon="3.12754">
        <ele>430</ele>
        <time>2015-10-12T00:05:18Z</time>
      </trkpt>
      <trkpt lat="44.19344" lon="3.12757">
        <ele>432</ele>
        <time>2015-10-12T00:07:18Z</time>
      </trkpt>
      <trkpt lat="44.19345" lon="3.12757">
        <ele>432</ele>
        <time>2015-10-12T00:09:18Z</time>
      </trkpt>
      <trkpt lat="44.19351" lon="3.12758">
        <ele>433</ele>
        <time>2015-10-12T00:11:18Z</time>
      </trkpt>
      <trkpt lat="44.19354" lon="3.12759">
        <ele>434</ele>
        <time>2015-10-12T00:13:18Z</time>
      </trkpt>
      <trkpt lat="44.19364" lon="3.12759">
        <ele>436</ele>
        <time>2015-10-12T00:15:18Z</time>
      </trkpt>
      <trkpt lat="44.19371" lon="3.12758">
        <ele>438</ele>
        <time>2015-10-12T00:17:18Z</time>
      </trkpt>
      <trkpt lat="44.19378" lon="3.12755">
        <ele>439</ele>
        <time>2015-10-12T00:19:18Z</time>
      </trkpt>
      <trkpt lat="44.19387" lon="3.12752">
        <ele>441</ele>
        <time>2015-10-12T00:21:18Z</time>
      </trkpt>
      <trkpt lat="44.19395" lon="3.12748">
        <ele>443</ele>
        <time>2015-10-12T00:23:18Z</time>
      </trkpt>
      <trkpt lat="44.19403" lon="3.12746">
        <ele>444</ele>
        <time>2015-10-12T00:25:18Z</time>
      </trkpt>
      <trkpt lat="44.19413" lon="3.12746">
        <ele>446</ele>
        <time>2015-10-12T00:27:18Z</time>
      </trkpt>
      <trkpt lat="44.19423" lon="3.12743">
        <ele>448</ele>
        <time>2015-10-12T00:29:18Z</time>
      </trkpt>
      <trkpt lat="44.19434" lon="3.1274">
        <ele>449</ele>
        <time>2015-10-12T00:31:18Z</time>
      </trkpt>
      <trkpt lat="44.19445" lon="3.12738">
        <ele>451</ele>
        <time>2015-10-12T00:33:18Z</time>
      </trkpt>
      <trkpt lat="44.19458" lon="3.12734">
        <ele>452</ele>
        <time>2015-10-12T00:35:18Z</time>
      </trkpt>
      <trkpt lat="44.19467" lon="3.12733">
        <ele>454</ele>
        <time>2015-10-12T00:37:18Z</time>
      </trkpt>
      <trkpt lat="44.19475" lon="3.12733">
        <ele>455</ele>
        <time>2015-10-12T00:39:18Z</time>
      </trkpt>
      <trkpt lat="44.19483" lon="3.12735">
        <ele>457</ele>
        <time>2015-10-12T00:41:18Z</time>
      </trkpt>
      <trkpt lat="44.19494" lon="3.12734">
        <ele>459</ele>
        <time>2015-10-12T00:43:18Z</time>
      </trkpt>
      <trkpt lat="44.19504" lon="3.12731">
        <ele>460</ele>
        <time>2015-10-12T00:45:18Z</time>
      </trkpt>
      <trkpt lat="44.19514" lon="3.12729">
        <ele>461</ele>
        <time>2015-10-12T00:47:18Z</time>
      </trkpt>
      <trkpt lat="44.19524" lon="3.12726">
        <ele>462</ele>
        <time>2015-10-12T00:49:18Z</time>
      </trkpt>
      <trkpt lat="44.19535" lon="3.12722">
        <ele>463</ele>
        <time>2015-10-12T00:51:18Z</time>
      </trkpt>
      <trkpt lat="44.19547" lon="3.1272">
        <ele>465</ele>
        <time>2015-10-12T00:53:18Z</time>
      </trkpt>
      <trkpt lat="44.19559" lon="3.12716">
        <ele>467</ele>
        <time>2015-10-12T00:55:18Z</time>
      </trkpt>
      <trkpt lat="44.19571" lon="3.12711">
        <ele>468</ele>
        <time>2015-10-12T00:57:18Z</time>
      </trkpt>
      <trkpt lat="44.19581" lon="3.12707">
        <ele>470</ele>
        <time>2015-10-12T00:59:18Z</time>
      </trkpt>
      <trkpt lat="44.1959" lon="3.12703">
        <ele>471</ele>
        <time>2015-10-12T01:01:18Z</time>
      </trkpt>
      <trkpt lat="44.19596" lon="3.12697">
        <ele>472</ele>
        <time>2015-10-12T01:03:18Z</time>
      </trkpt>
      <trkpt lat="44.19604" lon="3.12691">
        <ele>472</ele>
        <time>2015-10-12T01:05:18Z</time>
      </trkpt>
      <trkpt lat="44.19615" lon="3.12687">
        <ele>474</ele>
        <time>2015-10-12T01:07:18Z</time>
      </trkpt>
      <trkpt lat="44.19622" lon="3.12686">
        <ele>475</ele>
        <time>2015-10-12T01:09:18Z</time>
      </trkpt>
      <trkpt lat="44.19631" lon="3.12685">
        <ele>476</ele>
        <time>2015-10-12T01:11:18Z</time>
      </trkpt>
      <trkpt lat="44.19645" lon="3.12685">
        <ele>478</ele>
        <time>2015-10-12T01:13:18Z</time>
      </trkpt>
      <trkpt lat="44.19657" lon="3.12684">
        <ele>479</ele>
        <time>2015-10-12T01:15:18Z</time>
      </trkpt>
      <trkpt lat="44.19668" lon="3.12684">
        <ele>481</ele>
        <time>2015-10-12T01:17:18Z</time>
      </trkpt>
      <trkpt lat="44.1968" lon="3.12685">
        <ele>482</ele>
        <time>2015-10-12T01:19:18Z</time>
      </trkpt>
      <trkpt lat="44.19692" lon="3.12687">
        <ele>483</ele>
        <time>2015-10-12T01:21:18Z</time>
      </trkpt>
      <trkpt lat="44.19704" lon="3.12691">
        <ele>485</ele>
        <time>2015-10-12T01:23:18Z</time>
      </trkpt>
      <trkpt lat="44.19716" lon="3.12695">
        <ele>486</ele>
        <time>2015-10-12T01:25:18Z</time>
      </trkpt>
      <trkpt lat="44.19729" lon="3.12696">
        <ele>487</ele>
        <time>2015-10-12T01:27:18Z</time>
      </trkpt>
      <trkpt lat="44.1975" lon="3.12694">
        <ele>489</ele>
        <time>2015-10-12T01:29:18Z</time>
      </trkpt>
      <trkpt lat="44.19765" lon="3.12693">
        <ele>491</ele>
        <time>2015-10-12T01:31:18Z</time>
      </trkpt>
      <trkpt lat="44.19775" lon="3.12693">
        <ele>493</ele>
        <time>2015-10-12T01:33:18Z</time>
      </trkpt>
      <trkpt lat="44.19785" lon="3.12693">
        <ele>494</ele>
        <time>2015-10-12T01:35:18Z</time>
      </trkpt>
      <trkpt lat="44.19795" lon="3.12694">
        <ele>495</ele>
        <time>2015-10-12T01:37:18Z</time>
      </trkpt>
      <trkpt lat="44.19804" lon="3.12696">
        <ele>497</ele>
        <time>2015-10-12T01:39:18Z</time>
      </trkpt>
      <trkpt lat="44.19811" lon="3.12699">
        <ele>498</ele>
        <time>2015-10-12T01:41:18Z</time>
      </trkpt>
      <trkpt lat="44.19822" lon="3.12702">
        <ele>500</ele>
        <time>2015-10-12T01:43:18Z</time>
      </trkpt>
      <trkpt lat="44.1983" lon="3.12707">
        <ele>501</ele>
        <time>2015-10-12T01:45:18Z</time>
      </trkpt>
      <trkpt lat="44.19841" lon="3.1271">
        <ele>503</ele>
        <time>2015-10-12T01:47:18Z</time>
      </trkpt>
      <trkpt lat="44.19853" lon="3.12712">
        <ele>504</ele>
        <time>2015-10-12T01:49:18Z</time>
      </trkpt>
      <trkpt lat="44.19863" lon="3.12717">
        <ele>506</ele>
        <time>2015-10-12T01:51:18Z</time>
      </trkpt>
      <trkpt lat="44.19875" lon="3.12724">
        <ele>508</ele>
        <time>2015-10-12T01:53:18Z</time>
      </trkpt>
      <trkpt lat="44.19887" lon="3.12731">
        <ele>511</ele>
        <time>2015-10-12T01:55:18Z</time>
      </trkpt>
      <trkpt lat="44.19897" lon="3.12736">
        <ele>513</ele>
        <time>2015-10-12T01:57:18Z</time>
      </trkpt>
      <trkpt lat="44.19906" lon="3.12742">
        <ele>516</ele>
        <time>2015-10-12T01:59:18Z</time>
      </trkpt>
      <trkpt lat="44.19914" lon="3.12749">
        <ele>518</ele>
        <time>2015-10-12T02:01:18Z</time>
      </trkpt>
      <trkpt lat="44.1992" lon="3.12758">
        <ele>520</ele>
        <time>2015-10-12T02:03:18Z</time>
      </trkpt>
      <trkpt lat="44.19924" lon="3.12765">
        <ele>522</ele>
        <time>2015-10-12T02:05:18Z</time>
      </trkpt>
      <trkpt lat="44.19923" lon="3.12779">
        <ele>523</ele>
        <time>2015-10-12T02:07:18Z</time>
      </trkpt>
      <trkpt lat="44.1992" lon="3.12793">
        <ele>524</ele>
        <time>2015-10-12T02:09:18Z</time>
      </trkpt>
      <trkpt lat="44.19916" lon="3.12808">
        <ele>524</ele>
        <time>2015-10-12T02:11:18Z</time>
      </trkpt>
      <trkpt lat="44.19913" lon="3.12826">
        <ele>526</ele>
        <time>2015-10-12T02:13:18Z</time>
      </trkpt>
      <trkpt lat="44.19909" lon="3.12844">
        <ele>527</ele>
        <time>2015-10-12T02:15:18Z</time>
      </trkpt>
      <trkpt lat="44.19903" lon="3.12856">
        <ele>527</ele>
        <time>2015-10-12T02:17:18Z</time>
      </trkpt>
      <trkpt lat="44.19902" lon="3.12858">
        <ele>527</ele>
        <time>2015-10-12T02:19:18Z</time>
      </trkpt>
      <trkpt lat="44.19898" lon="3.12876">
        <ele>528</ele>
        <time>2015-10-12T02:21:18Z</time>
      </trkpt>
      <trkpt lat="44.19894" lon="3.12896">
        <ele>530</ele>
        <time>2015-10-12T02:23:18Z</time>
      </trkpt>
      <trkpt lat="44.19893" lon="3.12899">
        <ele>530</ele>
        <time>2015-10-12T02:25:18Z</time>
      </trkpt>
      <trkpt lat="44.19889" lon="3.1291">
        <ele>531</ele>
        <time>2015-10-12T02:27:18Z</time>
      </trkpt>
      <trkpt lat="44.19878" lon="3.1292">
        <ele>530</ele>
        <time>2015-10-12T02:29:18Z</time>
      </trkpt>
      <trkpt lat="44.19877" lon="3.12922">
        <ele>530</ele>
        <time>2015-10-12T02:31:18Z</time>
      </trkpt>
      <trkpt lat="44.19865" lon="3.12937">
        <ele>531</ele>
        <time>2015-10-12T02:33:18Z</time>
      </trkpt>
      <trkpt lat="44.19858" lon="3.12944">
        <ele>531</ele>
        <time>2015-10-12T02:35:18Z</time>
      </trkpt>
      <trkpt lat="44.19851" lon="3.12952">
        <ele>531</ele>
        <time>2015-10-12T02:37:18Z</time>
      </trkpt>
      <trkpt lat="44.19843" lon="3.12963">
        <ele>532</ele>
        <time>2015-10-12T02:39:18Z</time>
      </trkpt>
      <trkpt lat="44.19833" lon="3.12973">
        <ele>533</ele>
        <time>2015-10-12T02:41:18Z</time>
      </trkpt>
      <trkpt lat="44.19827" lon="3.12979">
        <ele>533</ele>
        <time>2015-10-12T02:43:18Z</time>
      </trkpt>
      <trkpt lat="44.19818" lon="3.12983">
        <ele>533</ele>
        <time>2015-10-12T02:45:18Z</time>
      </trkpt>
      <trkpt lat="44.19807" lon="3.12987">
        <ele>534</ele>
        <time>2015-10-12T02:47:18Z</time>
      </trkpt>
      <trkpt lat="44.19795" lon="3.12993">
        <ele>534</ele>
        <time>2015-10-12T02:49:18Z</time>
      </trkpt>
      <trkpt lat="44.19785" lon="3.13004">
        <ele>535</ele>
        <time>2015-10-12T02:51:18Z</time>
      </trkpt>
      <trkpt lat="44.19777" lon="3.13018">
        <ele>535</ele>
        <time>2015-10-12T02:53:18Z</time>
      </trkpt>
      <trkpt lat="44.19769" lon="3.13036">
        <ele>535</ele>
        <time>2015-10-12T02:55:18Z</time>
      </trkpt>
      <trkpt lat="44.1976" lon="3.1305">
        <ele>535</ele>
        <time>2015-10-12T02:57:18Z</time>
      </trkpt>
      <trkpt lat="44.19732" lon="3.1307">
        <ele>531</ele>
        <time>2015-10-12T02:59:18Z</time>
      </trkpt>
      <trkpt lat="44.19726" lon="3.13082">
        <ele>531</ele>
        <time>2015-10-12T03:01:18Z</time>
      </trkpt>
      <trkpt lat="44.19724" lon="3.13099">
        <ele>531</ele>
        <time>2015-10-12T03:03:18Z</time>
      </trkpt>
      <trkpt lat="44.19724" lon="3.13113">
        <ele>532</ele>
        <time>2015-10-12T03:05:18Z</time>
      </trkpt>
      <trkpt lat="44.19724" lon="3.13131">
        <ele>533</ele>
        <time>2015-10-12T03:07:18Z</time>
      </trkpt>
      <trkpt lat="44.19721" lon="3.13146">
        <ele>533</ele>
        <time>2015-10-12T03:09:18Z</time>
      </trkpt>
      <trkpt lat="44.19714" lon="3.13163">
        <ele>533</ele>
        <time>2015-10-12T03:11:18Z</time>
      </trkpt>
      <trkpt lat="44.19708" lon="3.13175">
        <ele>534</ele>
        <time>2015-10-12T03:13:18Z</time>
      </trkpt>
      <trkpt lat="44.19703" lon="3.13188">
        <ele>534</ele>
        <time>2015-10-12T03:15:18Z</time>
      </trkpt>
      <trkpt lat="44.19698" lon="3.13207">
        <ele>535</ele>
        <time>2015-10-12T03:17:18Z</time>
      </trkpt>
      <trkpt lat="44.19694" lon="3.13223">
        <ele>536</ele>
        <time>2015-10-12T03:19:18Z</time>
      </trkpt>
      <trkpt lat="44.19692" lon="3.13241">
        <ele>537</ele>
        <time>2015-10-12T03:21:18Z</time>
      </trkpt>
      <trkpt lat="44.1969" lon="3.13256">
        <ele>537</ele>
        <time>2015-10-12T03:23:18Z</time>
      </trkpt>
      <trkpt lat="44.19687" lon="3.13273">
        <ele>537</ele>
        <time>2015-10-12T03:25:18Z</time>
      </trkpt>
      <trkpt lat="44.19686" lon="3.13291">
        <ele>537</ele>
        <time>2015-10-12T03:27:18Z</time>
      </trkpt>
      <trkpt lat="44.19687" lon="3.13304">
        <ele>537</ele>
        <time>2015-10-12T03:29:18Z</time>
      </trkpt>
      <trkpt lat="44.19689" lon="3.1332">
        <ele>537</ele>
        <time>2015-10-12T03:31:18Z</time>
      </trkpt>
      <trkpt lat="44.19692" lon="3.13336">
        <ele>538</ele>
        <time>2015-10-12T03:33:18Z</time>
      </trkpt>
      <trkpt lat="44.19698" lon="3.13352">
        <ele>538</ele>
        <time>2015-10-12T03:35:18Z</time>
      </trkpt>
      <trkpt lat="44.19703" lon="3.13365">
        <ele>538</ele>
        <time>2015-10-12T03:37:18Z</time>
      </trkpt>
      <trkpt lat="44.19708" lon="3.13383">
        <ele>538</ele>
        <time>2015-10-12T03:39:18Z</time>
      </trkpt>
      <trkpt lat="44.19711" lon="3.13399">
        <ele>537</ele>
        <time>2015-10-12T03:41:18Z</time>
      </trkpt>
      <trkpt lat="44.19714" lon="3.13424">
        <ele>535</ele>
        <time>2015-10-12T03:43:18Z</time>
      </trkpt>
      <trkpt lat="44.19717" lon="3.1344">
        <ele>533</ele>
        <time>2015-10-12T03:45:18Z</time>
      </trkpt>
      <trkpt lat="44.19724" lon="3.13451">
        <ele>532</ele>
        <time>2015-10-12T03:47:18Z</time>
      </trkpt>
      <trkpt lat="44.19733" lon="3.13453">
        <ele>534</ele>
        <time>2015-10-12T03:49:18Z</time>
      </trkpt>
      <trkpt lat="44.19748" lon="3.13456">
        <ele>536</ele>
        <time>2015-10-12T03:51:18Z</time>
      </trkpt>
      <trkpt lat="44.19759" lon="3.13463">
        <ele>538</ele>
        <time>2015-10-12T03:53:18Z</time>
      </trkpt>
      <trkpt lat="44.19767" lon="3.13477">
        <ele>538</ele>
        <time>2015-10-12T03:55:18Z</time>
      </trkpt>
      <trkpt lat="44.19769" lon="3.13494">
        <ele>536</ele>
        <time>2015-10-12T03:57:18Z</time>
      </trkpt>
      <trkpt lat="44.19769" lon="3.13498">
        <ele>535</ele>
        <time>2015-10-12T03:59:18Z</time>
      </trkpt>
      <trkpt lat="44.19764" lon="3.13513">
        <ele>533</ele>
        <time>2015-10-12T04:01:18Z</time>
      </trkpt>
      <trkpt lat="44.19759" lon="3.1353">
        <ele>530</ele>
        <time>2015-10-12T04:03:18Z</time>
      </trkpt>
      <trkpt lat="44.19756" lon="3.13548">
        <ele>528</ele>
        <time>2015-10-12T04:05:18Z</time>
      </trkpt>
      <trkpt lat="44.19757" lon="3.13569">
        <ele>528</ele>
        <time>2015-10-12T04:07:18Z</time>
      </trkpt>
      <trkpt lat="44.19758" lon="3.13586">
        <ele>527</ele>
        <time>2015-10-12T04:09:18Z</time>
      </trkpt>
      <trkpt lat="44.19758" lon="3.1359">
        <ele>528</ele>
        <time>2015-10-12T04:11:18Z</time>
      </trkpt>
      <trkpt lat="44.19752" lon="3.13609">
        <ele>527</ele>
        <time>2015-10-12T04:13:18Z</time>
      </trkpt>
      <trkpt lat="44.1975" lon="3.13626">
        <ele>528</ele>
        <time>2015-10-12T04:15:18Z</time>
      </trkpt>
      <trkpt lat="44.19745" lon="3.13643">
        <ele>528</ele>
        <time>2015-10-12T04:17:18Z</time>
      </trkpt>
      <trkpt lat="44.19739" lon="3.13654">
        <ele>527</ele>
        <time>2015-10-12T04:19:18Z</time>
      </trkpt>
      <trkpt lat="44.19736" lon="3.13667">
        <ele>528</ele>
        <time>2015-10-12T04:21:18Z</time>
      </trkpt>
      <trkpt lat="44.19728" lon="3.13674">
        <ele>526</ele>
        <time>2015-10-12T04:23:18Z</time>
      </trkpt>
      <trkpt lat="44.19717" lon="3.13684">
        <ele>525</ele>
        <time>2015-10-12T04:25:18Z</time>
      </trkpt>
      <trkpt lat="44.19708" lon="3.13698">
        <ele>524</ele>
        <time>2015-10-12T04:27:18Z</time>
      </trkpt>
      <trkpt lat="44.19701" lon="3.1371">
        <ele>523</ele>
        <time>2015-10-12T04:29:18Z</time>
      </trkpt>
      <trkpt lat="44.19695" lon="3.13726">
        <ele>523</ele>
        <time>2015-10-12T04:31:18Z</time>
      </trkpt>
      <trkpt lat="44.19677" lon="3.13748">
        <ele>519</ele>
        <time>2015-10-12T04:33:18Z</time>
      </trkpt>
      <trkpt lat="44.19668" lon="3.13759">
        <ele>516</ele>
        <time>2015-10-12T04:35:18Z</time>
      </trkpt>
      <trkpt lat="44.1966" lon="3.13775">
        <ele>514</ele>
        <time>2015-10-12T04:37:18Z</time>
      </trkpt>
      <trkpt lat="44.19649" lon="3.13789">
        <ele>511</ele>
        <time>2015-10-12T04:39:18Z</time>
      </trkpt>
      <trkpt lat="44.1964" lon="3.13799">
        <ele>508</ele>
        <time>2015-10-12T04:41:18Z</time>
      </trkpt>
      <trkpt lat="44.19635" lon="3.13813">
        <ele>506</ele>
        <time>2015-10-12T04:43:18Z</time>
      </trkpt>
      <trkpt lat="44.19631" lon="3.13833">
        <ele>504</ele>
        <time>2015-10-12T04:45:18Z</time>
      </trkpt>
      <trkpt lat="44.19624" lon="3.13867">
        <ele>502</ele>
        <time>2015-10-12T04:47:18Z</time>
      </trkpt>
      <trkpt lat="44.19622" lon="3.13885">
        <ele>502</ele>
        <time>2015-10-12T04:49:18Z</time>
      </trkpt>
      <trkpt lat="44.19621" lon="3.13891">
        <ele>502</ele>
        <time>2015-10-12T04:51:18Z</time>
      </trkpt>
      <trkpt lat="44.1962" lon="3.13902">
        <ele>502</ele>
        <time>2015-10-12T04:53:18Z</time>
      </trkpt>
      <trkpt lat="44.19612" lon="3.13926">
        <ele>501</ele>
        <time>2015-10-12T04:55:18Z</time>
      </trkpt>
      <trkpt lat="44.19606" lon="3.13942">
        <ele>501</ele>
        <time>2015-10-12T04:57:18Z</time>
      </trkpt>
      <trkpt lat="44.19597" lon="3.13957">
        <ele>499</ele>
        <time>2015-10-12T04:59:18Z</time>
      </trkpt>
      <trkpt lat="44.19578" lon="3.13985">
        <ele>496</ele>
        <time>2015-10-12T05:01:18Z</time>
      </trkpt>
      <trkpt lat="44.19571" lon="3.13995">
        <ele>495</ele>
        <time>2015-10-12T05:03:18Z</time>
      </trkpt>
      <trkpt lat="44.19565" lon="3.1401">
        <ele>494</ele>
        <time>2015-10-12T05:05:18Z</time>
      </trkpt>
      <trkpt lat="44.1956" lon="3.14026">
        <ele>494</ele>
        <time>2015-10-12T05:07:18Z</time>
      </trkpt>
      <trkpt lat="44.19556" lon="3.14043">
        <ele>495</ele>
        <time>2015-10-12T05:09:18Z</time>
      </trkpt>
      <trkpt lat="44.19549" lon="3.14062">
        <ele>495</ele>
        <time>2015-10-12T05:11:18Z</time>
      </trkpt>
      <trkpt lat="44.19541" lon="3.14075">
        <ele>495</ele>
        <time>2015-10-12T05:13:18Z</time>
      </trkpt>
      <trkpt lat="44.19532" lon="3.1409">
        <ele>494</ele>
        <time>2015-10-12T05:15:18Z</time>
      </trkpt>
      <trkpt lat="44.19524" lon="3.14106">
        <ele>493</ele>
        <time>2015-10-12T05:17:18Z</time>
      </trkpt>
      <trkpt lat="44.19519" lon="3.14117">
        <ele>493</ele>
        <time>2015-10-12T05:19:18Z</time>
      </trkpt>
      <trkpt lat="44.19514" lon="3.1413">
        <ele>493</ele>
        <time>2015-10-12T05:21:18Z</time>
      </trkpt>
      <trkpt lat="44.19508" lon="3.14143">
        <ele>492</ele>
        <time>2015-10-12T05:23:18Z</time>
      </trkpt>
      <trkpt lat="44.195" lon="3.14157">
        <ele>491</ele>
        <time>2015-10-12T05:25:18Z</time>
      </trkpt>
      <trkpt lat="44.19497" lon="3.14174">
        <ele>491</ele>
        <time>2015-10-12T05:27:18Z</time>
      </trkpt>
      <trkpt lat="44.195" lon="3.14189">
        <ele>491</ele>
        <time>2015-10-12T05:29:18Z</time>
      </trkpt>
      <trkpt lat="44.19504" lon="3.14208">
        <ele>492</ele>
        <time>2015-10-12T05:31:18Z</time>
      </trkpt>
      <trkpt lat="44.19508" lon="3.14225">
        <ele>493</ele>
        <time>2015-10-12T05:33:18Z</time>
      </trkpt>
      <trkpt lat="44.19508" lon="3.14246">
        <ele>492</ele>
        <time>2015-10-12T05:35:18Z</time>
      </trkpt>
      <trkpt lat="44.19506" lon="3.14266">
        <ele>491</ele>
        <time>2015-10-12T05:37:18Z</time>
      </trkpt>
      <trkpt lat="44.19505" lon="3.14284">
        <ele>491</ele>
        <time>2015-10-12T05:39:18Z</time>
      </trkpt>
      <trkpt lat="44.19502" lon="3.14302">
        <ele>489</ele>
        <time>2015-10-12T05:41:18Z</time>
      </trkpt>
      <trkpt lat="44.19498" lon="3.14326">
        <ele>488</ele>
        <time>2015-10-12T05:43:18Z</time>
      </trkpt>
      <trkpt lat="44.19495" lon="3.14348">
        <ele>488</ele>
        <time>2015-10-12T05:45:18Z</time>
      </trkpt>
      <trkpt lat="44.19493" lon="3.14369">
        <ele>488</ele>
        <time>2015-10-12T05:47:18Z</time>
      </trkpt>
      <trkpt lat="44.1949" lon="3.1439">
        <ele>489</ele>
        <time>2015-10-12T05:49:18Z</time>
      </trkpt>
      <trkpt lat="44.19488" lon="3.14402">
        <ele>489</ele>
        <time>2015-10-12T05:51:18Z</time>
      </trkpt>
      <trkpt lat="44.19487" lon="3.14421">
        <ele>490</ele>
        <time>2015-10-12T05:53:18Z</time>
      </trkpt>
      <trkpt lat="44.19487" lon="3.1444">
        <ele>492</ele>
        <time>2015-10-12T05:55:18Z</time>
      </trkpt>
      <trkpt lat="44.19484" lon="3.14458">
        <ele>494</ele>
        <time>2015-10-12T05:57:18Z</time>
      </trkpt>
      <trkpt lat="44.19475" lon="3.14474">
        <ele>494</ele>
        <time>2015-10-12T05:59:18Z</time>
      </trkpt>
      <trkpt lat="44.19466" lon="3.14488">
        <ele>494</ele>
        <time>2015-10-12T06:01:18Z</time>
      </trkpt>
      <trkpt lat="44.19457" lon="3.14501">
        <ele>493</ele>
        <time>2015-10-12T06:03:18Z</time>
      </trkpt>
      <trkpt lat="44.19446" lon="3.14517">
        <ele>491</ele>
        <time>2015-10-12T06:05:18Z</time>
      </trkpt>
      <trkpt lat="44.19439" lon="3.14529">
        <ele>489</ele>
        <time>2015-10-12T06:07:18Z</time>
      </trkpt>
      <trkpt lat="44.19433" lon="3.14542">
        <ele>487</ele>
        <time>2015-10-12T06:09:18Z</time>
      </trkpt>
      <trkpt lat="44.19431" lon="3.14551">
        <ele>486</ele>
        <time>2015-10-12T06:11:18Z</time>
      </trkpt>
      <trkpt lat="44.19435" lon="3.14561">
        <ele>488</ele>
        <time>2015-10-12T06:13:18Z</time>
      </trkpt>
      <trkpt lat="44.19442" lon="3.14571">
        <ele>491</ele>
        <time>2015-10-12T06:15:18Z</time>
      </trkpt>
      <trkpt lat="44.19448" lon="3.14578">
        <ele>494</ele>
        <time>2015-10-12T06:17:18Z</time>
      </trkpt>
      <trkpt lat="44.19456" lon="3.1459">
        <ele>498</ele>
        <time>2015-10-12T06:19:18Z</time>
      </trkpt>
      <trkpt lat="44.19459" lon="3.14604">
        <ele>502</ele>
        <time>2015-10-12T06:21:18Z</time>
      </trkpt>
      <trkpt lat="44.1946" lon="3.1462">
        <ele>505</ele>
        <time>2015-10-12T06:23:18Z</time>
      </trkpt>
      <trkpt lat="44.19459" lon="3.14627">
        <ele>505</ele>
        <time>2015-10-12T06:25:18Z</time>
      </trkpt>
      <trkpt lat="44.19457" lon="3.14632">
        <ele>504</ele>
        <time>2015-10-12T06:27:18Z</time>
      </trkpt>
      <trkpt lat="44.19457" lon="3.14647">
        <ele>506</ele>
        <time>2015-10-12T06:29:18Z</time>
      </trkpt>
      <trkpt lat="44.19458" lon="3.14648">
        <ele>507</ele>
        <time>2015-10-12T06:31:18Z</time>
      </trkpt>
      <trkpt lat="44.19456" lon="3.14653">
        <ele>506</ele>
        <time>2015-10-12T06:33:18Z</time>
      </trkpt>
      <trkpt lat="44.1945" lon="3.14663">
        <ele>503</ele>
        <time>2015-10-12T06:35:18Z</time>
      </trkpt>
      <trkpt lat="44.19446" lon="3.14684">
        <ele>504</ele>
        <time>2015-10-12T06:37:18Z</time>
      </trkpt>
      <trkpt lat="44.19444" lon="3.14692">
        <ele>504</ele>
        <time>2015-10-12T06:39:18Z</time>
      </trkpt>
      <trkpt lat="44.19444" lon="3.1471">
        <ele>507</ele>
        <time>2015-10-12T06:41:18Z</time>
      </trkpt>
      <trkpt lat="44.19446" lon="3.14727">
        <ele>511</ele>
        <time>2015-10-12T06:43:18Z</time>
      </trkpt>
      <trkpt lat="44.19447" lon="3.14733">
        <ele>513</ele>
        <time>2015-10-12T06:45:18Z</time>
      </trkpt>
      <trkpt lat="44.19443" lon="3.1474">
        <ele>511</ele>
        <time>2015-10-12T06:47:18Z</time>
      </trkpt>
      <trkpt lat="44.19443" lon="3.14742">
        <ele>511</ele>
        <time>2015-10-12T06:49:18Z</time>
      </trkpt>
      <trkpt lat="44.19444" lon="3.14751">
        <ele>514</ele>
        <time>2015-10-12T06:51:18Z</time>
      </trkpt>
      <trkpt lat="44.19444" lon="3.14756">
        <ele>515</ele>
        <time>2015-10-12T06:53:18Z</time>
      </trkpt>
      <trkpt lat="44.19448" lon="3.14755">
        <ele>517</ele>
        <time>2015-10-12T06:55:18Z</time>
      </trkpt>
      <trkpt lat="44.19449" lon="3.14752">
        <ele>517</ele>
        <time>2015-10-12T06:57:18Z</time>
      </trkpt>
      <trkpt lat="44.19452" lon="3.14744">
        <ele>518</ele>
        <time>2015-10-12T06:59:18Z</time>
      </trkpt>
      <trkpt lat="44.19454" lon="3.14742">
        <ele>519</ele>
        <time>2015-10-12T07:01:18Z</time>
      </trkpt>
      <trkpt lat="44.19456" lon="3.14738">
        <ele>520</ele>
        <time>2015-10-12T07:03:18Z</time>
      </trkpt>
      <trkpt lat="44.19458" lon="3.14732">
        <ele>521</ele>
        <time>2015-10-12T07:05:18Z</time>
      </trkpt>
      <trkpt lat="44.19461" lon="3.14724">
        <ele>522</ele>
        <time>2015-10-12T07:07:18Z</time>
      </trkpt>
      <trkpt lat="44.19465" lon="3.14715">
        <ele>523</ele>
        <time>2015-10-12T07:09:18Z</time>
      </trkpt>
      <trkpt lat="44.19466" lon="3.14712">
        <ele>523</ele>
        <time>2015-10-12T07:11:18Z</time>
      </trkpt>
      <trkpt lat="44.19469" lon="3.14715">
        <ele>526</ele>
        <time>2015-10-12T07:13:18Z</time>
      </trkpt>
      <trkpt lat="44.19468" lon="3.1472">
        <ele>526</ele>
        <time>2015-10-12T07:15:18Z</time>
      </trkpt>
      <trkpt lat="44.19466" lon="3.14727">
        <ele>526</ele>
        <time>2015-10-12T07:17:18Z</time>
      </trkpt>
      <trkpt lat="44.19464" lon="3.14736">
        <ele>526</ele>
        <time>2015-10-12T07:19:18Z</time>
      </trkpt>
      <trkpt lat="44.19464" lon="3.14738">
        <ele>526</ele>
        <time>2015-10-12T07:21:18Z</time>
      </trkpt>
      <trkpt lat="44.19467" lon="3.14755">
        <ele>531</ele>
        <time>2015-10-12T07:23:18Z</time>
      </trkpt>
      <trkpt lat="44.19468" lon="3.14758">
        <ele>532</ele>
        <time>2015-10-12T07:25:18Z</time>
      </trkpt>
      <trkpt lat="44.19469" lon="3.1476">
        <ele>533</ele>
        <time>2015-10-12T07:27:18Z</time>
      </trkpt>
      <trkpt lat="44.19468" lon="3.14766">
        <ele>533</ele>
        <time>2015-10-12T07:29:18Z</time>
      </trkpt>
      <trkpt lat="44.19467" lon="3.1477">
        <ele>533</ele>
        <time>2015-10-12T07:31:18Z</time>
      </trkpt>
      <trkpt lat="44.19468" lon="3.14781">
        <ele>536</ele>
        <time>2015-10-12T07:33:18Z</time>
      </trkpt>
      <trkpt lat="44.19465" lon="3.14793">
        <ele>535</ele>
        <time>2015-10-12T07:35:18Z</time>
      </trkpt>
      <trkpt lat="44.19465" lon="3.14804">
        <ele>537</ele>
        <time>2015-10-12T07:37:18Z</time>
      </trkpt>
      <trkpt lat="44.19464" lon="3.14815">
        <ele>538</ele>
        <time>2015-10-12T07:39:18Z</time>
      </trkpt>
      <trkpt lat="44.19461" lon="3.14819">
        <ele>537</ele>
        <time>2015-10-12T07:41:18Z</time>
      </trkpt>
      <trkpt lat="44.19455" lon="3.1484">
        <ele>536</ele>
        <time>2015-10-12T07:43:18Z</time>
      </trkpt>
      <trkpt lat="44.1945" lon="3.14854">
        <ele>535</ele>
        <time>2015-10-12T07:45:18Z</time>
      </trkpt>
      <trkpt lat="44.19449" lon="3.1487">
        <ele>535</ele>
        <time>2015-10-12T07:47:18Z</time>
      </trkpt>
      <trkpt lat="44.19449" lon="3.14882">
        <ele>535</ele>
        <time>2015-10-12T07:49:18Z</time>
      </trkpt>
      <trkpt lat="44.19448" lon="3.14893">
        <ele>536</ele>
        <time>2015-10-12T07:51:18Z</time>
      </trkpt>
      <trkpt lat="44.19451" lon="3.14898">
        <ele>536</ele>
        <time>2015-10-12T07:53:18Z</time>
      </trkpt>
      <trkpt lat="44.19463" lon="3.14901">
        <ele>538</ele>
        <time>2015-10-12T07:55:18Z</time>
      </trkpt>
      <trkpt lat="44.19473" lon="3.14893">
        <ele>541</ele>
        <time>2015-10-12T07:57:18Z</time>
      </trkpt>
      <trkpt lat="44.19474" lon="3.14891">
        <ele>541</ele>
        <time>2015-10-12T07:59:18Z</time>
      </trkpt>
      <trkpt lat="44.19482" lon="3.14884">
        <ele>544</ele>
        <time>2015-10-12T08:01:18Z</time>
      </trkpt>
      <trkpt lat="44.19493" lon="3.14874">
        <ele>548</ele>
        <time>2015-10-12T08:03:18Z</time>
      </trkpt>
      <trkpt lat="44.19505" lon="3.14868">
        <ele>551</ele>
        <time>2015-10-12T08:05:18Z</time>
      </trkpt>
      <trkpt lat="44.19514" lon="3.14865">
        <ele>549</ele>
        <time>2015-10-12T08:07:18Z</time>
      </trkpt>
      <trkpt lat="44.1953" lon="3.14855">
        <ele>549</ele>
        <time>2015-10-12T08:09:18Z</time>
      </trkpt>
      <trkpt lat="44.1954" lon="3.14848">
        <ele>549</ele>
        <time>2015-10-12T08:11:18Z</time>
      </trkpt>
      <trkpt lat="44.19549" lon="3.1484">
        <ele>549</ele>
        <time>2015-10-12T08:13:18Z</time>
      </trkpt>
      <trkpt lat="44.19558" lon="3.14835">
        <ele>549</ele>
        <time>2015-10-12T08:15:18Z</time>
      </trkpt>
      <trkpt lat="44.19571" lon="3.14831">
        <ele>548</ele>
        <time>2015-10-12T08:17:18Z</time>
      </trkpt>
      <trkpt lat="44.19582" lon="3.1483">
        <ele>546</ele>
        <time>2015-10-12T08:19:18Z</time>
      </trkpt>
      <trkpt lat="44.19594" lon="3.14832">
        <ele>543</ele>
        <time>2015-10-12T08:21:18Z</time>
      </trkpt>
      <trkpt lat="44.19611" lon="3.14834">
        <ele>539</ele>
        <time>2015-10-12T08:23:18Z</time>
      </trkpt>
      <trkpt lat="44.19627" lon="3.14836">
        <ele>535</ele>
        <time>2015-10-12T08:25:18Z</time>
      </trkpt>
      <trkpt lat="44.19642" lon="3.14839">
        <ele>531</ele>
        <time>2015-10-12T08:27:18Z</time>
      </trkpt>
      <trkpt lat="44.19655" lon="3.14841">
        <ele>528</ele>
        <time>2015-10-12T08:29:18Z</time>
      </trkpt>
      <trkpt lat="44.1967" lon="3.1484">
        <ele>526</ele>
        <time>2015-10-12T08:31:18Z</time>
      </trkpt>
      <trkpt lat="44.19682" lon="3.14839">
        <ele>525</ele>
        <time>2015-10-12T08:33:18Z</time>
      </trkpt>
      <trkpt lat="44.19707" lon="3.14836">
        <ele>522</ele>
        <time>2015-10-12T08:35:18Z</time>
      </trkpt>
      <trkpt lat="44.19718" lon="3.14837">
        <ele>520</ele>
        <time>2015-10-12T08:37:18Z</time>
      </trkpt>
      <trkpt lat="44.19732" lon="3.14841">
        <ele>517</ele>
        <time>2015-10-12T08:39:18Z</time>
      </trkpt>
      <trkpt lat="44.19745" lon="3.14842">
        <ele>516</ele>
        <time>2015-10-12T08:41:18Z</time>
      </trkpt>
      <trkpt lat="44.19759" lon="3.14844">
        <ele>513</ele>
        <time>2015-10-12T08:43:18Z</time>
      </trkpt>
      <trkpt lat="44.1977" lon="3.14846">
        <ele>510</ele>
        <time>2015-10-12T08:45:18Z</time>
      </trkpt>
      <trkpt lat="44.19778" lon="3.14844">
        <ele>509</ele>
        <time>2015-10-12T08:47:18Z</time>
      </trkpt>
      <trkpt lat="44.19789" lon="3.14843">
        <ele>508</ele>
        <time>2015-10-12T08:49:18Z</time>
      </trkpt>
      <trkpt lat="44.19807" lon="3.14839">
        <ele>505</ele>
        <time>2015-10-12T08:51:18Z</time>
      </trkpt>
      <trkpt lat="44.1982" lon="3.14838">
        <ele>503</ele>
        <time>2015-10-12T08:53:18Z</time>
      </trkpt>
      <trkpt lat="44.1983" lon="3.14839">
        <ele>501</ele>
        <time>2015-10-12T08:55:18Z</time>
      </trkpt>
      <trkpt lat="44.19838" lon="3.14839">
        <ele>500</ele>
        <time>2015-10-12T08:57:18Z</time>
      </trkpt>
      <trkpt lat="44.19854" lon="3.14842">
        <ele>497</ele>
        <time>2015-10-12T08:59:18Z</time>
      </trkpt>
      <trkpt lat="44.19864" lon="3.14846">
        <ele>495</ele>
        <time>2015-10-12T09:01:18Z</time>
      </trkpt>
      <trkpt lat="44.19872" lon="3.14851">
        <ele>492</ele>
        <time>2015-10-12T09:03:18Z</time>
      </trkpt>
      <trkpt lat="44.19879" lon="3.14859">
        <ele>490</ele>
        <time>2015-10-12T09:05:18Z</time>
      </trkpt>
      <trkpt lat="44.19884" lon="3.1487">
        <ele>486</ele>
        <time>2015-10-12T09:07:18Z</time>
      </trkpt>
      <trkpt lat="44.19886" lon="3.14878">
        <ele>484</ele>
        <time>2015-10-12T09:09:18Z</time>
      </trkpt>
      <trkpt lat="44.19897" lon="3.14898">
        <ele>478</ele>
        <time>2015-10-12T09:11:18Z</time>
      </trkpt>
      <trkpt lat="44.19905" lon="3.14902">
        <ele>477</ele>
        <time>2015-10-12T09:13:18Z</time>
      </trkpt>
      <trkpt lat="44.1991" lon="3.14903">
        <ele>476</ele>
        <time>2015-10-12T09:15:18Z</time>
      </trkpt>
      <trkpt lat="44.19921" lon="3.14904">
        <ele>475</ele>
        <time>2015-10-12T09:17:18Z</time>
      </trkpt>
      <trkpt lat="44.19938" lon="3.14903">
        <ele>477</ele>
        <time>2015-10-12T09:19:18Z</time>
      </trkpt>
      <trkpt lat="44.19945" lon="3.14907">
        <ele>476</ele>
        <time>2015-10-12T09:21:18Z</time>
      </trkpt>
      <trkpt lat="44.19954" lon="3.14913">
        <ele>476</ele>
        <time>2015-10-12T09:23:18Z</time>
      </trkpt>
      <trkpt lat="44.19966" lon="3.14924">
        <ele>475</ele>
        <time>2015-10-12T09:25:18Z</time>
      </trkpt>
      <trkpt lat="44.19972" lon="3.14935">
        <ele>474</ele>
        <time>2015-10-12T09:27:18Z</time>
      </trkpt>
      <trkpt lat="44.19977" lon="3.14944">
        <ele>473</ele>
        <time>2015-10-12T09:29:18Z</time>
      </trkpt>
      <trkpt lat="44.19984" lon="3.14958">
        <ele>471</ele>
        <time>2015-10-12T09:31:18Z</time>
      </trkpt>
      <trkpt lat="44.19988" lon="3.14971">
        <ele>470</ele>
        <time>2015-10-12T09:33:18Z</time>
      </trkpt>
      <trkpt lat="44.19989" lon="3.14983">
        <ele>468</ele>
        <time>2015-10-12T09:35:18Z</time>
      </trkpt>
      <trkpt lat="44.19996" lon="3.15003">
        <ele>466</ele>
        <time>2015-10-12T09:37:18Z</time>
      </trkpt>
      <trkpt lat="44.20011" lon="3.1504">
        <ele>463</ele>
        <time>2015-10-12T09:39:18Z</time>
      </trkpt>
      <trkpt lat="44.20023" lon="3.15079">
        <ele>460</ele>
        <time>2015-10-12T09:41:18Z</time>
      </trkpt>
      <trkpt lat="44.20027" lon="3.15096">
        <ele>458</ele>
        <time>2015-10-12T09:43:18Z</time>
      </trkpt>
      <trkpt lat="44.20036" lon="3.15116">
        <ele>457</ele>
        <time>2015-10-12T09:45:18Z</time>
      </trkpt>
      <trkpt lat="44.20044" lon="3.15132">
        <ele>456</ele>
        <time>2015-10-12T09:47:18Z</time>
      </trkpt>
      <trkpt lat="44.20052" lon="3.1515">
        <ele>454</ele>
        <time>2015-10-12T09:49:18Z</time>
      </trkpt>
      <trkpt lat="44.20058" lon="3.15163">
        <ele>453</ele>
        <time>2015-10-12T09:51:18Z</time>
      </trkpt>
      <trkpt lat="44.20068" lon="3.15204">
        <ele>447</ele>
        <time>2015-10-12T09:53:18Z</time>
      </trkpt>
      <trkpt lat="44.20072" lon="3.15221">
        <ele>445</ele>
        <time>2015-10-12T09:55:18Z</time>
      </trkpt>
      <trkpt lat="44.20078" lon="3.15236">
        <ele>444</ele>
        <time>2015-10-12T09:57:18Z</time>
      </trkpt>
      <trkpt lat="44.20085" lon="3.15251">
        <ele>442</ele>
        <time>2015-10-12T09:59:18Z</time>
      </trkpt>
      <trkpt lat="44.20094" lon="3.15263">
        <ele>441</ele>
        <time>2015-10-12T10:01:18Z</time>
      </trkpt>
      <trkpt lat="44.20106" lon="3.15275">
        <ele>440</ele>
        <time>2015-10-12T10:03:18Z</time>
      </trkpt>
      <trkpt lat="44.20119" lon="3.15281">
        <ele>440</ele>
        <time>2015-10-12T10:05:18Z</time>
      </trkpt>
      <trkpt lat="44.2013" lon="3.15293">
        <ele>440</ele>
        <time>2015-10-12T10:07:18Z</time>
      </trkpt>
      <trkpt lat="44.20136" lon="3.15315">
        <ele>438</ele>
        <time>2015-10-12T10:09:18Z</time>
      </trkpt>
      <trkpt lat="44.20139" lon="3.15332">
        <ele>436</ele>
        <time>2015-10-12T10:11:18Z</time>
      </trkpt>
      <trkpt lat="44.20144" lon="3.15352">
        <ele>434</ele>
        <time>2015-10-12T10:13:18Z</time>
      </trkpt>
      <trkpt lat="44.20151" lon="3.15372">
        <ele>433</ele>
        <time>2015-10-12T10:15:18Z</time>
      </trkpt>
      <trkpt lat="44.2016" lon="3.15389">
        <ele>432</ele>
        <time>2015-10-12T10:17:18Z</time>
      </trkpt>
      <trkpt lat="44.20176" lon="3.15418">
        <ele>432</ele>
        <time>2015-10-12T10:19:18Z</time>
      </trkpt>
      <trkpt lat="44.20195" lon="3.15451">
        <ele>430</ele>
        <time>2015-10-12T10:21:18Z</time>
      </trkpt>
      <trkpt lat="44.20205" lon="3.1547">
        <ele>428</ele>
        <time>2015-10-12T10:23:18Z</time>
      </trkpt>
      <trkpt lat="44.20216" lon="3.15487">
        <ele>426</ele>
        <time>2015-10-12T10:25:18Z</time>
      </trkpt>
      <trkpt lat="44.20231" lon="3.15498">
        <ele>424</ele>
        <time>2015-10-12T10:27:18Z</time>
      </trkpt>
      <trkpt lat="44.20242" lon="3.15509">
        <ele>422</ele>
        <time>2015-10-12T10:29:18Z</time>
      </trkpt>
      <trkpt lat="44.20251" lon="3.15522">
        <ele>420</ele>
        <time>2015-10-12T10:31:18Z</time>
      </trkpt>
      <trkpt lat="44.20261" lon="3.15533">
        <ele>418</ele>
        <time>2015-10-12T10:33:18Z</time>
      </trkpt>
      <trkpt lat="44.20265" lon="3.15535">
        <ele>418</ele>
        <time>2015-10-12T10:35:18Z</time>
      </trkpt>
      <trkpt lat="44.20279" lon="3.15541">
        <ele>417</ele>
        <time>2015-10-12T10:37:18Z</time>
      </trkpt>
      <trkpt lat="44.20292" lon="3.15547">
        <ele>416</ele>
        <time>2015-10-12T10:39:18Z</time>
      </trkpt>
      <trkpt lat="44.20302" lon="3.15556">
        <ele>414</ele>
        <time>2015-10-12T10:41:18Z</time>
      </trkpt>
      <trkpt lat="44.20312" lon="3.15565">
        <ele>413</ele>
        <time>2015-10-12T10:43:18Z</time>
      </trkpt>
      <trkpt lat="44.20322" lon="3.15573">
        <ele>411</ele>
        <time>2015-10-12T10:45:18Z</time>
      </trkpt>
      <trkpt lat="44.20331" lon="3.15582">
        <ele>408</ele>
        <time>2015-10-12T10:47:18Z</time>
      </trkpt>
      <trkpt lat="44.20345" lon="3.15596">
        <ele>406</ele>
        <time>2015-10-12T10:49:18Z</time>
      </trkpt>
      <trkpt lat="44.20359" lon="3.15609">
        <ele>404</ele>
        <time>2015-10-12T10:51:18Z</time>
      </trkpt>
      <trkpt lat="44.20371" lon="3.15618">
        <ele>403</ele>
        <time>2015-10-12T10:53:18Z</time>
      </trkpt>
      <trkpt lat="44.20381" lon="3.15626">
        <ele>402</ele>
        <time>2015-10-12T10:55:18Z</time>
      </trkpt>
      <trkpt lat="44.20397" lon="3.15637">
        <ele>400</ele>
        <time>2015-10-12T10:57:18Z</time>
      </trkpt>
      <trkpt lat="44.20404" lon="3.15642">
        <ele>399</ele>
        <time>2015-10-12T10:59:18Z</time>
      </trkpt>
      <trkpt lat="44.20416" lon="3.1564">
        <ele>400</ele>
        <time>2015-10-12T11:01:18Z</time>
      </trkpt>
      <trkpt lat="44.20436" lon="3.15642">
        <ele>399</ele>
        <time>2015-10-12T11:03:18Z</time>
      </trkpt>
      <trkpt lat="44.20449" lon="3.15644">
        <ele>398</ele>
        <time>2015-10-12T11:05:18Z</time>
      </trkpt>
      <trkpt lat="44.20462" lon="3.15648">
        <ele>396</ele>
        <time>2015-10-12T11:07:18Z</time>
      </trkpt>
      <trkpt lat="44.20474" lon="3.15652">
        <ele>395</ele>
        <time>2015-10-12T11:09:18Z</time>
      </trkpt>
      <trkpt lat="44.20498" lon="3.15655">
        <ele>393</ele>
        <time>2015-10-12T11:11:18Z</time>
      </trkpt>
      <trkpt lat="44.20499" lon="3.15663">
        <ele>392</ele>
        <time>2015-10-12T11:13:18Z</time>
      </trkpt>
      <trkpt lat="44.20499" lon="3.15675">
        <ele>391</ele>
        <time>2015-10-12T11:15:18Z</time>
      </trkpt>
      <trkpt lat="44.205" lon="3.15703">
        <ele>390</ele>
        <time>2015-10-12T11:17:18Z</time>
      </trkpt>
      <trkpt lat="44.20501" lon="3.15724">
        <ele>390</ele>
        <time>2015-10-12T11:19:18Z</time>
      </trkpt>
      <trkpt lat="44.20499" lon="3.15732">
        <ele>389</ele>
        <time>2015-10-12T11:21:18Z</time>
      </trkpt>
      <trkpt lat="44.20495" lon="3.15739">
        <ele>389</ele>
        <time>2015-10-12T11:23:18Z</time>
      </trkpt>
      <trkpt lat="44.20491" lon="3.15756">
        <ele>389</ele>
        <time>2015-10-12T11:25:18Z</time>
      </trkpt>
      <trkpt lat="44.20493" lon="3.15766">
        <ele>390</ele>
        <time>2015-10-12T11:27:18Z</time>
      </trkpt>
      <trkpt lat="44.2049" lon="3.15783">
        <ele>390</ele>
        <time>2015-10-12T11:29:18Z</time>
      </trkpt>
      <trkpt lat="44.20488" lon="3.15806">
        <ele>391</ele>
        <time>2015-10-12T11:31:18Z</time>
      </trkpt>
      <trkpt lat="44.20489" lon="3.15815">
        <ele>392</ele>
        <time>2015-10-12T11:33:18Z</time>
      </trkpt>
      <trkpt lat="44.20481" lon="3.15823">
        <ele>391</ele>
        <time>2015-10-12T11:35:18Z</time>
      </trkpt>
      <trkpt lat="44.20472" lon="3.15824">
        <ele>391</ele>
        <time>2015-10-12T11:37:18Z</time>
      </trkpt>
      <trkpt lat="44.20465" lon="3.15825">
        <ele>391</ele>
        <time>2015-10-12T11:39:18Z</time>
      </trkpt>
      <trkpt lat="44.20449" lon="3.15828">
        <ele>390</ele>
        <time>2015-10-12T11:41:18Z</time>
      </trkpt>
      <trkpt lat="44.20437" lon="3.15832">
        <ele>389</ele>
        <time>2015-10-12T11:43:18Z</time>
      </trkpt>
      <trkpt lat="44.20426" lon="3.15835">
        <ele>389</ele>
        <time>2015-10-12T11:45:18Z</time>
      </trkpt>
      <trkpt lat="44.20402" lon="3.15836">
        <ele>388</ele>
        <time>2015-10-12T11:47:18Z</time>
      </trkpt>
      <trkpt lat="44.20389" lon="3.15838">
        <ele>388</ele>
        <time>2015-10-12T11:49:18Z</time>
      </trkpt>
      <trkpt lat="44.20374" lon="3.15844">
        <ele>388</ele>
        <time>2015-10-12T11:51:18Z</time>
      </trkpt>
      <trkpt lat="44.20362" lon="3.15848">
        <ele>388</ele>
        <time>2015-10-12T11:53:18Z</time>
      </trkpt>
      <trkpt lat="44.20364" lon="3.15862">
        <ele>389</ele>
        <time>2015-10-12T11:55:18Z</time>
      </trkpt>
      <trkpt lat="44.20367" lon="3.15873">
        <ele>389</ele>
        <time>2015-10-12T11:57:18Z</time>
      </trkpt>
      <trkpt lat="44.20368" lon="3.15888">
        <ele>390</ele>
        <time>2015-10-12T11:59:18Z</time>
      </trkpt>
      <trkpt lat="44.20362" lon="3.15906">
        <ele>391</ele>
        <time>2015-10-12T12:01:18Z</time>
      </trkpt>
      <trkpt lat="44.20357" lon="3.15912">
        <ele>391</ele>
        <time>2015-10-12T12:03:18Z</time>
      </trkpt>
      <trkpt lat="44.20349" lon="3.15917">
        <ele>391</ele>
        <time>2015-10-12T12:05:18Z</time>
      </trkpt>
      <trkpt lat="44.2034" lon="3.15924">
        <ele>391</ele>
        <time>2015-10-12T12:07:18Z</time>
      </trkpt>
      <trkpt lat="44.20326" lon="3.15932">
        <ele>392</ele>
        <time>2015-10-12T12:09:18Z</time>
      </trkpt>
      <trkpt lat="44.20308" lon="3.1594">
        <ele>392</ele>
        <time>2015-10-12T12:11:18Z</time>
      </trkpt>
      <trkpt lat="44.20298" lon="3.15944">
        <ele>392</ele>
        <time>2015-10-12T12:13:18Z</time>
      </trkpt>
      <trkpt lat="44.20284" lon="3.15951">
        <ele>392</ele>
        <time>2015-10-12T12:15:18Z</time>
      </trkpt>
      <trkpt lat="44.20266" lon="3.1596">
        <ele>393</ele>
        <time>2015-10-12T12:17:18Z</time>
      </trkpt>
      <trkpt lat="44.20253" lon="3.15965">
        <ele>393</ele>
        <time>2015-10-12T12:19:18Z</time>
      </trkpt>
      <trkpt lat="44.20245" lon="3.15969">
        <ele>393</ele>
        <time>2015-10-12T12:21:18Z</time>
      </trkpt>
      <trkpt lat="44.20233" lon="3.15971">
        <ele>392</ele>
        <time>2015-10-12T12:23:18Z</time>
      </trkpt>
      <trkpt lat="44.20225" lon="3.15972">
        <ele>392</ele>
        <time>2015-10-12T12:25:18Z</time>
      </trkpt>
      <trkpt lat="44.20219" lon="3.15973">
        <ele>392</ele>
        <time>2015-10-12T12:27:18Z</time>
      </trkpt>
      <trkpt lat="44.20196" lon="3.15988">
        <ele>392</ele>
        <time>2015-10-12T12:29:18Z</time>
      </trkpt>
      <trkpt lat="44.20182" lon="3.15994">
        <ele>391</ele>
        <time>2015-10-12T12:31:18Z</time>
      </trkpt>
      <trkpt lat="44.20178" lon="3.15996">
        <ele>391</ele>
        <time>2015-10-12T12:33:18Z</time>
      </trkpt>
      <trkpt lat="44.20172" lon="3.15997">
        <ele>391</ele>
        <time>2015-10-12T12:35:18Z</time>
      </trkpt>
      <trkpt lat="44.2017" lon="3.16008">
        <ele>393</ele>
        <time>2015-10-12T12:37:18Z</time>
      </trkpt>
      <trkpt lat="44.20172" lon="3.16012">
        <ele>394</ele>
        <time>2015-10-12T12:39:18Z</time>
      </trkpt>
      <trkpt lat="44.20172" lon="3.16017">
        <ele>396</ele>
        <time>2015-10-12T12:41:18Z</time>
      </trkpt>
      <trkpt lat="44.20174" lon="3.16022">
        <ele>397</ele>
        <time>2015-10-12T12:43:18Z</time>
      </trkpt>
      <trkpt lat="44.20177" lon="3.16028">
        <ele>399</ele>
        <time>2015-10-12T12:45:18Z</time>
      </trkpt>
      <trkpt lat="44.20177" lon="3.16036">
        <ele>401</ele>
        <time>2015-10-12T12:47:18Z</time>
      </trkpt>
      <trkpt lat="44.20179" lon="3.16037">
        <ele>402</ele>
        <time>2015-10-12T12:49:18Z</time>
      </trkpt>
      <trkpt lat="44.20179" lon="3.16042">
        <ele>403</ele>
        <time>2015-10-12T12:51:18Z</time>
      </trkpt>
      <trkpt lat="44.2018" lon="3.16047">
        <ele>405</ele>
        <time>2015-10-12T12:53:18Z</time>
      </trkpt>
      <trkpt lat="44.20183" lon="3.16049">
        <ele>406</ele>
        <time>2015-10-12T12:55:18Z</time>
      </trkpt>
      <trkpt lat="44.20184" lon="3.16054">
        <ele>407</ele>
        <time>2015-10-12T12:57:18Z</time>
      </trkpt>
      <trkpt lat="44.20183" lon="3.16057">
        <ele>408</ele>
        <time>2015-10-12T12:59:18Z</time>
      </trkpt>
      <trkpt lat="44.20183" lon="3.16064">
        <ele>410</ele>
        <time>2015-10-12T13:01:18Z</time>
      </trkpt>
      <trkpt lat="44.20182" lon="3.16069">
        <ele>411</ele>
        <time>2015-10-12T13:03:18Z</time>
      </trkpt>
      <trkpt lat="44.20184" lon="3.16072">
        <ele>412</ele>
        <time>2015-10-12T13:05:18Z</time>
      </trkpt>
      <trkpt lat="44.20186" lon="3.16075">
        <ele>414</ele>
        <time>2015-10-12T13:07:18Z</time>
      </trkpt>
      <trkpt lat="44.20193" lon="3.16076">
        <ele>416</ele>
        <time>2015-10-12T13:09:18Z</time>
      </trkpt>
      <trkpt lat="44.20199" lon="3.16074">
        <ele>417</ele>
        <time>2015-10-12T13:11:18Z</time>
      </trkpt>
      <trkpt lat="44.20201" lon="3.16074">
        <ele>418</ele>
        <time>2015-10-12T13:13:18Z</time>
      </trkpt>
      <trkpt lat="44.20206" lon="3.16077">
        <ele>421</ele>
        <time>2015-10-12T13:15:18Z</time>
      </trkpt>
      <trkpt lat="44.20207" lon="3.16078">
        <ele>421</ele>
        <time>2015-10-12T13:17:18Z</time>
      </trkpt>
      <trkpt lat="44.20212" lon="3.16077">
        <ele>422</ele>
        <time>2015-10-12T13:19:18Z</time>
      </trkpt>
      <trkpt lat="44.20211" lon="3.1608">
        <ele>423</ele>
        <time>2015-10-12T13:21:18Z</time>
      </trkpt>
      <trkpt lat="44.20209" lon="3.16079">
        <ele>422</ele>
        <time>2015-10-12T13:23:18Z</time>
      </trkpt>
      <trkpt lat="44.20209" lon="3.16084">
        <ele>424</ele>
        <time>2015-10-12T13:25:18Z</time>
      </trkpt>
      <trkpt lat="44.20209" lon="3.16089">
        <ele>426</ele>
        <time>2015-10-12T13:27:18Z</time>
      </trkpt>
      <trkpt lat="44.20208" lon="3.1609">
        <ele>426</ele>
        <time>2015-10-12T13:29:18Z</time>
      </trkpt>
      <trkpt lat="44.20202" lon="3.16093">
        <ele>426</ele>
        <time>2015-10-12T13:31:18Z</time>
      </trkpt>
      <trkpt lat="44.202" lon="3.16094">
        <ele>425</ele>
        <time>2015-10-12T13:33:18Z</time>
      </trkpt>
      <trkpt lat="44.20196" lon="3.16102">
        <ele>427</ele>
        <time>2015-10-12T13:35:18Z</time>
      </trkpt>
      <trkpt lat="44.2019" lon="3.16108">
        <ele>428</ele>
        <time>2015-10-12T13:37:18Z</time>
      </trkpt>
      <trkpt lat="44.20188" lon="3.16116">
        <ele>430</ele>
        <time>2015-10-12T13:39:18Z</time>
      </trkpt>
      <trkpt lat="44.20182" lon="3.16117">
        <ele>428</ele>
        <time>2015-10-12T13:41:18Z</time>
      </trkpt>
      <trkpt lat="44.20179" lon="3.16119">
        <ele>428</ele>
        <time>2015-10-12T13:43:18Z</time>
      </trkpt>
      <trkpt lat="44.20177" lon="3.16121">
        <ele>428</ele>
        <time>2015-10-12T13:45:18Z</time>
      </trkpt>
      <trkpt lat="44.20176" lon="3.16123">
        <ele>428</ele>
        <time>2015-10-12T13:47:18Z</time>
      </trkpt>
      <trkpt lat="44.20174" lon="3.16128">
        <ele>429</ele>
        <time>2015-10-12T13:49:18Z</time>
      </trkpt>
      <trkpt lat="44.20174" lon="3.16134">
        <ele>431</ele>
        <time>2015-10-12T13:51:18Z</time>
      </trkpt>
      <trkpt lat="44.20173" lon="3.16138">
        <ele>432</ele>
        <time>2015-10-12T13:53:18Z</time>
      </trkpt>
      <trkpt lat="44.20172" lon="3.16146">
        <ele>435</ele>
        <time>2015-10-12T13:55:18Z</time>
      </trkpt>
      <trkpt lat="44.20173" lon="3.16153">
        <ele>438</ele>
        <time>2015-10-12T13:57:18Z</time>
      </trkpt>
      <trkpt lat="44.20176" lon="3.16157">
        <ele>441</ele>
        <time>2015-10-12T13:59:18Z</time>
      </trkpt>
      <trkpt lat="44.20178" lon="3.16161">
        <ele>443</ele>
        <time>2015-10-12T14:01:18Z</time>
      </trkpt>
      <trkpt lat="44.20179" lon="3.16169">
        <ele>446</ele>
        <time>2015-10-12T14:03:18Z</time>
      </trkpt>
      <trkpt lat="44.20181" lon="3.16173">
        <ele>447</ele>
        <time>2015-10-12T14:05:18Z</time>
      </trkpt>
      <trkpt lat="44.20182" lon="3.16182">
        <ele>449</ele>
        <time>2015-10-12T14:07:18Z</time>
      </trkpt>
      <trkpt lat="44.20182" lon="3.16184">
        <ele>449</ele>
        <time>2015-10-12T14:09:18Z</time>
      </trkpt>
      <trkpt lat="44.20185" lon="3.16184">
        <ele>451</ele>
        <time>2015-10-12T14:11:18Z</time>
      </trkpt>
      <trkpt lat="44.20189" lon="3.16183">
        <ele>452</ele>
        <time>2015-10-12T14:13:18Z</time>
      </trkpt>
      <trkpt lat="44.20192" lon="3.16182">
        <ele>454</ele>
        <time>2015-10-12T14:15:18Z</time>
      </trkpt>
      <trkpt lat="44.20196" lon="3.16179">
        <ele>456</ele>
        <time>2015-10-12T14:17:18Z</time>
      </trkpt>
      <trkpt lat="44.20202" lon="3.16179">
        <ele>459</ele>
        <time>2015-10-12T14:19:18Z</time>
      </trkpt>
      <trkpt lat="44.20204" lon="3.16183">
        <ele>460</ele>
        <time>2015-10-12T14:21:18Z</time>
      </trkpt>
      <trkpt lat="44.20202" lon="3.16188">
        <ele>460</ele>
        <time>2015-10-12T14:23:18Z</time>
      </trkpt>
      <trkpt lat="44.20205" lon="3.16193">
        <ele>462</ele>
        <time>2015-10-12T14:25:18Z</time>
      </trkpt>
      <trkpt lat="44.20207" lon="3.16198">
        <ele>464</ele>
        <time>2015-10-12T14:27:18Z</time>
      </trkpt>
      <trkpt lat="44.20208" lon="3.16201">
        <ele>465</ele>
        <time>2015-10-12T14:29:18Z</time>
      </trkpt>
      <trkpt lat="44.2021" lon="3.16206">
        <ele>466</ele>
        <time>2015-10-12T14:31:18Z</time>
      </trkpt>
      <trkpt lat="44.2021" lon="3.16213">
        <ele>467</ele>
        <time>2015-10-12T14:33:18Z</time>
      </trkpt>
      <trkpt lat="44.2021" lon="3.1622">
        <ele>468</ele>
        <time>2015-10-12T14:35:18Z</time>
      </trkpt>
      <trkpt lat="44.20213" lon="3.16224">
        <ele>471</ele>
        <time>2015-10-12T14:37:18Z</time>
      </trkpt>
      <trkpt lat="44.20215" lon="3.1623">
        <ele>473</ele>
        <time>2015-10-12T14:39:18Z</time>
      </trkpt>
      <trkpt lat="44.20215" lon="3.16235">
        <ele>473</ele>
        <time>2015-10-12T14:41:18Z</time>
      </trkpt>
      <trkpt lat="44.20218" lon="3.16239">
        <ele>476</ele>
        <time>2015-10-12T14:43:18Z</time>
      </trkpt>
      <trkpt lat="44.2022" lon="3.16241">
        <ele>477</ele>
        <time>2015-10-12T14:45:18Z</time>
      </trkpt>
      <trkpt lat="44.20221" lon="3.16245">
        <ele>478</ele>
        <time>2015-10-12T14:47:18Z</time>
      </trkpt>
      <trkpt lat="44.20224" lon="3.16248">
        <ele>481</ele>
        <time>2015-10-12T14:49:18Z</time>
      </trkpt>
      <trkpt lat="44.20226" lon="3.16255">
        <ele>482</ele>
        <time>2015-10-12T14:51:18Z</time>
      </trkpt>
      <trkpt lat="44.20231" lon="3.16263">
        <ele>485</ele>
        <time>2015-10-12T14:53:18Z</time>
      </trkpt>
      <trkpt lat="44.20235" lon="3.1627">
        <ele>488</ele>
        <time>2015-10-12T14:55:18Z</time>
      </trkpt>
      <trkpt lat="44.20238" lon="3.16275">
        <ele>490</ele>
        <time>2015-10-12T14:57:18Z</time>
      </trkpt>
      <trkpt lat="44.20242" lon="3.1628">
        <ele>493</ele>
        <time>2015-10-12T14:59:18Z</time>
      </trkpt>
      <trkpt lat="44.20245" lon="3.16283">
        <ele>495</ele>
        <time>2015-10-12T15:01:18Z</time>
      </trkpt>
      <trkpt lat="44.20248" lon="3.16288">
        <ele>497</ele>
        <time>2015-10-12T15:03:18Z</time>
      </trkpt>
      <trkpt lat="44.20255" lon="3.16296">
        <ele>500</ele>
        <time>2015-10-12T15:05:18Z</time>
      </trkpt>
      <trkpt lat="44.20256" lon="3.16298">
        <ele>501</ele>
        <time>2015-10-12T15:07:18Z</time>
      </trkpt>
      <trkpt lat="44.20256" lon="3.16302">
        <ele>501</ele>
        <time>2015-10-12T15:09:18Z</time>
      </trkpt>
      <trkpt lat="44.20261" lon="3.16309">
        <ele>503</ele>
        <time>2015-10-12T15:11:18Z</time>
      </trkpt>
      <trkpt lat="44.20265" lon="3.16313">
        <ele>505</ele>
        <time>2015-10-12T15:13:18Z</time>
      </trkpt>
      <trkpt lat="44.20271" lon="3.16315">
        <ele>507</ele>
        <time>2015-10-12T15:15:18Z</time>
      </trkpt>
      <trkpt lat="44.20274" lon="3.16317">
        <ele>509</ele>
        <time>2015-10-12T15:17:18Z</time>
      </trkpt>
      <trkpt lat="44.20277" lon="3.16319">
        <ele>510</ele>
        <time>2015-10-12T15:19:18Z</time>
      </trkpt>
      <trkpt lat="44.20279" lon="3.16322">
        <ele>511</ele>
        <time>2015-10-12T15:21:18Z</time>
      </trkpt>
      <trkpt lat="44.20279" lon="3.16327">
        <ele>512</ele>
        <time>2015-10-12T15:23:18Z</time>
      </trkpt>
      <trkpt lat="44.20284" lon="3.16336">
        <ele>514</ele>
        <time>2015-10-12T15:25:18Z</time>
      </trkpt>
      <trkpt lat="44.20286" lon="3.16345">
        <ele>515</ele>
        <time>2015-10-12T15:27:18Z</time>
      </trkpt>
      <trkpt lat="44.2029" lon="3.16346">
        <ele>516</ele>
        <time>2015-10-12T15:29:18Z</time>
      </trkpt>
      <trkpt lat="44.20293" lon="3.1635">
        <ele>518</ele>
        <time>2015-10-12T15:31:18Z</time>
      </trkpt>
      <trkpt lat="44.20297" lon="3.16352">
        <ele>519</ele>
        <time>2015-10-12T15:33:18Z</time>
      </trkpt>
      <trkpt lat="44.20301" lon="3.1635">
        <ele>521</ele>
        <time>2015-10-12T15:35:18Z</time>
      </trkpt>
      <trkpt lat="44.20303" lon="3.16354">
        <ele>522</ele>
        <time>2015-10-12T15:37:18Z</time>
      </trkpt>
      <trkpt lat="44.20305" lon="3.16357">
        <ele>523</ele>
        <time>2015-10-12T15:39:18Z</time>
      </trkpt>
      <trkpt lat="44.20307" lon="3.16358">
        <ele>524</ele>
        <time>2015-10-12T15:41:18Z</time>
      </trkpt>
      <trkpt lat="44.2031" lon="3.16361">
        <ele>526</ele>
        <time>2015-10-12T15:43:18Z</time>
      </trkpt>
      <trkpt lat="44.20313" lon="3.16363">
        <ele>527</ele>
        <time>2015-10-12T15:45:18Z</time>
      </trkpt>
      <trkpt lat="44.20316" lon="3.16363">
        <ele>529</ele>
        <time>2015-10-12T15:47:18Z</time>
      </trkpt>
      <trkpt lat="44.20318" lon="3.16366">
        <ele>530</ele>
        <time>2015-10-12T15:49:18Z</time>
      </trkpt>
      <trkpt lat="44.2032" lon="3.1637">
        <ele>531</ele>
        <time>2015-10-12T15:51:18Z</time>
      </trkpt>
      <trkpt lat="44.20324" lon="3.16374">
        <ele>533</ele>
        <time>2015-10-12T15:53:18Z</time>
      </trkpt>
      <trkpt lat="44.20328" lon="3.16372">
        <ele>535</ele>
        <time>2015-10-12T15:55:18Z</time>
      </trkpt>
      <trkpt lat="44.20332" lon="3.16378">
        <ele>538</ele>
        <time>2015-10-12T15:57:18Z</time>
      </trkpt>
      <trkpt lat="44.20336" lon="3.16387">
        <ele>539</ele>
        <time>2015-10-12T15:59:18Z</time>
      </trkpt>
      <trkpt lat="44.20338" lon="3.16393">
        <ele>540</ele>
        <time>2015-10-12T16:01:18Z</time>
      </trkpt>
      <trkpt lat="44.20345" lon="3.16393">
        <ele>542</ele>
        <time>2015-10-12T16:03:18Z</time>
      </trkpt>
      <trkpt lat="44.20348" lon="3.16395">
        <ele>543</ele>
        <time>2015-10-12T16:05:18Z</time>
      </trkpt>
      <trkpt lat="44.20352" lon="3.16395">
        <ele>544</ele>
        <time>2015-10-12T16:07:18Z</time>
      </trkpt>
      <trkpt lat="44.20356" lon="3.16395">
        <ele>545</ele>
        <time>2015-10-12T16:09:18Z</time>
      </trkpt>
      <trkpt lat="44.20358" lon="3.16399">
        <ele>547</ele>
        <time>2015-10-12T16:11:18Z</time>
      </trkpt>
      <trkpt lat="44.2036" lon="3.16402">
        <ele>548</ele>
        <time>2015-10-12T16:13:18Z</time>
      </trkpt>
      <trkpt lat="44.20362" lon="3.16408">
        <ele>549</ele>
        <time>2015-10-12T16:15:18Z</time>
      </trkpt>
      <trkpt lat="44.20364" lon="3.16411">
        <ele>550</ele>
        <time>2015-10-12T16:17:18Z</time>
      </trkpt>
      <trkpt lat="44.20366" lon="3.16416">
        <ele>552</ele>
        <time>2015-10-12T16:19:18Z</time>
      </trkpt>
      <trkpt lat="44.20371" lon="3.1642">
        <ele>554</ele>
        <time>2015-10-12T16:21:18Z</time>
      </trkpt>
      <trkpt lat="44.20383" lon="3.16432">
        <ele>560</ele>
        <time>2015-10-12T16:23:18Z</time>
      </trkpt>
      <trkpt lat="44.20386" lon="3.16437">
        <ele>561</ele>
        <time>2015-10-12T16:25:18Z</time>
      </trkpt>
      <trkpt lat="44.2039" lon="3.16438">
        <ele>563</ele>
        <time>2015-10-12T16:27:18Z</time>
      </trkpt>
      <trkpt lat="44.20393" lon="3.16446">
        <ele>566</ele>
        <time>2015-10-12T16:29:18Z</time>
      </trkpt>
      <trkpt lat="44.20398" lon="3.16453">
        <ele>569</ele>
        <time>2015-10-12T16:31:18Z</time>
      </trkpt>
      <trkpt lat="44.20405" lon="3.16457">
        <ele>573</ele>
        <time>2015-10-12T16:33:18Z</time>
      </trkpt>
      <trkpt lat="44.2041" lon="3.16458">
        <ele>575</ele>
        <time>2015-10-12T16:35:18Z</time>
      </trkpt>
      <trkpt lat="44.20415" lon="3.16459">
        <ele>578</ele>
        <time>2015-10-12T16:37:18Z</time>
      </trkpt>
      <trkpt lat="44.20418" lon="3.16461">
        <ele>579</ele>
        <time>2015-10-12T16:39:18Z</time>
      </trkpt>
      <trkpt lat="44.2042" lon="3.16465">
        <ele>581</ele>
        <time>2015-10-12T16:41:18Z</time>
      </trkpt>
      <trkpt lat="44.20421" lon="3.1647">
        <ele>582</ele>
        <time>2015-10-12T16:43:18Z</time>
      </trkpt>
      <trkpt lat="44.20421" lon="3.16476">
        <ele>584</ele>
        <time>2015-10-12T16:45:18Z</time>
      </trkpt>
      <trkpt lat="44.2042" lon="3.16484">
        <ele>585</ele>
        <time>2015-10-12T16:47:18Z</time>
      </trkpt>
      <trkpt lat="44.2042" lon="3.16486">
        <ele>586</ele>
        <time>2015-10-12T16:49:18Z</time>
      </trkpt>
      <trkpt lat="44.20422" lon="3.16494">
        <ele>588</ele>
        <time>2015-10-12T16:51:18Z</time>
      </trkpt>
      <trkpt lat="44.20425" lon="3.16498">
        <ele>591</ele>
        <time>2015-10-12T16:53:18Z</time>
      </trkpt>
      <trkpt lat="44.20428" lon="3.16496">
        <ele>591</ele>
        <time>2015-10-12T16:55:18Z</time>
      </trkpt>
      <trkpt lat="44.20431" lon="3.16497">
        <ele>592</ele>
        <time>2015-10-12T16:57:18Z</time>
      </trkpt>
      <trkpt lat="44.20434" lon="3.16496">
        <ele>593</ele>
        <time>2015-10-12T16:59:18Z</time>
      </trkpt>
      <trkpt lat="44.20436" lon="3.16497">
        <ele>594</ele>
        <time>2015-10-12T17:01:18Z</time>
      </trkpt>
      <trkpt lat="44.20438" lon="3.16498">
        <ele>595</ele>
        <time>2015-10-12T17:03:18Z</time>
      </trkpt>
      <trkpt lat="44.20441" lon="3.16498">
        <ele>596</ele>
        <time>2015-10-12T17:05:18Z</time>
      </trkpt>
      <trkpt lat="44.20443" lon="3.16504">
        <ele>598</ele>
        <time>2015-10-12T17:07:18Z</time>
      </trkpt>
      <trkpt lat="44.20444" lon="3.16511">
        <ele>600</ele>
        <time>2015-10-12T17:09:18Z</time>
      </trkpt>
      <trkpt lat="44.20447" lon="3.16514">
        <ele>602</ele>
        <time>2015-10-12T17:11:18Z</time>
      </trkpt>
      <trkpt lat="44.20449" lon="3.16514">
        <ele>602</ele>
        <time>2015-10-12T17:13:18Z</time>
      </trkpt>
      <trkpt lat="44.2045" lon="3.16517">
        <ele>603</ele>
        <time>2015-10-12T17:15:18Z</time>
      </trkpt>
      <trkpt lat="44.20453" lon="3.16516">
        <ele>604</ele>
        <time>2015-10-12T17:17:18Z</time>
      </trkpt>
      <trkpt lat="44.20455" lon="3.16519">
        <ele>606</ele>
        <time>2015-10-12T17:19:18Z</time>
      </trkpt>
      <trkpt lat="44.20458" lon="3.16523">
        <ele>608</ele>
        <time>2015-10-12T17:21:18Z</time>
      </trkpt>
      <trkpt lat="44.20461" lon="3.16521">
        <ele>609</ele>
        <time>2015-10-12T17:23:18Z</time>
      </trkpt>
      <trkpt lat="44.20462" lon="3.16524">
        <ele>610</ele>
        <time>2015-10-12T17:25:18Z</time>
      </trkpt>
      <trkpt lat="44.20465" lon="3.16527">
        <ele>612</ele>
        <time>2015-10-12T17:27:18Z</time>
      </trkpt>
      <trkpt lat="44.20469" lon="3.16524">
        <ele>613</ele>
        <time>2015-10-12T17:29:18Z</time>
      </trkpt>
      <trkpt lat="44.20472" lon="3.16517">
        <ele>612</ele>
        <time>2015-10-12T17:31:18Z</time>
      </trkpt>
      <trkpt lat="44.20475" lon="3.16517">
        <ele>613</ele>
        <time>2015-10-12T17:33:18Z</time>
      </trkpt>
      <trkpt lat="44.20474" lon="3.16523">
        <ele>615</ele>
        <time>2015-10-12T17:35:18Z</time>
      </trkpt>
      <trkpt lat="44.20474" lon="3.16526">
        <ele>615</ele>
        <time>2015-10-12T17:37:18Z</time>
      </trkpt>
      <trkpt lat="44.20475" lon="3.1653">
        <ele>617</ele>
        <time>2015-10-12T17:39:18Z</time>
      </trkpt>
      <trkpt lat="44.20477" lon="3.16535">
        <ele>619</ele>
        <time>2015-10-12T17:41:18Z</time>
      </trkpt>
      <trkpt lat="44.20478" lon="3.16539">
        <ele>621</ele>
        <time>2015-10-12T17:43:18Z</time>
      </trkpt>
      <trkpt lat="44.20477" lon="3.16543">
        <ele>621</ele>
        <time>2015-10-12T17:45:18Z</time>
      </trkpt>
      <trkpt lat="44.20476" lon="3.16546">
        <ele>622</ele>
        <time>2015-10-12T17:47:18Z</time>
      </trkpt>
      <trkpt lat="44.20474" lon="3.16551">
        <ele>622</ele>
        <time>2015-10-12T17:49:18Z</time>
      </trkpt>
      <trkpt lat="44.20473" lon="3.16558">
        <ele>623</ele>
        <time>2015-10-12T17:51:18Z</time>
      </trkpt>
      <trkpt lat="44.2047" lon="3.16566">
        <ele>624</ele>
        <time>2015-10-12T17:53:18Z</time>
      </trkpt>
      <trkpt lat="44.20469" lon="3.16569">
        <ele>624</ele>
        <time>2015-10-12T17:55:18Z</time>
      </trkpt>
      <trkpt lat="44.20469" lon="3.16572">
        <ele>625</ele>
        <time>2015-10-12T17:57:18Z</time>
      </trkpt>
      <trkpt lat="44.20466" lon="3.16575">
        <ele>624</ele>
        <time>2015-10-12T17:59:18Z</time>
      </trkpt>
      <trkpt lat="44.20465" lon="3.16581">
        <ele>625</ele>
        <time>2015-10-12T18:01:18Z</time>
      </trkpt>
      <trkpt lat="44.20465" lon="3.16586">
        <ele>625</ele>
        <time>2015-10-12T18:03:18Z</time>
      </trkpt>
      <trkpt lat="44.20466" lon="3.1659">
        <ele>626</ele>
        <time>2015-10-12T18:05:18Z</time>
      </trkpt>
      <trkpt lat="44.20467" lon="3.16596">
        <ele>627</ele>
        <time>2015-10-12T18:07:18Z</time>
      </trkpt>
      <trkpt lat="44.20468" lon="3.16595">
        <ele>628</ele>
        <time>2015-10-12T18:09:18Z</time>
      </trkpt>
      <trkpt lat="44.2047" lon="3.16594">
        <ele>629</ele>
        <time>2015-10-12T18:11:18Z</time>
      </trkpt>
      <trkpt lat="44.20472" lon="3.16592">
        <ele>630</ele>
        <time>2015-10-12T18:13:18Z</time>
      </trkpt>
      <trkpt lat="44.20475" lon="3.16586">
        <ele>631</ele>
        <time>2015-10-12T18:15:18Z</time>
      </trkpt>
      <trkpt lat="44.20478" lon="3.16588">
        <ele>633</ele>
        <time>2015-10-12T18:17:18Z</time>
      </trkpt>
      <trkpt lat="44.20479" lon="3.16592">
        <ele>634</ele>
        <time>2015-10-12T18:19:18Z</time>
      </trkpt>
      <trkpt lat="44.20479" lon="3.16595">
        <ele>634</ele>
        <time>2015-10-12T18:21:18Z</time>
      </trkpt>
      <trkpt lat="44.2048" lon="3.16601">
        <ele>635</ele>
        <time>2015-10-12T18:23:18Z</time>
      </trkpt>
      <trkpt lat="44.20482" lon="3.16603">
        <ele>636</ele>
        <time>2015-10-12T18:25:18Z</time>
      </trkpt>
      <trkpt lat="44.20484" lon="3.16606">
        <ele>638</ele>
        <time>2015-10-12T18:27:18Z</time>
      </trkpt>
      <trkpt lat="44.20486" lon="3.16606">
        <ele>639</ele>
        <time>2015-10-12T18:29:18Z</time>
      </trkpt>
      <trkpt lat="44.20487" lon="3.166">
        <ele>639</ele>
        <time>2015-10-12T18:31:18Z</time>
      </trkpt>
      <trkpt lat="44.20492" lon="3.16585">
        <ele>641</ele>
        <time>2015-10-12T18:33:18Z</time>
      </trkpt>
      <trkpt lat="44.20496" lon="3.16567">
        <ele>638</ele>
        <time>2015-10-12T18:35:18Z</time>
      </trkpt>
      <trkpt lat="44.20498" lon="3.16565">
        <ele>638</ele>
        <time>2015-10-12T18:37:18Z</time>
      </trkpt>
      <trkpt lat="44.205" lon="3.16563">
        <ele>638</ele>
        <time>2015-10-12T18:39:18Z</time>
      </trkpt>
      <trkpt lat="44.20503" lon="3.16563">
        <ele>639</ele>
        <time>2015-10-12T18:41:18Z</time>
      </trkpt>
      <trkpt lat="44.20503" lon="3.16567">
        <ele>640</ele>
        <time>2015-10-12T18:43:18Z</time>
      </trkpt>
      <trkpt lat="44.20503" lon="3.16571">
        <ele>641</ele>
        <time>2015-10-12T18:45:18Z</time>
      </trkpt>
      <trkpt lat="44.20503" lon="3.16577">
        <ele>643</ele>
        <time>2015-10-12T18:47:18Z</time>
      </trkpt>
      <trkpt lat="44.20504" lon="3.16585">
        <ele>646</ele>
        <time>2015-10-12T18:49:18Z</time>
      </trkpt>
      <trkpt lat="44.20504" lon="3.16591">
        <ele>646</ele>
        <time>2015-10-12T18:51:18Z</time>
      </trkpt>
      <trkpt lat="44.20506" lon="3.16594">
        <ele>647</ele>
        <time>2015-10-12T18:53:18Z</time>
      </trkpt>
      <trkpt lat="44.20505" lon="3.16599">
        <ele>647</ele>
        <time>2015-10-12T18:55:18Z</time>
      </trkpt>
      <trkpt lat="44.20505" lon="3.16606">
        <ele>648</ele>
        <time>2015-10-12T18:57:18Z</time>
      </trkpt>
      <trkpt lat="44.20505" lon="3.16614">
        <ele>649</ele>
        <time>2015-10-12T18:59:18Z</time>
      </trkpt>
      <trkpt lat="44.20505" lon="3.1662">
        <ele>649</ele>
        <time>2015-10-12T19:01:18Z</time>
      </trkpt>
      <trkpt lat="44.20508" lon="3.16624">
        <ele>650</ele>
        <time>2015-10-12T19:03:18Z</time>
      </trkpt>
      <trkpt lat="44.20509" lon="3.16629">
        <ele>651</ele>
        <time>2015-10-12T19:05:18Z</time>
      </trkpt>
      <trkpt lat="44.2051" lon="3.1663">
        <ele>651</ele>
        <time>2015-10-12T19:07:18Z</time>
      </trkpt>
      <trkpt lat="44.20512" lon="3.16633">
        <ele>652</ele>
        <time>2015-10-12T19:09:18Z</time>
      </trkpt>
      <trkpt lat="44.20515" lon="3.16634">
        <ele>653</ele>
        <time>2015-10-12T19:11:18Z</time>
      </trkpt>
      <trkpt lat="44.20517" lon="3.16631">
        <ele>653</ele>
        <time>2015-10-12T19:13:18Z</time>
      </trkpt>
      <trkpt lat="44.2052" lon="3.16634">
        <ele>654</ele>
        <time>2015-10-12T19:15:18Z</time>
      </trkpt>
      <trkpt lat="44.20524" lon="3.16642">
        <ele>656</ele>
        <time>2015-10-12T19:17:18Z</time>
      </trkpt>
      <trkpt lat="44.20531" lon="3.16647">
        <ele>658</ele>
        <time>2015-10-12T19:19:18Z</time>
      </trkpt>
      <trkpt lat="44.20534" lon="3.16649">
        <ele>660</ele>
        <time>2015-10-12T19:21:18Z</time>
      </trkpt>
      <trkpt lat="44.20538" lon="3.16648">
        <ele>660</ele>
        <time>2015-10-12T19:23:18Z</time>
      </trkpt>
      <trkpt lat="44.20542" lon="3.16649">
        <ele>662</ele>
        <time>2015-10-12T19:25:18Z</time>
      </trkpt>
      <trkpt lat="44.20549" lon="3.16649">
        <ele>663</ele>
        <time>2015-10-12T19:27:18Z</time>
      </trkpt>
      <trkpt lat="44.20556" lon="3.16653">
        <ele>666</ele>
        <time>2015-10-12T19:29:18Z</time>
      </trkpt>
      <trkpt lat="44.20564" lon="3.16655">
        <ele>669</ele>
        <time>2015-10-12T19:31:18Z</time>
      </trkpt>
      <trkpt lat="44.20566" lon="3.16655">
        <ele>669</ele>
        <time>2015-10-12T19:33:18Z</time>
      </trkpt>
      <trkpt lat="44.20574" lon="3.16657">
        <ele>672</ele>
        <time>2015-10-12T19:35:18Z</time>
      </trkpt>
      <trkpt lat="44.20582" lon="3.16662">
        <ele>675</ele>
        <time>2015-10-12T19:37:18Z</time>
      </trkpt>
      <trkpt lat="44.20586" lon="3.16662">
        <ele>676</ele>
        <time>2015-10-12T19:39:18Z</time>
      </trkpt>
      <trkpt lat="44.20588" lon="3.16662">
        <ele>676</ele>
        <time>2015-10-12T19:41:18Z</time>
      </trkpt>
      <trkpt lat="44.20596" lon="3.16659">
        <ele>677</ele>
        <time>2015-10-12T19:43:18Z</time>
      </trkpt>
      <trkpt lat="44.20603" lon="3.16662">
        <ele>679</ele>
        <time>2015-10-12T19:45:18Z</time>
      </trkpt>
      <trkpt lat="44.20604" lon="3.16662">
        <ele>679</ele>
        <time>2015-10-12T19:47:18Z</time>
      </trkpt>
      <trkpt lat="44.20609" lon="3.16666">
        <ele>680</ele>
        <time>2015-10-12T19:49:18Z</time>
      </trkpt>
      <trkpt lat="44.20613" lon="3.16672">
        <ele>679</ele>
        <time>2015-10-12T19:51:18Z</time>
      </trkpt>
      <trkpt lat="44.20617" lon="3.16677">
        <ele>678</ele>
        <time>2015-10-12T19:53:18Z</time>
      </trkpt>
      <trkpt lat="44.20619" lon="3.16677">
        <ele>678</ele>
        <time>2015-10-12T19:55:18Z</time>
      </trkpt>
      <trkpt lat="44.20622" lon="3.16675">
        <ele>679</ele>
        <time>2015-10-12T19:57:18Z</time>
      </trkpt>
      <trkpt lat="44.20624" lon="3.1667">
        <ele>681</ele>
        <time>2015-10-12T19:59:18Z</time>
      </trkpt>
      <trkpt lat="44.20627" lon="3.16665">
        <ele>682</ele>
        <time>2015-10-12T20:01:18Z</time>
      </trkpt>
      <trkpt lat="44.20639" lon="3.16665">
        <ele>684</ele>
        <time>2015-10-12T20:03:18Z</time>
      </trkpt>
      <trkpt lat="44.20647" lon="3.16661">
        <ele>684</ele>
        <time>2015-10-12T20:05:18Z</time>
      </trkpt>
      <trkpt lat="44.20654" lon="3.16658">
        <ele>685</ele>
        <time>2015-10-12T20:07:18Z</time>
      </trkpt>
      <trkpt lat="44.20662" lon="3.16656">
        <ele>686</ele>
        <time>2015-10-12T20:09:18Z</time>
      </trkpt>
      <trkpt lat="44.20665" lon="3.16653">
        <ele>686</ele>
        <time>2015-10-12T20:11:18Z</time>
      </trkpt>
      <trkpt lat="44.2067" lon="3.16651">
        <ele>685</ele>
        <time>2015-10-12T20:13:18Z</time>
      </trkpt>
      <trkpt lat="44.20679" lon="3.16641">
        <ele>681</ele>
        <time>2015-10-12T20:15:18Z</time>
      </trkpt>
      <trkpt lat="44.20687" lon="3.16629">
        <ele>678</ele>
        <time>2015-10-12T20:17:18Z</time>
      </trkpt>
      <trkpt lat="44.20694" lon="3.16626">
        <ele>677</ele>
        <time>2015-10-12T20:19:18Z</time>
      </trkpt>
      <trkpt lat="44.207" lon="3.1662">
        <ele>676</ele>
        <time>2015-10-12T20:21:18Z</time>
      </trkpt>
      <trkpt lat="44.20703" lon="3.16621">
        <ele>675</ele>
        <time>2015-10-12T20:23:18Z</time>
      </trkpt>
      <trkpt lat="44.2071" lon="3.16619">
        <ele>674</ele>
        <time>2015-10-12T20:25:18Z</time>
      </trkpt>
      <trkpt lat="44.20714" lon="3.16616">
        <ele>674</ele>
        <time>2015-10-12T20:27:18Z</time>
      </trkpt>
      <trkpt lat="44.20721" lon="3.16611">
        <ele>673</ele>
        <time>2015-10-12T20:29:18Z</time>
      </trkpt>
      <trkpt lat="44.20727" lon="3.16611">
        <ele>672</ele>
        <time>2015-10-12T20:31:18Z</time>
      </trkpt>
      <trkpt lat="44.20731" lon="3.1661">
        <ele>672</ele>
        <time>2015-10-12T20:33:18Z</time>
      </trkpt>
      <trkpt lat="44.20742" lon="3.16599">
        <ele>673</ele>
        <time>2015-10-12T20:35:18Z</time>
      </trkpt>
      <trkpt lat="44.20743" lon="3.16599">
        <ele>673</ele>
        <time>2015-10-12T20:37:18Z</time>
      </trkpt>
      <trkpt lat="44.2075" lon="3.16591">
        <ele>675</ele>
        <time>2015-10-12T20:39:18Z</time>
      </trkpt>
      <trkpt lat="44.20756" lon="3.16584">
        <ele>674</ele>
        <time>2015-10-12T20:41:18Z</time>
      </trkpt>
      <trkpt lat="44.20766" lon="3.16577">
        <ele>668</ele>
        <time>2015-10-12T20:43:18Z</time>
      </trkpt>
      <trkpt lat="44.20773" lon="3.16571">
        <ele>664</ele>
        <time>2015-10-12T20:45:18Z</time>
      </trkpt>
      <trkpt lat="44.20782" lon="3.16561">
        <ele>659</ele>
        <time>2015-10-12T20:47:18Z</time>
      </trkpt>
      <trkpt lat="44.20787" lon="3.16555">
        <ele>656</ele>
        <time>2015-10-12T20:49:18Z</time>
      </trkpt>
      <trkpt lat="44.20786" lon="3.16546">
        <ele>656</ele>
        <time>2015-10-12T20:51:18Z</time>
      </trkpt>
      <trkpt lat="44.20788" lon="3.16539">
        <ele>655</ele>
        <time>2015-10-12T20:53:18Z</time>
      </trkpt>
      <trkpt lat="44.20795" lon="3.16534">
        <ele>653</ele>
        <time>2015-10-12T20:55:18Z</time>
      </trkpt>
      <trkpt lat="44.20798" lon="3.16527">
        <ele>652</ele>
        <time>2015-10-12T20:57:18Z</time>
      </trkpt>
      <trkpt lat="44.20805" lon="3.16527">
        <ele>651</ele>
        <time>2015-10-12T20:59:18Z</time>
      </trkpt>
      <trkpt lat="44.20808" lon="3.16524">
        <ele>650</ele>
        <time>2015-10-12T21:01:18Z</time>
      </trkpt>
      <trkpt lat="44.20811" lon="3.16521">
        <ele>650</ele>
        <time>2015-10-12T21:03:18Z</time>
      </trkpt>
      <trkpt lat="44.20814" lon="3.16515">
        <ele>650</ele>
        <time>2015-10-12T21:05:18Z</time>
      </trkpt>
      <trkpt lat="44.20816" lon="3.16507">
        <ele>650</ele>
        <time>2015-10-12T21:07:18Z</time>
      </trkpt>
      <trkpt lat="44.20816" lon="3.16505">
        <ele>651</ele>
        <time>2015-10-12T21:09:18Z</time>
      </trkpt>
      <trkpt lat="44.20816" lon="3.16501">
        <ele>651</ele>
        <time>2015-10-12T21:11:18Z</time>
      </trkpt>
      <trkpt lat="44.20817" lon="3.16494">
        <ele>650</ele>
        <time>2015-10-12T21:13:18Z</time>
      </trkpt>
      <trkpt lat="44.20818" lon="3.1649">
        <ele>648</ele>
        <time>2015-10-12T21:15:18Z</time>
      </trkpt>
      <trkpt lat="44.20821" lon="3.16487">
        <ele>648</ele>
        <time>2015-10-12T21:17:18Z</time>
      </trkpt>
      <trkpt lat="44.20825" lon="3.16483">
        <ele>647</ele>
        <time>2015-10-12T21:19:18Z</time>
      </trkpt>
      <trkpt lat="44.20829" lon="3.16482">
        <ele>647</ele>
        <time>2015-10-12T21:21:18Z</time>
      </trkpt>
      <trkpt lat="44.2084" lon="3.16479">
        <ele>642</ele>
        <time>2015-10-12T21:23:18Z</time>
      </trkpt>
      <trkpt lat="44.20843" lon="3.16477">
        <ele>640</ele>
        <time>2015-10-12T21:25:18Z</time>
      </trkpt>
      <trkpt lat="44.20845" lon="3.16477">
        <ele>639</ele>
        <time>2015-10-12T21:27:18Z</time>
      </trkpt>
      <trkpt lat="44.20844" lon="3.16472">
        <ele>639</ele>
        <time>2015-10-12T21:29:18Z</time>
      </trkpt>
      <trkpt lat="44.20844" lon="3.1647">
        <ele>639</ele>
        <time>2015-10-12T21:31:18Z</time>
      </trkpt>
      <trkpt lat="44.20846" lon="3.16464">
        <ele>637</ele>
        <time>2015-10-12T21:33:18Z</time>
      </trkpt>
      <trkpt lat="44.20848" lon="3.16459">
        <ele>636</ele>
        <time>2015-10-12T21:35:18Z</time>
      </trkpt>
      <trkpt lat="44.20852" lon="3.16455">
        <ele>634</ele>
        <time>2015-10-12T21:37:18Z</time>
      </trkpt>
      <trkpt lat="44.20856" lon="3.16452">
        <ele>632</ele>
        <time>2015-10-12T21:39:18Z</time>
      </trkpt>
      <trkpt lat="44.20861" lon="3.16453">
        <ele>630</ele>
        <time>2015-10-12T21:41:18Z</time>
      </trkpt>
      <trkpt lat="44.20865" lon="3.16451">
        <ele>628</ele>
        <time>2015-10-12T21:43:18Z</time>
      </trkpt>
      <trkpt lat="44.20868" lon="3.16447">
        <ele>627</ele>
        <time>2015-10-12T21:45:18Z</time>
      </trkpt>
      <trkpt lat="44.20874" lon="3.16437">
        <ele>625</ele>
        <time>2015-10-12T21:47:18Z</time>
      </trkpt>
      <trkpt lat="44.20878" lon="3.1643">
        <ele>625</ele>
        <time>2015-10-12T21:49:18Z</time>
      </trkpt>
      <trkpt lat="44.20881" lon="3.16428">
        <ele>624</ele>
        <time>2015-10-12T21:51:18Z</time>
      </trkpt>
      <trkpt lat="44.20887" lon="3.16418">
        <ele>624</ele>
        <time>2015-10-12T21:53:18Z</time>
      </trkpt>
      <trkpt lat="44.20887" lon="3.16414">
        <ele>623</ele>
        <time>2015-10-12T21:55:18Z</time>
      </trkpt>
      <trkpt lat="44.20887" lon="3.16413">
        <ele>623</ele>
        <time>2015-10-12T21:57:18Z</time>
      </trkpt>
      <trkpt lat="44.20889" lon="3.16407">
        <ele>622</ele>
        <time>2015-10-12T21:59:18Z</time>
      </trkpt>
      <trkpt lat="44.20894" lon="3.16405">
        <ele>621</ele>
        <time>2015-10-12T22:01:18Z</time>
      </trkpt>
      <trkpt lat="44.20896" lon="3.16404">
        <ele>620</ele>
        <time>2015-10-12T22:03:18Z</time>
      </trkpt>
      <trkpt lat="44.20901" lon="3.16403">
        <ele>620</ele>
        <time>2015-10-12T22:05:18Z</time>
      </trkpt>
      <trkpt lat="44.20906" lon="3.16397">
        <ele>618</ele>
        <time>2015-10-12T22:07:18Z</time>
      </trkpt>
      <trkpt lat="44.2091" lon="3.16392">
        <ele>618</ele>
        <time>2015-10-12T22:09:18Z</time>
      </trkpt>
      <trkpt lat="44.20914" lon="3.16384">
        <ele>617</ele>
        <time>2015-10-12T22:11:18Z</time>
      </trkpt>
      <trkpt lat="44.20913" lon="3.16379">
        <ele>617</ele>
        <time>2015-10-12T22:13:18Z</time>
      </trkpt>
      <trkpt lat="44.20911" lon="3.16374">
        <ele>617</ele>
        <time>2015-10-12T22:15:18Z</time>
      </trkpt>
      <trkpt lat="44.2091" lon="3.16373">
        <ele>616</ele>
        <time>2015-10-12T22:17:18Z</time>
      </trkpt>
      <trkpt lat="44.20913" lon="3.16367">
        <ele>616</ele>
        <time>2015-10-12T22:19:18Z</time>
      </trkpt>
      <trkpt lat="44.20916" lon="3.16358">
        <ele>616</ele>
        <time>2015-10-12T22:21:18Z</time>
      </trkpt>
      <trkpt lat="44.20915" lon="3.16347">
        <ele>615</ele>
        <time>2015-10-12T22:23:18Z</time>
      </trkpt>
      <trkpt lat="44.20917" lon="3.16344">
        <ele>615</ele>
        <time>2015-10-12T22:25:18Z</time>
      </trkpt>
      <trkpt lat="44.20924" lon="3.16338">
        <ele>614</ele>
        <time>2015-10-12T22:27:18Z</time>
      </trkpt>
      <trkpt lat="44.20936" lon="3.16348">
        <ele>612</ele>
        <time>2015-10-12T22:29:18Z</time>
      </trkpt>
      <trkpt lat="44.20945" lon="3.16346">
        <ele>610</ele>
        <time>2015-10-12T22:31:18Z</time>
      </trkpt>
      <trkpt lat="44.20957" lon="3.16342">
        <ele>608</ele>
        <time>2015-10-12T22:33:18Z</time>
      </trkpt>
      <trkpt lat="44.20964" lon="3.16335">
        <ele>608</ele>
        <time>2015-10-12T22:35:18Z</time>
      </trkpt>
      <trkpt lat="44.20967" lon="3.16333">
        <ele>608</ele>
        <time>2015-10-12T22:37:18Z</time>
      </trkpt>
      <trkpt lat="44.20973" lon="3.16326">
        <ele>607</ele>
        <time>2015-10-12T22:39:18Z</time>
      </trkpt>
      <trkpt lat="44.20981" lon="3.16316">
        <ele>606</ele>
        <time>2015-10-12T22:41:18Z</time>
      </trkpt>
      <trkpt lat="44.20991" lon="3.1631">
        <ele>605</ele>
        <time>2015-10-12T22:43:18Z</time>
      </trkpt>
      <trkpt lat="44.20999" lon="3.16298">
        <ele>605</ele>
        <time>2015-10-12T22:45:18Z</time>
      </trkpt>
      <trkpt lat="44.21009" lon="3.16292">
        <ele>605</ele>
        <time>2015-10-12T22:47:18Z</time>
      </trkpt>
      <trkpt lat="44.21017" lon="3.16286">
        <ele>604</ele>
        <time>2015-10-12T22:49:18Z</time>
      </trkpt>
      <trkpt lat="44.21028" lon="3.1628">
        <ele>604</ele>
        <time>2015-10-12T22:51:18Z</time>
      </trkpt>
      <trkpt lat="44.21039" lon="3.16276">
        <ele>604</ele>
        <time>2015-10-12T22:53:18Z</time>
      </trkpt>
      <trkpt lat="44.21046" lon="3.16275">
        <ele>604</ele>
        <time>2015-10-12T22:55:18Z</time>
      </trkpt>
      <trkpt lat="44.21055" lon="3.16274">
        <ele>604</ele>
        <time>2015-10-12T22:57:18Z</time>
      </trkpt>
      <trkpt lat="44.21065" lon="3.1627">
        <ele>604</ele>
        <time>2015-10-12T22:59:18Z</time>
      </trkpt>
      <trkpt lat="44.21068" lon="3.16267">
        <ele>604</ele>
        <time>2015-10-12T23:01:18Z</time>
      </trkpt>
      <trkpt lat="44.21075" lon="3.16264">
        <ele>605</ele>
        <time>2015-10-12T23:03:18Z</time>
      </trkpt>
      <trkpt lat="44.21078" lon="3.16264">
        <ele>605</ele>
        <time>2015-10-12T23:05:18Z</time>
      </trkpt>
      <trkpt lat="44.21081" lon="3.16263">
        <ele>605</ele>
        <time>2015-10-12T23:07:18Z</time>
      </trkpt>
      <trkpt lat="44.21092" lon="3.16259">
        <ele>606</ele>
        <time>2015-10-12T23:09:18Z</time>
      </trkpt>
      <trkpt lat="44.21094" lon="3.16258">
        <ele>607</ele>
        <time>2015-10-12T23:11:18Z</time>
      </trkpt>
      <trkpt lat="44.21105" lon="3.16258">
        <ele>607</ele>
        <time>2015-10-12T23:13:18Z</time>
      </trkpt>
      <trkpt lat="44.21113" lon="3.16255">
        <ele>608</ele>
        <time>2015-10-12T23:15:18Z</time>
      </trkpt>
      <trkpt lat="44.21115" lon="3.16256">
        <ele>608</ele>
        <time>2015-10-12T23:17:18Z</time>
      </trkpt>
      <trkpt lat="44.21127" lon="3.16255">
        <ele>609</ele>
        <time>2015-10-12T23:19:18Z</time>
      </trkpt>
      <trkpt lat="44.21135" lon="3.16254">
        <ele>610</ele>
        <time>2015-10-12T23:21:18Z</time>
      </trkpt>
      <trkpt lat="44.21146" lon="3.16251">
        <ele>611</ele>
        <time>2015-10-12T23:23:18Z</time>
      </trkpt>
      <trkpt lat="44.21156" lon="3.16249">
        <ele>612</ele>
        <time>2015-10-12T23:25:18Z</time>
      </trkpt>
      <trkpt lat="44.21166" lon="3.16245">
        <ele>613</ele>
        <time>2015-10-12T23:27:18Z</time>
      </trkpt>
      <trkpt lat="44.21174" lon="3.16244">
        <ele>614</ele>
        <time>2015-10-12T23:29:18Z</time>
      </trkpt>
      <trkpt lat="44.21181" lon="3.16242">
        <ele>615</ele>
        <time>2015-10-12T23:31:18Z</time>
      </trkpt>
      <trkpt lat="44.21186" lon="3.1624">
        <ele>616</ele>
        <time>2015-10-12T23:33:18Z</time>
      </trkpt>
      <trkpt lat="44.21195" lon="3.16236">
        <ele>617</ele>
        <time>2015-10-12T23:35:18Z</time>
      </trkpt>
      <trkpt lat="44.21199" lon="3.16236">
        <ele>618</ele>
        <time>2015-10-12T23:37:18Z</time>
      </trkpt>
      <trkpt lat="44.21203" lon="3.16234">
        <ele>619</ele>
        <time>2015-10-12T23:39:18Z</time>
      </trkpt>
      <trkpt lat="44.21208" lon="3.16233">
        <ele>620</ele>
        <time>2015-10-12T23:41:18Z</time>
      </trkpt>
      <trkpt lat="44.21213" lon="3.16231">
        <ele>621</ele>
        <time>2015-10-12T23:43:18Z</time>
      </trkpt>
      <trkpt lat="44.21216" lon="3.16229">
        <ele>622</ele>
        <time>2015-10-12T23:45:18Z</time>
      </trkpt>
      <trkpt lat="44.21221" lon="3.16228">
        <ele>623</ele>
        <time>2015-10-12T23:47:18Z</time>
      </trkpt>
      <trkpt lat="44.21226" lon="3.1622">
        <ele>624</ele>
        <time>2015-10-12T23:49:18Z</time>
      </trkpt>
      <trkpt lat="44.21232" lon="3.16219">
        <ele>625</ele>
        <time>2015-10-12T23:51:18Z</time>
      </trkpt>
      <trkpt lat="44.21234" lon="3.1622">
        <ele>626</ele>
        <time>2015-10-12T23:53:18Z</time>
      </trkpt>
      <trkpt lat="44.2124" lon="3.16219">
        <ele>627</ele>
        <time>2015-10-12T23:55:18Z</time>
      </trkpt>
      <trkpt lat="44.21245" lon="3.16218">
        <ele>628</ele>
        <time>2015-10-12T23:57:18Z</time>
      </trkpt>
      <trkpt lat="44.21246" lon="3.16218">
        <ele>629</ele>
        <time>2015-10-12T23:59:18Z</time>
      </trkpt>
      <trkpt lat="44.21247" lon="3.16218">
        <ele>629</ele>
        <time>2015-10-13T00:01:18Z</time>
      </trkpt>
      <trkpt lat="44.21253" lon="3.1621">
        <ele>631</ele>
        <time>2015-10-13T00:03:18Z</time>
      </trkpt>
      <trkpt lat="44.21266" lon="3.16212">
        <ele>633</ele>
        <time>2015-10-13T00:05:18Z</time>
      </trkpt>
      <trkpt lat="44.21268" lon="3.16207">
        <ele>634</ele>
        <time>2015-10-13T00:07:18Z</time>
      </trkpt>
      <trkpt lat="44.21272" lon="3.16203">
        <ele>635</ele>
        <time>2015-10-13T00:09:18Z</time>
      </trkpt>
      <trkpt lat="44.21276" lon="3.16199">
        <ele>636</ele>
        <time>2015-10-13T00:11:18Z</time>
      </trkpt>
      <trkpt lat="44.21287" lon="3.16203">
        <ele>637</ele>
        <time>2015-10-13T00:13:18Z</time>
      </trkpt>
      <trkpt lat="44.2129" lon="3.162">
        <ele>638</ele>
        <time>2015-10-13T00:15:18Z</time>
      </trkpt>
      <trkpt lat="44.21295" lon="3.16201">
        <ele>639</ele>
        <time>2015-10-13T00:17:18Z</time>
      </trkpt>
      <trkpt lat="44.21299" lon="3.16199">
        <ele>640</ele>
        <time>2015-10-13T00:19:18Z</time>
      </trkpt>
      <trkpt lat="44.21303" lon="3.16199">
        <ele>641</ele>
        <time>2015-10-13T00:21:18Z</time>
      </trkpt>
      <trkpt lat="44.2131" lon="3.16198">
        <ele>642</ele>
        <time>2015-10-13T00:23:18Z</time>
      </trkpt>
      <trkpt lat="44.21315" lon="3.16194">
        <ele>644</ele>
        <time>2015-10-13T00:25:18Z</time>
      </trkpt>
      <trkpt lat="44.21323" lon="3.1619">
        <ele>646</ele>
        <time>2015-10-13T00:27:18Z</time>
      </trkpt>
      <trkpt lat="44.21332" lon="3.16189">
        <ele>648</ele>
        <time>2015-10-13T00:29:18Z</time>
      </trkpt>
      <trkpt lat="44.21335" lon="3.16191">
        <ele>648</ele>
        <time>2015-10-13T00:31:18Z</time>
      </trkpt>
      <trkpt lat="44.21339" lon="3.16189">
        <ele>649</ele>
        <time>2015-10-13T00:33:18Z</time>
      </trkpt>
      <trkpt lat="44.21344" lon="3.16189">
        <ele>650</ele>
        <time>2015-10-13T00:35:18Z</time>
      </trkpt>
      <trkpt lat="44.21349" lon="3.16189">
        <ele>651</ele>
        <time>2015-10-13T00:37:18Z</time>
      </trkpt>
      <trkpt lat="44.21354" lon="3.1618">
        <ele>654</ele>
        <time>2015-10-13T00:39:18Z</time>
      </trkpt>
      <trkpt lat="44.2136" lon="3.16177">
        <ele>656</ele>
        <time>2015-10-13T00:41:18Z</time>
      </trkpt>
      <trkpt lat="44.21366" lon="3.1618">
        <ele>657</ele>
        <time>2015-10-13T00:43:18Z</time>
      </trkpt>
      <trkpt lat="44.2137" lon="3.1618">
        <ele>657</ele>
        <time>2015-10-13T00:45:18Z</time>
      </trkpt>
      <trkpt lat="44.21375" lon="3.16178">
        <ele>659</ele>
        <time>2015-10-13T00:47:18Z</time>
      </trkpt>
      <trkpt lat="44.21377" lon="3.16174">
        <ele>661</ele>
        <time>2015-10-13T00:49:18Z</time>
      </trkpt>
      <trkpt lat="44.21381" lon="3.16172">
        <ele>662</ele>
        <time>2015-10-13T00:51:18Z</time>
      </trkpt>
      <trkpt lat="44.21385" lon="3.16172">
        <ele>663</ele>
        <time>2015-10-13T00:53:18Z</time>
      </trkpt>
      <trkpt lat="44.21389" lon="3.1617">
        <ele>665</ele>
        <time>2015-10-13T00:55:18Z</time>
      </trkpt>
      <trkpt lat="44.21396" lon="3.1617">
        <ele>666</ele>
        <time>2015-10-13T00:57:18Z</time>
      </trkpt>
      <trkpt lat="44.214" lon="3.16169">
        <ele>667</ele>
        <time>2015-10-13T00:59:18Z</time>
      </trkpt>
      <trkpt lat="44.21403" lon="3.16163">
        <ele>669</ele>
        <time>2015-10-13T01:01:18Z</time>
      </trkpt>
      <trkpt lat="44.21406" lon="3.16158">
        <ele>670</ele>
        <time>2015-10-13T01:03:18Z</time>
      </trkpt>
      <trkpt lat="44.21408" lon="3.16156">
        <ele>671</ele>
        <time>2015-10-13T01:05:18Z</time>
      </trkpt>
      <trkpt lat="44.2141" lon="3.16157">
        <ele>671</ele>
        <time>2015-10-13T01:07:18Z</time>
      </trkpt>
      <trkpt lat="44.21414" lon="3.16154">
        <ele>672</ele>
        <time>2015-10-13T01:09:18Z</time>
      </trkpt>
      <trkpt lat="44.21418" lon="3.16155">
        <ele>673</ele>
        <time>2015-10-13T01:11:18Z</time>
      </trkpt>
      <trkpt lat="44.21424" lon="3.16148">
        <ele>673</ele>
        <time>2015-10-13T01:13:18Z</time>
      </trkpt>
      <trkpt lat="44.21426" lon="3.16144">
        <ele>674</ele>
        <time>2015-10-13T01:15:18Z</time>
      </trkpt>
      <trkpt lat="44.21429" lon="3.16143">
        <ele>674</ele>
        <time>2015-10-13T01:17:18Z</time>
      </trkpt>
      <trkpt lat="44.21432" lon="3.16139">
        <ele>675</ele>
        <time>2015-10-13T01:19:18Z</time>
      </trkpt>
      <trkpt lat="44.21434" lon="3.16136">
        <ele>675</ele>
        <time>2015-10-13T01:21:18Z</time>
      </trkpt>
      <trkpt lat="44.21438" lon="3.16134">
        <ele>676</ele>
        <time>2015-10-13T01:23:18Z</time>
      </trkpt>
      <trkpt lat="44.2144" lon="3.1613">
        <ele>677</ele>
        <time>2015-10-13T01:25:18Z</time>
      </trkpt>
      <trkpt lat="44.21444" lon="3.16125">
        <ele>678</ele>
        <time>2015-10-13T01:27:18Z</time>
      </trkpt>
      <trkpt lat="44.2145" lon="3.16121">
        <ele>679</ele>
        <time>2015-10-13T01:29:18Z</time>
      </trkpt>
      <trkpt lat="44.21452" lon="3.16117">
        <ele>680</ele>
        <time>2015-10-13T01:31:18Z</time>
      </trkpt>
      <trkpt lat="44.21453" lon="3.16115">
        <ele>681</ele>
        <time>2015-10-13T01:33:18Z</time>
      </trkpt>
      <trkpt lat="44.21455" lon="3.16111">
        <ele>682</ele>
        <time>2015-10-13T01:35:18Z</time>
      </trkpt>
      <trkpt lat="44.21459" lon="3.16102">
        <ele>685</ele>
        <time>2015-10-13T01:37:18Z</time>
      </trkpt>
      <trkpt lat="44.2146" lon="3.16099">
        <ele>686</ele>
        <time>2015-10-13T01:39:18Z</time>
      </trkpt>
      <trkpt lat="44.21459" lon="3.16095">
        <ele>687</ele>
        <time>2015-10-13T01:41:18Z</time>
      </trkpt>
      <trkpt lat="44.21464" lon="3.16087">
        <ele>690</ele>
        <time>2015-10-13T01:43:18Z</time>
      </trkpt>
      <trkpt lat="44.21468" lon="3.16084">
        <ele>692</ele>
        <time>2015-10-13T01:45:18Z</time>
      </trkpt>
      <trkpt lat="44.21472" lon="3.16079">
        <ele>694</ele>
        <time>2015-10-13T01:47:18Z</time>
      </trkpt>
      <trkpt lat="44.21478" lon="3.16076">
        <ele>695</ele>
        <time>2015-10-13T01:49:18Z</time>
      </trkpt>
      <trkpt lat="44.21478" lon="3.16075">
        <ele>696</ele>
        <time>2015-10-13T01:51:18Z</time>
      </trkpt>
      <trkpt lat="44.21482" lon="3.16071">
        <ele>697</ele>
        <time>2015-10-13T01:53:18Z</time>
      </trkpt>
      <trkpt lat="44.21485" lon="3.16062">
        <ele>698</ele>
        <time>2015-10-13T01:55:18Z</time>
      </trkpt>
      <trkpt lat="44.21492" lon="3.16055">
        <ele>700</ele>
        <time>2015-10-13T01:57:18Z</time>
      </trkpt>
      <trkpt lat="44.215" lon="3.16052">
        <ele>703</ele>
        <time>2015-10-13T01:59:18Z</time>
      </trkpt>
      <trkpt lat="44.21502" lon="3.16052">
        <ele>703</ele>
        <time>2015-10-13T02:01:18Z</time>
      </trkpt>
      <trkpt lat="44.21507" lon="3.16048">
        <ele>703</ele>
        <time>2015-10-13T02:03:18Z</time>
      </trkpt>
      <trkpt lat="44.21511" lon="3.16043">
        <ele>704</ele>
        <time>2015-10-13T02:05:18Z</time>
      </trkpt>
      <trkpt lat="44.21513" lon="3.16039">
        <ele>704</ele>
        <time>2015-10-13T02:07:18Z</time>
      </trkpt>
      <trkpt lat="44.21519" lon="3.16039">
        <ele>704</ele>
        <time>2015-10-13T02:09:18Z</time>
      </trkpt>
      <trkpt lat="44.21524" lon="3.16037">
        <ele>704</ele>
        <time>2015-10-13T02:11:18Z</time>
      </trkpt>
      <trkpt lat="44.21532" lon="3.16035">
        <ele>705</ele>
        <time>2015-10-13T02:13:18Z</time>
      </trkpt>
      <trkpt lat="44.21544" lon="3.16027">
        <ele>707</ele>
        <time>2015-10-13T02:15:18Z</time>
      </trkpt>
      <trkpt lat="44.21555" lon="3.16023">
        <ele>709</ele>
        <time>2015-10-13T02:17:18Z</time>
      </trkpt>
      <trkpt lat="44.21562" lon="3.16021">
        <ele>710</ele>
        <time>2015-10-13T02:19:18Z</time>
      </trkpt>
      <trkpt lat="44.21571" lon="3.16016">
        <ele>712</ele>
        <time>2015-10-13T02:21:18Z</time>
      </trkpt>
      <trkpt lat="44.21577" lon="3.16011">
        <ele>714</ele>
        <time>2015-10-13T02:23:18Z</time>
      </trkpt>
      <trkpt lat="44.21581" lon="3.16013">
        <ele>714</ele>
        <time>2015-10-13T02:25:18Z</time>
      </trkpt>
      <trkpt lat="44.21586" lon="3.1601">
        <ele>715</ele>
        <time>2015-10-13T02:27:18Z</time>
      </trkpt>
      <trkpt lat="44.21592" lon="3.16005">
        <ele>717</ele>
        <time>2015-10-13T02:29:18Z</time>
      </trkpt>
      <trkpt lat="44.21597" lon="3.16002">
        <ele>718</ele>
        <time>2015-10-13T02:31:18Z</time>
      </trkpt>
      <trkpt lat="44.21607" lon="3.15999">
        <ele>719</ele>
        <time>2015-10-13T02:33:18Z</time>
      </trkpt>
      <trkpt lat="44.21613" lon="3.15996">
        <ele>719</ele>
        <time>2015-10-13T02:35:18Z</time>
      </trkpt>
      <trkpt lat="44.21628" lon="3.15992">
        <ele>719</ele>
        <time>2015-10-13T02:37:18Z</time>
      </trkpt>
      <trkpt lat="44.21634" lon="3.15993">
        <ele>720</ele>
        <time>2015-10-13T02:39:18Z</time>
      </trkpt>
      <trkpt lat="44.21638" lon="3.15991">
        <ele>720</ele>
        <time>2015-10-13T02:41:18Z</time>
      </trkpt>
      <trkpt lat="44.2164" lon="3.15985">
        <ele>719</ele>
        <time>2015-10-13T02:43:18Z</time>
      </trkpt>
      <trkpt lat="44.21642" lon="3.15983">
        <ele>719</ele>
        <time>2015-10-13T02:45:18Z</time>
      </trkpt>
      <trkpt lat="44.21652" lon="3.15976">
        <ele>719</ele>
        <time>2015-10-13T02:47:18Z</time>
      </trkpt>
      <trkpt lat="44.21663" lon="3.15968">
        <ele>720</ele>
        <time>2015-10-13T02:49:18Z</time>
      </trkpt>
      <trkpt lat="44.21667" lon="3.15967">
        <ele>720</ele>
        <time>2015-10-13T02:51:18Z</time>
      </trkpt>
      <trkpt lat="44.21674" lon="3.1596">
        <ele>719</ele>
        <time>2015-10-13T02:53:18Z</time>
      </trkpt>
      <trkpt lat="44.21682" lon="3.15954">
        <ele>718</ele>
        <time>2015-10-13T02:55:18Z</time>
      </trkpt>
      <trkpt lat="44.21691" lon="3.15944">
        <ele>717</ele>
        <time>2015-10-13T02:57:18Z</time>
      </trkpt>
      <trkpt lat="44.217" lon="3.15936">
        <ele>717</ele>
        <time>2015-10-13T02:59:18Z</time>
      </trkpt>
      <trkpt lat="44.21708" lon="3.15929">
        <ele>718</ele>
        <time>2015-10-13T03:01:18Z</time>
      </trkpt>
      <trkpt lat="44.21714" lon="3.15924">
        <ele>719</ele>
        <time>2015-10-13T03:03:18Z</time>
      </trkpt>
      <trkpt lat="44.21723" lon="3.15915">
        <ele>720</ele>
        <time>2015-10-13T03:05:18Z</time>
      </trkpt>
      <trkpt lat="44.21728" lon="3.15916">
        <ele>720</ele>
        <time>2015-10-13T03:07:18Z</time>
      </trkpt>
      <trkpt lat="44.21733" lon="3.15911">
        <ele>720</ele>
        <time>2015-10-13T03:09:18Z</time>
      </trkpt>
      <trkpt lat="44.21736" lon="3.15905">
        <ele>719</ele>
        <time>2015-10-13T03:11:18Z</time>
      </trkpt>
      <trkpt lat="44.21743" lon="3.15896">
        <ele>719</ele>
        <time>2015-10-13T03:13:18Z</time>
      </trkpt>
      <trkpt lat="44.2175" lon="3.15891">
        <ele>720</ele>
        <time>2015-10-13T03:15:18Z</time>
      </trkpt>
      <trkpt lat="44.21758" lon="3.15884">
        <ele>718</ele>
        <time>2015-10-13T03:17:18Z</time>
      </trkpt>
      <trkpt lat="44.21759" lon="3.15883">
        <ele>718</ele>
        <time>2015-10-13T03:19:18Z</time>
      </trkpt>
      <trkpt lat="44.21767" lon="3.15876">
        <ele>717</ele>
        <time>2015-10-13T03:21:18Z</time>
      </trkpt>
      <trkpt lat="44.21772" lon="3.15868">
        <ele>717</ele>
        <time>2015-10-13T03:23:18Z</time>
      </trkpt>
      <trkpt lat="44.21783" lon="3.15859">
        <ele>717</ele>
        <time>2015-10-13T03:25:18Z</time>
      </trkpt>
      <trkpt lat="44.21794" lon="3.15847">
        <ele>718</ele>
        <time>2015-10-13T03:27:18Z</time>
      </trkpt>
      <trkpt lat="44.21801" lon="3.15839">
        <ele>720</ele>
        <time>2015-10-13T03:29:18Z</time>
      </trkpt>
      <trkpt lat="44.21807" lon="3.15833">
        <ele>721</ele>
        <time>2015-10-13T03:31:18Z</time>
      </trkpt>
      <trkpt lat="44.21811" lon="3.15827">
        <ele>721</ele>
        <time>2015-10-13T03:33:18Z</time>
      </trkpt>
      <trkpt lat="44.21814" lon="3.15825">
        <ele>721</ele>
        <time>2015-10-13T03:35:18Z</time>
      </trkpt>
      <trkpt lat="44.21814" lon="3.15822">
        <ele>721</ele>
        <time>2015-10-13T03:37:18Z</time>
      </trkpt>
      <trkpt lat="44.2182" lon="3.15814">
        <ele>721</ele>
        <time>2015-10-13T03:39:18Z</time>
      </trkpt>
      <trkpt lat="44.21822" lon="3.15808">
        <ele>720</ele>
        <time>2015-10-13T03:41:18Z</time>
      </trkpt>
      <trkpt lat="44.21832" lon="3.15794">
        <ele>721</ele>
        <time>2015-10-13T03:43:18Z</time>
      </trkpt>
      <trkpt lat="44.2184" lon="3.15787">
        <ele>720</ele>
        <time>2015-10-13T03:45:18Z</time>
      </trkpt>
      <trkpt lat="44.21842" lon="3.15786">
        <ele>720</ele>
        <time>2015-10-13T03:47:18Z</time>
      </trkpt>
      <trkpt lat="44.21846" lon="3.15777">
        <ele>720</ele>
        <time>2015-10-13T03:49:18Z</time>
      </trkpt>
      <trkpt lat="44.21849" lon="3.15776">
        <ele>719</ele>
        <time>2015-10-13T03:51:18Z</time>
      </trkpt>
      <trkpt lat="44.21854" lon="3.15769">
        <ele>719</ele>
        <time>2015-10-13T03:53:18Z</time>
      </trkpt>
      <trkpt lat="44.21866" lon="3.15755">
        <ele>720</ele>
        <time>2015-10-13T03:55:18Z</time>
      </trkpt>
      <trkpt lat="44.21872" lon="3.15746">
        <ele>720</ele>
        <time>2015-10-13T03:57:18Z</time>
      </trkpt>
      <trkpt lat="44.21878" lon="3.15738">
        <ele>719</ele>
        <time>2015-10-13T03:59:18Z</time>
      </trkpt>
      <trkpt lat="44.21885" lon="3.15729">
        <ele>719</ele>
        <time>2015-10-13T04:01:18Z</time>
      </trkpt>
      <trkpt lat="44.21892" lon="3.1572">
        <ele>719</ele>
        <time>2015-10-13T04:03:18Z</time>
      </trkpt>
      <trkpt lat="44.219" lon="3.15713">
        <ele>720</ele>
        <time>2015-10-13T04:05:18Z</time>
      </trkpt>
      <trkpt lat="44.21901" lon="3.15712">
        <ele>720</ele>
        <time>2015-10-13T04:07:18Z</time>
      </trkpt>
      <trkpt lat="44.21908" lon="3.15702">
        <ele>722</ele>
        <time>2015-10-13T04:09:18Z</time>
      </trkpt>
      <trkpt lat="44.21914" lon="3.15696">
        <ele>723</ele>
        <time>2015-10-13T04:11:18Z</time>
      </trkpt>
      <trkpt lat="44.21923" lon="3.1568">
        <ele>725</ele>
        <time>2015-10-13T04:13:18Z</time>
      </trkpt>
      <trkpt lat="44.21928" lon="3.15673">
        <ele>725</ele>
        <time>2015-10-13T04:15:18Z</time>
      </trkpt>
      <trkpt lat="44.21931" lon="3.1567">
        <ele>726</ele>
        <time>2015-10-13T04:17:18Z</time>
      </trkpt>
      <trkpt lat="44.21934" lon="3.15666">
        <ele>726</ele>
        <time>2015-10-13T04:19:18Z</time>
      </trkpt>
      <trkpt lat="44.21937" lon="3.15661">
        <ele>725</ele>
        <time>2015-10-13T04:21:18Z</time>
      </trkpt>
      <trkpt lat="44.21943" lon="3.15656">
        <ele>725</ele>
        <time>2015-10-13T04:23:18Z</time>
      </trkpt>
      <trkpt lat="44.21946" lon="3.15651">
        <ele>725</ele>
        <time>2015-10-13T04:25:18Z</time>
      </trkpt>
      <trkpt lat="44.21951" lon="3.15649">
        <ele>725</ele>
        <time>2015-10-13T04:27:18Z</time>
      </trkpt>
      <trkpt lat="44.21954" lon="3.15646">
        <ele>725</ele>
        <time>2015-10-13T04:29:18Z</time>
      </trkpt>
      <trkpt lat="44.2196" lon="3.15638">
        <ele>725</ele>
        <time>2015-10-13T04:31:18Z</time>
      </trkpt>
      <trkpt lat="44.21963" lon="3.15634">
        <ele>726</ele>
        <time>2015-10-13T04:33:18Z</time>
      </trkpt>
      <trkpt lat="44.2197" lon="3.1563">
        <ele>727</ele>
        <time>2015-10-13T04:35:18Z</time>
      </trkpt>
      <trkpt lat="44.21978" lon="3.15621">
        <ele>728</ele>
        <time>2015-10-13T04:37:18Z</time>
      </trkpt>
      <trkpt lat="44.21979" lon="3.15619">
        <ele>728</ele>
        <time>2015-10-13T04:39:18Z</time>
      </trkpt>
      <trkpt lat="44.21988" lon="3.15608">
        <ele>730</ele>
        <time>2015-10-13T04:41:18Z</time>
      </trkpt>
      <trkpt lat="44.21992" lon="3.15607">
        <ele>732</ele>
        <time>2015-10-13T04:43:18Z</time>
      </trkpt>
      <trkpt lat="44.21996" lon="3.15603">
        <ele>733</ele>
        <time>2015-10-13T04:45:18Z</time>
      </trkpt>
      <trkpt lat="44.22007" lon="3.15592">
        <ele>734</ele>
        <time>2015-10-13T04:47:18Z</time>
      </trkpt>
      <trkpt lat="44.22015" lon="3.15584">
        <ele>734</ele>
        <time>2015-10-13T04:49:18Z</time>
      </trkpt>
      <trkpt lat="44.22024" lon="3.15579">
        <ele>733</ele>
        <time>2015-10-13T04:51:18Z</time>
      </trkpt>
      <trkpt lat="44.22031" lon="3.15566">
        <ele>731</ele>
        <time>2015-10-13T04:53:18Z</time>
      </trkpt>
      <trkpt lat="44.2204" lon="3.1556">
        <ele>730</ele>
        <time>2015-10-13T04:55:18Z</time>
      </trkpt>
      <trkpt lat="44.22047" lon="3.15555">
        <ele>730</ele>
        <time>2015-10-13T04:57:18Z</time>
      </trkpt>
      <trkpt lat="44.22055" lon="3.15546">
        <ele>730</ele>
        <time>2015-10-13T04:59:18Z</time>
      </trkpt>
      <trkpt lat="44.22065" lon="3.15541">
        <ele>731</ele>
        <time>2015-10-13T05:01:18Z</time>
      </trkpt>
      <trkpt lat="44.2207" lon="3.15537">
        <ele>731</ele>
        <time>2015-10-13T05:03:18Z</time>
      </trkpt>
      <trkpt lat="44.22071" lon="3.15534">
        <ele>731</ele>
        <time>2015-10-13T05:05:18Z</time>
      </trkpt>
      <trkpt lat="44.22076" lon="3.1553">
        <ele>732</ele>
        <time>2015-10-13T05:07:18Z</time>
      </trkpt>
      <trkpt lat="44.22086" lon="3.15522">
        <ele>733</ele>
        <time>2015-10-13T05:09:18Z</time>
      </trkpt>
      <trkpt lat="44.22095" lon="3.1551">
        <ele>734</ele>
        <time>2015-10-13T05:11:18Z</time>
      </trkpt>
      <trkpt lat="44.22098" lon="3.15503">
        <ele>734</ele>
        <time>2015-10-13T05:13:18Z</time>
      </trkpt>
      <trkpt lat="44.22106" lon="3.155">
        <ele>734</ele>
        <time>2015-10-13T05:15:18Z</time>
      </trkpt>
      <trkpt lat="44.22108" lon="3.15498">
        <ele>734</ele>
        <time>2015-10-13T05:17:18Z</time>
      </trkpt>
      <trkpt lat="44.22117" lon="3.15489">
        <ele>732</ele>
        <time>2015-10-13T05:19:18Z</time>
      </trkpt>
      <trkpt lat="44.22119" lon="3.15488">
        <ele>732</ele>
        <time>2015-10-13T05:21:18Z</time>
      </trkpt>
      <trkpt lat="44.22121" lon="3.15482">
        <ele>731</ele>
        <time>2015-10-13T05:23:18Z</time>
      </trkpt>
      <trkpt lat="44.22124" lon="3.1548">
        <ele>731</ele>
        <time>2015-10-13T05:25:18Z</time>
      </trkpt>
      <trkpt lat="44.22129" lon="3.15476">
        <ele>731</ele>
        <time>2015-10-13T05:27:18Z</time>
      </trkpt>
      <trkpt lat="44.22133" lon="3.15466">
        <ele>729</ele>
        <time>2015-10-13T05:29:18Z</time>
      </trkpt>
      <trkpt lat="44.22137" lon="3.15466">
        <ele>730</ele>
        <time>2015-10-13T05:31:18Z</time>
      </trkpt>
      <trkpt lat="44.22141" lon="3.15463">
        <ele>730</ele>
        <time>2015-10-13T05:33:18Z</time>
      </trkpt>
      <trkpt lat="44.22143" lon="3.1546">
        <ele>730</ele>
        <time>2015-10-13T05:35:18Z</time>
      </trkpt>
      <trkpt lat="44.22148" lon="3.15457">
        <ele>730</ele>
        <time>2015-10-13T05:37:18Z</time>
      </trkpt>
      <trkpt lat="44.22154" lon="3.15454">
        <ele>731</ele>
        <time>2015-10-13T05:39:18Z</time>
      </trkpt>
      <trkpt lat="44.22166" lon="3.15452">
        <ele>733</ele>
        <time>2015-10-13T05:41:18Z</time>
      </trkpt>
      <trkpt lat="44.22178" lon="3.15446">
        <ele>734</ele>
        <time>2015-10-13T05:43:18Z</time>
      </trkpt>
      <trkpt lat="44.22182" lon="3.15441">
        <ele>734</ele>
        <time>2015-10-13T05:45:18Z</time>
      </trkpt>
      <trkpt lat="44.22184" lon="3.1544">
        <ele>734</ele>
        <time>2015-10-13T05:47:18Z</time>
      </trkpt>
      <trkpt lat="44.22189" lon="3.15439">
        <ele>735</ele>
        <time>2015-10-13T05:49:18Z</time>
      </trkpt>
      <trkpt lat="44.22196" lon="3.15435">
        <ele>735</ele>
        <time>2015-10-13T05:51:18Z</time>
      </trkpt>
      <trkpt lat="44.22204" lon="3.1543">
        <ele>736</ele>
        <time>2015-10-13T05:53:18Z</time>
      </trkpt>
      <trkpt lat="44.22216" lon="3.15425">
        <ele>738</ele>
        <time>2015-10-13T05:55:18Z</time>
      </trkpt>
      <trkpt lat="44.22219" lon="3.1542">
        <ele>738</ele>
        <time>2015-10-13T05:57:18Z</time>
      </trkpt>
      <trkpt lat="44.22228" lon="3.15414">
        <ele>738</ele>
        <time>2015-10-13T05:59:18Z</time>
      </trkpt>
      <trkpt lat="44.22238" lon="3.15408">
        <ele>738</ele>
        <time>2015-10-13T06:01:18Z</time>
      </trkpt>
      <trkpt lat="44.22245" lon="3.154">
        <ele>737</ele>
        <time>2015-10-13T06:03:18Z</time>
      </trkpt>
      <trkpt lat="44.22255" lon="3.15398">
        <ele>737</ele>
        <time>2015-10-13T06:05:18Z</time>
      </trkpt>
      <trkpt lat="44.22264" lon="3.15392">
        <ele>737</ele>
        <time>2015-10-13T06:07:18Z</time>
      </trkpt>
      <trkpt lat="44.22273" lon="3.15383">
        <ele>736</ele>
        <time>2015-10-13T06:09:18Z</time>
      </trkpt>
      <trkpt lat="44.22282" lon="3.15372">
        <ele>734</ele>
        <time>2015-10-13T06:11:18Z</time>
      </trkpt>
      <trkpt lat="44.22289" lon="3.15366">
        <ele>734</ele>
        <time>2015-10-13T06:13:18Z</time>
      </trkpt>
      <trkpt lat="44.22293" lon="3.15362">
        <ele>734</ele>
        <time>2015-10-13T06:15:18Z</time>
      </trkpt>
      <trkpt lat="44.22304" lon="3.15365">
        <ele>736</ele>
        <time>2015-10-13T06:17:18Z</time>
      </trkpt>
      <trkpt lat="44.2231" lon="3.15363">
        <ele>737</ele>
        <time>2015-10-13T06:19:18Z</time>
      </trkpt>
      <trkpt lat="44.22316" lon="3.1536">
        <ele>737</ele>
        <time>2015-10-13T06:21:18Z</time>
      </trkpt>
      <trkpt lat="44.22322" lon="3.15356">
        <ele>738</ele>
        <time>2015-10-13T06:23:18Z</time>
      </trkpt>
      <trkpt lat="44.22329" lon="3.15354">
        <ele>738</ele>
        <time>2015-10-13T06:25:18Z</time>
      </trkpt>
      <trkpt lat="44.22336" lon="3.15348">
        <ele>738</ele>
        <time>2015-10-13T06:27:18Z</time>
      </trkpt>
      <trkpt lat="44.22337" lon="3.15348">
        <ele>738</ele>
        <time>2015-10-13T06:29:18Z</time>
      </trkpt>
      <trkpt lat="44.22338" lon="3.1535">
        <ele>739</ele>
        <time>2015-10-13T06:31:18Z</time>
      </trkpt>
      <trkpt lat="44.22346" lon="3.15363">
        <ele>741</ele>
        <time>2015-10-13T06:33:18Z</time>
      </trkpt>
      <trkpt lat="44.22351" lon="3.15371">
        <ele>743</ele>
        <time>2015-10-13T06:35:18Z</time>
      </trkpt>
      <trkpt lat="44.22354" lon="3.15376">
        <ele>744</ele>
        <time>2015-10-13T06:37:18Z</time>
      </trkpt>
      <trkpt lat="44.22357" lon="3.15394">
        <ele>747</ele>
        <time>2015-10-13T06:39:18Z</time>
      </trkpt>
      <trkpt lat="44.22357" lon="3.15412">
        <ele>750</ele>
        <time>2015-10-13T06:41:18Z</time>
      </trkpt>
      <trkpt lat="44.22363" lon="3.15412">
        <ele>751</ele>
        <time>2015-10-13T06:43:18Z</time>
      </trkpt>
      <trkpt lat="44.22375" lon="3.15403">
        <ele>750</ele>
        <time>2015-10-13T06:45:18Z</time>
      </trkpt>
      <trkpt lat="44.22384" lon="3.15396">
        <ele>750</ele>
        <time>2015-10-13T06:47:18Z</time>
      </trkpt>
      <trkpt lat="44.22392" lon="3.15388">
        <ele>749</ele>
        <time>2015-10-13T06:49:18Z</time>
      </trkpt>
      <trkpt lat="44.22399" lon="3.1538">
        <ele>748</ele>
        <time>2015-10-13T06:51:18Z</time>
      </trkpt>
      <trkpt lat="44.22404" lon="3.15375">
        <ele>747</ele>
        <time>2015-10-13T06:53:18Z</time>
      </trkpt>
      <trkpt lat="44.22409" lon="3.15374">
        <ele>747</ele>
        <time>2015-10-13T06:55:18Z</time>
      </trkpt>
      <trkpt lat="44.22419" lon="3.15368">
        <ele>747</ele>
        <time>2015-10-13T06:57:18Z</time>
      </trkpt>
      <trkpt lat="44.22424" lon="3.15364">
        <ele>748</ele>
        <time>2015-10-13T06:59:18Z</time>
      </trkpt>
      <trkpt lat="44.22431" lon="3.15358">
        <ele>748</ele>
        <time>2015-10-13T07:01:18Z</time>
      </trkpt>
      <trkpt lat="44.22436" lon="3.15355">
        <ele>749</ele>
        <time>2015-10-13T07:03:18Z</time>
      </trkpt>
      <trkpt lat="44.22442" lon="3.1535">
        <ele>749</ele>
        <time>2015-10-13T07:05:18Z</time>
      </trkpt>
      <trkpt lat="44.2245" lon="3.15346">
        <ele>750</ele>
        <time>2015-10-13T07:07:18Z</time>
      </trkpt>
      <trkpt lat="44.22461" lon="3.15341">
        <ele>752</ele>
        <time>2015-10-13T07:09:18Z</time>
      </trkpt>
      <trkpt lat="44.22465" lon="3.15339">
        <ele>752</ele>
        <time>2015-10-13T07:11:18Z</time>
      </trkpt>
      <trkpt lat="44.22474" lon="3.15336">
        <ele>754</ele>
        <time>2015-10-13T07:13:18Z</time>
      </trkpt>
      <trkpt lat="44.22485" lon="3.15331">
        <ele>755</ele>
        <time>2015-10-13T07:15:18Z</time>
      </trkpt>
      <trkpt lat="44.22492" lon="3.15325">
        <ele>755</ele>
        <time>2015-10-13T07:17:18Z</time>
      </trkpt>
      <trkpt lat="44.22498" lon="3.15321">
        <ele>756</ele>
        <time>2015-10-13T07:19:18Z</time>
      </trkpt>
      <trkpt lat="44.22505" lon="3.15318">
        <ele>756</ele>
        <time>2015-10-13T07:21:18Z</time>
      </trkpt>
      <trkpt lat="44.22512" lon="3.15314">
        <ele>757</ele>
        <time>2015-10-13T07:23:18Z</time>
      </trkpt>
      <trkpt lat="44.22517" lon="3.15311">
        <ele>757</ele>
        <time>2015-10-13T07:25:18Z</time>
      </trkpt>
      <trkpt lat="44.22548" lon="3.15297">
        <ele>761</ele>
        <time>2015-10-13T07:27:18Z</time>
      </trkpt>
      <trkpt lat="44.22554" lon="3.15294">
        <ele>762</ele>
        <time>2015-10-13T07:29:18Z</time>
      </trkpt>
      <trkpt lat="44.22561" lon="3.1529">
        <ele>763</ele>
        <time>2015-10-13T07:31:18Z</time>
      </trkpt>
      <trkpt lat="44.22567" lon="3.15288">
        <ele>764</ele>
        <time>2015-10-13T07:33:18Z</time>
      </trkpt>
      <trkpt lat="44.22579" lon="3.15281">
        <ele>766</ele>
        <time>2015-10-13T07:35:18Z</time>
      </trkpt>
      <trkpt lat="44.22586" lon="3.15281">
        <ele>768</ele>
        <time>2015-10-13T07:37:18Z</time>
      </trkpt>
      <trkpt lat="44.22594" lon="3.1528">
        <ele>768</ele>
        <time>2015-10-13T07:39:18Z</time>
      </trkpt>
      <trkpt lat="44.22605" lon="3.1528">
        <ele>769</ele>
        <time>2015-10-13T07:41:18Z</time>
      </trkpt>
      <trkpt lat="44.22617" lon="3.15279">
        <ele>769</ele>
        <time>2015-10-13T07:43:18Z</time>
      </trkpt>
      <trkpt lat="44.2263" lon="3.15283">
        <ele>771</ele>
        <time>2015-10-13T07:45:18Z</time>
      </trkpt>
      <trkpt lat="44.22637" lon="3.15288">
        <ele>773</ele>
        <time>2015-10-13T07:47:18Z</time>
      </trkpt>
      <trkpt lat="44.22643" lon="3.15293">
        <ele>774</ele>
        <time>2015-10-13T07:49:18Z</time>
      </trkpt>
      <trkpt lat="44.22655" lon="3.15299">
        <ele>776</ele>
        <time>2015-10-13T07:51:18Z</time>
      </trkpt>
      <trkpt lat="44.22667" lon="3.15309">
        <ele>779</ele>
        <time>2015-10-13T07:53:18Z</time>
      </trkpt>
      <trkpt lat="44.22687" lon="3.15326">
        <ele>780</ele>
        <time>2015-10-13T07:55:18Z</time>
      </trkpt>
      <trkpt lat="44.2269" lon="3.15327">
        <ele>780</ele>
        <time>2015-10-13T07:57:18Z</time>
      </trkpt>
      <trkpt lat="44.227" lon="3.15335">
        <ele>780</ele>
        <time>2015-10-13T07:59:18Z</time>
      </trkpt>
      <trkpt lat="44.22712" lon="3.15342">
        <ele>781</ele>
        <time>2015-10-13T08:01:18Z</time>
      </trkpt>
      <trkpt lat="44.2272" lon="3.15352">
        <ele>782</ele>
        <time>2015-10-13T08:03:18Z</time>
      </trkpt>
      <trkpt lat="44.22722" lon="3.15357">
        <ele>783</ele>
        <time>2015-10-13T08:05:18Z</time>
      </trkpt>
      <trkpt lat="44.22736" lon="3.1537">
        <ele>784</ele>
        <time>2015-10-13T08:07:18Z</time>
      </trkpt>
      <trkpt lat="44.22745" lon="3.15379">
        <ele>785</ele>
        <time>2015-10-13T08:09:18Z</time>
      </trkpt>
      <trkpt lat="44.22748" lon="3.15384">
        <ele>786</ele>
        <time>2015-10-13T08:11:18Z</time>
      </trkpt>
      <trkpt lat="44.2275" lon="3.15386">
        <ele>786</ele>
        <time>2015-10-13T08:13:18Z</time>
      </trkpt>
      <trkpt lat="44.22755" lon="3.1539">
        <ele>787</ele>
        <time>2015-10-13T08:15:18Z</time>
      </trkpt>
      <trkpt lat="44.22763" lon="3.1539">
        <ele>787</ele>
        <time>2015-10-13T08:17:18Z</time>
      </trkpt>
      <trkpt lat="44.22766" lon="3.15392">
        <ele>787</ele>
        <time>2015-10-13T08:19:18Z</time>
      </trkpt>
      <trkpt lat="44.22769" lon="3.15393">
        <ele>787</ele>
        <time>2015-10-13T08:21:18Z</time>
      </trkpt>
      <trkpt lat="44.22783" lon="3.15393">
        <ele>787</ele>
        <time>2015-10-13T08:23:18Z</time>
      </trkpt>
      <trkpt lat="44.22792" lon="3.15396">
        <ele>788</ele>
        <time>2015-10-13T08:25:18Z</time>
      </trkpt>
      <trkpt lat="44.22804" lon="3.15398">
        <ele>788</ele>
        <time>2015-10-13T08:27:18Z</time>
      </trkpt>
      <trkpt lat="44.22806" lon="3.15398">
        <ele>788</ele>
        <time>2015-10-13T08:29:18Z</time>
      </trkpt>
      <trkpt lat="44.22822" lon="3.15402">
        <ele>788</ele>
        <time>2015-10-13T08:31:18Z</time>
      </trkpt>
      <trkpt lat="44.22826" lon="3.15404">
        <ele>788</ele>
        <time>2015-10-13T08:33:18Z</time>
      </trkpt>
      <trkpt lat="44.22837" lon="3.1541">
        <ele>788</ele>
        <time>2015-10-13T08:35:18Z</time>
      </trkpt>
      <trkpt lat="44.22841" lon="3.15412">
        <ele>788</ele>
        <time>2015-10-13T08:37:18Z</time>
      </trkpt>
      <trkpt lat="44.22853" lon="3.15419">
        <ele>788</ele>
        <time>2015-10-13T08:39:18Z</time>
      </trkpt>
      <trkpt lat="44.22861" lon="3.15423">
        <ele>789</ele>
        <time>2015-10-13T08:41:18Z</time>
      </trkpt>
      <trkpt lat="44.22873" lon="3.15433">
        <ele>790</ele>
        <time>2015-10-13T08:43:18Z</time>
      </trkpt>
      <trkpt lat="44.22882" lon="3.15441">
        <ele>791</ele>
        <time>2015-10-13T08:45:18Z</time>
      </trkpt>
      <trkpt lat="44.22897" lon="3.15449">
        <ele>791</ele>
        <time>2015-10-13T08:47:18Z</time>
      </trkpt>
      <trkpt lat="44.22904" lon="3.15454">
        <ele>791</ele>
        <time>2015-10-13T08:49:18Z</time>
      </trkpt>
      <trkpt lat="44.22911" lon="3.15456">
        <ele>791</ele>
        <time>2015-10-13T08:51:18Z</time>
      </trkpt>
      <trkpt lat="44.22924" lon="3.15458">
        <ele>791</ele>
        <time>2015-10-13T08:53:18Z</time>
      </trkpt>
      <trkpt lat="44.22933" lon="3.1546">
        <ele>792</ele>
        <time>2015-10-13T08:55:18Z</time>
      </trkpt>
      <trkpt lat="44.22942" lon="3.15458">
        <ele>793</ele>
        <time>2015-10-13T08:57:18Z</time>
      </trkpt>
      <trkpt lat="44.22947" lon="3.15459">
        <ele>793</ele>
        <time>2015-10-13T08:59:18Z</time>
      </trkpt>
      <trkpt lat="44.22955" lon="3.1546">
        <ele>794</ele>
        <time>2015-10-13T09:01:18Z</time>
      </trkpt>
      <trkpt lat="44.22962" lon="3.15461">
        <ele>794</ele>
        <time>2015-10-13T09:03:18Z</time>
      </trkpt>
      <trkpt lat="44.22971" lon="3.15463">
        <ele>795</ele>
        <time>2015-10-13T09:05:18Z</time>
      </trkpt>
      <trkpt lat="44.2298" lon="3.15465">
        <ele>796</ele>
        <time>2015-10-13T09:07:18Z</time>
      </trkpt>
      <trkpt lat="44.2299" lon="3.15469">
        <ele>797</ele>
        <time>2015-10-13T09:09:18Z</time>
      </trkpt>
      <trkpt lat="44.22997" lon="3.15476">
        <ele>798</ele>
        <time>2015-10-13T09:11:18Z</time>
      </trkpt>
      <trkpt lat="44.23" lon="3.15478">
        <ele>799</ele>
        <time>2015-10-13T09:13:18Z</time>
      </trkpt>
      <trkpt lat="44.23008" lon="3.15482">
        <ele>800</ele>
        <time>2015-10-13T09:15:18Z</time>
      </trkpt>
      <trkpt lat="44.23013" lon="3.15488">
        <ele>801</ele>
        <time>2015-10-13T09:17:18Z</time>
      </trkpt>
      <trkpt lat="44.23022" lon="3.15493">
        <ele>802</ele>
        <time>2015-10-13T09:19:18Z</time>
      </trkpt>
      <trkpt lat="44.23029" lon="3.15498">
        <ele>803</ele>
        <time>2015-10-13T09:21:18Z</time>
      </trkpt>
      <trkpt lat="44.23033" lon="3.155">
        <ele>803</ele>
        <time>2015-10-13T09:23:18Z</time>
      </trkpt>
      <trkpt lat="44.23036" lon="3.15502">
        <ele>804</ele>
        <time>2015-10-13T09:25:18Z</time>
      </trkpt>
      <trkpt lat="44.23048" lon="3.15509">
        <ele>806</ele>
        <time>2015-10-13T09:27:18Z</time>
      </trkpt>
      <trkpt lat="44.2305" lon="3.1551">
        <ele>806</ele>
        <time>2015-10-13T09:29:18Z</time>
      </trkpt>
      <trkpt lat="44.23055" lon="3.15511">
        <ele>806</ele>
        <time>2015-10-13T09:31:18Z</time>
      </trkpt>
      <trkpt lat="44.23059" lon="3.15512">
        <ele>807</ele>
        <time>2015-10-13T09:33:18Z</time>
      </trkpt>
      <trkpt lat="44.23068" lon="3.15514">
        <ele>808</ele>
        <time>2015-10-13T09:35:18Z</time>
      </trkpt>
      <trkpt lat="44.23083" lon="3.15517">
        <ele>809</ele>
        <time>2015-10-13T09:37:18Z</time>
      </trkpt>
      <trkpt lat="44.23094" lon="3.15522">
        <ele>810</ele>
        <time>2015-10-13T09:39:18Z</time>
      </trkpt>
      <trkpt lat="44.23106" lon="3.15526">
        <ele>812</ele>
        <time>2015-10-13T09:41:18Z</time>
      </trkpt>
      <trkpt lat="44.23118" lon="3.15528">
        <ele>813</ele>
        <time>2015-10-13T09:43:18Z</time>
      </trkpt>
      <trkpt lat="44.2312" lon="3.15529">
        <ele>814</ele>
        <time>2015-10-13T09:45:18Z</time>
      </trkpt>
      <trkpt lat="44.2313" lon="3.15529">
        <ele>815</ele>
        <time>2015-10-13T09:47:18Z</time>
      </trkpt>
      <trkpt lat="44.23138" lon="3.15528">
        <ele>815</ele>
        <time>2015-10-13T09:49:18Z</time>
      </trkpt>
      <trkpt lat="44.23149" lon="3.15524">
        <ele>816</ele>
        <time>2015-10-13T09:51:18Z</time>
      </trkpt>
      <trkpt lat="44.23158" lon="3.15521">
        <ele>817</ele>
        <time>2015-10-13T09:53:18Z</time>
      </trkpt>
      <trkpt lat="44.23162" lon="3.15522">
        <ele>818</ele>
        <time>2015-10-13T09:55:18Z</time>
      </trkpt>
      <trkpt lat="44.23172" lon="3.15522">
        <ele>819</ele>
        <time>2015-10-13T09:57:18Z</time>
      </trkpt>
      <trkpt lat="44.23181" lon="3.15521">
        <ele>819</ele>
        <time>2015-10-13T09:59:18Z</time>
      </trkpt>
      <trkpt lat="44.23187" lon="3.1552">
        <ele>820</ele>
        <time>2015-10-13T10:01:18Z</time>
      </trkpt>
      <trkpt lat="44.23195" lon="3.1552">
        <ele>821</ele>
        <time>2015-10-13T10:03:18Z</time>
      </trkpt>
      <trkpt lat="44.23207" lon="3.15519">
        <ele>822</ele>
        <time>2015-10-13T10:05:18Z</time>
      </trkpt>
      <trkpt lat="44.23213" lon="3.15517">
        <ele>822</ele>
        <time>2015-10-13T10:07:18Z</time>
      </trkpt>
      <trkpt lat="44.23226" lon="3.15521">
        <ele>824</ele>
        <time>2015-10-13T10:09:18Z</time>
      </trkpt>
      <trkpt lat="44.2325" lon="3.15532">
        <ele>826</ele>
        <time>2015-10-13T10:11:18Z</time>
      </trkpt>
      <trkpt lat="44.23261" lon="3.15537">
        <ele>826</ele>
        <time>2015-10-13T10:13:18Z</time>
      </trkpt>
      <trkpt lat="44.23273" lon="3.15542">
        <ele>825</ele>
        <time>2015-10-13T10:15:18Z</time>
      </trkpt>
      <trkpt lat="44.23282" lon="3.15548">
        <ele>825</ele>
        <time>2015-10-13T10:17:18Z</time>
      </trkpt>
      <trkpt lat="44.23295" lon="3.15552">
        <ele>824</ele>
        <time>2015-10-13T10:19:18Z</time>
      </trkpt>
      <trkpt lat="44.23305" lon="3.15557">
        <ele>824</ele>
        <time>2015-10-13T10:21:18Z</time>
      </trkpt>
      <trkpt lat="44.23316" lon="3.15563">
        <ele>824</ele>
        <time>2015-10-13T10:23:18Z</time>
      </trkpt>
      <trkpt lat="44.23331" lon="3.15571">
        <ele>824</ele>
        <time>2015-10-13T10:25:18Z</time>
      </trkpt>
      <trkpt lat="44.23342" lon="3.15579">
        <ele>823</ele>
        <time>2015-10-13T10:27:18Z</time>
      </trkpt>
      <trkpt lat="44.23354" lon="3.15586">
        <ele>822</ele>
        <time>2015-10-13T10:29:18Z</time>
      </trkpt>
      <trkpt lat="44.23366" lon="3.15592">
        <ele>820</ele>
        <time>2015-10-13T10:31:18Z</time>
      </trkpt>
      <trkpt lat="44.23379" lon="3.15602">
        <ele>819</ele>
        <time>2015-10-13T10:33:18Z</time>
      </trkpt>
      <trkpt lat="44.23393" lon="3.15611">
        <ele>818</ele>
        <time>2015-10-13T10:35:18Z</time>
      </trkpt>
      <trkpt lat="44.23404" lon="3.15621">
        <ele>817</ele>
        <time>2015-10-13T10:37:18Z</time>
      </trkpt>
      <trkpt lat="44.23414" lon="3.15628">
        <ele>816</ele>
        <time>2015-10-13T10:39:18Z</time>
      </trkpt>
      <trkpt lat="44.23439" lon="3.15646">
        <ele>817</ele>
        <time>2015-10-13T10:41:18Z</time>
      </trkpt>
      <trkpt lat="44.23451" lon="3.15656">
        <ele>817</ele>
        <time>2015-10-13T10:43:18Z</time>
      </trkpt>
      <trkpt lat="44.23453" lon="3.15669">
        <ele>819</ele>
        <time>2015-10-13T10:45:18Z</time>
      </trkpt>
      <trkpt lat="44.23449" lon="3.15678">
        <ele>819</ele>
        <time>2015-10-13T10:47:18Z</time>
      </trkpt>
      <trkpt lat="44.23441" lon="3.157">
        <ele>818</ele>
        <time>2015-10-13T10:49:18Z</time>
      </trkpt>
      <trkpt lat="44.23435" lon="3.15716">
        <ele>817</ele>
        <time>2015-10-13T10:51:18Z</time>
      </trkpt>
      <trkpt lat="44.23433" lon="3.15738">
        <ele>816</ele>
        <time>2015-10-13T10:53:18Z</time>
      </trkpt>
      <trkpt lat="44.23429" lon="3.15753">
        <ele>815</ele>
        <time>2015-10-13T10:55:18Z</time>
      </trkpt>
      <trkpt lat="44.23426" lon="3.15772">
        <ele>812</ele>
        <time>2015-10-13T10:57:18Z</time>
      </trkpt>
      <trkpt lat="44.23419" lon="3.1579">
        <ele>810</ele>
        <time>2015-10-13T10:59:18Z</time>
      </trkpt>
      <trkpt lat="44.23412" lon="3.15803">
        <ele>809</ele>
        <time>2015-10-13T11:01:18Z</time>
      </trkpt>
      <trkpt lat="44.23405" lon="3.15814">
        <ele>808</ele>
        <time>2015-10-13T11:03:18Z</time>
      </trkpt>
      <trkpt lat="44.23397" lon="3.15832">
        <ele>807</ele>
        <time>2015-10-13T11:05:18Z</time>
      </trkpt>
      <trkpt lat="44.23393" lon="3.15842">
        <ele>806</ele>
        <time>2015-10-13T11:07:18Z</time>
      </trkpt>
      <trkpt lat="44.23388" lon="3.15859">
        <ele>805</ele>
        <time>2015-10-13T11:09:18Z</time>
      </trkpt>
      <trkpt lat="44.23379" lon="3.15879">
        <ele>804</ele>
        <time>2015-10-13T11:11:18Z</time>
      </trkpt>
      <trkpt lat="44.23372" lon="3.15898">
        <ele>803</ele>
        <time>2015-10-13T11:13:18Z</time>
      </trkpt>
      <trkpt lat="44.23362" lon="3.15918">
        <ele>801</ele>
        <time>2015-10-13T11:15:18Z</time>
      </trkpt>
      <trkpt lat="44.23353" lon="3.15929">
        <ele>801</ele>
        <time>2015-10-13T11:17:18Z</time>
      </trkpt>
      <trkpt lat="44.23343" lon="3.1594">
        <ele>801</ele>
        <time>2015-10-13T11:19:18Z</time>
      </trkpt>
      <trkpt lat="44.23335" lon="3.15949">
        <ele>800</ele>
        <time>2015-10-13T11:21:18Z</time>
      </trkpt>
      <trkpt lat="44.23329" lon="3.15956">
        <ele>800</ele>
        <time>2015-10-13T11:23:18Z</time>
      </trkpt>
      <trkpt lat="44.23322" lon="3.15967">
        <ele>799</ele>
        <time>2015-10-13T11:25:18Z</time>
      </trkpt>
      <trkpt lat="44.23314" lon="3.1598">
        <ele>797</ele>
        <time>2015-10-13T11:27:18Z</time>
      </trkpt>
      <trkpt lat="44.23304" lon="3.15993">
        <ele>796</ele>
        <time>2015-10-13T11:29:18Z</time>
      </trkpt>
      <trkpt lat="44.23291" lon="3.16003">
        <ele>795</ele>
        <time>2015-10-13T11:31:18Z</time>
      </trkpt>
      <trkpt lat="44.23279" lon="3.16015">
        <ele>795</ele>
        <time>2015-10-13T11:33:18Z</time>
      </trkpt>
      <trkpt lat="44.23268" lon="3.1602">
        <ele>795</ele>
        <time>2015-10-13T11:35:18Z</time>
      </trkpt>
      <trkpt lat="44.2326" lon="3.16038">
        <ele>793</ele>
        <time>2015-10-13T11:37:18Z</time>
      </trkpt>
      <trkpt lat="44.2326" lon="3.1606">
        <ele>790</ele>
        <time>2015-10-13T11:39:18Z</time>
      </trkpt>
      <trkpt lat="44.23259" lon="3.16077">
        <ele>788</ele>
        <time>2015-10-13T11:41:18Z</time>
      </trkpt>
      <trkpt lat="44.23258" lon="3.16094">
        <ele>787</ele>
        <time>2015-10-13T11:43:18Z</time>
      </trkpt>
      <trkpt lat="44.23257" lon="3.16112">
        <ele>786</ele>
        <time>2015-10-13T11:45:18Z</time>
      </trkpt>
      <trkpt lat="44.23253" lon="3.16126">
        <ele>785</ele>
        <time>2015-10-13T11:47:18Z</time>
      </trkpt>
      <trkpt lat="44.2325" lon="3.16143">
        <ele>784</ele>
        <time>2015-10-13T11:49:18Z</time>
      </trkpt>
      <trkpt lat="44.23246" lon="3.16161">
        <ele>784</ele>
        <time>2015-10-13T11:51:18Z</time>
      </trkpt>
      <trkpt lat="44.23244" lon="3.16176">
        <ele>784</ele>
        <time>2015-10-13T11:53:18Z</time>
      </trkpt>
      <trkpt lat="44.23242" lon="3.16181">
        <ele>784</ele>
        <time>2015-10-13T11:55:18Z</time>
      </trkpt>
      <trkpt lat="44.23229" lon="3.16193">
        <ele>784</ele>
        <time>2015-10-13T11:57:18Z</time>
      </trkpt>
      <trkpt lat="44.23223" lon="3.16211">
        <ele>784</ele>
        <time>2015-10-13T11:59:18Z</time>
      </trkpt>
      <trkpt lat="44.23223" lon="3.16224">
        <ele>783</ele>
        <time>2015-10-13T12:01:18Z</time>
      </trkpt>
      <trkpt lat="44.23219" lon="3.16235">
        <ele>783</ele>
        <time>2015-10-13T12:03:18Z</time>
      </trkpt>
      <trkpt lat="44.23218" lon="3.16237">
        <ele>782</ele>
        <time>2015-10-13T12:05:18Z</time>
      </trkpt>
      <trkpt lat="44.23215" lon="3.16256">
        <ele>781</ele>
        <time>2015-10-13T12:07:18Z</time>
      </trkpt>
      <trkpt lat="44.23212" lon="3.16267">
        <ele>781</ele>
        <time>2015-10-13T12:09:18Z</time>
      </trkpt>
      <trkpt lat="44.23211" lon="3.16273">
        <ele>780</ele>
        <time>2015-10-13T12:11:18Z</time>
      </trkpt>
      <trkpt lat="44.23195" lon="3.1629">
        <ele>777</ele>
        <time>2015-10-13T12:13:18Z</time>
      </trkpt>
      <trkpt lat="44.23191" lon="3.16298">
        <ele>776</ele>
        <time>2015-10-13T12:15:18Z</time>
      </trkpt>
      <trkpt lat="44.23183" lon="3.16304">
        <ele>774</ele>
        <time>2015-10-13T12:17:18Z</time>
      </trkpt>
      <trkpt lat="44.23178" lon="3.16312">
        <ele>772</ele>
        <time>2015-10-13T12:19:18Z</time>
      </trkpt>
      <trkpt lat="44.23164" lon="3.16329">
        <ele>767</ele>
        <time>2015-10-13T12:21:18Z</time>
      </trkpt>
      <trkpt lat="44.23157" lon="3.16342">
        <ele>767</ele>
        <time>2015-10-13T12:23:18Z</time>
      </trkpt>
      <trkpt lat="44.23156" lon="3.16355">
        <ele>767</ele>
        <time>2015-10-13T12:25:18Z</time>
      </trkpt>
      <trkpt lat="44.23155" lon="3.16363">
        <ele>767</ele>
        <time>2015-10-13T12:27:18Z</time>
      </trkpt>
      <trkpt lat="44.23149" lon="3.16373">
        <ele>767</ele>
        <time>2015-10-13T12:29:18Z</time>
      </trkpt>
      <trkpt lat="44.23147" lon="3.16384">
        <ele>768</ele>
        <time>2015-10-13T12:31:18Z</time>
      </trkpt>
      <trkpt lat="44.23146" lon="3.16394">
        <ele>768</ele>
        <time>2015-10-13T12:33:18Z</time>
      </trkpt>
      <trkpt lat="44.23146" lon="3.16405">
        <ele>769</ele>
        <time>2015-10-13T12:35:18Z</time>
      </trkpt>
      <trkpt lat="44.23145" lon="3.16414">
        <ele>769</ele>
        <time>2015-10-13T12:37:18Z</time>
      </trkpt>
      <trkpt lat="44.23143" lon="3.16424">
        <ele>770</ele>
        <time>2015-10-13T12:39:18Z</time>
      </trkpt>
      <trkpt lat="44.23142" lon="3.16436">
        <ele>770</ele>
        <time>2015-10-13T12:41:18Z</time>
      </trkpt>
      <trkpt lat="44.23141" lon="3.16443">
        <ele>771</ele>
        <time>2015-10-13T12:43:18Z</time>
      </trkpt>
      <trkpt lat="44.23139" lon="3.1645">
        <ele>771</ele>
        <time>2015-10-13T12:45:18Z</time>
      </trkpt>
      <trkpt lat="44.23137" lon="3.16456">
        <ele>772</ele>
        <time>2015-10-13T12:47:18Z</time>
      </trkpt>
      <trkpt lat="44.23135" lon="3.1646">
        <ele>772</ele>
        <time>2015-10-13T12:49:18Z</time>
      </trkpt>
      <trkpt lat="44.23132" lon="3.16466">
        <ele>773</ele>
        <time>2015-10-13T12:51:18Z</time>
      </trkpt>
      <trkpt lat="44.23129" lon="3.16472">
        <ele>774</ele>
        <time>2015-10-13T12:53:18Z</time>
      </trkpt>
      <trkpt lat="44.23127" lon="3.16476">
        <ele>774</ele>
        <time>2015-10-13T12:55:18Z</time>
      </trkpt>
      <trkpt lat="44.23124" lon="3.16482">
        <ele>775</ele>
        <time>2015-10-13T12:57:18Z</time>
      </trkpt>
      <trkpt lat="44.23122" lon="3.16487">
        <ele>775</ele>
        <time>2015-10-13T12:59:18Z</time>
      </trkpt>
      <trkpt lat="44.2312" lon="3.16492">
        <ele>776</ele>
        <time>2015-10-13T13:01:18Z</time>
      </trkpt>
      <trkpt lat="44.23118" lon="3.16497">
        <ele>777</ele>
        <time>2015-10-13T13:03:18Z</time>
      </trkpt>
      <trkpt lat="44.23115" lon="3.16503">
        <ele>777</ele>
        <time>2015-10-13T13:05:18Z</time>
      </trkpt>
      <trkpt lat="44.23113" lon="3.16507">
        <ele>778</ele>
        <time>2015-10-13T13:07:18Z</time>
      </trkpt>
      <trkpt lat="44.2311" lon="3.16514">
        <ele>779</ele>
        <time>2015-10-13T13:09:18Z</time>
      </trkpt>
      <trkpt lat="44.23104" lon="3.16521">
        <ele>780</ele>
        <time>2015-10-13T13:11:18Z</time>
      </trkpt>
      <trkpt lat="44.23098" lon="3.16531">
        <ele>781</ele>
        <time>2015-10-13T13:13:18Z</time>
      </trkpt>
      <trkpt lat="44.23095" lon="3.16535">
        <ele>781</ele>
        <time>2015-10-13T13:15:18Z</time>
      </trkpt>
      <trkpt lat="44.23092" lon="3.16539">
        <ele>782</ele>
        <time>2015-10-13T13:17:18Z</time>
      </trkpt>
      <trkpt lat="44.23089" lon="3.16543">
        <ele>782</ele>
        <time>2015-10-13T13:19:18Z</time>
      </trkpt>
      <trkpt lat="44.23086" lon="3.16545">
        <ele>782</ele>
        <time>2015-10-13T13:21:18Z</time>
      </trkpt>
      <trkpt lat="44.23081" lon="3.1655">
        <ele>783</ele>
        <time>2015-10-13T13:23:18Z</time>
      </trkpt>
      <trkpt lat="44.23074" lon="3.16557">
        <ele>784</ele>
        <time>2015-10-13T13:25:18Z</time>
      </trkpt>
      <trkpt lat="44.23066" lon="3.16568">
        <ele>786</ele>
        <time>2015-10-13T13:27:18Z</time>
      </trkpt>
      <trkpt lat="44.23058" lon="3.16579">
        <ele>787</ele>
        <time>2015-10-13T13:29:18Z</time>
      </trkpt>
      <trkpt lat="44.23049" lon="3.16591">
        <ele>789</ele>
        <time>2015-10-13T13:31:18Z</time>
      </trkpt>
      <trkpt lat="44.2303" lon="3.16607">
        <ele>792</ele>
        <time>2015-10-13T13:33:18Z</time>
      </trkpt>
      <trkpt lat="44.23022" lon="3.16608">
        <ele>793</ele>
        <time>2015-10-13T13:35:18Z</time>
      </trkpt>
      <trkpt lat="44.23015" lon="3.16609">
        <ele>794</ele>
        <time>2015-10-13T13:37:18Z</time>
      </trkpt>
      <trkpt lat="44.23006" lon="3.16616">
        <ele>796</ele>
        <time>2015-10-13T13:39:18Z</time>
      </trkpt>
      <trkpt lat="44.23" lon="3.1663">
        <ele>798</ele>
        <time>2015-10-13T13:41:18Z</time>
      </trkpt>
      <trkpt lat="44.22992" lon="3.16643">
        <ele>799</ele>
        <time>2015-10-13T13:43:18Z</time>
      </trkpt>
      <trkpt lat="44.22987" lon="3.16655">
        <ele>800</ele>
        <time>2015-10-13T13:45:18Z</time>
      </trkpt>
      <trkpt lat="44.22981" lon="3.16668">
        <ele>801</ele>
        <time>2015-10-13T13:47:18Z</time>
      </trkpt>
      <trkpt lat="44.22975" lon="3.1668">
        <ele>803</ele>
        <time>2015-10-13T13:49:18Z</time>
      </trkpt>
      <trkpt lat="44.22971" lon="3.16684">
        <ele>803</ele>
        <time>2015-10-13T13:51:18Z</time>
      </trkpt>
      <trkpt lat="44.22964" lon="3.16693">
        <ele>805</ele>
        <time>2015-10-13T13:53:18Z</time>
      </trkpt>
      <trkpt lat="44.22956" lon="3.16707">
        <ele>807</ele>
        <time>2015-10-13T13:55:18Z</time>
      </trkpt>
      <trkpt lat="44.2295" lon="3.16714">
        <ele>808</ele>
        <time>2015-10-13T13:57:18Z</time>
      </trkpt>
      <trkpt lat="44.22949" lon="3.16716">
        <ele>808</ele>
        <time>2015-10-13T13:59:18Z</time>
      </trkpt>
      <trkpt lat="44.22947" lon="3.16719">
        <ele>809</ele>
        <time>2015-10-13T14:01:18Z</time>
      </trkpt>
      <trkpt lat="44.22941" lon="3.1673">
        <ele>811</ele>
        <time>2015-10-13T14:03:18Z</time>
      </trkpt>
      <trkpt lat="44.22938" lon="3.16733">
        <ele>812</ele>
        <time>2015-10-13T14:05:18Z</time>
      </trkpt>
      <trkpt lat="44.22933" lon="3.1674">
        <ele>813</ele>
        <time>2015-10-13T14:07:18Z</time>
      </trkpt>
      <trkpt lat="44.22927" lon="3.1675">
        <ele>815</ele>
        <time>2015-10-13T14:09:18Z</time>
      </trkpt>
      <trkpt lat="44.22923" lon="3.16758">
        <ele>816</ele>
        <time>2015-10-13T14:11:18Z</time>
      </trkpt>
      <trkpt lat="44.22916" lon="3.16773">
        <ele>819</ele>
        <time>2015-10-13T14:13:18Z</time>
      </trkpt>
      <trkpt lat="44.2291" lon="3.16781">
        <ele>822</ele>
        <time>2015-10-13T14:15:18Z</time>
      </trkpt>
      <trkpt lat="44.22906" lon="3.16787">
        <ele>823</ele>
        <time>2015-10-13T14:17:18Z</time>
      </trkpt>
      <trkpt lat="44.22903" lon="3.1679">
        <ele>824</ele>
        <time>2015-10-13T14:19:18Z</time>
      </trkpt>
      <trkpt lat="44.22894" lon="3.16797">
        <ele>827</ele>
        <time>2015-10-13T14:21:18Z</time>
      </trkpt>
      <trkpt lat="44.22893" lon="3.16798">
        <ele>827</ele>
        <time>2015-10-13T14:23:18Z</time>
      </trkpt>
      <trkpt lat="44.22887" lon="3.16803">
        <ele>829</ele>
        <time>2015-10-13T14:25:18Z</time>
      </trkpt>
      <trkpt lat="44.2288" lon="3.16807">
        <ele>831</ele>
        <time>2015-10-13T14:27:18Z</time>
      </trkpt>
      <trkpt lat="44.22872" lon="3.16799">
        <ele>832</ele>
        <time>2015-10-13T14:29:18Z</time>
      </trkpt>
      <trkpt lat="44.22866" lon="3.16797">
        <ele>832</ele>
        <time>2015-10-13T14:31:18Z</time>
      </trkpt>
      <trkpt lat="44.22862" lon="3.16794">
        <ele>833</ele>
        <time>2015-10-13T14:33:18Z</time>
      </trkpt>
      <trkpt lat="44.22862" lon="3.16792">
        <ele>832</ele>
        <time>2015-10-13T14:35:18Z</time>
      </trkpt>
      <trkpt lat="44.22858" lon="3.16789">
        <ele>832</ele>
        <time>2015-10-13T14:37:18Z</time>
      </trkpt>
      <trkpt lat="44.22851" lon="3.16786">
        <ele>833</ele>
        <time>2015-10-13T14:39:18Z</time>
      </trkpt>
      <trkpt lat="44.22848" lon="3.16784">
        <ele>833</ele>
        <time>2015-10-13T14:41:18Z</time>
      </trkpt>
      <trkpt lat="44.22841" lon="3.16782">
        <ele>834</ele>
        <time>2015-10-13T14:43:18Z</time>
      </trkpt>
      <trkpt lat="44.22829" lon="3.16777">
        <ele>836</ele>
        <time>2015-10-13T14:45:18Z</time>
      </trkpt>
      <trkpt lat="44.22816" lon="3.16771">
        <ele>837</ele>
        <time>2015-10-13T14:47:18Z</time>
      </trkpt>
      <trkpt lat="44.22812" lon="3.16768">
        <ele>837</ele>
        <time>2015-10-13T14:49:18Z</time>
      </trkpt>
      <trkpt lat="44.228" lon="3.16759">
        <ele>838</ele>
        <time>2015-10-13T14:51:18Z</time>
      </trkpt>
      <trkpt lat="44.22788" lon="3.16748">
        <ele>838</ele>
        <time>2015-10-13T14:53:18Z</time>
      </trkpt>
      <trkpt lat="44.22787" lon="3.16745">
        <ele>838</ele>
        <time>2015-10-13T14:55:18Z</time>
      </trkpt>
      <trkpt lat="44.22788" lon="3.16742">
        <ele>837</ele>
        <time>2015-10-13T14:57:18Z</time>
      </trkpt>
      <trkpt lat="44.22779" lon="3.16732">
        <ele>837</ele>
        <time>2015-10-13T14:59:18Z</time>
      </trkpt>
      <trkpt lat="44.22777" lon="3.16728">
        <ele>836</ele>
        <time>2015-10-13T15:01:18Z</time>
      </trkpt>
      <trkpt lat="44.22773" lon="3.16722">
        <ele>836</ele>
        <time>2015-10-13T15:03:18Z</time>
      </trkpt>
      <trkpt lat="44.22759" lon="3.16717">
        <ele>838</ele>
        <time>2015-10-13T15:05:18Z</time>
      </trkpt>
      <trkpt lat="44.22746" lon="3.16715">
        <ele>839</ele>
        <time>2015-10-13T15:07:18Z</time>
      </trkpt>
      <trkpt lat="44.22735" lon="3.16717">
        <ele>838</ele>
        <time>2015-10-13T15:09:18Z</time>
      </trkpt>
      <trkpt lat="44.22728" lon="3.1672">
        <ele>838</ele>
        <time>2015-10-13T15:11:18Z</time>
      </trkpt>
      <trkpt lat="44.22722" lon="3.16723">
        <ele>838</ele>
        <time>2015-10-13T15:13:18Z</time>
      </trkpt>
      <trkpt lat="44.22703" lon="3.16729">
        <ele>838</ele>
        <time>2015-10-13T15:15:18Z</time>
      </trkpt>
      <trkpt lat="44.22693" lon="3.16737">
        <ele>839</ele>
        <time>2015-10-13T15:17:18Z</time>
      </trkpt>
      <trkpt lat="44.22679" lon="3.16747">
        <ele>839</ele>
        <time>2015-10-13T15:19:18Z</time>
      </trkpt>
      <trkpt lat="44.22667" lon="3.16756">
        <ele>840</ele>
        <time>2015-10-13T15:21:18Z</time>
      </trkpt>
      <trkpt lat="44.22658" lon="3.16764">
        <ele>842</ele>
        <time>2015-10-13T15:23:18Z</time>
      </trkpt>
      <trkpt lat="44.22654" lon="3.16766">
        <ele>842</ele>
        <time>2015-10-13T15:25:18Z</time>
      </trkpt>
      <trkpt lat="44.22647" lon="3.1677">
        <ele>843</ele>
        <time>2015-10-13T15:27:18Z</time>
      </trkpt>
      <trkpt lat="44.22641" lon="3.16772">
        <ele>843</ele>
        <time>2015-10-13T15:29:18Z</time>
      </trkpt>
      <trkpt lat="44.22629" lon="3.16784">
        <ele>846</ele>
        <time>2015-10-13T15:31:18Z</time>
      </trkpt>
      <trkpt lat="44.2262" lon="3.16791">
        <ele>847</ele>
        <time>2015-10-13T15:33:18Z</time>
      </trkpt>
      <trkpt lat="44.22612" lon="3.16796">
        <ele>848</ele>
        <time>2015-10-13T15:35:18Z</time>
      </trkpt>
      <trkpt lat="44.22604" lon="3.168">
        <ele>849</ele>
        <time>2015-10-13T15:37:18Z</time>
      </trkpt>
      <trkpt lat="44.22602" lon="3.168">
        <ele>849</ele>
        <time>2015-10-13T15:39:18Z</time>
      </trkpt>
      <trkpt lat="44.22592" lon="3.16806">
        <ele>850</ele>
        <time>2015-10-13T15:41:18Z</time>
      </trkpt>
      <trkpt lat="44.22584" lon="3.16805">
        <ele>850</ele>
        <time>2015-10-13T15:43:18Z</time>
      </trkpt>
      <trkpt lat="44.22573" lon="3.16802">
        <ele>850</ele>
        <time>2015-10-13T15:45:18Z</time>
      </trkpt>
      <trkpt lat="44.22558" lon="3.16801">
        <ele>850</ele>
        <time>2015-10-13T15:47:18Z</time>
      </trkpt>
      <trkpt lat="44.22549" lon="3.16797">
        <ele>850</ele>
        <time>2015-10-13T15:49:18Z</time>
      </trkpt>
      <trkpt lat="44.22537" lon="3.16796">
        <ele>851</ele>
        <time>2015-10-13T15:51:18Z</time>
      </trkpt>
      <trkpt lat="44.22523" lon="3.16789">
        <ele>851</ele>
        <time>2015-10-13T15:53:18Z</time>
      </trkpt>
      <trkpt lat="44.22512" lon="3.16784">
        <ele>851</ele>
        <time>2015-10-13T15:55:18Z</time>
      </trkpt>
      <trkpt lat="44.22506" lon="3.16779">
        <ele>851</ele>
        <time>2015-10-13T15:57:18Z</time>
      </trkpt>
      <trkpt lat="44.22501" lon="3.16775">
        <ele>851</ele>
        <time>2015-10-13T15:59:18Z</time>
      </trkpt>
      <trkpt lat="44.22489" lon="3.16775">
        <ele>850</ele>
        <time>2015-10-13T16:01:18Z</time>
      </trkpt>
      <trkpt lat="44.22478" lon="3.16776">
        <ele>849</ele>
        <time>2015-10-13T16:03:18Z</time>
      </trkpt>
      <trkpt lat="44.22466" lon="3.16775">
        <ele>848</ele>
        <time>2015-10-13T16:05:18Z</time>
      </trkpt>
      <trkpt lat="44.22452" lon="3.16776">
        <ele>848</ele>
        <time>2015-10-13T16:07:18Z</time>
      </trkpt>
      <trkpt lat="44.22449" lon="3.16777">
        <ele>847</ele>
        <time>2015-10-13T16:09:18Z</time>
      </trkpt>
      <trkpt lat="44.22436" lon="3.16776">
        <ele>846</ele>
        <time>2015-10-13T16:11:18Z</time>
      </trkpt>
      <trkpt lat="44.22429" lon="3.16778">
        <ele>846</ele>
        <time>2015-10-13T16:13:18Z</time>
      </trkpt>
      <trkpt lat="44.22413" lon="3.16782">
        <ele>845</ele>
        <time>2015-10-13T16:15:18Z</time>
      </trkpt>
      <trkpt lat="44.22395" lon="3.1679">
        <ele>842</ele>
        <time>2015-10-13T16:17:18Z</time>
      </trkpt>
      <trkpt lat="44.22382" lon="3.16798">
        <ele>841</ele>
        <time>2015-10-13T16:19:18Z</time>
      </trkpt>
      <trkpt lat="44.22372" lon="3.16803">
        <ele>839</ele>
        <time>2015-10-13T16:21:18Z</time>
      </trkpt>
      <trkpt lat="44.22357" lon="3.16815">
        <ele>838</ele>
        <time>2015-10-13T16:23:18Z</time>
      </trkpt>
      <trkpt lat="44.22345" lon="3.16823">
        <ele>837</ele>
        <time>2015-10-13T16:25:18Z</time>
      </trkpt>
      <trkpt lat="44.22334" lon="3.16831">
        <ele>837</ele>
        <time>2015-10-13T16:27:18Z</time>
      </trkpt>
      <trkpt lat="44.22327" lon="3.1684">
        <ele>836</ele>
        <time>2015-10-13T16:29:18Z</time>
      </trkpt>
      <trkpt lat="44.22318" lon="3.16849">
        <ele>834</ele>
        <time>2015-10-13T16:31:18Z</time>
      </trkpt>
      <trkpt lat="44.22315" lon="3.16852">
        <ele>833</ele>
        <time>2015-10-13T16:33:18Z</time>
      </trkpt>
      <trkpt lat="44.22302" lon="3.16863">
        <ele>831</ele>
        <time>2015-10-13T16:35:18Z</time>
      </trkpt>
      <trkpt lat="44.22292" lon="3.16873">
        <ele>829</ele>
        <time>2015-10-13T16:37:18Z</time>
      </trkpt>
      <trkpt lat="44.22284" lon="3.16881">
        <ele>828</ele>
        <time>2015-10-13T16:39:18Z</time>
      </trkpt>
      <trkpt lat="44.22273" lon="3.1689">
        <ele>826</ele>
        <time>2015-10-13T16:41:18Z</time>
      </trkpt>
      <trkpt lat="44.22264" lon="3.16895">
        <ele>825</ele>
        <time>2015-10-13T16:43:18Z</time>
      </trkpt>
      <trkpt lat="44.22252" lon="3.16905">
        <ele>823</ele>
        <time>2015-10-13T16:45:18Z</time>
      </trkpt>
      <trkpt lat="44.22244" lon="3.16908">
        <ele>822</ele>
        <time>2015-10-13T16:47:18Z</time>
      </trkpt>
      <trkpt lat="44.2223" lon="3.16917">
        <ele>820</ele>
        <time>2015-10-13T16:49:18Z</time>
      </trkpt>
      <trkpt lat="44.2222" lon="3.16923">
        <ele>818</ele>
        <time>2015-10-13T16:51:18Z</time>
      </trkpt>
      <trkpt lat="44.22208" lon="3.16932">
        <ele>815</ele>
        <time>2015-10-13T16:53:18Z</time>
      </trkpt>
      <trkpt lat="44.22197" lon="3.16939">
        <ele>813</ele>
        <time>2015-10-13T16:55:18Z</time>
      </trkpt>
      <trkpt lat="44.22185" lon="3.16946">
        <ele>811</ele>
        <time>2015-10-13T16:57:18Z</time>
      </trkpt>
      <trkpt lat="44.22174" lon="3.16955">
        <ele>809</ele>
        <time>2015-10-13T16:59:18Z</time>
      </trkpt>
      <trkpt lat="44.22168" lon="3.16964">
        <ele>808</ele>
        <time>2015-10-13T17:01:18Z</time>
      </trkpt>
      <trkpt lat="44.22165" lon="3.16967">
        <ele>808</ele>
        <time>2015-10-13T17:03:18Z</time>
      </trkpt>
      <trkpt lat="44.22152" lon="3.16974">
        <ele>806</ele>
        <time>2015-10-13T17:05:18Z</time>
      </trkpt>
      <trkpt lat="44.22139" lon="3.16983">
        <ele>805</ele>
        <time>2015-10-13T17:07:18Z</time>
      </trkpt>
      <trkpt lat="44.2213" lon="3.16995">
        <ele>805</ele>
        <time>2015-10-13T17:09:18Z</time>
      </trkpt>
      <trkpt lat="44.22136" lon="3.17013">
        <ele>805</ele>
        <time>2015-10-13T17:11:18Z</time>
      </trkpt>
      <trkpt lat="44.22138" lon="3.17028">
        <ele>805</ele>
        <time>2015-10-13T17:13:18Z</time>
      </trkpt>
      <trkpt lat="44.22143" lon="3.17041">
        <ele>805</ele>
        <time>2015-10-13T17:15:18Z</time>
      </trkpt>
      <trkpt lat="44.22139" lon="3.1706">
        <ele>803</ele>
        <time>2015-10-13T17:17:18Z</time>
      </trkpt>
      <trkpt lat="44.2213" lon="3.17075">
        <ele>802</ele>
        <time>2015-10-13T17:19:18Z</time>
      </trkpt>
      <trkpt lat="44.22125" lon="3.1708">
        <ele>801</ele>
        <time>2015-10-13T17:21:18Z</time>
      </trkpt>
      <trkpt lat="44.22118" lon="3.17096">
        <ele>799</ele>
        <time>2015-10-13T17:23:18Z</time>
      </trkpt>
      <trkpt lat="44.22105" lon="3.17113">
        <ele>797</ele>
        <time>2015-10-13T17:25:18Z</time>
      </trkpt>
      <trkpt lat="44.22096" lon="3.17126">
        <ele>794</ele>
        <time>2015-10-13T17:27:18Z</time>
      </trkpt>
      <trkpt lat="44.2209" lon="3.1714">
        <ele>792</ele>
        <time>2015-10-13T17:29:18Z</time>
      </trkpt>
      <trkpt lat="44.22083" lon="3.17153">
        <ele>789</ele>
        <time>2015-10-13T17:31:18Z</time>
      </trkpt>
      <trkpt lat="44.22072" lon="3.17169">
        <ele>787</ele>
        <time>2015-10-13T17:33:18Z</time>
      </trkpt>
      <trkpt lat="44.22062" lon="3.17181">
        <ele>786</ele>
        <time>2015-10-13T17:35:18Z</time>
      </trkpt>
      <trkpt lat="44.22039" lon="3.172">
        <ele>783</ele>
        <time>2015-10-13T17:37:18Z</time>
      </trkpt>
      <trkpt lat="44.22029" lon="3.1721">
        <ele>782</ele>
        <time>2015-10-13T17:39:18Z</time>
      </trkpt>
      <trkpt lat="44.22024" lon="3.17216">
        <ele>781</ele>
        <time>2015-10-13T17:41:18Z</time>
      </trkpt>
      <trkpt lat="44.22017" lon="3.17237">
        <ele>779</ele>
        <time>2015-10-13T17:43:18Z</time>
      </trkpt>
      <trkpt lat="44.22015" lon="3.17245">
        <ele>779</ele>
        <time>2015-10-13T17:45:18Z</time>
      </trkpt>
      <trkpt lat="44.22013" lon="3.17265">
        <ele>779</ele>
        <time>2015-10-13T17:47:18Z</time>
      </trkpt>
      <trkpt lat="44.22008" lon="3.17272">
        <ele>779</ele>
        <time>2015-10-13T17:49:18Z</time>
      </trkpt>
      <trkpt lat="44.21999" lon="3.17282">
        <ele>778</ele>
        <time>2015-10-13T17:51:18Z</time>
      </trkpt>
      <trkpt lat="44.21985" lon="3.17291">
        <ele>777</ele>
        <time>2015-10-13T17:53:18Z</time>
      </trkpt>
      <trkpt lat="44.21976" lon="3.17293">
        <ele>777</ele>
        <time>2015-10-13T17:55:18Z</time>
      </trkpt>
      <trkpt lat="44.21975" lon="3.17294">
        <ele>777</ele>
        <time>2015-10-13T17:57:18Z</time>
      </trkpt>
      <trkpt lat="44.21971" lon="3.17295">
        <ele>777</ele>
        <time>2015-10-13T17:59:18Z</time>
      </trkpt>
      <trkpt lat="44.21961" lon="3.17307">
        <ele>776</ele>
        <time>2015-10-13T18:01:18Z</time>
      </trkpt>
      <trkpt lat="44.21957" lon="3.17314">
        <ele>775</ele>
        <time>2015-10-13T18:03:18Z</time>
      </trkpt>
      <trkpt lat="44.21952" lon="3.17321">
        <ele>775</ele>
        <time>2015-10-13T18:05:18Z</time>
      </trkpt>
      <trkpt lat="44.21944" lon="3.17329">
        <ele>773</ele>
        <time>2015-10-13T18:07:18Z</time>
      </trkpt>
      <trkpt lat="44.21936" lon="3.17337">
        <ele>773</ele>
        <time>2015-10-13T18:09:18Z</time>
      </trkpt>
      <trkpt lat="44.21929" lon="3.17345">
        <ele>772</ele>
        <time>2015-10-13T18:11:18Z</time>
      </trkpt>
      <trkpt lat="44.2192" lon="3.17356">
        <ele>772</ele>
        <time>2015-10-13T18:13:18Z</time>
      </trkpt>
      <trkpt lat="44.21911" lon="3.17365">
        <ele>772</ele>
        <time>2015-10-13T18:15:18Z</time>
      </trkpt>
      <trkpt lat="44.21899" lon="3.17375">
        <ele>771</ele>
        <time>2015-10-13T18:17:18Z</time>
      </trkpt>
      <trkpt lat="44.21886" lon="3.17385">
        <ele>770</ele>
        <time>2015-10-13T18:19:18Z</time>
      </trkpt>
      <trkpt lat="44.21879" lon="3.17389">
        <ele>769</ele>
        <time>2015-10-13T18:21:18Z</time>
      </trkpt>
      <trkpt lat="44.2187" lon="3.17396">
        <ele>769</ele>
        <time>2015-10-13T18:23:18Z</time>
      </trkpt>
      <trkpt lat="44.21858" lon="3.17406">
        <ele>768</ele>
        <time>2015-10-13T18:25:18Z</time>
      </trkpt>
      <trkpt lat="44.21845" lon="3.17417">
        <ele>767</ele>
        <time>2015-10-13T18:27:18Z</time>
      </trkpt>
      <trkpt lat="44.21832" lon="3.17429">
        <ele>765</ele>
        <time>2015-10-13T18:29:18Z</time>
      </trkpt>
      <trkpt lat="44.21821" lon="3.17439">
        <ele>765</ele>
        <time>2015-10-13T18:31:18Z</time>
      </trkpt>
      <trkpt lat="44.21817" lon="3.17444">
        <ele>765</ele>
        <time>2015-10-13T18:33:18Z</time>
      </trkpt>
      <trkpt lat="44.21809" lon="3.17452">
        <ele>765</ele>
        <time>2015-10-13T18:35:18Z</time>
      </trkpt>
      <trkpt lat="44.21797" lon="3.17466">
        <ele>765</ele>
        <time>2015-10-13T18:37:18Z</time>
      </trkpt>
      <trkpt lat="44.21786" lon="3.17479">
        <ele>765</ele>
        <time>2015-10-13T18:39:18Z</time>
      </trkpt>
      <trkpt lat="44.21776" lon="3.17495">
        <ele>765</ele>
        <time>2015-10-13T18:41:18Z</time>
      </trkpt>
      <trkpt lat="44.21769" lon="3.17501">
        <ele>765</ele>
        <time>2015-10-13T18:43:18Z</time>
      </trkpt>
      <trkpt lat="44.21758" lon="3.1751">
        <ele>764</ele>
        <time>2015-10-13T18:45:18Z</time>
      </trkpt>
      <trkpt lat="44.21743" lon="3.17516">
        <ele>763</ele>
        <time>2015-10-13T18:47:18Z</time>
      </trkpt>
      <trkpt lat="44.21729" lon="3.17524">
        <ele>763</ele>
        <time>2015-10-13T18:49:18Z</time>
      </trkpt>
      <trkpt lat="44.2172" lon="3.17532">
        <ele>763</ele>
        <time>2015-10-13T18:51:18Z</time>
      </trkpt>
      <trkpt lat="44.21708" lon="3.17541">
        <ele>763</ele>
        <time>2015-10-13T18:53:18Z</time>
      </trkpt>
      <trkpt lat="44.21695" lon="3.17547">
        <ele>763</ele>
        <time>2015-10-13T18:55:18Z</time>
      </trkpt>
      <trkpt lat="44.21685" lon="3.17551">
        <ele>764</ele>
        <time>2015-10-13T18:57:18Z</time>
      </trkpt>
      <trkpt lat="44.21671" lon="3.17561">
        <ele>764</ele>
        <time>2015-10-13T18:59:18Z</time>
      </trkpt>
      <trkpt lat="44.21659" lon="3.17569">
        <ele>764</ele>
        <time>2015-10-13T19:01:18Z</time>
      </trkpt>
      <trkpt lat="44.21657" lon="3.1757">
        <ele>764</ele>
        <time>2015-10-13T19:03:18Z</time>
      </trkpt>
      <trkpt lat="44.21645" lon="3.17584">
        <ele>764</ele>
        <time>2015-10-13T19:05:18Z</time>
      </trkpt>
      <trkpt lat="44.21634" lon="3.17592">
        <ele>763</ele>
        <time>2015-10-13T19:07:18Z</time>
      </trkpt>
      <trkpt lat="44.21623" lon="3.17599">
        <ele>763</ele>
        <time>2015-10-13T19:09:18Z</time>
      </trkpt>
      <trkpt lat="44.21612" lon="3.17606">
        <ele>763</ele>
        <time>2015-10-13T19:11:18Z</time>
      </trkpt>
      <trkpt lat="44.21586" lon="3.17627">
        <ele>763</ele>
        <time>2015-10-13T19:13:18Z</time>
      </trkpt>
      <trkpt lat="44.21574" lon="3.17637">
        <ele>762</ele>
        <time>2015-10-13T19:15:18Z</time>
      </trkpt>
      <trkpt lat="44.21565" lon="3.17643">
        <ele>762</ele>
        <time>2015-10-13T19:17:18Z</time>
      </trkpt>
      <trkpt lat="44.21554" lon="3.17652">
        <ele>762</ele>
        <time>2015-10-13T19:19:18Z</time>
      </trkpt>
      <trkpt lat="44.21546" lon="3.17659">
        <ele>762</ele>
        <time>2015-10-13T19:21:18Z</time>
      </trkpt>
      <trkpt lat="44.21535" lon="3.17669">
        <ele>762</ele>
        <time>2015-10-13T19:23:18Z</time>
      </trkpt>
      <trkpt lat="44.21521" lon="3.17681">
        <ele>761</ele>
        <time>2015-10-13T19:25:18Z</time>
      </trkpt>
      <trkpt lat="44.21512" lon="3.17689">
        <ele>761</ele>
        <time>2015-10-13T19:27:18Z</time>
      </trkpt>
      <trkpt lat="44.21503" lon="3.17701">
        <ele>760</ele>
        <time>2015-10-13T19:29:18Z</time>
      </trkpt>
      <trkpt lat="44.21485" lon="3.17722">
        <ele>758</ele>
        <time>2015-10-13T19:31:18Z</time>
      </trkpt>
      <trkpt lat="44.21481" lon="3.1774">
        <ele>757</ele>
        <time>2015-10-13T19:33:18Z</time>
      </trkpt>
      <trkpt lat="44.21481" lon="3.17756">
        <ele>756</ele>
        <time>2015-10-13T19:35:18Z</time>
      </trkpt>
      <trkpt lat="44.21481" lon="3.17772">
        <ele>753</ele>
        <time>2015-10-13T19:37:18Z</time>
      </trkpt>
      <trkpt lat="44.21471" lon="3.17776">
        <ele>752</ele>
        <time>2015-10-13T19:39:18Z</time>
      </trkpt>
      <trkpt lat="44.21458" lon="3.17784">
        <ele>751</ele>
        <time>2015-10-13T19:41:18Z</time>
      </trkpt>
      <trkpt lat="44.21448" lon="3.17795">
        <ele>750</ele>
        <time>2015-10-13T19:43:18Z</time>
      </trkpt>
      <trkpt lat="44.21443" lon="3.17803">
        <ele>748</ele>
        <time>2015-10-13T19:45:18Z</time>
      </trkpt>
      <trkpt lat="44.21441" lon="3.17812">
        <ele>747</ele>
        <time>2015-10-13T19:47:18Z</time>
      </trkpt>
      <trkpt lat="44.21439" lon="3.17823">
        <ele>745</ele>
        <time>2015-10-13T19:49:18Z</time>
      </trkpt>
      <trkpt lat="44.21433" lon="3.17834">
        <ele>744</ele>
        <time>2015-10-13T19:51:18Z</time>
      </trkpt>
      <trkpt lat="44.21423" lon="3.17848">
        <ele>740</ele>
        <time>2015-10-13T19:53:18Z</time>
      </trkpt>
      <trkpt lat="44.21414" lon="3.17863">
        <ele>735</ele>
        <time>2015-10-13T19:55:18Z</time>
      </trkpt>
      <trkpt lat="44.21403" lon="3.17879">
        <ele>729</ele>
        <time>2015-10-13T19:57:18Z</time>
      </trkpt>
      <trkpt lat="44.21393" lon="3.17894">
        <ele>724</ele>
        <time>2015-10-13T19:59:18Z</time>
      </trkpt>
      <trkpt lat="44.21382" lon="3.17904">
        <ele>720</ele>
        <time>2015-10-13T20:01:18Z</time>
      </trkpt>
      <trkpt lat="44.21355" lon="3.1792">
        <ele>712</ele>
        <time>2015-10-13T20:03:18Z</time>
      </trkpt>
      <trkpt lat="44.21337" lon="3.17925">
        <ele>709</ele>
        <time>2015-10-13T20:05:18Z</time>
      </trkpt>
      <trkpt lat="44.21321" lon="3.17931">
        <ele>706</ele>
        <time>2015-10-13T20:07:18Z</time>
      </trkpt>
      <trkpt lat="44.21305" lon="3.17924">
        <ele>710</ele>
        <time>2015-10-13T20:09:18Z</time>
      </trkpt>
      <trkpt lat="44.21291" lon="3.17931">
        <ele>707</ele>
        <time>2015-10-13T20:11:18Z</time>
      </trkpt>
      <trkpt lat="44.21271" lon="3.17925">
        <ele>711</ele>
        <time>2015-10-13T20:13:18Z</time>
      </trkpt>
      <trkpt lat="44.21258" lon="3.17925">
        <ele>711</ele>
        <time>2015-10-13T20:15:18Z</time>
      </trkpt>
      <trkpt lat="44.21241" lon="3.17922">
        <ele>713</ele>
        <time>2015-10-13T20:17:18Z</time>
      </trkpt>
      <trkpt lat="44.21225" lon="3.17922">
        <ele>714</ele>
        <time>2015-10-13T20:19:18Z</time>
      </trkpt>
      <trkpt lat="44.21209" lon="3.17916">
        <ele>717</ele>
        <time>2015-10-13T20:21:18Z</time>
      </trkpt>
      <trkpt lat="44.21197" lon="3.17915">
        <ele>718</ele>
        <time>2015-10-13T20:23:18Z</time>
      </trkpt>
      <trkpt lat="44.21189" lon="3.17914">
        <ele>718</ele>
        <time>2015-10-13T20:25:18Z</time>
      </trkpt>
      <trkpt lat="44.21176" lon="3.1792">
        <ele>716</ele>
        <time>2015-10-13T20:27:18Z</time>
      </trkpt>
      <trkpt lat="44.21167" lon="3.17922">
        <ele>715</ele>
        <time>2015-10-13T20:29:18Z</time>
      </trkpt>
      <trkpt lat="44.21155" lon="3.17929">
        <ele>712</ele>
        <time>2015-10-13T20:31:18Z</time>
      </trkpt>
      <trkpt lat="44.21148" lon="3.17928">
        <ele>712</ele>
        <time>2015-10-13T20:33:18Z</time>
      </trkpt>
      <trkpt lat="44.21143" lon="3.17926">
        <ele>713</ele>
        <time>2015-10-13T20:35:18Z</time>
      </trkpt>
      <trkpt lat="44.21141" lon="3.17933">
        <ele>710</ele>
        <time>2015-10-13T20:37:18Z</time>
      </trkpt>
      <trkpt lat="44.21122" lon="3.17946">
        <ele>705</ele>
        <time>2015-10-13T20:39:18Z</time>
      </trkpt>
      <trkpt lat="44.21114" lon="3.17956">
        <ele>701</ele>
        <time>2015-10-13T20:41:18Z</time>
      </trkpt>
      <trkpt lat="44.21104" lon="3.17968">
        <ele>697</ele>
        <time>2015-10-13T20:43:18Z</time>
      </trkpt>
      <trkpt lat="44.21097" lon="3.17974">
        <ele>695</ele>
        <time>2015-10-13T20:45:18Z</time>
      </trkpt>
      <trkpt lat="44.21089" lon="3.17983">
        <ele>693</ele>
        <time>2015-10-13T20:47:18Z</time>
      </trkpt>
      <trkpt lat="44.21082" lon="3.17993">
        <ele>690</ele>
        <time>2015-10-13T20:49:18Z</time>
      </trkpt>
      <trkpt lat="44.21075" lon="3.18003">
        <ele>686</ele>
        <time>2015-10-13T20:51:18Z</time>
      </trkpt>
      <trkpt lat="44.21061" lon="3.18024">
        <ele>675</ele>
        <time>2015-10-13T20:53:18Z</time>
      </trkpt>
      <trkpt lat="44.21038" lon="3.18057">
        <ele>659</ele>
        <time>2015-10-13T20:55:18Z</time>
      </trkpt>
      <trkpt lat="44.21023" lon="3.1808">
        <ele>648</ele>
        <time>2015-10-13T20:57:18Z</time>
      </trkpt>
      <trkpt lat="44.21021" lon="3.18084">
        <ele>646</ele>
        <time>2015-10-13T20:59:18Z</time>
      </trkpt>
      <trkpt lat="44.21017" lon="3.18085">
        <ele>645</ele>
        <time>2015-10-13T21:01:18Z</time>
      </trkpt>
      <trkpt lat="44.21008" lon="3.18084">
        <ele>646</ele>
        <time>2015-10-13T21:03:18Z</time>
      </trkpt>
      <trkpt lat="44.20996" lon="3.18086">
        <ele>646</ele>
        <time>2015-10-13T21:05:18Z</time>
      </trkpt>
      <trkpt lat="44.20984" lon="3.18087">
        <ele>645</ele>
        <time>2015-10-13T21:07:18Z</time>
      </trkpt>
      <trkpt lat="44.20973" lon="3.18089">
        <ele>644</ele>
        <time>2015-10-13T21:09:18Z</time>
      </trkpt>
      <trkpt lat="44.20962" lon="3.18092">
        <ele>643</ele>
        <time>2015-10-13T21:11:18Z</time>
      </trkpt>
      <trkpt lat="44.20954" lon="3.18095">
        <ele>642</ele>
        <time>2015-10-13T21:13:18Z</time>
      </trkpt>
      <trkpt lat="44.20945" lon="3.18098">
        <ele>640</ele>
        <time>2015-10-13T21:15:18Z</time>
      </trkpt>
      <trkpt lat="44.20939" lon="3.18101">
        <ele>639</ele>
        <time>2015-10-13T21:17:18Z</time>
      </trkpt>
      <trkpt lat="44.2093" lon="3.18103">
        <ele>638</ele>
        <time>2015-10-13T21:19:18Z</time>
      </trkpt>
      <trkpt lat="44.20917" lon="3.18107">
        <ele>636</ele>
        <time>2015-10-13T21:21:18Z</time>
      </trkpt>
      <trkpt lat="44.20904" lon="3.18112">
        <ele>635</ele>
        <time>2015-10-13T21:23:18Z</time>
      </trkpt>
      <trkpt lat="44.20896" lon="3.18114">
        <ele>635</ele>
        <time>2015-10-13T21:25:18Z</time>
      </trkpt>
      <trkpt lat="44.20881" lon="3.1812">
        <ele>633</ele>
        <time>2015-10-13T21:27:18Z</time>
      </trkpt>
      <trkpt lat="44.20865" lon="3.18128">
        <ele>631</ele>
        <time>2015-10-13T21:29:18Z</time>
      </trkpt>
      <trkpt lat="44.20854" lon="3.18134">
        <ele>629</ele>
        <time>2015-10-13T21:31:18Z</time>
      </trkpt>
      <trkpt lat="44.20826" lon="3.18149">
        <ele>623</ele>
        <time>2015-10-13T21:33:18Z</time>
      </trkpt>
      <trkpt lat="44.20811" lon="3.18156">
        <ele>620</ele>
        <time>2015-10-13T21:35:18Z</time>
      </trkpt>
      <trkpt lat="44.20803" lon="3.18161">
        <ele>618</ele>
        <time>2015-10-13T21:37:18Z</time>
      </trkpt>
      <trkpt lat="44.20792" lon="3.18168">
        <ele>614</ele>
        <time>2015-10-13T21:39:18Z</time>
      </trkpt>
      <trkpt lat="44.20781" lon="3.18171">
        <ele>613</ele>
        <time>2015-10-13T21:41:18Z</time>
      </trkpt>
      <trkpt lat="44.20772" lon="3.18175">
        <ele>610</ele>
        <time>2015-10-13T21:43:18Z</time>
      </trkpt>
      <trkpt lat="44.20762" lon="3.18181">
        <ele>607</ele>
        <time>2015-10-13T21:45:18Z</time>
      </trkpt>
      <trkpt lat="44.20751" lon="3.18185">
        <ele>605</ele>
        <time>2015-10-13T21:47:18Z</time>
      </trkpt>
      <trkpt lat="44.20732" lon="3.18196">
        <ele>597</ele>
        <time>2015-10-13T21:49:18Z</time>
      </trkpt>
      <trkpt lat="44.2072" lon="3.182">
        <ele>594</ele>
        <time>2015-10-13T21:51:18Z</time>
      </trkpt>
      <trkpt lat="44.20708" lon="3.18205">
        <ele>591</ele>
        <time>2015-10-13T21:53:18Z</time>
      </trkpt>
      <trkpt lat="44.20698" lon="3.18209">
        <ele>588</ele>
        <time>2015-10-13T21:55:18Z</time>
      </trkpt>
      <trkpt lat="44.20688" lon="3.18212">
        <ele>586</ele>
        <time>2015-10-13T21:57:18Z</time>
      </trkpt>
      <trkpt lat="44.20673" lon="3.18213">
        <ele>585</ele>
        <time>2015-10-13T21:59:18Z</time>
      </trkpt>
      <trkpt lat="44.20655" lon="3.18209">
        <ele>584</ele>
        <time>2015-10-13T22:01:18Z</time>
      </trkpt>
      <trkpt lat="44.20638" lon="3.18204">
        <ele>580</ele>
        <time>2015-10-13T22:03:18Z</time>
      </trkpt>
      <trkpt lat="44.20625" lon="3.18199">
        <ele>578</ele>
        <time>2015-10-13T22:05:18Z</time>
      </trkpt>
      <trkpt lat="44.20612" lon="3.18193">
        <ele>576</ele>
        <time>2015-10-13T22:07:18Z</time>
      </trkpt>
      <trkpt lat="44.20608" lon="3.18186">
        <ele>577</ele>
        <time>2015-10-13T22:09:18Z</time>
      </trkpt>
      <trkpt lat="44.20603" lon="3.18174">
        <ele>578</ele>
        <time>2015-10-13T22:11:18Z</time>
      </trkpt>
      <trkpt lat="44.20601" lon="3.18165">
        <ele>580</ele>
        <time>2015-10-13T22:13:18Z</time>
      </trkpt>
      <trkpt lat="44.20601" lon="3.18153">
        <ele>579</ele>
        <time>2015-10-13T22:15:18Z</time>
      </trkpt>
      <trkpt lat="44.20603" lon="3.1814">
        <ele>579</ele>
        <time>2015-10-13T22:17:18Z</time>
      </trkpt>
      <trkpt lat="44.20605" lon="3.18132">
        <ele>580</ele>
        <time>2015-10-13T22:19:18Z</time>
      </trkpt>
      <trkpt lat="44.20607" lon="3.18126">
        <ele>581</ele>
        <time>2015-10-13T22:21:18Z</time>
      </trkpt>
      <trkpt lat="44.20608" lon="3.18122">
        <ele>581</ele>
        <time>2015-10-13T22:23:18Z</time>
      </trkpt>
      <trkpt lat="44.20606" lon="3.18119">
        <ele>580</ele>
        <time>2015-10-13T22:25:18Z</time>
      </trkpt>
      <trkpt lat="44.20604" lon="3.18119">
        <ele>579</ele>
        <time>2015-10-13T22:27:18Z</time>
      </trkpt>
      <trkpt lat="44.20601" lon="3.18122">
        <ele>577</ele>
        <time>2015-10-13T22:29:18Z</time>
      </trkpt>
      <trkpt lat="44.20598" lon="3.1813">
        <ele>576</ele>
        <time>2015-10-13T22:31:18Z</time>
      </trkpt>
      <trkpt lat="44.20593" lon="3.18148">
        <ele>575</ele>
        <time>2015-10-13T22:33:18Z</time>
      </trkpt>
      <trkpt lat="44.2059" lon="3.18169">
        <ele>574</ele>
        <time>2015-10-13T22:35:18Z</time>
      </trkpt>
      <trkpt lat="44.2059" lon="3.18182">
        <ele>571</ele>
        <time>2015-10-13T22:37:18Z</time>
      </trkpt>
      <trkpt lat="44.20594" lon="3.18195">
        <ele>569</ele>
        <time>2015-10-13T22:39:18Z</time>
      </trkpt>
      <trkpt lat="44.20601" lon="3.18206">
        <ele>568</ele>
        <time>2015-10-13T22:41:18Z</time>
      </trkpt>
      <trkpt lat="44.20609" lon="3.18217">
        <ele>567</ele>
        <time>2015-10-13T22:43:18Z</time>
      </trkpt>
      <trkpt lat="44.20626" lon="3.18231">
        <ele>566</ele>
        <time>2015-10-13T22:45:18Z</time>
      </trkpt>
      <trkpt lat="44.20642" lon="3.18242">
        <ele>565</ele>
        <time>2015-10-13T22:47:18Z</time>
      </trkpt>
      <trkpt lat="44.20647" lon="3.18247">
        <ele>564</ele>
        <time>2015-10-13T22:49:18Z</time>
      </trkpt>
      <trkpt lat="44.20647" lon="3.18251">
        <ele>562</ele>
        <time>2015-10-13T22:51:18Z</time>
      </trkpt>
      <trkpt lat="44.20645" lon="3.18254">
        <ele>560</ele>
        <time>2015-10-13T22:53:18Z</time>
      </trkpt>
      <trkpt lat="44.20643" lon="3.18254">
        <ele>560</ele>
        <time>2015-10-13T22:55:18Z</time>
      </trkpt>
      <trkpt lat="44.20639" lon="3.1825">
        <ele>561</ele>
        <time>2015-10-13T22:57:18Z</time>
      </trkpt>
      <trkpt lat="44.20636" lon="3.18247">
        <ele>562</ele>
        <time>2015-10-13T22:59:18Z</time>
      </trkpt>
      <trkpt lat="44.20629" lon="3.18243">
        <ele>562</ele>
        <time>2015-10-13T23:01:18Z</time>
      </trkpt>
      <trkpt lat="44.20623" lon="3.1824">
        <ele>562</ele>
        <time>2015-10-13T23:03:18Z</time>
      </trkpt>
      <trkpt lat="44.20615" lon="3.18238">
        <ele>561</ele>
        <time>2015-10-13T23:05:18Z</time>
      </trkpt>
      <trkpt lat="44.20605" lon="3.18234">
        <ele>560</ele>
        <time>2015-10-13T23:07:18Z</time>
      </trkpt>
      <trkpt lat="44.20595" lon="3.1823">
        <ele>559</ele>
        <time>2015-10-13T23:09:18Z</time>
      </trkpt>
      <trkpt lat="44.20576" lon="3.18221">
        <ele>556</ele>
        <time>2015-10-13T23:11:18Z</time>
      </trkpt>
      <trkpt lat="44.20569" lon="3.18213">
        <ele>555</ele>
        <time>2015-10-13T23:13:18Z</time>
      </trkpt>
      <trkpt lat="44.2056" lon="3.18203">
        <ele>554</ele>
        <time>2015-10-13T23:15:18Z</time>
      </trkpt>
      <trkpt lat="44.20559" lon="3.18194">
        <ele>555</ele>
        <time>2015-10-13T23:17:18Z</time>
      </trkpt>
      <trkpt lat="44.20557" lon="3.18182">
        <ele>556</ele>
        <time>2015-10-13T23:19:18Z</time>
      </trkpt>
      <trkpt lat="44.20558" lon="3.18167">
        <ele>560</ele>
        <time>2015-10-13T23:21:18Z</time>
      </trkpt>
      <trkpt lat="44.20559" lon="3.1816">
        <ele>560</ele>
        <time>2015-10-13T23:23:18Z</time>
      </trkpt>
      <trkpt lat="44.2056" lon="3.1815">
        <ele>559</ele>
        <time>2015-10-13T23:25:18Z</time>
      </trkpt>
      <trkpt lat="44.20559" lon="3.18145">
        <ele>558</ele>
        <time>2015-10-13T23:27:18Z</time>
      </trkpt>
      <trkpt lat="44.20557" lon="3.18145">
        <ele>557</ele>
        <time>2015-10-13T23:29:18Z</time>
      </trkpt>
      <trkpt lat="44.20554" lon="3.18149">
        <ele>556</ele>
        <time>2015-10-13T23:31:18Z</time>
      </trkpt>
      <trkpt lat="44.20551" lon="3.18163">
        <ele>556</ele>
        <time>2015-10-13T23:33:18Z</time>
      </trkpt>
      <trkpt lat="44.20549" lon="3.18175">
        <ele>554</ele>
        <time>2015-10-13T23:35:18Z</time>
      </trkpt>
      <trkpt lat="44.20546" lon="3.18184">
        <ele>551</ele>
        <time>2015-10-13T23:37:18Z</time>
      </trkpt>
      <trkpt lat="44.20544" lon="3.1819">
        <ele>549</ele>
        <time>2015-10-13T23:39:18Z</time>
      </trkpt>
      <trkpt lat="44.20544" lon="3.18195">
        <ele>549</ele>
        <time>2015-10-13T23:41:18Z</time>
      </trkpt>
      <trkpt lat="44.20544" lon="3.1821">
        <ele>546</ele>
        <time>2015-10-13T23:43:18Z</time>
      </trkpt>
      <trkpt lat="44.20547" lon="3.18219">
        <ele>546</ele>
        <time>2015-10-13T23:45:18Z</time>
      </trkpt>
      <trkpt lat="44.20552" lon="3.1823">
        <ele>546</ele>
        <time>2015-10-13T23:47:18Z</time>
      </trkpt>
      <trkpt lat="44.20561" lon="3.18241">
        <ele>547</ele>
        <time>2015-10-13T23:49:18Z</time>
      </trkpt>
      <trkpt lat="44.2057" lon="3.1825">
        <ele>547</ele>
        <time>2015-10-13T23:51:18Z</time>
      </trkpt>
      <trkpt lat="44.20582" lon="3.18257">
        <ele>548</ele>
        <time>2015-10-13T23:53:18Z</time>
      </trkpt>
      <trkpt lat="44.20585" lon="3.1826">
        <ele>548</ele>
        <time>2015-10-13T23:55:18Z</time>
      </trkpt>
      <trkpt lat="44.20598" lon="3.1827">
        <ele>546</ele>
        <time>2015-10-13T23:57:18Z</time>
      </trkpt>
      <trkpt lat="44.20608" lon="3.18275">
        <ele>545</ele>
        <time>2015-10-13T23:59:18Z</time>
      </trkpt>
      <trkpt lat="44.20609" lon="3.18276">
        <ele>545</ele>
        <time>2015-10-14T00:01:18Z</time>
      </trkpt>
      <trkpt lat="44.20609" lon="3.1828">
        <ele>543</ele>
        <time>2015-10-14T00:03:18Z</time>
      </trkpt>
      <trkpt lat="44.20607" lon="3.18281">
        <ele>543</ele>
        <time>2015-10-14T00:05:18Z</time>
      </trkpt>
      <trkpt lat="44.20603" lon="3.18281">
        <ele>542</ele>
        <time>2015-10-14T00:07:18Z</time>
      </trkpt>
      <trkpt lat="44.20599" lon="3.18278">
        <ele>543</ele>
        <time>2015-10-14T00:09:18Z</time>
      </trkpt>
      <trkpt lat="44.20593" lon="3.18275">
        <ele>543</ele>
        <time>2015-10-14T00:11:18Z</time>
      </trkpt>
      <trkpt lat="44.20583" lon="3.18271">
        <ele>544</ele>
        <time>2015-10-14T00:13:18Z</time>
      </trkpt>
      <trkpt lat="44.20579" lon="3.18267">
        <ele>544</ele>
        <time>2015-10-14T00:15:18Z</time>
      </trkpt>
      <trkpt lat="44.20573" lon="3.18264">
        <ele>544</ele>
        <time>2015-10-14T00:17:18Z</time>
      </trkpt>
      <trkpt lat="44.20565" lon="3.18262">
        <ele>542</ele>
        <time>2015-10-14T00:19:18Z</time>
      </trkpt>
      <trkpt lat="44.20563" lon="3.18261">
        <ele>542</ele>
        <time>2015-10-14T00:21:18Z</time>
      </trkpt>
      <trkpt lat="44.20556" lon="3.1826">
        <ele>541</ele>
        <time>2015-10-14T00:23:18Z</time>
      </trkpt>
      <trkpt lat="44.20545" lon="3.18257">
        <ele>539</ele>
        <time>2015-10-14T00:25:18Z</time>
      </trkpt>
      <trkpt lat="44.2053" lon="3.18256">
        <ele>535</ele>
        <time>2015-10-14T00:27:18Z</time>
      </trkpt>
      <trkpt lat="44.20511" lon="3.18253">
        <ele>530</ele>
        <time>2015-10-14T00:29:18Z</time>
      </trkpt>
      <trkpt lat="44.20506" lon="3.18249">
        <ele>530</ele>
        <time>2015-10-14T00:31:18Z</time>
      </trkpt>
      <trkpt lat="44.20501" lon="3.18246">
        <ele>528</ele>
        <time>2015-10-14T00:33:18Z</time>
      </trkpt>
      <trkpt lat="44.20499" lon="3.18242">
        <ele>528</ele>
        <time>2015-10-14T00:35:18Z</time>
      </trkpt>
      <trkpt lat="44.20494" lon="3.18237">
        <ele>527</ele>
        <time>2015-10-14T00:37:18Z</time>
      </trkpt>
      <trkpt lat="44.20491" lon="3.18239">
        <ele>527</ele>
        <time>2015-10-14T00:39:18Z</time>
      </trkpt>
      <trkpt lat="44.2049" lon="3.18245">
        <ele>526</ele>
        <time>2015-10-14T00:41:18Z</time>
      </trkpt>
      <trkpt lat="44.2049" lon="3.18257">
        <ele>525</ele>
        <time>2015-10-14T00:43:18Z</time>
      </trkpt>
      <trkpt lat="44.20492" lon="3.18266">
        <ele>524</ele>
        <time>2015-10-14T00:45:18Z</time>
      </trkpt>
      <trkpt lat="44.20492" lon="3.18274">
        <ele>523</ele>
        <time>2015-10-14T00:47:18Z</time>
      </trkpt>
      <trkpt lat="44.20488" lon="3.1828">
        <ele>521</ele>
        <time>2015-10-14T00:49:18Z</time>
      </trkpt>
      <trkpt lat="44.2048" lon="3.18286">
        <ele>520</ele>
        <time>2015-10-14T00:51:18Z</time>
      </trkpt>
      <trkpt lat="44.20473" lon="3.18284">
        <ele>519</ele>
        <time>2015-10-14T00:53:18Z</time>
      </trkpt>
      <trkpt lat="44.20467" lon="3.18283">
        <ele>519</ele>
        <time>2015-10-14T00:55:18Z</time>
      </trkpt>
      <trkpt lat="44.20461" lon="3.18285">
        <ele>518</ele>
        <time>2015-10-14T00:57:18Z</time>
      </trkpt>
      <trkpt lat="44.20454" lon="3.18295">
        <ele>516</ele>
        <time>2015-10-14T00:59:18Z</time>
      </trkpt>
      <trkpt lat="44.20448" lon="3.18306">
        <ele>515</ele>
        <time>2015-10-14T01:01:18Z</time>
      </trkpt>
      <trkpt lat="44.20445" lon="3.18311">
        <ele>515</ele>
        <time>2015-10-14T01:03:18Z</time>
      </trkpt>
      <trkpt lat="44.2044" lon="3.18318">
        <ele>514</ele>
        <time>2015-10-14T01:05:18Z</time>
      </trkpt>
      <trkpt lat="44.20437" lon="3.18325">
        <ele>514</ele>
        <time>2015-10-14T01:07:18Z</time>
      </trkpt>
      <trkpt lat="44.20438" lon="3.18332">
        <ele>514</ele>
        <time>2015-10-14T01:09:18Z</time>
      </trkpt>
      <trkpt lat="44.20447" lon="3.18345">
        <ele>511</ele>
        <time>2015-10-14T01:11:18Z</time>
      </trkpt>
      <trkpt lat="44.20446" lon="3.18352">
        <ele>510</ele>
        <time>2015-10-14T01:13:18Z</time>
      </trkpt>
      <trkpt lat="44.20438" lon="3.18359">
        <ele>509</ele>
        <time>2015-10-14T01:15:18Z</time>
      </trkpt>
      <trkpt lat="44.20416" lon="3.18381">
        <ele>504</ele>
        <time>2015-10-14T01:17:18Z</time>
      </trkpt>
      <trkpt lat="44.20405" lon="3.18393">
        <ele>501</ele>
        <time>2015-10-14T01:19:18Z</time>
      </trkpt>
      <trkpt lat="44.20394" lon="3.18411">
        <ele>497</ele>
        <time>2015-10-14T01:21:18Z</time>
      </trkpt>
      <trkpt lat="44.20375" lon="3.18422">
        <ele>495</ele>
        <time>2015-10-14T01:23:18Z</time>
      </trkpt>
      <trkpt lat="44.2036" lon="3.18429">
        <ele>493</ele>
        <time>2015-10-14T01:25:18Z</time>
      </trkpt>
      <trkpt lat="44.20348" lon="3.18427">
        <ele>494</ele>
        <time>2015-10-14T01:27:18Z</time>
      </trkpt>
      <trkpt lat="44.20341" lon="3.18422">
        <ele>494</ele>
        <time>2015-10-14T01:29:18Z</time>
      </trkpt>
      <trkpt lat="44.20333" lon="3.18416">
        <ele>495</ele>
        <time>2015-10-14T01:31:18Z</time>
      </trkpt>
      <trkpt lat="44.20329" lon="3.18422">
        <ele>493</ele>
        <time>2015-10-14T01:33:18Z</time>
      </trkpt>
      <trkpt lat="44.20324" lon="3.18427">
        <ele>492</ele>
        <time>2015-10-14T01:35:18Z</time>
      </trkpt>
      <trkpt lat="44.20317" lon="3.18435">
        <ele>489</ele>
        <time>2015-10-14T01:37:18Z</time>
      </trkpt>
      <trkpt lat="44.20309" lon="3.18441">
        <ele>487</ele>
        <time>2015-10-14T01:39:18Z</time>
      </trkpt>
      <trkpt lat="44.20302" lon="3.18445">
        <ele>485</ele>
        <time>2015-10-14T01:41:18Z</time>
      </trkpt>
      <trkpt lat="44.20293" lon="3.1845">
        <ele>484</ele>
        <time>2015-10-14T01:43:18Z</time>
      </trkpt>
      <trkpt lat="44.20284" lon="3.18452">
        <ele>482</ele>
        <time>2015-10-14T01:45:18Z</time>
      </trkpt>
      <trkpt lat="44.20274" lon="3.18456">
        <ele>480</ele>
        <time>2015-10-14T01:47:18Z</time>
      </trkpt>
      <trkpt lat="44.20266" lon="3.18456">
        <ele>479</ele>
        <time>2015-10-14T01:49:18Z</time>
      </trkpt>
      <trkpt lat="44.20203" lon="3.18476">
        <ele>463</ele>
        <time>2015-10-14T01:51:18Z</time>
      </trkpt>
      <trkpt lat="44.20252" lon="3.18462">
        <ele>477</ele>
        <time>2015-10-14T01:53:18Z</time>
      </trkpt>
      <trkpt lat="44.2024" lon="3.1847">
        <ele>474</ele>
        <time>2015-10-14T01:55:18Z</time>
      </trkpt>
      <trkpt lat="44.20236" lon="3.18476">
        <ele>473</ele>
        <time>2015-10-14T01:57:18Z</time>
      </trkpt>
      <trkpt lat="44.20232" lon="3.18477">
        <ele>471</ele>
        <time>2015-10-14T01:59:18Z</time>
      </trkpt>
      <trkpt lat="44.20226" lon="3.18478">
        <ele>470</ele>
        <time>2015-10-14T02:01:18Z</time>
      </trkpt>
      <trkpt lat="44.20223" lon="3.18478">
        <ele>469</ele>
        <time>2015-10-14T02:03:18Z</time>
      </trkpt>
      <trkpt lat="44.20218" lon="3.18478">
        <ele>467</ele>
        <time>2015-10-14T02:05:18Z</time>
      </trkpt>
      <trkpt lat="44.2021" lon="3.18471">
        <ele>465</ele>
        <time>2015-10-14T02:07:18Z</time>
      </trkpt>
      <trkpt lat="44.20206" lon="3.18463">
        <ele>463</ele>
        <time>2015-10-14T02:09:18Z</time>
      </trkpt>
      <trkpt lat="44.20207" lon="3.18455">
        <ele>464</ele>
        <time>2015-10-14T02:11:18Z</time>
      </trkpt>
      <trkpt lat="44.20194" lon="3.18455">
        <ele>460</ele>
        <time>2015-10-14T02:13:18Z</time>
      </trkpt>
      <trkpt lat="44.20186" lon="3.18454">
        <ele>457</ele>
        <time>2015-10-14T02:15:18Z</time>
      </trkpt>
      <trkpt lat="44.20182" lon="3.18457">
        <ele>456</ele>
        <time>2015-10-14T02:17:18Z</time>
      </trkpt>
      <trkpt lat="44.20176" lon="3.1846">
        <ele>454</ele>
        <time>2015-10-14T02:19:18Z</time>
      </trkpt>
      <trkpt lat="44.2017" lon="3.18471">
        <ele>453</ele>
        <time>2015-10-14T02:21:18Z</time>
      </trkpt>
      <trkpt lat="44.2017" lon="3.18487">
        <ele>454</ele>
        <time>2015-10-14T02:23:18Z</time>
      </trkpt>
      <trkpt lat="44.2017" lon="3.18501">
        <ele>454</ele>
        <time>2015-10-14T02:25:18Z</time>
      </trkpt>
      <trkpt lat="44.20169" lon="3.18528">
        <ele>451</ele>
        <time>2015-10-14T02:27:18Z</time>
      </trkpt>
      <trkpt lat="44.20165" lon="3.18539">
        <ele>448</ele>
        <time>2015-10-14T02:29:18Z</time>
      </trkpt>
      <trkpt lat="44.2016" lon="3.18553">
        <ele>446</ele>
        <time>2015-10-14T02:31:18Z</time>
      </trkpt>
      <trkpt lat="44.20157" lon="3.1857">
        <ele>444</ele>
        <time>2015-10-14T02:33:18Z</time>
      </trkpt>
      <trkpt lat="44.20155" lon="3.18584">
        <ele>442</ele>
        <time>2015-10-14T02:35:18Z</time>
      </trkpt>
      <trkpt lat="44.20154" lon="3.18604">
        <ele>440</ele>
        <time>2015-10-14T02:37:18Z</time>
      </trkpt>
      <trkpt lat="44.20153" lon="3.18614">
        <ele>439</ele>
        <time>2015-10-14T02:39:18Z</time>
      </trkpt>
      <trkpt lat="44.2015" lon="3.18617">
        <ele>438</ele>
        <time>2015-10-14T02:41:18Z</time>
      </trkpt>
      <trkpt lat="44.20143" lon="3.18601">
        <ele>439</ele>
        <time>2015-10-14T02:43:18Z</time>
      </trkpt>
      <trkpt lat="44.20138" lon="3.1859">
        <ele>439</ele>
        <time>2015-10-14T02:45:18Z</time>
      </trkpt>
      <trkpt lat="44.20138" lon="3.1857">
        <ele>441</ele>
        <time>2015-10-14T02:47:18Z</time>
      </trkpt>
      <trkpt lat="44.20133" lon="3.18571">
        <ele>440</ele>
        <time>2015-10-14T02:49:18Z</time>
      </trkpt>
      <trkpt lat="44.2013" lon="3.18587">
        <ele>438</ele>
        <time>2015-10-14T02:51:18Z</time>
      </trkpt>
      <trkpt lat="44.20139" lon="3.18621">
        <ele>437</ele>
        <time>2015-10-14T02:53:18Z</time>
      </trkpt>
      <trkpt lat="44.20138" lon="3.18637">
        <ele>435</ele>
        <time>2015-10-14T02:55:18Z</time>
      </trkpt>
      <trkpt lat="44.2013" lon="3.18648">
        <ele>433</ele>
        <time>2015-10-14T02:57:18Z</time>
      </trkpt>
      <trkpt lat="44.20133" lon="3.18656">
        <ele>433</ele>
        <time>2015-10-14T02:59:18Z</time>
      </trkpt>
      <trkpt lat="44.20155" lon="3.18662">
        <ele>435</ele>
        <time>2015-10-14T03:01:18Z</time>
      </trkpt>
      <trkpt lat="44.20179" lon="3.18667">
        <ele>437</ele>
        <time>2015-10-14T03:03:18Z</time>
      </trkpt>
      <trkpt lat="44.20201" lon="3.18673">
        <ele>438</ele>
        <time>2015-10-14T03:05:18Z</time>
      </trkpt>
      <trkpt lat="44.20215" lon="3.18677">
        <ele>438</ele>
        <time>2015-10-14T03:07:18Z</time>
      </trkpt>
      <trkpt lat="44.2023" lon="3.18683">
        <ele>438</ele>
        <time>2015-10-14T03:09:18Z</time>
      </trkpt>
      <trkpt lat="44.20242" lon="3.18692">
        <ele>437</ele>
        <time>2015-10-14T03:11:18Z</time>
      </trkpt>
      <trkpt lat="44.20255" lon="3.18698">
        <ele>437</ele>
        <time>2015-10-14T03:13:18Z</time>
      </trkpt>
      <trkpt lat="44.20267" lon="3.18703">
        <ele>436</ele>
        <time>2015-10-14T03:15:18Z</time>
      </trkpt>
      <trkpt lat="44.20277" lon="3.18707">
        <ele>435</ele>
        <time>2015-10-14T03:17:18Z</time>
      </trkpt>
      <trkpt lat="44.20286" lon="3.18709">
        <ele>434</ele>
        <time>2015-10-14T03:19:18Z</time>
      </trkpt>
      <trkpt lat="44.20292" lon="3.18717">
        <ele>433</ele>
        <time>2015-10-14T03:21:18Z</time>
      </trkpt>
      <trkpt lat="44.20295" lon="3.18726">
        <ele>431</ele>
        <time>2015-10-14T03:23:18Z</time>
      </trkpt>
      <trkpt lat="44.20297" lon="3.18737">
        <ele>429</ele>
        <time>2015-10-14T03:25:18Z</time>
      </trkpt>
      <trkpt lat="44.20299" lon="3.18747">
        <ele>428</ele>
        <time>2015-10-14T03:27:18Z</time>
      </trkpt>
      <trkpt lat="44.20301" lon="3.18756">
        <ele>427</ele>
        <time>2015-10-14T03:29:18Z</time>
      </trkpt>
      <trkpt lat="44.20305" lon="3.18764">
        <ele>426</ele>
        <time>2015-10-14T03:31:18Z</time>
      </trkpt>
      <trkpt lat="44.20309" lon="3.18771">
        <ele>426</ele>
        <time>2015-10-14T03:33:18Z</time>
      </trkpt>
      <trkpt lat="44.20317" lon="3.1878">
        <ele>426</ele>
        <time>2015-10-14T03:35:18Z</time>
      </trkpt>
      <trkpt lat="44.20318" lon="3.18784">
        <ele>426</ele>
        <time>2015-10-14T03:37:18Z</time>
      </trkpt>
      <trkpt lat="44.20315" lon="3.18797">
        <ele>425</ele>
        <time>2015-10-14T03:39:18Z</time>
      </trkpt>
      <trkpt lat="44.20314" lon="3.18813">
        <ele>424</ele>
        <time>2015-10-14T03:41:18Z</time>
      </trkpt>
      <trkpt lat="44.20314" lon="3.18827">
        <ele>423</ele>
        <time>2015-10-14T03:43:18Z</time>
      </trkpt>
      <trkpt lat="44.20314" lon="3.18844">
        <ele>424</ele>
        <time>2015-10-14T03:45:18Z</time>
      </trkpt>
      <trkpt lat="44.20313" lon="3.1886">
        <ele>426</ele>
        <time>2015-10-14T03:47:18Z</time>
      </trkpt>
      <trkpt lat="44.20309" lon="3.1887">
        <ele>427</ele>
        <time>2015-10-14T03:49:18Z</time>
      </trkpt>
      <trkpt lat="44.2031" lon="3.18887">
        <ele>429</ele>
        <time>2015-10-14T03:51:18Z</time>
      </trkpt>
      <trkpt lat="44.2031" lon="3.18899">
        <ele>431</ele>
        <time>2015-10-14T03:53:18Z</time>
      </trkpt>
      <trkpt lat="44.20316" lon="3.18915">
        <ele>433</ele>
        <time>2015-10-14T03:55:18Z</time>
      </trkpt>
      <trkpt lat="44.20323" lon="3.18925">
        <ele>435</ele>
        <time>2015-10-14T03:57:18Z</time>
      </trkpt>
      <trkpt lat="44.20332" lon="3.18939">
        <ele>437</ele>
        <time>2015-10-14T03:59:18Z</time>
      </trkpt>
      <trkpt lat="44.20325" lon="3.18947">
        <ele>439</ele>
        <time>2015-10-14T04:01:18Z</time>
      </trkpt>
      <trkpt lat="44.20315" lon="3.18961">
        <ele>441</ele>
        <time>2015-10-14T04:03:18Z</time>
      </trkpt>
      <trkpt lat="44.20305" lon="3.18966">
        <ele>441</ele>
        <time>2015-10-14T04:05:18Z</time>
      </trkpt>
      <trkpt lat="44.20301" lon="3.18976">
        <ele>443</ele>
        <time>2015-10-14T04:07:18Z</time>
      </trkpt>
      <trkpt lat="44.20303" lon="3.18986">
        <ele>445</ele>
        <time>2015-10-14T04:09:18Z</time>
      </trkpt>
      <trkpt lat="44.203" lon="3.19">
        <ele>447</ele>
        <time>2015-10-14T04:11:18Z</time>
      </trkpt>
      <trkpt lat="44.20299" lon="3.19021">
        <ele>451</ele>
        <time>2015-10-14T04:13:18Z</time>
      </trkpt>
      <trkpt lat="44.20296" lon="3.19041">
        <ele>455</ele>
        <time>2015-10-14T04:15:18Z</time>
      </trkpt>
      <trkpt lat="44.20295" lon="3.19063">
        <ele>459</ele>
        <time>2015-10-14T04:17:18Z</time>
      </trkpt>
      <trkpt lat="44.20292" lon="3.19087">
        <ele>463</ele>
        <time>2015-10-14T04:19:18Z</time>
      </trkpt>
      <trkpt lat="44.20292" lon="3.19113">
        <ele>467</ele>
        <time>2015-10-14T04:21:18Z</time>
      </trkpt>
      <trkpt lat="44.20294" lon="3.19146">
        <ele>471</ele>
        <time>2015-10-14T04:23:18Z</time>
      </trkpt>
      <trkpt lat="44.20296" lon="3.19166">
        <ele>473</ele>
        <time>2015-10-14T04:25:18Z</time>
      </trkpt>
      <trkpt lat="44.20296" lon="3.19185">
        <ele>475</ele>
        <time>2015-10-14T04:27:18Z</time>
      </trkpt>
      <trkpt lat="44.20297" lon="3.19207">
        <ele>478</ele>
        <time>2015-10-14T04:29:18Z</time>
      </trkpt>
      <trkpt lat="44.20301" lon="3.1922">
        <ele>480</ele>
        <time>2015-10-14T04:31:18Z</time>
      </trkpt>
      <trkpt lat="44.20304" lon="3.19232">
        <ele>482</ele>
        <time>2015-10-14T04:33:18Z</time>
      </trkpt>
      <trkpt lat="44.20305" lon="3.19242">
        <ele>483</ele>
        <time>2015-10-14T04:35:18Z</time>
      </trkpt>
      <trkpt lat="44.20308" lon="3.19253">
        <ele>485</ele>
        <time>2015-10-14T04:37:18Z</time>
      </trkpt>
      <trkpt lat="44.20309" lon="3.19263">
        <ele>486</ele>
        <time>2015-10-14T04:39:18Z</time>
      </trkpt>
      <trkpt lat="44.2031" lon="3.19272">
        <ele>488</ele>
        <time>2015-10-14T04:41:18Z</time>
      </trkpt>
      <trkpt lat="44.20311" lon="3.19284">
        <ele>490</ele>
        <time>2015-10-14T04:43:18Z</time>
      </trkpt>
      <trkpt lat="44.20308" lon="3.19301">
        <ele>493</ele>
        <time>2015-10-14T04:45:18Z</time>
      </trkpt>
      <trkpt lat="44.20306" lon="3.19314">
        <ele>495</ele>
        <time>2015-10-14T04:47:18Z</time>
      </trkpt>
      <trkpt lat="44.20304" lon="3.19322">
        <ele>496</ele>
        <time>2015-10-14T04:49:18Z</time>
      </trkpt>
      <trkpt lat="44.20297" lon="3.19325">
        <ele>496</ele>
        <time>2015-10-14T04:51:18Z</time>
      </trkpt>
      <trkpt lat="44.20284" lon="3.19337">
        <ele>496</ele>
        <time>2015-10-14T04:53:18Z</time>
      </trkpt>
      <trkpt lat="44.20273" lon="3.19346">
        <ele>497</ele>
        <time>2015-10-14T04:55:18Z</time>
      </trkpt>
      <trkpt lat="44.20268" lon="3.19354">
        <ele>498</ele>
        <time>2015-10-14T04:57:18Z</time>
      </trkpt>
      <trkpt lat="44.2028" lon="3.19356">
        <ele>499</ele>
        <time>2015-10-14T04:59:18Z</time>
      </trkpt>
      <trkpt lat="44.20286" lon="3.19361">
        <ele>501</ele>
        <time>2015-10-14T05:01:18Z</time>
      </trkpt>
      <trkpt lat="44.20298" lon="3.19372">
        <ele>504</ele>
        <time>2015-10-14T05:03:18Z</time>
      </trkpt>
      <trkpt lat="44.20294" lon="3.19378">
        <ele>504</ele>
        <time>2015-10-14T05:05:18Z</time>
      </trkpt>
      <trkpt lat="44.20287" lon="3.19388">
        <ele>506</ele>
        <time>2015-10-14T05:07:18Z</time>
      </trkpt>
      <trkpt lat="44.20285" lon="3.19403">
        <ele>508</ele>
        <time>2015-10-14T05:09:18Z</time>
      </trkpt>
      <trkpt lat="44.20287" lon="3.19413">
        <ele>510</ele>
        <time>2015-10-14T05:11:18Z</time>
      </trkpt>
      <trkpt lat="44.20284" lon="3.19425">
        <ele>511</ele>
        <time>2015-10-14T05:13:18Z</time>
      </trkpt>
      <trkpt lat="44.20282" lon="3.1944">
        <ele>513</ele>
        <time>2015-10-14T05:15:18Z</time>
      </trkpt>
      <trkpt lat="44.20284" lon="3.19448">
        <ele>514</ele>
        <time>2015-10-14T05:17:18Z</time>
      </trkpt>
      <trkpt lat="44.20288" lon="3.19452">
        <ele>515</ele>
        <time>2015-10-14T05:19:18Z</time>
      </trkpt>
      <trkpt lat="44.2029" lon="3.19456">
        <ele>516</ele>
        <time>2015-10-14T05:21:18Z</time>
      </trkpt>
      <trkpt lat="44.20292" lon="3.19464">
        <ele>517</ele>
        <time>2015-10-14T05:23:18Z</time>
      </trkpt>
      <trkpt lat="44.20293" lon="3.19477">
        <ele>519</ele>
        <time>2015-10-14T05:25:18Z</time>
      </trkpt>
      <trkpt lat="44.2029" lon="3.19486">
        <ele>520</ele>
        <time>2015-10-14T05:27:18Z</time>
      </trkpt>
      <trkpt lat="44.20285" lon="3.19495">
        <ele>520</ele>
        <time>2015-10-14T05:29:18Z</time>
      </trkpt>
      <trkpt lat="44.20282" lon="3.19504">
        <ele>521</ele>
        <time>2015-10-14T05:31:18Z</time>
      </trkpt>
      <trkpt lat="44.20283" lon="3.19511">
        <ele>522</ele>
        <time>2015-10-14T05:33:18Z</time>
      </trkpt>
      <trkpt lat="44.20288" lon="3.19518">
        <ele>523</ele>
        <time>2015-10-14T05:35:18Z</time>
      </trkpt>
      <trkpt lat="44.20291" lon="3.19524">
        <ele>524</ele>
        <time>2015-10-14T05:37:18Z</time>
      </trkpt>
      <trkpt lat="44.20298" lon="3.19531">
        <ele>526</ele>
        <time>2015-10-14T05:39:18Z</time>
      </trkpt>
      <trkpt lat="44.20301" lon="3.19537">
        <ele>528</ele>
        <time>2015-10-14T05:41:18Z</time>
      </trkpt>
      <trkpt lat="44.20308" lon="3.19547">
        <ele>530</ele>
        <time>2015-10-14T05:43:18Z</time>
      </trkpt>
      <trkpt lat="44.20316" lon="3.19554">
        <ele>532</ele>
        <time>2015-10-14T05:45:18Z</time>
      </trkpt>
      <trkpt lat="44.20322" lon="3.1956">
        <ele>534</ele>
        <time>2015-10-14T05:47:18Z</time>
      </trkpt>
      <trkpt lat="44.20328" lon="3.19568">
        <ele>537</ele>
        <time>2015-10-14T05:49:18Z</time>
      </trkpt>
      <trkpt lat="44.20334" lon="3.19576">
        <ele>539</ele>
        <time>2015-10-14T05:51:18Z</time>
      </trkpt>
      <trkpt lat="44.20341" lon="3.19584">
        <ele>542</ele>
        <time>2015-10-14T05:53:18Z</time>
      </trkpt>
      <trkpt lat="44.20346" lon="3.1959">
        <ele>545</ele>
        <time>2015-10-14T05:55:18Z</time>
      </trkpt>
      <trkpt lat="44.20352" lon="3.19593">
        <ele>547</ele>
        <time>2015-10-14T05:57:18Z</time>
      </trkpt>
      <trkpt lat="44.20356" lon="3.19597">
        <ele>549</ele>
        <time>2015-10-14T05:59:18Z</time>
      </trkpt>
      <trkpt lat="44.20351" lon="3.19611">
        <ele>551</ele>
        <time>2015-10-14T06:01:18Z</time>
      </trkpt>
      <trkpt lat="44.20346" lon="3.19623">
        <ele>553</ele>
        <time>2015-10-14T06:03:18Z</time>
      </trkpt>
      <trkpt lat="44.20341" lon="3.19634">
        <ele>554</ele>
        <time>2015-10-14T06:05:18Z</time>
      </trkpt>
      <trkpt lat="44.20339" lon="3.19648">
        <ele>557</ele>
        <time>2015-10-14T06:07:18Z</time>
      </trkpt>
      <trkpt lat="44.2034" lon="3.19656">
        <ele>559</ele>
        <time>2015-10-14T06:09:18Z</time>
      </trkpt>
      <trkpt lat="44.20323" lon="3.19669">
        <ele>557</ele>
        <time>2015-10-14T06:11:18Z</time>
      </trkpt>
      <trkpt lat="44.20317" lon="3.1968">
        <ele>558</ele>
        <time>2015-10-14T06:13:18Z</time>
      </trkpt>
      <trkpt lat="44.20309" lon="3.19688">
        <ele>559</ele>
        <time>2015-10-14T06:15:18Z</time>
      </trkpt>
      <trkpt lat="44.20304" lon="3.19696">
        <ele>559</ele>
        <time>2015-10-14T06:17:18Z</time>
      </trkpt>
      <trkpt lat="44.20296" lon="3.19703">
        <ele>559</ele>
        <time>2015-10-14T06:19:18Z</time>
      </trkpt>
      <trkpt lat="44.20292" lon="3.19711">
        <ele>560</ele>
        <time>2015-10-14T06:21:18Z</time>
      </trkpt>
      <trkpt lat="44.20291" lon="3.19712">
        <ele>560</ele>
        <time>2015-10-14T06:23:18Z</time>
      </trkpt>
      <trkpt lat="44.20291" lon="3.19714">
        <ele>561</ele>
        <time>2015-10-14T06:25:18Z</time>
      </trkpt>
      <trkpt lat="44.20289" lon="3.1972">
        <ele>562</ele>
        <time>2015-10-14T06:27:18Z</time>
      </trkpt>
      <trkpt lat="44.20287" lon="3.19725">
        <ele>563</ele>
        <time>2015-10-14T06:29:18Z</time>
      </trkpt>
      <trkpt lat="44.20286" lon="3.1973">
        <ele>564</ele>
        <time>2015-10-14T06:31:18Z</time>
      </trkpt>
      <trkpt lat="44.20286" lon="3.19731">
        <ele>564</ele>
        <time>2015-10-14T06:33:18Z</time>
      </trkpt>
      <trkpt lat="44.20285" lon="3.19739">
        <ele>566</ele>
        <time>2015-10-14T06:35:18Z</time>
      </trkpt>
      <trkpt lat="44.2028" lon="3.19746">
        <ele>566</ele>
        <time>2015-10-14T06:37:18Z</time>
      </trkpt>
      <trkpt lat="44.20279" lon="3.19751">
        <ele>567</ele>
        <time>2015-10-14T06:39:18Z</time>
      </trkpt>
      <trkpt lat="44.20277" lon="3.19755">
        <ele>568</ele>
        <time>2015-10-14T06:41:18Z</time>
      </trkpt>
      <trkpt lat="44.20275" lon="3.19764">
        <ele>569</ele>
        <time>2015-10-14T06:43:18Z</time>
      </trkpt>
      <trkpt lat="44.20273" lon="3.19767">
        <ele>570</ele>
        <time>2015-10-14T06:45:18Z</time>
      </trkpt>
      <trkpt lat="44.20271" lon="3.19778">
        <ele>572</ele>
        <time>2015-10-14T06:47:18Z</time>
      </trkpt>
      <trkpt lat="44.2027" lon="3.19782">
        <ele>572</ele>
        <time>2015-10-14T06:49:18Z</time>
      </trkpt>
      <trkpt lat="44.20271" lon="3.19787">
        <ele>574</ele>
        <time>2015-10-14T06:51:18Z</time>
      </trkpt>
      <trkpt lat="44.20271" lon="3.19789">
        <ele>575</ele>
        <time>2015-10-14T06:53:18Z</time>
      </trkpt>
      <trkpt lat="44.20271" lon="3.19796">
        <ele>576</ele>
        <time>2015-10-14T06:55:18Z</time>
      </trkpt>
      <trkpt lat="44.2027" lon="3.19806">
        <ele>579</ele>
        <time>2015-10-14T06:57:18Z</time>
      </trkpt>
      <trkpt lat="44.20268" lon="3.19815">
        <ele>580</ele>
        <time>2015-10-14T06:59:18Z</time>
      </trkpt>
      <trkpt lat="44.20266" lon="3.19823">
        <ele>581</ele>
        <time>2015-10-14T07:01:18Z</time>
      </trkpt>
      <trkpt lat="44.20265" lon="3.19829">
        <ele>583</ele>
        <time>2015-10-14T07:03:18Z</time>
      </trkpt>
      <trkpt lat="44.20262" lon="3.19839">
        <ele>584</ele>
        <time>2015-10-14T07:05:18Z</time>
      </trkpt>
      <trkpt lat="44.20261" lon="3.19843">
        <ele>584</ele>
        <time>2015-10-14T07:07:18Z</time>
      </trkpt>
      <trkpt lat="44.2026" lon="3.19848">
        <ele>585</ele>
        <time>2015-10-14T07:09:18Z</time>
      </trkpt>
      <trkpt lat="44.20259" lon="3.19853">
        <ele>585</ele>
        <time>2015-10-14T07:11:18Z</time>
      </trkpt>
      <trkpt lat="44.20253" lon="3.19865">
        <ele>585</ele>
        <time>2015-10-14T07:13:18Z</time>
      </trkpt>
      <trkpt lat="44.20252" lon="3.19872">
        <ele>586</ele>
        <time>2015-10-14T07:15:18Z</time>
      </trkpt>
      <trkpt lat="44.20254" lon="3.19878">
        <ele>588</ele>
        <time>2015-10-14T07:17:18Z</time>
      </trkpt>
      <trkpt lat="44.20254" lon="3.19884">
        <ele>589</ele>
        <time>2015-10-14T07:19:18Z</time>
      </trkpt>
      <trkpt lat="44.20254" lon="3.19889">
        <ele>590</ele>
        <time>2015-10-14T07:21:18Z</time>
      </trkpt>
      <trkpt lat="44.20255" lon="3.19895">
        <ele>592</ele>
        <time>2015-10-14T07:23:18Z</time>
      </trkpt>
      <trkpt lat="44.20255" lon="3.199">
        <ele>593</ele>
        <time>2015-10-14T07:25:18Z</time>
      </trkpt>
      <trkpt lat="44.20256" lon="3.19904">
        <ele>595</ele>
        <time>2015-10-14T07:27:18Z</time>
      </trkpt>
      <trkpt lat="44.20259" lon="3.19911">
        <ele>598</ele>
        <time>2015-10-14T07:29:18Z</time>
      </trkpt>
      <trkpt lat="44.20261" lon="3.19914">
        <ele>600</ele>
        <time>2015-10-14T07:31:18Z</time>
      </trkpt>
      <trkpt lat="44.20262" lon="3.1992">
        <ele>601</ele>
        <time>2015-10-14T07:33:18Z</time>
      </trkpt>
      <trkpt lat="44.20266" lon="3.19929">
        <ele>605</ele>
        <time>2015-10-14T07:35:18Z</time>
      </trkpt>
      <trkpt lat="44.20266" lon="3.19938">
        <ele>606</ele>
        <time>2015-10-14T07:37:18Z</time>
      </trkpt>
      <trkpt lat="44.20266" lon="3.19941">
        <ele>607</ele>
        <time>2015-10-14T07:39:18Z</time>
      </trkpt>
      <trkpt lat="44.20269" lon="3.19948">
        <ele>610</ele>
        <time>2015-10-14T07:41:18Z</time>
      </trkpt>
      <trkpt lat="44.2027" lon="3.19963">
        <ele>613</ele>
        <time>2015-10-14T07:43:18Z</time>
      </trkpt>
      <trkpt lat="44.20272" lon="3.19976">
        <ele>616</ele>
        <time>2015-10-14T07:45:18Z</time>
      </trkpt>
      <trkpt lat="44.20272" lon="3.19979">
        <ele>617</ele>
        <time>2015-10-14T07:47:18Z</time>
      </trkpt>
      <trkpt lat="44.20272" lon="3.19983">
        <ele>618</ele>
        <time>2015-10-14T07:49:18Z</time>
      </trkpt>
      <trkpt lat="44.20272" lon="3.19994">
        <ele>620</ele>
        <time>2015-10-14T07:51:18Z</time>
      </trkpt>
      <trkpt lat="44.20272" lon="3.19999">
        <ele>620</ele>
        <time>2015-10-14T07:53:18Z</time>
      </trkpt>
      <trkpt lat="44.20271" lon="3.20006">
        <ele>621</ele>
        <time>2015-10-14T07:55:18Z</time>
      </trkpt>
      <trkpt lat="44.20271" lon="3.20012">
        <ele>623</ele>
        <time>2015-10-14T07:57:18Z</time>
      </trkpt>
      <trkpt lat="44.20272" lon="3.20015">
        <ele>624</ele>
        <time>2015-10-14T07:59:18Z</time>
      </trkpt>
      <trkpt lat="44.20275" lon="3.2002">
        <ele>628</ele>
        <time>2015-10-14T08:01:18Z</time>
      </trkpt>
      <trkpt lat="44.20275" lon="3.20031">
        <ele>631</ele>
        <time>2015-10-14T08:03:18Z</time>
      </trkpt>
      <trkpt lat="44.20277" lon="3.20036">
        <ele>633</ele>
        <time>2015-10-14T08:05:18Z</time>
      </trkpt>
      <trkpt lat="44.20277" lon="3.20037">
        <ele>633</ele>
        <time>2015-10-14T08:07:18Z</time>
      </trkpt>
      <trkpt lat="44.20276" lon="3.20043">
        <ele>634</ele>
        <time>2015-10-14T08:09:18Z</time>
      </trkpt>
      <trkpt lat="44.20277" lon="3.2005">
        <ele>637</ele>
        <time>2015-10-14T08:11:18Z</time>
      </trkpt>
      <trkpt lat="44.20276" lon="3.20054">
        <ele>637</ele>
        <time>2015-10-14T08:13:18Z</time>
      </trkpt>
      <trkpt lat="44.20279" lon="3.20064">
        <ele>642</ele>
        <time>2015-10-14T08:15:18Z</time>
      </trkpt>
      <trkpt lat="44.20275" lon="3.20071">
        <ele>641</ele>
        <time>2015-10-14T08:17:18Z</time>
      </trkpt>
      <trkpt lat="44.20272" lon="3.20076">
        <ele>640</ele>
        <time>2015-10-14T08:19:18Z</time>
      </trkpt>
      <trkpt lat="44.20271" lon="3.2008">
        <ele>641</ele>
        <time>2015-10-14T08:21:18Z</time>
      </trkpt>
      <trkpt lat="44.20267" lon="3.20085">
        <ele>639</ele>
        <time>2015-10-14T08:23:18Z</time>
      </trkpt>
      <trkpt lat="44.20265" lon="3.2009">
        <ele>641</ele>
        <time>2015-10-14T08:25:18Z</time>
      </trkpt>
      <trkpt lat="44.20261" lon="3.20093">
        <ele>640</ele>
        <time>2015-10-14T08:27:18Z</time>
      </trkpt>
      <trkpt lat="44.2026" lon="3.20095">
        <ele>640</ele>
        <time>2015-10-14T08:29:18Z</time>
      </trkpt>
      <trkpt lat="44.20254" lon="3.20098">
        <ele>638</ele>
        <time>2015-10-14T08:31:18Z</time>
      </trkpt>
      <trkpt lat="44.2025" lon="3.20098">
        <ele>635</ele>
        <time>2015-10-14T08:33:18Z</time>
      </trkpt>
      <trkpt lat="44.20247" lon="3.201">
        <ele>635</ele>
        <time>2015-10-14T08:35:18Z</time>
      </trkpt>
      <trkpt lat="44.20246" lon="3.20101">
        <ele>636</ele>
        <time>2015-10-14T08:37:18Z</time>
      </trkpt>
      <trkpt lat="44.20243" lon="3.20103">
        <ele>636</ele>
        <time>2015-10-14T08:39:18Z</time>
      </trkpt>
      <trkpt lat="44.20238" lon="3.20107">
        <ele>637</ele>
        <time>2015-10-14T08:41:18Z</time>
      </trkpt>
      <trkpt lat="44.20236" lon="3.20105">
        <ele>635</ele>
        <time>2015-10-14T08:43:18Z</time>
      </trkpt>
      <trkpt lat="44.2023" lon="3.20105">
        <ele>634</ele>
        <time>2015-10-14T08:45:18Z</time>
      </trkpt>
      <trkpt lat="44.20218" lon="3.20128">
        <ele>641</ele>
        <time>2015-10-14T08:47:18Z</time>
      </trkpt>
      <trkpt lat="44.20215" lon="3.2013">
        <ele>641</ele>
        <time>2015-10-14T08:49:18Z</time>
      </trkpt>
      <trkpt lat="44.20209" lon="3.20129">
        <ele>639</ele>
        <time>2015-10-14T08:51:18Z</time>
      </trkpt>
      <trkpt lat="44.20207" lon="3.2013">
        <ele>639</ele>
        <time>2015-10-14T08:53:18Z</time>
      </trkpt>
      <trkpt lat="44.20203" lon="3.20132">
        <ele>638</ele>
        <time>2015-10-14T08:55:18Z</time>
      </trkpt>
      <trkpt lat="44.20202" lon="3.20132">
        <ele>638</ele>
        <time>2015-10-14T08:57:18Z</time>
      </trkpt>
      <trkpt lat="44.20201" lon="3.20136">
        <ele>640</ele>
        <time>2015-10-14T08:59:18Z</time>
      </trkpt>
      <trkpt lat="44.20204" lon="3.2014">
        <ele>642</ele>
        <time>2015-10-14T09:01:18Z</time>
      </trkpt>
      <trkpt lat="44.20206" lon="3.20141">
        <ele>643</ele>
        <time>2015-10-14T09:03:18Z</time>
      </trkpt>
      <trkpt lat="44.20209" lon="3.20142">
        <ele>645</ele>
        <time>2015-10-14T09:05:18Z</time>
      </trkpt>
      <trkpt lat="44.20211" lon="3.20145">
        <ele>647</ele>
        <time>2015-10-14T09:07:18Z</time>
      </trkpt>
      <trkpt lat="44.20211" lon="3.20149">
        <ele>649</ele>
        <time>2015-10-14T09:09:18Z</time>
      </trkpt>
      <trkpt lat="44.20212" lon="3.2015">
        <ele>650</ele>
        <time>2015-10-14T09:11:18Z</time>
      </trkpt>
      <trkpt lat="44.20217" lon="3.20153">
        <ele>653</ele>
        <time>2015-10-14T09:13:18Z</time>
      </trkpt>
      <trkpt lat="44.20219" lon="3.20157">
        <ele>656</ele>
        <time>2015-10-14T09:15:18Z</time>
      </trkpt>
      <trkpt lat="44.20221" lon="3.20159">
        <ele>657</ele>
        <time>2015-10-14T09:17:18Z</time>
      </trkpt>
      <trkpt lat="44.20219" lon="3.20162">
        <ele>658</ele>
        <time>2015-10-14T09:19:18Z</time>
      </trkpt>
      <trkpt lat="44.2022" lon="3.20163">
        <ele>659</ele>
        <time>2015-10-14T09:21:18Z</time>
      </trkpt>
      <trkpt lat="44.20216" lon="3.20163">
        <ele>657</ele>
        <time>2015-10-14T09:23:18Z</time>
      </trkpt>
      <trkpt lat="44.20218" lon="3.20165">
        <ele>659</ele>
        <time>2015-10-14T09:25:18Z</time>
      </trkpt>
      <trkpt lat="44.20215" lon="3.20171">
        <ele>660</ele>
        <time>2015-10-14T09:27:18Z</time>
      </trkpt>
      <trkpt lat="44.20211" lon="3.20178">
        <ele>659</ele>
        <time>2015-10-14T09:29:18Z</time>
      </trkpt>
      <trkpt lat="44.20211" lon="3.20187">
        <ele>661</ele>
        <time>2015-10-14T09:31:18Z</time>
      </trkpt>
      <trkpt lat="44.2021" lon="3.20195">
        <ele>663</ele>
        <time>2015-10-14T09:33:18Z</time>
      </trkpt>
      <trkpt lat="44.20209" lon="3.20201">
        <ele>663</ele>
        <time>2015-10-14T09:35:18Z</time>
      </trkpt>
      <trkpt lat="44.20207" lon="3.20207">
        <ele>664</ele>
        <time>2015-10-14T09:37:18Z</time>
      </trkpt>
      <trkpt lat="44.20207" lon="3.20211">
        <ele>665</ele>
        <time>2015-10-14T09:39:18Z</time>
      </trkpt>
      <trkpt lat="44.20203" lon="3.20217">
        <ele>664</ele>
        <time>2015-10-14T09:41:18Z</time>
      </trkpt>
      <trkpt lat="44.20204" lon="3.20222">
        <ele>666</ele>
        <time>2015-10-14T09:43:18Z</time>
      </trkpt>
      <trkpt lat="44.20207" lon="3.20226">
        <ele>668</ele>
        <time>2015-10-14T09:45:18Z</time>
      </trkpt>
      <trkpt lat="44.20207" lon="3.20232">
        <ele>669</ele>
        <time>2015-10-14T09:47:18Z</time>
      </trkpt>
      <trkpt lat="44.20209" lon="3.20238">
        <ele>671</ele>
        <time>2015-10-14T09:49:18Z</time>
      </trkpt>
      <trkpt lat="44.20207" lon="3.20246">
        <ele>672</ele>
        <time>2015-10-14T09:51:18Z</time>
      </trkpt>
      <trkpt lat="44.20208" lon="3.20254">
        <ele>674</ele>
        <time>2015-10-14T09:53:18Z</time>
      </trkpt>
      <trkpt lat="44.20209" lon="3.20258">
        <ele>674</ele>
        <time>2015-10-14T09:55:18Z</time>
      </trkpt>
      <trkpt lat="44.20214" lon="3.20264">
        <ele>677</ele>
        <time>2015-10-14T09:57:18Z</time>
      </trkpt>
      <trkpt lat="44.20216" lon="3.20265">
        <ele>678</ele>
        <time>2015-10-14T09:59:18Z</time>
      </trkpt>
      <trkpt lat="44.2022" lon="3.20266">
        <ele>679</ele>
        <time>2015-10-14T10:01:18Z</time>
      </trkpt>
      <trkpt lat="44.20226" lon="3.20268">
        <ele>682</ele>
        <time>2015-10-14T10:03:18Z</time>
      </trkpt>
      <trkpt lat="44.20232" lon="3.20273">
        <ele>685</ele>
        <time>2015-10-14T10:05:18Z</time>
      </trkpt>
      <trkpt lat="44.20234" lon="3.20274">
        <ele>685</ele>
        <time>2015-10-14T10:07:18Z</time>
      </trkpt>
      <trkpt lat="44.20236" lon="3.20277">
        <ele>686</ele>
        <time>2015-10-14T10:09:18Z</time>
      </trkpt>
      <trkpt lat="44.20237" lon="3.2029">
        <ele>687</ele>
        <time>2015-10-14T10:11:18Z</time>
      </trkpt>
      <trkpt lat="44.20238" lon="3.20293">
        <ele>688</ele>
        <time>2015-10-14T10:13:18Z</time>
      </trkpt>
      <trkpt lat="44.20241" lon="3.20298">
        <ele>689</ele>
        <time>2015-10-14T10:15:18Z</time>
      </trkpt>
      <trkpt lat="44.20244" lon="3.20303">
        <ele>690</ele>
        <time>2015-10-14T10:17:18Z</time>
      </trkpt>
      <trkpt lat="44.20244" lon="3.20305">
        <ele>690</ele>
        <time>2015-10-14T10:19:18Z</time>
      </trkpt>
      <trkpt lat="44.20244" lon="3.20306">
        <ele>690</ele>
        <time>2015-10-14T10:21:18Z</time>
      </trkpt>
      <trkpt lat="44.20245" lon="3.20316">
        <ele>691</ele>
        <time>2015-10-14T10:23:18Z</time>
      </trkpt>
      <trkpt lat="44.20246" lon="3.20319">
        <ele>691</ele>
        <time>2015-10-14T10:25:18Z</time>
      </trkpt>
      <trkpt lat="44.20245" lon="3.20328">
        <ele>691</ele>
        <time>2015-10-14T10:27:18Z</time>
      </trkpt>
      <trkpt lat="44.20246" lon="3.2033">
        <ele>692</ele>
        <time>2015-10-14T10:29:18Z</time>
      </trkpt>
      <trkpt lat="44.20248" lon="3.20334">
        <ele>693</ele>
        <time>2015-10-14T10:31:18Z</time>
      </trkpt>
      <trkpt lat="44.20248" lon="3.20344">
        <ele>694</ele>
        <time>2015-10-14T10:33:18Z</time>
      </trkpt>
      <trkpt lat="44.20249" lon="3.2035">
        <ele>695</ele>
        <time>2015-10-14T10:35:18Z</time>
      </trkpt>
      <trkpt lat="44.20248" lon="3.20356">
        <ele>696</ele>
        <time>2015-10-14T10:37:18Z</time>
      </trkpt>
      <trkpt lat="44.20247" lon="3.20359">
        <ele>696</ele>
        <time>2015-10-14T10:39:18Z</time>
      </trkpt>
      <trkpt lat="44.20246" lon="3.20367">
        <ele>697</ele>
        <time>2015-10-14T10:41:18Z</time>
      </trkpt>
      <trkpt lat="44.20245" lon="3.2037">
        <ele>698</ele>
        <time>2015-10-14T10:43:18Z</time>
      </trkpt>
      <trkpt lat="44.20247" lon="3.20371">
        <ele>698</ele>
        <time>2015-10-14T10:45:18Z</time>
      </trkpt>
      <trkpt lat="44.20249" lon="3.20371">
        <ele>699</ele>
        <time>2015-10-14T10:47:18Z</time>
      </trkpt>
      <trkpt lat="44.20254" lon="3.20365">
        <ele>701</ele>
        <time>2015-10-14T10:49:18Z</time>
      </trkpt>
      <trkpt lat="44.20255" lon="3.20364">
        <ele>701</ele>
        <time>2015-10-14T10:51:18Z</time>
      </trkpt>
      <trkpt lat="44.20257" lon="3.20368">
        <ele>703</ele>
        <time>2015-10-14T10:53:18Z</time>
      </trkpt>
      <trkpt lat="44.20257" lon="3.20372">
        <ele>704</ele>
        <time>2015-10-14T10:55:18Z</time>
      </trkpt>
      <trkpt lat="44.20255" lon="3.20383">
        <ele>704</ele>
        <time>2015-10-14T10:57:18Z</time>
      </trkpt>
      <trkpt lat="44.20255" lon="3.20386">
        <ele>705</ele>
        <time>2015-10-14T10:59:18Z</time>
      </trkpt>
      <trkpt lat="44.20255" lon="3.20393">
        <ele>706</ele>
        <time>2015-10-14T11:01:18Z</time>
      </trkpt>
      <trkpt lat="44.20252" lon="3.20403">
        <ele>706</ele>
        <time>2015-10-14T11:03:18Z</time>
      </trkpt>
      <trkpt lat="44.20253" lon="3.20409">
        <ele>708</ele>
        <time>2015-10-14T11:05:18Z</time>
      </trkpt>
      <trkpt lat="44.20256" lon="3.20405">
        <ele>709</ele>
        <time>2015-10-14T11:07:18Z</time>
      </trkpt>
      <trkpt lat="44.20259" lon="3.20404">
        <ele>711</ele>
        <time>2015-10-14T11:09:18Z</time>
      </trkpt>
      <trkpt lat="44.20262" lon="3.20401">
        <ele>712</ele>
        <time>2015-10-14T11:11:18Z</time>
      </trkpt>
      <trkpt lat="44.20263" lon="3.20401">
        <ele>712</ele>
        <time>2015-10-14T11:13:18Z</time>
      </trkpt>
      <trkpt lat="44.20264" lon="3.20404">
        <ele>714</ele>
        <time>2015-10-14T11:15:18Z</time>
      </trkpt>
      <trkpt lat="44.20266" lon="3.20406">
        <ele>715</ele>
        <time>2015-10-14T11:17:18Z</time>
      </trkpt>
      <trkpt lat="44.20267" lon="3.20405">
        <ele>716</ele>
        <time>2015-10-14T11:19:18Z</time>
      </trkpt>
      <trkpt lat="44.20272" lon="3.20399">
        <ele>718</ele>
        <time>2015-10-14T11:21:18Z</time>
      </trkpt>
      <trkpt lat="44.20273" lon="3.20399">
        <ele>718</ele>
        <time>2015-10-14T11:23:18Z</time>
      </trkpt>
      <trkpt lat="44.20274" lon="3.20399">
        <ele>719</ele>
        <time>2015-10-14T11:25:18Z</time>
      </trkpt>
      <trkpt lat="44.20279" lon="3.20396">
        <ele>721</ele>
        <time>2015-10-14T11:27:18Z</time>
      </trkpt>
      <trkpt lat="44.20281" lon="3.20391">
        <ele>722</ele>
        <time>2015-10-14T11:29:18Z</time>
      </trkpt>
      <trkpt lat="44.20284" lon="3.20388">
        <ele>723</ele>
        <time>2015-10-14T11:31:18Z</time>
      </trkpt>
      <trkpt lat="44.20289" lon="3.20381">
        <ele>724</ele>
        <time>2015-10-14T11:33:18Z</time>
      </trkpt>
      <trkpt lat="44.2029" lon="3.2038">
        <ele>725</ele>
        <time>2015-10-14T11:35:18Z</time>
      </trkpt>
      <trkpt lat="44.20295" lon="3.20381">
        <ele>728</ele>
        <time>2015-10-14T11:37:18Z</time>
      </trkpt>
      <trkpt lat="44.20296" lon="3.20381">
        <ele>728</ele>
        <time>2015-10-14T11:39:18Z</time>
      </trkpt>
      <trkpt lat="44.203" lon="3.20372">
        <ele>729</ele>
        <time>2015-10-14T11:41:18Z</time>
      </trkpt>
      <trkpt lat="44.20306" lon="3.20367">
        <ele>731</ele>
        <time>2015-10-14T11:43:18Z</time>
      </trkpt>
      <trkpt lat="44.20309" lon="3.20367">
        <ele>733</ele>
        <time>2015-10-14T11:45:18Z</time>
      </trkpt>
      <trkpt lat="44.20308" lon="3.20374">
        <ele>734</ele>
        <time>2015-10-14T11:47:18Z</time>
      </trkpt>
      <trkpt lat="44.20308" lon="3.20378">
        <ele>735</ele>
        <time>2015-10-14T11:49:18Z</time>
      </trkpt>
      <trkpt lat="44.20312" lon="3.20378">
        <ele>737</ele>
        <time>2015-10-14T11:51:18Z</time>
      </trkpt>
      <trkpt lat="44.2032" lon="3.20366">
        <ele>739</ele>
        <time>2015-10-14T11:53:18Z</time>
      </trkpt>
      <trkpt lat="44.20323" lon="3.20365">
        <ele>740</ele>
        <time>2015-10-14T11:55:18Z</time>
      </trkpt>
      <trkpt lat="44.20323" lon="3.20369">
        <ele>741</ele>
        <time>2015-10-14T11:57:18Z</time>
      </trkpt>
      <trkpt lat="44.20325" lon="3.20371">
        <ele>743</ele>
        <time>2015-10-14T11:59:18Z</time>
      </trkpt>
      <trkpt lat="44.20329" lon="3.20363">
        <ele>743</ele>
        <time>2015-10-14T12:01:18Z</time>
      </trkpt>
      <trkpt lat="44.2033" lon="3.20361">
        <ele>743</ele>
        <time>2015-10-14T12:03:18Z</time>
      </trkpt>
      <trkpt lat="44.2033" lon="3.20356">
        <ele>742</ele>
        <time>2015-10-14T12:05:18Z</time>
      </trkpt>
      <trkpt lat="44.2033" lon="3.20348">
        <ele>739</ele>
        <time>2015-10-14T12:07:18Z</time>
      </trkpt>
      <trkpt lat="44.2033" lon="3.20346">
        <ele>739</ele>
        <time>2015-10-14T12:09:18Z</time>
      </trkpt>
      <trkpt lat="44.20332" lon="3.2034">
        <ele>738</ele>
        <time>2015-10-14T12:11:18Z</time>
      </trkpt>
      <trkpt lat="44.20332" lon="3.20326">
        <ele>735</ele>
        <time>2015-10-14T12:13:18Z</time>
      </trkpt>
      <trkpt lat="44.20334" lon="3.20314">
        <ele>735</ele>
        <time>2015-10-14T12:15:18Z</time>
      </trkpt>
      <trkpt lat="44.20332" lon="3.20305">
        <ele>733</ele>
        <time>2015-10-14T12:17:18Z</time>
      </trkpt>
      <trkpt lat="44.20334" lon="3.20301">
        <ele>733</ele>
        <time>2015-10-14T12:19:18Z</time>
      </trkpt>
      <trkpt lat="44.20336" lon="3.20297">
        <ele>734</ele>
        <time>2015-10-14T12:21:18Z</time>
      </trkpt>
      <trkpt lat="44.20341" lon="3.20295">
        <ele>736</ele>
        <time>2015-10-14T12:23:18Z</time>
      </trkpt>
      <trkpt lat="44.20343" lon="3.20298">
        <ele>737</ele>
        <time>2015-10-14T12:25:18Z</time>
      </trkpt>
      <trkpt lat="44.20342" lon="3.20304">
        <ele>738</ele>
        <time>2015-10-14T12:27:18Z</time>
      </trkpt>
      <trkpt lat="44.20347" lon="3.2031">
        <ele>741</ele>
        <time>2015-10-14T12:29:18Z</time>
      </trkpt>
      <trkpt lat="44.20352" lon="3.20308">
        <ele>743</ele>
        <time>2015-10-14T12:31:18Z</time>
      </trkpt>
      <trkpt lat="44.20353" lon="3.20312">
        <ele>744</ele>
        <time>2015-10-14T12:33:18Z</time>
      </trkpt>
      <trkpt lat="44.20352" lon="3.20314">
        <ele>744</ele>
        <time>2015-10-14T12:35:18Z</time>
      </trkpt>
      <trkpt lat="44.20353" lon="3.20326">
        <ele>746</ele>
        <time>2015-10-14T12:37:18Z</time>
      </trkpt>
      <trkpt lat="44.20356" lon="3.20333">
        <ele>748</ele>
        <time>2015-10-14T12:39:18Z</time>
      </trkpt>
      <trkpt lat="44.20356" lon="3.20334">
        <ele>748</ele>
        <time>2015-10-14T12:41:18Z</time>
      </trkpt>
      <trkpt lat="44.20358" lon="3.20335">
        <ele>749</ele>
        <time>2015-10-14T12:43:18Z</time>
      </trkpt>
      <trkpt lat="44.20358" lon="3.20335">
        <ele>749</ele>
        <time>2015-10-14T12:45:18Z</time>
      </trkpt>
      <trkpt lat="44.20359" lon="3.20334">
        <ele>750</ele>
        <time>2015-10-14T12:47:18Z</time>
      </trkpt>
      <trkpt lat="44.2036" lon="3.20331">
        <ele>750</ele>
        <time>2015-10-14T12:49:18Z</time>
      </trkpt>
      <trkpt lat="44.20364" lon="3.2033">
        <ele>751</ele>
        <time>2015-10-14T12:51:18Z</time>
      </trkpt>
      <trkpt lat="44.20369" lon="3.20326">
        <ele>753</ele>
        <time>2015-10-14T12:53:18Z</time>
      </trkpt>
      <trkpt lat="44.20372" lon="3.20323">
        <ele>754</ele>
        <time>2015-10-14T12:55:18Z</time>
      </trkpt>
      <trkpt lat="44.20378" lon="3.20323">
        <ele>757</ele>
        <time>2015-10-14T12:57:18Z</time>
      </trkpt>
      <trkpt lat="44.20382" lon="3.20325">
        <ele>759</ele>
        <time>2015-10-14T12:59:18Z</time>
      </trkpt>
      <trkpt lat="44.20378" lon="3.20332">
        <ele>758</ele>
        <time>2015-10-14T13:01:18Z</time>
      </trkpt>
      <trkpt lat="44.20379" lon="3.20341">
        <ele>761</ele>
        <time>2015-10-14T13:03:18Z</time>
      </trkpt>
      <trkpt lat="44.20379" lon="3.20342">
        <ele>762</ele>
        <time>2015-10-14T13:05:18Z</time>
      </trkpt>
      <trkpt lat="44.20381" lon="3.20343">
        <ele>763</ele>
        <time>2015-10-14T13:07:18Z</time>
      </trkpt>
      <trkpt lat="44.20385" lon="3.20342">
        <ele>765</ele>
        <time>2015-10-14T13:09:18Z</time>
      </trkpt>
      <trkpt lat="44.20389" lon="3.20341">
        <ele>766</ele>
        <time>2015-10-14T13:11:18Z</time>
      </trkpt>
      <trkpt lat="44.20393" lon="3.20338">
        <ele>767</ele>
        <time>2015-10-14T13:13:18Z</time>
      </trkpt>
      <trkpt lat="44.20402" lon="3.20335">
        <ele>771</ele>
        <time>2015-10-14T13:15:18Z</time>
      </trkpt>
      <trkpt lat="44.20408" lon="3.20333">
        <ele>773</ele>
        <time>2015-10-14T13:17:18Z</time>
      </trkpt>
      <trkpt lat="44.2041" lon="3.20336">
        <ele>775</ele>
        <time>2015-10-14T13:19:18Z</time>
      </trkpt>
      <trkpt lat="44.20414" lon="3.2034">
        <ele>778</ele>
        <time>2015-10-14T13:21:18Z</time>
      </trkpt>
      <trkpt lat="44.20419" lon="3.20339">
        <ele>780</ele>
        <time>2015-10-14T13:23:18Z</time>
      </trkpt>
      <trkpt lat="44.20424" lon="3.20341">
        <ele>784</ele>
        <time>2015-10-14T13:25:18Z</time>
      </trkpt>
      <trkpt lat="44.20426" lon="3.20344">
        <ele>786</ele>
        <time>2015-10-14T13:27:18Z</time>
      </trkpt>
      <trkpt lat="44.20429" lon="3.20345">
        <ele>787</ele>
        <time>2015-10-14T13:29:18Z</time>
      </trkpt>
      <trkpt lat="44.20434" lon="3.20346">
        <ele>790</ele>
        <time>2015-10-14T13:31:18Z</time>
      </trkpt>
      <trkpt lat="44.20437" lon="3.20342">
        <ele>791</ele>
        <time>2015-10-14T13:33:18Z</time>
      </trkpt>
      <trkpt lat="44.20438" lon="3.20342">
        <ele>791</ele>
        <time>2015-10-14T13:35:18Z</time>
      </trkpt>
      <trkpt lat="44.2044" lon="3.20339">
        <ele>791</ele>
        <time>2015-10-14T13:37:18Z</time>
      </trkpt>
      <trkpt lat="44.20444" lon="3.20331">
        <ele>791</ele>
        <time>2015-10-14T13:39:18Z</time>
      </trkpt>
      <trkpt lat="44.20448" lon="3.20326">
        <ele>793</ele>
        <time>2015-10-14T13:41:18Z</time>
      </trkpt>
      <trkpt lat="44.2045" lon="3.20327">
        <ele>794</ele>
        <time>2015-10-14T13:43:18Z</time>
      </trkpt>
      <trkpt lat="44.20451" lon="3.2033">
        <ele>795</ele>
        <time>2015-10-14T13:45:18Z</time>
      </trkpt>
      <trkpt lat="44.2045" lon="3.20333">
        <ele>795</ele>
        <time>2015-10-14T13:47:18Z</time>
      </trkpt>
      <trkpt lat="44.20449" lon="3.20342">
        <ele>797</ele>
        <time>2015-10-14T13:49:18Z</time>
      </trkpt>
      <trkpt lat="44.20449" lon="3.20346">
        <ele>798</ele>
        <time>2015-10-14T13:51:18Z</time>
      </trkpt>
      <trkpt lat="44.20459" lon="3.20337">
        <ele>801</ele>
        <time>2015-10-14T13:53:18Z</time>
      </trkpt>
      <trkpt lat="44.2046" lon="3.2034">
        <ele>802</ele>
        <time>2015-10-14T13:55:18Z</time>
      </trkpt>
      <trkpt lat="44.20459" lon="3.20343">
        <ele>803</ele>
        <time>2015-10-14T13:57:18Z</time>
      </trkpt>
      <trkpt lat="44.2046" lon="3.20347">
        <ele>804</ele>
        <time>2015-10-14T13:59:18Z</time>
      </trkpt>
      <trkpt lat="44.20463" lon="3.20342">
        <ele>804</ele>
        <time>2015-10-14T14:01:18Z</time>
      </trkpt>
      <trkpt lat="44.20467" lon="3.20338">
        <ele>805</ele>
        <time>2015-10-14T14:03:18Z</time>
      </trkpt>
      <trkpt lat="44.20468" lon="3.20342">
        <ele>807</ele>
        <time>2015-10-14T14:05:18Z</time>
      </trkpt>
      <trkpt lat="44.20469" lon="3.20349">
        <ele>809</ele>
        <time>2015-10-14T14:07:18Z</time>
      </trkpt>
      <trkpt lat="44.2047" lon="3.20353">
        <ele>811</ele>
        <time>2015-10-14T14:09:18Z</time>
      </trkpt>
      <trkpt lat="44.20471" lon="3.20351">
        <ele>811</ele>
        <time>2015-10-14T14:11:18Z</time>
      </trkpt>
      <trkpt lat="44.20474" lon="3.2035">
        <ele>812</ele>
        <time>2015-10-14T14:13:18Z</time>
      </trkpt>
      <trkpt lat="44.20474" lon="3.20356">
        <ele>814</ele>
        <time>2015-10-14T14:15:18Z</time>
      </trkpt>
      <trkpt lat="44.20476" lon="3.20354">
        <ele>814</ele>
        <time>2015-10-14T14:17:18Z</time>
      </trkpt>
      <trkpt lat="44.20478" lon="3.20349">
        <ele>814</ele>
        <time>2015-10-14T14:19:18Z</time>
      </trkpt>
      <trkpt lat="44.2048" lon="3.20345">
        <ele>814</ele>
        <time>2015-10-14T14:21:18Z</time>
      </trkpt>
      <trkpt lat="44.20481" lon="3.20351">
        <ele>816</ele>
        <time>2015-10-14T14:23:18Z</time>
      </trkpt>
      <trkpt lat="44.20482" lon="3.20354">
        <ele>817</ele>
        <time>2015-10-14T14:25:18Z</time>
      </trkpt>
      <trkpt lat="44.20483" lon="3.20357">
        <ele>819</ele>
        <time>2015-10-14T14:27:18Z</time>
      </trkpt>
      <trkpt lat="44.20485" lon="3.20352">
        <ele>818</ele>
        <time>2015-10-14T14:29:18Z</time>
      </trkpt>
      <trkpt lat="44.20488" lon="3.20354">
        <ele>820</ele>
        <time>2015-10-14T14:31:18Z</time>
      </trkpt>
      <trkpt lat="44.20487" lon="3.20359">
        <ele>821</ele>
        <time>2015-10-14T14:33:18Z</time>
      </trkpt>
      <trkpt lat="44.20487" lon="3.20367">
        <ele>823</ele>
        <time>2015-10-14T14:35:18Z</time>
      </trkpt>
      <trkpt lat="44.20491" lon="3.20366">
        <ele>825</ele>
        <time>2015-10-14T14:37:18Z</time>
      </trkpt>
      <trkpt lat="44.20495" lon="3.20364">
        <ele>826</ele>
        <time>2015-10-14T14:39:18Z</time>
      </trkpt>
      <trkpt lat="44.20496" lon="3.20363">
        <ele>826</ele>
        <time>2015-10-14T14:41:18Z</time>
      </trkpt>
      <trkpt lat="44.20498" lon="3.20364">
        <ele>828</ele>
        <time>2015-10-14T14:43:18Z</time>
      </trkpt>
      <trkpt lat="44.20501" lon="3.20372">
        <ele>831</ele>
        <time>2015-10-14T14:45:18Z</time>
      </trkpt>
      <trkpt lat="44.20505" lon="3.20369">
        <ele>832</ele>
        <time>2015-10-14T14:47:18Z</time>
      </trkpt>
      <trkpt lat="44.20504" lon="3.20375">
        <ele>833</ele>
        <time>2015-10-14T14:49:18Z</time>
      </trkpt>
      <trkpt lat="44.20507" lon="3.20378">
        <ele>834</ele>
        <time>2015-10-14T14:51:18Z</time>
      </trkpt>
      <trkpt lat="44.20511" lon="3.20373">
        <ele>835</ele>
        <time>2015-10-14T14:53:18Z</time>
      </trkpt>
      <trkpt lat="44.20513" lon="3.20365">
        <ele>834</ele>
        <time>2015-10-14T14:55:18Z</time>
      </trkpt>
      <trkpt lat="44.20515" lon="3.20359">
        <ele>834</ele>
        <time>2015-10-14T14:57:18Z</time>
      </trkpt>
      <trkpt lat="44.20518" lon="3.20346">
        <ele>832</ele>
        <time>2015-10-14T14:59:18Z</time>
      </trkpt>
      <trkpt lat="44.20519" lon="3.20325">
        <ele>829</ele>
        <time>2015-10-14T15:01:18Z</time>
      </trkpt>
      <trkpt lat="44.20521" lon="3.20321">
        <ele>830</ele>
        <time>2015-10-14T15:03:18Z</time>
      </trkpt>
      <trkpt lat="44.20519" lon="3.20314">
        <ele>828</ele>
        <time>2015-10-14T15:05:18Z</time>
      </trkpt>
      <trkpt lat="44.2052" lon="3.20308">
        <ele>828</ele>
        <time>2015-10-14T15:07:18Z</time>
      </trkpt>
      <trkpt lat="44.20524" lon="3.20307">
        <ele>830</ele>
        <time>2015-10-14T15:09:18Z</time>
      </trkpt>
      <trkpt lat="44.20526" lon="3.20305">
        <ele>830</ele>
        <time>2015-10-14T15:11:18Z</time>
      </trkpt>
      <trkpt lat="44.20533" lon="3.20301">
        <ele>833</ele>
        <time>2015-10-14T15:13:18Z</time>
      </trkpt>
      <trkpt lat="44.20541" lon="3.20291">
        <ele>835</ele>
        <time>2015-10-14T15:15:18Z</time>
      </trkpt>
      <trkpt lat="44.20546" lon="3.20287">
        <ele>836</ele>
        <time>2015-10-14T15:17:18Z</time>
      </trkpt>
      <trkpt lat="44.2055" lon="3.20284">
        <ele>837</ele>
        <time>2015-10-14T15:19:18Z</time>
      </trkpt>
      <trkpt lat="44.20556" lon="3.2029">
        <ele>840</ele>
        <time>2015-10-14T15:21:18Z</time>
      </trkpt>
      <trkpt lat="44.20563" lon="3.2029">
        <ele>843</ele>
        <time>2015-10-14T15:23:18Z</time>
      </trkpt>
      <trkpt lat="44.20568" lon="3.20289">
        <ele>845</ele>
        <time>2015-10-14T15:25:18Z</time>
      </trkpt>
      <trkpt lat="44.20574" lon="3.20293">
        <ele>848</ele>
        <time>2015-10-14T15:27:18Z</time>
      </trkpt>
      <trkpt lat="44.20576" lon="3.20295">
        <ele>849</ele>
        <time>2015-10-14T15:29:18Z</time>
      </trkpt>
      <trkpt lat="44.20582" lon="3.20299">
        <ele>852</ele>
        <time>2015-10-14T15:31:18Z</time>
      </trkpt>
      <trkpt lat="44.20584" lon="3.20305">
        <ele>853</ele>
        <time>2015-10-14T15:33:18Z</time>
      </trkpt>
      <trkpt lat="44.20584" lon="3.20306">
        <ele>853</ele>
        <time>2015-10-14T15:35:18Z</time>
      </trkpt>
      <trkpt lat="44.20589" lon="3.20314">
        <ele>855</ele>
        <time>2015-10-14T15:37:18Z</time>
      </trkpt>
      <trkpt lat="44.20597" lon="3.2032">
        <ele>857</ele>
        <time>2015-10-14T15:39:18Z</time>
      </trkpt>
      <trkpt lat="44.20599" lon="3.2032">
        <ele>858</ele>
        <time>2015-10-14T15:41:18Z</time>
      </trkpt>
      <trkpt lat="44.2061" lon="3.2032">
        <ele>859</ele>
        <time>2015-10-14T15:43:18Z</time>
      </trkpt>
      <trkpt lat="44.20618" lon="3.2032">
        <ele>861</ele>
        <time>2015-10-14T15:45:18Z</time>
      </trkpt>
      <trkpt lat="44.20625" lon="3.20319">
        <ele>862</ele>
        <time>2015-10-14T15:47:18Z</time>
      </trkpt>
      <trkpt lat="44.20629" lon="3.20315">
        <ele>861</ele>
        <time>2015-10-14T15:49:18Z</time>
      </trkpt>
      <trkpt lat="44.20636" lon="3.20313">
        <ele>862</ele>
        <time>2015-10-14T15:51:18Z</time>
      </trkpt>
      <trkpt lat="44.20647" lon="3.20316">
        <ele>864</ele>
        <time>2015-10-14T15:53:18Z</time>
      </trkpt>
      <trkpt lat="44.20655" lon="3.20322">
        <ele>867</ele>
        <time>2015-10-14T15:55:18Z</time>
      </trkpt>
      <trkpt lat="44.20657" lon="3.20323">
        <ele>867</ele>
        <time>2015-10-14T15:57:18Z</time>
      </trkpt>
      <trkpt lat="44.20666" lon="3.20324">
        <ele>869</ele>
        <time>2015-10-14T15:59:18Z</time>
      </trkpt>
      <trkpt lat="44.20672" lon="3.20321">
        <ele>869</ele>
        <time>2015-10-14T16:01:18Z</time>
      </trkpt>
      <trkpt lat="44.20678" lon="3.20314">
        <ele>868</ele>
        <time>2015-10-14T16:03:18Z</time>
      </trkpt>
      <trkpt lat="44.20689" lon="3.20322">
        <ele>870</ele>
        <time>2015-10-14T16:05:18Z</time>
      </trkpt>
      <trkpt lat="44.20695" lon="3.20328">
        <ele>872</ele>
        <time>2015-10-14T16:07:18Z</time>
      </trkpt>
      <trkpt lat="44.207" lon="3.20326">
        <ele>872</ele>
        <time>2015-10-14T16:09:18Z</time>
      </trkpt>
      <trkpt lat="44.2071" lon="3.20315">
        <ele>870</ele>
        <time>2015-10-14T16:11:18Z</time>
      </trkpt>
      <trkpt lat="44.20718" lon="3.20307">
        <ele>869</ele>
        <time>2015-10-14T16:13:18Z</time>
      </trkpt>
      <trkpt lat="44.20728" lon="3.20304">
        <ele>869</ele>
        <time>2015-10-14T16:15:18Z</time>
      </trkpt>
      <trkpt lat="44.20731" lon="3.20303">
        <ele>869</ele>
        <time>2015-10-14T16:17:18Z</time>
      </trkpt>
      <trkpt lat="44.20744" lon="3.20292">
        <ele>868</ele>
        <time>2015-10-14T16:19:18Z</time>
      </trkpt>
      <trkpt lat="44.20753" lon="3.20296">
        <ele>870</ele>
        <time>2015-10-14T16:21:18Z</time>
      </trkpt>
      <trkpt lat="44.20759" lon="3.203">
        <ele>871</ele>
        <time>2015-10-14T16:23:18Z</time>
      </trkpt>
      <trkpt lat="44.20767" lon="3.20307">
        <ele>873</ele>
        <time>2015-10-14T16:25:18Z</time>
      </trkpt>
      <trkpt lat="44.20777" lon="3.20311">
        <ele>875</ele>
        <time>2015-10-14T16:27:18Z</time>
      </trkpt>
      <trkpt lat="44.20787" lon="3.20311">
        <ele>875</ele>
        <time>2015-10-14T16:29:18Z</time>
      </trkpt>
      <trkpt lat="44.20797" lon="3.20309">
        <ele>876</ele>
        <time>2015-10-14T16:31:18Z</time>
      </trkpt>
      <trkpt lat="44.20806" lon="3.20308">
        <ele>876</ele>
        <time>2015-10-14T16:33:18Z</time>
      </trkpt>
      <trkpt lat="44.20819" lon="3.20308">
        <ele>877</ele>
        <time>2015-10-14T16:35:18Z</time>
      </trkpt>
      <trkpt lat="44.20821" lon="3.20307">
        <ele>877</ele>
        <time>2015-10-14T16:37:18Z</time>
      </trkpt>
      <trkpt lat="44.20833" lon="3.20303">
        <ele>877</ele>
        <time>2015-10-14T16:39:18Z</time>
      </trkpt>
      <trkpt lat="44.2084" lon="3.20304">
        <ele>878</ele>
        <time>2015-10-14T16:41:18Z</time>
      </trkpt>
      <trkpt lat="44.20852" lon="3.20299">
        <ele>879</ele>
        <time>2015-10-14T16:43:18Z</time>
      </trkpt>
      <trkpt lat="44.20856" lon="3.20299">
        <ele>879</ele>
        <time>2015-10-14T16:45:18Z</time>
      </trkpt>
      <trkpt lat="44.20868" lon="3.20299">
        <ele>881</ele>
        <time>2015-10-14T16:47:18Z</time>
      </trkpt>
      <trkpt lat="44.20878" lon="3.203">
        <ele>882</ele>
        <time>2015-10-14T16:49:18Z</time>
      </trkpt>
      <trkpt lat="44.20886" lon="3.20297">
        <ele>883</ele>
        <time>2015-10-14T16:51:18Z</time>
      </trkpt>
      <trkpt lat="44.20897" lon="3.203">
        <ele>884</ele>
        <time>2015-10-14T16:53:18Z</time>
      </trkpt>
      <trkpt lat="44.20908" lon="3.20304">
        <ele>886</ele>
        <time>2015-10-14T16:55:18Z</time>
      </trkpt>
      <trkpt lat="44.20909" lon="3.20305">
        <ele>887</ele>
        <time>2015-10-14T16:57:18Z</time>
      </trkpt>
      <trkpt lat="44.20923" lon="3.20306">
        <ele>888</ele>
        <time>2015-10-14T16:59:18Z</time>
      </trkpt>
      <trkpt lat="44.20935" lon="3.20308">
        <ele>889</ele>
        <time>2015-10-14T17:01:18Z</time>
      </trkpt>
      <trkpt lat="44.20947" lon="3.20307">
        <ele>890</ele>
        <time>2015-10-14T17:03:18Z</time>
      </trkpt>
      <trkpt lat="44.20955" lon="3.20307">
        <ele>890</ele>
        <time>2015-10-14T17:05:18Z</time>
      </trkpt>
      <trkpt lat="44.20966" lon="3.20312">
        <ele>892</ele>
        <time>2015-10-14T17:07:18Z</time>
      </trkpt>
      <trkpt lat="44.20974" lon="3.20321">
        <ele>893</ele>
        <time>2015-10-14T17:09:18Z</time>
      </trkpt>
      <trkpt lat="44.20986" lon="3.20322">
        <ele>894</ele>
        <time>2015-10-14T17:11:18Z</time>
      </trkpt>
      <trkpt lat="44.20993" lon="3.20324">
        <ele>894</ele>
        <time>2015-10-14T17:13:18Z</time>
      </trkpt>
      <trkpt lat="44.20997" lon="3.20325">
        <ele>894</ele>
        <time>2015-10-14T17:15:18Z</time>
      </trkpt>
      <trkpt lat="44.21005" lon="3.20333">
        <ele>895</ele>
        <time>2015-10-14T17:17:18Z</time>
      </trkpt>
      <trkpt lat="44.21013" lon="3.20338">
        <ele>896</ele>
        <time>2015-10-14T17:19:18Z</time>
      </trkpt>
      <trkpt lat="44.21023" lon="3.20348">
        <ele>898</ele>
        <time>2015-10-14T17:21:18Z</time>
      </trkpt>
      <trkpt lat="44.21032" lon="3.20358">
        <ele>899</ele>
        <time>2015-10-14T17:23:18Z</time>
      </trkpt>
      <trkpt lat="44.2104" lon="3.20366">
        <ele>900</ele>
        <time>2015-10-14T17:25:18Z</time>
      </trkpt>
      <trkpt lat="44.21048" lon="3.20375">
        <ele>900</ele>
        <time>2015-10-14T17:27:18Z</time>
      </trkpt>
      <trkpt lat="44.21049" lon="3.20377">
        <ele>901</ele>
        <time>2015-10-14T17:29:18Z</time>
      </trkpt>
      <trkpt lat="44.21059" lon="3.20385">
        <ele>901</ele>
        <time>2015-10-14T17:31:18Z</time>
      </trkpt>
      <trkpt lat="44.21066" lon="3.20393">
        <ele>902</ele>
        <time>2015-10-14T17:33:18Z</time>
      </trkpt>
      <trkpt lat="44.21075" lon="3.20402">
        <ele>902</ele>
        <time>2015-10-14T17:35:18Z</time>
      </trkpt>
      <trkpt lat="44.21085" lon="3.20409">
        <ele>903</ele>
        <time>2015-10-14T17:37:18Z</time>
      </trkpt>
      <trkpt lat="44.21092" lon="3.20414">
        <ele>904</ele>
        <time>2015-10-14T17:39:18Z</time>
      </trkpt>
      <trkpt lat="44.21102" lon="3.20421">
        <ele>905</ele>
        <time>2015-10-14T17:41:18Z</time>
      </trkpt>
      <trkpt lat="44.21111" lon="3.20421">
        <ele>906</ele>
        <time>2015-10-14T17:43:18Z</time>
      </trkpt>
      <trkpt lat="44.21118" lon="3.20422">
        <ele>906</ele>
        <time>2015-10-14T17:45:18Z</time>
      </trkpt>
      <trkpt lat="44.21131" lon="3.20418">
        <ele>908</ele>
        <time>2015-10-14T17:47:18Z</time>
      </trkpt>
      <trkpt lat="44.21142" lon="3.20415">
        <ele>909</ele>
        <time>2015-10-14T17:49:18Z</time>
      </trkpt>
      <trkpt lat="44.21153" lon="3.20403">
        <ele>910</ele>
        <time>2015-10-14T17:51:18Z</time>
      </trkpt>
      <trkpt lat="44.21163" lon="3.20395">
        <ele>911</ele>
        <time>2015-10-14T17:53:18Z</time>
      </trkpt>
      <trkpt lat="44.21173" lon="3.20389">
        <ele>911</ele>
        <time>2015-10-14T17:55:18Z</time>
      </trkpt>
      <trkpt lat="44.21182" lon="3.20386">
        <ele>912</ele>
        <time>2015-10-14T17:57:18Z</time>
      </trkpt>
      <trkpt lat="44.21192" lon="3.20387">
        <ele>913</ele>
        <time>2015-10-14T17:59:18Z</time>
      </trkpt>
      <trkpt lat="44.21204" lon="3.20391">
        <ele>914</ele>
        <time>2015-10-14T18:01:18Z</time>
      </trkpt>
      <trkpt lat="44.21207" lon="3.20395">
        <ele>914</ele>
        <time>2015-10-14T18:03:18Z</time>
      </trkpt>
      <trkpt lat="44.21216" lon="3.20408">
        <ele>915</ele>
        <time>2015-10-14T18:05:18Z</time>
      </trkpt>
      <trkpt lat="44.21227" lon="3.20419">
        <ele>915</ele>
        <time>2015-10-14T18:07:18Z</time>
      </trkpt>
      <trkpt lat="44.21235" lon="3.20435">
        <ele>915</ele>
        <time>2015-10-14T18:09:18Z</time>
      </trkpt>
      <trkpt lat="44.21239" lon="3.20451">
        <ele>914</ele>
        <time>2015-10-14T18:11:18Z</time>
      </trkpt>
      <trkpt lat="44.21243" lon="3.20472">
        <ele>913</ele>
        <time>2015-10-14T18:13:18Z</time>
      </trkpt>
      <trkpt lat="44.21246" lon="3.20489">
        <ele>912</ele>
        <time>2015-10-14T18:15:18Z</time>
      </trkpt>
      <trkpt lat="44.21254" lon="3.20504">
        <ele>911</ele>
        <time>2015-10-14T18:17:18Z</time>
      </trkpt>
      <trkpt lat="44.21261" lon="3.20518">
        <ele>910</ele>
        <time>2015-10-14T18:19:18Z</time>
      </trkpt>
      <trkpt lat="44.21267" lon="3.20538">
        <ele>908</ele>
        <time>2015-10-14T18:21:18Z</time>
      </trkpt>
      <trkpt lat="44.21276" lon="3.20549">
        <ele>907</ele>
        <time>2015-10-14T18:23:18Z</time>
      </trkpt>
      <trkpt lat="44.21286" lon="3.20555">
        <ele>906</ele>
        <time>2015-10-14T18:25:18Z</time>
      </trkpt>
      <trkpt lat="44.21297" lon="3.20561">
        <ele>906</ele>
        <time>2015-10-14T18:27:18Z</time>
      </trkpt>
      <trkpt lat="44.21311" lon="3.2057">
        <ele>905</ele>
        <time>2015-10-14T18:29:18Z</time>
      </trkpt>
      <trkpt lat="44.21319" lon="3.20575">
        <ele>905</ele>
        <time>2015-10-14T18:31:18Z</time>
      </trkpt>
      <trkpt lat="44.21331" lon="3.20581">
        <ele>905</ele>
        <time>2015-10-14T18:33:18Z</time>
      </trkpt>
      <trkpt lat="44.21343" lon="3.20586">
        <ele>905</ele>
        <time>2015-10-14T18:35:18Z</time>
      </trkpt>
      <trkpt lat="44.21354" lon="3.20592">
        <ele>905</ele>
        <time>2015-10-14T18:37:18Z</time>
      </trkpt>
      <trkpt lat="44.2137" lon="3.20603">
        <ele>905</ele>
        <time>2015-10-14T18:39:18Z</time>
      </trkpt>
      <trkpt lat="44.21383" lon="3.2061">
        <ele>905</ele>
        <time>2015-10-14T18:41:18Z</time>
      </trkpt>
      <trkpt lat="44.21397" lon="3.20611">
        <ele>906</ele>
        <time>2015-10-14T18:43:18Z</time>
      </trkpt>
      <trkpt lat="44.21411" lon="3.20617">
        <ele>906</ele>
        <time>2015-10-14T18:45:18Z</time>
      </trkpt>
      <trkpt lat="44.21421" lon="3.20625">
        <ele>906</ele>
        <time>2015-10-14T18:47:18Z</time>
      </trkpt>
      <trkpt lat="44.2143" lon="3.2063">
        <ele>906</ele>
        <time>2015-10-14T18:49:18Z</time>
      </trkpt>
      <trkpt lat="44.21442" lon="3.20634">
        <ele>906</ele>
        <time>2015-10-14T18:51:18Z</time>
      </trkpt>
      <trkpt lat="44.21454" lon="3.20639">
        <ele>907</ele>
        <time>2015-10-14T18:53:18Z</time>
      </trkpt>
      <trkpt lat="44.21464" lon="3.20646">
        <ele>907</ele>
        <time>2015-10-14T18:55:18Z</time>
      </trkpt>
      <trkpt lat="44.21475" lon="3.2065">
        <ele>908</ele>
        <time>2015-10-14T18:57:18Z</time>
      </trkpt>
      <trkpt lat="44.21485" lon="3.20655">
        <ele>908</ele>
        <time>2015-10-14T18:59:18Z</time>
      </trkpt>
      <trkpt lat="44.21494" lon="3.20661">
        <ele>909</ele>
        <time>2015-10-14T19:01:18Z</time>
      </trkpt>
      <trkpt lat="44.21505" lon="3.2067">
        <ele>909</ele>
        <time>2015-10-14T19:03:18Z</time>
      </trkpt>
      <trkpt lat="44.21517" lon="3.20674">
        <ele>909</ele>
        <time>2015-10-14T19:05:18Z</time>
      </trkpt>
      <trkpt lat="44.21542" lon="3.20681">
        <ele>909</ele>
        <time>2015-10-14T19:07:18Z</time>
      </trkpt>
      <trkpt lat="44.21553" lon="3.2068">
        <ele>910</ele>
        <time>2015-10-14T19:09:18Z</time>
      </trkpt>
      <trkpt lat="44.21563" lon="3.20682">
        <ele>910</ele>
        <time>2015-10-14T19:11:18Z</time>
      </trkpt>
      <trkpt lat="44.21575" lon="3.2069">
        <ele>910</ele>
        <time>2015-10-14T19:13:18Z</time>
      </trkpt>
      <trkpt lat="44.21586" lon="3.20704">
        <ele>909</ele>
        <time>2015-10-14T19:15:18Z</time>
      </trkpt>
      <trkpt lat="44.21596" lon="3.20721">
        <ele>908</ele>
        <time>2015-10-14T19:17:18Z</time>
      </trkpt>
      <trkpt lat="44.21607" lon="3.20736">
        <ele>907</ele>
        <time>2015-10-14T19:19:18Z</time>
      </trkpt>
      <trkpt lat="44.21618" lon="3.20746">
        <ele>907</ele>
        <time>2015-10-14T19:21:18Z</time>
      </trkpt>
      <trkpt lat="44.21632" lon="3.20753">
        <ele>907</ele>
        <time>2015-10-14T19:23:18Z</time>
      </trkpt>
      <trkpt lat="44.21643" lon="3.20762">
        <ele>906</ele>
        <time>2015-10-14T19:25:18Z</time>
      </trkpt>
      <trkpt lat="44.21655" lon="3.20774">
        <ele>905</ele>
        <time>2015-10-14T19:27:18Z</time>
      </trkpt>
      <trkpt lat="44.21669" lon="3.20787">
        <ele>903</ele>
        <time>2015-10-14T19:29:18Z</time>
      </trkpt>
      <trkpt lat="44.21681" lon="3.20796">
        <ele>902</ele>
        <time>2015-10-14T19:31:18Z</time>
      </trkpt>
      <trkpt lat="44.21691" lon="3.20805">
        <ele>901</ele>
        <time>2015-10-14T19:33:18Z</time>
      </trkpt>
      <trkpt lat="44.21704" lon="3.20816">
        <ele>900</ele>
        <time>2015-10-14T19:35:18Z</time>
      </trkpt>
      <trkpt lat="44.21714" lon="3.20827">
        <ele>898</ele>
        <time>2015-10-14T19:37:18Z</time>
      </trkpt>
      <trkpt lat="44.21728" lon="3.20839">
        <ele>897</ele>
        <time>2015-10-14T19:39:18Z</time>
      </trkpt>
      <trkpt lat="44.21741" lon="3.20844">
        <ele>897</ele>
        <time>2015-10-14T19:41:18Z</time>
      </trkpt>
      <trkpt lat="44.21753" lon="3.20845">
        <ele>897</ele>
        <time>2015-10-14T19:43:18Z</time>
      </trkpt>
      <trkpt lat="44.21759" lon="3.20846">
        <ele>897</ele>
        <time>2015-10-14T19:45:18Z</time>
      </trkpt>
      <trkpt lat="44.2177" lon="3.20849">
        <ele>897</ele>
        <time>2015-10-14T19:47:18Z</time>
      </trkpt>
      <trkpt lat="44.21782" lon="3.20863">
        <ele>895</ele>
        <time>2015-10-14T19:49:18Z</time>
      </trkpt>
      <trkpt lat="44.21798" lon="3.2087">
        <ele>894</ele>
        <time>2015-10-14T19:51:18Z</time>
      </trkpt>
      <trkpt lat="44.21803" lon="3.20872">
        <ele>894</ele>
        <time>2015-10-14T19:53:18Z</time>
      </trkpt>
      <trkpt lat="44.21812" lon="3.20876">
        <ele>894</ele>
        <time>2015-10-14T19:55:18Z</time>
      </trkpt>
      <trkpt lat="44.21822" lon="3.20883">
        <ele>894</ele>
        <time>2015-10-14T19:57:18Z</time>
      </trkpt>
      <trkpt lat="44.21829" lon="3.20894">
        <ele>893</ele>
        <time>2015-10-14T19:59:18Z</time>
      </trkpt>
      <trkpt lat="44.21837" lon="3.20908">
        <ele>892</ele>
        <time>2015-10-14T20:01:18Z</time>
      </trkpt>
      <trkpt lat="44.21844" lon="3.20923">
        <ele>891</ele>
        <time>2015-10-14T20:03:18Z</time>
      </trkpt>
      <trkpt lat="44.2185" lon="3.2093">
        <ele>890</ele>
        <time>2015-10-14T20:05:18Z</time>
      </trkpt>
      <trkpt lat="44.21857" lon="3.20935">
        <ele>890</ele>
        <time>2015-10-14T20:07:18Z</time>
      </trkpt>
      <trkpt lat="44.21863" lon="3.20946">
        <ele>889</ele>
        <time>2015-10-14T20:09:18Z</time>
      </trkpt>
      <trkpt lat="44.21866" lon="3.20951">
        <ele>888</ele>
        <time>2015-10-14T20:11:18Z</time>
      </trkpt>
      <trkpt lat="44.21864" lon="3.20964">
        <ele>886</ele>
        <time>2015-10-14T20:13:18Z</time>
      </trkpt>
      <trkpt lat="44.21861" lon="3.2097">
        <ele>885</ele>
        <time>2015-10-14T20:15:18Z</time>
      </trkpt>
      <trkpt lat="44.21853" lon="3.20982">
        <ele>884</ele>
        <time>2015-10-14T20:17:18Z</time>
      </trkpt>
      <trkpt lat="44.2185" lon="3.20997">
        <ele>882</ele>
        <time>2015-10-14T20:19:18Z</time>
      </trkpt>
      <trkpt lat="44.21848" lon="3.20999">
        <ele>882</ele>
        <time>2015-10-14T20:21:18Z</time>
      </trkpt>
      <trkpt lat="44.21835" lon="3.21017">
        <ele>882</ele>
        <time>2015-10-14T20:23:18Z</time>
      </trkpt>
      <trkpt lat="44.21829" lon="3.21035">
        <ele>880</ele>
        <time>2015-10-14T20:25:18Z</time>
      </trkpt>
      <trkpt lat="44.21821" lon="3.21048">
        <ele>878</ele>
        <time>2015-10-14T20:27:18Z</time>
      </trkpt>
      <trkpt lat="44.21812" lon="3.21058">
        <ele>876</ele>
        <time>2015-10-14T20:29:18Z</time>
      </trkpt>
      <trkpt lat="44.21801" lon="3.21071">
        <ele>873</ele>
        <time>2015-10-14T20:31:18Z</time>
      </trkpt>
      <trkpt lat="44.21792" lon="3.21086">
        <ele>871</ele>
        <time>2015-10-14T20:33:18Z</time>
      </trkpt>
      <trkpt lat="44.21779" lon="3.21096">
        <ele>867</ele>
        <time>2015-10-14T20:35:18Z</time>
      </trkpt>
      <trkpt lat="44.21775" lon="3.21098">
        <ele>866</ele>
        <time>2015-10-14T20:37:18Z</time>
      </trkpt>
      <trkpt lat="44.21761" lon="3.21111">
        <ele>863</ele>
        <time>2015-10-14T20:39:18Z</time>
      </trkpt>
      <trkpt lat="44.21749" lon="3.2112">
        <ele>860</ele>
        <time>2015-10-14T20:41:18Z</time>
      </trkpt>
      <trkpt lat="44.21744" lon="3.21125">
        <ele>859</ele>
        <time>2015-10-14T20:43:18Z</time>
      </trkpt>
      <trkpt lat="44.21736" lon="3.21126">
        <ele>857</ele>
        <time>2015-10-14T20:45:18Z</time>
      </trkpt>
      <trkpt lat="44.21723" lon="3.21131">
        <ele>855</ele>
        <time>2015-10-14T20:47:18Z</time>
      </trkpt>
      <trkpt lat="44.21714" lon="3.21136">
        <ele>853</ele>
        <time>2015-10-14T20:49:18Z</time>
      </trkpt>
      <trkpt lat="44.21709" lon="3.21139">
        <ele>853</ele>
        <time>2015-10-14T20:51:18Z</time>
      </trkpt>
      <trkpt lat="44.21702" lon="3.21146">
        <ele>851</ele>
        <time>2015-10-14T20:53:18Z</time>
      </trkpt>
      <trkpt lat="44.21693" lon="3.21151">
        <ele>850</ele>
        <time>2015-10-14T20:55:18Z</time>
      </trkpt>
      <trkpt lat="44.21683" lon="3.21154">
        <ele>849</ele>
        <time>2015-10-14T20:57:18Z</time>
      </trkpt>
      <trkpt lat="44.21674" lon="3.21154">
        <ele>848</ele>
        <time>2015-10-14T20:59:18Z</time>
      </trkpt>
      <trkpt lat="44.21662" lon="3.21152">
        <ele>846</ele>
        <time>2015-10-14T21:01:18Z</time>
      </trkpt>
      <trkpt lat="44.21649" lon="3.21153">
        <ele>845</ele>
        <time>2015-10-14T21:03:18Z</time>
      </trkpt>
      <trkpt lat="44.2164" lon="3.21158">
        <ele>844</ele>
        <time>2015-10-14T21:05:18Z</time>
      </trkpt>
      <trkpt lat="44.21628" lon="3.21163">
        <ele>842</ele>
        <time>2015-10-14T21:07:18Z</time>
      </trkpt>
      <trkpt lat="44.21624" lon="3.21168">
        <ele>842</ele>
        <time>2015-10-14T21:09:18Z</time>
      </trkpt>
      <trkpt lat="44.21612" lon="3.21172">
        <ele>840</ele>
        <time>2015-10-14T21:11:18Z</time>
      </trkpt>
      <trkpt lat="44.21599" lon="3.21177">
        <ele>838</ele>
        <time>2015-10-14T21:13:18Z</time>
      </trkpt>
      <trkpt lat="44.21589" lon="3.21184">
        <ele>837</ele>
        <time>2015-10-14T21:15:18Z</time>
      </trkpt>
      <trkpt lat="44.2158" lon="3.21188">
        <ele>836</ele>
        <time>2015-10-14T21:17:18Z</time>
      </trkpt>
      <trkpt lat="44.21567" lon="3.21193">
        <ele>833</ele>
        <time>2015-10-14T21:19:18Z</time>
      </trkpt>
      <trkpt lat="44.21553" lon="3.21201">
        <ele>831</ele>
        <time>2015-10-14T21:21:18Z</time>
      </trkpt>
      <trkpt lat="44.21542" lon="3.21211">
        <ele>829</ele>
        <time>2015-10-14T21:23:18Z</time>
      </trkpt>
      <trkpt lat="44.21533" lon="3.2122">
        <ele>829</ele>
        <time>2015-10-14T21:25:18Z</time>
      </trkpt>
      <trkpt lat="44.21522" lon="3.21232">
        <ele>828</ele>
        <time>2015-10-14T21:27:18Z</time>
      </trkpt>
      <trkpt lat="44.21515" lon="3.21251">
        <ele>830</ele>
        <time>2015-10-14T21:29:18Z</time>
      </trkpt>
      <trkpt lat="44.21501" lon="3.21286">
        <ele>829</ele>
        <time>2015-10-14T21:31:18Z</time>
      </trkpt>
      <trkpt lat="44.21494" lon="3.21301">
        <ele>828</ele>
        <time>2015-10-14T21:33:18Z</time>
      </trkpt>
      <trkpt lat="44.21489" lon="3.21318">
        <ele>828</ele>
        <time>2015-10-14T21:35:18Z</time>
      </trkpt>
      <trkpt lat="44.21485" lon="3.2133">
        <ele>828</ele>
        <time>2015-10-14T21:37:18Z</time>
      </trkpt>
      <trkpt lat="44.21482" lon="3.21348">
        <ele>827</ele>
        <time>2015-10-14T21:39:18Z</time>
      </trkpt>
      <trkpt lat="44.21477" lon="3.21364">
        <ele>827</ele>
        <time>2015-10-14T21:41:18Z</time>
      </trkpt>
      <trkpt lat="44.2147" lon="3.21378">
        <ele>826</ele>
        <time>2015-10-14T21:43:18Z</time>
      </trkpt>
      <trkpt lat="44.21461" lon="3.2139">
        <ele>825</ele>
        <time>2015-10-14T21:45:18Z</time>
      </trkpt>
      <trkpt lat="44.21456" lon="3.21402">
        <ele>825</ele>
        <time>2015-10-14T21:47:18Z</time>
      </trkpt>
      <trkpt lat="44.21458" lon="3.21416">
        <ele>825</ele>
        <time>2015-10-14T21:49:18Z</time>
      </trkpt>
      <trkpt lat="44.21462" lon="3.21433">
        <ele>823</ele>
        <time>2015-10-14T21:51:18Z</time>
      </trkpt>
      <trkpt lat="44.21458" lon="3.21446">
        <ele>820</ele>
        <time>2015-10-14T21:53:18Z</time>
      </trkpt>
      <trkpt lat="44.21449" lon="3.21443">
        <ele>820</ele>
        <time>2015-10-14T21:55:18Z</time>
      </trkpt>
      <trkpt lat="44.21441" lon="3.21437">
        <ele>821</ele>
        <time>2015-10-14T21:57:18Z</time>
      </trkpt>
      <trkpt lat="44.21441" lon="3.21439">
        <ele>821</ele>
        <time>2015-10-14T21:59:18Z</time>
      </trkpt>
      <trkpt lat="44.21442" lon="3.21451">
        <ele>818</ele>
        <time>2015-10-14T22:01:18Z</time>
      </trkpt>
      <trkpt lat="44.21444" lon="3.21462">
        <ele>816</ele>
        <time>2015-10-14T22:03:18Z</time>
      </trkpt>
      <trkpt lat="44.21448" lon="3.2147">
        <ele>815</ele>
        <time>2015-10-14T22:05:18Z</time>
      </trkpt>
      <trkpt lat="44.21455" lon="3.21478">
        <ele>814</ele>
        <time>2015-10-14T22:07:18Z</time>
      </trkpt>
      <trkpt lat="44.2146" lon="3.21481">
        <ele>814</ele>
        <time>2015-10-14T22:09:18Z</time>
      </trkpt>
      <trkpt lat="44.21466" lon="3.21493">
        <ele>812</ele>
        <time>2015-10-14T22:11:18Z</time>
      </trkpt>
      <trkpt lat="44.21468" lon="3.21494">
        <ele>812</ele>
        <time>2015-10-14T22:13:18Z</time>
      </trkpt>
      <trkpt lat="44.21476" lon="3.21505">
        <ele>810</ele>
        <time>2015-10-14T22:15:18Z</time>
      </trkpt>
      <trkpt lat="44.21479" lon="3.2151">
        <ele>809</ele>
        <time>2015-10-14T22:17:18Z</time>
      </trkpt>
      <trkpt lat="44.2148" lon="3.21518">
        <ele>806</ele>
        <time>2015-10-14T22:19:18Z</time>
      </trkpt>
      <trkpt lat="44.21488" lon="3.21529">
        <ele>803</ele>
        <time>2015-10-14T22:21:18Z</time>
      </trkpt>
      <trkpt lat="44.21493" lon="3.21532">
        <ele>803</ele>
        <time>2015-10-14T22:23:18Z</time>
      </trkpt>
      <trkpt lat="44.21497" lon="3.21534">
        <ele>803</ele>
        <time>2015-10-14T22:25:18Z</time>
      </trkpt>
      <trkpt lat="44.21501" lon="3.21539">
        <ele>801</ele>
        <time>2015-10-14T22:27:18Z</time>
      </trkpt>
      <trkpt lat="44.215" lon="3.21542">
        <ele>800</ele>
        <time>2015-10-14T22:29:18Z</time>
      </trkpt>
      <trkpt lat="44.21498" lon="3.21541">
        <ele>800</ele>
        <time>2015-10-14T22:31:18Z</time>
      </trkpt>
      <trkpt lat="44.21488" lon="3.21543">
        <ele>798</ele>
        <time>2015-10-14T22:33:18Z</time>
      </trkpt>
      <trkpt lat="44.2148" lon="3.21545">
        <ele>796</ele>
        <time>2015-10-14T22:35:18Z</time>
      </trkpt>
      <trkpt lat="44.2148" lon="3.21551">
        <ele>793</ele>
        <time>2015-10-14T22:37:18Z</time>
      </trkpt>
      <trkpt lat="44.21488" lon="3.21562">
        <ele>791</ele>
        <time>2015-10-14T22:39:18Z</time>
      </trkpt>
      <trkpt lat="44.21486" lon="3.21562">
        <ele>790</ele>
        <time>2015-10-14T22:41:18Z</time>
      </trkpt>
      <trkpt lat="44.21476" lon="3.21558">
        <ele>790</ele>
        <time>2015-10-14T22:43:18Z</time>
      </trkpt>
      <trkpt lat="44.21473" lon="3.21556">
        <ele>790</ele>
        <time>2015-10-14T22:45:18Z</time>
      </trkpt>
      <trkpt lat="44.2146" lon="3.21551">
        <ele>790</ele>
        <time>2015-10-14T22:47:18Z</time>
      </trkpt>
      <trkpt lat="44.21451" lon="3.21545">
        <ele>790</ele>
        <time>2015-10-14T22:49:18Z</time>
      </trkpt>
      <trkpt lat="44.21444" lon="3.21538">
        <ele>792</ele>
        <time>2015-10-14T22:51:18Z</time>
      </trkpt>
      <trkpt lat="44.21439" lon="3.21532">
        <ele>794</ele>
        <time>2015-10-14T22:53:18Z</time>
      </trkpt>
      <trkpt lat="44.21436" lon="3.21529">
        <ele>795</ele>
        <time>2015-10-14T22:55:18Z</time>
      </trkpt>
      <trkpt lat="44.21433" lon="3.21526">
        <ele>795</ele>
        <time>2015-10-14T22:57:18Z</time>
      </trkpt>
      <trkpt lat="44.21418" lon="3.21531">
        <ele>791</ele>
        <time>2015-10-14T22:59:18Z</time>
      </trkpt>
      <trkpt lat="44.21408" lon="3.21531">
        <ele>788</ele>
        <time>2015-10-14T23:01:18Z</time>
      </trkpt>
      <trkpt lat="44.21398" lon="3.21535">
        <ele>783</ele>
        <time>2015-10-14T23:03:18Z</time>
      </trkpt>
      <trkpt lat="44.21383" lon="3.21536">
        <ele>778</ele>
        <time>2015-10-14T23:05:18Z</time>
      </trkpt>
      <trkpt lat="44.21368" lon="3.21538">
        <ele>772</ele>
        <time>2015-10-14T23:07:18Z</time>
      </trkpt>
      <trkpt lat="44.21365" lon="3.21537">
        <ele>772</ele>
        <time>2015-10-14T23:09:18Z</time>
      </trkpt>
      <trkpt lat="44.21357" lon="3.21538">
        <ele>769</ele>
        <time>2015-10-14T23:11:18Z</time>
      </trkpt>
      <trkpt lat="44.21345" lon="3.21532">
        <ele>767</ele>
        <time>2015-10-14T23:13:18Z</time>
      </trkpt>
      <trkpt lat="44.21337" lon="3.21534">
        <ele>764</ele>
        <time>2015-10-14T23:15:18Z</time>
      </trkpt>
      <trkpt lat="44.21333" lon="3.21537">
        <ele>762</ele>
        <time>2015-10-14T23:17:18Z</time>
      </trkpt>
      <trkpt lat="44.21325" lon="3.21526">
        <ele>761</ele>
        <time>2015-10-14T23:19:18Z</time>
      </trkpt>
      <trkpt lat="44.21324" lon="3.21524">
        <ele>761</ele>
        <time>2015-10-14T23:21:18Z</time>
      </trkpt>
      <trkpt lat="44.2132" lon="3.21531">
        <ele>758</ele>
        <time>2015-10-14T23:23:18Z</time>
      </trkpt>
      <trkpt lat="44.21319" lon="3.21541">
        <ele>756</ele>
        <time>2015-10-14T23:25:18Z</time>
      </trkpt>
      <trkpt lat="44.21315" lon="3.2155">
        <ele>753</ele>
        <time>2015-10-14T23:27:18Z</time>
      </trkpt>
      <trkpt lat="44.21315" lon="3.21551">
        <ele>753</ele>
        <time>2015-10-14T23:29:18Z</time>
      </trkpt>
      <trkpt lat="44.21309" lon="3.21559">
        <ele>750</ele>
        <time>2015-10-14T23:31:18Z</time>
      </trkpt>
      <trkpt lat="44.21308" lon="3.21561">
        <ele>750</ele>
        <time>2015-10-14T23:33:18Z</time>
      </trkpt>
      <trkpt lat="44.21301" lon="3.21556">
        <ele>749</ele>
        <time>2015-10-14T23:35:18Z</time>
      </trkpt>
      <trkpt lat="44.21298" lon="3.21551">
        <ele>748</ele>
        <time>2015-10-14T23:37:18Z</time>
      </trkpt>
      <trkpt lat="44.21297" lon="3.21544">
        <ele>749</ele>
        <time>2015-10-14T23:39:18Z</time>
      </trkpt>
      <trkpt lat="44.21297" lon="3.21531">
        <ele>750</ele>
        <time>2015-10-14T23:41:18Z</time>
      </trkpt>
      <trkpt lat="44.21297" lon="3.21523">
        <ele>750</ele>
        <time>2015-10-14T23:43:18Z</time>
      </trkpt>
      <trkpt lat="44.21293" lon="3.21518">
        <ele>749</ele>
        <time>2015-10-14T23:45:18Z</time>
      </trkpt>
      <trkpt lat="44.21292" lon="3.21523">
        <ele>748</ele>
        <time>2015-10-14T23:47:18Z</time>
      </trkpt>
      <trkpt lat="44.21287" lon="3.21534">
        <ele>746</ele>
        <time>2015-10-14T23:49:18Z</time>
      </trkpt>
      <trkpt lat="44.21281" lon="3.21541">
        <ele>744</ele>
        <time>2015-10-14T23:51:18Z</time>
      </trkpt>
      <trkpt lat="44.21277" lon="3.21543">
        <ele>742</ele>
        <time>2015-10-14T23:53:18Z</time>
      </trkpt>
      <trkpt lat="44.2127" lon="3.21544">
        <ele>740</ele>
        <time>2015-10-14T23:55:18Z</time>
      </trkpt>
      <trkpt lat="44.21267" lon="3.21545">
        <ele>739</ele>
        <time>2015-10-14T23:57:18Z</time>
      </trkpt>
      <trkpt lat="44.21262" lon="3.21538">
        <ele>737</ele>
        <time>2015-10-14T23:59:18Z</time>
      </trkpt>
      <trkpt lat="44.2126" lon="3.21527">
        <ele>735</ele>
        <time>2015-10-15T00:01:18Z</time>
      </trkpt>
      <trkpt lat="44.21257" lon="3.21514">
        <ele>732</ele>
        <time>2015-10-15T00:03:18Z</time>
      </trkpt>
      <trkpt lat="44.21257" lon="3.21509">
        <ele>731</ele>
        <time>2015-10-15T00:05:18Z</time>
      </trkpt>
      <trkpt lat="44.21257" lon="3.21515">
        <ele>732</ele>
        <time>2015-10-15T00:07:18Z</time>
      </trkpt>
      <trkpt lat="44.21253" lon="3.21506">
        <ele>729</ele>
        <time>2015-10-15T00:09:18Z</time>
      </trkpt>
      <trkpt lat="44.21241" lon="3.21505">
        <ele>721</ele>
        <time>2015-10-15T00:11:18Z</time>
      </trkpt>
      <trkpt lat="44.21236" lon="3.215">
        <ele>716</ele>
        <time>2015-10-15T00:13:18Z</time>
      </trkpt>
      <trkpt lat="44.21236" lon="3.2149">
        <ele>717</ele>
        <time>2015-10-15T00:15:18Z</time>
      </trkpt>
      <trkpt lat="44.21232" lon="3.21494">
        <ele>714</ele>
        <time>2015-10-15T00:17:18Z</time>
      </trkpt>
      <trkpt lat="44.21235" lon="3.215">
        <ele>716</ele>
        <time>2015-10-15T00:19:18Z</time>
      </trkpt>
      <trkpt lat="44.21236" lon="3.21502">
        <ele>717</ele>
        <time>2015-10-15T00:21:18Z</time>
      </trkpt>
      <trkpt lat="44.21239" lon="3.21512">
        <ele>721</ele>
        <time>2015-10-15T00:23:18Z</time>
      </trkpt>
      <trkpt lat="44.21235" lon="3.21511">
        <ele>718</ele>
        <time>2015-10-15T00:25:18Z</time>
      </trkpt>
      <trkpt lat="44.21228" lon="3.21509">
        <ele>713</ele>
        <time>2015-10-15T00:27:18Z</time>
      </trkpt>
      <trkpt lat="44.21231" lon="3.21513">
        <ele>716</ele>
        <time>2015-10-15T00:29:18Z</time>
      </trkpt>
      <trkpt lat="44.21233" lon="3.21519">
        <ele>718</ele>
        <time>2015-10-15T00:31:18Z</time>
      </trkpt>
      <trkpt lat="44.21233" lon="3.21522">
        <ele>719</ele>
        <time>2015-10-15T00:33:18Z</time>
      </trkpt>
      <trkpt lat="44.21227" lon="3.21524">
        <ele>716</ele>
        <time>2015-10-15T00:35:18Z</time>
      </trkpt>
      <trkpt lat="44.21223" lon="3.21521">
        <ele>712</ele>
        <time>2015-10-15T00:37:18Z</time>
      </trkpt>
      <trkpt lat="44.21216" lon="3.2152">
        <ele>708</ele>
        <time>2015-10-15T00:39:18Z</time>
      </trkpt>
      <trkpt lat="44.21213" lon="3.21517">
        <ele>705</ele>
        <time>2015-10-15T00:41:18Z</time>
      </trkpt>
      <trkpt lat="44.21208" lon="3.21515">
        <ele>701</ele>
        <time>2015-10-15T00:43:18Z</time>
      </trkpt>
      <trkpt lat="44.21214" lon="3.21524">
        <ele>707</ele>
        <time>2015-10-15T00:45:18Z</time>
      </trkpt>
      <trkpt lat="44.21212" lon="3.2153">
        <ele>708</ele>
        <time>2015-10-15T00:47:18Z</time>
      </trkpt>
      <trkpt lat="44.21204" lon="3.21532">
        <ele>703</ele>
        <time>2015-10-15T00:49:18Z</time>
      </trkpt>
      <trkpt lat="44.21201" lon="3.2153">
        <ele>701</ele>
        <time>2015-10-15T00:51:18Z</time>
      </trkpt>
      <trkpt lat="44.21195" lon="3.21528">
        <ele>696</ele>
        <time>2015-10-15T00:53:18Z</time>
      </trkpt>
      <trkpt lat="44.21183" lon="3.21522">
        <ele>687</ele>
        <time>2015-10-15T00:55:18Z</time>
      </trkpt>
      <trkpt lat="44.21176" lon="3.2151">
        <ele>679</ele>
        <time>2015-10-15T00:57:18Z</time>
      </trkpt>
      <trkpt lat="44.21178" lon="3.21511">
        <ele>680</ele>
        <time>2015-10-15T00:59:18Z</time>
      </trkpt>
      <trkpt lat="44.21179" lon="3.21513">
        <ele>682</ele>
        <time>2015-10-15T01:01:18Z</time>
      </trkpt>
      <trkpt lat="44.21178" lon="3.21527">
        <ele>685</ele>
        <time>2015-10-15T01:03:18Z</time>
      </trkpt>
      <trkpt lat="44.21174" lon="3.21534">
        <ele>685</ele>
        <time>2015-10-15T01:05:18Z</time>
      </trkpt>
      <trkpt lat="44.21172" lon="3.21535">
        <ele>684</ele>
        <time>2015-10-15T01:07:18Z</time>
      </trkpt>
      <trkpt lat="44.21169" lon="3.21531">
        <ele>681</ele>
        <time>2015-10-15T01:09:18Z</time>
      </trkpt>
      <trkpt lat="44.21167" lon="3.21531">
        <ele>680</ele>
        <time>2015-10-15T01:11:18Z</time>
      </trkpt>
      <trkpt lat="44.21161" lon="3.21533">
        <ele>676</ele>
        <time>2015-10-15T01:13:18Z</time>
      </trkpt>
      <trkpt lat="44.21154" lon="3.21529">
        <ele>670</ele>
        <time>2015-10-15T01:15:18Z</time>
      </trkpt>
      <trkpt lat="44.21148" lon="3.21534">
        <ele>668</ele>
        <time>2015-10-15T01:17:18Z</time>
      </trkpt>
      <trkpt lat="44.21138" lon="3.21532">
        <ele>660</ele>
        <time>2015-10-15T01:19:18Z</time>
      </trkpt>
      <trkpt lat="44.21132" lon="3.21531">
        <ele>656</ele>
        <time>2015-10-15T01:21:18Z</time>
      </trkpt>
      <trkpt lat="44.21132" lon="3.21524">
        <ele>654</ele>
        <time>2015-10-15T01:23:18Z</time>
      </trkpt>
      <trkpt lat="44.21133" lon="3.21517">
        <ele>652</ele>
        <time>2015-10-15T01:25:18Z</time>
      </trkpt>
      <trkpt lat="44.21134" lon="3.21509">
        <ele>651</ele>
        <time>2015-10-15T01:27:18Z</time>
      </trkpt>
      <trkpt lat="44.21137" lon="3.21495">
        <ele>650</ele>
        <time>2015-10-15T01:29:18Z</time>
      </trkpt>
      <trkpt lat="44.2114" lon="3.21487">
        <ele>653</ele>
        <time>2015-10-15T01:31:18Z</time>
      </trkpt>
      <trkpt lat="44.2114" lon="3.21479">
        <ele>654</ele>
        <time>2015-10-15T01:33:18Z</time>
      </trkpt>
      <trkpt lat="44.21139" lon="3.21476">
        <ele>653</ele>
        <time>2015-10-15T01:35:18Z</time>
      </trkpt>
      <trkpt lat="44.21143" lon="3.21491">
        <ele>655</ele>
        <time>2015-10-15T01:37:18Z</time>
      </trkpt>
      <trkpt lat="44.21146" lon="3.21494">
        <ele>656</ele>
        <time>2015-10-15T01:39:18Z</time>
      </trkpt>
      <trkpt lat="44.21146" lon="3.21493">
        <ele>656</ele>
        <time>2015-10-15T01:41:18Z</time>
      </trkpt>
      <trkpt lat="44.21144" lon="3.21492">
        <ele>655</ele>
        <time>2015-10-15T01:43:18Z</time>
      </trkpt>
      <trkpt lat="44.21143" lon="3.21493">
        <ele>654</ele>
        <time>2015-10-15T01:45:18Z</time>
      </trkpt>
      <trkpt lat="44.21141" lon="3.21508">
        <ele>655</ele>
        <time>2015-10-15T01:47:18Z</time>
      </trkpt>
      <trkpt lat="44.21137" lon="3.21522">
        <ele>657</ele>
        <time>2015-10-15T01:49:18Z</time>
      </trkpt>
      <trkpt lat="44.21131" lon="3.21528">
        <ele>654</ele>
        <time>2015-10-15T01:51:18Z</time>
      </trkpt>
      <trkpt lat="44.21128" lon="3.21537">
        <ele>655</ele>
        <time>2015-10-15T01:53:18Z</time>
      </trkpt>
      <trkpt lat="44.21124" lon="3.21546">
        <ele>655</ele>
        <time>2015-10-15T01:55:18Z</time>
      </trkpt>
      <trkpt lat="44.2112" lon="3.21551">
        <ele>653</ele>
        <time>2015-10-15T01:57:18Z</time>
      </trkpt>
      <trkpt lat="44.21115" lon="3.21558">
        <ele>652</ele>
        <time>2015-10-15T01:59:18Z</time>
      </trkpt>
      <trkpt lat="44.21106" lon="3.21562">
        <ele>647</ele>
        <time>2015-10-15T02:01:18Z</time>
      </trkpt>
      <trkpt lat="44.21105" lon="3.21563">
        <ele>646</ele>
        <time>2015-10-15T02:03:18Z</time>
      </trkpt>
      <trkpt lat="44.21107" lon="3.21554">
        <ele>645</ele>
        <time>2015-10-15T02:05:18Z</time>
      </trkpt>
      <trkpt lat="44.2111" lon="3.21546">
        <ele>645</ele>
        <time>2015-10-15T02:07:18Z</time>
      </trkpt>
      <trkpt lat="44.21112" lon="3.21536">
        <ele>644</ele>
        <time>2015-10-15T02:09:18Z</time>
      </trkpt>
      <trkpt lat="44.21116" lon="3.21526">
        <ele>644</ele>
        <time>2015-10-15T02:11:18Z</time>
      </trkpt>
      <trkpt lat="44.21117" lon="3.21525">
        <ele>644</ele>
        <time>2015-10-15T02:13:18Z</time>
      </trkpt>
      <trkpt lat="44.21118" lon="3.2152">
        <ele>643</ele>
        <time>2015-10-15T02:15:18Z</time>
      </trkpt>
      <trkpt lat="44.21121" lon="3.21508">
        <ele>642</ele>
        <time>2015-10-15T02:17:18Z</time>
      </trkpt>
      <trkpt lat="44.21123" lon="3.21498">
        <ele>641</ele>
        <time>2015-10-15T02:19:18Z</time>
      </trkpt>
      <trkpt lat="44.21119" lon="3.21478">
        <ele>640</ele>
        <time>2015-10-15T02:21:18Z</time>
      </trkpt>
      <trkpt lat="44.21111" lon="3.2147">
        <ele>635</ele>
        <time>2015-10-15T02:23:18Z</time>
      </trkpt>
      <trkpt lat="44.21105" lon="3.21456">
        <ele>633</ele>
        <time>2015-10-15T02:25:18Z</time>
      </trkpt>
      <trkpt lat="44.21102" lon="3.2144">
        <ele>632</ele>
        <time>2015-10-15T02:27:18Z</time>
      </trkpt>
      <trkpt lat="44.21111" lon="3.21405">
        <ele>642</ele>
        <time>2015-10-15T02:29:18Z</time>
      </trkpt>
      <trkpt lat="44.21112" lon="3.21403">
        <ele>643</ele>
        <time>2015-10-15T02:31:18Z</time>
      </trkpt>
      <trkpt lat="44.21112" lon="3.21386">
        <ele>645</ele>
        <time>2015-10-15T02:33:18Z</time>
      </trkpt>
      <trkpt lat="44.21111" lon="3.21375">
        <ele>646</ele>
        <time>2015-10-15T02:35:18Z</time>
      </trkpt>
      <trkpt lat="44.21105" lon="3.21352">
        <ele>646</ele>
        <time>2015-10-15T02:37:18Z</time>
      </trkpt>
      <trkpt lat="44.21099" lon="3.21337">
        <ele>645</ele>
        <time>2015-10-15T02:39:18Z</time>
      </trkpt>
      <trkpt lat="44.21091" lon="3.21325">
        <ele>644</ele>
        <time>2015-10-15T02:41:18Z</time>
      </trkpt>
      <trkpt lat="44.21082" lon="3.21318">
        <ele>641</ele>
        <time>2015-10-15T02:43:18Z</time>
      </trkpt>
      <trkpt lat="44.21069" lon="3.21313">
        <ele>639</ele>
        <time>2015-10-15T02:45:18Z</time>
      </trkpt>
      <trkpt lat="44.21054" lon="3.21306">
        <ele>637</ele>
        <time>2015-10-15T02:47:18Z</time>
      </trkpt>
      <trkpt lat="44.21041" lon="3.21306">
        <ele>633</ele>
        <time>2015-10-15T02:49:18Z</time>
      </trkpt>
      <trkpt lat="44.21031" lon="3.21305">
        <ele>630</ele>
        <time>2015-10-15T02:51:18Z</time>
      </trkpt>
      <trkpt lat="44.2102" lon="3.21305">
        <ele>627</ele>
        <time>2015-10-15T02:53:18Z</time>
      </trkpt>
      <trkpt lat="44.21012" lon="3.21304">
        <ele>625</ele>
        <time>2015-10-15T02:55:18Z</time>
      </trkpt>
      <trkpt lat="44.21" lon="3.21294">
        <ele>626</ele>
        <time>2015-10-15T02:57:18Z</time>
      </trkpt>
      <trkpt lat="44.20987" lon="3.21286">
        <ele>626</ele>
        <time>2015-10-15T02:59:18Z</time>
      </trkpt>
      <trkpt lat="44.20975" lon="3.21284">
        <ele>624</ele>
        <time>2015-10-15T03:01:18Z</time>
      </trkpt>
      <trkpt lat="44.20962" lon="3.21276">
        <ele>625</ele>
        <time>2015-10-15T03:03:18Z</time>
      </trkpt>
      <trkpt lat="44.20952" lon="3.21268">
        <ele>626</ele>
        <time>2015-10-15T03:05:18Z</time>
      </trkpt>
      <trkpt lat="44.20944" lon="3.2126">
        <ele>628</ele>
        <time>2015-10-15T03:07:18Z</time>
      </trkpt>
      <trkpt lat="44.2094" lon="3.21255">
        <ele>630</ele>
        <time>2015-10-15T03:09:18Z</time>
      </trkpt>
      <trkpt lat="44.2093" lon="3.2125">
        <ele>630</ele>
        <time>2015-10-15T03:11:18Z</time>
      </trkpt>
      <trkpt lat="44.20922" lon="3.2125">
        <ele>628</ele>
        <time>2015-10-15T03:13:18Z</time>
      </trkpt>
      <trkpt lat="44.20898" lon="3.21247">
        <ele>621</ele>
        <time>2015-10-15T03:15:18Z</time>
      </trkpt>
      <trkpt lat="44.20889" lon="3.21247">
        <ele>617</ele>
        <time>2015-10-15T03:17:18Z</time>
      </trkpt>
      <trkpt lat="44.20876" lon="3.21249">
        <ele>612</ele>
        <time>2015-10-15T03:19:18Z</time>
      </trkpt>
      <trkpt lat="44.20861" lon="3.21247">
        <ele>607</ele>
        <time>2015-10-15T03:21:18Z</time>
      </trkpt>
      <trkpt lat="44.20857" lon="3.21244">
        <ele>606</ele>
        <time>2015-10-15T03:23:18Z</time>
      </trkpt>
      <trkpt lat="44.20854" lon="3.21229">
        <ele>606</ele>
        <time>2015-10-15T03:25:18Z</time>
      </trkpt>
      <trkpt lat="44.2085" lon="3.21207">
        <ele>607</ele>
        <time>2015-10-15T03:27:18Z</time>
      </trkpt>
      <trkpt lat="44.20852" lon="3.21192">
        <ele>610</ele>
        <time>2015-10-15T03:29:18Z</time>
      </trkpt>
      <trkpt lat="44.20854" lon="3.21182">
        <ele>613</ele>
        <time>2015-10-15T03:31:18Z</time>
      </trkpt>
      <trkpt lat="44.20856" lon="3.2117">
        <ele>615</ele>
        <time>2015-10-15T03:33:18Z</time>
      </trkpt>
      <trkpt lat="44.20861" lon="3.21147">
        <ele>620</ele>
        <time>2015-10-15T03:35:18Z</time>
      </trkpt>
      <trkpt lat="44.20862" lon="3.21127">
        <ele>622</ele>
        <time>2015-10-15T03:37:18Z</time>
      </trkpt>
      <trkpt lat="44.20863" lon="3.2112">
        <ele>623</ele>
        <time>2015-10-15T03:39:18Z</time>
      </trkpt>
      <trkpt lat="44.20864" lon="3.21097">
        <ele>625</ele>
        <time>2015-10-15T03:41:18Z</time>
      </trkpt>
      <trkpt lat="44.20865" lon="3.21093">
        <ele>626</ele>
        <time>2015-10-15T03:43:18Z</time>
      </trkpt>
      <trkpt lat="44.20857" lon="3.21078">
        <ele>623</ele>
        <time>2015-10-15T03:45:18Z</time>
      </trkpt>
      <trkpt lat="44.20854" lon="3.21074">
        <ele>623</ele>
        <time>2015-10-15T03:47:18Z</time>
      </trkpt>
      <trkpt lat="44.20839" lon="3.21067">
        <ele>618</ele>
        <time>2015-10-15T03:49:18Z</time>
      </trkpt>
      <trkpt lat="44.20831" lon="3.21059">
        <ele>617</ele>
        <time>2015-10-15T03:51:18Z</time>
      </trkpt>
      <trkpt lat="44.20817" lon="3.21051">
        <ele>616</ele>
        <time>2015-10-15T03:53:18Z</time>
      </trkpt>
      <trkpt lat="44.20807" lon="3.2105">
        <ele>613</ele>
        <time>2015-10-15T03:55:18Z</time>
      </trkpt>
      <trkpt lat="44.20794" lon="3.21045">
        <ele>611</ele>
        <time>2015-10-15T03:57:18Z</time>
      </trkpt>
      <trkpt lat="44.20783" lon="3.21037">
        <ele>611</ele>
        <time>2015-10-15T03:59:18Z</time>
      </trkpt>
      <trkpt lat="44.20773" lon="3.21027">
        <ele>611</ele>
        <time>2015-10-15T04:01:18Z</time>
      </trkpt>
      <trkpt lat="44.20762" lon="3.21013">
        <ele>613</ele>
        <time>2015-10-15T04:03:18Z</time>
      </trkpt>
      <trkpt lat="44.20752" lon="3.21003">
        <ele>614</ele>
        <time>2015-10-15T04:05:18Z</time>
      </trkpt>
      <trkpt lat="44.20745" lon="3.21001">
        <ele>615</ele>
        <time>2015-10-15T04:07:18Z</time>
      </trkpt>
      <trkpt lat="44.20735" lon="3.21009">
        <ele>613</ele>
        <time>2015-10-15T04:09:18Z</time>
      </trkpt>
      <trkpt lat="44.20722" lon="3.21022">
        <ele>610</ele>
        <time>2015-10-15T04:11:18Z</time>
      </trkpt>
      <trkpt lat="44.20711" lon="3.21028">
        <ele>610</ele>
        <time>2015-10-15T04:13:18Z</time>
      </trkpt>
      <trkpt lat="44.20687" lon="3.21046">
        <ele>607</ele>
        <time>2015-10-15T04:15:18Z</time>
      </trkpt>
      <trkpt lat="44.20676" lon="3.21052">
        <ele>606</ele>
        <time>2015-10-15T04:17:18Z</time>
      </trkpt>
      <trkpt lat="44.20665" lon="3.21055">
        <ele>607</ele>
        <time>2015-10-15T04:19:18Z</time>
      </trkpt>
      <trkpt lat="44.20653" lon="3.21068">
        <ele>608</ele>
        <time>2015-10-15T04:21:18Z</time>
      </trkpt>
      <trkpt lat="44.20648" lon="3.21074">
        <ele>608</ele>
        <time>2015-10-15T04:23:18Z</time>
      </trkpt>
      <trkpt lat="44.20627" lon="3.21103">
        <ele>603</ele>
        <time>2015-10-15T04:25:18Z</time>
      </trkpt>
      <trkpt lat="44.20616" lon="3.21114">
        <ele>602</ele>
        <time>2015-10-15T04:27:18Z</time>
      </trkpt>
      <trkpt lat="44.20606" lon="3.21124">
        <ele>601</ele>
        <time>2015-10-15T04:29:18Z</time>
      </trkpt>
      <trkpt lat="44.20597" lon="3.21133">
        <ele>600</ele>
        <time>2015-10-15T04:31:18Z</time>
      </trkpt>
      <trkpt lat="44.20588" lon="3.21143">
        <ele>598</ele>
        <time>2015-10-15T04:33:18Z</time>
      </trkpt>
      <trkpt lat="44.20577" lon="3.21158">
        <ele>594</ele>
        <time>2015-10-15T04:35:18Z</time>
      </trkpt>
      <trkpt lat="44.20563" lon="3.21171">
        <ele>593</ele>
        <time>2015-10-15T04:37:18Z</time>
      </trkpt>
      <trkpt lat="44.20548" lon="3.21177">
        <ele>596</ele>
        <time>2015-10-15T04:39:18Z</time>
      </trkpt>
      <trkpt lat="44.2054" lon="3.21182">
        <ele>597</ele>
        <time>2015-10-15T04:41:18Z</time>
      </trkpt>
      <trkpt lat="44.20529" lon="3.21194">
        <ele>596</ele>
        <time>2015-10-15T04:43:18Z</time>
      </trkpt>
      <trkpt lat="44.20521" lon="3.21204">
        <ele>595</ele>
        <time>2015-10-15T04:45:18Z</time>
      </trkpt>
      <trkpt lat="44.20511" lon="3.2122">
        <ele>592</ele>
        <time>2015-10-15T04:47:18Z</time>
      </trkpt>
      <trkpt lat="44.20503" lon="3.21234">
        <ele>589</ele>
        <time>2015-10-15T04:49:18Z</time>
      </trkpt>
      <trkpt lat="44.20494" lon="3.21247">
        <ele>585</ele>
        <time>2015-10-15T04:51:18Z</time>
      </trkpt>
      <trkpt lat="44.20482" lon="3.2126">
        <ele>580</ele>
        <time>2015-10-15T04:53:18Z</time>
      </trkpt>
      <trkpt lat="44.20472" lon="3.21263">
        <ele>579</ele>
        <time>2015-10-15T04:55:18Z</time>
      </trkpt>
      <trkpt lat="44.20455" lon="3.2127">
        <ele>575</ele>
        <time>2015-10-15T04:57:18Z</time>
      </trkpt>
      <trkpt lat="44.20442" lon="3.21273">
        <ele>574</ele>
        <time>2015-10-15T04:59:18Z</time>
      </trkpt>
      <trkpt lat="44.20428" lon="3.21268">
        <ele>576</ele>
        <time>2015-10-15T05:01:18Z</time>
      </trkpt>
      <trkpt lat="44.20419" lon="3.2126">
        <ele>580</ele>
        <time>2015-10-15T05:03:18Z</time>
      </trkpt>
      <trkpt lat="44.20408" lon="3.21253">
        <ele>580</ele>
        <time>2015-10-15T05:05:18Z</time>
      </trkpt>
      <trkpt lat="44.20395" lon="3.21245">
        <ele>580</ele>
        <time>2015-10-15T05:07:18Z</time>
      </trkpt>
      <trkpt lat="44.20385" lon="3.21238">
        <ele>581</ele>
        <time>2015-10-15T05:09:18Z</time>
      </trkpt>
      <trkpt lat="44.2038" lon="3.21237">
        <ele>580</ele>
        <time>2015-10-15T05:11:18Z</time>
      </trkpt>
      <trkpt lat="44.20373" lon="3.21232">
        <ele>580</ele>
        <time>2015-10-15T05:13:18Z</time>
      </trkpt>
      <trkpt lat="44.20357" lon="3.21229">
        <ele>576</ele>
        <time>2015-10-15T05:15:18Z</time>
      </trkpt>
      <trkpt lat="44.20346" lon="3.21221">
        <ele>576</ele>
        <time>2015-10-15T05:17:18Z</time>
      </trkpt>
      <trkpt lat="44.20342" lon="3.21219">
        <ele>576</ele>
        <time>2015-10-15T05:19:18Z</time>
      </trkpt>
      <trkpt lat="44.20331" lon="3.21212">
        <ele>575</ele>
        <time>2015-10-15T05:21:18Z</time>
      </trkpt>
      <trkpt lat="44.20326" lon="3.2121">
        <ele>574</ele>
        <time>2015-10-15T05:23:18Z</time>
      </trkpt>
      <trkpt lat="44.20314" lon="3.21203">
        <ele>571</ele>
        <time>2015-10-15T05:25:18Z</time>
      </trkpt>
      <trkpt lat="44.203" lon="3.21194">
        <ele>568</ele>
        <time>2015-10-15T05:27:18Z</time>
      </trkpt>
      <trkpt lat="44.20298" lon="3.21193">
        <ele>567</ele>
        <time>2015-10-15T05:29:18Z</time>
      </trkpt>
      <trkpt lat="44.20292" lon="3.21182">
        <ele>567</ele>
        <time>2015-10-15T05:31:18Z</time>
      </trkpt>
      <trkpt lat="44.20286" lon="3.21171">
        <ele>567</ele>
        <time>2015-10-15T05:33:18Z</time>
      </trkpt>
      <trkpt lat="44.20284" lon="3.21158">
        <ele>569</ele>
        <time>2015-10-15T05:35:18Z</time>
      </trkpt>
      <trkpt lat="44.20283" lon="3.21139">
        <ele>572</ele>
        <time>2015-10-15T05:37:18Z</time>
      </trkpt>
      <trkpt lat="44.20283" lon="3.21123">
        <ele>575</ele>
        <time>2015-10-15T05:39:18Z</time>
      </trkpt>
      <trkpt lat="44.20285" lon="3.21103">
        <ele>580</ele>
        <time>2015-10-15T05:41:18Z</time>
      </trkpt>
      <trkpt lat="44.20285" lon="3.21086">
        <ele>584</ele>
        <time>2015-10-15T05:43:18Z</time>
      </trkpt>
      <trkpt lat="44.20284" lon="3.21072">
        <ele>587</ele>
        <time>2015-10-15T05:45:18Z</time>
      </trkpt>
      <trkpt lat="44.20274" lon="3.21067">
        <ele>584</ele>
        <time>2015-10-15T05:47:18Z</time>
      </trkpt>
      <trkpt lat="44.20262" lon="3.21059">
        <ele>581</ele>
        <time>2015-10-15T05:49:18Z</time>
      </trkpt>
      <trkpt lat="44.20251" lon="3.21053">
        <ele>578</ele>
        <time>2015-10-15T05:51:18Z</time>
      </trkpt>
      <trkpt lat="44.2024" lon="3.21046">
        <ele>578</ele>
        <time>2015-10-15T05:53:18Z</time>
      </trkpt>
      <trkpt lat="44.20228" lon="3.21046">
        <ele>574</ele>
        <time>2015-10-15T05:55:18Z</time>
      </trkpt>
      <trkpt lat="44.20217" lon="3.21039">
        <ele>574</ele>
        <time>2015-10-15T05:57:18Z</time>
      </trkpt>
      <trkpt lat="44.20206" lon="3.21032">
        <ele>573</ele>
        <time>2015-10-15T05:59:18Z</time>
      </trkpt>
      <trkpt lat="44.20192" lon="3.21025">
        <ele>572</ele>
        <time>2015-10-15T06:01:18Z</time>
      </trkpt>
      <trkpt lat="44.20183" lon="3.21018">
        <ele>573</ele>
        <time>2015-10-15T06:03:18Z</time>
      </trkpt>
      <trkpt lat="44.20174" lon="3.21008">
        <ele>574</ele>
        <time>2015-10-15T06:05:18Z</time>
      </trkpt>
      <trkpt lat="44.20163" lon="3.21004">
        <ele>574</ele>
        <time>2015-10-15T06:07:18Z</time>
      </trkpt>
      <trkpt lat="44.20143" lon="3.20991">
        <ele>578</ele>
        <time>2015-10-15T06:09:18Z</time>
      </trkpt>
      <trkpt lat="44.20138" lon="3.20991">
        <ele>577</ele>
        <time>2015-10-15T06:11:18Z</time>
      </trkpt>
      <trkpt lat="44.20126" lon="3.20992">
        <ele>576</ele>
        <time>2015-10-15T06:13:18Z</time>
      </trkpt>
      <trkpt lat="44.20123" lon="3.20993">
        <ele>575</ele>
        <time>2015-10-15T06:15:18Z</time>
      </trkpt>
      <trkpt lat="44.20111" lon="3.20995">
        <ele>573</ele>
        <time>2015-10-15T06:17:18Z</time>
      </trkpt>
      <trkpt lat="44.201" lon="3.20995">
        <ele>572</ele>
        <time>2015-10-15T06:19:18Z</time>
      </trkpt>
      <trkpt lat="44.2009" lon="3.20994">
        <ele>571</ele>
        <time>2015-10-15T06:21:18Z</time>
      </trkpt>
      <trkpt lat="44.2008" lon="3.20995">
        <ele>570</ele>
        <time>2015-10-15T06:23:18Z</time>
      </trkpt>
      <trkpt lat="44.20067" lon="3.20991">
        <ele>572</ele>
        <time>2015-10-15T06:25:18Z</time>
      </trkpt>
      <trkpt lat="44.20065" lon="3.20991">
        <ele>572</ele>
        <time>2015-10-15T06:27:18Z</time>
      </trkpt>
      <trkpt lat="44.20054" lon="3.20998">
        <ele>569</ele>
        <time>2015-10-15T06:29:18Z</time>
      </trkpt>
      <trkpt lat="44.20052" lon="3.20999">
        <ele>568</ele>
        <time>2015-10-15T06:31:18Z</time>
      </trkpt>
      <trkpt lat="44.20048" lon="3.21003">
        <ele>567</ele>
        <time>2015-10-15T06:33:18Z</time>
      </trkpt>
      <trkpt lat="44.20038" lon="3.21002">
        <ele>567</ele>
        <time>2015-10-15T06:35:18Z</time>
      </trkpt>
      <trkpt lat="44.20027" lon="3.20993">
        <ele>570</ele>
        <time>2015-10-15T06:37:18Z</time>
      </trkpt>
      <trkpt lat="44.20021" lon="3.20989">
        <ele>572</ele>
        <time>2015-10-15T06:39:18Z</time>
      </trkpt>
      <trkpt lat="44.20013" lon="3.20984">
        <ele>573</ele>
        <time>2015-10-15T06:41:18Z</time>
      </trkpt>
      <trkpt lat="44.20003" lon="3.20979">
        <ele>574</ele>
        <time>2015-10-15T06:43:18Z</time>
      </trkpt>
      <trkpt lat="44.19989" lon="3.20977">
        <ele>573</ele>
        <time>2015-10-15T06:45:18Z</time>
      </trkpt>
      <trkpt lat="44.19985" lon="3.20975">
        <ele>573</ele>
        <time>2015-10-15T06:47:18Z</time>
      </trkpt>
      <trkpt lat="44.19974" lon="3.20973">
        <ele>572</ele>
        <time>2015-10-15T06:49:18Z</time>
      </trkpt>
      <trkpt lat="44.19971" lon="3.20971">
        <ele>572</ele>
        <time>2015-10-15T06:51:18Z</time>
      </trkpt>
      <trkpt lat="44.19964" lon="3.20969">
        <ele>571</ele>
        <time>2015-10-15T06:53:18Z</time>
      </trkpt>
      <trkpt lat="44.19962" lon="3.20969">
        <ele>571</ele>
        <time>2015-10-15T06:55:18Z</time>
      </trkpt>
      <trkpt lat="44.19952" lon="3.20963">
        <ele>570</ele>
        <time>2015-10-15T06:57:18Z</time>
      </trkpt>
      <trkpt lat="44.19945" lon="3.20955">
        <ele>570</ele>
        <time>2015-10-15T06:59:18Z</time>
      </trkpt>
      <trkpt lat="44.19941" lon="3.20949">
        <ele>571</ele>
        <time>2015-10-15T07:01:18Z</time>
      </trkpt>
      <trkpt lat="44.19937" lon="3.20947">
        <ele>570</ele>
        <time>2015-10-15T07:03:18Z</time>
      </trkpt>
      <trkpt lat="44.19936" lon="3.20945">
        <ele>570</ele>
        <time>2015-10-15T07:05:18Z</time>
      </trkpt>
      <trkpt lat="44.1993" lon="3.20941">
        <ele>569</ele>
        <time>2015-10-15T07:07:18Z</time>
      </trkpt>
      <trkpt lat="44.19927" lon="3.20944">
        <ele>568</ele>
        <time>2015-10-15T07:09:18Z</time>
      </trkpt>
      <trkpt lat="44.19922" lon="3.20941">
        <ele>568</ele>
        <time>2015-10-15T07:11:18Z</time>
      </trkpt>
      <trkpt lat="44.19917" lon="3.20932">
        <ele>568</ele>
        <time>2015-10-15T07:13:18Z</time>
      </trkpt>
      <trkpt lat="44.19912" lon="3.20927">
        <ele>566</ele>
        <time>2015-10-15T07:15:18Z</time>
      </trkpt>
      <trkpt lat="44.19904" lon="3.20916">
        <ele>565</ele>
        <time>2015-10-15T07:17:18Z</time>
      </trkpt>
      <trkpt lat="44.19899" lon="3.20912">
        <ele>564</ele>
        <time>2015-10-15T07:19:18Z</time>
      </trkpt>
      <trkpt lat="44.19893" lon="3.20912">
        <ele>562</ele>
        <time>2015-10-15T07:21:18Z</time>
      </trkpt>
      <trkpt lat="44.1989" lon="3.20907">
        <ele>561</ele>
        <time>2015-10-15T07:23:18Z</time>
      </trkpt>
      <trkpt lat="44.1988" lon="3.209">
        <ele>559</ele>
        <time>2015-10-15T07:25:18Z</time>
      </trkpt>
      <trkpt lat="44.19872" lon="3.20894">
        <ele>557</ele>
        <time>2015-10-15T07:27:18Z</time>
      </trkpt>
      <trkpt lat="44.19862" lon="3.20891">
        <ele>554</ele>
        <time>2015-10-15T07:29:18Z</time>
      </trkpt>
      <trkpt lat="44.19858" lon="3.20895">
        <ele>552</ele>
        <time>2015-10-15T07:31:18Z</time>
      </trkpt>
      <trkpt lat="44.19849" lon="3.20892">
        <ele>549</ele>
        <time>2015-10-15T07:33:18Z</time>
      </trkpt>
      <trkpt lat="44.19843" lon="3.2089">
        <ele>548</ele>
        <time>2015-10-15T07:35:18Z</time>
      </trkpt>
      <trkpt lat="44.19833" lon="3.20889">
        <ele>545</ele>
        <time>2015-10-15T07:37:18Z</time>
      </trkpt>
      <trkpt lat="44.19822" lon="3.20885">
        <ele>541</ele>
        <time>2015-10-15T07:39:18Z</time>
      </trkpt>
      <trkpt lat="44.19818" lon="3.20882">
        <ele>540</ele>
        <time>2015-10-15T07:41:18Z</time>
      </trkpt>
      <trkpt lat="44.19811" lon="3.2088">
        <ele>538</ele>
        <time>2015-10-15T07:43:18Z</time>
      </trkpt>
      <trkpt lat="44.1981" lon="3.2088">
        <ele>538</ele>
        <time>2015-10-15T07:45:18Z</time>
      </trkpt>
      <trkpt lat="44.19805" lon="3.20881">
        <ele>536</ele>
        <time>2015-10-15T07:47:18Z</time>
      </trkpt>
      <trkpt lat="44.19798" lon="3.20871">
        <ele>534</ele>
        <time>2015-10-15T07:49:18Z</time>
      </trkpt>
      <trkpt lat="44.19793" lon="3.20861">
        <ele>533</ele>
        <time>2015-10-15T07:51:18Z</time>
      </trkpt>
      <trkpt lat="44.19785" lon="3.20838">
        <ele>531</ele>
        <time>2015-10-15T07:53:18Z</time>
      </trkpt>
      <trkpt lat="44.19783" lon="3.20836">
        <ele>531</ele>
        <time>2015-10-15T07:55:18Z</time>
      </trkpt>
      <trkpt lat="44.19778" lon="3.20833">
        <ele>529</ele>
        <time>2015-10-15T07:57:18Z</time>
      </trkpt>
      <trkpt lat="44.19773" lon="3.20832">
        <ele>527</ele>
        <time>2015-10-15T07:59:18Z</time>
      </trkpt>
      <trkpt lat="44.19771" lon="3.20834">
        <ele>526</ele>
        <time>2015-10-15T08:01:18Z</time>
      </trkpt>
      <trkpt lat="44.19764" lon="3.20831">
        <ele>523</ele>
        <time>2015-10-15T08:03:18Z</time>
      </trkpt>
      <trkpt lat="44.19759" lon="3.20827">
        <ele>522</ele>
        <time>2015-10-15T08:05:18Z</time>
      </trkpt>
      <trkpt lat="44.19757" lon="3.20824">
        <ele>521</ele>
        <time>2015-10-15T08:07:18Z</time>
      </trkpt>
      <trkpt lat="44.19755" lon="3.20818">
        <ele>520</ele>
        <time>2015-10-15T08:09:18Z</time>
      </trkpt>
      <trkpt lat="44.19752" lon="3.20814">
        <ele>519</ele>
        <time>2015-10-15T08:11:18Z</time>
      </trkpt>
      <trkpt lat="44.19746" lon="3.20807">
        <ele>516</ele>
        <time>2015-10-15T08:13:18Z</time>
      </trkpt>
      <trkpt lat="44.1974" lon="3.20802">
        <ele>513</ele>
        <time>2015-10-15T08:15:18Z</time>
      </trkpt>
      <trkpt lat="44.19736" lon="3.20797">
        <ele>511</ele>
        <time>2015-10-15T08:17:18Z</time>
      </trkpt>
      <trkpt lat="44.19734" lon="3.20789">
        <ele>510</ele>
        <time>2015-10-15T08:19:18Z</time>
      </trkpt>
      <trkpt lat="44.1973" lon="3.20782">
        <ele>508</ele>
        <time>2015-10-15T08:21:18Z</time>
      </trkpt>
      <trkpt lat="44.19721" lon="3.20769">
        <ele>503</ele>
        <time>2015-10-15T08:23:18Z</time>
      </trkpt>
      <trkpt lat="44.1972" lon="3.20768">
        <ele>502</ele>
        <time>2015-10-15T08:25:18Z</time>
      </trkpt>
      <trkpt lat="44.19715" lon="3.20758">
        <ele>499</ele>
        <time>2015-10-15T08:27:18Z</time>
      </trkpt>
      <trkpt lat="44.19714" lon="3.20755">
        <ele>499</ele>
        <time>2015-10-15T08:29:18Z</time>
      </trkpt>
      <trkpt lat="44.1971" lon="3.20747">
        <ele>496</ele>
        <time>2015-10-15T08:31:18Z</time>
      </trkpt>
      <trkpt lat="44.19708" lon="3.20735">
        <ele>494</ele>
        <time>2015-10-15T08:33:18Z</time>
      </trkpt>
      <trkpt lat="44.19705" lon="3.20725">
        <ele>491</ele>
        <time>2015-10-15T08:35:18Z</time>
      </trkpt>
      <trkpt lat="44.19705" lon="3.20709">
        <ele>490</ele>
        <time>2015-10-15T08:37:18Z</time>
      </trkpt>
      <trkpt lat="44.19705" lon="3.20698">
        <ele>489</ele>
        <time>2015-10-15T08:39:18Z</time>
      </trkpt>
      <trkpt lat="44.19706" lon="3.20685">
        <ele>489</ele>
        <time>2015-10-15T08:41:18Z</time>
      </trkpt>
      <trkpt lat="44.19707" lon="3.20673">
        <ele>488</ele>
        <time>2015-10-15T08:43:18Z</time>
      </trkpt>
      <trkpt lat="44.19709" lon="3.2066">
        <ele>488</ele>
        <time>2015-10-15T08:45:18Z</time>
      </trkpt>
      <trkpt lat="44.19711" lon="3.20645">
        <ele>486</ele>
        <time>2015-10-15T08:47:18Z</time>
      </trkpt>
      <trkpt lat="44.19714" lon="3.20635">
        <ele>486</ele>
        <time>2015-10-15T08:49:18Z</time>
      </trkpt>
      <trkpt lat="44.19716" lon="3.20621">
        <ele>485</ele>
        <time>2015-10-15T08:51:18Z</time>
      </trkpt>
      <trkpt lat="44.19719" lon="3.20607">
        <ele>484</ele>
        <time>2015-10-15T08:53:18Z</time>
      </trkpt>
      <trkpt lat="44.19718" lon="3.20597">
        <ele>481</ele>
        <time>2015-10-15T08:55:18Z</time>
      </trkpt>
      <trkpt lat="44.19718" lon="3.20581">
        <ele>479</ele>
        <time>2015-10-15T08:57:18Z</time>
      </trkpt>
      <trkpt lat="44.19721" lon="3.20571">
        <ele>479</ele>
        <time>2015-10-15T08:59:18Z</time>
      </trkpt>
      <trkpt lat="44.19722" lon="3.20558">
        <ele>479</ele>
        <time>2015-10-15T09:01:18Z</time>
      </trkpt>
      <trkpt lat="44.19723" lon="3.20549">
        <ele>478</ele>
        <time>2015-10-15T09:03:18Z</time>
      </trkpt>
      <trkpt lat="44.19719" lon="3.20543">
        <ele>476</ele>
        <time>2015-10-15T09:05:18Z</time>
      </trkpt>
      <trkpt lat="44.19716" lon="3.20548">
        <ele>475</ele>
        <time>2015-10-15T09:07:18Z</time>
      </trkpt>
      <trkpt lat="44.19714" lon="3.20542">
        <ele>473</ele>
        <time>2015-10-15T09:09:18Z</time>
      </trkpt>
      <trkpt lat="44.19711" lon="3.20526">
        <ele>470</ele>
        <time>2015-10-15T09:11:18Z</time>
      </trkpt>
      <trkpt lat="44.19708" lon="3.20517">
        <ele>468</ele>
        <time>2015-10-15T09:13:18Z</time>
      </trkpt>
      <trkpt lat="44.19707" lon="3.20515">
        <ele>468</ele>
        <time>2015-10-15T09:15:18Z</time>
      </trkpt>
      <trkpt lat="44.19703" lon="3.20507">
        <ele>465</ele>
        <time>2015-10-15T09:17:18Z</time>
      </trkpt>
      <trkpt lat="44.19699" lon="3.20498">
        <ele>463</ele>
        <time>2015-10-15T09:19:18Z</time>
      </trkpt>
      <trkpt lat="44.19696" lon="3.20499">
        <ele>461</ele>
        <time>2015-10-15T09:21:18Z</time>
      </trkpt>
      <trkpt lat="44.19691" lon="3.20505">
        <ele>459</ele>
        <time>2015-10-15T09:23:18Z</time>
      </trkpt>
      <trkpt lat="44.19686" lon="3.20508">
        <ele>457</ele>
        <time>2015-10-15T09:25:18Z</time>
      </trkpt>
      <trkpt lat="44.19681" lon="3.20515">
        <ele>456</ele>
        <time>2015-10-15T09:27:18Z</time>
      </trkpt>
      <trkpt lat="44.19672" lon="3.2052">
        <ele>452</ele>
        <time>2015-10-15T09:29:18Z</time>
      </trkpt>
      <trkpt lat="44.19664" lon="3.20518">
        <ele>448</ele>
        <time>2015-10-15T09:31:18Z</time>
      </trkpt>
      <trkpt lat="44.19645" lon="3.20508">
        <ele>442</ele>
        <time>2015-10-15T09:33:18Z</time>
      </trkpt>
      <trkpt lat="44.19635" lon="3.20506">
        <ele>440</ele>
        <time>2015-10-15T09:35:18Z</time>
      </trkpt>
      <trkpt lat="44.19631" lon="3.20504">
        <ele>438</ele>
        <time>2015-10-15T09:37:18Z</time>
      </trkpt>
      <trkpt lat="44.1963" lon="3.20516">
        <ele>439</ele>
        <time>2015-10-15T09:39:18Z</time>
      </trkpt>
      <trkpt lat="44.19634" lon="3.20529">
        <ele>440</ele>
        <time>2015-10-15T09:41:18Z</time>
      </trkpt>
      <trkpt lat="44.19632" lon="3.2054">
        <ele>440</ele>
        <time>2015-10-15T09:43:18Z</time>
      </trkpt>
      <trkpt lat="44.19629" lon="3.20562">
        <ele>440</ele>
        <time>2015-10-15T09:45:18Z</time>
      </trkpt>
      <trkpt lat="44.19622" lon="3.20578">
        <ele>439</ele>
        <time>2015-10-15T09:47:18Z</time>
      </trkpt>
      <trkpt lat="44.19615" lon="3.20594">
        <ele>438</ele>
        <time>2015-10-15T09:49:18Z</time>
      </trkpt>
      <trkpt lat="44.19609" lon="3.2061">
        <ele>437</ele>
        <time>2015-10-15T09:51:18Z</time>
      </trkpt>
      <trkpt lat="44.196" lon="3.20628">
        <ele>434</ele>
        <time>2015-10-15T09:53:18Z</time>
      </trkpt>
      <trkpt lat="44.19594" lon="3.20648">
        <ele>433</ele>
        <time>2015-10-15T09:55:18Z</time>
      </trkpt>
      <trkpt lat="44.19589" lon="3.2067">
        <ele>432</ele>
        <time>2015-10-15T09:57:18Z</time>
      </trkpt>
      <trkpt lat="44.19584" lon="3.20686">
        <ele>430</ele>
        <time>2015-10-15T09:59:18Z</time>
      </trkpt>
      <trkpt lat="44.19579" lon="3.20703">
        <ele>429</ele>
        <time>2015-10-15T10:01:18Z</time>
      </trkpt>
      <trkpt lat="44.19572" lon="3.20727">
        <ele>428</ele>
        <time>2015-10-15T10:03:18Z</time>
      </trkpt>
      <trkpt lat="44.19569" lon="3.20746">
        <ele>428</ele>
        <time>2015-10-15T10:05:18Z</time>
      </trkpt>
      <trkpt lat="44.19563" lon="3.20764">
        <ele>426</ele>
        <time>2015-10-15T10:07:18Z</time>
      </trkpt>
      <trkpt lat="44.19559" lon="3.20778">
        <ele>425</ele>
        <time>2015-10-15T10:09:18Z</time>
      </trkpt>
      <trkpt lat="44.19558" lon="3.20781">
        <ele>424</ele>
        <time>2015-10-15T10:11:18Z</time>
      </trkpt>
      <trkpt lat="44.19555" lon="3.20783">
        <ele>424</ele>
        <time>2015-10-15T10:13:18Z</time>
      </trkpt>
      <trkpt lat="44.19543" lon="3.2078">
        <ele>420</ele>
        <time>2015-10-15T10:15:18Z</time>
      </trkpt>
      <trkpt lat="44.19532" lon="3.20779">
        <ele>417</ele>
        <time>2015-10-15T10:17:18Z</time>
      </trkpt>
      <trkpt lat="44.19521" lon="3.20776">
        <ele>414</ele>
        <time>2015-10-15T10:19:18Z</time>
      </trkpt>
      <trkpt lat="44.19512" lon="3.20775">
        <ele>411</ele>
        <time>2015-10-15T10:21:18Z</time>
      </trkpt>
      <trkpt lat="44.19497" lon="3.20773">
        <ele>408</ele>
        <time>2015-10-15T10:23:18Z</time>
      </trkpt>
      <trkpt lat="44.19484" lon="3.20773">
        <ele>405</ele>
        <time>2015-10-15T10:25:18Z</time>
      </trkpt>
      <trkpt lat="44.19469" lon="3.20775">
        <ele>403</ele>
        <time>2015-10-15T10:27:18Z</time>
      </trkpt>
      <trkpt lat="44.19461" lon="3.20768">
        <ele>402</ele>
        <time>2015-10-15T10:29:18Z</time>
      </trkpt>
      <trkpt lat="44.19449" lon="3.20771">
        <ele>400</ele>
        <time>2015-10-15T10:31:18Z</time>
      </trkpt>
      <trkpt lat="44.19446" lon="3.20774">
        <ele>399</ele>
        <time>2015-10-15T10:33:18Z</time>
      </trkpt>
      <trkpt lat="44.19433" lon="3.20792">
        <ele>396</ele>
        <time>2015-10-15T10:35:18Z</time>
      </trkpt>
      <trkpt lat="44.19423" lon="3.20801">
        <ele>394</ele>
        <time>2015-10-15T10:37:18Z</time>
      </trkpt>
      <trkpt lat="44.19414" lon="3.20807">
        <ele>393</ele>
        <time>2015-10-15T10:39:18Z</time>
      </trkpt>
      <trkpt lat="44.19399" lon="3.20815">
        <ele>395</ele>
        <time>2015-10-15T10:41:18Z</time>
      </trkpt>
      <trkpt lat="44.19383" lon="3.20824">
        <ele>397</ele>
        <time>2015-10-15T10:43:18Z</time>
      </trkpt>
      <trkpt lat="44.19373" lon="3.2083">
        <ele>399</ele>
        <time>2015-10-15T10:45:18Z</time>
      </trkpt>
      <trkpt lat="44.19359" lon="3.20837">
        <ele>402</ele>
        <time>2015-10-15T10:47:18Z</time>
      </trkpt>
      <trkpt lat="44.19348" lon="3.20844">
        <ele>405</ele>
        <time>2015-10-15T10:49:18Z</time>
      </trkpt>
      <trkpt lat="44.19338" lon="3.20848">
        <ele>408</ele>
        <time>2015-10-15T10:51:18Z</time>
      </trkpt>
      <trkpt lat="44.19324" lon="3.20847">
        <ele>411</ele>
        <time>2015-10-15T10:53:18Z</time>
      </trkpt>
      <trkpt lat="44.19317" lon="3.20836">
        <ele>411</ele>
        <time>2015-10-15T10:55:18Z</time>
      </trkpt>
      <trkpt lat="44.19308" lon="3.20821">
        <ele>411</ele>
        <time>2015-10-15T10:57:18Z</time>
      </trkpt>
      <trkpt lat="44.19302" lon="3.20806">
        <ele>410</ele>
        <time>2015-10-15T10:59:18Z</time>
      </trkpt>
      <trkpt lat="44.19289" lon="3.20786">
        <ele>409</ele>
        <time>2015-10-15T11:01:18Z</time>
      </trkpt>
      <trkpt lat="44.19279" lon="3.20772">
        <ele>409</ele>
        <time>2015-10-15T11:03:18Z</time>
      </trkpt>
      <trkpt lat="44.19269" lon="3.20762">
        <ele>408</ele>
        <time>2015-10-15T11:05:18Z</time>
      </trkpt>
      <trkpt lat="44.19251" lon="3.20745">
        <ele>408</ele>
        <time>2015-10-15T11:07:18Z</time>
      </trkpt>
      <trkpt lat="44.19234" lon="3.20724">
        <ele>407</ele>
        <time>2015-10-15T11:09:18Z</time>
      </trkpt>
      <trkpt lat="44.19225" lon="3.2071">
        <ele>406</ele>
        <time>2015-10-15T11:11:18Z</time>
      </trkpt>
      <trkpt lat="44.19216" lon="3.20692">
        <ele>405</ele>
        <time>2015-10-15T11:13:18Z</time>
      </trkpt>
      <trkpt lat="44.1921" lon="3.20679">
        <ele>405</ele>
        <time>2015-10-15T11:15:18Z</time>
      </trkpt>
      <trkpt lat="44.19198" lon="3.20658">
        <ele>404</ele>
        <time>2015-10-15T11:17:18Z</time>
      </trkpt>
      <trkpt lat="44.19191" lon="3.20639">
        <ele>402</ele>
        <time>2015-10-15T11:19:18Z</time>
      </trkpt>
      <trkpt lat="44.19191" lon="3.20633">
        <ele>402</ele>
        <time>2015-10-15T11:21:18Z</time>
      </trkpt>
      <trkpt lat="44.19188" lon="3.2061">
        <ele>400</ele>
        <time>2015-10-15T11:23:18Z</time>
      </trkpt>
      <trkpt lat="44.19182" lon="3.20594">
        <ele>399</ele>
        <time>2015-10-15T11:25:18Z</time>
      </trkpt>
      <trkpt lat="44.19173" lon="3.20566">
        <ele>398</ele>
        <time>2015-10-15T11:27:18Z</time>
      </trkpt>
      <trkpt lat="44.19169" lon="3.20547">
        <ele>397</ele>
        <time>2015-10-15T11:29:18Z</time>
      </trkpt>
      <trkpt lat="44.19166" lon="3.20534">
        <ele>396</ele>
        <time>2015-10-15T11:31:18Z</time>
      </trkpt>
      <trkpt lat="44.19158" lon="3.20526">
        <ele>396</ele>
        <time>2015-10-15T11:33:18Z</time>
      </trkpt>
      <trkpt lat="44.19148" lon="3.20525">
        <ele>395</ele>
        <time>2015-10-15T11:35:18Z</time>
      </trkpt>
      <trkpt lat="44.19147" lon="3.20529">
        <ele>396</ele>
        <time>2015-10-15T11:37:18Z</time>
      </trkpt>
      <trkpt lat="44.19146" lon="3.20528">
        <ele>396</ele>
        <time>2015-10-15T11:39:18Z</time>
      </trkpt>
      <trkpt lat="44.19146" lon="3.20524">
        <ele>395</ele>
        <time>2015-10-15T11:41:18Z</time>
      </trkpt>
      <trkpt lat="44.19145" lon="3.20529">
        <ele>396</ele>
        <time>2015-10-15T11:43:18Z</time>
      </trkpt>
      <trkpt lat="44.19142" lon="3.20532">
        <ele>396</ele>
        <time>2015-10-15T11:45:18Z</time>
      </trkpt>
      <trkpt lat="44.19142" lon="3.2053">
        <ele>396</ele>
        <time>2015-10-15T11:47:18Z</time>
      </trkpt>
      <trkpt lat="44.19143" lon="3.20532">
        <ele>396</ele>
        <time>2015-10-15T11:49:18Z</time>
      </trkpt>
      <trkpt lat="44.19145" lon="3.20535">
        <ele>396</ele>
        <time>2015-10-15T11:51:18Z</time>
      </trkpt>
      <trkpt lat="44.19148" lon="3.20533">
        <ele>396</ele>
        <time>2015-10-15T11:53:18Z</time>
      </trkpt>
      <trkpt lat="44.19142" lon="3.20536">
        <ele>396</ele>
        <time>2015-10-15T11:55:18Z</time>
      </trkpt>
      <trkpt lat="44.19142" lon="3.20535">
        <ele>396</ele>
        <time>2015-10-15T11:57:18Z</time>
      </trkpt>
      <trkpt lat="44.19145" lon="3.20534">
        <ele>396</ele>
        <time>2015-10-15T11:59:18Z</time>
      </trkpt>
      <trkpt lat="44.19145" lon="3.20535">
        <ele>396</ele>
        <time>2015-10-15T12:01:18Z</time>
      </trkpt>
      <trkpt lat="44.19142" lon="3.20533">
        <ele>396</ele>
        <time>2015-10-15T12:03:18Z</time>
      </trkpt>
      <trkpt lat="44.1914" lon="3.20531">
        <ele>396</ele>
        <time>2015-10-15T12:05:18Z</time>
      </trkpt>
      <trkpt lat="44.19145" lon="3.20535">
        <ele>396</ele>
        <time>2015-10-15T12:07:18Z</time>
      </trkpt>
      <trkpt lat="44.19119" lon="3.20547">
        <ele>396</ele>
        <time>2015-10-15T12:09:18Z</time>
      </trkpt>
      <trkpt lat="44.19115" lon="3.20546">
        <ele>396</ele>
        <time>2015-10-15T12:11:18Z</time>
      </trkpt>
      <trkpt lat="44.19109" lon="3.2054">
        <ele>396</ele>
        <time>2015-10-15T12:13:18Z</time>
      </trkpt>
      <trkpt lat="44.19106" lon="3.20531">
        <ele>396</ele>
        <time>2015-10-15T12:15:18Z</time>
      </trkpt>
      <trkpt lat="44.19099" lon="3.20534">
        <ele>396</ele>
        <time>2015-10-15T12:17:18Z</time>
      </trkpt>
      <trkpt lat="44.19086" lon="3.20537">
        <ele>396</ele>
        <time>2015-10-15T12:19:18Z</time>
      </trkpt>
      <trkpt lat="44.19081" lon="3.20548">
        <ele>396</ele>
        <time>2015-10-15T12:21:18Z</time>
      </trkpt>
      <trkpt lat="44.19073" lon="3.20564">
        <ele>397</ele>
        <time>2015-10-15T12:23:18Z</time>
      </trkpt>
      <trkpt lat="44.19064" lon="3.20576">
        <ele>397</ele>
        <time>2015-10-15T12:25:18Z</time>
      </trkpt>
      <trkpt lat="44.19054" lon="3.20582">
        <ele>398</ele>
        <time>2015-10-15T12:27:18Z</time>
      </trkpt>
      <trkpt lat="44.19049" lon="3.20594">
        <ele>398</ele>
        <time>2015-10-15T12:29:18Z</time>
      </trkpt>
      <trkpt lat="44.19045" lon="3.20609">
        <ele>398</ele>
        <time>2015-10-15T12:31:18Z</time>
      </trkpt>
      <trkpt lat="44.19038" lon="3.20627">
        <ele>398</ele>
        <time>2015-10-15T12:33:18Z</time>
      </trkpt>
      <trkpt lat="44.19026" lon="3.20624">
        <ele>398</ele>
        <time>2015-10-15T12:35:18Z</time>
      </trkpt>
      <trkpt lat="44.19024" lon="3.20624">
        <ele>398</ele>
        <time>2015-10-15T12:37:18Z</time>
      </trkpt>
      <trkpt lat="44.19019" lon="3.20634">
        <ele>398</ele>
        <time>2015-10-15T12:39:18Z</time>
      </trkpt>
      <trkpt lat="44.19019" lon="3.20647">
        <ele>398</ele>
        <time>2015-10-15T12:41:18Z</time>
      </trkpt>
      <trkpt lat="44.19023" lon="3.20659">
        <ele>398</ele>
        <time>2015-10-15T12:43:18Z</time>
      </trkpt>
      <trkpt lat="44.19023" lon="3.20678">
        <ele>398</ele>
        <time>2015-10-15T12:45:18Z</time>
      </trkpt>
      <trkpt lat="44.19024" lon="3.20694">
        <ele>398</ele>
        <time>2015-10-15T12:47:18Z</time>
      </trkpt>
      <trkpt lat="44.19025" lon="3.20708">
        <ele>398</ele>
        <time>2015-10-15T12:49:18Z</time>
      </trkpt>
      <trkpt lat="44.19026" lon="3.20725">
        <ele>398</ele>
        <time>2015-10-15T12:51:18Z</time>
      </trkpt>
      <trkpt lat="44.19027" lon="3.20732">
        <ele>398</ele>
        <time>2015-10-15T12:53:18Z</time>
      </trkpt>
      <trkpt lat="44.19027" lon="3.20748">
        <ele>397</ele>
        <time>2015-10-15T12:55:18Z</time>
      </trkpt>
      <trkpt lat="44.1903" lon="3.2076">
        <ele>398</ele>
        <time>2015-10-15T12:57:18Z</time>
      </trkpt>
      <trkpt lat="44.19031" lon="3.2078">
        <ele>398</ele>
        <time>2015-10-15T12:59:18Z</time>
      </trkpt>
      <trkpt lat="44.19031" lon="3.20796">
        <ele>399</ele>
        <time>2015-10-15T13:01:18Z</time>
      </trkpt>
      <trkpt lat="44.19032" lon="3.20814">
        <ele>399</ele>
        <time>2015-10-15T13:03:18Z</time>
      </trkpt>
      <trkpt lat="44.19029" lon="3.20821">
        <ele>399</ele>
        <time>2015-10-15T13:05:18Z</time>
      </trkpt>
      <trkpt lat="44.1903" lon="3.20833">
        <ele>400</ele>
        <time>2015-10-15T13:07:18Z</time>
      </trkpt>
      <trkpt lat="44.1903" lon="3.20859">
        <ele>400</ele>
        <time>2015-10-15T13:09:18Z</time>
      </trkpt>
      <trkpt lat="44.19029" lon="3.20886">
        <ele>401</ele>
        <time>2015-10-15T13:11:18Z</time>
      </trkpt>
      <trkpt lat="44.19026" lon="3.20913">
        <ele>401</ele>
        <time>2015-10-15T13:13:18Z</time>
      </trkpt>
      <trkpt lat="44.19024" lon="3.2093">
        <ele>401</ele>
        <time>2015-10-15T13:15:18Z</time>
      </trkpt>
      <trkpt lat="44.19026" lon="3.20932">
        <ele>402</ele>
        <time>2015-10-15T13:17:18Z</time>
      </trkpt>
      <trkpt lat="44.19028" lon="3.20934">
        <ele>402</ele>
        <time>2015-10-15T13:19:18Z</time>
      </trkpt>
      <trkpt lat="44.19031" lon="3.20935">
        <ele>403</ele>
        <time>2015-10-15T13:21:18Z</time>
      </trkpt>
      <trkpt lat="44.19032" lon="3.20941">
        <ele>403</ele>
        <time>2015-10-15T13:23:18Z</time>
      </trkpt>
      <trkpt lat="44.19032" lon="3.20945">
        <ele>403</ele>
        <time>2015-10-15T13:25:18Z</time>
      </trkpt>
      <trkpt lat="44.19033" lon="3.2095">
        <ele>403</ele>
        <time>2015-10-15T13:27:18Z</time>
      </trkpt>
      <trkpt lat="44.19035" lon="3.20952">
        <ele>404</ele>
        <time>2015-10-15T13:29:18Z</time>
      </trkpt>
      <trkpt lat="44.19038" lon="3.20952">
        <ele>404</ele>
        <time>2015-10-15T13:31:18Z</time>
      </trkpt>
      <trkpt lat="44.19042" lon="3.20952">
        <ele>405</ele>
        <time>2015-10-15T13:33:18Z</time>
      </trkpt>
      <trkpt lat="44.19045" lon="3.20954">
        <ele>406</ele>
        <time>2015-10-15T13:35:18Z</time>
      </trkpt>
      <trkpt lat="44.19048" lon="3.20957">
        <ele>406</ele>
        <time>2015-10-15T13:37:18Z</time>
      </trkpt>
      <trkpt lat="44.19048" lon="3.20966">
        <ele>407</ele>
        <time>2015-10-15T13:39:18Z</time>
      </trkpt>
      <trkpt lat="44.19049" lon="3.20976">
        <ele>408</ele>
        <time>2015-10-15T13:41:18Z</time>
      </trkpt>
      <trkpt lat="44.19048" lon="3.20986">
        <ele>408</ele>
        <time>2015-10-15T13:43:18Z</time>
      </trkpt>
      <trkpt lat="44.19047" lon="3.21003">
        <ele>409</ele>
        <time>2015-10-15T13:45:18Z</time>
      </trkpt>
      <trkpt lat="44.19045" lon="3.21018">
        <ele>409</ele>
        <time>2015-10-15T13:47:18Z</time>
      </trkpt>
      <trkpt lat="44.19043" lon="3.2103">
        <ele>409</ele>
        <time>2015-10-15T13:49:18Z</time>
      </trkpt>
      <trkpt lat="44.19045" lon="3.21032">
        <ele>410</ele>
        <time>2015-10-15T13:51:18Z</time>
      </trkpt>
      <trkpt lat="44.19049" lon="3.21033">
        <ele>411</ele>
        <time>2015-10-15T13:53:18Z</time>
      </trkpt>
      <trkpt lat="44.19053" lon="3.21033">
        <ele>412</ele>
        <time>2015-10-15T13:55:18Z</time>
      </trkpt>
      <trkpt lat="44.19057" lon="3.21037">
        <ele>413</ele>
        <time>2015-10-15T13:57:18Z</time>
      </trkpt>
      <trkpt lat="44.19057" lon="3.21046">
        <ele>414</ele>
        <time>2015-10-15T13:59:18Z</time>
      </trkpt>
      <trkpt lat="44.19057" lon="3.21054">
        <ele>414</ele>
        <time>2015-10-15T14:01:18Z</time>
      </trkpt>
      <trkpt lat="44.19056" lon="3.21062">
        <ele>415</ele>
        <time>2015-10-15T14:03:18Z</time>
      </trkpt>
      <trkpt lat="44.19056" lon="3.21074">
        <ele>416</ele>
        <time>2015-10-15T14:05:18Z</time>
      </trkpt>
      <trkpt lat="44.19054" lon="3.21083">
        <ele>415</ele>
        <time>2015-10-15T14:07:18Z</time>
      </trkpt>
      <trkpt lat="44.19052" lon="3.21095">
        <ele>416</ele>
        <time>2015-10-15T14:09:18Z</time>
      </trkpt>
      <trkpt lat="44.19052" lon="3.21108">
        <ele>417</ele>
        <time>2015-10-15T14:11:18Z</time>
      </trkpt>
      <trkpt lat="44.1905" lon="3.21116">
        <ele>417</ele>
        <time>2015-10-15T14:13:18Z</time>
      </trkpt>
      <trkpt lat="44.19051" lon="3.21121">
        <ele>418</ele>
        <time>2015-10-15T14:15:18Z</time>
      </trkpt>
      <trkpt lat="44.19054" lon="3.21129">
        <ele>419</ele>
        <time>2015-10-15T14:17:18Z</time>
      </trkpt>
      <trkpt lat="44.19056" lon="3.21136">
        <ele>421</ele>
        <time>2015-10-15T14:19:18Z</time>
      </trkpt>
      <trkpt lat="44.19056" lon="3.21142">
        <ele>421</ele>
        <time>2015-10-15T14:21:18Z</time>
      </trkpt>
      <trkpt lat="44.19056" lon="3.21155">
        <ele>422</ele>
        <time>2015-10-15T14:23:18Z</time>
      </trkpt>
      <trkpt lat="44.19057" lon="3.21166">
        <ele>424</ele>
        <time>2015-10-15T14:25:18Z</time>
      </trkpt>
      <trkpt lat="44.19061" lon="3.21181">
        <ele>427</ele>
        <time>2015-10-15T14:27:18Z</time>
      </trkpt>
      <trkpt lat="44.19064" lon="3.21186">
        <ele>429</ele>
        <time>2015-10-15T14:29:18Z</time>
      </trkpt>
      <trkpt lat="44.19068" lon="3.2119">
        <ele>431</ele>
        <time>2015-10-15T14:31:18Z</time>
      </trkpt>
      <trkpt lat="44.19073" lon="3.21196">
        <ele>434</ele>
        <time>2015-10-15T14:33:18Z</time>
      </trkpt>
      <trkpt lat="44.19075" lon="3.2119">
        <ele>434</ele>
        <time>2015-10-15T14:35:18Z</time>
      </trkpt>
      <trkpt lat="44.19076" lon="3.21183">
        <ele>433</ele>
        <time>2015-10-15T14:37:18Z</time>
      </trkpt>
      <trkpt lat="44.1908" lon="3.21179">
        <ele>434</ele>
        <time>2015-10-15T14:39:18Z</time>
      </trkpt>
      <trkpt lat="44.19082" lon="3.21187">
        <ele>436</ele>
        <time>2015-10-15T14:41:18Z</time>
      </trkpt>
      <trkpt lat="44.19083" lon="3.21193">
        <ele>437</ele>
        <time>2015-10-15T14:43:18Z</time>
      </trkpt>
      <trkpt lat="44.19084" lon="3.21203">
        <ele>439</ele>
        <time>2015-10-15T14:45:18Z</time>
      </trkpt>
      <trkpt lat="44.19087" lon="3.21208">
        <ele>441</ele>
        <time>2015-10-15T14:47:18Z</time>
      </trkpt>
      <trkpt lat="44.19091" lon="3.21212">
        <ele>444</ele>
        <time>2015-10-15T14:49:18Z</time>
      </trkpt>
      <trkpt lat="44.19098" lon="3.21215">
        <ele>448</ele>
        <time>2015-10-15T14:51:18Z</time>
      </trkpt>
      <trkpt lat="44.191" lon="3.21226">
        <ele>451</ele>
        <time>2015-10-15T14:53:18Z</time>
      </trkpt>
      <trkpt lat="44.19106" lon="3.21224">
        <ele>453</ele>
        <time>2015-10-15T14:55:18Z</time>
      </trkpt>
      <trkpt lat="44.19117" lon="3.21227">
        <ele>460</ele>
        <time>2015-10-15T14:57:18Z</time>
      </trkpt>
      <trkpt lat="44.19114" lon="3.21226">
        <ele>458</ele>
        <time>2015-10-15T14:59:18Z</time>
      </trkpt>
      <trkpt lat="44.19118" lon="3.21232">
        <ele>461</ele>
        <time>2015-10-15T15:01:18Z</time>
      </trkpt>
      <trkpt lat="44.19129" lon="3.21226">
        <ele>466</ele>
        <time>2015-10-15T15:03:18Z</time>
      </trkpt>
      <trkpt lat="44.19131" lon="3.21229">
        <ele>467</ele>
        <time>2015-10-15T15:05:18Z</time>
      </trkpt>
      <trkpt lat="44.19132" lon="3.21228">
        <ele>468</ele>
        <time>2015-10-15T15:07:18Z</time>
      </trkpt>
      <trkpt lat="44.19133" lon="3.21223">
        <ele>467</ele>
        <time>2015-10-15T15:09:18Z</time>
      </trkpt>
      <trkpt lat="44.19136" lon="3.21215">
        <ele>467</ele>
        <time>2015-10-15T15:11:18Z</time>
      </trkpt>
      <trkpt lat="44.19137" lon="3.21212">
        <ele>467</ele>
        <time>2015-10-15T15:13:18Z</time>
      </trkpt>
      <trkpt lat="44.19141" lon="3.21213">
        <ele>469</ele>
        <time>2015-10-15T15:15:18Z</time>
      </trkpt>
      <trkpt lat="44.19141" lon="3.21229">
        <ele>472</ele>
        <time>2015-10-15T15:17:18Z</time>
      </trkpt>
      <trkpt lat="44.19141" lon="3.2123">
        <ele>473</ele>
        <time>2015-10-15T15:19:18Z</time>
      </trkpt>
      <trkpt lat="44.19143" lon="3.21236">
        <ele>475</ele>
        <time>2015-10-15T15:21:18Z</time>
      </trkpt>
      <trkpt lat="44.19143" lon="3.2124">
        <ele>476</ele>
        <time>2015-10-15T15:23:18Z</time>
      </trkpt>
      <trkpt lat="44.19147" lon="3.2124">
        <ele>478</ele>
        <time>2015-10-15T15:25:18Z</time>
      </trkpt>
      <trkpt lat="44.1915" lon="3.21245">
        <ele>481</ele>
        <time>2015-10-15T15:27:18Z</time>
      </trkpt>
      <trkpt lat="44.19153" lon="3.21251">
        <ele>484</ele>
        <time>2015-10-15T15:29:18Z</time>
      </trkpt>
      <trkpt lat="44.19154" lon="3.21253">
        <ele>484</ele>
        <time>2015-10-15T15:31:18Z</time>
      </trkpt>
      <trkpt lat="44.19155" lon="3.21255">
        <ele>485</ele>
        <time>2015-10-15T15:33:18Z</time>
      </trkpt>
      <trkpt lat="44.19159" lon="3.21258">
        <ele>488</ele>
        <time>2015-10-15T15:35:18Z</time>
      </trkpt>
      <trkpt lat="44.19163" lon="3.21262">
        <ele>491</ele>
        <time>2015-10-15T15:37:18Z</time>
      </trkpt>
      <trkpt lat="44.19165" lon="3.21263">
        <ele>492</ele>
        <time>2015-10-15T15:39:18Z</time>
      </trkpt>
      <trkpt lat="44.19167" lon="3.21262">
        <ele>493</ele>
        <time>2015-10-15T15:41:18Z</time>
      </trkpt>
      <trkpt lat="44.19169" lon="3.21258">
        <ele>494</ele>
        <time>2015-10-15T15:43:18Z</time>
      </trkpt>
      <trkpt lat="44.19172" lon="3.2126">
        <ele>496</ele>
        <time>2015-10-15T15:45:18Z</time>
      </trkpt>
      <trkpt lat="44.19173" lon="3.21264">
        <ele>497</ele>
        <time>2015-10-15T15:47:18Z</time>
      </trkpt>
      <trkpt lat="44.19174" lon="3.21267">
        <ele>498</ele>
        <time>2015-10-15T15:49:18Z</time>
      </trkpt>
      <trkpt lat="44.19174" lon="3.21269">
        <ele>498</ele>
        <time>2015-10-15T15:51:18Z</time>
      </trkpt>
      <trkpt lat="44.19177" lon="3.2127">
        <ele>500</ele>
        <time>2015-10-15T15:53:18Z</time>
      </trkpt>
      <trkpt lat="44.19178" lon="3.2127">
        <ele>501</ele>
        <time>2015-10-15T15:55:18Z</time>
      </trkpt>
      <trkpt lat="44.19181" lon="3.21268">
        <ele>502</ele>
        <time>2015-10-15T15:57:18Z</time>
      </trkpt>
      <trkpt lat="44.19182" lon="3.21266">
        <ele>502</ele>
        <time>2015-10-15T15:59:18Z</time>
      </trkpt>
      <trkpt lat="44.19184" lon="3.21269">
        <ele>504</ele>
        <time>2015-10-15T16:01:18Z</time>
      </trkpt>
      <trkpt lat="44.19184" lon="3.21272">
        <ele>504</ele>
        <time>2015-10-15T16:03:18Z</time>
      </trkpt>
      <trkpt lat="44.19183" lon="3.21272">
        <ele>504</ele>
        <time>2015-10-15T16:05:18Z</time>
      </trkpt>
      <trkpt lat="44.19188" lon="3.21272">
        <ele>507</ele>
        <time>2015-10-15T16:07:18Z</time>
      </trkpt>
      <trkpt lat="44.1919" lon="3.21271">
        <ele>507</ele>
        <time>2015-10-15T16:09:18Z</time>
      </trkpt>
      <trkpt lat="44.19192" lon="3.21271">
        <ele>509</ele>
        <time>2015-10-15T16:11:18Z</time>
      </trkpt>
      <trkpt lat="44.192" lon="3.21301">
        <ele>519</ele>
        <time>2015-10-15T16:13:18Z</time>
      </trkpt>
      <trkpt lat="44.19198" lon="3.21308">
        <ele>519</ele>
        <time>2015-10-15T16:15:18Z</time>
      </trkpt>
      <trkpt lat="44.19199" lon="3.21318">
        <ele>522</ele>
        <time>2015-10-15T16:17:18Z</time>
      </trkpt>
      <trkpt lat="44.19199" lon="3.21345">
        <ele>526</ele>
        <time>2015-10-15T16:19:18Z</time>
      </trkpt>
      <trkpt lat="44.19203" lon="3.21357">
        <ele>529</ele>
        <time>2015-10-15T16:21:18Z</time>
      </trkpt>
      <trkpt lat="44.19207" lon="3.21364">
        <ele>532</ele>
        <time>2015-10-15T16:23:18Z</time>
      </trkpt>
      <trkpt lat="44.19221" lon="3.21382">
        <ele>542</ele>
        <time>2015-10-15T16:25:18Z</time>
      </trkpt>
      <trkpt lat="44.19226" lon="3.21389">
        <ele>546</ele>
        <time>2015-10-15T16:27:18Z</time>
      </trkpt>
      <trkpt lat="44.19231" lon="3.21398">
        <ele>550</ele>
        <time>2015-10-15T16:29:18Z</time>
      </trkpt>
      <trkpt lat="44.19238" lon="3.21413">
        <ele>557</ele>
        <time>2015-10-15T16:31:18Z</time>
      </trkpt>
      <trkpt lat="44.19241" lon="3.21423">
        <ele>558</ele>
        <time>2015-10-15T16:33:18Z</time>
      </trkpt>
      <trkpt lat="44.19244" lon="3.21434">
        <ele>559</ele>
        <time>2015-10-15T16:35:18Z</time>
      </trkpt>
      <trkpt lat="44.1925" lon="3.21455">
        <ele>560</ele>
        <time>2015-10-15T16:37:18Z</time>
      </trkpt>
      <trkpt lat="44.19254" lon="3.21466">
        <ele>560</ele>
        <time>2015-10-15T16:39:18Z</time>
      </trkpt>
      <trkpt lat="44.19258" lon="3.21474">
        <ele>560</ele>
        <time>2015-10-15T16:41:18Z</time>
      </trkpt>
      <trkpt lat="44.19263" lon="3.21482">
        <ele>561</ele>
        <time>2015-10-15T16:43:18Z</time>
      </trkpt>
      <trkpt lat="44.19268" lon="3.2149">
        <ele>562</ele>
        <time>2015-10-15T16:45:18Z</time>
      </trkpt>
      <trkpt lat="44.19274" lon="3.21503">
        <ele>562</ele>
        <time>2015-10-15T16:47:18Z</time>
      </trkpt>
      <trkpt lat="44.19278" lon="3.21507">
        <ele>563</ele>
        <time>2015-10-15T16:49:18Z</time>
      </trkpt>
      <trkpt lat="44.19281" lon="3.2151">
        <ele>564</ele>
        <time>2015-10-15T16:51:18Z</time>
      </trkpt>
      <trkpt lat="44.19284" lon="3.2151">
        <ele>565</ele>
        <time>2015-10-15T16:53:18Z</time>
      </trkpt>
      <trkpt lat="44.19291" lon="3.21515">
        <ele>567</ele>
        <time>2015-10-15T16:55:18Z</time>
      </trkpt>
      <trkpt lat="44.19297" lon="3.21521">
        <ele>569</ele>
        <time>2015-10-15T16:57:18Z</time>
      </trkpt>
      <trkpt lat="44.19306" lon="3.21526">
        <ele>572</ele>
        <time>2015-10-15T16:59:18Z</time>
      </trkpt>
      <trkpt lat="44.19313" lon="3.21527">
        <ele>575</ele>
        <time>2015-10-15T17:01:18Z</time>
      </trkpt>
      <trkpt lat="44.19318" lon="3.21531">
        <ele>577</ele>
        <time>2015-10-15T17:03:18Z</time>
      </trkpt>
      <trkpt lat="44.19326" lon="3.21535">
        <ele>580</ele>
        <time>2015-10-15T17:05:18Z</time>
      </trkpt>
      <trkpt lat="44.19328" lon="3.21544">
        <ele>580</ele>
        <time>2015-10-15T17:07:18Z</time>
      </trkpt>
      <trkpt lat="44.19332" lon="3.21548">
        <ele>582</ele>
        <time>2015-10-15T17:09:18Z</time>
      </trkpt>
      <trkpt lat="44.19334" lon="3.21556">
        <ele>581</ele>
        <time>2015-10-15T17:11:18Z</time>
      </trkpt>
      <trkpt lat="44.19338" lon="3.21552">
        <ele>583</ele>
        <time>2015-10-15T17:13:18Z</time>
      </trkpt>
      <trkpt lat="44.19337" lon="3.21543">
        <ele>583</ele>
        <time>2015-10-15T17:15:18Z</time>
      </trkpt>
      <trkpt lat="44.19338" lon="3.21536">
        <ele>584</ele>
        <time>2015-10-15T17:17:18Z</time>
      </trkpt>
      <trkpt lat="44.19337" lon="3.2153">
        <ele>585</ele>
        <time>2015-10-15T17:19:18Z</time>
      </trkpt>
      <trkpt lat="44.19341" lon="3.2153">
        <ele>585</ele>
        <time>2015-10-15T17:21:18Z</time>
      </trkpt>
      <trkpt lat="44.19347" lon="3.21548">
        <ele>585</ele>
        <time>2015-10-15T17:23:18Z</time>
      </trkpt>
      <trkpt lat="44.19349" lon="3.21561">
        <ele>585</ele>
        <time>2015-10-15T17:25:18Z</time>
      </trkpt>
      <trkpt lat="44.19354" lon="3.21579">
        <ele>586</ele>
        <time>2015-10-15T17:27:18Z</time>
      </trkpt>
      <trkpt lat="44.19358" lon="3.21595">
        <ele>584</ele>
        <time>2015-10-15T17:29:18Z</time>
      </trkpt>
      <trkpt lat="44.19358" lon="3.21598">
        <ele>583</ele>
        <time>2015-10-15T17:31:18Z</time>
      </trkpt>
      <trkpt lat="44.19364" lon="3.21613">
        <ele>583</ele>
        <time>2015-10-15T17:33:18Z</time>
      </trkpt>
      <trkpt lat="44.19364" lon="3.21615">
        <ele>582</ele>
        <time>2015-10-15T17:35:18Z</time>
      </trkpt>
      <trkpt lat="44.19368" lon="3.21625">
        <ele>582</ele>
        <time>2015-10-15T17:37:18Z</time>
      </trkpt>
      <trkpt lat="44.19374" lon="3.21634">
        <ele>583</ele>
        <time>2015-10-15T17:39:18Z</time>
      </trkpt>
      <trkpt lat="44.19377" lon="3.21643">
        <ele>583</ele>
        <time>2015-10-15T17:41:18Z</time>
      </trkpt>
      <trkpt lat="44.19379" lon="3.21649">
        <ele>582</ele>
        <time>2015-10-15T17:43:18Z</time>
      </trkpt>
      <trkpt lat="44.19385" lon="3.21662">
        <ele>583</ele>
        <time>2015-10-15T17:45:18Z</time>
      </trkpt>
      <trkpt lat="44.19391" lon="3.21672">
        <ele>585</ele>
        <time>2015-10-15T17:47:18Z</time>
      </trkpt>
      <trkpt lat="44.19393" lon="3.21675">
        <ele>586</ele>
        <time>2015-10-15T17:49:18Z</time>
      </trkpt>
      <trkpt lat="44.19394" lon="3.21677">
        <ele>586</ele>
        <time>2015-10-15T17:51:18Z</time>
      </trkpt>
      <trkpt lat="44.19397" lon="3.21681">
        <ele>587</ele>
        <time>2015-10-15T17:53:18Z</time>
      </trkpt>
      <trkpt lat="44.19401" lon="3.21693">
        <ele>588</ele>
        <time>2015-10-15T17:55:18Z</time>
      </trkpt>
      <trkpt lat="44.19404" lon="3.217">
        <ele>588</ele>
        <time>2015-10-15T17:57:18Z</time>
      </trkpt>
      <trkpt lat="44.1941" lon="3.21716">
        <ele>590</ele>
        <time>2015-10-15T17:59:18Z</time>
      </trkpt>
      <trkpt lat="44.19411" lon="3.21719">
        <ele>590</ele>
        <time>2015-10-15T18:01:18Z</time>
      </trkpt>
      <trkpt lat="44.19413" lon="3.21734">
        <ele>589</ele>
        <time>2015-10-15T18:03:18Z</time>
      </trkpt>
      <trkpt lat="44.19409" lon="3.21751">
        <ele>584</ele>
        <time>2015-10-15T18:05:18Z</time>
      </trkpt>
      <trkpt lat="44.19402" lon="3.21767">
        <ele>583</ele>
        <time>2015-10-15T18:07:18Z</time>
      </trkpt>
      <trkpt lat="44.19399" lon="3.21776">
        <ele>582</ele>
        <time>2015-10-15T18:09:18Z</time>
      </trkpt>
      <trkpt lat="44.19391" lon="3.21791">
        <ele>580</ele>
        <time>2015-10-15T18:11:18Z</time>
      </trkpt>
      <trkpt lat="44.19391" lon="3.21799">
        <ele>581</ele>
        <time>2015-10-15T18:13:18Z</time>
      </trkpt>
      <trkpt lat="44.19388" lon="3.21816">
        <ele>582</ele>
        <time>2015-10-15T18:15:18Z</time>
      </trkpt>
      <trkpt lat="44.19383" lon="3.21828">
        <ele>580</ele>
        <time>2015-10-15T18:17:18Z</time>
      </trkpt>
      <trkpt lat="44.19379" lon="3.21844">
        <ele>580</ele>
        <time>2015-10-15T18:19:18Z</time>
      </trkpt>
      <trkpt lat="44.19378" lon="3.21846">
        <ele>580</ele>
        <time>2015-10-15T18:21:18Z</time>
      </trkpt>
      <trkpt lat="44.19375" lon="3.2186">
        <ele>581</ele>
        <time>2015-10-15T18:23:18Z</time>
      </trkpt>
      <trkpt lat="44.19374" lon="3.21876">
        <ele>583</ele>
        <time>2015-10-15T18:25:18Z</time>
      </trkpt>
      <trkpt lat="44.19377" lon="3.2189">
        <ele>588</ele>
        <time>2015-10-15T18:27:18Z</time>
      </trkpt>
      <trkpt lat="44.1938" lon="3.21897">
        <ele>592</ele>
        <time>2015-10-15T18:29:18Z</time>
      </trkpt>
      <trkpt lat="44.19382" lon="3.21906">
        <ele>596</ele>
        <time>2015-10-15T18:31:18Z</time>
      </trkpt>
      <trkpt lat="44.19382" lon="3.21915">
        <ele>598</ele>
        <time>2015-10-15T18:33:18Z</time>
      </trkpt>
      <trkpt lat="44.19383" lon="3.2192">
        <ele>599</ele>
        <time>2015-10-15T18:35:18Z</time>
      </trkpt>
      <trkpt lat="44.19385" lon="3.2193">
        <ele>601</ele>
        <time>2015-10-15T18:37:18Z</time>
      </trkpt>
      <trkpt lat="44.19386" lon="3.21941">
        <ele>602</ele>
        <time>2015-10-15T18:39:18Z</time>
      </trkpt>
      <trkpt lat="44.19384" lon="3.21951">
        <ele>600</ele>
        <time>2015-10-15T18:41:18Z</time>
      </trkpt>
      <trkpt lat="44.19383" lon="3.21953">
        <ele>599</ele>
        <time>2015-10-15T18:43:18Z</time>
      </trkpt>
      <trkpt lat="44.19381" lon="3.21969">
        <ele>597</ele>
        <time>2015-10-15T18:45:18Z</time>
      </trkpt>
      <trkpt lat="44.19379" lon="3.21985">
        <ele>595</ele>
        <time>2015-10-15T18:47:18Z</time>
      </trkpt>
      <trkpt lat="44.19377" lon="3.22011">
        <ele>591</ele>
        <time>2015-10-15T18:49:18Z</time>
      </trkpt>
      <trkpt lat="44.1938" lon="3.22027">
        <ele>590</ele>
        <time>2015-10-15T18:51:18Z</time>
      </trkpt>
      <trkpt lat="44.19384" lon="3.22043">
        <ele>589</ele>
        <time>2015-10-15T18:53:18Z</time>
      </trkpt>
      <trkpt lat="44.1939" lon="3.22055">
        <ele>590</ele>
        <time>2015-10-15T18:55:18Z</time>
      </trkpt>
      <trkpt lat="44.19394" lon="3.22065">
        <ele>589</ele>
        <time>2015-10-15T18:57:18Z</time>
      </trkpt>
      <trkpt lat="44.19395" lon="3.22069">
        <ele>589</ele>
        <time>2015-10-15T18:59:18Z</time>
      </trkpt>
      <trkpt lat="44.19398" lon="3.22077">
        <ele>588</ele>
        <time>2015-10-15T19:01:18Z</time>
      </trkpt>
      <trkpt lat="44.19399" lon="3.22078">
        <ele>588</ele>
        <time>2015-10-15T19:03:18Z</time>
      </trkpt>
      <trkpt lat="44.19423" lon="3.22094">
        <ele>596</ele>
        <time>2015-10-15T19:05:18Z</time>
      </trkpt>
      <trkpt lat="44.19435" lon="3.22101">
        <ele>602</ele>
        <time>2015-10-15T19:07:18Z</time>
      </trkpt>
      <trkpt lat="44.19438" lon="3.22102">
        <ele>604</ele>
        <time>2015-10-15T19:09:18Z</time>
      </trkpt>
      <trkpt lat="44.19453" lon="3.2211">
        <ele>611</ele>
        <time>2015-10-15T19:11:18Z</time>
      </trkpt>
      <trkpt lat="44.19468" lon="3.22114">
        <ele>619</ele>
        <time>2015-10-15T19:13:18Z</time>
      </trkpt>
      <trkpt lat="44.19485" lon="3.22123">
        <ele>625</ele>
        <time>2015-10-15T19:15:18Z</time>
      </trkpt>
      <trkpt lat="44.19499" lon="3.22126">
        <ele>631</ele>
        <time>2015-10-15T19:17:18Z</time>
      </trkpt>
      <trkpt lat="44.19504" lon="3.22126">
        <ele>634</ele>
        <time>2015-10-15T19:19:18Z</time>
      </trkpt>
      <trkpt lat="44.19508" lon="3.22127">
        <ele>635</ele>
        <time>2015-10-15T19:21:18Z</time>
      </trkpt>
      <trkpt lat="44.1952" lon="3.22131">
        <ele>639</ele>
        <time>2015-10-15T19:23:18Z</time>
      </trkpt>
      <trkpt lat="44.19534" lon="3.22141">
        <ele>642</ele>
        <time>2015-10-15T19:25:18Z</time>
      </trkpt>
      <trkpt lat="44.19544" lon="3.22149">
        <ele>644</ele>
        <time>2015-10-15T19:27:18Z</time>
      </trkpt>
      <trkpt lat="44.19545" lon="3.22157">
        <ele>641</ele>
        <time>2015-10-15T19:29:18Z</time>
      </trkpt>
      <trkpt lat="44.19525" lon="3.22174">
        <ele>623</ele>
        <time>2015-10-15T19:31:18Z</time>
      </trkpt>
      <trkpt lat="44.19516" lon="3.22184">
        <ele>617</ele>
        <time>2015-10-15T19:33:18Z</time>
      </trkpt>
      <trkpt lat="44.19512" lon="3.22195">
        <ele>614</ele>
        <time>2015-10-15T19:35:18Z</time>
      </trkpt>
      <trkpt lat="44.19507" lon="3.22206">
        <ele>611</ele>
        <time>2015-10-15T19:37:18Z</time>
      </trkpt>
      <trkpt lat="44.19503" lon="3.22225">
        <ele>609</ele>
        <time>2015-10-15T19:39:18Z</time>
      </trkpt>
      <trkpt lat="44.19504" lon="3.22231">
        <ele>609</ele>
        <time>2015-10-15T19:41:18Z</time>
      </trkpt>
      <trkpt lat="44.19504" lon="3.2224">
        <ele>609</ele>
        <time>2015-10-15T19:43:18Z</time>
      </trkpt>
      <trkpt lat="44.19498" lon="3.22251">
        <ele>606</ele>
        <time>2015-10-15T19:45:18Z</time>
      </trkpt>
      <trkpt lat="44.19501" lon="3.2226">
        <ele>606</ele>
        <time>2015-10-15T19:47:18Z</time>
      </trkpt>
      <trkpt lat="44.1951" lon="3.22271">
        <ele>609</ele>
        <time>2015-10-15T19:49:18Z</time>
      </trkpt>
      <trkpt lat="44.19516" lon="3.22278">
        <ele>611</ele>
        <time>2015-10-15T19:51:18Z</time>
      </trkpt>
      <trkpt lat="44.1952" lon="3.22281">
        <ele>613</ele>
        <time>2015-10-15T19:53:18Z</time>
      </trkpt>
      <trkpt lat="44.1953" lon="3.22306">
        <ele>614</ele>
        <time>2015-10-15T19:55:18Z</time>
      </trkpt>
      <trkpt lat="44.19537" lon="3.22321">
        <ele>616</ele>
        <time>2015-10-15T19:57:18Z</time>
      </trkpt>
      <trkpt lat="44.19542" lon="3.22332">
        <ele>617</ele>
        <time>2015-10-15T19:59:18Z</time>
      </trkpt>
      <trkpt lat="44.19552" lon="3.22342">
        <ele>624</ele>
        <time>2015-10-15T20:01:18Z</time>
      </trkpt>
      <trkpt lat="44.19559" lon="3.22352">
        <ele>628</ele>
        <time>2015-10-15T20:03:18Z</time>
      </trkpt>
      <trkpt lat="44.19563" lon="3.22363">
        <ele>631</ele>
        <time>2015-10-15T20:05:18Z</time>
      </trkpt>
      <trkpt lat="44.19564" lon="3.22367">
        <ele>632</ele>
        <time>2015-10-15T20:07:18Z</time>
      </trkpt>
      <trkpt lat="44.19555" lon="3.22376">
        <ele>628</ele>
        <time>2015-10-15T20:09:18Z</time>
      </trkpt>
      <trkpt lat="44.19548" lon="3.22383">
        <ele>625</ele>
        <time>2015-10-15T20:11:18Z</time>
      </trkpt>
      <trkpt lat="44.19543" lon="3.22383">
        <ele>623</ele>
        <time>2015-10-15T20:13:18Z</time>
      </trkpt>
      <trkpt lat="44.1954" lon="3.22385">
        <ele>622</ele>
        <time>2015-10-15T20:15:18Z</time>
      </trkpt>
      <trkpt lat="44.19538" lon="3.22387">
        <ele>621</ele>
        <time>2015-10-15T20:17:18Z</time>
      </trkpt>
      <trkpt lat="44.19541" lon="3.22389">
        <ele>623</ele>
        <time>2015-10-15T20:19:18Z</time>
      </trkpt>
      <trkpt lat="44.19554" lon="3.22388">
        <ele>628</ele>
        <time>2015-10-15T20:21:18Z</time>
      </trkpt>
      <trkpt lat="44.19555" lon="3.22395">
        <ele>629</ele>
        <time>2015-10-15T20:23:18Z</time>
      </trkpt>
      <trkpt lat="44.19549" lon="3.22406">
        <ele>628</ele>
        <time>2015-10-15T20:25:18Z</time>
      </trkpt>
      <trkpt lat="44.19566" lon="3.22411">
        <ele>635</ele>
        <time>2015-10-15T20:27:18Z</time>
      </trkpt>
      <trkpt lat="44.19571" lon="3.22406">
        <ele>636</ele>
        <time>2015-10-15T20:29:18Z</time>
      </trkpt>
      <trkpt lat="44.19575" lon="3.22405">
        <ele>638</ele>
        <time>2015-10-15T20:31:18Z</time>
      </trkpt>
      <trkpt lat="44.19576" lon="3.22412">
        <ele>638</ele>
        <time>2015-10-15T20:33:18Z</time>
      </trkpt>
      <trkpt lat="44.19572" lon="3.22422">
        <ele>638</ele>
        <time>2015-10-15T20:35:18Z</time>
      </trkpt>
      <trkpt lat="44.19569" lon="3.22424">
        <ele>638</ele>
        <time>2015-10-15T20:37:18Z</time>
      </trkpt>
      <trkpt lat="44.19563" lon="3.22424">
        <ele>635</ele>
        <time>2015-10-15T20:39:18Z</time>
      </trkpt>
      <trkpt lat="44.19559" lon="3.22427">
        <ele>635</ele>
        <time>2015-10-15T20:41:18Z</time>
      </trkpt>
      <trkpt lat="44.19557" lon="3.22427">
        <ele>634</ele>
        <time>2015-10-15T20:43:18Z</time>
      </trkpt>
      <trkpt lat="44.19554" lon="3.22431">
        <ele>634</ele>
        <time>2015-10-15T20:45:18Z</time>
      </trkpt>
      <trkpt lat="44.19556" lon="3.22433">
        <ele>635</ele>
        <time>2015-10-15T20:47:18Z</time>
      </trkpt>
      <trkpt lat="44.19568" lon="3.22435">
        <ele>640</ele>
        <time>2015-10-15T20:49:18Z</time>
      </trkpt>
      <trkpt lat="44.19575" lon="3.22437">
        <ele>643</ele>
        <time>2015-10-15T20:51:18Z</time>
      </trkpt>
      <trkpt lat="44.19578" lon="3.22437">
        <ele>644</ele>
        <time>2015-10-15T20:53:18Z</time>
      </trkpt>
      <trkpt lat="44.1958" lon="3.22437">
        <ele>645</ele>
        <time>2015-10-15T20:55:18Z</time>
      </trkpt>
      <trkpt lat="44.19584" lon="3.22433">
        <ele>645</ele>
        <time>2015-10-15T20:57:18Z</time>
      </trkpt>
      <trkpt lat="44.19589" lon="3.22433">
        <ele>647</ele>
        <time>2015-10-15T20:59:18Z</time>
      </trkpt>
      <trkpt lat="44.1959" lon="3.22436">
        <ele>648</ele>
        <time>2015-10-15T21:01:18Z</time>
      </trkpt>
      <trkpt lat="44.19588" lon="3.22443">
        <ele>649</ele>
        <time>2015-10-15T21:03:18Z</time>
      </trkpt>
      <trkpt lat="44.19588" lon="3.22444">
        <ele>650</ele>
        <time>2015-10-15T21:05:18Z</time>
      </trkpt>
      <trkpt lat="44.19584" lon="3.22448">
        <ele>649</ele>
        <time>2015-10-15T21:07:18Z</time>
      </trkpt>
      <trkpt lat="44.19586" lon="3.2245">
        <ele>650</ele>
        <time>2015-10-15T21:09:18Z</time>
      </trkpt>
      <trkpt lat="44.19588" lon="3.22446">
        <ele>650</ele>
        <time>2015-10-15T21:11:18Z</time>
      </trkpt>
      <trkpt lat="44.19592" lon="3.22443">
        <ele>651</ele>
        <time>2015-10-15T21:13:18Z</time>
      </trkpt>
      <trkpt lat="44.19595" lon="3.22439">
        <ele>651</ele>
        <time>2015-10-15T21:15:18Z</time>
      </trkpt>
      <trkpt lat="44.19597" lon="3.22438">
        <ele>652</ele>
        <time>2015-10-15T21:17:18Z</time>
      </trkpt>
      <trkpt lat="44.19603" lon="3.22437">
        <ele>654</ele>
        <time>2015-10-15T21:19:18Z</time>
      </trkpt>
      <trkpt lat="44.19606" lon="3.22436">
        <ele>655</ele>
        <time>2015-10-15T21:21:18Z</time>
      </trkpt>
      <trkpt lat="44.19609" lon="3.22433">
        <ele>656</ele>
        <time>2015-10-15T21:23:18Z</time>
      </trkpt>
      <trkpt lat="44.19617" lon="3.22425">
        <ele>657</ele>
        <time>2015-10-15T21:25:18Z</time>
      </trkpt>
      <trkpt lat="44.19625" lon="3.2242">
        <ele>659</ele>
        <time>2015-10-15T21:27:18Z</time>
      </trkpt>
      <trkpt lat="44.19626" lon="3.22417">
        <ele>658</ele>
        <time>2015-10-15T21:29:18Z</time>
      </trkpt>
      <trkpt lat="44.19631" lon="3.22414">
        <ele>661</ele>
        <time>2015-10-15T21:31:18Z</time>
      </trkpt>
      <trkpt lat="44.19632" lon="3.22412">
        <ele>661</ele>
        <time>2015-10-15T21:33:18Z</time>
      </trkpt>
      <trkpt lat="44.19639" lon="3.2241">
        <ele>664</ele>
        <time>2015-10-15T21:35:18Z</time>
      </trkpt>
      <trkpt lat="44.19641" lon="3.22409">
        <ele>665</ele>
        <time>2015-10-15T21:37:18Z</time>
      </trkpt>
      <trkpt lat="44.1964" lon="3.22404">
        <ele>665</ele>
        <time>2015-10-15T21:39:18Z</time>
      </trkpt>
      <trkpt lat="44.19641" lon="3.22395">
        <ele>666</ele>
        <time>2015-10-15T21:41:18Z</time>
      </trkpt>
      <trkpt lat="44.19643" lon="3.22384">
        <ele>668</ele>
        <time>2015-10-15T21:43:18Z</time>
      </trkpt>
      <trkpt lat="44.19642" lon="3.22382">
        <ele>668</ele>
        <time>2015-10-15T21:45:18Z</time>
      </trkpt>
      <trkpt lat="44.19648" lon="3.22377">
        <ele>671</ele>
        <time>2015-10-15T21:47:18Z</time>
      </trkpt>
      <trkpt lat="44.19654" lon="3.22383">
        <ele>673</ele>
        <time>2015-10-15T21:49:18Z</time>
      </trkpt>
      <trkpt lat="44.19658" lon="3.22389">
        <ele>674</ele>
        <time>2015-10-15T21:51:18Z</time>
      </trkpt>
      <trkpt lat="44.1966" lon="3.22389">
        <ele>675</ele>
        <time>2015-10-15T21:53:18Z</time>
      </trkpt>
      <trkpt lat="44.19661" lon="3.22386">
        <ele>676</ele>
        <time>2015-10-15T21:55:18Z</time>
      </trkpt>
      <trkpt lat="44.19661" lon="3.22378">
        <ele>677</ele>
        <time>2015-10-15T21:57:18Z</time>
      </trkpt>
      <trkpt lat="44.19659" lon="3.22375">
        <ele>676</ele>
        <time>2015-10-15T21:59:18Z</time>
      </trkpt>
      <trkpt lat="44.19661" lon="3.22371">
        <ele>678</ele>
        <time>2015-10-15T22:01:18Z</time>
      </trkpt>
      <trkpt lat="44.19661" lon="3.22365">
        <ele>679</ele>
        <time>2015-10-15T22:03:18Z</time>
      </trkpt>
      <trkpt lat="44.19658" lon="3.22362">
        <ele>677</ele>
        <time>2015-10-15T22:05:18Z</time>
      </trkpt>
      <trkpt lat="44.19656" lon="3.22353">
        <ele>677</ele>
        <time>2015-10-15T22:07:18Z</time>
      </trkpt>
      <trkpt lat="44.19656" lon="3.22347">
        <ele>678</ele>
        <time>2015-10-15T22:09:18Z</time>
      </trkpt>
      <trkpt lat="44.19657" lon="3.22346">
        <ele>679</ele>
        <time>2015-10-15T22:11:18Z</time>
      </trkpt>
      <trkpt lat="44.19655" lon="3.22338">
        <ele>678</ele>
        <time>2015-10-15T22:13:18Z</time>
      </trkpt>
      <trkpt lat="44.19649" lon="3.22335">
        <ele>676</ele>
        <time>2015-10-15T22:15:18Z</time>
      </trkpt>
      <trkpt lat="44.19648" lon="3.22335">
        <ele>675</ele>
        <time>2015-10-15T22:17:18Z</time>
      </trkpt>
      <trkpt lat="44.19646" lon="3.22331">
        <ele>675</ele>
        <time>2015-10-15T22:19:18Z</time>
      </trkpt>
      <trkpt lat="44.19644" lon="3.22328">
        <ele>674</ele>
        <time>2015-10-15T22:21:18Z</time>
      </trkpt>
      <trkpt lat="44.19638" lon="3.22326">
        <ele>672</ele>
        <time>2015-10-15T22:23:18Z</time>
      </trkpt>
      <trkpt lat="44.19638" lon="3.22321">
        <ele>673</ele>
        <time>2015-10-15T22:25:18Z</time>
      </trkpt>
      <trkpt lat="44.19642" lon="3.22322">
        <ele>675</ele>
        <time>2015-10-15T22:27:18Z</time>
      </trkpt>
      <trkpt lat="44.19647" lon="3.22328">
        <ele>676</ele>
        <time>2015-10-15T22:29:18Z</time>
      </trkpt>
      <trkpt lat="44.1965" lon="3.2233">
        <ele>677</ele>
        <time>2015-10-15T22:31:18Z</time>
      </trkpt>
      <trkpt lat="44.19653" lon="3.22337">
        <ele>678</ele>
        <time>2015-10-15T22:33:18Z</time>
      </trkpt>
      <trkpt lat="44.19656" lon="3.22338">
        <ele>679</ele>
        <time>2015-10-15T22:35:18Z</time>
      </trkpt>
      <trkpt lat="44.19662" lon="3.2234">
        <ele>682</ele>
        <time>2015-10-15T22:37:18Z</time>
      </trkpt>
      <trkpt lat="44.19672" lon="3.22345">
        <ele>686</ele>
        <time>2015-10-15T22:39:18Z</time>
      </trkpt>
      <trkpt lat="44.19677" lon="3.22349">
        <ele>688</ele>
        <time>2015-10-15T22:41:18Z</time>
      </trkpt>
      <trkpt lat="44.19681" lon="3.22345">
        <ele>691</ele>
        <time>2015-10-15T22:43:18Z</time>
      </trkpt>
      <trkpt lat="44.19687" lon="3.22345">
        <ele>694</ele>
        <time>2015-10-15T22:45:18Z</time>
      </trkpt>
      <trkpt lat="44.19693" lon="3.22349">
        <ele>697</ele>
        <time>2015-10-15T22:47:18Z</time>
      </trkpt>
      <trkpt lat="44.19697" lon="3.22353">
        <ele>698</ele>
        <time>2015-10-15T22:49:18Z</time>
      </trkpt>
      <trkpt lat="44.19701" lon="3.22363">
        <ele>699</ele>
        <time>2015-10-15T22:51:18Z</time>
      </trkpt>
      <trkpt lat="44.19705" lon="3.2237">
        <ele>700</ele>
        <time>2015-10-15T22:53:18Z</time>
      </trkpt>
      <trkpt lat="44.19714" lon="3.22378">
        <ele>704</ele>
        <time>2015-10-15T22:55:18Z</time>
      </trkpt>
      <trkpt lat="44.19718" lon="3.22385">
        <ele>705</ele>
        <time>2015-10-15T22:57:18Z</time>
      </trkpt>
      <trkpt lat="44.19719" lon="3.22389">
        <ele>705</ele>
        <time>2015-10-15T22:59:18Z</time>
      </trkpt>
      <trkpt lat="44.19723" lon="3.22395">
        <ele>707</ele>
        <time>2015-10-15T23:01:18Z</time>
      </trkpt>
      <trkpt lat="44.19724" lon="3.224">
        <ele>707</ele>
        <time>2015-10-15T23:03:18Z</time>
      </trkpt>
      <trkpt lat="44.19725" lon="3.22401">
        <ele>707</ele>
        <time>2015-10-15T23:05:18Z</time>
      </trkpt>
      <trkpt lat="44.19725" lon="3.22414">
        <ele>705</ele>
        <time>2015-10-15T23:07:18Z</time>
      </trkpt>
      <trkpt lat="44.19722" lon="3.22424">
        <ele>705</ele>
        <time>2015-10-15T23:09:18Z</time>
      </trkpt>
      <trkpt lat="44.19719" lon="3.22435">
        <ele>706</ele>
        <time>2015-10-15T23:11:18Z</time>
      </trkpt>
      <trkpt lat="44.1972" lon="3.22443">
        <ele>708</ele>
        <time>2015-10-15T23:13:18Z</time>
      </trkpt>
      <trkpt lat="44.19719" lon="3.22445">
        <ele>708</ele>
        <time>2015-10-15T23:15:18Z</time>
      </trkpt>
      <trkpt lat="44.19719" lon="3.22452">
        <ele>710</ele>
        <time>2015-10-15T23:17:18Z</time>
      </trkpt>
      <trkpt lat="44.19723" lon="3.22464">
        <ele>714</ele>
        <time>2015-10-15T23:19:18Z</time>
      </trkpt>
      <trkpt lat="44.19722" lon="3.22467">
        <ele>714</ele>
        <time>2015-10-15T23:21:18Z</time>
      </trkpt>
      <trkpt lat="44.19725" lon="3.22468">
        <ele>716</ele>
        <time>2015-10-15T23:23:18Z</time>
      </trkpt>
      <trkpt lat="44.19725" lon="3.22466">
        <ele>715</ele>
        <time>2015-10-15T23:25:18Z</time>
      </trkpt>
      <trkpt lat="44.19726" lon="3.22461">
        <ele>715</ele>
        <time>2015-10-15T23:27:18Z</time>
      </trkpt>
      <trkpt lat="44.1973" lon="3.22454">
        <ele>715</ele>
        <time>2015-10-15T23:29:18Z</time>
      </trkpt>
      <trkpt lat="44.19732" lon="3.22447">
        <ele>715</ele>
        <time>2015-10-15T23:31:18Z</time>
      </trkpt>
      <trkpt lat="44.19735" lon="3.22442">
        <ele>715</ele>
        <time>2015-10-15T23:33:18Z</time>
      </trkpt>
      <trkpt lat="44.19738" lon="3.22437">
        <ele>716</ele>
        <time>2015-10-15T23:35:18Z</time>
      </trkpt>
      <trkpt lat="44.19744" lon="3.22431">
        <ele>718</ele>
        <time>2015-10-15T23:37:18Z</time>
      </trkpt>
      <trkpt lat="44.19745" lon="3.2243">
        <ele>718</ele>
        <time>2015-10-15T23:39:18Z</time>
      </trkpt>
      <trkpt lat="44.19746" lon="3.22425">
        <ele>717</ele>
        <time>2015-10-15T23:41:18Z</time>
      </trkpt>
      <trkpt lat="44.19745" lon="3.2242">
        <ele>716</ele>
        <time>2015-10-15T23:43:18Z</time>
      </trkpt>
      <trkpt lat="44.19746" lon="3.22412">
        <ele>716</ele>
        <time>2015-10-15T23:45:18Z</time>
      </trkpt>
      <trkpt lat="44.19746" lon="3.22411">
        <ele>717</ele>
        <time>2015-10-15T23:47:18Z</time>
      </trkpt>
      <trkpt lat="44.19748" lon="3.22411">
        <ele>718</ele>
        <time>2015-10-15T23:49:18Z</time>
      </trkpt>
      <trkpt lat="44.19754" lon="3.22421">
        <ele>721</ele>
        <time>2015-10-15T23:51:18Z</time>
      </trkpt>
      <trkpt lat="44.19756" lon="3.2243">
        <ele>724</ele>
        <time>2015-10-15T23:53:18Z</time>
      </trkpt>
      <trkpt lat="44.19758" lon="3.22438">
        <ele>726</ele>
        <time>2015-10-15T23:55:18Z</time>
      </trkpt>
      <trkpt lat="44.19757" lon="3.22441">
        <ele>726</ele>
        <time>2015-10-15T23:57:18Z</time>
      </trkpt>
      <trkpt lat="44.19756" lon="3.22448">
        <ele>727</ele>
        <time>2015-10-15T23:59:18Z</time>
      </trkpt>
      <trkpt lat="44.1975" lon="3.22461">
        <ele>726</ele>
        <time>2015-10-16T00:01:18Z</time>
      </trkpt>
      <trkpt lat="44.19749" lon="3.22466">
        <ele>726</ele>
        <time>2015-10-16T00:03:18Z</time>
      </trkpt>
      <trkpt lat="44.1975" lon="3.22474">
        <ele>728</ele>
        <time>2015-10-16T00:05:18Z</time>
      </trkpt>
      <trkpt lat="44.19747" lon="3.22482">
        <ele>728</ele>
        <time>2015-10-16T00:07:18Z</time>
      </trkpt>
      <trkpt lat="44.19747" lon="3.22491">
        <ele>730</ele>
        <time>2015-10-16T00:09:18Z</time>
      </trkpt>
      <trkpt lat="44.19746" lon="3.22495">
        <ele>730</ele>
        <time>2015-10-16T00:11:18Z</time>
      </trkpt>
      <trkpt lat="44.19743" lon="3.225">
        <ele>730</ele>
        <time>2015-10-16T00:13:18Z</time>
      </trkpt>
      <trkpt lat="44.19738" lon="3.22503">
        <ele>728</ele>
        <time>2015-10-16T00:15:18Z</time>
      </trkpt>
      <trkpt lat="44.19722" lon="3.22507">
        <ele>722</ele>
        <time>2015-10-16T00:17:18Z</time>
      </trkpt>
      <trkpt lat="44.1971" lon="3.22513">
        <ele>718</ele>
        <time>2015-10-16T00:19:18Z</time>
      </trkpt>
      <trkpt lat="44.19706" lon="3.22512">
        <ele>716</ele>
        <time>2015-10-16T00:21:18Z</time>
      </trkpt>
      <trkpt lat="44.19697" lon="3.22516">
        <ele>713</ele>
        <time>2015-10-16T00:23:18Z</time>
      </trkpt>
      <trkpt lat="44.19692" lon="3.2252">
        <ele>711</ele>
        <time>2015-10-16T00:25:18Z</time>
      </trkpt>
      <trkpt lat="44.19685" lon="3.22524">
        <ele>708</ele>
        <time>2015-10-16T00:27:18Z</time>
      </trkpt>
      <trkpt lat="44.19673" lon="3.22533">
        <ele>704</ele>
        <time>2015-10-16T00:29:18Z</time>
      </trkpt>
      <trkpt lat="44.19661" lon="3.22535">
        <ele>699</ele>
        <time>2015-10-16T00:31:18Z</time>
      </trkpt>
      <trkpt lat="44.19659" lon="3.22538">
        <ele>699</ele>
        <time>2015-10-16T00:33:18Z</time>
      </trkpt>
      <trkpt lat="44.19657" lon="3.22548">
        <ele>699</ele>
        <time>2015-10-16T00:35:18Z</time>
      </trkpt>
      <trkpt lat="44.19656" lon="3.22555">
        <ele>700</ele>
        <time>2015-10-16T00:37:18Z</time>
      </trkpt>
      <trkpt lat="44.19661" lon="3.22561">
        <ele>702</ele>
        <time>2015-10-16T00:39:18Z</time>
      </trkpt>
      <trkpt lat="44.19666" lon="3.22564">
        <ele>705</ele>
        <time>2015-10-16T00:41:18Z</time>
      </trkpt>
      <trkpt lat="44.19674" lon="3.22564">
        <ele>708</ele>
        <time>2015-10-16T00:43:18Z</time>
      </trkpt>
      <trkpt lat="44.19677" lon="3.22564">
        <ele>709</ele>
        <time>2015-10-16T00:45:18Z</time>
      </trkpt>
      <trkpt lat="44.19694" lon="3.22574">
        <ele>718</ele>
        <time>2015-10-16T00:47:18Z</time>
      </trkpt>
      <trkpt lat="44.19701" lon="3.22576">
        <ele>721</ele>
        <time>2015-10-16T00:49:18Z</time>
      </trkpt>
      <trkpt lat="44.19715" lon="3.22587">
        <ele>727</ele>
        <time>2015-10-16T00:51:18Z</time>
      </trkpt>
      <trkpt lat="44.19718" lon="3.22589">
        <ele>729</ele>
        <time>2015-10-16T00:53:18Z</time>
      </trkpt>
      <trkpt lat="44.19722" lon="3.22599">
        <ele>729</ele>
        <time>2015-10-16T00:55:18Z</time>
      </trkpt>
      <trkpt lat="44.19727" lon="3.22605">
        <ele>731</ele>
        <time>2015-10-16T00:57:18Z</time>
      </trkpt>
      <trkpt lat="44.19731" lon="3.22615">
        <ele>731</ele>
        <time>2015-10-16T00:59:18Z</time>
      </trkpt>
      <trkpt lat="44.19734" lon="3.22622">
        <ele>732</ele>
        <time>2015-10-16T01:01:18Z</time>
      </trkpt>
      <trkpt lat="44.19738" lon="3.22633">
        <ele>732</ele>
        <time>2015-10-16T01:03:18Z</time>
      </trkpt>
      <trkpt lat="44.1975" lon="3.22643">
        <ele>737</ele>
        <time>2015-10-16T01:05:18Z</time>
      </trkpt>
      <trkpt lat="44.19754" lon="3.22647">
        <ele>739</ele>
        <time>2015-10-16T01:07:18Z</time>
      </trkpt>
      <trkpt lat="44.19758" lon="3.22649">
        <ele>741</ele>
        <time>2015-10-16T01:09:18Z</time>
      </trkpt>
      <trkpt lat="44.19764" lon="3.22657">
        <ele>744</ele>
        <time>2015-10-16T01:11:18Z</time>
      </trkpt>
      <trkpt lat="44.19769" lon="3.22664">
        <ele>746</ele>
        <time>2015-10-16T01:13:18Z</time>
      </trkpt>
      <trkpt lat="44.19774" lon="3.22669">
        <ele>749</ele>
        <time>2015-10-16T01:15:18Z</time>
      </trkpt>
      <trkpt lat="44.19778" lon="3.22676">
        <ele>752</ele>
        <time>2015-10-16T01:17:18Z</time>
      </trkpt>
      <trkpt lat="44.19782" lon="3.2268">
        <ele>754</ele>
        <time>2015-10-16T01:19:18Z</time>
      </trkpt>
      <trkpt lat="44.19787" lon="3.22688">
        <ele>758</ele>
        <time>2015-10-16T01:21:18Z</time>
      </trkpt>
      <trkpt lat="44.19792" lon="3.22689">
        <ele>761</ele>
        <time>2015-10-16T01:23:18Z</time>
      </trkpt>
      <trkpt lat="44.19792" lon="3.22694">
        <ele>762</ele>
        <time>2015-10-16T01:25:18Z</time>
      </trkpt>
      <trkpt lat="44.19794" lon="3.22701">
        <ele>763</ele>
        <time>2015-10-16T01:27:18Z</time>
      </trkpt>
      <trkpt lat="44.19795" lon="3.22702">
        <ele>764</ele>
        <time>2015-10-16T01:29:18Z</time>
      </trkpt>
      <trkpt lat="44.19795" lon="3.22706">
        <ele>765</ele>
        <time>2015-10-16T01:31:18Z</time>
      </trkpt>
      <trkpt lat="44.19793" lon="3.22713">
        <ele>764</ele>
        <time>2015-10-16T01:33:18Z</time>
      </trkpt>
      <trkpt lat="44.19797" lon="3.2272">
        <ele>767</ele>
        <time>2015-10-16T01:35:18Z</time>
      </trkpt>
      <trkpt lat="44.19799" lon="3.22728">
        <ele>769</ele>
        <time>2015-10-16T01:37:18Z</time>
      </trkpt>
      <trkpt lat="44.19798" lon="3.22733">
        <ele>769</ele>
        <time>2015-10-16T01:39:18Z</time>
      </trkpt>
      <trkpt lat="44.19797" lon="3.22737">
        <ele>768</ele>
        <time>2015-10-16T01:41:18Z</time>
      </trkpt>
      <trkpt lat="44.19796" lon="3.22743">
        <ele>768</ele>
        <time>2015-10-16T01:43:18Z</time>
      </trkpt>
      <trkpt lat="44.19793" lon="3.22747">
        <ele>767</ele>
        <time>2015-10-16T01:45:18Z</time>
      </trkpt>
      <trkpt lat="44.19792" lon="3.22747">
        <ele>766</ele>
        <time>2015-10-16T01:47:18Z</time>
      </trkpt>
      <trkpt lat="44.19787" lon="3.22752">
        <ele>765</ele>
        <time>2015-10-16T01:49:18Z</time>
      </trkpt>
      <trkpt lat="44.19782" lon="3.22754">
        <ele>762</ele>
        <time>2015-10-16T01:51:18Z</time>
      </trkpt>
      <trkpt lat="44.19776" lon="3.22764">
        <ele>763</ele>
        <time>2015-10-16T01:53:18Z</time>
      </trkpt>
      <trkpt lat="44.19775" lon="3.22769">
        <ele>764</ele>
        <time>2015-10-16T01:55:18Z</time>
      </trkpt>
      <trkpt lat="44.19774" lon="3.22782">
        <ele>769</ele>
        <time>2015-10-16T01:57:18Z</time>
      </trkpt>
      <trkpt lat="44.19776" lon="3.22794">
        <ele>775</ele>
        <time>2015-10-16T01:59:18Z</time>
      </trkpt>
      <trkpt lat="44.19775" lon="3.22809">
        <ele>780</ele>
        <time>2015-10-16T02:01:18Z</time>
      </trkpt>
      <trkpt lat="44.19769" lon="3.22816">
        <ele>780</ele>
        <time>2015-10-16T02:03:18Z</time>
      </trkpt>
      <trkpt lat="44.19763" lon="3.22827">
        <ele>781</ele>
        <time>2015-10-16T02:05:18Z</time>
      </trkpt>
      <trkpt lat="44.19759" lon="3.22829">
        <ele>780</ele>
        <time>2015-10-16T02:07:18Z</time>
      </trkpt>
      <trkpt lat="44.19743" lon="3.22838">
        <ele>778</ele>
        <time>2015-10-16T02:09:18Z</time>
      </trkpt>
      <trkpt lat="44.19736" lon="3.22844">
        <ele>780</ele>
        <time>2015-10-16T02:11:18Z</time>
      </trkpt>
      <trkpt lat="44.19728" lon="3.22846">
        <ele>779</ele>
        <time>2015-10-16T02:13:18Z</time>
      </trkpt>
      <trkpt lat="44.19726" lon="3.22855">
        <ele>784</ele>
        <time>2015-10-16T02:15:18Z</time>
      </trkpt>
      <trkpt lat="44.19726" lon="3.22858">
        <ele>786</ele>
        <time>2015-10-16T02:17:18Z</time>
      </trkpt>
      <trkpt lat="44.19716" lon="3.2286">
        <ele>785</ele>
        <time>2015-10-16T02:19:18Z</time>
      </trkpt>
      <trkpt lat="44.19698" lon="3.22852">
        <ele>776</ele>
        <time>2015-10-16T02:21:18Z</time>
      </trkpt>
      <trkpt lat="44.19682" lon="3.22848">
        <ele>771</ele>
        <time>2015-10-16T02:23:18Z</time>
      </trkpt>
      <trkpt lat="44.19667" lon="3.22846">
        <ele>767</ele>
        <time>2015-10-16T02:25:18Z</time>
      </trkpt>
      <trkpt lat="44.19663" lon="3.22845">
        <ele>766</ele>
        <time>2015-10-16T02:27:18Z</time>
      </trkpt>
      <trkpt lat="44.19651" lon="3.22845">
        <ele>764</ele>
        <time>2015-10-16T02:29:18Z</time>
      </trkpt>
      <trkpt lat="44.19644" lon="3.22843">
        <ele>762</ele>
        <time>2015-10-16T02:31:18Z</time>
      </trkpt>
      <trkpt lat="44.19631" lon="3.22845">
        <ele>762</ele>
        <time>2015-10-16T02:33:18Z</time>
      </trkpt>
      <trkpt lat="44.19623" lon="3.22849">
        <ele>763</ele>
        <time>2015-10-16T02:35:18Z</time>
      </trkpt>
      <trkpt lat="44.19617" lon="3.22856">
        <ele>765</ele>
        <time>2015-10-16T02:37:18Z</time>
      </trkpt>
      <trkpt lat="44.19604" lon="3.22857">
        <ele>764</ele>
        <time>2015-10-16T02:39:18Z</time>
      </trkpt>
      <trkpt lat="44.19595" lon="3.22858">
        <ele>764</ele>
        <time>2015-10-16T02:41:18Z</time>
      </trkpt>
      <trkpt lat="44.19592" lon="3.2286">
        <ele>764</ele>
        <time>2015-10-16T02:43:18Z</time>
      </trkpt>
      <trkpt lat="44.19585" lon="3.22867">
        <ele>767</ele>
        <time>2015-10-16T02:45:18Z</time>
      </trkpt>
      <trkpt lat="44.19579" lon="3.22869">
        <ele>766</ele>
        <time>2015-10-16T02:47:18Z</time>
      </trkpt>
      <trkpt lat="44.19576" lon="3.2287">
        <ele>766</ele>
        <time>2015-10-16T02:49:18Z</time>
      </trkpt>
      <trkpt lat="44.19573" lon="3.22872">
        <ele>766</ele>
        <time>2015-10-16T02:51:18Z</time>
      </trkpt>
      <trkpt lat="44.19561" lon="3.22871">
        <ele>761</ele>
        <time>2015-10-16T02:53:18Z</time>
      </trkpt>
      <trkpt lat="44.19558" lon="3.22871">
        <ele>760</ele>
        <time>2015-10-16T02:55:18Z</time>
      </trkpt>
      <trkpt lat="44.19554" lon="3.22874">
        <ele>760</ele>
        <time>2015-10-16T02:57:18Z</time>
      </trkpt>
      <trkpt lat="44.19553" lon="3.22877">
        <ele>762</ele>
        <time>2015-10-16T02:59:18Z</time>
      </trkpt>
      <trkpt lat="44.19551" lon="3.22891">
        <ele>768</ele>
        <time>2015-10-16T03:01:18Z</time>
      </trkpt>
      <trkpt lat="44.1955" lon="3.22897">
        <ele>771</ele>
        <time>2015-10-16T03:03:18Z</time>
      </trkpt>
      <trkpt lat="44.19545" lon="3.22905">
        <ele>774</ele>
        <time>2015-10-16T03:05:18Z</time>
      </trkpt>
      <trkpt lat="44.19541" lon="3.22907">
        <ele>773</ele>
        <time>2015-10-16T03:07:18Z</time>
      </trkpt>
      <trkpt lat="44.19535" lon="3.22918">
        <ele>777</ele>
        <time>2015-10-16T03:09:18Z</time>
      </trkpt>
      <trkpt lat="44.19529" lon="3.22918">
        <ele>775</ele>
        <time>2015-10-16T03:11:18Z</time>
      </trkpt>
      <trkpt lat="44.19523" lon="3.22917">
        <ele>773</ele>
        <time>2015-10-16T03:13:18Z</time>
      </trkpt>
      <trkpt lat="44.19514" lon="3.22917">
        <ele>770</ele>
        <time>2015-10-16T03:15:18Z</time>
      </trkpt>
      <trkpt lat="44.195" lon="3.22912">
        <ele>763</ele>
        <time>2015-10-16T03:17:18Z</time>
      </trkpt>
      <trkpt lat="44.1949" lon="3.22913">
        <ele>755</ele>
        <time>2015-10-16T03:19:18Z</time>
      </trkpt>
      <trkpt lat="44.19481" lon="3.22922">
        <ele>751</ele>
        <time>2015-10-16T03:21:18Z</time>
      </trkpt>
      <trkpt lat="44.19477" lon="3.22926">
        <ele>749</ele>
        <time>2015-10-16T03:23:18Z</time>
      </trkpt>
      <trkpt lat="44.19474" lon="3.22929">
        <ele>748</ele>
        <time>2015-10-16T03:25:18Z</time>
      </trkpt>
      <trkpt lat="44.19465" lon="3.22939">
        <ele>744</ele>
        <time>2015-10-16T03:27:18Z</time>
      </trkpt>
      <trkpt lat="44.19462" lon="3.22946">
        <ele>744</ele>
        <time>2015-10-16T03:29:18Z</time>
      </trkpt>
      <trkpt lat="44.1946" lon="3.22949">
        <ele>744</ele>
        <time>2015-10-16T03:31:18Z</time>
      </trkpt>
      <trkpt lat="44.19454" lon="3.22955">
        <ele>741</ele>
        <time>2015-10-16T03:33:18Z</time>
      </trkpt>
      <trkpt lat="44.19452" lon="3.22968">
        <ele>745</ele>
        <time>2015-10-16T03:35:18Z</time>
      </trkpt>
      <trkpt lat="44.19447" lon="3.22981">
        <ele>747</ele>
        <time>2015-10-16T03:37:18Z</time>
      </trkpt>
      <trkpt lat="44.19447" lon="3.2299">
        <ele>751</ele>
        <time>2015-10-16T03:39:18Z</time>
      </trkpt>
      <trkpt lat="44.19447" lon="3.22999">
        <ele>755</ele>
        <time>2015-10-16T03:41:18Z</time>
      </trkpt>
      <trkpt lat="44.19444" lon="3.23012">
        <ele>759</ele>
        <time>2015-10-16T03:43:18Z</time>
      </trkpt>
      <trkpt lat="44.19438" lon="3.23018">
        <ele>757</ele>
        <time>2015-10-16T03:45:18Z</time>
      </trkpt>
      <trkpt lat="44.19437" lon="3.23018">
        <ele>756</ele>
        <time>2015-10-16T03:47:18Z</time>
      </trkpt>
      <trkpt lat="44.19439" lon="3.23019">
        <ele>758</ele>
        <time>2015-10-16T03:49:18Z</time>
      </trkpt>
      <trkpt lat="44.19436" lon="3.2302">
        <ele>756</ele>
        <time>2015-10-16T03:51:18Z</time>
      </trkpt>
      <trkpt lat="44.19432" lon="3.23019">
        <ele>752</ele>
        <time>2015-10-16T03:53:18Z</time>
      </trkpt>
      <trkpt lat="44.19416" lon="3.23015">
        <ele>736</ele>
        <time>2015-10-16T03:55:18Z</time>
      </trkpt>
      <trkpt lat="44.19389" lon="3.23">
        <ele>698</ele>
        <time>2015-10-16T03:57:18Z</time>
      </trkpt>
      <trkpt lat="44.19361" lon="3.22981">
        <ele>662</ele>
        <time>2015-10-16T03:59:18Z</time>
      </trkpt>
      <trkpt lat="44.19353" lon="3.22977">
        <ele>653</ele>
        <time>2015-10-16T04:01:18Z</time>
      </trkpt>
      <trkpt lat="44.19348" lon="3.22978">
        <ele>648</ele>
        <time>2015-10-16T04:03:18Z</time>
      </trkpt>
      <trkpt lat="44.19349" lon="3.22981">
        <ele>650</ele>
        <time>2015-10-16T04:05:18Z</time>
      </trkpt>
      <trkpt lat="44.19355" lon="3.22991">
        <ele>658</ele>
        <time>2015-10-16T04:07:18Z</time>
      </trkpt>
      <trkpt lat="44.19356" lon="3.23007">
        <ele>661</ele>
        <time>2015-10-16T04:09:18Z</time>
      </trkpt>
      <trkpt lat="44.1936" lon="3.23023">
        <ele>665</ele>
        <time>2015-10-16T04:11:18Z</time>
      </trkpt>
      <trkpt lat="44.19359" lon="3.23025">
        <ele>664</ele>
        <time>2015-10-16T04:13:18Z</time>
      </trkpt>
      <trkpt lat="44.19363" lon="3.23037">
        <ele>669</ele>
        <time>2015-10-16T04:15:18Z</time>
      </trkpt>
      <trkpt lat="44.19374" lon="3.23055">
        <ele>687</ele>
        <time>2015-10-16T04:17:18Z</time>
      </trkpt>
      <trkpt lat="44.1938" lon="3.23058">
        <ele>697</ele>
        <time>2015-10-16T04:19:18Z</time>
      </trkpt>
      <trkpt lat="44.19384" lon="3.23064">
        <ele>705</ele>
        <time>2015-10-16T04:21:18Z</time>
      </trkpt>
      <trkpt lat="44.19392" lon="3.23075">
        <ele>722</ele>
        <time>2015-10-16T04:23:18Z</time>
      </trkpt>
      <trkpt lat="44.19393" lon="3.23076">
        <ele>724</ele>
        <time>2015-10-16T04:25:18Z</time>
      </trkpt>
      <trkpt lat="44.19406" lon="3.23082">
        <ele>750</ele>
        <time>2015-10-16T04:27:18Z</time>
      </trkpt>
      <trkpt lat="44.19415" lon="3.23083">
        <ele>768</ele>
        <time>2015-10-16T04:29:18Z</time>
      </trkpt>
      <trkpt lat="44.19414" lon="3.23084">
        <ele>692</ele>
        <time>2015-10-16T04:31:18Z</time>
      </trkpt>
      <trkpt lat="44.1941" lon="3.23086">
        <ele>692</ele>
        <time>2015-10-16T04:33:18Z</time>
      </trkpt>
      <trkpt lat="44.19393" lon="3.23087">
        <ele>692</ele>
        <time>2015-10-16T04:35:18Z</time>
      </trkpt>
      <trkpt lat="44.19396" lon="3.23087">
        <ele>692</ele>
        <time>2015-10-16T04:37:18Z</time>
      </trkpt>
      <trkpt lat="44.19402" lon="3.23092">
        <ele>692</ele>
        <time>2015-10-16T04:39:18Z</time>
      </trkpt>
      <trkpt lat="44.194" lon="3.23094">
        <ele>692</ele>
        <time>2015-10-16T04:41:18Z</time>
      </trkpt>
      <trkpt lat="44.194" lon="3.231">
        <ele>692</ele>
        <time>2015-10-16T04:43:18Z</time>
      </trkpt>
      <trkpt lat="44.194" lon="3.23102">
        <ele>692</ele>
        <time>2015-10-16T04:45:18Z</time>
      </trkpt>
      <trkpt lat="44.19405" lon="3.23104">
        <ele>692</ele>
        <time>2015-10-16T04:47:18Z</time>
      </trkpt>
      <trkpt lat="44.19409" lon="3.23107">
        <ele>692</ele>
        <time>2015-10-16T04:49:18Z</time>
      </trkpt>
      <trkpt lat="44.19415" lon="3.23116">
        <ele>692</ele>
        <time>2015-10-16T04:51:18Z</time>
      </trkpt>
      <trkpt lat="44.19417" lon="3.23118">
        <ele>818</ele>
        <time>2015-10-16T04:53:18Z</time>
      </trkpt>
      <trkpt lat="44.1942" lon="3.2312">
        <ele>818</ele>
        <time>2015-10-16T04:55:18Z</time>
      </trkpt>
      <trkpt lat="44.19423" lon="3.23125">
        <ele>818</ele>
        <time>2015-10-16T04:57:18Z</time>
      </trkpt>
      <trkpt lat="44.19426" lon="3.23125">
        <ele>818</ele>
        <time>2015-10-16T04:59:18Z</time>
      </trkpt>
      <trkpt lat="44.19429" lon="3.23126">
        <ele>818</ele>
        <time>2015-10-16T05:01:18Z</time>
      </trkpt>
      <trkpt lat="44.19434" lon="3.23131">
        <ele>818</ele>
        <time>2015-10-16T05:03:18Z</time>
      </trkpt>
      <trkpt lat="44.19437" lon="3.23134">
        <ele>818</ele>
        <time>2015-10-16T05:05:18Z</time>
      </trkpt>
      <trkpt lat="44.19442" lon="3.23137">
        <ele>818</ele>
        <time>2015-10-16T05:07:18Z</time>
      </trkpt>
      <trkpt lat="44.19448" lon="3.23146">
        <ele>818</ele>
        <time>2015-10-16T05:09:18Z</time>
      </trkpt>
      <trkpt lat="44.19452" lon="3.23157">
        <ele>818</ele>
        <time>2015-10-16T05:11:18Z</time>
      </trkpt>
      <trkpt lat="44.19453" lon="3.2316">
        <ele>818</ele>
        <time>2015-10-16T05:13:18Z</time>
      </trkpt>
      <trkpt lat="44.19456" lon="3.23161">
        <ele>818</ele>
        <time>2015-10-16T05:15:18Z</time>
      </trkpt>
      <trkpt lat="44.19458" lon="3.23163">
        <ele>818</ele>
        <time>2015-10-16T05:17:18Z</time>
      </trkpt>
      <trkpt lat="44.19462" lon="3.23166">
        <ele>818</ele>
        <time>2015-10-16T05:19:18Z</time>
      </trkpt>
      <trkpt lat="44.19466" lon="3.23176">
        <ele>832</ele>
        <time>2015-10-16T05:21:18Z</time>
      </trkpt>
      <trkpt lat="44.19468" lon="3.2318">
        <ele>832</ele>
        <time>2015-10-16T05:23:18Z</time>
      </trkpt>
      <trkpt lat="44.1947" lon="3.23181">
        <ele>832</ele>
        <time>2015-10-16T05:25:18Z</time>
      </trkpt>
      <trkpt lat="44.1947" lon="3.23186">
        <ele>832</ele>
        <time>2015-10-16T05:27:18Z</time>
      </trkpt>
      <trkpt lat="44.19469" lon="3.23194">
        <ele>832</ele>
        <time>2015-10-16T05:29:18Z</time>
      </trkpt>
      <trkpt lat="44.19473" lon="3.232">
        <ele>832</ele>
        <time>2015-10-16T05:31:18Z</time>
      </trkpt>
      <trkpt lat="44.19477" lon="3.23208">
        <ele>832</ele>
        <time>2015-10-16T05:33:18Z</time>
      </trkpt>
      <trkpt lat="44.19482" lon="3.23226">
        <ele>832</ele>
        <time>2015-10-16T05:35:18Z</time>
      </trkpt>
      <trkpt lat="44.19478" lon="3.23238">
        <ele>832</ele>
        <time>2015-10-16T05:37:18Z</time>
      </trkpt>
      <trkpt lat="44.19471" lon="3.23247">
        <ele>832</ele>
        <time>2015-10-16T05:39:18Z</time>
      </trkpt>
      <trkpt lat="44.19456" lon="3.23245">
        <ele>832</ele>
        <time>2015-10-16T05:41:18Z</time>
      </trkpt>
      <trkpt lat="44.19454" lon="3.23245">
        <ele>832</ele>
        <time>2015-10-16T05:43:18Z</time>
      </trkpt>
      <trkpt lat="44.19445" lon="3.23236">
        <ele>832</ele>
        <time>2015-10-16T05:45:18Z</time>
      </trkpt>
      <trkpt lat="44.19441" lon="3.2324">
        <ele>832</ele>
        <time>2015-10-16T05:47:18Z</time>
      </trkpt>
      <trkpt lat="44.19438" lon="3.23249">
        <ele>832</ele>
        <time>2015-10-16T05:49:18Z</time>
      </trkpt>
      <trkpt lat="44.19439" lon="3.23264">
        <ele>836</ele>
        <time>2015-10-16T05:51:18Z</time>
      </trkpt>
      <trkpt lat="44.19443" lon="3.23277">
        <ele>836</ele>
        <time>2015-10-16T05:53:18Z</time>
      </trkpt>
      <trkpt lat="44.19445" lon="3.23281">
        <ele>836</ele>
        <time>2015-10-16T05:55:18Z</time>
      </trkpt>
      <trkpt lat="44.19445" lon="3.23286">
        <ele>836</ele>
        <time>2015-10-16T05:57:18Z</time>
      </trkpt>
      <trkpt lat="44.19442" lon="3.23284">
        <ele>836</ele>
        <time>2015-10-16T05:59:18Z</time>
      </trkpt>
      <trkpt lat="44.19442" lon="3.2328">
        <ele>836</ele>
        <time>2015-10-16T06:01:18Z</time>
      </trkpt>
      <trkpt lat="44.19441" lon="3.23275">
        <ele>836</ele>
        <time>2015-10-16T06:03:18Z</time>
      </trkpt>
      <trkpt lat="44.19431" lon="3.23265">
        <ele>836</ele>
        <time>2015-10-16T06:05:18Z</time>
      </trkpt>
      <trkpt lat="44.19422" lon="3.23256">
        <ele>836</ele>
        <time>2015-10-16T06:07:18Z</time>
      </trkpt>
      <trkpt lat="44.19419" lon="3.23266">
        <ele>836</ele>
        <time>2015-10-16T06:09:18Z</time>
      </trkpt>
      <trkpt lat="44.19417" lon="3.23273">
        <ele>836</ele>
        <time>2015-10-16T06:11:18Z</time>
      </trkpt>
      <trkpt lat="44.1941" lon="3.23286">
        <ele>836</ele>
        <time>2015-10-16T06:13:18Z</time>
      </trkpt>
      <trkpt lat="44.19406" lon="3.23288">
        <ele>836</ele>
        <time>2015-10-16T06:15:18Z</time>
      </trkpt>
      <trkpt lat="44.194" lon="3.23287">
        <ele>836</ele>
        <time>2015-10-16T06:17:18Z</time>
      </trkpt>
      <trkpt lat="44.19396" lon="3.23286">
        <ele>836</ele>
        <time>2015-10-16T06:19:18Z</time>
      </trkpt>
      <trkpt lat="44.19397" lon="3.23284">
        <ele>836</ele>
        <time>2015-10-16T06:21:18Z</time>
      </trkpt>
      <trkpt lat="44.1939" lon="3.23272">
        <ele>836</ele>
        <time>2015-10-16T06:23:18Z</time>
      </trkpt>
      <trkpt lat="44.19382" lon="3.23265">
        <ele>836</ele>
        <time>2015-10-16T06:25:18Z</time>
      </trkpt>
      <trkpt lat="44.19372" lon="3.23267">
        <ele>836</ele>
        <time>2015-10-16T06:27:18Z</time>
      </trkpt>
      <trkpt lat="44.19373" lon="3.23272">
        <ele>836</ele>
        <time>2015-10-16T06:29:18Z</time>
      </trkpt>
      <trkpt lat="44.19379" lon="3.23294">
        <ele>836</ele>
        <time>2015-10-16T06:31:18Z</time>
      </trkpt>
      <trkpt lat="44.19379" lon="3.23304">
        <ele>836</ele>
        <time>2015-10-16T06:33:18Z</time>
      </trkpt>
      <trkpt lat="44.19386" lon="3.2332">
        <ele>836</ele>
        <time>2015-10-16T06:35:18Z</time>
      </trkpt>
      <trkpt lat="44.1939" lon="3.23326">
        <ele>836</ele>
        <time>2015-10-16T06:37:18Z</time>
      </trkpt>
      <trkpt lat="44.19392" lon="3.23333">
        <ele>836</ele>
        <time>2015-10-16T06:39:18Z</time>
      </trkpt>
      <trkpt lat="44.19392" lon="3.23335">
        <ele>836</ele>
        <time>2015-10-16T06:41:18Z</time>
      </trkpt>
      <trkpt lat="44.19383" lon="3.23336">
        <ele>836</ele>
        <time>2015-10-16T06:43:18Z</time>
      </trkpt>
      <trkpt lat="44.19381" lon="3.23337">
        <ele>836</ele>
        <time>2015-10-16T06:45:18Z</time>
      </trkpt>
      <trkpt lat="44.19382" lon="3.23342">
        <ele>836</ele>
        <time>2015-10-16T06:47:18Z</time>
      </trkpt>
      <trkpt lat="44.19379" lon="3.23354">
        <ele>836</ele>
        <time>2015-10-16T06:49:18Z</time>
      </trkpt>
      <trkpt lat="44.19378" lon="3.23355">
        <ele>836</ele>
        <time>2015-10-16T06:51:18Z</time>
      </trkpt>
      <trkpt lat="44.19375" lon="3.23353">
        <ele>836</ele>
        <time>2015-10-16T06:53:18Z</time>
      </trkpt>
      <trkpt lat="44.19371" lon="3.23352">
        <ele>836</ele>
        <time>2015-10-16T06:55:18Z</time>
      </trkpt>
      <trkpt lat="44.19369" lon="3.23355">
        <ele>836</ele>
        <time>2015-10-16T06:57:18Z</time>
      </trkpt>
      <trkpt lat="44.19366" lon="3.2336">
        <ele>836</ele>
        <time>2015-10-16T06:59:18Z</time>
      </trkpt>
      <trkpt lat="44.19364" lon="3.23363">
        <ele>836</ele>
        <time>2015-10-16T07:01:18Z</time>
      </trkpt>
      <trkpt lat="44.19359" lon="3.23373">
        <ele>836</ele>
        <time>2015-10-16T07:03:18Z</time>
      </trkpt>
      <trkpt lat="44.19356" lon="3.23382">
        <ele>836</ele>
        <time>2015-10-16T07:05:18Z</time>
      </trkpt>
      <trkpt lat="44.19356" lon="3.23384">
        <ele>836</ele>
        <time>2015-10-16T07:07:18Z</time>
      </trkpt>
      <trkpt lat="44.19358" lon="3.23386">
        <ele>836</ele>
        <time>2015-10-16T07:09:18Z</time>
      </trkpt>
      <trkpt lat="44.19358" lon="3.23392">
        <ele>836</ele>
        <time>2015-10-16T07:11:18Z</time>
      </trkpt>
      <trkpt lat="44.19358" lon="3.23394">
        <ele>836</ele>
        <time>2015-10-16T07:13:18Z</time>
      </trkpt>
      <trkpt lat="44.19359" lon="3.23395">
        <ele>836</ele>
        <time>2015-10-16T07:15:18Z</time>
      </trkpt>
      <trkpt lat="44.19362" lon="3.23408">
        <ele>836</ele>
        <time>2015-10-16T07:17:18Z</time>
      </trkpt>
      <trkpt lat="44.19364" lon="3.23416">
        <ele>836</ele>
        <time>2015-10-16T07:19:18Z</time>
      </trkpt>
      <trkpt lat="44.19363" lon="3.23419">
        <ele>836</ele>
        <time>2015-10-16T07:21:18Z</time>
      </trkpt>
      <trkpt lat="44.19363" lon="3.23423">
        <ele>836</ele>
        <time>2015-10-16T07:23:18Z</time>
      </trkpt>
      <trkpt lat="44.19359" lon="3.23433">
        <ele>836</ele>
        <time>2015-10-16T07:25:18Z</time>
      </trkpt>
      <trkpt lat="44.19356" lon="3.23441">
        <ele>836</ele>
        <time>2015-10-16T07:27:18Z</time>
      </trkpt>
      <trkpt lat="44.19357" lon="3.23442">
        <ele>836</ele>
        <time>2015-10-16T07:29:18Z</time>
      </trkpt>
      <trkpt lat="44.19357" lon="3.23444">
        <ele>836</ele>
        <time>2015-10-16T07:31:18Z</time>
      </trkpt>
      <trkpt lat="44.19355" lon="3.2345">
        <ele>836</ele>
        <time>2015-10-16T07:33:18Z</time>
      </trkpt>
      <trkpt lat="44.19352" lon="3.23453">
        <ele>836</ele>
        <time>2015-10-16T07:35:18Z</time>
      </trkpt>
      <trkpt lat="44.1935" lon="3.23464">
        <ele>836</ele>
        <time>2015-10-16T07:37:18Z</time>
      </trkpt>
      <trkpt lat="44.19344" lon="3.2348">
        <ele>836</ele>
        <time>2015-10-16T07:39:18Z</time>
      </trkpt>
      <trkpt lat="44.19339" lon="3.2349">
        <ele>836</ele>
        <time>2015-10-16T07:41:18Z</time>
      </trkpt>
      <trkpt lat="44.1934" lon="3.23503">
        <ele>836</ele>
        <time>2015-10-16T07:43:18Z</time>
      </trkpt>
      <trkpt lat="44.19341" lon="3.23506">
        <ele>836</ele>
        <time>2015-10-16T07:45:18Z</time>
      </trkpt>
      <trkpt lat="44.19343" lon="3.23515">
        <ele>836</ele>
        <time>2015-10-16T07:47:18Z</time>
      </trkpt>
      <trkpt lat="44.19349" lon="3.23521">
        <ele>836</ele>
        <time>2015-10-16T07:49:18Z</time>
      </trkpt>
      <trkpt lat="44.1936" lon="3.23528">
        <ele>836</ele>
        <time>2015-10-16T07:51:18Z</time>
      </trkpt>
      <trkpt lat="44.19363" lon="3.2353">
        <ele>836</ele>
        <time>2015-10-16T07:53:18Z</time>
      </trkpt>
      <trkpt lat="44.19368" lon="3.23532">
        <ele>836</ele>
        <time>2015-10-16T07:55:18Z</time>
      </trkpt>
      <trkpt lat="44.1937" lon="3.23536">
        <ele>836</ele>
        <time>2015-10-16T07:57:18Z</time>
      </trkpt>
      <trkpt lat="44.19376" lon="3.23542">
        <ele>836</ele>
        <time>2015-10-16T07:59:18Z</time>
      </trkpt>
      <trkpt lat="44.19382" lon="3.23543">
        <ele>836</ele>
        <time>2015-10-16T08:01:18Z</time>
      </trkpt>
      <trkpt lat="44.19388" lon="3.23545">
        <ele>836</ele>
        <time>2015-10-16T08:03:18Z</time>
      </trkpt>
      <trkpt lat="44.19393" lon="3.23561">
        <ele>836</ele>
        <time>2015-10-16T08:05:18Z</time>
      </trkpt>
      <trkpt lat="44.19393" lon="3.23577">
        <ele>836</ele>
        <time>2015-10-16T08:07:18Z</time>
      </trkpt>
      <trkpt lat="44.19389" lon="3.2359">
        <ele>836</ele>
        <time>2015-10-16T08:09:18Z</time>
      </trkpt>
      <trkpt lat="44.19386" lon="3.236">
        <ele>836</ele>
        <time>2015-10-16T08:11:18Z</time>
      </trkpt>
      <trkpt lat="44.19377" lon="3.23609">
        <ele>836</ele>
        <time>2015-10-16T08:13:18Z</time>
      </trkpt>
      <trkpt lat="44.19369" lon="3.23616">
        <ele>836</ele>
        <time>2015-10-16T08:15:18Z</time>
      </trkpt>
      <trkpt lat="44.19363" lon="3.23622">
        <ele>836</ele>
        <time>2015-10-16T08:17:18Z</time>
      </trkpt>
      <trkpt lat="44.19362" lon="3.23626">
        <ele>836</ele>
        <time>2015-10-16T08:19:18Z</time>
      </trkpt>
      <trkpt lat="44.1936" lon="3.23643">
        <ele>836</ele>
        <time>2015-10-16T08:21:18Z</time>
      </trkpt>
      <trkpt lat="44.19364" lon="3.23656">
        <ele>836</ele>
        <time>2015-10-16T08:23:18Z</time>
      </trkpt>
      <trkpt lat="44.19371" lon="3.23668">
        <ele>836</ele>
        <time>2015-10-16T08:25:18Z</time>
      </trkpt>
      <trkpt lat="44.19379" lon="3.23685">
        <ele>836</ele>
        <time>2015-10-16T08:27:18Z</time>
      </trkpt>
      <trkpt lat="44.19382" lon="3.23688">
        <ele>836</ele>
        <time>2015-10-16T08:29:18Z</time>
      </trkpt>
      <trkpt lat="44.19385" lon="3.23696">
        <ele>836</ele>
        <time>2015-10-16T08:31:18Z</time>
      </trkpt>
      <trkpt lat="44.19389" lon="3.23705">
        <ele>836</ele>
        <time>2015-10-16T08:33:18Z</time>
      </trkpt>
      <trkpt lat="44.19392" lon="3.23708">
        <ele>836</ele>
        <time>2015-10-16T08:35:18Z</time>
      </trkpt>
      <trkpt lat="44.19395" lon="3.2371">
        <ele>836</ele>
        <time>2015-10-16T08:37:18Z</time>
      </trkpt>
      <trkpt lat="44.19397" lon="3.23712">
        <ele>836</ele>
        <time>2015-10-16T08:39:18Z</time>
      </trkpt>
      <trkpt lat="44.19402" lon="3.23717">
        <ele>836</ele>
        <time>2015-10-16T08:41:18Z</time>
      </trkpt>
      <trkpt lat="44.1941" lon="3.23731">
        <ele>836</ele>
        <time>2015-10-16T08:43:18Z</time>
      </trkpt>
      <trkpt lat="44.19407" lon="3.23737">
        <ele>836</ele>
        <time>2015-10-16T08:45:18Z</time>
      </trkpt>
      <trkpt lat="44.19408" lon="3.23747">
        <ele>836</ele>
        <time>2015-10-16T08:47:18Z</time>
      </trkpt>
      <trkpt lat="44.1941" lon="3.23758">
        <ele>688</ele>
        <time>2015-10-16T08:49:18Z</time>
      </trkpt>
      <trkpt lat="44.19415" lon="3.23766">
        <ele>688</ele>
        <time>2015-10-16T08:51:18Z</time>
      </trkpt>
      <trkpt lat="44.1942" lon="3.23776">
        <ele>763</ele>
        <time>2015-10-16T08:53:18Z</time>
      </trkpt>
      <trkpt lat="44.19426" lon="3.23783">
        <ele>758</ele>
        <time>2015-10-16T08:55:18Z</time>
      </trkpt>
      <trkpt lat="44.19429" lon="3.23787">
        <ele>755</ele>
        <time>2015-10-16T08:57:18Z</time>
      </trkpt>
      <trkpt lat="44.1943" lon="3.23789">
        <ele>753</ele>
        <time>2015-10-16T08:59:18Z</time>
      </trkpt>
      <trkpt lat="44.19438" lon="3.23796">
        <ele>752</ele>
        <time>2015-10-16T09:01:18Z</time>
      </trkpt>
      <trkpt lat="44.1945" lon="3.23815">
        <ele>745</ele>
        <time>2015-10-16T09:03:18Z</time>
      </trkpt>
      <trkpt lat="44.19455" lon="3.23829">
        <ele>738</ele>
        <time>2015-10-16T09:05:18Z</time>
      </trkpt>
      <trkpt lat="44.19459" lon="3.23843">
        <ele>735</ele>
        <time>2015-10-16T09:07:18Z</time>
      </trkpt>
      <trkpt lat="44.19458" lon="3.23854">
        <ele>727</ele>
        <time>2015-10-16T09:09:18Z</time>
      </trkpt>
      <trkpt lat="44.19463" lon="3.23871">
        <ele>724</ele>
        <time>2015-10-16T09:11:18Z</time>
      </trkpt>
      <trkpt lat="44.19464" lon="3.23873">
        <ele>725</ele>
        <time>2015-10-16T09:13:18Z</time>
      </trkpt>
      <trkpt lat="44.19472" lon="3.23877">
        <ele>735</ele>
        <time>2015-10-16T09:15:18Z</time>
      </trkpt>
      <trkpt lat="44.19478" lon="3.2388">
        <ele>742</ele>
        <time>2015-10-16T09:17:18Z</time>
      </trkpt>
      <trkpt lat="44.19479" lon="3.2389">
        <ele>738</ele>
        <time>2015-10-16T09:19:18Z</time>
      </trkpt>
      <trkpt lat="44.19487" lon="3.2389">
        <ele>750</ele>
        <time>2015-10-16T09:21:18Z</time>
      </trkpt>
      <trkpt lat="44.19495" lon="3.23896">
        <ele>759</ele>
        <time>2015-10-16T09:23:18Z</time>
      </trkpt>
      <trkpt lat="44.195" lon="3.23899">
        <ele>766</ele>
        <time>2015-10-16T09:25:18Z</time>
      </trkpt>
      <trkpt lat="44.19507" lon="3.23902">
        <ele>766</ele>
        <time>2015-10-16T09:27:18Z</time>
      </trkpt>
      <trkpt lat="44.19509" lon="3.23902">
        <ele>767</ele>
        <time>2015-10-16T09:29:18Z</time>
      </trkpt>
      <trkpt lat="44.19512" lon="3.23901">
        <ele>769</ele>
        <time>2015-10-16T09:31:18Z</time>
      </trkpt>
      <trkpt lat="44.19516" lon="3.23904">
        <ele>768</ele>
        <time>2015-10-16T09:33:18Z</time>
      </trkpt>
      <trkpt lat="44.19526" lon="3.23915">
        <ele>766</ele>
        <time>2015-10-16T09:35:18Z</time>
      </trkpt>
      <trkpt lat="44.19533" lon="3.23926">
        <ele>759</ele>
        <time>2015-10-16T09:37:18Z</time>
      </trkpt>
      <trkpt lat="44.1954" lon="3.2393">
        <ele>759</ele>
        <time>2015-10-16T09:39:18Z</time>
      </trkpt>
      <trkpt lat="44.19543" lon="3.23931">
        <ele>759</ele>
        <time>2015-10-16T09:41:18Z</time>
      </trkpt>
      <trkpt lat="44.19552" lon="3.23938">
        <ele>758</ele>
        <time>2015-10-16T09:43:18Z</time>
      </trkpt>
      <trkpt lat="44.19556" lon="3.23941">
        <ele>757</ele>
        <time>2015-10-16T09:45:18Z</time>
      </trkpt>
      <trkpt lat="44.19566" lon="3.23942">
        <ele>762</ele>
        <time>2015-10-16T09:47:18Z</time>
      </trkpt>
      <trkpt lat="44.19574" lon="3.23941">
        <ele>767</ele>
        <time>2015-10-16T09:49:18Z</time>
      </trkpt>
      <trkpt lat="44.1958" lon="3.2394">
        <ele>771</ele>
        <time>2015-10-16T09:51:18Z</time>
      </trkpt>
      <trkpt lat="44.19586" lon="3.23942">
        <ele>772</ele>
        <time>2015-10-16T09:53:18Z</time>
      </trkpt>
      <trkpt lat="44.19592" lon="3.23939">
        <ele>775</ele>
        <time>2015-10-16T09:55:18Z</time>
      </trkpt>
      <trkpt lat="44.19599" lon="3.23933">
        <ele>779</ele>
        <time>2015-10-16T09:57:18Z</time>
      </trkpt>
      <trkpt lat="44.19609" lon="3.23928">
        <ele>783</ele>
        <time>2015-10-16T09:59:18Z</time>
      </trkpt>
      <trkpt lat="44.19612" lon="3.23924">
        <ele>786</ele>
        <time>2015-10-16T10:01:18Z</time>
      </trkpt>
      <trkpt lat="44.19627" lon="3.23917">
        <ele>792</ele>
        <time>2015-10-16T10:03:18Z</time>
      </trkpt>
      <trkpt lat="44.1964" lon="3.23919">
        <ele>792</ele>
        <time>2015-10-16T10:05:18Z</time>
      </trkpt>
      <trkpt lat="44.19641" lon="3.23919">
        <ele>792</ele>
        <time>2015-10-16T10:07:18Z</time>
      </trkpt>
      <trkpt lat="44.19648" lon="3.23926">
        <ele>790</ele>
        <time>2015-10-16T10:09:18Z</time>
      </trkpt>
      <trkpt lat="44.19654" lon="3.23938">
        <ele>785</ele>
        <time>2015-10-16T10:11:18Z</time>
      </trkpt>
      <trkpt lat="44.1966" lon="3.23952">
        <ele>780</ele>
        <time>2015-10-16T10:13:18Z</time>
      </trkpt>
      <trkpt lat="44.1967" lon="3.2396">
        <ele>778</ele>
        <time>2015-10-16T10:15:18Z</time>
      </trkpt>
      <trkpt lat="44.19674" lon="3.23961">
        <ele>778</ele>
        <time>2015-10-16T10:17:18Z</time>
      </trkpt>
      <trkpt lat="44.1968" lon="3.23956">
        <ele>781</ele>
        <time>2015-10-16T10:19:18Z</time>
      </trkpt>
      <trkpt lat="44.19684" lon="3.2395">
        <ele>784</ele>
        <time>2015-10-16T10:21:18Z</time>
      </trkpt>
      <trkpt lat="44.19687" lon="3.23939">
        <ele>790</ele>
        <time>2015-10-16T10:23:18Z</time>
      </trkpt>
      <trkpt lat="44.19694" lon="3.23938">
        <ele>791</ele>
        <time>2015-10-16T10:25:18Z</time>
      </trkpt>
      <trkpt lat="44.19703" lon="3.23933">
        <ele>794</ele>
        <time>2015-10-16T10:27:18Z</time>
      </trkpt>
      <trkpt lat="44.19705" lon="3.23925">
        <ele>798</ele>
        <time>2015-10-16T10:29:18Z</time>
      </trkpt>
      <trkpt lat="44.19711" lon="3.23913">
        <ele>803</ele>
        <time>2015-10-16T10:31:18Z</time>
      </trkpt>
      <trkpt lat="44.19717" lon="3.23915">
        <ele>803</ele>
        <time>2015-10-16T10:33:18Z</time>
      </trkpt>
      <trkpt lat="44.19727" lon="3.23923">
        <ele>801</ele>
        <time>2015-10-16T10:35:18Z</time>
      </trkpt>
      <trkpt lat="44.19729" lon="3.23924">
        <ele>801</ele>
        <time>2015-10-16T10:37:18Z</time>
      </trkpt>
      <trkpt lat="44.19738" lon="3.23925">
        <ele>802</ele>
        <time>2015-10-16T10:39:18Z</time>
      </trkpt>
      <trkpt lat="44.19744" lon="3.23933">
        <ele>799</ele>
        <time>2015-10-16T10:41:18Z</time>
      </trkpt>
      <trkpt lat="44.19757" lon="3.2394">
        <ele>800</ele>
        <time>2015-10-16T10:43:18Z</time>
      </trkpt>
      <trkpt lat="44.19766" lon="3.2395">
        <ele>801</ele>
        <time>2015-10-16T10:45:18Z</time>
      </trkpt>
      <trkpt lat="44.19775" lon="3.23955">
        <ele>803</ele>
        <time>2015-10-16T10:47:18Z</time>
      </trkpt>
      <trkpt lat="44.19782" lon="3.23958">
        <ele>805</ele>
        <time>2015-10-16T10:49:18Z</time>
      </trkpt>
      <trkpt lat="44.19787" lon="3.23965">
        <ele>806</ele>
        <time>2015-10-16T10:51:18Z</time>
      </trkpt>
      <trkpt lat="44.19788" lon="3.23979">
        <ele>802</ele>
        <time>2015-10-16T10:53:18Z</time>
      </trkpt>
      <trkpt lat="44.19788" lon="3.23994">
        <ele>798</ele>
        <time>2015-10-16T10:55:18Z</time>
      </trkpt>
      <trkpt lat="44.19788" lon="3.24002">
        <ele>796</ele>
        <time>2015-10-16T10:57:18Z</time>
      </trkpt>
      <trkpt lat="44.19788" lon="3.2402">
        <ele>792</ele>
        <time>2015-10-16T10:59:18Z</time>
      </trkpt>
      <trkpt lat="44.19791" lon="3.24032">
        <ele>791</ele>
        <time>2015-10-16T11:01:18Z</time>
      </trkpt>
      <trkpt lat="44.19793" lon="3.24045">
        <ele>789</ele>
        <time>2015-10-16T11:03:18Z</time>
      </trkpt>
      <trkpt lat="44.19788" lon="3.24066">
        <ele>782</ele>
        <time>2015-10-16T11:05:18Z</time>
      </trkpt>
      <trkpt lat="44.19787" lon="3.2407">
        <ele>781</ele>
        <time>2015-10-16T11:07:18Z</time>
      </trkpt>
      <trkpt lat="44.19784" lon="3.24078">
        <ele>778</ele>
        <time>2015-10-16T11:09:18Z</time>
      </trkpt>
      <trkpt lat="44.19778" lon="3.24092">
        <ele>772</ele>
        <time>2015-10-16T11:11:18Z</time>
      </trkpt>
      <trkpt lat="44.19782" lon="3.24098">
        <ele>773</ele>
        <time>2015-10-16T11:13:18Z</time>
      </trkpt>
      <trkpt lat="44.19789" lon="3.24102">
        <ele>776</ele>
        <time>2015-10-16T11:15:18Z</time>
      </trkpt>
      <trkpt lat="44.19793" lon="3.24102">
        <ele>778</ele>
        <time>2015-10-16T11:17:18Z</time>
      </trkpt>
      <trkpt lat="44.19797" lon="3.24104">
        <ele>780</ele>
        <time>2015-10-16T11:19:18Z</time>
      </trkpt>
      <trkpt lat="44.19808" lon="3.2411">
        <ele>784</ele>
        <time>2015-10-16T11:21:18Z</time>
      </trkpt>
      <trkpt lat="44.19817" lon="3.24115">
        <ele>788</ele>
        <time>2015-10-16T11:23:18Z</time>
      </trkpt>
      <trkpt lat="44.19826" lon="3.24122">
        <ele>791</ele>
        <time>2015-10-16T11:25:18Z</time>
      </trkpt>
      <trkpt lat="44.19833" lon="3.24129">
        <ele>793</ele>
        <time>2015-10-16T11:27:18Z</time>
      </trkpt>
      <trkpt lat="44.1984" lon="3.24134">
        <ele>795</ele>
        <time>2015-10-16T11:29:18Z</time>
      </trkpt>
      <trkpt lat="44.19845" lon="3.24146">
        <ele>794</ele>
        <time>2015-10-16T11:31:18Z</time>
      </trkpt>
      <trkpt lat="44.19843" lon="3.24159">
        <ele>791</ele>
        <time>2015-10-16T11:33:18Z</time>
      </trkpt>
      <trkpt lat="44.1984" lon="3.24174">
        <ele>788</ele>
        <time>2015-10-16T11:35:18Z</time>
      </trkpt>
      <trkpt lat="44.19839" lon="3.24182">
        <ele>787</ele>
        <time>2015-10-16T11:37:18Z</time>
      </trkpt>
      <trkpt lat="44.19837" lon="3.24187">
        <ele>786</ele>
        <time>2015-10-16T11:39:18Z</time>
      </trkpt>
      <trkpt lat="44.19834" lon="3.24193">
        <ele>785</ele>
        <time>2015-10-16T11:41:18Z</time>
      </trkpt>
      <trkpt lat="44.19829" lon="3.24201">
        <ele>782</ele>
        <time>2015-10-16T11:43:18Z</time>
      </trkpt>
      <trkpt lat="44.19826" lon="3.24206">
        <ele>780</ele>
        <time>2015-10-16T11:45:18Z</time>
      </trkpt>
      <trkpt lat="44.19828" lon="3.24213">
        <ele>781</ele>
        <time>2015-10-16T11:47:18Z</time>
      </trkpt>
      <trkpt lat="44.19828" lon="3.2422">
        <ele>780</ele>
        <time>2015-10-16T11:49:18Z</time>
      </trkpt>
      <trkpt lat="44.19826" lon="3.2423">
        <ele>779</ele>
        <time>2015-10-16T11:51:18Z</time>
      </trkpt>
      <trkpt lat="44.19827" lon="3.24234">
        <ele>779</ele>
        <time>2015-10-16T11:53:18Z</time>
      </trkpt>
      <trkpt lat="44.19827" lon="3.24238">
        <ele>779</ele>
        <time>2015-10-16T11:55:18Z</time>
      </trkpt>
      <trkpt lat="44.19828" lon="3.24243">
        <ele>779</ele>
        <time>2015-10-16T11:57:18Z</time>
      </trkpt>
      <trkpt lat="44.19827" lon="3.2425">
        <ele>778</ele>
        <time>2015-10-16T11:59:18Z</time>
      </trkpt>
      <trkpt lat="44.19831" lon="3.24263">
        <ele>779</ele>
        <time>2015-10-16T12:01:18Z</time>
      </trkpt>
      <trkpt lat="44.19833" lon="3.24268">
        <ele>780</ele>
        <time>2015-10-16T12:03:18Z</time>
      </trkpt>
      <trkpt lat="44.1984" lon="3.2428">
        <ele>780</ele>
        <time>2015-10-16T12:05:18Z</time>
      </trkpt>
      <trkpt lat="44.1984" lon="3.24282">
        <ele>779</ele>
        <time>2015-10-16T12:07:18Z</time>
      </trkpt>
      <trkpt lat="44.19846" lon="3.24292">
        <ele>779</ele>
        <time>2015-10-16T12:09:18Z</time>
      </trkpt>
      <trkpt lat="44.19852" lon="3.24298">
        <ele>780</ele>
        <time>2015-10-16T12:11:18Z</time>
      </trkpt>
      <trkpt lat="44.19858" lon="3.24303">
        <ele>780</ele>
        <time>2015-10-16T12:13:18Z</time>
      </trkpt>
      <trkpt lat="44.19868" lon="3.24312">
        <ele>781</ele>
        <time>2015-10-16T12:15:18Z</time>
      </trkpt>
      <trkpt lat="44.1987" lon="3.24315">
        <ele>780</ele>
        <time>2015-10-16T12:17:18Z</time>
      </trkpt>
      <trkpt lat="44.19877" lon="3.24321">
        <ele>781</ele>
        <time>2015-10-16T12:19:18Z</time>
      </trkpt>
      <trkpt lat="44.19883" lon="3.24323">
        <ele>781</ele>
        <time>2015-10-16T12:21:18Z</time>
      </trkpt>
      <trkpt lat="44.19887" lon="3.24328">
        <ele>781</ele>
        <time>2015-10-16T12:23:18Z</time>
      </trkpt>
      <trkpt lat="44.19897" lon="3.24328">
        <ele>783</ele>
        <time>2015-10-16T12:25:18Z</time>
      </trkpt>
      <trkpt lat="44.199" lon="3.24327">
        <ele>783</ele>
        <time>2015-10-16T12:27:18Z</time>
      </trkpt>
      <trkpt lat="44.19908" lon="3.24313">
        <ele>787</ele>
        <time>2015-10-16T12:29:18Z</time>
      </trkpt>
      <trkpt lat="44.19914" lon="3.24299">
        <ele>791</ele>
        <time>2015-10-16T12:31:18Z</time>
      </trkpt>
      <trkpt lat="44.19918" lon="3.24281">
        <ele>794</ele>
        <time>2015-10-16T12:33:18Z</time>
      </trkpt>
      <trkpt lat="44.19919" lon="3.24272">
        <ele>796</ele>
        <time>2015-10-16T12:35:18Z</time>
      </trkpt>
      <trkpt lat="44.19922" lon="3.24264">
        <ele>797</ele>
        <time>2015-10-16T12:37:18Z</time>
      </trkpt>
      <trkpt lat="44.19925" lon="3.24254">
        <ele>798</ele>
        <time>2015-10-16T12:39:18Z</time>
      </trkpt>
      <trkpt lat="44.19928" lon="3.24245">
        <ele>800</ele>
        <time>2015-10-16T12:41:18Z</time>
      </trkpt>
      <trkpt lat="44.19931" lon="3.24244">
        <ele>800</ele>
        <time>2015-10-16T12:43:18Z</time>
      </trkpt>
      <trkpt lat="44.19942" lon="3.24243">
        <ele>799</ele>
        <time>2015-10-16T12:45:18Z</time>
      </trkpt>
      <trkpt lat="44.1995" lon="3.24244">
        <ele>798</ele>
        <time>2015-10-16T12:47:18Z</time>
      </trkpt>
      <trkpt lat="44.19956" lon="3.2423">
        <ele>800</ele>
        <time>2015-10-16T12:49:18Z</time>
      </trkpt>
      <trkpt lat="44.19954" lon="3.24213">
        <ele>804</ele>
        <time>2015-10-16T12:51:18Z</time>
      </trkpt>
      <trkpt lat="44.19956" lon="3.24204">
        <ele>806</ele>
        <time>2015-10-16T12:53:18Z</time>
      </trkpt>
      <trkpt lat="44.19967" lon="3.24199">
        <ele>806</ele>
        <time>2015-10-16T12:55:18Z</time>
      </trkpt>
      <trkpt lat="44.1997" lon="3.24199">
        <ele>806</ele>
        <time>2015-10-16T12:57:18Z</time>
      </trkpt>
      <trkpt lat="44.1998" lon="3.24197">
        <ele>806</ele>
        <time>2015-10-16T12:59:18Z</time>
      </trkpt>
      <trkpt lat="44.19991" lon="3.24194">
        <ele>806</ele>
        <time>2015-10-16T13:01:18Z</time>
      </trkpt>
      <trkpt lat="44.2" lon="3.24194">
        <ele>806</ele>
        <time>2015-10-16T13:03:18Z</time>
      </trkpt>
      <trkpt lat="44.20013" lon="3.24201">
        <ele>806</ele>
        <time>2015-10-16T13:05:18Z</time>
      </trkpt>
      <trkpt lat="44.20022" lon="3.24205">
        <ele>805</ele>
        <time>2015-10-16T13:07:18Z</time>
      </trkpt>
      <trkpt lat="44.20026" lon="3.24212">
        <ele>804</ele>
        <time>2015-10-16T13:09:18Z</time>
      </trkpt>
      <trkpt lat="44.20031" lon="3.24215">
        <ele>804</ele>
        <time>2015-10-16T13:11:18Z</time>
      </trkpt>
      <trkpt lat="44.20037" lon="3.24217">
        <ele>804</ele>
        <time>2015-10-16T13:13:18Z</time>
      </trkpt>
      <trkpt lat="44.20045" lon="3.24211">
        <ele>806</ele>
        <time>2015-10-16T13:15:18Z</time>
      </trkpt>
      <trkpt lat="44.20054" lon="3.24213">
        <ele>807</ele>
        <time>2015-10-16T13:17:18Z</time>
      </trkpt>
      <trkpt lat="44.20058" lon="3.24216">
        <ele>806</ele>
        <time>2015-10-16T13:19:18Z</time>
      </trkpt>
      <trkpt lat="44.20065" lon="3.24218">
        <ele>807</ele>
        <time>2015-10-16T13:21:18Z</time>
      </trkpt>
      <trkpt lat="44.20073" lon="3.2423">
        <ele>805</ele>
        <time>2015-10-16T13:23:18Z</time>
      </trkpt>
      <trkpt lat="44.20074" lon="3.24233">
        <ele>804</ele>
        <time>2015-10-16T13:25:18Z</time>
      </trkpt>
      <trkpt lat="44.20081" lon="3.24246">
        <ele>803</ele>
        <time>2015-10-16T13:27:18Z</time>
      </trkpt>
      <trkpt lat="44.20085" lon="3.24258">
        <ele>801</ele>
        <time>2015-10-16T13:29:18Z</time>
      </trkpt>
      <trkpt lat="44.20091" lon="3.24263">
        <ele>800</ele>
        <time>2015-10-16T13:31:18Z</time>
      </trkpt>
      <trkpt lat="44.20099" lon="3.24267">
        <ele>799</ele>
        <time>2015-10-16T13:33:18Z</time>
      </trkpt>
      <trkpt lat="44.20112" lon="3.24272">
        <ele>799</ele>
        <time>2015-10-16T13:35:18Z</time>
      </trkpt>
      <trkpt lat="44.20123" lon="3.24282">
        <ele>797</ele>
        <time>2015-10-16T13:37:18Z</time>
      </trkpt>
      <trkpt lat="44.20133" lon="3.24293">
        <ele>795</ele>
        <time>2015-10-16T13:39:18Z</time>
      </trkpt>
      <trkpt lat="44.20138" lon="3.243">
        <ele>794</ele>
        <time>2015-10-16T13:41:18Z</time>
      </trkpt>
      <trkpt lat="44.20143" lon="3.24308">
        <ele>792</ele>
        <time>2015-10-16T13:43:18Z</time>
      </trkpt>
      <trkpt lat="44.20151" lon="3.24323">
        <ele>789</ele>
        <time>2015-10-16T13:45:18Z</time>
      </trkpt>
      <trkpt lat="44.2016" lon="3.24339">
        <ele>786</ele>
        <time>2015-10-16T13:47:18Z</time>
      </trkpt>
      <trkpt lat="44.20167" lon="3.24339">
        <ele>786</ele>
        <time>2015-10-16T13:49:18Z</time>
      </trkpt>
      <trkpt lat="44.20169" lon="3.24335">
        <ele>787</ele>
        <time>2015-10-16T13:51:18Z</time>
      </trkpt>
      <trkpt lat="44.20172" lon="3.24322">
        <ele>789</ele>
        <time>2015-10-16T13:53:18Z</time>
      </trkpt>
      <trkpt lat="44.20178" lon="3.24316">
        <ele>791</ele>
        <time>2015-10-16T13:55:18Z</time>
      </trkpt>
      <trkpt lat="44.20187" lon="3.24316">
        <ele>791</ele>
        <time>2015-10-16T13:57:18Z</time>
      </trkpt>
      <trkpt lat="44.20197" lon="3.24318">
        <ele>790</ele>
        <time>2015-10-16T13:59:18Z</time>
      </trkpt>
      <trkpt lat="44.20209" lon="3.24325">
        <ele>788</ele>
        <time>2015-10-16T14:01:18Z</time>
      </trkpt>
      <trkpt lat="44.20221" lon="3.24342">
        <ele>786</ele>
        <time>2015-10-16T14:03:18Z</time>
      </trkpt>
      <trkpt lat="44.20223" lon="3.24344">
        <ele>786</ele>
        <time>2015-10-16T14:05:18Z</time>
      </trkpt>
      <trkpt lat="44.20239" lon="3.24337">
        <ele>786</ele>
        <time>2015-10-16T14:07:18Z</time>
      </trkpt>
      <trkpt lat="44.20244" lon="3.24338">
        <ele>786</ele>
        <time>2015-10-16T14:09:18Z</time>
      </trkpt>
      <trkpt lat="44.20253" lon="3.24344">
        <ele>786</ele>
        <time>2015-10-16T14:11:18Z</time>
      </trkpt>
      <trkpt lat="44.2025" lon="3.24351">
        <ele>786</ele>
        <time>2015-10-16T14:13:18Z</time>
      </trkpt>
      <trkpt lat="44.2025" lon="3.24358">
        <ele>785</ele>
        <time>2015-10-16T14:15:18Z</time>
      </trkpt>
      <trkpt lat="44.20247" lon="3.24367">
        <ele>785</ele>
        <time>2015-10-16T14:17:18Z</time>
      </trkpt>
      <trkpt lat="44.20246" lon="3.24376">
        <ele>785</ele>
        <time>2015-10-16T14:19:18Z</time>
      </trkpt>
      <trkpt lat="44.20245" lon="3.24383">
        <ele>784</ele>
        <time>2015-10-16T14:21:18Z</time>
      </trkpt>
      <trkpt lat="44.20241" lon="3.24393">
        <ele>784</ele>
        <time>2015-10-16T14:23:18Z</time>
      </trkpt>
      <trkpt lat="44.2024" lon="3.24393">
        <ele>784</ele>
        <time>2015-10-16T14:25:18Z</time>
      </trkpt>
      <trkpt lat="44.20232" lon="3.244">
        <ele>783</ele>
        <time>2015-10-16T14:27:18Z</time>
      </trkpt>
      <trkpt lat="44.20221" lon="3.24406">
        <ele>781</ele>
        <time>2015-10-16T14:29:18Z</time>
      </trkpt>
      <trkpt lat="44.20215" lon="3.24411">
        <ele>780</ele>
        <time>2015-10-16T14:31:18Z</time>
      </trkpt>
      <trkpt lat="44.20204" lon="3.24416">
        <ele>779</ele>
        <time>2015-10-16T14:33:18Z</time>
      </trkpt>
      <trkpt lat="44.20196" lon="3.24423">
        <ele>778</ele>
        <time>2015-10-16T14:35:18Z</time>
      </trkpt>
      <trkpt lat="44.2019" lon="3.24433">
        <ele>778</ele>
        <time>2015-10-16T14:37:18Z</time>
      </trkpt>
      <trkpt lat="44.20182" lon="3.24438">
        <ele>777</ele>
        <time>2015-10-16T14:39:18Z</time>
      </trkpt>
      <trkpt lat="44.20181" lon="3.2444">
        <ele>777</ele>
        <time>2015-10-16T14:41:18Z</time>
      </trkpt>
      <trkpt lat="44.20178" lon="3.24447">
        <ele>777</ele>
        <time>2015-10-16T14:43:18Z</time>
      </trkpt>
      <trkpt lat="44.20163" lon="3.24455">
        <ele>774</ele>
        <time>2015-10-16T14:45:18Z</time>
      </trkpt>
      <trkpt lat="44.20161" lon="3.24458">
        <ele>774</ele>
        <time>2015-10-16T14:47:18Z</time>
      </trkpt>
      <trkpt lat="44.20153" lon="3.24463">
        <ele>772</ele>
        <time>2015-10-16T14:49:18Z</time>
      </trkpt>
      <trkpt lat="44.20149" lon="3.24468">
        <ele>771</ele>
        <time>2015-10-16T14:51:18Z</time>
      </trkpt>
      <trkpt lat="44.20146" lon="3.24475">
        <ele>770</ele>
        <time>2015-10-16T14:53:18Z</time>
      </trkpt>
      <trkpt lat="44.20146" lon="3.24493">
        <ele>769</ele>
        <time>2015-10-16T14:55:18Z</time>
      </trkpt>
      <trkpt lat="44.20147" lon="3.24498">
        <ele>769</ele>
        <time>2015-10-16T14:57:18Z</time>
      </trkpt>
      <trkpt lat="44.20149" lon="3.24502">
        <ele>769</ele>
        <time>2015-10-16T14:59:18Z</time>
      </trkpt>
      <trkpt lat="44.2015" lon="3.24503">
        <ele>770</ele>
        <time>2015-10-16T15:01:18Z</time>
      </trkpt>
      <trkpt lat="44.20151" lon="3.24503">
        <ele>770</ele>
        <time>2015-10-16T15:03:18Z</time>
      </trkpt>
      <trkpt lat="44.20155" lon="3.24509">
        <ele>772</ele>
        <time>2015-10-16T15:05:18Z</time>
      </trkpt>
      <trkpt lat="44.20149" lon="3.24513">
        <ele>770</ele>
        <time>2015-10-16T15:07:18Z</time>
      </trkpt>
      <trkpt lat="44.20145" lon="3.2452">
        <ele>769</ele>
        <time>2015-10-16T15:09:18Z</time>
      </trkpt>
      <trkpt lat="44.20143" lon="3.24527">
        <ele>768</ele>
        <time>2015-10-16T15:11:18Z</time>
      </trkpt>
      <trkpt lat="44.20143" lon="3.24534">
        <ele>768</ele>
        <time>2015-10-16T15:13:18Z</time>
      </trkpt>
      <trkpt lat="44.20142" lon="3.24538">
        <ele>768</ele>
        <time>2015-10-16T15:15:18Z</time>
      </trkpt>
      <trkpt lat="44.20141" lon="3.24543">
        <ele>768</ele>
        <time>2015-10-16T15:17:18Z</time>
      </trkpt>
      <trkpt lat="44.20138" lon="3.24548">
        <ele>767</ele>
        <time>2015-10-16T15:19:18Z</time>
      </trkpt>
      <trkpt lat="44.20138" lon="3.24552">
        <ele>767</ele>
        <time>2015-10-16T15:21:18Z</time>
      </trkpt>
      <trkpt lat="44.20132" lon="3.24564">
        <ele>764</ele>
        <time>2015-10-16T15:23:18Z</time>
      </trkpt>
      <trkpt lat="44.20132" lon="3.24567">
        <ele>764</ele>
        <time>2015-10-16T15:25:18Z</time>
      </trkpt>
      <trkpt lat="44.20126" lon="3.24573">
        <ele>761</ele>
        <time>2015-10-16T15:27:18Z</time>
      </trkpt>
      <trkpt lat="44.20125" lon="3.24572">
        <ele>760</ele>
        <time>2015-10-16T15:29:18Z</time>
      </trkpt>
      <trkpt lat="44.20119" lon="3.24578">
        <ele>756</ele>
        <time>2015-10-16T15:31:18Z</time>
      </trkpt>
      <trkpt lat="44.20116" lon="3.2458">
        <ele>755</ele>
        <time>2015-10-16T15:33:18Z</time>
      </trkpt>
      <trkpt lat="44.2011" lon="3.24581">
        <ele>751</ele>
        <time>2015-10-16T15:35:18Z</time>
      </trkpt>
      <trkpt lat="44.20105" lon="3.24578">
        <ele>748</ele>
        <time>2015-10-16T15:37:18Z</time>
      </trkpt>
      <trkpt lat="44.20101" lon="3.24581">
        <ele>746</ele>
        <time>2015-10-16T15:39:18Z</time>
      </trkpt>
      <trkpt lat="44.20091" lon="3.24585">
        <ele>740</ele>
        <time>2015-10-16T15:41:18Z</time>
      </trkpt>
      <trkpt lat="44.20088" lon="3.24588">
        <ele>738</ele>
        <time>2015-10-16T15:43:18Z</time>
      </trkpt>
      <trkpt lat="44.20084" lon="3.24593">
        <ele>736</ele>
        <time>2015-10-16T15:45:18Z</time>
      </trkpt>
      <trkpt lat="44.20085" lon="3.24599">
        <ele>737</ele>
        <time>2015-10-16T15:47:18Z</time>
      </trkpt>
      <trkpt lat="44.20084" lon="3.246">
        <ele>737</ele>
        <time>2015-10-16T15:49:18Z</time>
      </trkpt>
      <trkpt lat="44.20086" lon="3.24605">
        <ele>739</ele>
        <time>2015-10-16T15:51:18Z</time>
      </trkpt>
      <trkpt lat="44.20085" lon="3.24605">
        <ele>738</ele>
        <time>2015-10-16T15:53:18Z</time>
      </trkpt>
      <trkpt lat="44.20084" lon="3.24606">
        <ele>737</ele>
        <time>2015-10-16T15:55:18Z</time>
      </trkpt>
      <trkpt lat="44.20086" lon="3.24614">
        <ele>739</ele>
        <time>2015-10-16T15:57:18Z</time>
      </trkpt>
      <trkpt lat="44.20085" lon="3.24629">
        <ele>740</ele>
        <time>2015-10-16T15:59:18Z</time>
      </trkpt>
      <trkpt lat="44.20082" lon="3.24636">
        <ele>738</ele>
        <time>2015-10-16T16:01:18Z</time>
      </trkpt>
      <trkpt lat="44.20081" lon="3.2464">
        <ele>738</ele>
        <time>2015-10-16T16:03:18Z</time>
      </trkpt>
      <trkpt lat="44.20073" lon="3.24649">
        <ele>733</ele>
        <time>2015-10-16T16:05:18Z</time>
      </trkpt>
      <trkpt lat="44.20072" lon="3.24645">
        <ele>732</ele>
        <time>2015-10-16T16:07:18Z</time>
      </trkpt>
      <trkpt lat="44.20073" lon="3.2464">
        <ele>732</ele>
        <time>2015-10-16T16:09:18Z</time>
      </trkpt>
      <trkpt lat="44.20074" lon="3.24636">
        <ele>733</ele>
        <time>2015-10-16T16:11:18Z</time>
      </trkpt>
      <trkpt lat="44.20072" lon="3.24634">
        <ele>731</ele>
        <time>2015-10-16T16:13:18Z</time>
      </trkpt>
      <trkpt lat="44.20069" lon="3.24636">
        <ele>729</ele>
        <time>2015-10-16T16:15:18Z</time>
      </trkpt>
      <trkpt lat="44.20067" lon="3.24635">
        <ele>728</ele>
        <time>2015-10-16T16:17:18Z</time>
      </trkpt>
      <trkpt lat="44.20064" lon="3.24636">
        <ele>725</ele>
        <time>2015-10-16T16:19:18Z</time>
      </trkpt>
      <trkpt lat="44.20061" lon="3.24647">
        <ele>723</ele>
        <time>2015-10-16T16:21:18Z</time>
      </trkpt>
      <trkpt lat="44.20054" lon="3.24657">
        <ele>718</ele>
        <time>2015-10-16T16:23:18Z</time>
      </trkpt>
      <trkpt lat="44.20047" lon="3.24666">
        <ele>712</ele>
        <time>2015-10-16T16:25:18Z</time>
      </trkpt>
      <trkpt lat="44.20046" lon="3.24669">
        <ele>712</ele>
        <time>2015-10-16T16:27:18Z</time>
      </trkpt>
      <trkpt lat="44.20044" lon="3.24667">
        <ele>710</ele>
        <time>2015-10-16T16:29:18Z</time>
      </trkpt>
      <trkpt lat="44.20041" lon="3.24662">
        <ele>708</ele>
        <time>2015-10-16T16:31:18Z</time>
      </trkpt>
      <trkpt lat="44.20036" lon="3.24671">
        <ele>704</ele>
        <time>2015-10-16T16:33:18Z</time>
      </trkpt>
      <trkpt lat="44.20031" lon="3.24679">
        <ele>701</ele>
        <time>2015-10-16T16:35:18Z</time>
      </trkpt>
      <trkpt lat="44.20026" lon="3.24689">
        <ele>698</ele>
        <time>2015-10-16T16:37:18Z</time>
      </trkpt>
      <trkpt lat="44.20019" lon="3.24704">
        <ele>694</ele>
        <time>2015-10-16T16:39:18Z</time>
      </trkpt>
      <trkpt lat="44.20014" lon="3.24725">
        <ele>692</ele>
        <time>2015-10-16T16:41:18Z</time>
      </trkpt>
      <trkpt lat="44.20012" lon="3.24744">
        <ele>693</ele>
        <time>2015-10-16T16:43:18Z</time>
      </trkpt>
      <trkpt lat="44.20011" lon="3.24752">
        <ele>692</ele>
        <time>2015-10-16T16:45:18Z</time>
      </trkpt>
      <trkpt lat="44.20009" lon="3.24761">
        <ele>690</ele>
        <time>2015-10-16T16:47:18Z</time>
      </trkpt>
      <trkpt lat="44.20008" lon="3.24767">
        <ele>688</ele>
        <time>2015-10-16T16:49:18Z</time>
      </trkpt>
      <trkpt lat="44.20002" lon="3.24779">
        <ele>682</ele>
        <time>2015-10-16T16:51:18Z</time>
      </trkpt>
      <trkpt lat="44.19997" lon="3.24791">
        <ele>677</ele>
        <time>2015-10-16T16:53:18Z</time>
      </trkpt>
      <trkpt lat="44.19995" lon="3.24793">
        <ele>675</ele>
        <time>2015-10-16T16:55:18Z</time>
      </trkpt>
      <trkpt lat="44.19987" lon="3.24804">
        <ele>669</ele>
        <time>2015-10-16T16:57:18Z</time>
      </trkpt>
      <trkpt lat="44.19985" lon="3.24807">
        <ele>668</ele>
        <time>2015-10-16T16:59:18Z</time>
      </trkpt>
      <trkpt lat="44.19979" lon="3.24818">
        <ele>663</ele>
        <time>2015-10-16T17:01:18Z</time>
      </trkpt>
      <trkpt lat="44.19977" lon="3.24828">
        <ele>661</ele>
        <time>2015-10-16T17:03:18Z</time>
      </trkpt>
      <trkpt lat="44.19978" lon="3.24834">
        <ele>661</ele>
        <time>2015-10-16T17:05:18Z</time>
      </trkpt>
      <trkpt lat="44.19975" lon="3.24835">
        <ele>659</ele>
        <time>2015-10-16T17:07:18Z</time>
      </trkpt>
      <trkpt lat="44.19975" lon="3.24842">
        <ele>658</ele>
        <time>2015-10-16T17:09:18Z</time>
      </trkpt>
      <trkpt lat="44.19974" lon="3.24859">
        <ele>654</ele>
        <time>2015-10-16T17:11:18Z</time>
      </trkpt>
      <trkpt lat="44.19978" lon="3.24874">
        <ele>654</ele>
        <time>2015-10-16T17:13:18Z</time>
      </trkpt>
      <trkpt lat="44.19979" lon="3.24876">
        <ele>655</ele>
        <time>2015-10-16T17:15:18Z</time>
      </trkpt>
      <trkpt lat="44.19982" lon="3.24889">
        <ele>654</ele>
        <time>2015-10-16T17:17:18Z</time>
      </trkpt>
      <trkpt lat="44.19982" lon="3.24897">
        <ele>653</ele>
        <time>2015-10-16T17:19:18Z</time>
      </trkpt>
      <trkpt lat="44.19984" lon="3.24902">
        <ele>653</ele>
        <time>2015-10-16T17:21:18Z</time>
      </trkpt>
      <trkpt lat="44.19979" lon="3.24914">
        <ele>648</ele>
        <time>2015-10-16T17:23:18Z</time>
      </trkpt>
      <trkpt lat="44.19977" lon="3.24924">
        <ele>645</ele>
        <time>2015-10-16T17:25:18Z</time>
      </trkpt>
      <trkpt lat="44.19976" lon="3.24935">
        <ele>643</ele>
        <time>2015-10-16T17:27:18Z</time>
      </trkpt>
      <trkpt lat="44.19977" lon="3.24944">
        <ele>643</ele>
        <time>2015-10-16T17:29:18Z</time>
      </trkpt>
      <trkpt lat="44.19979" lon="3.24953">
        <ele>642</ele>
        <time>2015-10-16T17:31:18Z</time>
      </trkpt>
      <trkpt lat="44.19974" lon="3.24949">
        <ele>640</ele>
        <time>2015-10-16T17:33:18Z</time>
      </trkpt>
      <trkpt lat="44.1997" lon="3.24946">
        <ele>638</ele>
        <time>2015-10-16T17:35:18Z</time>
      </trkpt>
      <trkpt lat="44.19966" lon="3.24945">
        <ele>636</ele>
        <time>2015-10-16T17:37:18Z</time>
      </trkpt>
      <trkpt lat="44.19963" lon="3.24942">
        <ele>635</ele>
        <time>2015-10-16T17:39:18Z</time>
      </trkpt>
      <trkpt lat="44.19956" lon="3.24935">
        <ele>631</ele>
        <time>2015-10-16T17:41:18Z</time>
      </trkpt>
      <trkpt lat="44.19953" lon="3.2494">
        <ele>629</ele>
        <time>2015-10-16T17:43:18Z</time>
      </trkpt>
      <trkpt lat="44.19949" lon="3.24942">
        <ele>626</ele>
        <time>2015-10-16T17:45:18Z</time>
      </trkpt>
      <trkpt lat="44.19946" lon="3.24949">
        <ele>624</ele>
        <time>2015-10-16T17:47:18Z</time>
      </trkpt>
      <trkpt lat="44.19941" lon="3.24952">
        <ele>620</ele>
        <time>2015-10-16T17:49:18Z</time>
      </trkpt>
      <trkpt lat="44.1994" lon="3.24953">
        <ele>619</ele>
        <time>2015-10-16T17:51:18Z</time>
      </trkpt>
      <trkpt lat="44.19945" lon="3.24961">
        <ele>621</ele>
        <time>2015-10-16T17:53:18Z</time>
      </trkpt>
      <trkpt lat="44.19947" lon="3.24963">
        <ele>622</ele>
        <time>2015-10-16T17:55:18Z</time>
      </trkpt>
      <trkpt lat="44.19957" lon="3.24974">
        <ele>626</ele>
        <time>2015-10-16T17:57:18Z</time>
      </trkpt>
      <trkpt lat="44.19959" lon="3.24982">
        <ele>626</ele>
        <time>2015-10-16T17:59:18Z</time>
      </trkpt>
      <trkpt lat="44.19954" lon="3.24988">
        <ele>623</ele>
        <time>2015-10-16T18:01:18Z</time>
      </trkpt>
      <trkpt lat="44.19953" lon="3.24998">
        <ele>621</ele>
        <time>2015-10-16T18:03:18Z</time>
      </trkpt>
      <trkpt lat="44.19952" lon="3.25">
        <ele>620</ele>
        <time>2015-10-16T18:05:18Z</time>
      </trkpt>
      <trkpt lat="44.19946" lon="3.25014">
        <ele>616</ele>
        <time>2015-10-16T18:07:18Z</time>
      </trkpt>
      <trkpt lat="44.19944" lon="3.25016">
        <ele>615</ele>
        <time>2015-10-16T18:09:18Z</time>
      </trkpt>
      <trkpt lat="44.1994" lon="3.25025">
        <ele>613</ele>
        <time>2015-10-16T18:11:18Z</time>
      </trkpt>
      <trkpt lat="44.19931" lon="3.25033">
        <ele>607</ele>
        <time>2015-10-16T18:13:18Z</time>
      </trkpt>
      <trkpt lat="44.19926" lon="3.25042">
        <ele>604</ele>
        <time>2015-10-16T18:15:18Z</time>
      </trkpt>
      <trkpt lat="44.19922" lon="3.25048">
        <ele>602</ele>
        <time>2015-10-16T18:17:18Z</time>
      </trkpt>
      <trkpt lat="44.1992" lon="3.25044">
        <ele>600</ele>
        <time>2015-10-16T18:19:18Z</time>
      </trkpt>
      <trkpt lat="44.1992" lon="3.25035">
        <ele>601</ele>
        <time>2015-10-16T18:21:18Z</time>
      </trkpt>
      <trkpt lat="44.1992" lon="3.25031">
        <ele>601</ele>
        <time>2015-10-16T18:23:18Z</time>
      </trkpt>
      <trkpt lat="44.19916" lon="3.2502">
        <ele>598</ele>
        <time>2015-10-16T18:25:18Z</time>
      </trkpt>
      <trkpt lat="44.19911" lon="3.25013">
        <ele>596</ele>
        <time>2015-10-16T18:27:18Z</time>
      </trkpt>
      <trkpt lat="44.19905" lon="3.25007">
        <ele>593</ele>
        <time>2015-10-16T18:29:18Z</time>
      </trkpt>
      <trkpt lat="44.19904" lon="3.25014">
        <ele>592</ele>
        <time>2015-10-16T18:31:18Z</time>
      </trkpt>
      <trkpt lat="44.19902" lon="3.25022">
        <ele>591</ele>
        <time>2015-10-16T18:33:18Z</time>
      </trkpt>
      <trkpt lat="44.19895" lon="3.25014">
        <ele>587</ele>
        <time>2015-10-16T18:35:18Z</time>
      </trkpt>
      <trkpt lat="44.19892" lon="3.25014">
        <ele>585</ele>
        <time>2015-10-16T18:37:18Z</time>
      </trkpt>
      <trkpt lat="44.19883" lon="3.25007">
        <ele>581</ele>
        <time>2015-10-16T18:39:18Z</time>
      </trkpt>
      <trkpt lat="44.19879" lon="3.25004">
        <ele>579</ele>
        <time>2015-10-16T18:41:18Z</time>
      </trkpt>
      <trkpt lat="44.19878" lon="3.25005">
        <ele>578</ele>
        <time>2015-10-16T18:43:18Z</time>
      </trkpt>
      <trkpt lat="44.19874" lon="3.25004">
        <ele>576</ele>
        <time>2015-10-16T18:45:18Z</time>
      </trkpt>
      <trkpt lat="44.1987" lon="3.25006">
        <ele>574</ele>
        <time>2015-10-16T18:47:18Z</time>
      </trkpt>
      <trkpt lat="44.19864" lon="3.25004">
        <ele>570</ele>
        <time>2015-10-16T18:49:18Z</time>
      </trkpt>
      <trkpt lat="44.19863" lon="3.25012">
        <ele>569</ele>
        <time>2015-10-16T18:51:18Z</time>
      </trkpt>
      <trkpt lat="44.19858" lon="3.25013">
        <ele>567</ele>
        <time>2015-10-16T18:53:18Z</time>
      </trkpt>
      <trkpt lat="44.19851" lon="3.25008">
        <ele>563</ele>
        <time>2015-10-16T18:55:18Z</time>
      </trkpt>
      <trkpt lat="44.19842" lon="3.25005">
        <ele>558</ele>
        <time>2015-10-16T18:57:18Z</time>
      </trkpt>
      <trkpt lat="44.19833" lon="3.25004">
        <ele>554</ele>
        <time>2015-10-16T18:59:18Z</time>
      </trkpt>
      <trkpt lat="44.19833" lon="3.25008">
        <ele>553</ele>
        <time>2015-10-16T19:01:18Z</time>
      </trkpt>
      <trkpt lat="44.19837" lon="3.25015">
        <ele>555</ele>
        <time>2015-10-16T19:03:18Z</time>
      </trkpt>
      <trkpt lat="44.19834" lon="3.25022">
        <ele>553</ele>
        <time>2015-10-16T19:05:18Z</time>
      </trkpt>
      <trkpt lat="44.19828" lon="3.25018">
        <ele>550</ele>
        <time>2015-10-16T19:07:18Z</time>
      </trkpt>
      <trkpt lat="44.19824" lon="3.25027">
        <ele>547</ele>
        <time>2015-10-16T19:09:18Z</time>
      </trkpt>
      <trkpt lat="44.19826" lon="3.25049">
        <ele>546</ele>
        <time>2015-10-16T19:11:18Z</time>
      </trkpt>
      <trkpt lat="44.19827" lon="3.25069">
        <ele>545</ele>
        <time>2015-10-16T19:13:18Z</time>
      </trkpt>
      <trkpt lat="44.19825" lon="3.25089">
        <ele>542</ele>
        <time>2015-10-16T19:15:18Z</time>
      </trkpt>
      <trkpt lat="44.19822" lon="3.25107">
        <ele>537</ele>
        <time>2015-10-16T19:17:18Z</time>
      </trkpt>
      <trkpt lat="44.19821" lon="3.25127">
        <ele>534</ele>
        <time>2015-10-16T19:19:18Z</time>
      </trkpt>
      <trkpt lat="44.19822" lon="3.25144">
        <ele>531</ele>
        <time>2015-10-16T19:21:18Z</time>
      </trkpt>
      <trkpt lat="44.19828" lon="3.25163">
        <ele>532</ele>
        <time>2015-10-16T19:23:18Z</time>
      </trkpt>
      <trkpt lat="44.19838" lon="3.25178">
        <ele>532</ele>
        <time>2015-10-16T19:25:18Z</time>
      </trkpt>
      <trkpt lat="44.19846" lon="3.25187">
        <ele>534</ele>
        <time>2015-10-16T19:27:18Z</time>
      </trkpt>
      <trkpt lat="44.19847" lon="3.25189">
        <ele>534</ele>
        <time>2015-10-16T19:29:18Z</time>
      </trkpt>
      <trkpt lat="44.19855" lon="3.25201">
        <ele>534</ele>
        <time>2015-10-16T19:31:18Z</time>
      </trkpt>
      <trkpt lat="44.19866" lon="3.25217">
        <ele>536</ele>
        <time>2015-10-16T19:33:18Z</time>
      </trkpt>
      <trkpt lat="44.19875" lon="3.25232">
        <ele>537</ele>
        <time>2015-10-16T19:35:18Z</time>
      </trkpt>
      <trkpt lat="44.19882" lon="3.25245">
        <ele>538</ele>
        <time>2015-10-16T19:37:18Z</time>
      </trkpt>
      <trkpt lat="44.19887" lon="3.25257">
        <ele>539</ele>
        <time>2015-10-16T19:39:18Z</time>
      </trkpt>
      <trkpt lat="44.19894" lon="3.25271">
        <ele>542</ele>
        <time>2015-10-16T19:41:18Z</time>
      </trkpt>
      <trkpt lat="44.19897" lon="3.25287">
        <ele>541</ele>
        <time>2015-10-16T19:43:18Z</time>
      </trkpt>
      <trkpt lat="44.19896" lon="3.25308">
        <ele>537</ele>
        <time>2015-10-16T19:45:18Z</time>
      </trkpt>
      <trkpt lat="44.19894" lon="3.25331">
        <ele>532</ele>
        <time>2015-10-16T19:47:18Z</time>
      </trkpt>
      <trkpt lat="44.19893" lon="3.25354">
        <ele>529</ele>
        <time>2015-10-16T19:49:18Z</time>
      </trkpt>
      <trkpt lat="44.19896" lon="3.25371">
        <ele>529</ele>
        <time>2015-10-16T19:51:18Z</time>
      </trkpt>
      <trkpt lat="44.19901" lon="3.25387">
        <ele>531</ele>
        <time>2015-10-16T19:53:18Z</time>
      </trkpt>
      <trkpt lat="44.19903" lon="3.25403">
        <ele>530</ele>
        <time>2015-10-16T19:55:18Z</time>
      </trkpt>
      <trkpt lat="44.19903" lon="3.2542">
        <ele>528</ele>
        <time>2015-10-16T19:57:18Z</time>
      </trkpt>
      <trkpt lat="44.19901" lon="3.2544">
        <ele>524</ele>
        <time>2015-10-16T19:59:18Z</time>
      </trkpt>
      <trkpt lat="44.19901" lon="3.25457">
        <ele>522</ele>
        <time>2015-10-16T20:01:18Z</time>
      </trkpt>
      <trkpt lat="44.19903" lon="3.25476">
        <ele>520</ele>
        <time>2015-10-16T20:03:18Z</time>
      </trkpt>
      <trkpt lat="44.19906" lon="3.25493">
        <ele>520</ele>
        <time>2015-10-16T20:05:18Z</time>
      </trkpt>
      <trkpt lat="44.19911" lon="3.25512">
        <ele>520</ele>
        <time>2015-10-16T20:07:18Z</time>
      </trkpt>
      <trkpt lat="44.19919" lon="3.25524">
        <ele>522</ele>
        <time>2015-10-16T20:09:18Z</time>
      </trkpt>
      <trkpt lat="44.1993" lon="3.25529">
        <ele>525</ele>
        <time>2015-10-16T20:11:18Z</time>
      </trkpt>
      <trkpt lat="44.1994" lon="3.25529">
        <ele>528</ele>
        <time>2015-10-16T20:13:18Z</time>
      </trkpt>
      <trkpt lat="44.19952" lon="3.25528">
        <ele>532</ele>
        <time>2015-10-16T20:15:18Z</time>
      </trkpt>
      <trkpt lat="44.19964" lon="3.25529">
        <ele>536</ele>
        <time>2015-10-16T20:17:18Z</time>
      </trkpt>
      <trkpt lat="44.19976" lon="3.25533">
        <ele>540</ele>
        <time>2015-10-16T20:19:18Z</time>
      </trkpt>
      <trkpt lat="44.19985" lon="3.25544">
        <ele>541</ele>
        <time>2015-10-16T20:21:18Z</time>
      </trkpt>
      <trkpt lat="44.1999" lon="3.25557">
        <ele>542</ele>
        <time>2015-10-16T20:23:18Z</time>
      </trkpt>
      <trkpt lat="44.19987" lon="3.25581">
        <ele>538</ele>
        <time>2015-10-16T20:25:18Z</time>
      </trkpt>
      <trkpt lat="44.19982" lon="3.25602">
        <ele>536</ele>
        <time>2015-10-16T20:27:18Z</time>
      </trkpt>
      <trkpt lat="44.19977" lon="3.25626">
        <ele>534</ele>
        <time>2015-10-16T20:29:18Z</time>
      </trkpt>
      <trkpt lat="44.19972" lon="3.25649">
        <ele>532</ele>
        <time>2015-10-16T20:31:18Z</time>
      </trkpt>
      <trkpt lat="44.19968" lon="3.25673">
        <ele>530</ele>
        <time>2015-10-16T20:33:18Z</time>
      </trkpt>
      <trkpt lat="44.19965" lon="3.25693">
        <ele>528</ele>
        <time>2015-10-16T20:35:18Z</time>
      </trkpt>
      <trkpt lat="44.19961" lon="3.25718">
        <ele>526</ele>
        <time>2015-10-16T20:37:18Z</time>
      </trkpt>
      <trkpt lat="44.1996" lon="3.2572">
        <ele>526</ele>
        <time>2015-10-16T20:39:18Z</time>
      </trkpt>
      <trkpt lat="44.19956" lon="3.25743">
        <ele>524</ele>
        <time>2015-10-16T20:41:18Z</time>
      </trkpt>
      <trkpt lat="44.19952" lon="3.25764">
        <ele>521</ele>
        <time>2015-10-16T20:43:18Z</time>
      </trkpt>
      <trkpt lat="44.19951" lon="3.25781">
        <ele>520</ele>
        <time>2015-10-16T20:45:18Z</time>
      </trkpt>
      <trkpt lat="44.19954" lon="3.258">
        <ele>521</ele>
        <time>2015-10-16T20:47:18Z</time>
      </trkpt>
      <trkpt lat="44.19957" lon="3.25816">
        <ele>522</ele>
        <time>2015-10-16T20:49:18Z</time>
      </trkpt>
      <trkpt lat="44.19959" lon="3.25834">
        <ele>522</ele>
        <time>2015-10-16T20:51:18Z</time>
      </trkpt>
      <trkpt lat="44.19961" lon="3.25851">
        <ele>519</ele>
        <time>2015-10-16T20:53:18Z</time>
      </trkpt>
      <trkpt lat="44.19964" lon="3.25868">
        <ele>517</ele>
        <time>2015-10-16T20:55:18Z</time>
      </trkpt>
      <trkpt lat="44.19967" lon="3.25877">
        <ele>517</ele>
        <time>2015-10-16T20:57:18Z</time>
      </trkpt>
      <trkpt lat="44.19964" lon="3.2588">
        <ele>515</ele>
        <time>2015-10-16T20:59:18Z</time>
      </trkpt>
      <trkpt lat="44.1996" lon="3.25871">
        <ele>515</ele>
        <time>2015-10-16T21:01:18Z</time>
      </trkpt>
      <trkpt lat="44.19955" lon="3.25876">
        <ele>511</ele>
        <time>2015-10-16T21:03:18Z</time>
      </trkpt>
      <trkpt lat="44.19953" lon="3.25877">
        <ele>509</ele>
        <time>2015-10-16T21:05:18Z</time>
      </trkpt>
      <trkpt lat="44.19943" lon="3.25884">
        <ele>503</ele>
        <time>2015-10-16T21:07:18Z</time>
      </trkpt>
      <trkpt lat="44.19939" lon="3.25876">
        <ele>502</ele>
        <time>2015-10-16T21:09:18Z</time>
      </trkpt>
      <trkpt lat="44.19939" lon="3.25866">
        <ele>504</ele>
        <time>2015-10-16T21:11:18Z</time>
      </trkpt>
      <trkpt lat="44.19937" lon="3.25862">
        <ele>504</ele>
        <time>2015-10-16T21:13:18Z</time>
      </trkpt>
      <trkpt lat="44.19937" lon="3.25868">
        <ele>502</ele>
        <time>2015-10-16T21:15:18Z</time>
      </trkpt>
      <trkpt lat="44.19938" lon="3.25886">
        <ele>500</ele>
        <time>2015-10-16T21:17:18Z</time>
      </trkpt>
      <trkpt lat="44.1994" lon="3.25903">
        <ele>497</ele>
        <time>2015-10-16T21:19:18Z</time>
      </trkpt>
      <trkpt lat="44.19947" lon="3.25916">
        <ele>498</ele>
        <time>2015-10-16T21:21:18Z</time>
      </trkpt>
      <trkpt lat="44.19951" lon="3.25925">
        <ele>498</ele>
        <time>2015-10-16T21:23:18Z</time>
      </trkpt>
      <trkpt lat="44.19961" lon="3.25927">
        <ele>503</ele>
        <time>2015-10-16T21:25:18Z</time>
      </trkpt>
      <trkpt lat="44.19967" lon="3.25934">
        <ele>504</ele>
        <time>2015-10-16T21:27:18Z</time>
      </trkpt>
      <trkpt lat="44.19977" lon="3.2594">
        <ele>507</ele>
        <time>2015-10-16T21:29:18Z</time>
      </trkpt>
      <trkpt lat="44.19983" lon="3.25947">
        <ele>508</ele>
        <time>2015-10-16T21:31:18Z</time>
      </trkpt>
      <trkpt lat="44.19993" lon="3.2596">
        <ele>508</ele>
        <time>2015-10-16T21:33:18Z</time>
      </trkpt>
      <trkpt lat="44.2" lon="3.2597">
        <ele>508</ele>
        <time>2015-10-16T21:35:18Z</time>
      </trkpt>
      <trkpt lat="44.2" lon="3.25978">
        <ele>505</ele>
        <time>2015-10-16T21:37:18Z</time>
      </trkpt>
      <trkpt lat="44.20002" lon="3.25985">
        <ele>504</ele>
        <time>2015-10-16T21:39:18Z</time>
      </trkpt>
      <trkpt lat="44.19997" lon="3.25999">
        <ele>497</ele>
        <time>2015-10-16T21:41:18Z</time>
      </trkpt>
      <trkpt lat="44.1999" lon="3.2601">
        <ele>493</ele>
        <time>2015-10-16T21:43:18Z</time>
      </trkpt>
      <trkpt lat="44.19998" lon="3.26026">
        <ele>493</ele>
        <time>2015-10-16T21:45:18Z</time>
      </trkpt>
      <trkpt lat="44.19999" lon="3.26035">
        <ele>491</ele>
        <time>2015-10-16T21:47:18Z</time>
      </trkpt>
      <trkpt lat="44.19997" lon="3.26041">
        <ele>490</ele>
        <time>2015-10-16T21:49:18Z</time>
      </trkpt>
      <trkpt lat="44.19995" lon="3.26033">
        <ele>491</ele>
        <time>2015-10-16T21:51:18Z</time>
      </trkpt>
      <trkpt lat="44.19989" lon="3.26034">
        <ele>489</ele>
        <time>2015-10-16T21:53:18Z</time>
      </trkpt>
      <trkpt lat="44.19985" lon="3.26036">
        <ele>488</ele>
        <time>2015-10-16T21:55:18Z</time>
      </trkpt>
      <trkpt lat="44.19981" lon="3.26041">
        <ele>487</ele>
        <time>2015-10-16T21:57:18Z</time>
      </trkpt>
      <trkpt lat="44.19979" lon="3.26035">
        <ele>487</ele>
        <time>2015-10-16T21:59:18Z</time>
      </trkpt>
      <trkpt lat="44.19971" lon="3.26029">
        <ele>486</ele>
        <time>2015-10-16T22:01:18Z</time>
      </trkpt>
      <trkpt lat="44.19971" lon="3.26025">
        <ele>486</ele>
        <time>2015-10-16T22:03:18Z</time>
      </trkpt>
      <trkpt lat="44.19969" lon="3.26009">
        <ele>487</ele>
        <time>2015-10-16T22:05:18Z</time>
      </trkpt>
      <trkpt lat="44.19951" lon="3.2601">
        <ele>481</ele>
        <time>2015-10-16T22:07:18Z</time>
      </trkpt>
      <trkpt lat="44.19955" lon="3.26017">
        <ele>482</ele>
        <time>2015-10-16T22:09:18Z</time>
      </trkpt>
      <trkpt lat="44.1995" lon="3.26017">
        <ele>481</ele>
        <time>2015-10-16T22:11:18Z</time>
      </trkpt>
      <trkpt lat="44.19951" lon="3.26029">
        <ele>481</ele>
        <time>2015-10-16T22:13:18Z</time>
      </trkpt>
      <trkpt lat="44.19951" lon="3.26034">
        <ele>480</ele>
        <time>2015-10-16T22:15:18Z</time>
      </trkpt>
      <trkpt lat="44.19953" lon="3.26039">
        <ele>481</ele>
        <time>2015-10-16T22:17:18Z</time>
      </trkpt>
      <trkpt lat="44.19954" lon="3.26042">
        <ele>481</ele>
        <time>2015-10-16T22:19:18Z</time>
      </trkpt>
      <trkpt lat="44.19948" lon="3.26042">
        <ele>480</ele>
        <time>2015-10-16T22:21:18Z</time>
      </trkpt>
      <trkpt lat="44.19942" lon="3.2604">
        <ele>478</ele>
        <time>2015-10-16T22:23:18Z</time>
      </trkpt>
      <trkpt lat="44.1994" lon="3.26039">
        <ele>478</ele>
        <time>2015-10-16T22:25:18Z</time>
      </trkpt>
      <trkpt lat="44.19926" lon="3.26024">
        <ele>474</ele>
        <time>2015-10-16T22:27:18Z</time>
      </trkpt>
      <trkpt lat="44.19923" lon="3.26017">
        <ele>473</ele>
        <time>2015-10-16T22:29:18Z</time>
      </trkpt>
      <trkpt lat="44.19921" lon="3.2601">
        <ele>472</ele>
        <time>2015-10-16T22:31:18Z</time>
      </trkpt>
      <trkpt lat="44.1992" lon="3.25999">
        <ele>471</ele>
        <time>2015-10-16T22:33:18Z</time>
      </trkpt>
      <trkpt lat="44.19917" lon="3.25985">
        <ele>472</ele>
        <time>2015-10-16T22:35:18Z</time>
      </trkpt>
      <trkpt lat="44.19913" lon="3.25974">
        <ele>474</ele>
        <time>2015-10-16T22:37:18Z</time>
      </trkpt>
      <trkpt lat="44.19909" lon="3.25965">
        <ele>476</ele>
        <time>2015-10-16T22:39:18Z</time>
      </trkpt>
      <trkpt lat="44.19901" lon="3.25958">
        <ele>477</ele>
        <time>2015-10-16T22:41:18Z</time>
      </trkpt>
      <trkpt lat="44.19895" lon="3.25949">
        <ele>477</ele>
        <time>2015-10-16T22:43:18Z</time>
      </trkpt>
      <trkpt lat="44.19883" lon="3.25932">
        <ele>477</ele>
        <time>2015-10-16T22:45:18Z</time>
      </trkpt>
      <trkpt lat="44.19875" lon="3.25916">
        <ele>476</ele>
        <time>2015-10-16T22:47:18Z</time>
      </trkpt>
      <trkpt lat="44.19869" lon="3.25907">
        <ele>475</ele>
        <time>2015-10-16T22:49:18Z</time>
      </trkpt>
      <trkpt lat="44.19864" lon="3.25892">
        <ele>475</ele>
        <time>2015-10-16T22:51:18Z</time>
      </trkpt>
      <trkpt lat="44.19846" lon="3.2587">
        <ele>470</ele>
        <time>2015-10-16T22:53:18Z</time>
      </trkpt>
      <trkpt lat="44.19835" lon="3.25851">
        <ele>466</ele>
        <time>2015-10-16T22:55:18Z</time>
      </trkpt>
      <trkpt lat="44.19828" lon="3.25836">
        <ele>467</ele>
        <time>2015-10-16T22:57:18Z</time>
      </trkpt>
      <trkpt lat="44.19819" lon="3.25821">
        <ele>470</ele>
        <time>2015-10-16T22:59:18Z</time>
      </trkpt>
      <trkpt lat="44.19814" lon="3.25801">
        <ele>471</ele>
        <time>2015-10-16T23:01:18Z</time>
      </trkpt>
      <trkpt lat="44.19809" lon="3.25782">
        <ele>471</ele>
        <time>2015-10-16T23:03:18Z</time>
      </trkpt>
      <trkpt lat="44.19809" lon="3.25763">
        <ele>469</ele>
        <time>2015-10-16T23:05:18Z</time>
      </trkpt>
      <trkpt lat="44.19807" lon="3.25745">
        <ele>469</ele>
        <time>2015-10-16T23:07:18Z</time>
      </trkpt>
      <trkpt lat="44.19808" lon="3.25724">
        <ele>469</ele>
        <time>2015-10-16T23:09:18Z</time>
      </trkpt>
      <trkpt lat="44.19803" lon="3.25725">
        <ele>471</ele>
        <time>2015-10-16T23:11:18Z</time>
      </trkpt>
      <trkpt lat="44.19793" lon="3.25729">
        <ele>474</ele>
        <time>2015-10-16T23:13:18Z</time>
      </trkpt>
      <trkpt lat="44.19787" lon="3.25678">
        <ele>476</ele>
        <time>2015-10-16T23:15:18Z</time>
      </trkpt>
      <trkpt lat="44.19775" lon="3.25612">
        <ele>480</ele>
        <time>2015-10-16T23:17:18Z</time>
      </trkpt>
      <trkpt lat="44.19776" lon="3.25587">
        <ele>480</ele>
        <time>2015-10-16T23:19:18Z</time>
      </trkpt>
      <trkpt lat="44.19777" lon="3.25565">
        <ele>480</ele>
        <time>2015-10-16T23:21:18Z</time>
      </trkpt>
      <trkpt lat="44.19777" lon="3.25544">
        <ele>479</ele>
        <time>2015-10-16T23:23:18Z</time>
      </trkpt>
      <trkpt lat="44.19777" lon="3.25526">
        <ele>479</ele>
        <time>2015-10-16T23:25:18Z</time>
      </trkpt>
      <trkpt lat="44.19778" lon="3.25515">
        <ele>478</ele>
        <time>2015-10-16T23:27:18Z</time>
      </trkpt>
      <trkpt lat="44.19779" lon="3.25505">
        <ele>478</ele>
        <time>2015-10-16T23:29:18Z</time>
      </trkpt>
      <trkpt lat="44.19781" lon="3.25484">
        <ele>478</ele>
        <time>2015-10-16T23:31:18Z</time>
      </trkpt>
      <trkpt lat="44.19781" lon="3.25468">
        <ele>479</ele>
        <time>2015-10-16T23:33:18Z</time>
      </trkpt>
      <trkpt lat="44.19782" lon="3.25453">
        <ele>479</ele>
        <time>2015-10-16T23:35:18Z</time>
      </trkpt>
      <trkpt lat="44.19781" lon="3.25444">
        <ele>479</ele>
        <time>2015-10-16T23:37:18Z</time>
      </trkpt>
      <trkpt lat="44.1978" lon="3.25439">
        <ele>480</ele>
        <time>2015-10-16T23:39:18Z</time>
      </trkpt>
      <trkpt lat="44.1978" lon="3.25432">
        <ele>480</ele>
        <time>2015-10-16T23:41:18Z</time>
      </trkpt>
      <trkpt lat="44.19779" lon="3.25425">
        <ele>480</ele>
        <time>2015-10-16T23:43:18Z</time>
      </trkpt>
      <trkpt lat="44.19778" lon="3.25417">
        <ele>480</ele>
        <time>2015-10-16T23:45:18Z</time>
      </trkpt>
      <trkpt lat="44.19776" lon="3.25409">
        <ele>479</ele>
        <time>2015-10-16T23:47:18Z</time>
      </trkpt>
      <trkpt lat="44.19775" lon="3.25401">
        <ele>479</ele>
        <time>2015-10-16T23:49:18Z</time>
      </trkpt>
      <trkpt lat="44.19773" lon="3.25397">
        <ele>478</ele>
        <time>2015-10-16T23:51:18Z</time>
      </trkpt>
      <trkpt lat="44.19772" lon="3.25389">
        <ele>478</ele>
        <time>2015-10-16T23:53:18Z</time>
      </trkpt>
      <trkpt lat="44.1977" lon="3.25383">
        <ele>477</ele>
        <time>2015-10-16T23:55:18Z</time>
      </trkpt>
      <trkpt lat="44.19768" lon="3.25376">
        <ele>476</ele>
        <time>2015-10-16T23:57:18Z</time>
      </trkpt>
      <trkpt lat="44.19764" lon="3.25368">
        <ele>475</ele>
        <time>2015-10-16T23:59:18Z</time>
      </trkpt>
      <trkpt lat="44.19761" lon="3.25359">
        <ele>473</ele>
        <time>2015-10-17T00:01:18Z</time>
      </trkpt>
      <trkpt lat="44.1975" lon="3.25334">
        <ele>468</ele>
        <time>2015-10-17T00:03:18Z</time>
      </trkpt>
      <trkpt lat="44.19736" lon="3.25298">
        <ele>475</ele>
        <time>2015-10-17T00:05:18Z</time>
      </trkpt>
      <trkpt lat="44.19719" lon="3.25272">
        <ele>480</ele>
        <time>2015-10-17T00:07:18Z</time>
      </trkpt>
      <trkpt lat="44.197" lon="3.25239">
        <ele>483</ele>
        <time>2015-10-17T00:09:18Z</time>
      </trkpt>
      <trkpt lat="44.19679" lon="3.25216">
        <ele>482</ele>
        <time>2015-10-17T00:11:18Z</time>
      </trkpt>
      <trkpt lat="44.19665" lon="3.25191">
        <ele>475</ele>
        <time>2015-10-17T00:13:18Z</time>
      </trkpt>
      <trkpt lat="44.19651" lon="3.25164">
        <ele>479</ele>
        <time>2015-10-17T00:15:18Z</time>
      </trkpt>
      <trkpt lat="44.19641" lon="3.25125">
        <ele>477</ele>
        <time>2015-10-17T00:17:18Z</time>
      </trkpt>
      <trkpt lat="44.19638" lon="3.2512">
        <ele>478</ele>
        <time>2015-10-17T00:19:18Z</time>
      </trkpt>
      <trkpt lat="44.19636" lon="3.25118">
        <ele>479</ele>
        <time>2015-10-17T00:21:18Z</time>
      </trkpt>
      <trkpt lat="44.19635" lon="3.25117">
        <ele>479</ele>
        <time>2015-10-17T00:23:18Z</time>
      </trkpt>
      <trkpt lat="44.19632" lon="3.25115">
        <ele>480</ele>
        <time>2015-10-17T00:25:18Z</time>
      </trkpt>
      <trkpt lat="44.1963" lon="3.25112">
        <ele>481</ele>
        <time>2015-10-17T00:27:18Z</time>
      </trkpt>
      <trkpt lat="44.19627" lon="3.25109">
        <ele>481</ele>
        <time>2015-10-17T00:29:18Z</time>
      </trkpt>
      <trkpt lat="44.19624" lon="3.25102">
        <ele>481</ele>
        <time>2015-10-17T00:31:18Z</time>
      </trkpt>
      <trkpt lat="44.19621" lon="3.25098">
        <ele>481</ele>
        <time>2015-10-17T00:33:18Z</time>
      </trkpt>
      <trkpt lat="44.19619" lon="3.25091">
        <ele>479</ele>
        <time>2015-10-17T00:35:18Z</time>
      </trkpt>
      <trkpt lat="44.19617" lon="3.25086">
        <ele>478</ele>
        <time>2015-10-17T00:37:18Z</time>
      </trkpt>
      <trkpt lat="44.19615" lon="3.25082">
        <ele>477</ele>
        <time>2015-10-17T00:39:18Z</time>
      </trkpt>
      <trkpt lat="44.19613" lon="3.25078">
        <ele>478</ele>
        <time>2015-10-17T00:41:18Z</time>
      </trkpt>
      <trkpt lat="44.1961" lon="3.25072">
        <ele>477</ele>
        <time>2015-10-17T00:43:18Z</time>
      </trkpt>
      <trkpt lat="44.19607" lon="3.25063">
        <ele>476</ele>
        <time>2015-10-17T00:45:18Z</time>
      </trkpt>
      <trkpt lat="44.19605" lon="3.25056">
        <ele>475</ele>
        <time>2015-10-17T00:47:18Z</time>
      </trkpt>
      <trkpt lat="44.19604" lon="3.2505">
        <ele>474</ele>
        <time>2015-10-17T00:49:18Z</time>
      </trkpt>
      <trkpt lat="44.19603" lon="3.25042">
        <ele>472</ele>
        <time>2015-10-17T00:51:18Z</time>
      </trkpt>
      <trkpt lat="44.19601" lon="3.25031">
        <ele>470</ele>
        <time>2015-10-17T00:53:18Z</time>
      </trkpt>
      <trkpt lat="44.19599" lon="3.25025">
        <ele>468</ele>
        <time>2015-10-17T00:55:18Z</time>
      </trkpt>
      <trkpt lat="44.19597" lon="3.2502">
        <ele>467</ele>
        <time>2015-10-17T00:57:18Z</time>
      </trkpt>
      <trkpt lat="44.19595" lon="3.25016">
        <ele>466</ele>
        <time>2015-10-17T00:59:18Z</time>
      </trkpt>
      <trkpt lat="44.19594" lon="3.25013">
        <ele>465</ele>
        <time>2015-10-17T01:01:18Z</time>
      </trkpt>
      <trkpt lat="44.19592" lon="3.25011">
        <ele>464</ele>
        <time>2015-10-17T01:03:18Z</time>
      </trkpt>
      <trkpt lat="44.19589" lon="3.25008">
        <ele>463</ele>
        <time>2015-10-17T01:05:18Z</time>
      </trkpt>
      <trkpt lat="44.19584" lon="3.25003">
        <ele>461</ele>
        <time>2015-10-17T01:07:18Z</time>
      </trkpt>
      <trkpt lat="44.1958" lon="3.24998">
        <ele>462</ele>
        <time>2015-10-17T01:09:18Z</time>
      </trkpt>
      <trkpt lat="44.19577" lon="3.24996">
        <ele>464</ele>
        <time>2015-10-17T01:11:18Z</time>
      </trkpt>
      <trkpt lat="44.19575" lon="3.24994">
        <ele>465</ele>
        <time>2015-10-17T01:13:18Z</time>
      </trkpt>
      <trkpt lat="44.19571" lon="3.24989">
        <ele>466</ele>
        <time>2015-10-17T01:15:18Z</time>
      </trkpt>
      <trkpt lat="44.19567" lon="3.24984">
        <ele>468</ele>
        <time>2015-10-17T01:17:18Z</time>
      </trkpt>
      <trkpt lat="44.19564" lon="3.24981">
        <ele>469</ele>
        <time>2015-10-17T01:19:18Z</time>
      </trkpt>
      <trkpt lat="44.19561" lon="3.24978">
        <ele>471</ele>
        <time>2015-10-17T01:21:18Z</time>
      </trkpt>
      <trkpt lat="44.19558" lon="3.24974">
        <ele>472</ele>
        <time>2015-10-17T01:23:18Z</time>
      </trkpt>
      <trkpt lat="44.19553" lon="3.24969">
        <ele>473</ele>
        <time>2015-10-17T01:25:18Z</time>
      </trkpt>
      <trkpt lat="44.1955" lon="3.24967">
        <ele>475</ele>
        <time>2015-10-17T01:27:18Z</time>
      </trkpt>
      <trkpt lat="44.19547" lon="3.24965">
        <ele>476</ele>
        <time>2015-10-17T01:29:18Z</time>
      </trkpt>
      <trkpt lat="44.19545" lon="3.24963">
        <ele>476</ele>
        <time>2015-10-17T01:31:18Z</time>
      </trkpt>
      <trkpt lat="44.1954" lon="3.24959">
        <ele>478</ele>
        <time>2015-10-17T01:33:18Z</time>
      </trkpt>
      <trkpt lat="44.19536" lon="3.24955">
        <ele>479</ele>
        <time>2015-10-17T01:35:18Z</time>
      </trkpt>
      <trkpt lat="44.19531" lon="3.24953">
        <ele>481</ele>
        <time>2015-10-17T01:37:18Z</time>
      </trkpt>
      <trkpt lat="44.19525" lon="3.24947">
        <ele>482</ele>
        <time>2015-10-17T01:39:18Z</time>
      </trkpt>
      <trkpt lat="44.19521" lon="3.24942">
        <ele>482</ele>
        <time>2015-10-17T01:41:18Z</time>
      </trkpt>
      <trkpt lat="44.19519" lon="3.24937">
        <ele>482</ele>
        <time>2015-10-17T01:43:18Z</time>
      </trkpt>
      <trkpt lat="44.19516" lon="3.24929">
        <ele>480</ele>
        <time>2015-10-17T01:45:18Z</time>
      </trkpt>
      <trkpt lat="44.19515" lon="3.24923">
        <ele>479</ele>
        <time>2015-10-17T01:47:18Z</time>
      </trkpt>
      <trkpt lat="44.19514" lon="3.24913">
        <ele>476</ele>
        <time>2015-10-17T01:49:18Z</time>
      </trkpt>
      <trkpt lat="44.19514" lon="3.24905">
        <ele>475</ele>
        <time>2015-10-17T01:51:18Z</time>
      </trkpt>
      <trkpt lat="44.19513" lon="3.249">
        <ele>475</ele>
        <time>2015-10-17T01:53:18Z</time>
      </trkpt>
      <trkpt lat="44.19513" lon="3.24892">
        <ele>474</ele>
        <time>2015-10-17T01:55:18Z</time>
      </trkpt>
      <trkpt lat="44.19513" lon="3.24886">
        <ele>473</ele>
        <time>2015-10-17T01:57:18Z</time>
      </trkpt>
      <trkpt lat="44.19513" lon="3.2488">
        <ele>472</ele>
        <time>2015-10-17T01:59:18Z</time>
      </trkpt>
      <trkpt lat="44.19515" lon="3.24859">
        <ele>469</ele>
        <time>2015-10-17T02:01:18Z</time>
      </trkpt>
      <trkpt lat="44.19514" lon="3.2485">
        <ele>468</ele>
        <time>2015-10-17T02:03:18Z</time>
      </trkpt>
      <trkpt lat="44.1951" lon="3.24843">
        <ele>468</ele>
        <time>2015-10-17T02:05:18Z</time>
      </trkpt>
      <trkpt lat="44.19508" lon="3.24832">
        <ele>466</ele>
        <time>2015-10-17T02:07:18Z</time>
      </trkpt>
      <trkpt lat="44.19508" lon="3.24825">
        <ele>466</ele>
        <time>2015-10-17T02:09:18Z</time>
      </trkpt>
      <trkpt lat="44.19508" lon="3.24817">
        <ele>465</ele>
        <time>2015-10-17T02:11:18Z</time>
      </trkpt>
      <trkpt lat="44.19506" lon="3.2481">
        <ele>464</ele>
        <time>2015-10-17T02:13:18Z</time>
      </trkpt>
      <trkpt lat="44.19505" lon="3.24804">
        <ele>463</ele>
        <time>2015-10-17T02:15:18Z</time>
      </trkpt>
      <trkpt lat="44.19502" lon="3.24799">
        <ele>463</ele>
        <time>2015-10-17T02:17:18Z</time>
      </trkpt>
      <trkpt lat="44.19501" lon="3.24788">
        <ele>461</ele>
        <time>2015-10-17T02:19:18Z</time>
      </trkpt>
      <trkpt lat="44.19502" lon="3.24779">
        <ele>460</ele>
        <time>2015-10-17T02:21:18Z</time>
      </trkpt>
      <trkpt lat="44.19502" lon="3.2477">
        <ele>459</ele>
        <time>2015-10-17T02:23:18Z</time>
      </trkpt>
      <trkpt lat="44.195" lon="3.24765">
        <ele>458</ele>
        <time>2015-10-17T02:25:18Z</time>
      </trkpt>
      <trkpt lat="44.19496" lon="3.24758">
        <ele>460</ele>
        <time>2015-10-17T02:27:18Z</time>
      </trkpt>
      <trkpt lat="44.1949" lon="3.24752">
        <ele>463</ele>
        <time>2015-10-17T02:29:18Z</time>
      </trkpt>
      <trkpt lat="44.19483" lon="3.24745">
        <ele>467</ele>
        <time>2015-10-17T02:31:18Z</time>
      </trkpt>
      <trkpt lat="44.19479" lon="3.24736">
        <ele>468</ele>
        <time>2015-10-17T02:33:18Z</time>
      </trkpt>
      <trkpt lat="44.19471" lon="3.24728">
        <ele>472</ele>
        <time>2015-10-17T02:35:18Z</time>
      </trkpt>
      <trkpt lat="44.19458" lon="3.24715">
        <ele>478</ele>
        <time>2015-10-17T02:37:18Z</time>
      </trkpt>
      <trkpt lat="44.19455" lon="3.24706">
        <ele>478</ele>
        <time>2015-10-17T02:39:18Z</time>
      </trkpt>
      <trkpt lat="44.19451" lon="3.24699">
        <ele>479</ele>
        <time>2015-10-17T02:41:18Z</time>
      </trkpt>
      <trkpt lat="44.19448" lon="3.24689">
        <ele>479</ele>
        <time>2015-10-17T02:43:18Z</time>
      </trkpt>
      <trkpt lat="44.19444" lon="3.24677">
        <ele>479</ele>
        <time>2015-10-17T02:45:18Z</time>
      </trkpt>
      <trkpt lat="44.19441" lon="3.24668">
        <ele>478</ele>
        <time>2015-10-17T02:47:18Z</time>
      </trkpt>
      <trkpt lat="44.19439" lon="3.24657">
        <ele>477</ele>
        <time>2015-10-17T02:49:18Z</time>
      </trkpt>
      <trkpt lat="44.19435" lon="3.24646">
        <ele>475</ele>
        <time>2015-10-17T02:51:18Z</time>
      </trkpt>
      <trkpt lat="44.19429" lon="3.24637">
        <ele>475</ele>
        <time>2015-10-17T02:53:18Z</time>
      </trkpt>
      <trkpt lat="44.19424" lon="3.2463">
        <ele>473</ele>
        <time>2015-10-17T02:55:18Z</time>
      </trkpt>
      <trkpt lat="44.19418" lon="3.24625">
        <ele>473</ele>
        <time>2015-10-17T02:57:18Z</time>
      </trkpt>
      <trkpt lat="44.19413" lon="3.24621">
        <ele>474</ele>
        <time>2015-10-17T02:59:18Z</time>
      </trkpt>
      <trkpt lat="44.19406" lon="3.24618">
        <ele>478</ele>
        <time>2015-10-17T03:01:18Z</time>
      </trkpt>
      <trkpt lat="44.19401" lon="3.24615">
        <ele>480</ele>
        <time>2015-10-17T03:03:18Z</time>
      </trkpt>
      <trkpt lat="44.19393" lon="3.2461">
        <ele>484</ele>
        <time>2015-10-17T03:05:18Z</time>
      </trkpt>
      <trkpt lat="44.19388" lon="3.24603">
        <ele>485</ele>
        <time>2015-10-17T03:07:18Z</time>
      </trkpt>
      <trkpt lat="44.19385" lon="3.24594">
        <ele>484</ele>
        <time>2015-10-17T03:09:18Z</time>
      </trkpt>
      <trkpt lat="44.19382" lon="3.2458">
        <ele>481</ele>
        <time>2015-10-17T03:11:18Z</time>
      </trkpt>
      <trkpt lat="44.19376" lon="3.24563">
        <ele>480</ele>
        <time>2015-10-17T03:13:18Z</time>
      </trkpt>
      <trkpt lat="44.19377" lon="3.24551">
        <ele>475</ele>
        <time>2015-10-17T03:15:18Z</time>
      </trkpt>
      <trkpt lat="44.19374" lon="3.24545">
        <ele>475</ele>
        <time>2015-10-17T03:17:18Z</time>
      </trkpt>
      <trkpt lat="44.19369" lon="3.24536">
        <ele>475</ele>
        <time>2015-10-17T03:19:18Z</time>
      </trkpt>
      <trkpt lat="44.19366" lon="3.24531">
        <ele>474</ele>
        <time>2015-10-17T03:21:18Z</time>
      </trkpt>
      <trkpt lat="44.19359" lon="3.24528">
        <ele>477</ele>
        <time>2015-10-17T03:23:18Z</time>
      </trkpt>
      <trkpt lat="44.19354" lon="3.24525">
        <ele>478</ele>
        <time>2015-10-17T03:25:18Z</time>
      </trkpt>
      <trkpt lat="44.19349" lon="3.24522">
        <ele>478</ele>
        <time>2015-10-17T03:27:18Z</time>
      </trkpt>
      <trkpt lat="44.19344" lon="3.24513">
        <ele>476</ele>
        <time>2015-10-17T03:29:18Z</time>
      </trkpt>
      <trkpt lat="44.19341" lon="3.24507">
        <ele>474</ele>
        <time>2015-10-17T03:31:18Z</time>
      </trkpt>
      <trkpt lat="44.19338" lon="3.24501">
        <ele>472</ele>
        <time>2015-10-17T03:33:18Z</time>
      </trkpt>
      <trkpt lat="44.19335" lon="3.24495">
        <ele>471</ele>
        <time>2015-10-17T03:35:18Z</time>
      </trkpt>
      <trkpt lat="44.19332" lon="3.24491">
        <ele>471</ele>
        <time>2015-10-17T03:37:18Z</time>
      </trkpt>
      <trkpt lat="44.19327" lon="3.24484">
        <ele>472</ele>
        <time>2015-10-17T03:39:18Z</time>
      </trkpt>
      <trkpt lat="44.19322" lon="3.24475">
        <ele>473</ele>
        <time>2015-10-17T03:41:18Z</time>
      </trkpt>
      <trkpt lat="44.19317" lon="3.24466">
        <ele>473</ele>
        <time>2015-10-17T03:43:18Z</time>
      </trkpt>
      <trkpt lat="44.1931" lon="3.24457">
        <ele>475</ele>
        <time>2015-10-17T03:45:18Z</time>
      </trkpt>
      <trkpt lat="44.19303" lon="3.2445">
        <ele>477</ele>
        <time>2015-10-17T03:47:18Z</time>
      </trkpt>
      <trkpt lat="44.19297" lon="3.24444">
        <ele>479</ele>
        <time>2015-10-17T03:49:18Z</time>
      </trkpt>
      <trkpt lat="44.19288" lon="3.24434">
        <ele>480</ele>
        <time>2015-10-17T03:51:18Z</time>
      </trkpt>
      <trkpt lat="44.19285" lon="3.2443">
        <ele>481</ele>
        <time>2015-10-17T03:53:18Z</time>
      </trkpt>
      <trkpt lat="44.19269" lon="3.24391">
        <ele>475</ele>
        <time>2015-10-17T03:55:18Z</time>
      </trkpt>
      <trkpt lat="44.19266" lon="3.24384">
        <ele>474</ele>
        <time>2015-10-17T03:57:18Z</time>
      </trkpt>
      <trkpt lat="44.19262" lon="3.24376">
        <ele>472</ele>
        <time>2015-10-17T03:59:18Z</time>
      </trkpt>
      <trkpt lat="44.19255" lon="3.24368">
        <ele>471</ele>
        <time>2015-10-17T04:01:18Z</time>
      </trkpt>
      <trkpt lat="44.19251" lon="3.24357">
        <ele>467</ele>
        <time>2015-10-17T04:03:18Z</time>
      </trkpt>
      <trkpt lat="44.19245" lon="3.2435">
        <ele>465</ele>
        <time>2015-10-17T04:05:18Z</time>
      </trkpt>
      <trkpt lat="44.1924" lon="3.24351">
        <ele>467</ele>
        <time>2015-10-17T04:07:18Z</time>
      </trkpt>
      <trkpt lat="44.19235" lon="3.2435">
        <ele>468</ele>
        <time>2015-10-17T04:09:18Z</time>
      </trkpt>
      <trkpt lat="44.19231" lon="3.2435">
        <ele>469</ele>
        <time>2015-10-17T04:11:18Z</time>
      </trkpt>
      <trkpt lat="44.19224" lon="3.24349">
        <ele>471</ele>
        <time>2015-10-17T04:13:18Z</time>
      </trkpt>
      <trkpt lat="44.19217" lon="3.24349">
        <ele>473</ele>
        <time>2015-10-17T04:15:18Z</time>
      </trkpt>
      <trkpt lat="44.19212" lon="3.24348">
        <ele>475</ele>
        <time>2015-10-17T04:17:18Z</time>
      </trkpt>
      <trkpt lat="44.19206" lon="3.24348">
        <ele>477</ele>
        <time>2015-10-17T04:19:18Z</time>
      </trkpt>
      <trkpt lat="44.19197" lon="3.24347">
        <ele>479</ele>
        <time>2015-10-17T04:21:18Z</time>
      </trkpt>
      <trkpt lat="44.1919" lon="3.24344">
        <ele>480</ele>
        <time>2015-10-17T04:23:18Z</time>
      </trkpt>
      <trkpt lat="44.19186" lon="3.24342">
        <ele>481</ele>
        <time>2015-10-17T04:25:18Z</time>
      </trkpt>
      <trkpt lat="44.19184" lon="3.24341">
        <ele>481</ele>
        <time>2015-10-17T04:27:18Z</time>
      </trkpt>
      <trkpt lat="44.19183" lon="3.24339">
        <ele>481</ele>
        <time>2015-10-17T04:29:18Z</time>
      </trkpt>
      <trkpt lat="44.1918" lon="3.24336">
        <ele>480</ele>
        <time>2015-10-17T04:31:18Z</time>
      </trkpt>
      <trkpt lat="44.19178" lon="3.24333">
        <ele>480</ele>
        <time>2015-10-17T04:33:18Z</time>
      </trkpt>
      <trkpt lat="44.19177" lon="3.24329">
        <ele>479</ele>
        <time>2015-10-17T04:35:18Z</time>
      </trkpt>
      <trkpt lat="44.19176" lon="3.24326">
        <ele>478</ele>
        <time>2015-10-17T04:37:18Z</time>
      </trkpt>
      <trkpt lat="44.19175" lon="3.24322">
        <ele>478</ele>
        <time>2015-10-17T04:39:18Z</time>
      </trkpt>
      <trkpt lat="44.19174" lon="3.24318">
        <ele>477</ele>
        <time>2015-10-17T04:41:18Z</time>
      </trkpt>
      <trkpt lat="44.19172" lon="3.24313">
        <ele>476</ele>
        <time>2015-10-17T04:43:18Z</time>
      </trkpt>
      <trkpt lat="44.1917" lon="3.24307">
        <ele>474</ele>
        <time>2015-10-17T04:45:18Z</time>
      </trkpt>
      <trkpt lat="44.19168" lon="3.24303">
        <ele>473</ele>
        <time>2015-10-17T04:47:18Z</time>
      </trkpt>
      <trkpt lat="44.19165" lon="3.24299">
        <ele>473</ele>
        <time>2015-10-17T04:49:18Z</time>
      </trkpt>
      <trkpt lat="44.1916" lon="3.24294">
        <ele>474</ele>
        <time>2015-10-17T04:51:18Z</time>
      </trkpt>
      <trkpt lat="44.19156" lon="3.24288">
        <ele>473</ele>
        <time>2015-10-17T04:53:18Z</time>
      </trkpt>
      <trkpt lat="44.19151" lon="3.24283">
        <ele>474</ele>
        <time>2015-10-17T04:55:18Z</time>
      </trkpt>
      <trkpt lat="44.19146" lon="3.24276">
        <ele>474</ele>
        <time>2015-10-17T04:57:18Z</time>
      </trkpt>
      <trkpt lat="44.19141" lon="3.24268">
        <ele>474</ele>
        <time>2015-10-17T04:59:18Z</time>
      </trkpt>
      <trkpt lat="44.19137" lon="3.24263">
        <ele>474</ele>
        <time>2015-10-17T05:01:18Z</time>
      </trkpt>
      <trkpt lat="44.19133" lon="3.24256">
        <ele>473</ele>
        <time>2015-10-17T05:03:18Z</time>
      </trkpt>
      <trkpt lat="44.1913" lon="3.2425">
        <ele>473</ele>
        <time>2015-10-17T05:05:18Z</time>
      </trkpt>
      <trkpt lat="44.19128" lon="3.24246">
        <ele>473</ele>
        <time>2015-10-17T05:07:18Z</time>
      </trkpt>
      <trkpt lat="44.19125" lon="3.2424">
        <ele>472</ele>
        <time>2015-10-17T05:09:18Z</time>
      </trkpt>
      <trkpt lat="44.19122" lon="3.24236">
        <ele>473</ele>
        <time>2015-10-17T05:11:18Z</time>
      </trkpt>
      <trkpt lat="44.1912" lon="3.24231">
        <ele>472</ele>
        <time>2015-10-17T05:13:18Z</time>
      </trkpt>
      <trkpt lat="44.19116" lon="3.24226">
        <ele>473</ele>
        <time>2015-10-17T05:15:18Z</time>
      </trkpt>
      <trkpt lat="44.19113" lon="3.2422">
        <ele>472</ele>
        <time>2015-10-17T05:17:18Z</time>
      </trkpt>
      <trkpt lat="44.19109" lon="3.24213">
        <ele>472</ele>
        <time>2015-10-17T05:19:18Z</time>
      </trkpt>
      <trkpt lat="44.19106" lon="3.24207">
        <ele>472</ele>
        <time>2015-10-17T05:21:18Z</time>
      </trkpt>
      <trkpt lat="44.19103" lon="3.242">
        <ele>471</ele>
        <time>2015-10-17T05:23:18Z</time>
      </trkpt>
      <trkpt lat="44.191" lon="3.24194">
        <ele>471</ele>
        <time>2015-10-17T05:25:18Z</time>
      </trkpt>
      <trkpt lat="44.19095" lon="3.24183">
        <ele>470</ele>
        <time>2015-10-17T05:27:18Z</time>
      </trkpt>
      <trkpt lat="44.19093" lon="3.24176">
        <ele>469</ele>
        <time>2015-10-17T05:29:18Z</time>
      </trkpt>
      <trkpt lat="44.1909" lon="3.2417">
        <ele>468</ele>
        <time>2015-10-17T05:31:18Z</time>
      </trkpt>
      <trkpt lat="44.19088" lon="3.24165">
        <ele>468</ele>
        <time>2015-10-17T05:33:18Z</time>
      </trkpt>
      <trkpt lat="44.19085" lon="3.24159">
        <ele>468</ele>
        <time>2015-10-17T05:35:18Z</time>
      </trkpt>
      <trkpt lat="44.19083" lon="3.24155">
        <ele>468</ele>
        <time>2015-10-17T05:37:18Z</time>
      </trkpt>
      <trkpt lat="44.1908" lon="3.24148">
        <ele>469</ele>
        <time>2015-10-17T05:39:18Z</time>
      </trkpt>
      <trkpt lat="44.19076" lon="3.24141">
        <ele>470</ele>
        <time>2015-10-17T05:41:18Z</time>
      </trkpt>
      <trkpt lat="44.19074" lon="3.24136">
        <ele>470</ele>
        <time>2015-10-17T05:43:18Z</time>
      </trkpt>
      <trkpt lat="44.1907" lon="3.2413">
        <ele>472</ele>
        <time>2015-10-17T05:45:18Z</time>
      </trkpt>
      <trkpt lat="44.19068" lon="3.24124">
        <ele>472</ele>
        <time>2015-10-17T05:47:18Z</time>
      </trkpt>
      <trkpt lat="44.19065" lon="3.24116">
        <ele>472</ele>
        <time>2015-10-17T05:49:18Z</time>
      </trkpt>
      <trkpt lat="44.19062" lon="3.2411">
        <ele>473</ele>
        <time>2015-10-17T05:51:18Z</time>
      </trkpt>
      <trkpt lat="44.19058" lon="3.24098">
        <ele>473</ele>
        <time>2015-10-17T05:53:18Z</time>
      </trkpt>
      <trkpt lat="44.19055" lon="3.24091">
        <ele>473</ele>
        <time>2015-10-17T05:55:18Z</time>
      </trkpt>
      <trkpt lat="44.19052" lon="3.24084">
        <ele>473</ele>
        <time>2015-10-17T05:57:18Z</time>
      </trkpt>
      <trkpt lat="44.19049" lon="3.24075">
        <ele>472</ele>
        <time>2015-10-17T05:59:18Z</time>
      </trkpt>
      <trkpt lat="44.19044" lon="3.24063">
        <ele>472</ele>
        <time>2015-10-17T06:01:18Z</time>
      </trkpt>
      <trkpt lat="44.19042" lon="3.24058">
        <ele>472</ele>
        <time>2015-10-17T06:03:18Z</time>
      </trkpt>
      <trkpt lat="44.19039" lon="3.2405">
        <ele>471</ele>
        <time>2015-10-17T06:05:18Z</time>
      </trkpt>
      <trkpt lat="44.19037" lon="3.24043">
        <ele>470</ele>
        <time>2015-10-17T06:07:18Z</time>
      </trkpt>
      <trkpt lat="44.19033" lon="3.24032">
        <ele>469</ele>
        <time>2015-10-17T06:09:18Z</time>
      </trkpt>
      <trkpt lat="44.1903" lon="3.24023">
        <ele>468</ele>
        <time>2015-10-17T06:11:18Z</time>
      </trkpt>
      <trkpt lat="44.19029" lon="3.24029">
        <ele>470</ele>
        <time>2015-10-17T06:13:18Z</time>
      </trkpt>
      <trkpt lat="44.19028" lon="3.24034">
        <ele>472</ele>
        <time>2015-10-17T06:15:18Z</time>
      </trkpt>
      <trkpt lat="44.19026" lon="3.24043">
        <ele>476</ele>
        <time>2015-10-17T06:17:18Z</time>
      </trkpt>
      <trkpt lat="44.19026" lon="3.24053">
        <ele>479</ele>
        <time>2015-10-17T06:19:18Z</time>
      </trkpt>
      <trkpt lat="44.19026" lon="3.24064">
        <ele>482</ele>
        <time>2015-10-17T06:21:18Z</time>
      </trkpt>
      <trkpt lat="44.19026" lon="3.24072">
        <ele>485</ele>
        <time>2015-10-17T06:23:18Z</time>
      </trkpt>
      <trkpt lat="44.19028" lon="3.24081">
        <ele>486</ele>
        <time>2015-10-17T06:25:18Z</time>
      </trkpt>
      <trkpt lat="44.19031" lon="3.2409">
        <ele>487</ele>
        <time>2015-10-17T06:27:18Z</time>
      </trkpt>
      <trkpt lat="44.19033" lon="3.24099">
        <ele>488</ele>
        <time>2015-10-17T06:29:18Z</time>
      </trkpt>
      <trkpt lat="44.19037" lon="3.24108">
        <ele>488</ele>
        <time>2015-10-17T06:31:18Z</time>
      </trkpt>
      <trkpt lat="44.1904" lon="3.24118">
        <ele>489</ele>
        <time>2015-10-17T06:33:18Z</time>
      </trkpt>
      <trkpt lat="44.19042" lon="3.24123">
        <ele>489</ele>
        <time>2015-10-17T06:35:18Z</time>
      </trkpt>
      <trkpt lat="44.19045" lon="3.2413">
        <ele>489</ele>
        <time>2015-10-17T06:37:18Z</time>
      </trkpt>
      <trkpt lat="44.19046" lon="3.2414">
        <ele>491</ele>
        <time>2015-10-17T06:39:18Z</time>
      </trkpt>
      <trkpt lat="44.19048" lon="3.24148">
        <ele>491</ele>
        <time>2015-10-17T06:41:18Z</time>
      </trkpt>
      <trkpt lat="44.19048" lon="3.24159">
        <ele>494</ele>
        <time>2015-10-17T06:43:18Z</time>
      </trkpt>
      <trkpt lat="44.19048" lon="3.24166">
        <ele>496</ele>
        <time>2015-10-17T06:45:18Z</time>
      </trkpt>
      <trkpt lat="44.19049" lon="3.24178">
        <ele>499</ele>
        <time>2015-10-17T06:47:18Z</time>
      </trkpt>
      <trkpt lat="44.19049" lon="3.24188">
        <ele>501</ele>
        <time>2015-10-17T06:49:18Z</time>
      </trkpt>
      <trkpt lat="44.1905" lon="3.24199">
        <ele>504</ele>
        <time>2015-10-17T06:51:18Z</time>
      </trkpt>
      <trkpt lat="44.1905" lon="3.24216">
        <ele>509</ele>
        <time>2015-10-17T06:53:18Z</time>
      </trkpt>
      <trkpt lat="44.19051" lon="3.24232">
        <ele>513</ele>
        <time>2015-10-17T06:55:18Z</time>
      </trkpt>
      <trkpt lat="44.19051" lon="3.24247">
        <ele>518</ele>
        <time>2015-10-17T06:57:18Z</time>
      </trkpt>
      <trkpt lat="44.19052" lon="3.24267">
        <ele>522</ele>
        <time>2015-10-17T06:59:18Z</time>
      </trkpt>
      <trkpt lat="44.19054" lon="3.24285">
        <ele>525</ele>
        <time>2015-10-17T07:01:18Z</time>
      </trkpt>
      <trkpt lat="44.19055" lon="3.24304">
        <ele>530</ele>
        <time>2015-10-17T07:03:18Z</time>
      </trkpt>
      <trkpt lat="44.19056" lon="3.24316">
        <ele>532</ele>
        <time>2015-10-17T07:05:18Z</time>
      </trkpt>
      <trkpt lat="44.19058" lon="3.24338">
        <ele>537</ele>
        <time>2015-10-17T07:07:18Z</time>
      </trkpt>
      <trkpt lat="44.19059" lon="3.24358">
        <ele>542</ele>
        <time>2015-10-17T07:09:18Z</time>
      </trkpt>
      <trkpt lat="44.19059" lon="3.24376">
        <ele>548</ele>
        <time>2015-10-17T07:11:18Z</time>
      </trkpt>
      <trkpt lat="44.18925" lon="3.24589">
        <ele>686</ele>
        <time>2015-10-17T07:13:18Z</time>
      </trkpt>
      <trkpt lat="44.18924" lon="3.24585">
        <ele>686</ele>
        <time>2015-10-17T07:15:18Z</time>
      </trkpt>
      <trkpt lat="44.18921" lon="3.24577">
        <ele>687</ele>
        <time>2015-10-17T07:17:18Z</time>
      </trkpt>
      <trkpt lat="44.18916" lon="3.24566">
        <ele>689</ele>
        <time>2015-10-17T07:19:18Z</time>
      </trkpt>
      <trkpt lat="44.18914" lon="3.24558">
        <ele>689</ele>
        <time>2015-10-17T07:21:18Z</time>
      </trkpt>
      <trkpt lat="44.18909" lon="3.24548">
        <ele>690</ele>
        <time>2015-10-17T07:23:18Z</time>
      </trkpt>
      <trkpt lat="44.18903" lon="3.24536">
        <ele>691</ele>
        <time>2015-10-17T07:25:18Z</time>
      </trkpt>
      <trkpt lat="44.18898" lon="3.24524">
        <ele>692</ele>
        <time>2015-10-17T07:27:18Z</time>
      </trkpt>
      <trkpt lat="44.1889" lon="3.24507">
        <ele>692</ele>
        <time>2015-10-17T07:29:18Z</time>
      </trkpt>
      <trkpt lat="44.18882" lon="3.24487">
        <ele>695</ele>
        <time>2015-10-17T07:31:18Z</time>
      </trkpt>
      <trkpt lat="44.18873" lon="3.2447">
        <ele>699</ele>
        <time>2015-10-17T07:33:18Z</time>
      </trkpt>
      <trkpt lat="44.18867" lon="3.24458">
        <ele>701</ele>
        <time>2015-10-17T07:35:18Z</time>
      </trkpt>
      <trkpt lat="44.18862" lon="3.24452">
        <ele>703</ele>
        <time>2015-10-17T07:37:18Z</time>
      </trkpt>
      <trkpt lat="44.18858" lon="3.2445">
        <ele>704</ele>
        <time>2015-10-17T07:39:18Z</time>
      </trkpt>
      <trkpt lat="44.18854" lon="3.24448">
        <ele>706</ele>
        <time>2015-10-17T07:41:18Z</time>
      </trkpt>
      <trkpt lat="44.18846" lon="3.24448">
        <ele>708</ele>
        <time>2015-10-17T07:43:18Z</time>
      </trkpt>
      <trkpt lat="44.18838" lon="3.24453">
        <ele>711</ele>
        <time>2015-10-17T07:45:18Z</time>
      </trkpt>
      <trkpt lat="44.18835" lon="3.24461">
        <ele>713</ele>
        <time>2015-10-17T07:47:18Z</time>
      </trkpt>
      <trkpt lat="44.18833" lon="3.24472">
        <ele>714</ele>
        <time>2015-10-17T07:49:18Z</time>
      </trkpt>
      <trkpt lat="44.1883" lon="3.24483">
        <ele>715</ele>
        <time>2015-10-17T07:51:18Z</time>
      </trkpt>
      <trkpt lat="44.18823" lon="3.24494">
        <ele>717</ele>
        <time>2015-10-17T07:53:18Z</time>
      </trkpt>
      <trkpt lat="44.18815" lon="3.24503">
        <ele>720</ele>
        <time>2015-10-17T07:55:18Z</time>
      </trkpt>
      <trkpt lat="44.18808" lon="3.24509">
        <ele>723</ele>
        <time>2015-10-17T07:57:18Z</time>
      </trkpt>
      <trkpt lat="44.18802" lon="3.24509">
        <ele>723</ele>
        <time>2015-10-17T07:59:18Z</time>
      </trkpt>
      <trkpt lat="44.18791" lon="3.24507">
        <ele>725</ele>
        <time>2015-10-17T08:01:18Z</time>
      </trkpt>
      <trkpt lat="44.18775" lon="3.24502">
        <ele>727</ele>
        <time>2015-10-17T08:03:18Z</time>
      </trkpt>
      <trkpt lat="44.18761" lon="3.24501">
        <ele>729</ele>
        <time>2015-10-17T08:05:18Z</time>
      </trkpt>
      <trkpt lat="44.18744" lon="3.24502">
        <ele>734</ele>
        <time>2015-10-17T08:07:18Z</time>
      </trkpt>
      <trkpt lat="44.18735" lon="3.24505">
        <ele>739</ele>
        <time>2015-10-17T08:09:18Z</time>
      </trkpt>
      <trkpt lat="44.18723" lon="3.24508">
        <ele>745</ele>
        <time>2015-10-17T08:11:18Z</time>
      </trkpt>
      <trkpt lat="44.18714" lon="3.24511">
        <ele>749</ele>
        <time>2015-10-17T08:13:18Z</time>
      </trkpt>
      <trkpt lat="44.18707" lon="3.24515">
        <ele>752</ele>
        <time>2015-10-17T08:15:18Z</time>
      </trkpt>
      <trkpt lat="44.18704" lon="3.24525">
        <ele>753</ele>
        <time>2015-10-17T08:17:18Z</time>
      </trkpt>
      <trkpt lat="44.18701" lon="3.24536">
        <ele>753</ele>
        <time>2015-10-17T08:19:18Z</time>
      </trkpt>
      <trkpt lat="44.18699" lon="3.24544">
        <ele>753</ele>
        <time>2015-10-17T08:21:18Z</time>
      </trkpt>
      <trkpt lat="44.18696" lon="3.2455">
        <ele>753</ele>
        <time>2015-10-17T08:23:18Z</time>
      </trkpt>
      <trkpt lat="44.18692" lon="3.24548">
        <ele>755</ele>
        <time>2015-10-17T08:25:18Z</time>
      </trkpt>
      <trkpt lat="44.18691" lon="3.24542">
        <ele>756</ele>
        <time>2015-10-17T08:27:18Z</time>
      </trkpt>
      <trkpt lat="44.1869" lon="3.24532">
        <ele>758</ele>
        <time>2015-10-17T08:29:18Z</time>
      </trkpt>
      <trkpt lat="44.18689" lon="3.24523">
        <ele>760</ele>
        <time>2015-10-17T08:31:18Z</time>
      </trkpt>
      <trkpt lat="44.1869" lon="3.24511">
        <ele>761</ele>
        <time>2015-10-17T08:33:18Z</time>
      </trkpt>
      <trkpt lat="44.18693" lon="3.24502">
        <ele>761</ele>
        <time>2015-10-17T08:35:18Z</time>
      </trkpt>
      <trkpt lat="44.18695" lon="3.24491">
        <ele>761</ele>
        <time>2015-10-17T08:37:18Z</time>
      </trkpt>
      <trkpt lat="44.18699" lon="3.24479">
        <ele>760</ele>
        <time>2015-10-17T08:39:18Z</time>
      </trkpt>
      <trkpt lat="44.187" lon="3.24468">
        <ele>760</ele>
        <time>2015-10-17T08:41:18Z</time>
      </trkpt>
      <trkpt lat="44.18701" lon="3.24452">
        <ele>761</ele>
        <time>2015-10-17T08:43:18Z</time>
      </trkpt>
      <trkpt lat="44.18701" lon="3.24445">
        <ele>762</ele>
        <time>2015-10-17T08:45:18Z</time>
      </trkpt>
      <trkpt lat="44.18698" lon="3.24437">
        <ele>764</ele>
        <time>2015-10-17T08:47:18Z</time>
      </trkpt>
      <trkpt lat="44.18693" lon="3.24439">
        <ele>767</ele>
        <time>2015-10-17T08:49:18Z</time>
      </trkpt>
      <trkpt lat="44.18689" lon="3.24447">
        <ele>769</ele>
        <time>2015-10-17T08:51:18Z</time>
      </trkpt>
      <trkpt lat="44.18688" lon="3.24451">
        <ele>769</ele>
        <time>2015-10-17T08:53:18Z</time>
      </trkpt>
      <trkpt lat="44.18684" lon="3.24461">
        <ele>770</ele>
        <time>2015-10-17T08:55:18Z</time>
      </trkpt>
      <trkpt lat="44.18681" lon="3.24464">
        <ele>772</ele>
        <time>2015-10-17T08:57:18Z</time>
      </trkpt>
      <trkpt lat="44.18675" lon="3.2447">
        <ele>774</ele>
        <time>2015-10-17T08:59:18Z</time>
      </trkpt>
      <trkpt lat="44.18671" lon="3.24475">
        <ele>776</ele>
        <time>2015-10-17T09:01:18Z</time>
      </trkpt>
      <trkpt lat="44.18667" lon="3.24485">
        <ele>777</ele>
        <time>2015-10-17T09:03:18Z</time>
      </trkpt>
      <trkpt lat="44.18663" lon="3.24496">
        <ele>777</ele>
        <time>2015-10-17T09:05:18Z</time>
      </trkpt>
      <trkpt lat="44.18659" lon="3.24507">
        <ele>778</ele>
        <time>2015-10-17T09:07:18Z</time>
      </trkpt>
      <trkpt lat="44.18656" lon="3.24514">
        <ele>778</ele>
        <time>2015-10-17T09:09:18Z</time>
      </trkpt>
      <trkpt lat="44.18652" lon="3.24522">
        <ele>778</ele>
        <time>2015-10-17T09:11:18Z</time>
      </trkpt>
      <trkpt lat="44.18649" lon="3.24531">
        <ele>778</ele>
        <time>2015-10-17T09:13:18Z</time>
      </trkpt>
      <trkpt lat="44.18647" lon="3.2453">
        <ele>780</ele>
        <time>2015-10-17T09:15:18Z</time>
      </trkpt>
      <trkpt lat="44.18648" lon="3.24524">
        <ele>780</ele>
        <time>2015-10-17T09:17:18Z</time>
      </trkpt>
      <trkpt lat="44.18649" lon="3.24516">
        <ele>781</ele>
        <time>2015-10-17T09:19:18Z</time>
      </trkpt>
      <trkpt lat="44.1865" lon="3.24506">
        <ele>782</ele>
        <time>2015-10-17T09:21:18Z</time>
      </trkpt>
      <trkpt lat="44.18651" lon="3.24496">
        <ele>783</ele>
        <time>2015-10-17T09:23:18Z</time>
      </trkpt>
      <trkpt lat="44.18652" lon="3.24484">
        <ele>784</ele>
        <time>2015-10-17T09:25:18Z</time>
      </trkpt>
      <trkpt lat="44.18653" lon="3.24473">
        <ele>784</ele>
        <time>2015-10-17T09:27:18Z</time>
      </trkpt>
      <trkpt lat="44.18653" lon="3.24457">
        <ele>786</ele>
        <time>2015-10-17T09:29:18Z</time>
      </trkpt>
      <trkpt lat="44.18653" lon="3.24441">
        <ele>787</ele>
        <time>2015-10-17T09:31:18Z</time>
      </trkpt>
      <trkpt lat="44.18655" lon="3.24434">
        <ele>787</ele>
        <time>2015-10-17T09:33:18Z</time>
      </trkpt>
      <trkpt lat="44.18657" lon="3.24424">
        <ele>788</ele>
        <time>2015-10-17T09:35:18Z</time>
      </trkpt>
      <trkpt lat="44.18658" lon="3.24418">
        <ele>788</ele>
        <time>2015-10-17T09:37:18Z</time>
      </trkpt>
      <trkpt lat="44.18658" lon="3.24413">
        <ele>788</ele>
        <time>2015-10-17T09:39:18Z</time>
      </trkpt>
      <trkpt lat="44.18653" lon="3.2441">
        <ele>789</ele>
        <time>2015-10-17T09:41:18Z</time>
      </trkpt>
      <trkpt lat="44.1865" lon="3.24409">
        <ele>789</ele>
        <time>2015-10-17T09:43:18Z</time>
      </trkpt>
      <trkpt lat="44.18646" lon="3.2441">
        <ele>790</ele>
        <time>2015-10-17T09:45:18Z</time>
      </trkpt>
      <trkpt lat="44.18641" lon="3.24417">
        <ele>793</ele>
        <time>2015-10-17T09:47:18Z</time>
      </trkpt>
      <trkpt lat="44.18636" lon="3.24424">
        <ele>794</ele>
        <time>2015-10-17T09:49:18Z</time>
      </trkpt>
      <trkpt lat="44.1863" lon="3.24428">
        <ele>795</ele>
        <time>2015-10-17T09:51:18Z</time>
      </trkpt>
      <trkpt lat="44.18625" lon="3.24428">
        <ele>797</ele>
        <time>2015-10-17T09:53:18Z</time>
      </trkpt>
      <trkpt lat="44.18618" lon="3.24425">
        <ele>799</ele>
        <time>2015-10-17T09:55:18Z</time>
      </trkpt>
      <trkpt lat="44.18612" lon="3.24422">
        <ele>801</ele>
        <time>2015-10-17T09:57:18Z</time>
      </trkpt>
      <trkpt lat="44.18605" lon="3.24418">
        <ele>802</ele>
        <time>2015-10-17T09:59:18Z</time>
      </trkpt>
      <trkpt lat="44.186" lon="3.24414">
        <ele>803</ele>
        <time>2015-10-17T10:01:18Z</time>
      </trkpt>
      <trkpt lat="44.18591" lon="3.24412">
        <ele>805</ele>
        <time>2015-10-17T10:03:18Z</time>
      </trkpt>
      <trkpt lat="44.18588" lon="3.24415">
        <ele>806</ele>
        <time>2015-10-17T10:05:18Z</time>
      </trkpt>
      <trkpt lat="44.18588" lon="3.24419">
        <ele>807</ele>
        <time>2015-10-17T10:07:18Z</time>
      </trkpt>
      <trkpt lat="44.18596" lon="3.24424">
        <ele>805</ele>
        <time>2015-10-17T10:09:18Z</time>
      </trkpt>
      <trkpt lat="44.18602" lon="3.24428">
        <ele>804</ele>
        <time>2015-10-17T10:11:18Z</time>
      </trkpt>
      <trkpt lat="44.18608" lon="3.24433">
        <ele>802</ele>
        <time>2015-10-17T10:13:18Z</time>
      </trkpt>
      <trkpt lat="44.1861" lon="3.24436">
        <ele>802</ele>
        <time>2015-10-17T10:15:18Z</time>
      </trkpt>
      <trkpt lat="44.1861" lon="3.2444">
        <ele>802</ele>
        <time>2015-10-17T10:17:18Z</time>
      </trkpt>
      <trkpt lat="44.18606" lon="3.2444">
        <ele>803</ele>
        <time>2015-10-17T10:19:18Z</time>
      </trkpt>
      <trkpt lat="44.18598" lon="3.24437">
        <ele>805</ele>
        <time>2015-10-17T10:21:18Z</time>
      </trkpt>
      <trkpt lat="44.1859" lon="3.24435">
        <ele>808</ele>
        <time>2015-10-17T10:23:18Z</time>
      </trkpt>
      <trkpt lat="44.18583" lon="3.24436">
        <ele>810</ele>
        <time>2015-10-17T10:25:18Z</time>
      </trkpt>
      <trkpt lat="44.18577" lon="3.24439">
        <ele>811</ele>
        <time>2015-10-17T10:27:18Z</time>
      </trkpt>
      <trkpt lat="44.18575" lon="3.24444">
        <ele>812</ele>
        <time>2015-10-17T10:29:18Z</time>
      </trkpt>
      <trkpt lat="44.18572" lon="3.24493">
        <ele>818</ele>
        <time>2015-10-17T10:31:18Z</time>
      </trkpt>
      <trkpt lat="44.18571" lon="3.24502">
        <ele>819</ele>
        <time>2015-10-17T10:33:18Z</time>
      </trkpt>
      <trkpt lat="44.18566" lon="3.24517">
        <ele>818</ele>
        <time>2015-10-17T10:35:18Z</time>
      </trkpt>
      <trkpt lat="44.18558" lon="3.24534">
        <ele>818</ele>
        <time>2015-10-17T10:37:18Z</time>
      </trkpt>
      <trkpt lat="44.18552" lon="3.24548">
        <ele>819</ele>
        <time>2015-10-17T10:39:18Z</time>
      </trkpt>
      <trkpt lat="44.18544" lon="3.24564">
        <ele>820</ele>
        <time>2015-10-17T10:41:18Z</time>
      </trkpt>
      <trkpt lat="44.18535" lon="3.2458">
        <ele>822</ele>
        <time>2015-10-17T10:43:18Z</time>
      </trkpt>
      <trkpt lat="44.18523" lon="3.24595">
        <ele>825</ele>
        <time>2015-10-17T10:45:18Z</time>
      </trkpt>
      <trkpt lat="44.18513" lon="3.2461">
        <ele>827</ele>
        <time>2015-10-17T10:47:18Z</time>
      </trkpt>
      <trkpt lat="44.18501" lon="3.24622">
        <ele>830</ele>
        <time>2015-10-17T10:49:18Z</time>
      </trkpt>
      <trkpt lat="44.18477" lon="3.24648">
        <ele>833</ele>
        <time>2015-10-17T10:51:18Z</time>
      </trkpt>
      <trkpt lat="44.18471" lon="3.24652">
        <ele>834</ele>
        <time>2015-10-17T10:53:18Z</time>
      </trkpt>
      <trkpt lat="44.18467" lon="3.24654">
        <ele>834</ele>
        <time>2015-10-17T10:55:18Z</time>
      </trkpt>
      <trkpt lat="44.18463" lon="3.24654">
        <ele>835</ele>
        <time>2015-10-17T10:57:18Z</time>
      </trkpt>
      <trkpt lat="44.18457" lon="3.24653">
        <ele>836</ele>
        <time>2015-10-17T10:59:18Z</time>
      </trkpt>
      <trkpt lat="44.1845" lon="3.24652">
        <ele>837</ele>
        <time>2015-10-17T11:01:18Z</time>
      </trkpt>
      <trkpt lat="44.18442" lon="3.24653">
        <ele>838</ele>
        <time>2015-10-17T11:03:18Z</time>
      </trkpt>
      <trkpt lat="44.18437" lon="3.24654">
        <ele>839</ele>
        <time>2015-10-17T11:05:18Z</time>
      </trkpt>
      <trkpt lat="44.18429" lon="3.24658">
        <ele>841</ele>
        <time>2015-10-17T11:07:18Z</time>
      </trkpt>
      <trkpt lat="44.18421" lon="3.24663">
        <ele>842</ele>
        <time>2015-10-17T11:09:18Z</time>
      </trkpt>
      <trkpt lat="44.18414" lon="3.24669">
        <ele>843</ele>
        <time>2015-10-17T11:11:18Z</time>
      </trkpt>
      <trkpt lat="44.18406" lon="3.24672">
        <ele>843</ele>
        <time>2015-10-17T11:13:18Z</time>
      </trkpt>
      <trkpt lat="44.18398" lon="3.24676">
        <ele>844</ele>
        <time>2015-10-17T11:15:18Z</time>
      </trkpt>
      <trkpt lat="44.18391" lon="3.24676">
        <ele>845</ele>
        <time>2015-10-17T11:17:18Z</time>
      </trkpt>
      <trkpt lat="44.18385" lon="3.24673">
        <ele>846</ele>
        <time>2015-10-17T11:19:18Z</time>
      </trkpt>
      <trkpt lat="44.18379" lon="3.24669">
        <ele>847</ele>
        <time>2015-10-17T11:21:18Z</time>
      </trkpt>
      <trkpt lat="44.18374" lon="3.24669">
        <ele>848</ele>
        <time>2015-10-17T11:23:18Z</time>
      </trkpt>
      <trkpt lat="44.18367" lon="3.24668">
        <ele>849</ele>
        <time>2015-10-17T11:25:18Z</time>
      </trkpt>
      <trkpt lat="44.18364" lon="3.24666">
        <ele>849</ele>
        <time>2015-10-17T11:27:18Z</time>
      </trkpt>
      <trkpt lat="44.18363" lon="3.2466">
        <ele>849</ele>
        <time>2015-10-17T11:29:18Z</time>
      </trkpt>
      <trkpt lat="44.18364" lon="3.24655">
        <ele>849</ele>
        <time>2015-10-17T11:31:18Z</time>
      </trkpt>
      <trkpt lat="44.18363" lon="3.24651">
        <ele>849</ele>
        <time>2015-10-17T11:33:18Z</time>
      </trkpt>
      <trkpt lat="44.18361" lon="3.2465">
        <ele>849</ele>
        <time>2015-10-17T11:35:18Z</time>
      </trkpt>
      <trkpt lat="44.18357" lon="3.24651">
        <ele>850</ele>
        <time>2015-10-17T11:37:18Z</time>
      </trkpt>
      <trkpt lat="44.18351" lon="3.24653">
        <ele>851</ele>
        <time>2015-10-17T11:39:18Z</time>
      </trkpt>
      <trkpt lat="44.18345" lon="3.24653">
        <ele>851</ele>
        <time>2015-10-17T11:41:18Z</time>
      </trkpt>
      <trkpt lat="44.18336" lon="3.2465">
        <ele>852</ele>
        <time>2015-10-17T11:43:18Z</time>
      </trkpt>
      <trkpt lat="44.1833" lon="3.24646">
        <ele>853</ele>
        <time>2015-10-17T11:45:18Z</time>
      </trkpt>
      <trkpt lat="44.18326" lon="3.24645">
        <ele>854</ele>
        <time>2015-10-17T11:47:18Z</time>
      </trkpt>
      <trkpt lat="44.18323" lon="3.24647">
        <ele>855</ele>
        <time>2015-10-17T11:49:18Z</time>
      </trkpt>
      <trkpt lat="44.18323" lon="3.24651">
        <ele>855</ele>
        <time>2015-10-17T11:51:18Z</time>
      </trkpt>
      <trkpt lat="44.18324" lon="3.24654">
        <ele>855</ele>
        <time>2015-10-17T11:53:18Z</time>
      </trkpt>
      <trkpt lat="44.18328" lon="3.24657">
        <ele>854</ele>
        <time>2015-10-17T11:55:18Z</time>
      </trkpt>
      <trkpt lat="44.18328" lon="3.24666">
        <ele>854</ele>
        <time>2015-10-17T11:57:18Z</time>
      </trkpt>
      <trkpt lat="44.18326" lon="3.24672">
        <ele>854</ele>
        <time>2015-10-17T11:59:18Z</time>
      </trkpt>
      <trkpt lat="44.18323" lon="3.24676">
        <ele>854</ele>
        <time>2015-10-17T12:01:18Z</time>
      </trkpt>
      <trkpt lat="44.18317" lon="3.24674">
        <ele>856</ele>
        <time>2015-10-17T12:03:18Z</time>
      </trkpt>
      <trkpt lat="44.18312" lon="3.24676">
        <ele>856</ele>
        <time>2015-10-17T12:05:18Z</time>
      </trkpt>
      <trkpt lat="44.18307" lon="3.24679">
        <ele>857</ele>
        <time>2015-10-17T12:07:18Z</time>
      </trkpt>
      <trkpt lat="44.18301" lon="3.24681">
        <ele>858</ele>
        <time>2015-10-17T12:09:18Z</time>
      </trkpt>
      <trkpt lat="44.18296" lon="3.2468">
        <ele>860</ele>
        <time>2015-10-17T12:11:18Z</time>
      </trkpt>
      <trkpt lat="44.18291" lon="3.24681">
        <ele>861</ele>
        <time>2015-10-17T12:13:18Z</time>
      </trkpt>
      <trkpt lat="44.18289" lon="3.24685">
        <ele>861</ele>
        <time>2015-10-17T12:15:18Z</time>
      </trkpt>
      <trkpt lat="44.18286" lon="3.24692">
        <ele>861</ele>
        <time>2015-10-17T12:17:18Z</time>
      </trkpt>
      <trkpt lat="44.18282" lon="3.24697">
        <ele>862</ele>
        <time>2015-10-17T12:19:18Z</time>
      </trkpt>
      <trkpt lat="44.18276" lon="3.24701">
        <ele>863</ele>
        <time>2015-10-17T12:21:18Z</time>
      </trkpt>
      <trkpt lat="44.18271" lon="3.24704">
        <ele>864</ele>
        <time>2015-10-17T12:23:18Z</time>
      </trkpt>
      <trkpt lat="44.18268" lon="3.24704">
        <ele>865</ele>
        <time>2015-10-17T12:25:18Z</time>
      </trkpt>
      <trkpt lat="44.18265" lon="3.24704">
        <ele>865</ele>
        <time>2015-10-17T12:27:18Z</time>
      </trkpt>
      <trkpt lat="44.18252" lon="3.24703">
        <ele>869</ele>
        <time>2015-10-17T12:29:18Z</time>
      </trkpt>
      <trkpt lat="44.1825" lon="3.24703">
        <ele>869</ele>
        <time>2015-10-17T12:31:18Z</time>
      </trkpt>
      <trkpt lat="44.18248" lon="3.24703">
        <ele>870</ele>
        <time>2015-10-17T12:33:18Z</time>
      </trkpt>
      <trkpt lat="44.18243" lon="3.24704">
        <ele>870</ele>
        <time>2015-10-17T12:35:18Z</time>
      </trkpt>
      <trkpt lat="44.18238" lon="3.24707">
        <ele>871</ele>
        <time>2015-10-17T12:37:18Z</time>
      </trkpt>
      <trkpt lat="44.18233" lon="3.24711">
        <ele>872</ele>
        <time>2015-10-17T12:39:18Z</time>
      </trkpt>
      <trkpt lat="44.18229" lon="3.24714">
        <ele>873</ele>
        <time>2015-10-17T12:41:18Z</time>
      </trkpt>
      <trkpt lat="44.18221" lon="3.24721">
        <ele>875</ele>
        <time>2015-10-17T12:43:18Z</time>
      </trkpt>
      <trkpt lat="44.18213" lon="3.2473">
        <ele>876</ele>
        <time>2015-10-17T12:45:18Z</time>
      </trkpt>
      <trkpt lat="44.18211" lon="3.24732">
        <ele>877</ele>
        <time>2015-10-17T12:47:18Z</time>
      </trkpt>
      <trkpt lat="44.18207" lon="3.24737">
        <ele>877</ele>
        <time>2015-10-17T12:49:18Z</time>
      </trkpt>
      <trkpt lat="44.18203" lon="3.24742">
        <ele>878</ele>
        <time>2015-10-17T12:51:18Z</time>
      </trkpt>
      <trkpt lat="44.18201" lon="3.24748">
        <ele>879</ele>
        <time>2015-10-17T12:53:18Z</time>
      </trkpt>
      <trkpt lat="44.18201" lon="3.24752">
        <ele>879</ele>
        <time>2015-10-17T12:55:18Z</time>
      </trkpt>
      <trkpt lat="44.18201" lon="3.24758">
        <ele>879</ele>
        <time>2015-10-17T12:57:18Z</time>
      </trkpt>
      <trkpt lat="44.182" lon="3.24763">
        <ele>879</ele>
        <time>2015-10-17T12:59:18Z</time>
      </trkpt>
      <trkpt lat="44.18197" lon="3.24766">
        <ele>880</ele>
        <time>2015-10-17T13:01:18Z</time>
      </trkpt>
      <trkpt lat="44.18193" lon="3.2477">
        <ele>881</ele>
        <time>2015-10-17T13:03:18Z</time>
      </trkpt>
      <trkpt lat="44.18188" lon="3.24773">
        <ele>882</ele>
        <time>2015-10-17T13:05:18Z</time>
      </trkpt>
      <trkpt lat="44.18179" lon="3.2478">
        <ele>884</ele>
        <time>2015-10-17T13:07:18Z</time>
      </trkpt>
      <trkpt lat="44.18167" lon="3.24796">
        <ele>888</ele>
        <time>2015-10-17T13:09:18Z</time>
      </trkpt>
      <trkpt lat="44.18159" lon="3.24811">
        <ele>890</ele>
        <time>2015-10-17T13:11:18Z</time>
      </trkpt>
      <trkpt lat="44.18152" lon="3.24816">
        <ele>891</ele>
        <time>2015-10-17T13:13:18Z</time>
      </trkpt>
      <trkpt lat="44.18139" lon="3.24824">
        <ele>893</ele>
        <time>2015-10-17T13:15:18Z</time>
      </trkpt>
      <trkpt lat="44.18133" lon="3.24829">
        <ele>894</ele>
        <time>2015-10-17T13:17:18Z</time>
      </trkpt>
      <trkpt lat="44.1813" lon="3.24832">
        <ele>894</ele>
        <time>2015-10-17T13:19:18Z</time>
      </trkpt>
      <trkpt lat="44.18124" lon="3.24837">
        <ele>895</ele>
        <time>2015-10-17T13:21:18Z</time>
      </trkpt>
      <trkpt lat="44.1812" lon="3.2484">
        <ele>895</ele>
        <time>2015-10-17T13:23:18Z</time>
      </trkpt>
      <trkpt lat="44.18117" lon="3.24843">
        <ele>895</ele>
        <time>2015-10-17T13:25:18Z</time>
      </trkpt>
      <trkpt lat="44.18111" lon="3.24848">
        <ele>896</ele>
        <time>2015-10-17T13:27:18Z</time>
      </trkpt>
      <trkpt lat="44.18108" lon="3.24849">
        <ele>896</ele>
        <time>2015-10-17T13:29:18Z</time>
      </trkpt>
      <trkpt lat="44.18104" lon="3.24853">
        <ele>897</ele>
        <time>2015-10-17T13:31:18Z</time>
      </trkpt>
      <trkpt lat="44.18101" lon="3.24856">
        <ele>897</ele>
        <time>2015-10-17T13:33:18Z</time>
      </trkpt>
      <trkpt lat="44.18097" lon="3.24859">
        <ele>897</ele>
        <time>2015-10-17T13:35:18Z</time>
      </trkpt>
      <trkpt lat="44.18093" lon="3.24861">
        <ele>898</ele>
        <time>2015-10-17T13:37:18Z</time>
      </trkpt>
      <trkpt lat="44.18082" lon="3.24865">
        <ele>899</ele>
        <time>2015-10-17T13:39:18Z</time>
      </trkpt>
      <trkpt lat="44.1807" lon="3.24868">
        <ele>900</ele>
        <time>2015-10-17T13:41:18Z</time>
      </trkpt>
      <trkpt lat="44.18057" lon="3.24873">
        <ele>900</ele>
        <time>2015-10-17T13:43:18Z</time>
      </trkpt>
      <trkpt lat="44.18053" lon="3.24873">
        <ele>900</ele>
        <time>2015-10-17T13:45:18Z</time>
      </trkpt>
      <trkpt lat="44.18047" lon="3.24873">
        <ele>900</ele>
        <time>2015-10-17T13:47:18Z</time>
      </trkpt>
      <trkpt lat="44.1804" lon="3.24873">
        <ele>901</ele>
        <time>2015-10-17T13:49:18Z</time>
      </trkpt>
      <trkpt lat="44.18034" lon="3.24874">
        <ele>901</ele>
        <time>2015-10-17T13:51:18Z</time>
      </trkpt>
      <trkpt lat="44.18025" lon="3.24876">
        <ele>901</ele>
        <time>2015-10-17T13:53:18Z</time>
      </trkpt>
      <trkpt lat="44.18012" lon="3.24878">
        <ele>902</ele>
        <time>2015-10-17T13:55:18Z</time>
      </trkpt>
      <trkpt lat="44.18006" lon="3.24878">
        <ele>902</ele>
        <time>2015-10-17T13:57:18Z</time>
      </trkpt>
      <trkpt lat="44.17994" lon="3.24878">
        <ele>902</ele>
        <time>2015-10-17T13:59:18Z</time>
      </trkpt>
      <trkpt lat="44.17989" lon="3.24878">
        <ele>902</ele>
        <time>2015-10-17T14:01:18Z</time>
      </trkpt>
      <trkpt lat="44.17983" lon="3.24878">
        <ele>902</ele>
        <time>2015-10-17T14:03:18Z</time>
      </trkpt>
      <trkpt lat="44.17979" lon="3.24879">
        <ele>902</ele>
        <time>2015-10-17T14:05:18Z</time>
      </trkpt>
      <trkpt lat="44.17975" lon="3.24881">
        <ele>902</ele>
        <time>2015-10-17T14:07:18Z</time>
      </trkpt>
      <trkpt lat="44.17972" lon="3.24882">
        <ele>902</ele>
        <time>2015-10-17T14:09:18Z</time>
      </trkpt>
      <trkpt lat="44.17969" lon="3.24886">
        <ele>902</ele>
        <time>2015-10-17T14:11:18Z</time>
      </trkpt>
      <trkpt lat="44.17968" lon="3.2489">
        <ele>902</ele>
        <time>2015-10-17T14:13:18Z</time>
      </trkpt>
      <trkpt lat="44.17965" lon="3.24897">
        <ele>902</ele>
        <time>2015-10-17T14:15:18Z</time>
      </trkpt>
      <trkpt lat="44.1796" lon="3.24904">
        <ele>902</ele>
        <time>2015-10-17T14:17:18Z</time>
      </trkpt>
      <trkpt lat="44.17954" lon="3.24911">
        <ele>903</ele>
        <time>2015-10-17T14:19:18Z</time>
      </trkpt>
      <trkpt lat="44.17948" lon="3.24901">
        <ele>902</ele>
        <time>2015-10-17T14:21:18Z</time>
      </trkpt>
      <trkpt lat="44.17945" lon="3.24898">
        <ele>902</ele>
        <time>2015-10-17T14:23:18Z</time>
      </trkpt>
      <trkpt lat="44.17928" lon="3.24889">
        <ele>901</ele>
        <time>2015-10-17T14:25:18Z</time>
      </trkpt>
      <trkpt lat="44.17918" lon="3.24881">
        <ele>900</ele>
        <time>2015-10-17T14:27:18Z</time>
      </trkpt>
      <trkpt lat="44.17906" lon="3.24873">
        <ele>899</ele>
        <time>2015-10-17T14:29:18Z</time>
      </trkpt>
      <trkpt lat="44.17896" lon="3.24869">
        <ele>898</ele>
        <time>2015-10-17T14:31:18Z</time>
      </trkpt>
      <trkpt lat="44.17885" lon="3.24868">
        <ele>897</ele>
        <time>2015-10-17T14:33:18Z</time>
      </trkpt>
      <trkpt lat="44.17871" lon="3.24871">
        <ele>896</ele>
        <time>2015-10-17T14:35:18Z</time>
      </trkpt>
      <trkpt lat="44.17858" lon="3.24872">
        <ele>895</ele>
        <time>2015-10-17T14:37:18Z</time>
      </trkpt>
      <trkpt lat="44.17842" lon="3.24871">
        <ele>894</ele>
        <time>2015-10-17T14:39:18Z</time>
      </trkpt>
      <trkpt lat="44.17828" lon="3.24869">
        <ele>892</ele>
        <time>2015-10-17T14:41:18Z</time>
      </trkpt>
      <trkpt lat="44.17815" lon="3.24867">
        <ele>891</ele>
        <time>2015-10-17T14:43:18Z</time>
      </trkpt>
      <trkpt lat="44.17805" lon="3.24866">
        <ele>890</ele>
        <time>2015-10-17T14:45:18Z</time>
      </trkpt>
      <trkpt lat="44.17793" lon="3.24864">
        <ele>889</ele>
        <time>2015-10-17T14:47:18Z</time>
      </trkpt>
      <trkpt lat="44.17771" lon="3.24866">
        <ele>888</ele>
        <time>2015-10-17T14:49:18Z</time>
      </trkpt>
      <trkpt lat="44.17759" lon="3.24866">
        <ele>888</ele>
        <time>2015-10-17T14:51:18Z</time>
      </trkpt>
      <trkpt lat="44.17745" lon="3.24863">
        <ele>887</ele>
        <time>2015-10-17T14:53:18Z</time>
      </trkpt>
      <trkpt lat="44.17735" lon="3.24865">
        <ele>887</ele>
        <time>2015-10-17T14:55:18Z</time>
      </trkpt>
      <trkpt lat="44.17722" lon="3.24868">
        <ele>887</ele>
        <time>2015-10-17T14:57:18Z</time>
      </trkpt>
      <trkpt lat="44.17708" lon="3.2487">
        <ele>888</ele>
        <time>2015-10-17T14:59:18Z</time>
      </trkpt>
      <trkpt lat="44.17697" lon="3.24869">
        <ele>888</ele>
        <time>2015-10-17T15:01:18Z</time>
      </trkpt>
      <trkpt lat="44.17685" lon="3.24863">
        <ele>887</ele>
        <time>2015-10-17T15:03:18Z</time>
      </trkpt>
      <trkpt lat="44.17672" lon="3.24858">
        <ele>886</ele>
        <time>2015-10-17T15:05:18Z</time>
      </trkpt>
      <trkpt lat="44.1766" lon="3.24854">
        <ele>886</ele>
        <time>2015-10-17T15:07:18Z</time>
      </trkpt>
      <trkpt lat="44.1765" lon="3.24849">
        <ele>885</ele>
        <time>2015-10-17T15:09:18Z</time>
      </trkpt>
      <trkpt lat="44.17641" lon="3.24841">
        <ele>884</ele>
        <time>2015-10-17T15:11:18Z</time>
      </trkpt>
      <trkpt lat="44.17635" lon="3.24836">
        <ele>884</ele>
        <time>2015-10-17T15:13:18Z</time>
      </trkpt>
      <trkpt lat="44.17631" lon="3.24819">
        <ele>883</ele>
        <time>2015-10-17T15:15:18Z</time>
      </trkpt>
      <trkpt lat="44.17631" lon="3.24794">
        <ele>881</ele>
        <time>2015-10-17T15:17:18Z</time>
      </trkpt>
      <trkpt lat="44.17633" lon="3.24774">
        <ele>880</ele>
        <time>2015-10-17T15:19:18Z</time>
      </trkpt>
      <trkpt lat="44.17624" lon="3.24763">
        <ele>879</ele>
        <time>2015-10-17T15:21:18Z</time>
      </trkpt>
      <trkpt lat="44.17614" lon="3.24749">
        <ele>878</ele>
        <time>2015-10-17T15:23:18Z</time>
      </trkpt>
      <trkpt lat="44.17606" lon="3.24743">
        <ele>878</ele>
        <time>2015-10-17T15:25:18Z</time>
      </trkpt>
      <trkpt lat="44.17603" lon="3.24741">
        <ele>877</ele>
        <time>2015-10-17T15:27:18Z</time>
      </trkpt>
      <trkpt lat="44.17583" lon="3.24728">
        <ele>877</ele>
        <time>2015-10-17T15:29:18Z</time>
      </trkpt>
      <trkpt lat="44.17573" lon="3.24724">
        <ele>876</ele>
        <time>2015-10-17T15:31:18Z</time>
      </trkpt>
      <trkpt lat="44.17559" lon="3.24718">
        <ele>876</ele>
        <time>2015-10-17T15:33:18Z</time>
      </trkpt>
      <trkpt lat="44.17546" lon="3.24708">
        <ele>875</ele>
        <time>2015-10-17T15:35:18Z</time>
      </trkpt>
      <trkpt lat="44.17537" lon="3.24704">
        <ele>875</ele>
        <time>2015-10-17T15:37:18Z</time>
      </trkpt>
      <trkpt lat="44.17525" lon="3.24699">
        <ele>876</ele>
        <time>2015-10-17T15:39:18Z</time>
      </trkpt>
      <trkpt lat="44.17512" lon="3.24697">
        <ele>876</ele>
        <time>2015-10-17T15:41:18Z</time>
      </trkpt>
      <trkpt lat="44.17505" lon="3.24698">
        <ele>876</ele>
        <time>2015-10-17T15:43:18Z</time>
      </trkpt>
      <trkpt lat="44.17493" lon="3.24706">
        <ele>875</ele>
        <time>2015-10-17T15:45:18Z</time>
      </trkpt>
      <trkpt lat="44.17483" lon="3.24711">
        <ele>875</ele>
        <time>2015-10-17T15:47:18Z</time>
      </trkpt>
      <trkpt lat="44.17474" lon="3.24721">
        <ele>874</ele>
        <time>2015-10-17T15:49:18Z</time>
      </trkpt>
      <trkpt lat="44.17466" lon="3.24733">
        <ele>873</ele>
        <time>2015-10-17T15:51:18Z</time>
      </trkpt>
      <trkpt lat="44.17457" lon="3.2474">
        <ele>873</ele>
        <time>2015-10-17T15:53:18Z</time>
      </trkpt>
      <trkpt lat="44.17444" lon="3.24747">
        <ele>872</ele>
        <time>2015-10-17T15:55:18Z</time>
      </trkpt>
      <trkpt lat="44.17434" lon="3.2475">
        <ele>871</ele>
        <time>2015-10-17T15:57:18Z</time>
      </trkpt>
      <trkpt lat="44.17431" lon="3.2475">
        <ele>871</ele>
        <time>2015-10-17T15:59:18Z</time>
      </trkpt>
      <trkpt lat="44.17422" lon="3.24749">
        <ele>870</ele>
        <time>2015-10-17T16:01:18Z</time>
      </trkpt>
      <trkpt lat="44.17418" lon="3.24748">
        <ele>870</ele>
        <time>2015-10-17T16:03:18Z</time>
      </trkpt>
      <trkpt lat="44.174" lon="3.24744">
        <ele>869</ele>
        <time>2015-10-17T16:05:18Z</time>
      </trkpt>
      <trkpt lat="44.17388" lon="3.24742">
        <ele>868</ele>
        <time>2015-10-17T16:07:18Z</time>
      </trkpt>
      <trkpt lat="44.17379" lon="3.24738">
        <ele>867</ele>
        <time>2015-10-17T16:09:18Z</time>
      </trkpt>
      <trkpt lat="44.17367" lon="3.24735">
        <ele>866</ele>
        <time>2015-10-17T16:11:18Z</time>
      </trkpt>
      <trkpt lat="44.17363" lon="3.24735">
        <ele>866</ele>
        <time>2015-10-17T16:13:18Z</time>
      </trkpt>
      <trkpt lat="44.17351" lon="3.24729">
        <ele>865</ele>
        <time>2015-10-17T16:15:18Z</time>
      </trkpt>
      <trkpt lat="44.17338" lon="3.24719">
        <ele>865</ele>
        <time>2015-10-17T16:17:18Z</time>
      </trkpt>
      <trkpt lat="44.17332" lon="3.2471">
        <ele>865</ele>
        <time>2015-10-17T16:19:18Z</time>
      </trkpt>
      <trkpt lat="44.17331" lon="3.24704">
        <ele>866</ele>
        <time>2015-10-17T16:21:18Z</time>
      </trkpt>
      <trkpt lat="44.17317" lon="3.24701">
        <ele>865</ele>
        <time>2015-10-17T16:23:18Z</time>
      </trkpt>
      <trkpt lat="44.17302" lon="3.24695">
        <ele>864</ele>
        <time>2015-10-17T16:25:18Z</time>
      </trkpt>
      <trkpt lat="44.17293" lon="3.24688">
        <ele>863</ele>
        <time>2015-10-17T16:27:18Z</time>
      </trkpt>
      <trkpt lat="44.1728" lon="3.24682">
        <ele>863</ele>
        <time>2015-10-17T16:29:18Z</time>
      </trkpt>
      <trkpt lat="44.17274" lon="3.24678">
        <ele>862</ele>
        <time>2015-10-17T16:31:18Z</time>
      </trkpt>
      <trkpt lat="44.17274" lon="3.24678">
        <ele>862</ele>
        <time>2015-10-17T16:33:18Z</time>
      </trkpt>
      <trkpt lat="44.17274" lon="3.2469">
        <ele>861</ele>
        <time>2015-10-17T16:35:18Z</time>
      </trkpt>
      <trkpt lat="44.17265" lon="3.2469">
        <ele>860</ele>
        <time>2015-10-17T16:37:18Z</time>
      </trkpt>
      <trkpt lat="44.17262" lon="3.24677">
        <ele>861</ele>
        <time>2015-10-17T16:39:18Z</time>
      </trkpt>
      <trkpt lat="44.17257" lon="3.24668">
        <ele>861</ele>
        <time>2015-10-17T16:41:18Z</time>
      </trkpt>
      <trkpt lat="44.17251" lon="3.24675">
        <ele>860</ele>
        <time>2015-10-17T16:43:18Z</time>
      </trkpt>
      <trkpt lat="44.17249" lon="3.24688">
        <ele>859</ele>
        <time>2015-10-17T16:45:18Z</time>
      </trkpt>
      <trkpt lat="44.17249" lon="3.24705">
        <ele>858</ele>
        <time>2015-10-17T16:47:18Z</time>
      </trkpt>
      <trkpt lat="44.17258" lon="3.24719">
        <ele>858</ele>
        <time>2015-10-17T16:49:18Z</time>
      </trkpt>
      <trkpt lat="44.17263" lon="3.24736">
        <ele>858</ele>
        <time>2015-10-17T16:51:18Z</time>
      </trkpt>
      <trkpt lat="44.17266" lon="3.24752">
        <ele>857</ele>
        <time>2015-10-17T16:53:18Z</time>
      </trkpt>
      <trkpt lat="44.17265" lon="3.24769">
        <ele>857</ele>
        <time>2015-10-17T16:55:18Z</time>
      </trkpt>
      <trkpt lat="44.17265" lon="3.24784">
        <ele>858</ele>
        <time>2015-10-17T16:57:18Z</time>
      </trkpt>
      <trkpt lat="44.17264" lon="3.24798">
        <ele>858</ele>
        <time>2015-10-17T16:59:18Z</time>
      </trkpt>
      <trkpt lat="44.17253" lon="3.24805">
        <ele>857</ele>
        <time>2015-10-17T17:01:18Z</time>
      </trkpt>
      <trkpt lat="44.1725" lon="3.24805">
        <ele>857</ele>
        <time>2015-10-17T17:03:18Z</time>
      </trkpt>
      <trkpt lat="44.1723" lon="3.24811">
        <ele>857</ele>
        <time>2015-10-17T17:05:18Z</time>
      </trkpt>
      <trkpt lat="44.17219" lon="3.24816">
        <ele>858</ele>
        <time>2015-10-17T17:07:18Z</time>
      </trkpt>
      <trkpt lat="44.17206" lon="3.24833">
        <ele>858</ele>
        <time>2015-10-17T17:09:18Z</time>
      </trkpt>
      <trkpt lat="44.17198" lon="3.24844">
        <ele>859</ele>
        <time>2015-10-17T17:11:18Z</time>
      </trkpt>
      <trkpt lat="44.17193" lon="3.24852">
        <ele>859</ele>
        <time>2015-10-17T17:13:18Z</time>
      </trkpt>
      <trkpt lat="44.17188" lon="3.24859">
        <ele>859</ele>
        <time>2015-10-17T17:15:18Z</time>
      </trkpt>
      <trkpt lat="44.17183" lon="3.24871">
        <ele>860</ele>
        <time>2015-10-17T17:17:18Z</time>
      </trkpt>
      <trkpt lat="44.17182" lon="3.24884">
        <ele>860</ele>
        <time>2015-10-17T17:19:18Z</time>
      </trkpt>
      <trkpt lat="44.17176" lon="3.24896">
        <ele>861</ele>
        <time>2015-10-17T17:21:18Z</time>
      </trkpt>
      <trkpt lat="44.17159" lon="3.24899">
        <ele>862</ele>
        <time>2015-10-17T17:23:18Z</time>
      </trkpt>
      <trkpt lat="44.17151" lon="3.24897">
        <ele>862</ele>
        <time>2015-10-17T17:25:18Z</time>
      </trkpt>
      <trkpt lat="44.17136" lon="3.24888">
        <ele>863</ele>
        <time>2015-10-17T17:27:18Z</time>
      </trkpt>
      <trkpt lat="44.17128" lon="3.24883">
        <ele>863</ele>
        <time>2015-10-17T17:29:18Z</time>
      </trkpt>
      <trkpt lat="44.17117" lon="3.24867">
        <ele>862</ele>
        <time>2015-10-17T17:31:18Z</time>
      </trkpt>
      <trkpt lat="44.17108" lon="3.24858">
        <ele>862</ele>
        <time>2015-10-17T17:33:18Z</time>
      </trkpt>
      <trkpt lat="44.17098" lon="3.24847">
        <ele>862</ele>
        <time>2015-10-17T17:35:18Z</time>
      </trkpt>
      <trkpt lat="44.17096" lon="3.24844">
        <ele>862</ele>
        <time>2015-10-17T17:37:18Z</time>
      </trkpt>
      <trkpt lat="44.17081" lon="3.24839">
        <ele>863</ele>
        <time>2015-10-17T17:39:18Z</time>
      </trkpt>
      <trkpt lat="44.17072" lon="3.24839">
        <ele>863</ele>
        <time>2015-10-17T17:41:18Z</time>
      </trkpt>
      <trkpt lat="44.17065" lon="3.24838">
        <ele>863</ele>
        <time>2015-10-17T17:43:18Z</time>
      </trkpt>
      <trkpt lat="44.17056" lon="3.24838">
        <ele>864</ele>
        <time>2015-10-17T17:45:18Z</time>
      </trkpt>
      <trkpt lat="44.17046" lon="3.24838">
        <ele>864</ele>
        <time>2015-10-17T17:47:18Z</time>
      </trkpt>
      <trkpt lat="44.17037" lon="3.24838">
        <ele>865</ele>
        <time>2015-10-17T17:49:18Z</time>
      </trkpt>
      <trkpt lat="44.17027" lon="3.24837">
        <ele>865</ele>
        <time>2015-10-17T17:51:18Z</time>
      </trkpt>
      <trkpt lat="44.17015" lon="3.24838">
        <ele>866</ele>
        <time>2015-10-17T17:53:18Z</time>
      </trkpt>
      <trkpt lat="44.17009" lon="3.24839">
        <ele>866</ele>
        <time>2015-10-17T17:55:18Z</time>
      </trkpt>
      <trkpt lat="44.17003" lon="3.2485">
        <ele>867</ele>
        <time>2015-10-17T17:57:18Z</time>
      </trkpt>
      <trkpt lat="44.17002" lon="3.24867">
        <ele>869</ele>
        <time>2015-10-17T17:59:18Z</time>
      </trkpt>
      <trkpt lat="44.16993" lon="3.24883">
        <ele>870</ele>
        <time>2015-10-17T18:01:18Z</time>
      </trkpt>
      <trkpt lat="44.16982" lon="3.24887">
        <ele>870</ele>
        <time>2015-10-17T18:03:18Z</time>
      </trkpt>
      <trkpt lat="44.16972" lon="3.24884">
        <ele>870</ele>
        <time>2015-10-17T18:05:18Z</time>
      </trkpt>
      <trkpt lat="44.16957" lon="3.24881">
        <ele>870</ele>
        <time>2015-10-17T18:07:18Z</time>
      </trkpt>
      <trkpt lat="44.16943" lon="3.24881">
        <ele>870</ele>
        <time>2015-10-17T18:09:18Z</time>
      </trkpt>
      <trkpt lat="44.16937" lon="3.2488">
        <ele>869</ele>
        <time>2015-10-17T18:11:18Z</time>
      </trkpt>
      <trkpt lat="44.16927" lon="3.2488">
        <ele>869</ele>
        <time>2015-10-17T18:13:18Z</time>
      </trkpt>
      <trkpt lat="44.16916" lon="3.24874">
        <ele>869</ele>
        <time>2015-10-17T18:15:18Z</time>
      </trkpt>
      <trkpt lat="44.16904" lon="3.24863">
        <ele>868</ele>
        <time>2015-10-17T18:17:18Z</time>
      </trkpt>
      <trkpt lat="44.16897" lon="3.24853">
        <ele>867</ele>
        <time>2015-10-17T18:19:18Z</time>
      </trkpt>
      <trkpt lat="44.16884" lon="3.24839">
        <ele>866</ele>
        <time>2015-10-17T18:21:18Z</time>
      </trkpt>
      <trkpt lat="44.16871" lon="3.24829">
        <ele>865</ele>
        <time>2015-10-17T18:23:18Z</time>
      </trkpt>
      <trkpt lat="44.16861" lon="3.24817">
        <ele>864</ele>
        <time>2015-10-17T18:25:18Z</time>
      </trkpt>
      <trkpt lat="44.16852" lon="3.24809">
        <ele>863</ele>
        <time>2015-10-17T18:27:18Z</time>
      </trkpt>
      <trkpt lat="44.16842" lon="3.24809">
        <ele>863</ele>
        <time>2015-10-17T18:29:18Z</time>
      </trkpt>
      <trkpt lat="44.16822" lon="3.24807">
        <ele>864</ele>
        <time>2015-10-17T18:31:18Z</time>
      </trkpt>
      <trkpt lat="44.16818" lon="3.24791">
        <ele>863</ele>
        <time>2015-10-17T18:33:18Z</time>
      </trkpt>
      <trkpt lat="44.1681" lon="3.24769">
        <ele>863</ele>
        <time>2015-10-17T18:35:18Z</time>
      </trkpt>
      <trkpt lat="44.16806" lon="3.24752">
        <ele>862</ele>
        <time>2015-10-17T18:37:18Z</time>
      </trkpt>
      <trkpt lat="44.16799" lon="3.24736">
        <ele>862</ele>
        <time>2015-10-17T18:39:18Z</time>
      </trkpt>
      <trkpt lat="44.16797" lon="3.24723">
        <ele>862</ele>
        <time>2015-10-17T18:41:18Z</time>
      </trkpt>
      <trkpt lat="44.168" lon="3.24702">
        <ele>861</ele>
        <time>2015-10-17T18:43:18Z</time>
      </trkpt>
      <trkpt lat="44.16803" lon="3.24685">
        <ele>861</ele>
        <time>2015-10-17T18:45:18Z</time>
      </trkpt>
      <trkpt lat="44.16803" lon="3.24683">
        <ele>861</ele>
        <time>2015-10-17T18:47:18Z</time>
      </trkpt>
      <trkpt lat="44.16802" lon="3.24666">
        <ele>860</ele>
        <time>2015-10-17T18:49:18Z</time>
      </trkpt>
      <trkpt lat="44.16798" lon="3.2464">
        <ele>860</ele>
        <time>2015-10-17T18:51:18Z</time>
      </trkpt>
      <trkpt lat="44.16796" lon="3.24635">
        <ele>860</ele>
        <time>2015-10-17T18:53:18Z</time>
      </trkpt>
      <trkpt lat="44.1679" lon="3.24622">
        <ele>860</ele>
        <time>2015-10-17T18:55:18Z</time>
      </trkpt>
      <trkpt lat="44.16784" lon="3.24604">
        <ele>860</ele>
        <time>2015-10-17T18:57:18Z</time>
      </trkpt>
      <trkpt lat="44.16778" lon="3.24586">
        <ele>859</ele>
        <time>2015-10-17T18:59:18Z</time>
      </trkpt>
      <trkpt lat="44.16775" lon="3.24572">
        <ele>859</ele>
        <time>2015-10-17T19:01:18Z</time>
      </trkpt>
      <trkpt lat="44.16768" lon="3.2455">
        <ele>858</ele>
        <time>2015-10-17T19:03:18Z</time>
      </trkpt>
      <trkpt lat="44.16763" lon="3.2453">
        <ele>857</ele>
        <time>2015-10-17T19:05:18Z</time>
      </trkpt>
      <trkpt lat="44.16758" lon="3.24509">
        <ele>856</ele>
        <time>2015-10-17T19:07:18Z</time>
      </trkpt>
      <trkpt lat="44.16753" lon="3.24486">
        <ele>854</ele>
        <time>2015-10-17T19:09:18Z</time>
      </trkpt>
      <trkpt lat="44.1675" lon="3.24466">
        <ele>852</ele>
        <time>2015-10-17T19:11:18Z</time>
      </trkpt>
      <trkpt lat="44.16748" lon="3.24451">
        <ele>850</ele>
        <time>2015-10-17T19:13:18Z</time>
      </trkpt>
      <trkpt lat="44.16746" lon="3.24436">
        <ele>848</ele>
        <time>2015-10-17T19:15:18Z</time>
      </trkpt>
      <trkpt lat="44.16745" lon="3.24423">
        <ele>846</ele>
        <time>2015-10-17T19:17:18Z</time>
      </trkpt>
      <trkpt lat="44.16742" lon="3.24409">
        <ele>844</ele>
        <time>2015-10-17T19:19:18Z</time>
      </trkpt>
      <trkpt lat="44.16732" lon="3.24397">
        <ele>843</ele>
        <time>2015-10-17T19:21:18Z</time>
      </trkpt>
      <trkpt lat="44.16718" lon="3.24386">
        <ele>843</ele>
        <time>2015-10-17T19:23:18Z</time>
      </trkpt>
      <trkpt lat="44.16707" lon="3.24376">
        <ele>842</ele>
        <time>2015-10-17T19:25:18Z</time>
      </trkpt>
      <trkpt lat="44.16697" lon="3.2436">
        <ele>840</ele>
        <time>2015-10-17T19:27:18Z</time>
      </trkpt>
      <trkpt lat="44.16701" lon="3.24341">
        <ele>836</ele>
        <time>2015-10-17T19:29:18Z</time>
      </trkpt>
      <trkpt lat="44.16705" lon="3.24332">
        <ele>835</ele>
        <time>2015-10-17T19:31:18Z</time>
      </trkpt>
      <trkpt lat="44.16706" lon="3.24315">
        <ele>832</ele>
        <time>2015-10-17T19:33:18Z</time>
      </trkpt>
      <trkpt lat="44.16708" lon="3.24298">
        <ele>829</ele>
        <time>2015-10-17T19:35:18Z</time>
      </trkpt>
      <trkpt lat="44.16713" lon="3.24285">
        <ele>827</ele>
        <time>2015-10-17T19:37:18Z</time>
      </trkpt>
      <trkpt lat="44.16717" lon="3.24271">
        <ele>825</ele>
        <time>2015-10-17T19:39:18Z</time>
      </trkpt>
      <trkpt lat="44.16717" lon="3.24268">
        <ele>825</ele>
        <time>2015-10-17T19:41:18Z</time>
      </trkpt>
      <trkpt lat="44.16712" lon="3.24257">
        <ele>823</ele>
        <time>2015-10-17T19:43:18Z</time>
      </trkpt>
      <trkpt lat="44.16704" lon="3.24253">
        <ele>823</ele>
        <time>2015-10-17T19:45:18Z</time>
      </trkpt>
      <trkpt lat="44.16695" lon="3.24251">
        <ele>823</ele>
        <time>2015-10-17T19:47:18Z</time>
      </trkpt>
      <trkpt lat="44.16688" lon="3.24249">
        <ele>823</ele>
        <time>2015-10-17T19:49:18Z</time>
      </trkpt>
      <trkpt lat="44.16686" lon="3.24242">
        <ele>822</ele>
        <time>2015-10-17T19:51:18Z</time>
      </trkpt>
      <trkpt lat="44.16691" lon="3.24224">
        <ele>819</ele>
        <time>2015-10-17T19:53:18Z</time>
      </trkpt>
      <trkpt lat="44.16693" lon="3.24212">
        <ele>818</ele>
        <time>2015-10-17T19:55:18Z</time>
      </trkpt>
      <trkpt lat="44.16689" lon="3.24208">
        <ele>817</ele>
        <time>2015-10-17T19:57:18Z</time>
      </trkpt>
      <trkpt lat="44.16679" lon="3.24211">
        <ele>818</ele>
        <time>2015-10-17T19:59:18Z</time>
      </trkpt>
      <trkpt lat="44.16666" lon="3.24223">
        <ele>820</ele>
        <time>2015-10-17T20:01:18Z</time>
      </trkpt>
      <trkpt lat="44.16655" lon="3.24226">
        <ele>821</ele>
        <time>2015-10-17T20:03:18Z</time>
      </trkpt>
      <trkpt lat="44.16646" lon="3.24223">
        <ele>822</ele>
        <time>2015-10-17T20:05:18Z</time>
      </trkpt>
      <trkpt lat="44.16643" lon="3.24209">
        <ele>821</ele>
        <time>2015-10-17T20:07:18Z</time>
      </trkpt>
      <trkpt lat="44.16643" lon="3.24206">
        <ele>820</ele>
        <time>2015-10-17T20:09:18Z</time>
      </trkpt>
      <trkpt lat="44.16648" lon="3.24187">
        <ele>817</ele>
        <time>2015-10-17T20:11:18Z</time>
      </trkpt>
      <trkpt lat="44.16652" lon="3.2417">
        <ele>815</ele>
        <time>2015-10-17T20:13:18Z</time>
      </trkpt>
      <trkpt lat="44.16656" lon="3.24157">
        <ele>813</ele>
        <time>2015-10-17T20:15:18Z</time>
      </trkpt>
      <trkpt lat="44.16656" lon="3.24151">
        <ele>812</ele>
        <time>2015-10-17T20:17:18Z</time>
      </trkpt>
      <trkpt lat="44.16662" lon="3.24135">
        <ele>809</ele>
        <time>2015-10-17T20:19:18Z</time>
      </trkpt>
      <trkpt lat="44.16664" lon="3.24131">
        <ele>809</ele>
        <time>2015-10-17T20:21:18Z</time>
      </trkpt>
      <trkpt lat="44.16668" lon="3.24121">
        <ele>807</ele>
        <time>2015-10-17T20:23:18Z</time>
      </trkpt>
      <trkpt lat="44.16674" lon="3.24119">
        <ele>807</ele>
        <time>2015-10-17T20:25:18Z</time>
      </trkpt>
      <trkpt lat="44.16681" lon="3.24119">
        <ele>808</ele>
        <time>2015-10-17T20:27:18Z</time>
      </trkpt>
      <trkpt lat="44.16691" lon="3.24123">
        <ele>809</ele>
        <time>2015-10-17T20:29:18Z</time>
      </trkpt>
      <trkpt lat="44.16698" lon="3.24134">
        <ele>810</ele>
        <time>2015-10-17T20:31:18Z</time>
      </trkpt>
      <trkpt lat="44.16702" lon="3.24135">
        <ele>810</ele>
        <time>2015-10-17T20:33:18Z</time>
      </trkpt>
      <trkpt lat="44.16706" lon="3.24132">
        <ele>810</ele>
        <time>2015-10-17T20:35:18Z</time>
      </trkpt>
      <trkpt lat="44.16708" lon="3.24126">
        <ele>810</ele>
        <time>2015-10-17T20:37:18Z</time>
      </trkpt>
      <trkpt lat="44.16704" lon="3.24113">
        <ele>809</ele>
        <time>2015-10-17T20:39:18Z</time>
      </trkpt>
      <trkpt lat="44.16695" lon="3.24102">
        <ele>807</ele>
        <time>2015-10-17T20:41:18Z</time>
      </trkpt>
      <trkpt lat="44.1669" lon="3.24094">
        <ele>806</ele>
        <time>2015-10-17T20:43:18Z</time>
      </trkpt>
      <trkpt lat="44.16687" lon="3.24091">
        <ele>806</ele>
        <time>2015-10-17T20:45:18Z</time>
      </trkpt>
      <trkpt lat="44.16676" lon="3.24082">
        <ele>804</ele>
        <time>2015-10-17T20:47:18Z</time>
      </trkpt>
      <trkpt lat="44.16673" lon="3.24071">
        <ele>803</ele>
        <time>2015-10-17T20:49:18Z</time>
      </trkpt>
      <trkpt lat="44.16664" lon="3.24065">
        <ele>803</ele>
        <time>2015-10-17T20:51:18Z</time>
      </trkpt>
      <trkpt lat="44.16654" lon="3.24047">
        <ele>804</ele>
        <time>2015-10-17T20:53:18Z</time>
      </trkpt>
      <trkpt lat="44.16652" lon="3.24041">
        <ele>804</ele>
        <time>2015-10-17T20:55:18Z</time>
      </trkpt>
      <trkpt lat="44.16654" lon="3.24034">
        <ele>803</ele>
        <time>2015-10-17T20:57:18Z</time>
      </trkpt>
      <trkpt lat="44.16656" lon="3.24023">
        <ele>802</ele>
        <time>2015-10-17T20:59:18Z</time>
      </trkpt>
      <trkpt lat="44.16657" lon="3.2401">
        <ele>801</ele>
        <time>2015-10-17T21:01:18Z</time>
      </trkpt>
      <trkpt lat="44.16657" lon="3.24007">
        <ele>801</ele>
        <time>2015-10-17T21:03:18Z</time>
      </trkpt>
      <trkpt lat="44.1666" lon="3.23988">
        <ele>800</ele>
        <time>2015-10-17T21:05:18Z</time>
      </trkpt>
      <trkpt lat="44.16659" lon="3.23973">
        <ele>800</ele>
        <time>2015-10-17T21:07:18Z</time>
      </trkpt>
      <trkpt lat="44.16655" lon="3.23954">
        <ele>799</ele>
        <time>2015-10-17T21:09:18Z</time>
      </trkpt>
      <trkpt lat="44.16655" lon="3.23944">
        <ele>799</ele>
        <time>2015-10-17T21:11:18Z</time>
      </trkpt>
      <trkpt lat="44.16658" lon="3.23933">
        <ele>798</ele>
        <time>2015-10-17T21:13:18Z</time>
      </trkpt>
      <trkpt lat="44.1666" lon="3.23921">
        <ele>798</ele>
        <time>2015-10-17T21:15:18Z</time>
      </trkpt>
      <trkpt lat="44.1665" lon="3.23903">
        <ele>798</ele>
        <time>2015-10-17T21:17:18Z</time>
      </trkpt>
      <trkpt lat="44.1664" lon="3.2389">
        <ele>798</ele>
        <time>2015-10-17T21:19:18Z</time>
      </trkpt>
      <trkpt lat="44.16637" lon="3.23871">
        <ele>798</ele>
        <time>2015-10-17T21:21:18Z</time>
      </trkpt>
      <trkpt lat="44.16631" lon="3.23856">
        <ele>798</ele>
        <time>2015-10-17T21:23:18Z</time>
      </trkpt>
      <trkpt lat="44.16628" lon="3.23839">
        <ele>798</ele>
        <time>2015-10-17T21:25:18Z</time>
      </trkpt>
      <trkpt lat="44.16626" lon="3.23821">
        <ele>797</ele>
        <time>2015-10-17T21:27:18Z</time>
      </trkpt>
      <trkpt lat="44.16626" lon="3.23814">
        <ele>797</ele>
        <time>2015-10-17T21:29:18Z</time>
      </trkpt>
      <trkpt lat="44.1663" lon="3.23795">
        <ele>796</ele>
        <time>2015-10-17T21:31:18Z</time>
      </trkpt>
      <trkpt lat="44.1663" lon="3.23787">
        <ele>796</ele>
        <time>2015-10-17T21:33:18Z</time>
      </trkpt>
      <trkpt lat="44.16619" lon="3.23765">
        <ele>794</ele>
        <time>2015-10-17T21:35:18Z</time>
      </trkpt>
      <trkpt lat="44.16617" lon="3.23761">
        <ele>794</ele>
        <time>2015-10-17T21:37:18Z</time>
      </trkpt>
      <trkpt lat="44.16605" lon="3.23746">
        <ele>793</ele>
        <time>2015-10-17T21:39:18Z</time>
      </trkpt>
      <trkpt lat="44.166" lon="3.23743">
        <ele>793</ele>
        <time>2015-10-17T21:41:18Z</time>
      </trkpt>
      <trkpt lat="44.16596" lon="3.23742">
        <ele>792</ele>
        <time>2015-10-17T21:43:18Z</time>
      </trkpt>
      <trkpt lat="44.16584" lon="3.23737">
        <ele>792</ele>
        <time>2015-10-17T21:45:18Z</time>
      </trkpt>
      <trkpt lat="44.1657" lon="3.23734">
        <ele>793</ele>
        <time>2015-10-17T21:47:18Z</time>
      </trkpt>
      <trkpt lat="44.16557" lon="3.23738">
        <ele>793</ele>
        <time>2015-10-17T21:49:18Z</time>
      </trkpt>
      <trkpt lat="44.16549" lon="3.23746">
        <ele>794</ele>
        <time>2015-10-17T21:51:18Z</time>
      </trkpt>
      <trkpt lat="44.16541" lon="3.23759">
        <ele>795</ele>
        <time>2015-10-17T21:53:18Z</time>
      </trkpt>
      <trkpt lat="44.16539" lon="3.23764">
        <ele>795</ele>
        <time>2015-10-17T21:55:18Z</time>
      </trkpt>
      <trkpt lat="44.16531" lon="3.23772">
        <ele>796</ele>
        <time>2015-10-17T21:57:18Z</time>
      </trkpt>
      <trkpt lat="44.16523" lon="3.23779">
        <ele>797</ele>
        <time>2015-10-17T21:59:18Z</time>
      </trkpt>
      <trkpt lat="44.16513" lon="3.23788">
        <ele>797</ele>
        <time>2015-10-17T22:01:18Z</time>
      </trkpt>
      <trkpt lat="44.16508" lon="3.2379">
        <ele>798</ele>
        <time>2015-10-17T22:03:18Z</time>
      </trkpt>
      <trkpt lat="44.16504" lon="3.23798">
        <ele>798</ele>
        <time>2015-10-17T22:05:18Z</time>
      </trkpt>
      <trkpt lat="44.16502" lon="3.23804">
        <ele>798</ele>
        <time>2015-10-17T22:07:18Z</time>
      </trkpt>
      <trkpt lat="44.16499" lon="3.23811">
        <ele>799</ele>
        <time>2015-10-17T22:09:18Z</time>
      </trkpt>
      <trkpt lat="44.16496" lon="3.23818">
        <ele>799</ele>
        <time>2015-10-17T22:11:18Z</time>
      </trkpt>
      <trkpt lat="44.16494" lon="3.23826">
        <ele>799</ele>
        <time>2015-10-17T22:13:18Z</time>
      </trkpt>
      <trkpt lat="44.16493" lon="3.23833">
        <ele>799</ele>
        <time>2015-10-17T22:15:18Z</time>
      </trkpt>
      <trkpt lat="44.16491" lon="3.23843">
        <ele>800</ele>
        <time>2015-10-17T22:17:18Z</time>
      </trkpt>
      <trkpt lat="44.16485" lon="3.23852">
        <ele>801</ele>
        <time>2015-10-17T22:19:18Z</time>
      </trkpt>
      <trkpt lat="44.16474" lon="3.23852">
        <ele>801</ele>
        <time>2015-10-17T22:21:18Z</time>
      </trkpt>
      <trkpt lat="44.16471" lon="3.23852">
        <ele>801</ele>
        <time>2015-10-17T22:23:18Z</time>
      </trkpt>
      <trkpt lat="44.1646" lon="3.23849">
        <ele>802</ele>
        <time>2015-10-17T22:25:18Z</time>
      </trkpt>
      <trkpt lat="44.16452" lon="3.23854">
        <ele>802</ele>
        <time>2015-10-17T22:27:18Z</time>
      </trkpt>
      <trkpt lat="44.16448" lon="3.23855">
        <ele>802</ele>
        <time>2015-10-17T22:29:18Z</time>
      </trkpt>
      <trkpt lat="44.1644" lon="3.23861">
        <ele>803</ele>
        <time>2015-10-17T22:31:18Z</time>
      </trkpt>
      <trkpt lat="44.16435" lon="3.23865">
        <ele>803</ele>
        <time>2015-10-17T22:33:18Z</time>
      </trkpt>
      <trkpt lat="44.1643" lon="3.23868">
        <ele>803</ele>
        <time>2015-10-17T22:35:18Z</time>
      </trkpt>
      <trkpt lat="44.1642" lon="3.23873">
        <ele>803</ele>
        <time>2015-10-17T22:37:18Z</time>
      </trkpt>
      <trkpt lat="44.16413" lon="3.23875">
        <ele>804</ele>
        <time>2015-10-17T22:39:18Z</time>
      </trkpt>
      <trkpt lat="44.16409" lon="3.23877">
        <ele>805</ele>
        <time>2015-10-17T22:41:18Z</time>
      </trkpt>
      <trkpt lat="44.16398" lon="3.23884">
        <ele>806</ele>
        <time>2015-10-17T22:43:18Z</time>
      </trkpt>
      <trkpt lat="44.16394" lon="3.23885">
        <ele>806</ele>
        <time>2015-10-17T22:45:18Z</time>
      </trkpt>
      <trkpt lat="44.16383" lon="3.23893">
        <ele>807</ele>
        <time>2015-10-17T22:47:18Z</time>
      </trkpt>
      <trkpt lat="44.16379" lon="3.23902">
        <ele>807</ele>
        <time>2015-10-17T22:49:18Z</time>
      </trkpt>
      <trkpt lat="44.16375" lon="3.23911">
        <ele>806</ele>
        <time>2015-10-17T22:51:18Z</time>
      </trkpt>
      <trkpt lat="44.16366" lon="3.23914">
        <ele>807</ele>
        <time>2015-10-17T22:53:18Z</time>
      </trkpt>
      <trkpt lat="44.16362" lon="3.23915">
        <ele>807</ele>
        <time>2015-10-17T22:55:18Z</time>
      </trkpt>
      <trkpt lat="44.16353" lon="3.23918">
        <ele>808</ele>
        <time>2015-10-17T22:57:18Z</time>
      </trkpt>
      <trkpt lat="44.16349" lon="3.23918">
        <ele>808</ele>
        <time>2015-10-17T22:59:18Z</time>
      </trkpt>
      <trkpt lat="44.16339" lon="3.23921">
        <ele>809</ele>
        <time>2015-10-17T23:01:18Z</time>
      </trkpt>
      <trkpt lat="44.1633" lon="3.23924">
        <ele>810</ele>
        <time>2015-10-17T23:03:18Z</time>
      </trkpt>
      <trkpt lat="44.16317" lon="3.23935">
        <ele>814</ele>
        <time>2015-10-17T23:05:18Z</time>
      </trkpt>
      <trkpt lat="44.16314" lon="3.23935">
        <ele>814</ele>
        <time>2015-10-17T23:07:18Z</time>
      </trkpt>
      <trkpt lat="44.16299" lon="3.2394">
        <ele>817</ele>
        <time>2015-10-17T23:09:18Z</time>
      </trkpt>
      <trkpt lat="44.16291" lon="3.23942">
        <ele>818</ele>
        <time>2015-10-17T23:11:18Z</time>
      </trkpt>
      <trkpt lat="44.16286" lon="3.23942">
        <ele>818</ele>
        <time>2015-10-17T23:13:18Z</time>
      </trkpt>
      <trkpt lat="44.1628" lon="3.23949">
        <ele>820</ele>
        <time>2015-10-17T23:15:18Z</time>
      </trkpt>
      <trkpt lat="44.16279" lon="3.2395">
        <ele>820</ele>
        <time>2015-10-17T23:17:18Z</time>
      </trkpt>
      <trkpt lat="44.16269" lon="3.23955">
        <ele>821</ele>
        <time>2015-10-17T23:19:18Z</time>
      </trkpt>
      <trkpt lat="44.1626" lon="3.23958">
        <ele>822</ele>
        <time>2015-10-17T23:21:18Z</time>
      </trkpt>
      <trkpt lat="44.16251" lon="3.23964">
        <ele>824</ele>
        <time>2015-10-17T23:23:18Z</time>
      </trkpt>
      <trkpt lat="44.16248" lon="3.2396">
        <ele>824</ele>
        <time>2015-10-17T23:25:18Z</time>
      </trkpt>
      <trkpt lat="44.16245" lon="3.23962">
        <ele>825</ele>
        <time>2015-10-17T23:27:18Z</time>
      </trkpt>
      <trkpt lat="44.16235" lon="3.23972">
        <ele>827</ele>
        <time>2015-10-17T23:29:18Z</time>
      </trkpt>
      <trkpt lat="44.16232" lon="3.23978">
        <ele>828</ele>
        <time>2015-10-17T23:31:18Z</time>
      </trkpt>
      <trkpt lat="44.1623" lon="3.23987">
        <ele>829</ele>
        <time>2015-10-17T23:33:18Z</time>
      </trkpt>
      <trkpt lat="44.16226" lon="3.23999">
        <ele>829</ele>
        <time>2015-10-17T23:35:18Z</time>
      </trkpt>
      <trkpt lat="44.1622" lon="3.24006">
        <ele>831</ele>
        <time>2015-10-17T23:37:18Z</time>
      </trkpt>
      <trkpt lat="44.16218" lon="3.24008">
        <ele>832</ele>
        <time>2015-10-17T23:39:18Z</time>
      </trkpt>
      <trkpt lat="44.16216" lon="3.24014">
        <ele>832</ele>
        <time>2015-10-17T23:41:18Z</time>
      </trkpt>
      <trkpt lat="44.16214" lon="3.24017">
        <ele>833</ele>
        <time>2015-10-17T23:43:18Z</time>
      </trkpt>
      <trkpt lat="44.16211" lon="3.24019">
        <ele>834</ele>
        <time>2015-10-17T23:45:18Z</time>
      </trkpt>
      <trkpt lat="44.16212" lon="3.24012">
        <ele>833</ele>
        <time>2015-10-17T23:47:18Z</time>
      </trkpt>
      <trkpt lat="44.1621" lon="3.24003">
        <ele>832</ele>
        <time>2015-10-17T23:49:18Z</time>
      </trkpt>
      <trkpt lat="44.16209" lon="3.24002">
        <ele>833</ele>
        <time>2015-10-17T23:51:18Z</time>
      </trkpt>
      <trkpt lat="44.16199" lon="3.23996">
        <ele>834</ele>
        <time>2015-10-17T23:53:18Z</time>
      </trkpt>
      <trkpt lat="44.16192" lon="3.23992">
        <ele>836</ele>
        <time>2015-10-17T23:55:18Z</time>
      </trkpt>
      <trkpt lat="44.1619" lon="3.23984">
        <ele>837</ele>
        <time>2015-10-17T23:57:18Z</time>
      </trkpt>
      <trkpt lat="44.1619" lon="3.2398">
        <ele>837</ele>
        <time>2015-10-17T23:59:18Z</time>
      </trkpt>
      <trkpt lat="44.1619" lon="3.23973">
        <ele>837</ele>
        <time>2015-10-18T00:01:18Z</time>
      </trkpt>
      <trkpt lat="44.16185" lon="3.2397">
        <ele>838</ele>
        <time>2015-10-18T00:03:18Z</time>
      </trkpt>
      <trkpt lat="44.1618" lon="3.23969">
        <ele>840</ele>
        <time>2015-10-18T00:05:18Z</time>
      </trkpt>
      <trkpt lat="44.16178" lon="3.23967">
        <ele>840</ele>
        <time>2015-10-18T00:07:18Z</time>
      </trkpt>
      <trkpt lat="44.16174" lon="3.23968">
        <ele>841</ele>
        <time>2015-10-18T00:09:18Z</time>
      </trkpt>
      <trkpt lat="44.1617" lon="3.23969">
        <ele>842</ele>
        <time>2015-10-18T00:11:18Z</time>
      </trkpt>
      <trkpt lat="44.16165" lon="3.23972">
        <ele>843</ele>
        <time>2015-10-18T00:13:18Z</time>
      </trkpt>
      <trkpt lat="44.16164" lon="3.23973">
        <ele>843</ele>
        <time>2015-10-18T00:15:18Z</time>
      </trkpt>
      <trkpt lat="44.16162" lon="3.23975">
        <ele>843</ele>
        <time>2015-10-18T00:17:18Z</time>
      </trkpt>
      <trkpt lat="44.1616" lon="3.23975">
        <ele>843</ele>
        <time>2015-10-18T00:19:18Z</time>
      </trkpt>
      <trkpt lat="44.16156" lon="3.23973">
        <ele>844</ele>
        <time>2015-10-18T00:21:18Z</time>
      </trkpt>
      <trkpt lat="44.16151" lon="3.23977">
        <ele>844</ele>
        <time>2015-10-18T00:23:18Z</time>
      </trkpt>
      <trkpt lat="44.16143" lon="3.23984">
        <ele>845</ele>
        <time>2015-10-18T00:25:18Z</time>
      </trkpt>
      <trkpt lat="44.16132" lon="3.23997">
        <ele>845</ele>
        <time>2015-10-18T00:27:18Z</time>
      </trkpt>
      <trkpt lat="44.16124" lon="3.24018">
        <ele>846</ele>
        <time>2015-10-18T00:29:18Z</time>
      </trkpt>
      <trkpt lat="44.16117" lon="3.24035">
        <ele>846</ele>
        <time>2015-10-18T00:31:18Z</time>
      </trkpt>
      <trkpt lat="44.16109" lon="3.24045">
        <ele>847</ele>
        <time>2015-10-18T00:33:18Z</time>
      </trkpt>
      <trkpt lat="44.16098" lon="3.24055">
        <ele>847</ele>
        <time>2015-10-18T00:35:18Z</time>
      </trkpt>
      <trkpt lat="44.16091" lon="3.24065">
        <ele>847</ele>
        <time>2015-10-18T00:37:18Z</time>
      </trkpt>
      <trkpt lat="44.16083" lon="3.24082">
        <ele>847</ele>
        <time>2015-10-18T00:39:18Z</time>
      </trkpt>
      <trkpt lat="44.1608" lon="3.24091">
        <ele>847</ele>
        <time>2015-10-18T00:41:18Z</time>
      </trkpt>
      <trkpt lat="44.16076" lon="3.24098">
        <ele>847</ele>
        <time>2015-10-18T00:43:18Z</time>
      </trkpt>
      <trkpt lat="44.16065" lon="3.24112">
        <ele>848</ele>
        <time>2015-10-18T00:45:18Z</time>
      </trkpt>
      <trkpt lat="44.1606" lon="3.2412">
        <ele>848</ele>
        <time>2015-10-18T00:47:18Z</time>
      </trkpt>
      <trkpt lat="44.1605" lon="3.24139">
        <ele>849</ele>
        <time>2015-10-18T00:49:18Z</time>
      </trkpt>
      <trkpt lat="44.1604" lon="3.24136">
        <ele>849</ele>
        <time>2015-10-18T00:51:18Z</time>
      </trkpt>
      <trkpt lat="44.16022" lon="3.24128">
        <ele>848</ele>
        <time>2015-10-18T00:53:18Z</time>
      </trkpt>
      <trkpt lat="44.16014" lon="3.24124">
        <ele>847</ele>
        <time>2015-10-18T00:55:18Z</time>
      </trkpt>
      <trkpt lat="44.16008" lon="3.24134">
        <ele>848</ele>
        <time>2015-10-18T00:57:18Z</time>
      </trkpt>
      <trkpt lat="44.16007" lon="3.24138">
        <ele>848</ele>
        <time>2015-10-18T00:59:18Z</time>
      </trkpt>
      <trkpt lat="44.16006" lon="3.24155">
        <ele>849</ele>
        <time>2015-10-18T01:01:18Z</time>
      </trkpt>
      <trkpt lat="44.16" lon="3.24167">
        <ele>850</ele>
        <time>2015-10-18T01:03:18Z</time>
      </trkpt>
      <trkpt lat="44.15997" lon="3.24171">
        <ele>850</ele>
        <time>2015-10-18T01:05:18Z</time>
      </trkpt>
      <trkpt lat="44.15987" lon="3.2417">
        <ele>850</ele>
        <time>2015-10-18T01:07:18Z</time>
      </trkpt>
      <trkpt lat="44.15975" lon="3.24164">
        <ele>849</ele>
        <time>2015-10-18T01:09:18Z</time>
      </trkpt>
      <trkpt lat="44.15974" lon="3.24162">
        <ele>849</ele>
        <time>2015-10-18T01:11:18Z</time>
      </trkpt>
      <trkpt lat="44.15963" lon="3.24154">
        <ele>848</ele>
        <time>2015-10-18T01:13:18Z</time>
      </trkpt>
      <trkpt lat="44.15947" lon="3.24151">
        <ele>847</ele>
        <time>2015-10-18T01:15:18Z</time>
      </trkpt>
      <trkpt lat="44.15935" lon="3.24153">
        <ele>847</ele>
        <time>2015-10-18T01:17:18Z</time>
      </trkpt>
      <trkpt lat="44.15927" lon="3.24159">
        <ele>848</ele>
        <time>2015-10-18T01:19:18Z</time>
      </trkpt>
      <trkpt lat="44.15925" lon="3.24162">
        <ele>848</ele>
        <time>2015-10-18T01:21:18Z</time>
      </trkpt>
      <trkpt lat="44.15922" lon="3.24175">
        <ele>850</ele>
        <time>2015-10-18T01:23:18Z</time>
      </trkpt>
      <trkpt lat="44.15922" lon="3.24177">
        <ele>850</ele>
        <time>2015-10-18T01:25:18Z</time>
      </trkpt>
      <trkpt lat="44.15925" lon="3.24188">
        <ele>852</ele>
        <time>2015-10-18T01:27:18Z</time>
      </trkpt>
      <trkpt lat="44.15927" lon="3.24188">
        <ele>852</ele>
        <time>2015-10-18T01:29:18Z</time>
      </trkpt>
      <trkpt lat="44.15941" lon="3.24192">
        <ele>852</ele>
        <time>2015-10-18T01:31:18Z</time>
      </trkpt>
      <trkpt lat="44.15942" lon="3.24194">
        <ele>853</ele>
        <time>2015-10-18T01:33:18Z</time>
      </trkpt>
      <trkpt lat="44.15942" lon="3.24206">
        <ele>854</ele>
        <time>2015-10-18T01:35:18Z</time>
      </trkpt>
      <trkpt lat="44.15938" lon="3.24214">
        <ele>855</ele>
        <time>2015-10-18T01:37:18Z</time>
      </trkpt>
      <trkpt lat="44.1593" lon="3.24226">
        <ele>857</ele>
        <time>2015-10-18T01:39:18Z</time>
      </trkpt>
      <trkpt lat="44.15927" lon="3.24237">
        <ele>858</ele>
        <time>2015-10-18T01:41:18Z</time>
      </trkpt>
      <trkpt lat="44.15921" lon="3.24246">
        <ele>859</ele>
        <time>2015-10-18T01:43:18Z</time>
      </trkpt>
      <trkpt lat="44.15914" lon="3.24257">
        <ele>861</ele>
        <time>2015-10-18T01:45:18Z</time>
      </trkpt>
      <trkpt lat="44.15909" lon="3.24282">
        <ele>863</ele>
        <time>2015-10-18T01:47:18Z</time>
      </trkpt>
      <trkpt lat="44.15907" lon="3.24293">
        <ele>864</ele>
        <time>2015-10-18T01:49:18Z</time>
      </trkpt>
      <trkpt lat="44.15903" lon="3.24302">
        <ele>865</ele>
        <time>2015-10-18T01:51:18Z</time>
      </trkpt>
      <trkpt lat="44.159" lon="3.24311">
        <ele>866</ele>
        <time>2015-10-18T01:53:18Z</time>
      </trkpt>
      <trkpt lat="44.15887" lon="3.2432">
        <ele>867</ele>
        <time>2015-10-18T01:55:18Z</time>
      </trkpt>
      <trkpt lat="44.15874" lon="3.24316">
        <ele>867</ele>
        <time>2015-10-18T01:57:18Z</time>
      </trkpt>
      <trkpt lat="44.15867" lon="3.24313">
        <ele>867</ele>
        <time>2015-10-18T01:59:18Z</time>
      </trkpt>
      <trkpt lat="44.15857" lon="3.24317">
        <ele>867</ele>
        <time>2015-10-18T02:01:18Z</time>
      </trkpt>
      <trkpt lat="44.15846" lon="3.24327">
        <ele>868</ele>
        <time>2015-10-18T02:03:18Z</time>
      </trkpt>
      <trkpt lat="44.15834" lon="3.24335">
        <ele>869</ele>
        <time>2015-10-18T02:05:18Z</time>
      </trkpt>
      <trkpt lat="44.15825" lon="3.24339">
        <ele>870</ele>
        <time>2015-10-18T02:07:18Z</time>
      </trkpt>
      <trkpt lat="44.15815" lon="3.24339">
        <ele>871</ele>
        <time>2015-10-18T02:09:18Z</time>
      </trkpt>
      <trkpt lat="44.15805" lon="3.2434">
        <ele>871</ele>
        <time>2015-10-18T02:11:18Z</time>
      </trkpt>
      <trkpt lat="44.15784" lon="3.24336">
        <ele>872</ele>
        <time>2015-10-18T02:13:18Z</time>
      </trkpt>
      <trkpt lat="44.15774" lon="3.2434">
        <ele>873</ele>
        <time>2015-10-18T02:15:18Z</time>
      </trkpt>
      <trkpt lat="44.15769" lon="3.24347">
        <ele>874</ele>
        <time>2015-10-18T02:17:18Z</time>
      </trkpt>
      <trkpt lat="44.15764" lon="3.24351">
        <ele>875</ele>
        <time>2015-10-18T02:19:18Z</time>
      </trkpt>
      <trkpt lat="44.15754" lon="3.24353">
        <ele>876</ele>
        <time>2015-10-18T02:21:18Z</time>
      </trkpt>
      <trkpt lat="44.15746" lon="3.24352">
        <ele>876</ele>
        <time>2015-10-18T02:23:18Z</time>
      </trkpt>
      <trkpt lat="44.15737" lon="3.24348">
        <ele>875</ele>
        <time>2015-10-18T02:25:18Z</time>
      </trkpt>
      <trkpt lat="44.15727" lon="3.2435">
        <ele>874</ele>
        <time>2015-10-18T02:27:18Z</time>
      </trkpt>
      <trkpt lat="44.15726" lon="3.24351">
        <ele>875</ele>
        <time>2015-10-18T02:29:18Z</time>
      </trkpt>
      <trkpt lat="44.15719" lon="3.24359">
        <ele>875</ele>
        <time>2015-10-18T02:31:18Z</time>
      </trkpt>
      <trkpt lat="44.15711" lon="3.24368">
        <ele>875</ele>
        <time>2015-10-18T02:33:18Z</time>
      </trkpt>
      <trkpt lat="44.157" lon="3.24375">
        <ele>876</ele>
        <time>2015-10-18T02:35:18Z</time>
      </trkpt>
      <trkpt lat="44.15684" lon="3.24383">
        <ele>876</ele>
        <time>2015-10-18T02:37:18Z</time>
      </trkpt>
      <trkpt lat="44.1566" lon="3.244">
        <ele>875</ele>
        <time>2015-10-18T02:39:18Z</time>
      </trkpt>
      <trkpt lat="44.15649" lon="3.24412">
        <ele>875</ele>
        <time>2015-10-18T02:41:18Z</time>
      </trkpt>
      <trkpt lat="44.15638" lon="3.2443">
        <ele>875</ele>
        <time>2015-10-18T02:43:18Z</time>
      </trkpt>
      <trkpt lat="44.15629" lon="3.24442">
        <ele>875</ele>
        <time>2015-10-18T02:45:18Z</time>
      </trkpt>
      <trkpt lat="44.15617" lon="3.24453">
        <ele>874</ele>
        <time>2015-10-18T02:47:18Z</time>
      </trkpt>
      <trkpt lat="44.15605" lon="3.24465">
        <ele>874</ele>
        <time>2015-10-18T02:49:18Z</time>
      </trkpt>
      <trkpt lat="44.15592" lon="3.24477">
        <ele>874</ele>
        <time>2015-10-18T02:51:18Z</time>
      </trkpt>
      <trkpt lat="44.15582" lon="3.24486">
        <ele>873</ele>
        <time>2015-10-18T02:53:18Z</time>
      </trkpt>
      <trkpt lat="44.15572" lon="3.24496">
        <ele>873</ele>
        <time>2015-10-18T02:55:18Z</time>
      </trkpt>
      <trkpt lat="44.1557" lon="3.245">
        <ele>873</ele>
        <time>2015-10-18T02:57:18Z</time>
      </trkpt>
      <trkpt lat="44.15563" lon="3.24513">
        <ele>874</ele>
        <time>2015-10-18T02:59:18Z</time>
      </trkpt>
      <trkpt lat="44.15556" lon="3.24525">
        <ele>874</ele>
        <time>2015-10-18T03:01:18Z</time>
      </trkpt>
      <trkpt lat="44.15549" lon="3.24539">
        <ele>875</ele>
        <time>2015-10-18T03:03:18Z</time>
      </trkpt>
      <trkpt lat="44.15541" lon="3.24554">
        <ele>876</ele>
        <time>2015-10-18T03:05:18Z</time>
      </trkpt>
      <trkpt lat="44.15531" lon="3.24569">
        <ele>876</ele>
        <time>2015-10-18T03:07:18Z</time>
      </trkpt>
      <trkpt lat="44.15521" lon="3.24583">
        <ele>876</ele>
        <time>2015-10-18T03:09:18Z</time>
      </trkpt>
      <trkpt lat="44.1551" lon="3.24595">
        <ele>876</ele>
        <time>2015-10-18T03:11:18Z</time>
      </trkpt>
      <trkpt lat="44.15501" lon="3.2461">
        <ele>876</ele>
        <time>2015-10-18T03:13:18Z</time>
      </trkpt>
      <trkpt lat="44.15496" lon="3.2462">
        <ele>876</ele>
        <time>2015-10-18T03:15:18Z</time>
      </trkpt>
      <trkpt lat="44.15489" lon="3.24635">
        <ele>876</ele>
        <time>2015-10-18T03:17:18Z</time>
      </trkpt>
      <trkpt lat="44.15481" lon="3.24646">
        <ele>875</ele>
        <time>2015-10-18T03:19:18Z</time>
      </trkpt>
      <trkpt lat="44.15473" lon="3.24661">
        <ele>875</ele>
        <time>2015-10-18T03:21:18Z</time>
      </trkpt>
      <trkpt lat="44.15468" lon="3.24677">
        <ele>874</ele>
        <time>2015-10-18T03:23:18Z</time>
      </trkpt>
      <trkpt lat="44.15465" lon="3.24692">
        <ele>873</ele>
        <time>2015-10-18T03:25:18Z</time>
      </trkpt>
      <trkpt lat="44.15466" lon="3.24698">
        <ele>873</ele>
        <time>2015-10-18T03:27:18Z</time>
      </trkpt>
      <trkpt lat="44.15465" lon="3.24706">
        <ele>873</ele>
        <time>2015-10-18T03:29:18Z</time>
      </trkpt>
      <trkpt lat="44.15463" lon="3.24724">
        <ele>872</ele>
        <time>2015-10-18T03:31:18Z</time>
      </trkpt>
      <trkpt lat="44.15464" lon="3.24738">
        <ele>872</ele>
        <time>2015-10-18T03:33:18Z</time>
      </trkpt>
      <trkpt lat="44.15472" lon="3.24754">
        <ele>874</ele>
        <time>2015-10-18T03:35:18Z</time>
      </trkpt>
      <trkpt lat="44.1548" lon="3.24772">
        <ele>875</ele>
        <time>2015-10-18T03:37:18Z</time>
      </trkpt>
      <trkpt lat="44.15483" lon="3.24794">
        <ele>875</ele>
        <time>2015-10-18T03:39:18Z</time>
      </trkpt>
      <trkpt lat="44.15482" lon="3.24814">
        <ele>874</ele>
        <time>2015-10-18T03:41:18Z</time>
      </trkpt>
      <trkpt lat="44.1548" lon="3.24832">
        <ele>874</ele>
        <time>2015-10-18T03:43:18Z</time>
      </trkpt>
      <trkpt lat="44.15481" lon="3.2485">
        <ele>875</ele>
        <time>2015-10-18T03:45:18Z</time>
      </trkpt>
      <trkpt lat="44.15483" lon="3.24865">
        <ele>875</ele>
        <time>2015-10-18T03:47:18Z</time>
      </trkpt>
      <trkpt lat="44.15486" lon="3.24878">
        <ele>876</ele>
        <time>2015-10-18T03:49:18Z</time>
      </trkpt>
      <trkpt lat="44.15488" lon="3.24895">
        <ele>877</ele>
        <time>2015-10-18T03:51:18Z</time>
      </trkpt>
      <trkpt lat="44.15484" lon="3.24908">
        <ele>878</ele>
        <time>2015-10-18T03:53:18Z</time>
      </trkpt>
      <trkpt lat="44.15476" lon="3.24915">
        <ele>878</ele>
        <time>2015-10-18T03:55:18Z</time>
      </trkpt>
      <trkpt lat="44.15469" lon="3.24921">
        <ele>878</ele>
        <time>2015-10-18T03:57:18Z</time>
      </trkpt>
      <trkpt lat="44.15465" lon="3.24924">
        <ele>879</ele>
        <time>2015-10-18T03:59:18Z</time>
      </trkpt>
      <trkpt lat="44.15462" lon="3.24916">
        <ele>878</ele>
        <time>2015-10-18T04:01:18Z</time>
      </trkpt>
      <trkpt lat="44.15463" lon="3.24905">
        <ele>877</ele>
        <time>2015-10-18T04:03:18Z</time>
      </trkpt>
      <trkpt lat="44.15464" lon="3.24888">
        <ele>876</ele>
        <time>2015-10-18T04:05:18Z</time>
      </trkpt>
      <trkpt lat="44.15461" lon="3.24879">
        <ele>875</ele>
        <time>2015-10-18T04:07:18Z</time>
      </trkpt>
      <trkpt lat="44.15456" lon="3.24864">
        <ele>874</ele>
        <time>2015-10-18T04:09:18Z</time>
      </trkpt>
      <trkpt lat="44.15447" lon="3.24856">
        <ele>873</ele>
        <time>2015-10-18T04:11:18Z</time>
      </trkpt>
      <trkpt lat="44.15443" lon="3.24847">
        <ele>872</ele>
        <time>2015-10-18T04:13:18Z</time>
      </trkpt>
      <trkpt lat="44.15438" lon="3.24835">
        <ele>871</ele>
        <time>2015-10-18T04:15:18Z</time>
      </trkpt>
      <trkpt lat="44.15433" lon="3.24823">
        <ele>870</ele>
        <time>2015-10-18T04:17:18Z</time>
      </trkpt>
      <trkpt lat="44.15433" lon="3.24819">
        <ele>869</ele>
        <time>2015-10-18T04:19:18Z</time>
      </trkpt>
      <trkpt lat="44.15428" lon="3.24801">
        <ele>868</ele>
        <time>2015-10-18T04:21:18Z</time>
      </trkpt>
      <trkpt lat="44.15418" lon="3.24794">
        <ele>866</ele>
        <time>2015-10-18T04:23:18Z</time>
      </trkpt>
      <trkpt lat="44.15408" lon="3.24792">
        <ele>865</ele>
        <time>2015-10-18T04:25:18Z</time>
      </trkpt>
      <trkpt lat="44.15395" lon="3.2479">
        <ele>864</ele>
        <time>2015-10-18T04:27:18Z</time>
      </trkpt>
      <trkpt lat="44.15384" lon="3.24788">
        <ele>863</ele>
        <time>2015-10-18T04:29:18Z</time>
      </trkpt>
      <trkpt lat="44.15376" lon="3.24786">
        <ele>862</ele>
        <time>2015-10-18T04:31:18Z</time>
      </trkpt>
      <trkpt lat="44.15367" lon="3.24786">
        <ele>862</ele>
        <time>2015-10-18T04:33:18Z</time>
      </trkpt>
      <trkpt lat="44.15355" lon="3.24772">
        <ele>859</ele>
        <time>2015-10-18T04:35:18Z</time>
      </trkpt>
      <trkpt lat="44.15346" lon="3.2476">
        <ele>857</ele>
        <time>2015-10-18T04:37:18Z</time>
      </trkpt>
      <trkpt lat="44.15346" lon="3.24747">
        <ele>855</ele>
        <time>2015-10-18T04:39:18Z</time>
      </trkpt>
      <trkpt lat="44.15344" lon="3.24742">
        <ele>855</ele>
        <time>2015-10-18T04:41:18Z</time>
      </trkpt>
      <trkpt lat="44.15346" lon="3.24731">
        <ele>854</ele>
        <time>2015-10-18T04:43:18Z</time>
      </trkpt>
      <trkpt lat="44.1535" lon="3.24725">
        <ele>854</ele>
        <time>2015-10-18T04:45:18Z</time>
      </trkpt>
      <trkpt lat="44.15362" lon="3.24711">
        <ele>855</ele>
        <time>2015-10-18T04:47:18Z</time>
      </trkpt>
      <trkpt lat="44.15366" lon="3.24708">
        <ele>856</ele>
        <time>2015-10-18T04:49:18Z</time>
      </trkpt>
      <trkpt lat="44.15369" lon="3.24706">
        <ele>856</ele>
        <time>2015-10-18T04:51:18Z</time>
      </trkpt>
      <trkpt lat="44.15356" lon="3.24693">
        <ele>853</ele>
        <time>2015-10-18T04:53:18Z</time>
      </trkpt>
      <trkpt lat="44.15349" lon="3.24691">
        <ele>852</ele>
        <time>2015-10-18T04:55:18Z</time>
      </trkpt>
      <trkpt lat="44.15345" lon="3.2469">
        <ele>852</ele>
        <time>2015-10-18T04:57:18Z</time>
      </trkpt>
      <trkpt lat="44.15337" lon="3.24695">
        <ele>851</ele>
        <time>2015-10-18T04:59:18Z</time>
      </trkpt>
      <trkpt lat="44.15334" lon="3.24697">
        <ele>850</ele>
        <time>2015-10-18T05:01:18Z</time>
      </trkpt>
      <trkpt lat="44.15328" lon="3.2469">
        <ele>850</ele>
        <time>2015-10-18T05:03:18Z</time>
      </trkpt>
      <trkpt lat="44.15322" lon="3.2468">
        <ele>849</ele>
        <time>2015-10-18T05:05:18Z</time>
      </trkpt>
      <trkpt lat="44.15317" lon="3.24677">
        <ele>849</ele>
        <time>2015-10-18T05:07:18Z</time>
      </trkpt>
      <trkpt lat="44.15316" lon="3.24677">
        <ele>849</ele>
        <time>2015-10-18T05:09:18Z</time>
      </trkpt>
      <trkpt lat="44.15306" lon="3.24675">
        <ele>849</ele>
        <time>2015-10-18T05:11:18Z</time>
      </trkpt>
      <trkpt lat="44.15299" lon="3.2467">
        <ele>849</ele>
        <time>2015-10-18T05:13:18Z</time>
      </trkpt>
      <trkpt lat="44.1529" lon="3.24668">
        <ele>849</ele>
        <time>2015-10-18T05:15:18Z</time>
      </trkpt>
      <trkpt lat="44.15286" lon="3.24668">
        <ele>849</ele>
        <time>2015-10-18T05:17:18Z</time>
      </trkpt>
      <trkpt lat="44.15276" lon="3.24667">
        <ele>849</ele>
        <time>2015-10-18T05:19:18Z</time>
      </trkpt>
      <trkpt lat="44.15273" lon="3.24665">
        <ele>849</ele>
        <time>2015-10-18T05:21:18Z</time>
      </trkpt>
      <trkpt lat="44.1527" lon="3.24664">
        <ele>849</ele>
        <time>2015-10-18T05:23:18Z</time>
      </trkpt>
      <trkpt lat="44.15268" lon="3.24666">
        <ele>850</ele>
        <time>2015-10-18T05:25:18Z</time>
      </trkpt>
      <trkpt lat="44.15265" lon="3.2467">
        <ele>850</ele>
        <time>2015-10-18T05:27:18Z</time>
      </trkpt>
      <trkpt lat="44.1526" lon="3.24673">
        <ele>850</ele>
        <time>2015-10-18T05:29:18Z</time>
      </trkpt>
      <trkpt lat="44.15257" lon="3.24676">
        <ele>851</ele>
        <time>2015-10-18T05:31:18Z</time>
      </trkpt>
      <trkpt lat="44.15254" lon="3.24676">
        <ele>851</ele>
        <time>2015-10-18T05:33:18Z</time>
      </trkpt>
      <trkpt lat="44.1525" lon="3.24679">
        <ele>851</ele>
        <time>2015-10-18T05:35:18Z</time>
      </trkpt>
      <trkpt lat="44.15243" lon="3.24679">
        <ele>851</ele>
        <time>2015-10-18T05:37:18Z</time>
      </trkpt>
      <trkpt lat="44.15234" lon="3.24673">
        <ele>851</ele>
        <time>2015-10-18T05:39:18Z</time>
      </trkpt>
      <trkpt lat="44.15226" lon="3.24674">
        <ele>851</ele>
        <time>2015-10-18T05:41:18Z</time>
      </trkpt>
      <trkpt lat="44.1522" lon="3.24675">
        <ele>852</ele>
        <time>2015-10-18T05:43:18Z</time>
      </trkpt>
      <trkpt lat="44.15217" lon="3.24678">
        <ele>852</ele>
        <time>2015-10-18T05:45:18Z</time>
      </trkpt>
      <trkpt lat="44.15216" lon="3.2469">
        <ele>853</ele>
        <time>2015-10-18T05:47:18Z</time>
      </trkpt>
      <trkpt lat="44.15215" lon="3.24699">
        <ele>854</ele>
        <time>2015-10-18T05:49:18Z</time>
      </trkpt>
      <trkpt lat="44.15215" lon="3.2471">
        <ele>855</ele>
        <time>2015-10-18T05:51:18Z</time>
      </trkpt>
      <trkpt lat="44.15212" lon="3.24724">
        <ele>857</ele>
        <time>2015-10-18T05:53:18Z</time>
      </trkpt>
      <trkpt lat="44.15209" lon="3.24733">
        <ele>858</ele>
        <time>2015-10-18T05:55:18Z</time>
      </trkpt>
      <trkpt lat="44.15209" lon="3.24746">
        <ele>860</ele>
        <time>2015-10-18T05:57:18Z</time>
      </trkpt>
      <trkpt lat="44.15211" lon="3.24752">
        <ele>860</ele>
        <time>2015-10-18T05:59:18Z</time>
      </trkpt>
      <trkpt lat="44.15218" lon="3.2476">
        <ele>860</ele>
        <time>2015-10-18T06:01:18Z</time>
      </trkpt>
      <trkpt lat="44.15219" lon="3.24769">
        <ele>861</ele>
        <time>2015-10-18T06:03:18Z</time>
      </trkpt>
      <trkpt lat="44.1522" lon="3.24782">
        <ele>863</ele>
        <time>2015-10-18T06:05:18Z</time>
      </trkpt>
      <trkpt lat="44.15216" lon="3.24793">
        <ele>864</ele>
        <time>2015-10-18T06:07:18Z</time>
      </trkpt>
      <trkpt lat="44.15212" lon="3.24801">
        <ele>865</ele>
        <time>2015-10-18T06:09:18Z</time>
      </trkpt>
      <trkpt lat="44.15205" lon="3.24807">
        <ele>866</ele>
        <time>2015-10-18T06:11:18Z</time>
      </trkpt>
      <trkpt lat="44.15198" lon="3.24814">
        <ele>867</ele>
        <time>2015-10-18T06:13:18Z</time>
      </trkpt>
      <trkpt lat="44.15195" lon="3.24828">
        <ele>868</ele>
        <time>2015-10-18T06:15:18Z</time>
      </trkpt>
      <trkpt lat="44.15197" lon="3.24838">
        <ele>869</ele>
        <time>2015-10-18T06:17:18Z</time>
      </trkpt>
      <trkpt lat="44.15197" lon="3.2484">
        <ele>869</ele>
        <time>2015-10-18T06:19:18Z</time>
      </trkpt>
      <trkpt lat="44.15196" lon="3.24851">
        <ele>870</ele>
        <time>2015-10-18T06:21:18Z</time>
      </trkpt>
      <trkpt lat="44.15193" lon="3.24857">
        <ele>870</ele>
        <time>2015-10-18T06:23:18Z</time>
      </trkpt>
      <trkpt lat="44.15192" lon="3.24874">
        <ele>871</ele>
        <time>2015-10-18T06:25:18Z</time>
      </trkpt>
      <trkpt lat="44.15191" lon="3.24876">
        <ele>871</ele>
        <time>2015-10-18T06:27:18Z</time>
      </trkpt>
      <trkpt lat="44.15189" lon="3.24889">
        <ele>872</ele>
        <time>2015-10-18T06:29:18Z</time>
      </trkpt>
      <trkpt lat="44.1519" lon="3.24905">
        <ele>872</ele>
        <time>2015-10-18T06:31:18Z</time>
      </trkpt>
      <trkpt lat="44.15191" lon="3.24909">
        <ele>873</ele>
        <time>2015-10-18T06:33:18Z</time>
      </trkpt>
      <trkpt lat="44.15189" lon="3.24917">
        <ele>873</ele>
        <time>2015-10-18T06:35:18Z</time>
      </trkpt>
      <trkpt lat="44.15186" lon="3.2493">
        <ele>874</ele>
        <time>2015-10-18T06:37:18Z</time>
      </trkpt>
      <trkpt lat="44.1518" lon="3.24941">
        <ele>874</ele>
        <time>2015-10-18T06:39:18Z</time>
      </trkpt>
      <trkpt lat="44.15176" lon="3.24951">
        <ele>874</ele>
        <time>2015-10-18T06:41:18Z</time>
      </trkpt>
      <trkpt lat="44.15173" lon="3.24961">
        <ele>875</ele>
        <time>2015-10-18T06:43:18Z</time>
      </trkpt>
      <trkpt lat="44.15174" lon="3.24976">
        <ele>875</ele>
        <time>2015-10-18T06:45:18Z</time>
      </trkpt>
      <trkpt lat="44.15171" lon="3.24988">
        <ele>876</ele>
        <time>2015-10-18T06:47:18Z</time>
      </trkpt>
      <trkpt lat="44.15169" lon="3.25">
        <ele>876</ele>
        <time>2015-10-18T06:49:18Z</time>
      </trkpt>
      <trkpt lat="44.15171" lon="3.25011">
        <ele>876</ele>
        <time>2015-10-18T06:51:18Z</time>
      </trkpt>
      <trkpt lat="44.15171" lon="3.25021">
        <ele>877</ele>
        <time>2015-10-18T06:53:18Z</time>
      </trkpt>
      <trkpt lat="44.1517" lon="3.25026">
        <ele>877</ele>
        <time>2015-10-18T06:55:18Z</time>
      </trkpt>
      <trkpt lat="44.15162" lon="3.2503">
        <ele>877</ele>
        <time>2015-10-18T06:57:18Z</time>
      </trkpt>
      <trkpt lat="44.15153" lon="3.25034">
        <ele>876</ele>
        <time>2015-10-18T06:59:18Z</time>
      </trkpt>
      <trkpt lat="44.15152" lon="3.25036">
        <ele>876</ele>
        <time>2015-10-18T07:01:18Z</time>
      </trkpt>
      <trkpt lat="44.1514" lon="3.25044">
        <ele>876</ele>
        <time>2015-10-18T07:03:18Z</time>
      </trkpt>
      <trkpt lat="44.15132" lon="3.25044">
        <ele>876</ele>
        <time>2015-10-18T07:05:18Z</time>
      </trkpt>
      <trkpt lat="44.15129" lon="3.25043">
        <ele>876</ele>
        <time>2015-10-18T07:07:18Z</time>
      </trkpt>
      <trkpt lat="44.15119" lon="3.25041">
        <ele>875</ele>
        <time>2015-10-18T07:09:18Z</time>
      </trkpt>
      <trkpt lat="44.15104" lon="3.25043">
        <ele>875</ele>
        <time>2015-10-18T07:11:18Z</time>
      </trkpt>
      <trkpt lat="44.15094" lon="3.25047">
        <ele>875</ele>
        <time>2015-10-18T07:13:18Z</time>
      </trkpt>
      <trkpt lat="44.15081" lon="3.2505">
        <ele>874</ele>
        <time>2015-10-18T07:15:18Z</time>
      </trkpt>
      <trkpt lat="44.15067" lon="3.25054">
        <ele>874</ele>
        <time>2015-10-18T07:17:18Z</time>
      </trkpt>
      <trkpt lat="44.15055" lon="3.25064">
        <ele>874</ele>
        <time>2015-10-18T07:19:18Z</time>
      </trkpt>
      <trkpt lat="44.15043" lon="3.25081">
        <ele>874</ele>
        <time>2015-10-18T07:21:18Z</time>
      </trkpt>
      <trkpt lat="44.15037" lon="3.25097">
        <ele>874</ele>
        <time>2015-10-18T07:23:18Z</time>
      </trkpt>
      <trkpt lat="44.15035" lon="3.25113">
        <ele>874</ele>
        <time>2015-10-18T07:25:18Z</time>
      </trkpt>
      <trkpt lat="44.15035" lon="3.2513">
        <ele>874</ele>
        <time>2015-10-18T07:27:18Z</time>
      </trkpt>
      <trkpt lat="44.15037" lon="3.25146">
        <ele>874</ele>
        <time>2015-10-18T07:29:18Z</time>
      </trkpt>
      <trkpt lat="44.15039" lon="3.25165">
        <ele>873</ele>
        <time>2015-10-18T07:31:18Z</time>
      </trkpt>
      <trkpt lat="44.15038" lon="3.25184">
        <ele>873</ele>
        <time>2015-10-18T07:33:18Z</time>
      </trkpt>
      <trkpt lat="44.15041" lon="3.25199">
        <ele>873</ele>
        <time>2015-10-18T07:35:18Z</time>
      </trkpt>
      <trkpt lat="44.15047" lon="3.25217">
        <ele>872</ele>
        <time>2015-10-18T07:37:18Z</time>
      </trkpt>
      <trkpt lat="44.15051" lon="3.25237">
        <ele>872</ele>
        <time>2015-10-18T07:39:18Z</time>
      </trkpt>
      <trkpt lat="44.15054" lon="3.25257">
        <ele>871</ele>
        <time>2015-10-18T07:41:18Z</time>
      </trkpt>
      <trkpt lat="44.15059" lon="3.25275">
        <ele>871</ele>
        <time>2015-10-18T07:43:18Z</time>
      </trkpt>
      <trkpt lat="44.15064" lon="3.25295">
        <ele>870</ele>
        <time>2015-10-18T07:45:18Z</time>
      </trkpt>
      <trkpt lat="44.15067" lon="3.25313">
        <ele>870</ele>
        <time>2015-10-18T07:47:18Z</time>
      </trkpt>
      <trkpt lat="44.15069" lon="3.25332">
        <ele>869</ele>
        <time>2015-10-18T07:49:18Z</time>
      </trkpt>
      <trkpt lat="44.15075" lon="3.25361">
        <ele>870</ele>
        <time>2015-10-18T07:51:18Z</time>
      </trkpt>
      <trkpt lat="44.15079" lon="3.25377">
        <ele>870</ele>
        <time>2015-10-18T07:53:18Z</time>
      </trkpt>
      <trkpt lat="44.15086" lon="3.25394">
        <ele>871</ele>
        <time>2015-10-18T07:55:18Z</time>
      </trkpt>
      <trkpt lat="44.15093" lon="3.25409">
        <ele>871</ele>
        <time>2015-10-18T07:57:18Z</time>
      </trkpt>
      <trkpt lat="44.151" lon="3.25422">
        <ele>871</ele>
        <time>2015-10-18T07:59:18Z</time>
      </trkpt>
      <trkpt lat="44.15106" lon="3.25436">
        <ele>871</ele>
        <time>2015-10-18T08:01:18Z</time>
      </trkpt>
      <trkpt lat="44.1511" lon="3.25455">
        <ele>871</ele>
        <time>2015-10-18T08:03:18Z</time>
      </trkpt>
      <trkpt lat="44.15116" lon="3.25472">
        <ele>870</ele>
        <time>2015-10-18T08:05:18Z</time>
      </trkpt>
      <trkpt lat="44.15127" lon="3.25488">
        <ele>870</ele>
        <time>2015-10-18T08:07:18Z</time>
      </trkpt>
      <trkpt lat="44.15139" lon="3.25501">
        <ele>871</ele>
        <time>2015-10-18T08:09:18Z</time>
      </trkpt>
      <trkpt lat="44.15149" lon="3.25512">
        <ele>871</ele>
        <time>2015-10-18T08:11:18Z</time>
      </trkpt>
      <trkpt lat="44.15157" lon="3.25528">
        <ele>871</ele>
        <time>2015-10-18T08:13:18Z</time>
      </trkpt>
      <trkpt lat="44.15161" lon="3.25546">
        <ele>871</ele>
        <time>2015-10-18T08:15:18Z</time>
      </trkpt>
      <trkpt lat="44.15179" lon="3.25585">
        <ele>871</ele>
        <time>2015-10-18T08:17:18Z</time>
      </trkpt>
      <trkpt lat="44.15183" lon="3.25604">
        <ele>870</ele>
        <time>2015-10-18T08:19:18Z</time>
      </trkpt>
      <trkpt lat="44.1518" lon="3.25623">
        <ele>869</ele>
        <time>2015-10-18T08:21:18Z</time>
      </trkpt>
      <trkpt lat="44.15178" lon="3.2564">
        <ele>868</ele>
        <time>2015-10-18T08:23:18Z</time>
      </trkpt>
      <trkpt lat="44.15174" lon="3.25662">
        <ele>867</ele>
        <time>2015-10-18T08:25:18Z</time>
      </trkpt>
      <trkpt lat="44.15171" lon="3.25679">
        <ele>866</ele>
        <time>2015-10-18T08:27:18Z</time>
      </trkpt>
      <trkpt lat="44.15174" lon="3.25695">
        <ele>867</ele>
        <time>2015-10-18T08:29:18Z</time>
      </trkpt>
      <trkpt lat="44.1518" lon="3.25704">
        <ele>867</ele>
        <time>2015-10-18T08:31:18Z</time>
      </trkpt>
      <trkpt lat="44.15182" lon="3.25706">
        <ele>867</ele>
        <time>2015-10-18T08:33:18Z</time>
      </trkpt>
      <trkpt lat="44.1518" lon="3.25722">
        <ele>867</ele>
        <time>2015-10-18T08:35:18Z</time>
      </trkpt>
      <trkpt lat="44.15178" lon="3.25739">
        <ele>867</ele>
        <time>2015-10-18T08:37:18Z</time>
      </trkpt>
      <trkpt lat="44.15175" lon="3.25752">
        <ele>867</ele>
        <time>2015-10-18T08:39:18Z</time>
      </trkpt>
      <trkpt lat="44.15174" lon="3.2577">
        <ele>867</ele>
        <time>2015-10-18T08:41:18Z</time>
      </trkpt>
      <trkpt lat="44.15174" lon="3.25786">
        <ele>867</ele>
        <time>2015-10-18T08:43:18Z</time>
      </trkpt>
      <trkpt lat="44.1518" lon="3.25801">
        <ele>867</ele>
        <time>2015-10-18T08:45:18Z</time>
      </trkpt>
      <trkpt lat="44.15187" lon="3.25814">
        <ele>868</ele>
        <time>2015-10-18T08:47:18Z</time>
      </trkpt>
      <trkpt lat="44.15194" lon="3.25832">
        <ele>868</ele>
        <time>2015-10-18T08:49:18Z</time>
      </trkpt>
      <trkpt lat="44.15202" lon="3.25844">
        <ele>868</ele>
        <time>2015-10-18T08:51:18Z</time>
      </trkpt>
      <trkpt lat="44.15213" lon="3.25853">
        <ele>868</ele>
        <time>2015-10-18T08:53:18Z</time>
      </trkpt>
      <trkpt lat="44.15225" lon="3.25866">
        <ele>867</ele>
        <time>2015-10-18T08:55:18Z</time>
      </trkpt>
      <trkpt lat="44.15234" lon="3.25872">
        <ele>867</ele>
        <time>2015-10-18T08:57:18Z</time>
      </trkpt>
      <trkpt lat="44.15249" lon="3.2588">
        <ele>868</ele>
        <time>2015-10-18T08:59:18Z</time>
      </trkpt>
      <trkpt lat="44.15259" lon="3.25882">
        <ele>868</ele>
        <time>2015-10-18T09:01:18Z</time>
      </trkpt>
      <trkpt lat="44.15272" lon="3.2589">
        <ele>868</ele>
        <time>2015-10-18T09:03:18Z</time>
      </trkpt>
      <trkpt lat="44.15277" lon="3.25898">
        <ele>867</ele>
        <time>2015-10-18T09:05:18Z</time>
      </trkpt>
      <trkpt lat="44.15277" lon="3.25909">
        <ele>867</ele>
        <time>2015-10-18T09:07:18Z</time>
      </trkpt>
      <trkpt lat="44.15265" lon="3.25909">
        <ele>867</ele>
        <time>2015-10-18T09:09:18Z</time>
      </trkpt>
      <trkpt lat="44.15266" lon="3.25898">
        <ele>867</ele>
        <time>2015-10-18T09:11:18Z</time>
      </trkpt>
      <trkpt lat="44.15262" lon="3.25894">
        <ele>867</ele>
        <time>2015-10-18T09:13:18Z</time>
      </trkpt>
      <trkpt lat="44.1526" lon="3.25893">
        <ele>867</ele>
        <time>2015-10-18T09:15:18Z</time>
      </trkpt>
      <trkpt lat="44.15249" lon="3.25886">
        <ele>867</ele>
        <time>2015-10-18T09:17:18Z</time>
      </trkpt>
      <trkpt lat="44.15242" lon="3.25885">
        <ele>867</ele>
        <time>2015-10-18T09:19:18Z</time>
      </trkpt>
      <trkpt lat="44.15228" lon="3.25876">
        <ele>867</ele>
        <time>2015-10-18T09:21:18Z</time>
      </trkpt>
      <trkpt lat="44.15221" lon="3.2587">
        <ele>867</ele>
        <time>2015-10-18T09:23:18Z</time>
      </trkpt>
      <trkpt lat="44.15213" lon="3.25864">
        <ele>867</ele>
        <time>2015-10-18T09:25:18Z</time>
      </trkpt>
      <trkpt lat="44.15202" lon="3.25852">
        <ele>867</ele>
        <time>2015-10-18T09:27:18Z</time>
      </trkpt>
      <trkpt lat="44.15195" lon="3.25842">
        <ele>868</ele>
        <time>2015-10-18T09:29:18Z</time>
      </trkpt>
      <trkpt lat="44.15189" lon="3.25831">
        <ele>868</ele>
        <time>2015-10-18T09:31:18Z</time>
      </trkpt>
      <trkpt lat="44.15183" lon="3.2582">
        <ele>868</ele>
        <time>2015-10-18T09:33:18Z</time>
      </trkpt>
      <trkpt lat="44.15175" lon="3.25803">
        <ele>867</ele>
        <time>2015-10-18T09:35:18Z</time>
      </trkpt>
      <trkpt lat="44.15172" lon="3.25795">
        <ele>867</ele>
        <time>2015-10-18T09:37:18Z</time>
      </trkpt>
      <trkpt lat="44.15166" lon="3.25791">
        <ele>866</ele>
        <time>2015-10-18T09:39:18Z</time>
      </trkpt>
      <trkpt lat="44.15156" lon="3.2579">
        <ele>865</ele>
        <time>2015-10-18T09:41:18Z</time>
      </trkpt>
      <trkpt lat="44.15145" lon="3.25788">
        <ele>864</ele>
        <time>2015-10-18T09:43:18Z</time>
      </trkpt>
      <trkpt lat="44.15144" lon="3.25787">
        <ele>864</ele>
        <time>2015-10-18T09:45:18Z</time>
      </trkpt>
      <trkpt lat="44.15143" lon="3.25774">
        <ele>864</ele>
        <time>2015-10-18T09:47:18Z</time>
      </trkpt>
      <trkpt lat="44.15144" lon="3.25758">
        <ele>864</ele>
        <time>2015-10-18T09:49:18Z</time>
      </trkpt>
      <trkpt lat="44.15142" lon="3.25744">
        <ele>864</ele>
        <time>2015-10-18T09:51:18Z</time>
      </trkpt>
      <trkpt lat="44.15138" lon="3.25728">
        <ele>863</ele>
        <time>2015-10-18T09:53:18Z</time>
      </trkpt>
      <trkpt lat="44.15131" lon="3.25711">
        <ele>863</ele>
        <time>2015-10-18T09:55:18Z</time>
      </trkpt>
      <trkpt lat="44.15125" lon="3.25693">
        <ele>863</ele>
        <time>2015-10-18T09:57:18Z</time>
      </trkpt>
      <trkpt lat="44.15127" lon="3.25679">
        <ele>863</ele>
        <time>2015-10-18T09:59:18Z</time>
      </trkpt>
      <trkpt lat="44.1512" lon="3.25669">
        <ele>863</ele>
        <time>2015-10-18T10:01:18Z</time>
      </trkpt>
      <trkpt lat="44.15114" lon="3.25666">
        <ele>862</ele>
        <time>2015-10-18T10:03:18Z</time>
      </trkpt>
      <trkpt lat="44.15102" lon="3.2566">
        <ele>862</ele>
        <time>2015-10-18T10:05:18Z</time>
      </trkpt>
      <trkpt lat="44.1509" lon="3.25656">
        <ele>861</ele>
        <time>2015-10-18T10:07:18Z</time>
      </trkpt>
      <trkpt lat="44.15078" lon="3.25654">
        <ele>860</ele>
        <time>2015-10-18T10:09:18Z</time>
      </trkpt>
      <trkpt lat="44.15065" lon="3.25652">
        <ele>859</ele>
        <time>2015-10-18T10:11:18Z</time>
      </trkpt>
      <trkpt lat="44.15055" lon="3.25651">
        <ele>858</ele>
        <time>2015-10-18T10:13:18Z</time>
      </trkpt>
      <trkpt lat="44.15047" lon="3.25648">
        <ele>858</ele>
        <time>2015-10-18T10:15:18Z</time>
      </trkpt>
      <trkpt lat="44.15036" lon="3.25642">
        <ele>857</ele>
        <time>2015-10-18T10:17:18Z</time>
      </trkpt>
      <trkpt lat="44.15021" lon="3.25635">
        <ele>856</ele>
        <time>2015-10-18T10:19:18Z</time>
      </trkpt>
      <trkpt lat="44.15008" lon="3.25628">
        <ele>855</ele>
        <time>2015-10-18T10:21:18Z</time>
      </trkpt>
      <trkpt lat="44.14999" lon="3.2562">
        <ele>855</ele>
        <time>2015-10-18T10:23:18Z</time>
      </trkpt>
      <trkpt lat="44.14989" lon="3.25615">
        <ele>854</ele>
        <time>2015-10-18T10:25:18Z</time>
      </trkpt>
      <trkpt lat="44.14977" lon="3.25609">
        <ele>853</ele>
        <time>2015-10-18T10:27:18Z</time>
      </trkpt>
      <trkpt lat="44.14967" lon="3.25605">
        <ele>853</ele>
        <time>2015-10-18T10:29:18Z</time>
      </trkpt>
      <trkpt lat="44.14958" lon="3.25596">
        <ele>852</ele>
        <time>2015-10-18T10:31:18Z</time>
      </trkpt>
      <trkpt lat="44.14949" lon="3.25585">
        <ele>852</ele>
        <time>2015-10-18T10:33:18Z</time>
      </trkpt>
      <trkpt lat="44.14941" lon="3.25574">
        <ele>852</ele>
        <time>2015-10-18T10:35:18Z</time>
      </trkpt>
      <trkpt lat="44.14931" lon="3.25565">
        <ele>851</ele>
        <time>2015-10-18T10:37:18Z</time>
      </trkpt>
      <trkpt lat="44.14923" lon="3.25558">
        <ele>851</ele>
        <time>2015-10-18T10:39:18Z</time>
      </trkpt>
      <trkpt lat="44.14914" lon="3.25547">
        <ele>851</ele>
        <time>2015-10-18T10:41:18Z</time>
      </trkpt>
      <trkpt lat="44.14907" lon="3.25536">
        <ele>852</ele>
        <time>2015-10-18T10:43:18Z</time>
      </trkpt>
      <trkpt lat="44.14898" lon="3.25516">
        <ele>852</ele>
        <time>2015-10-18T10:45:18Z</time>
      </trkpt>
      <trkpt lat="44.14886" lon="3.25491">
        <ele>853</ele>
        <time>2015-10-18T10:47:18Z</time>
      </trkpt>
      <trkpt lat="44.14878" lon="3.2548">
        <ele>852</ele>
        <time>2015-10-18T10:49:18Z</time>
      </trkpt>
      <trkpt lat="44.1487" lon="3.25471">
        <ele>852</ele>
        <time>2015-10-18T10:51:18Z</time>
      </trkpt>
      <trkpt lat="44.14863" lon="3.25465">
        <ele>852</ele>
        <time>2015-10-18T10:53:18Z</time>
      </trkpt>
      <trkpt lat="44.1486" lon="3.25463">
        <ele>852</ele>
        <time>2015-10-18T10:55:18Z</time>
      </trkpt>
      <trkpt lat="44.14854" lon="3.25466">
        <ele>851</ele>
        <time>2015-10-18T10:57:18Z</time>
      </trkpt>
      <trkpt lat="44.14854" lon="3.25472">
        <ele>851</ele>
        <time>2015-10-18T10:59:18Z</time>
      </trkpt>
      <trkpt lat="44.14844" lon="3.25482">
        <ele>849</ele>
        <time>2015-10-18T11:01:18Z</time>
      </trkpt>
      <trkpt lat="44.14834" lon="3.25485">
        <ele>848</ele>
        <time>2015-10-18T11:03:18Z</time>
      </trkpt>
      <trkpt lat="44.14822" lon="3.25493">
        <ele>846</ele>
        <time>2015-10-18T11:05:18Z</time>
      </trkpt>
      <trkpt lat="44.14808" lon="3.25496">
        <ele>845</ele>
        <time>2015-10-18T11:07:18Z</time>
      </trkpt>
      <trkpt lat="44.14795" lon="3.25486">
        <ele>844</ele>
        <time>2015-10-18T11:09:18Z</time>
      </trkpt>
      <trkpt lat="44.14771" lon="3.25461">
        <ele>844</ele>
        <time>2015-10-18T11:11:18Z</time>
      </trkpt>
      <trkpt lat="44.14768" lon="3.25459">
        <ele>844</ele>
        <time>2015-10-18T11:13:18Z</time>
      </trkpt>
      <trkpt lat="44.14758" lon="3.25453">
        <ele>843</ele>
        <time>2015-10-18T11:15:18Z</time>
      </trkpt>
      <trkpt lat="44.14748" lon="3.25451">
        <ele>843</ele>
        <time>2015-10-18T11:17:18Z</time>
      </trkpt>
      <trkpt lat="44.14737" lon="3.25451">
        <ele>842</ele>
        <time>2015-10-18T11:19:18Z</time>
      </trkpt>
      <trkpt lat="44.14708" lon="3.25453">
        <ele>840</ele>
        <time>2015-10-18T11:21:18Z</time>
      </trkpt>
      <trkpt lat="44.14696" lon="3.25459">
        <ele>838</ele>
        <time>2015-10-18T11:23:18Z</time>
      </trkpt>
      <trkpt lat="44.14683" lon="3.25464">
        <ele>837</ele>
        <time>2015-10-18T11:25:18Z</time>
      </trkpt>
      <trkpt lat="44.14673" lon="3.25464">
        <ele>837</ele>
        <time>2015-10-18T11:27:18Z</time>
      </trkpt>
      <trkpt lat="44.14664" lon="3.25463">
        <ele>836</ele>
        <time>2015-10-18T11:29:18Z</time>
      </trkpt>
      <trkpt lat="44.14651" lon="3.25459">
        <ele>835</ele>
        <time>2015-10-18T11:31:18Z</time>
      </trkpt>
      <trkpt lat="44.14632" lon="3.25455">
        <ele>834</ele>
        <time>2015-10-18T11:33:18Z</time>
      </trkpt>
      <trkpt lat="44.14616" lon="3.25455">
        <ele>832</ele>
        <time>2015-10-18T11:35:18Z</time>
      </trkpt>
      <trkpt lat="44.14602" lon="3.25457">
        <ele>831</ele>
        <time>2015-10-18T11:37:18Z</time>
      </trkpt>
      <trkpt lat="44.14592" lon="3.25456">
        <ele>830</ele>
        <time>2015-10-18T11:39:18Z</time>
      </trkpt>
      <trkpt lat="44.14572" lon="3.25452">
        <ele>829</ele>
        <time>2015-10-18T11:41:18Z</time>
      </trkpt>
      <trkpt lat="44.14557" lon="3.25448">
        <ele>828</ele>
        <time>2015-10-18T11:43:18Z</time>
      </trkpt>
      <trkpt lat="44.14545" lon="3.25448">
        <ele>827</ele>
        <time>2015-10-18T11:45:18Z</time>
      </trkpt>
      <trkpt lat="44.14532" lon="3.25453">
        <ele>826</ele>
        <time>2015-10-18T11:47:18Z</time>
      </trkpt>
      <trkpt lat="44.1452" lon="3.25449">
        <ele>825</ele>
        <time>2015-10-18T11:49:18Z</time>
      </trkpt>
      <trkpt lat="44.14516" lon="3.25446">
        <ele>825</ele>
        <time>2015-10-18T11:51:18Z</time>
      </trkpt>
      <trkpt lat="44.14502" lon="3.25437">
        <ele>825</ele>
        <time>2015-10-18T11:53:18Z</time>
      </trkpt>
      <trkpt lat="44.145" lon="3.25436">
        <ele>825</ele>
        <time>2015-10-18T11:55:18Z</time>
      </trkpt>
      <trkpt lat="44.14487" lon="3.2542">
        <ele>826</ele>
        <time>2015-10-18T11:57:18Z</time>
      </trkpt>
      <trkpt lat="44.14478" lon="3.25408">
        <ele>827</ele>
        <time>2015-10-18T11:59:18Z</time>
      </trkpt>
      <trkpt lat="44.14474" lon="3.25405">
        <ele>827</ele>
        <time>2015-10-18T12:01:18Z</time>
      </trkpt>
      <trkpt lat="44.14459" lon="3.25403">
        <ele>827</ele>
        <time>2015-10-18T12:03:18Z</time>
      </trkpt>
      <trkpt lat="44.14453" lon="3.25402">
        <ele>827</ele>
        <time>2015-10-18T12:05:18Z</time>
      </trkpt>
      <trkpt lat="44.14437" lon="3.25402">
        <ele>827</ele>
        <time>2015-10-18T12:07:18Z</time>
      </trkpt>
      <trkpt lat="44.14414" lon="3.25401">
        <ele>826</ele>
        <time>2015-10-18T12:09:18Z</time>
      </trkpt>
      <trkpt lat="44.14404" lon="3.254">
        <ele>826</ele>
        <time>2015-10-18T12:11:18Z</time>
      </trkpt>
      <trkpt lat="44.14392" lon="3.25401">
        <ele>826</ele>
        <time>2015-10-18T12:13:18Z</time>
      </trkpt>
      <trkpt lat="44.14379" lon="3.25403">
        <ele>825</ele>
        <time>2015-10-18T12:15:18Z</time>
      </trkpt>
      <trkpt lat="44.14369" lon="3.25402">
        <ele>825</ele>
        <time>2015-10-18T12:17:18Z</time>
      </trkpt>
      <trkpt lat="44.14357" lon="3.25396">
        <ele>825</ele>
        <time>2015-10-18T12:19:18Z</time>
      </trkpt>
      <trkpt lat="44.14344" lon="3.25385">
        <ele>825</ele>
        <time>2015-10-18T12:21:18Z</time>
      </trkpt>
      <trkpt lat="44.14334" lon="3.25377">
        <ele>825</ele>
        <time>2015-10-18T12:23:18Z</time>
      </trkpt>
      <trkpt lat="44.14322" lon="3.25371">
        <ele>824</ele>
        <time>2015-10-18T12:25:18Z</time>
      </trkpt>
      <trkpt lat="44.14311" lon="3.25367">
        <ele>823</ele>
        <time>2015-10-18T12:27:18Z</time>
      </trkpt>
      <trkpt lat="44.14301" lon="3.25365">
        <ele>822</ele>
        <time>2015-10-18T12:29:18Z</time>
      </trkpt>
      <trkpt lat="44.1429" lon="3.25362">
        <ele>821</ele>
        <time>2015-10-18T12:31:18Z</time>
      </trkpt>
      <trkpt lat="44.14281" lon="3.25363">
        <ele>820</ele>
        <time>2015-10-18T12:33:18Z</time>
      </trkpt>
      <trkpt lat="44.14269" lon="3.25364">
        <ele>819</ele>
        <time>2015-10-18T12:35:18Z</time>
      </trkpt>
      <trkpt lat="44.14258" lon="3.25363">
        <ele>818</ele>
        <time>2015-10-18T12:37:18Z</time>
      </trkpt>
      <trkpt lat="44.14244" lon="3.25357">
        <ele>816</ele>
        <time>2015-10-18T12:39:18Z</time>
      </trkpt>
      <trkpt lat="44.14235" lon="3.25353">
        <ele>815</ele>
        <time>2015-10-18T12:41:18Z</time>
      </trkpt>
      <trkpt lat="44.14227" lon="3.25351">
        <ele>814</ele>
        <time>2015-10-18T12:43:18Z</time>
      </trkpt>
      <trkpt lat="44.1421" lon="3.25346">
        <ele>812</ele>
        <time>2015-10-18T12:45:18Z</time>
      </trkpt>
      <trkpt lat="44.14196" lon="3.25339">
        <ele>811</ele>
        <time>2015-10-18T12:47:18Z</time>
      </trkpt>
      <trkpt lat="44.14182" lon="3.25332">
        <ele>809</ele>
        <time>2015-10-18T12:49:18Z</time>
      </trkpt>
      <trkpt lat="44.14166" lon="3.25325">
        <ele>808</ele>
        <time>2015-10-18T12:51:18Z</time>
      </trkpt>
      <trkpt lat="44.1415" lon="3.25316">
        <ele>807</ele>
        <time>2015-10-18T12:53:18Z</time>
      </trkpt>
      <trkpt lat="44.14134" lon="3.25311">
        <ele>806</ele>
        <time>2015-10-18T12:55:18Z</time>
      </trkpt>
      <trkpt lat="44.14119" lon="3.25308">
        <ele>805</ele>
        <time>2015-10-18T12:57:18Z</time>
      </trkpt>
      <trkpt lat="44.14105" lon="3.25307">
        <ele>804</ele>
        <time>2015-10-18T12:59:18Z</time>
      </trkpt>
      <trkpt lat="44.1409" lon="3.25305">
        <ele>802</ele>
        <time>2015-10-18T13:01:18Z</time>
      </trkpt>
      <trkpt lat="44.14076" lon="3.25303">
        <ele>802</ele>
        <time>2015-10-18T13:03:18Z</time>
      </trkpt>
      <trkpt lat="44.14063" lon="3.25299">
        <ele>801</ele>
        <time>2015-10-18T13:05:18Z</time>
      </trkpt>
      <trkpt lat="44.14056" lon="3.253">
        <ele>801</ele>
        <time>2015-10-18T13:07:18Z</time>
      </trkpt>
      <trkpt lat="44.14041" lon="3.25295">
        <ele>801</ele>
        <time>2015-10-18T13:09:18Z</time>
      </trkpt>
      <trkpt lat="44.1403" lon="3.25292">
        <ele>801</ele>
        <time>2015-10-18T13:11:18Z</time>
      </trkpt>
      <trkpt lat="44.14015" lon="3.25289">
        <ele>800</ele>
        <time>2015-10-18T13:13:18Z</time>
      </trkpt>
      <trkpt lat="44.14003" lon="3.25289">
        <ele>799</ele>
        <time>2015-10-18T13:15:18Z</time>
      </trkpt>
      <trkpt lat="44.13992" lon="3.25288">
        <ele>799</ele>
        <time>2015-10-18T13:17:18Z</time>
      </trkpt>
      <trkpt lat="44.1398" lon="3.25289">
        <ele>798</ele>
        <time>2015-10-18T13:19:18Z</time>
      </trkpt>
      <trkpt lat="44.13964" lon="3.2529">
        <ele>797</ele>
        <time>2015-10-18T13:21:18Z</time>
      </trkpt>
      <trkpt lat="44.13953" lon="3.25292">
        <ele>796</ele>
        <time>2015-10-18T13:23:18Z</time>
      </trkpt>
      <trkpt lat="44.13923" lon="3.25298">
        <ele>793</ele>
        <time>2015-10-18T13:25:18Z</time>
      </trkpt>
      <trkpt lat="44.13909" lon="3.25301">
        <ele>792</ele>
        <time>2015-10-18T13:27:18Z</time>
      </trkpt>
      <trkpt lat="44.13896" lon="3.25306">
        <ele>791</ele>
        <time>2015-10-18T13:29:18Z</time>
      </trkpt>
      <trkpt lat="44.13884" lon="3.25308">
        <ele>791</ele>
        <time>2015-10-18T13:31:18Z</time>
      </trkpt>
      <trkpt lat="44.13871" lon="3.25313">
        <ele>790</ele>
        <time>2015-10-18T13:33:18Z</time>
      </trkpt>
      <trkpt lat="44.13858" lon="3.25318">
        <ele>790</ele>
        <time>2015-10-18T13:35:18Z</time>
      </trkpt>
      <trkpt lat="44.13845" lon="3.25324">
        <ele>789</ele>
        <time>2015-10-18T13:37:18Z</time>
      </trkpt>
      <trkpt lat="44.13834" lon="3.25327">
        <ele>789</ele>
        <time>2015-10-18T13:39:18Z</time>
      </trkpt>
      <trkpt lat="44.13821" lon="3.25332">
        <ele>788</ele>
        <time>2015-10-18T13:41:18Z</time>
      </trkpt>
      <trkpt lat="44.1381" lon="3.25334">
        <ele>787</ele>
        <time>2015-10-18T13:43:18Z</time>
      </trkpt>
      <trkpt lat="44.138" lon="3.25336">
        <ele>787</ele>
        <time>2015-10-18T13:45:18Z</time>
      </trkpt>
      <trkpt lat="44.13789" lon="3.25337">
        <ele>786</ele>
        <time>2015-10-18T13:47:18Z</time>
      </trkpt>
      <trkpt lat="44.13787" lon="3.25337">
        <ele>786</ele>
        <time>2015-10-18T13:49:18Z</time>
      </trkpt>
      <trkpt lat="44.13773" lon="3.25339">
        <ele>785</ele>
        <time>2015-10-18T13:51:18Z</time>
      </trkpt>
      <trkpt lat="44.13759" lon="3.25341">
        <ele>784</ele>
        <time>2015-10-18T13:53:18Z</time>
      </trkpt>
      <trkpt lat="44.13746" lon="3.25342">
        <ele>783</ele>
        <time>2015-10-18T13:55:18Z</time>
      </trkpt>
      <trkpt lat="44.13736" lon="3.25343">
        <ele>782</ele>
        <time>2015-10-18T13:57:18Z</time>
      </trkpt>
      <trkpt lat="44.13725" lon="3.25343">
        <ele>781</ele>
        <time>2015-10-18T13:59:18Z</time>
      </trkpt>
      <trkpt lat="44.13716" lon="3.25341">
        <ele>781</ele>
        <time>2015-10-18T14:01:18Z</time>
      </trkpt>
      <trkpt lat="44.13702" lon="3.25338">
        <ele>780</ele>
        <time>2015-10-18T14:03:18Z</time>
      </trkpt>
      <trkpt lat="44.13694" lon="3.25337">
        <ele>779</ele>
        <time>2015-10-18T14:05:18Z</time>
      </trkpt>
      <trkpt lat="44.13683" lon="3.25336">
        <ele>778</ele>
        <time>2015-10-18T14:07:18Z</time>
      </trkpt>
      <trkpt lat="44.13673" lon="3.25337">
        <ele>777</ele>
        <time>2015-10-18T14:09:18Z</time>
      </trkpt>
      <trkpt lat="44.13657" lon="3.25344">
        <ele>777</ele>
        <time>2015-10-18T14:11:18Z</time>
      </trkpt>
      <trkpt lat="44.13646" lon="3.25347">
        <ele>776</ele>
        <time>2015-10-18T14:13:18Z</time>
      </trkpt>
      <trkpt lat="44.13634" lon="3.25351">
        <ele>776</ele>
        <time>2015-10-18T14:15:18Z</time>
      </trkpt>
      <trkpt lat="44.13621" lon="3.25353">
        <ele>775</ele>
        <time>2015-10-18T14:17:18Z</time>
      </trkpt>
      <trkpt lat="44.13606" lon="3.25355">
        <ele>775</ele>
        <time>2015-10-18T14:19:18Z</time>
      </trkpt>
      <trkpt lat="44.13593" lon="3.25357">
        <ele>775</ele>
        <time>2015-10-18T14:21:18Z</time>
      </trkpt>
      <trkpt lat="44.13587" lon="3.25357">
        <ele>775</ele>
        <time>2015-10-18T14:23:18Z</time>
      </trkpt>
      <trkpt lat="44.13578" lon="3.25355">
        <ele>775</ele>
        <time>2015-10-18T14:25:18Z</time>
      </trkpt>
      <trkpt lat="44.13568" lon="3.25346">
        <ele>775</ele>
        <time>2015-10-18T14:27:18Z</time>
      </trkpt>
      <trkpt lat="44.13557" lon="3.25331">
        <ele>775</ele>
        <time>2015-10-18T14:29:18Z</time>
      </trkpt>
      <trkpt lat="44.13548" lon="3.25318">
        <ele>775</ele>
        <time>2015-10-18T14:31:18Z</time>
      </trkpt>
      <trkpt lat="44.13526" lon="3.25292">
        <ele>775</ele>
        <time>2015-10-18T14:33:18Z</time>
      </trkpt>
      <trkpt lat="44.13516" lon="3.25278">
        <ele>774</ele>
        <time>2015-10-18T14:35:18Z</time>
      </trkpt>
      <trkpt lat="44.13496" lon="3.25254">
        <ele>772</ele>
        <time>2015-10-18T14:37:18Z</time>
      </trkpt>
      <trkpt lat="44.13487" lon="3.25243">
        <ele>771</ele>
        <time>2015-10-18T14:39:18Z</time>
      </trkpt>
      <trkpt lat="44.13478" lon="3.25229">
        <ele>771</ele>
        <time>2015-10-18T14:41:18Z</time>
      </trkpt>
      <trkpt lat="44.13485" lon="3.2521">
        <ele>770</ele>
        <time>2015-10-18T14:43:18Z</time>
      </trkpt>
      <trkpt lat="44.13485" lon="3.25197">
        <ele>770</ele>
        <time>2015-10-18T14:45:18Z</time>
      </trkpt>
      <trkpt lat="44.13479" lon="3.25182">
        <ele>769</ele>
        <time>2015-10-18T14:47:18Z</time>
      </trkpt>
      <trkpt lat="44.13468" lon="3.25167">
        <ele>768</ele>
        <time>2015-10-18T14:49:18Z</time>
      </trkpt>
      <trkpt lat="44.13444" lon="3.2514">
        <ele>767</ele>
        <time>2015-10-18T14:51:18Z</time>
      </trkpt>
      <trkpt lat="44.13443" lon="3.25137">
        <ele>767</ele>
        <time>2015-10-18T14:53:18Z</time>
      </trkpt>
      <trkpt lat="44.1344" lon="3.25135">
        <ele>767</ele>
        <time>2015-10-18T14:55:18Z</time>
      </trkpt>
      <trkpt lat="44.13437" lon="3.2513">
        <ele>766</ele>
        <time>2015-10-18T14:57:18Z</time>
      </trkpt>
      <trkpt lat="44.1343" lon="3.25116">
        <ele>766</ele>
        <time>2015-10-18T14:59:18Z</time>
      </trkpt>
      <trkpt lat="44.13415" lon="3.25085">
        <ele>763</ele>
        <time>2015-10-18T15:01:18Z</time>
      </trkpt>
      <trkpt lat="44.13409" lon="3.25069">
        <ele>764</ele>
        <time>2015-10-18T15:03:18Z</time>
      </trkpt>
      <trkpt lat="44.13406" lon="3.25053">
        <ele>765</ele>
        <time>2015-10-18T15:05:18Z</time>
      </trkpt>
      <trkpt lat="44.134" lon="3.25036">
        <ele>765</ele>
        <time>2015-10-18T15:07:18Z</time>
      </trkpt>
      <trkpt lat="44.13393" lon="3.25022">
        <ele>765</ele>
        <time>2015-10-18T15:09:18Z</time>
      </trkpt>
      <trkpt lat="44.13381" lon="3.25009">
        <ele>763</ele>
        <time>2015-10-18T15:11:18Z</time>
      </trkpt>
      <trkpt lat="44.13362" lon="3.24991">
        <ele>760</ele>
        <time>2015-10-18T15:13:18Z</time>
      </trkpt>
      <trkpt lat="44.13349" lon="3.24976">
        <ele>759</ele>
        <time>2015-10-18T15:15:18Z</time>
      </trkpt>
      <trkpt lat="44.1334" lon="3.24959">
        <ele>758</ele>
        <time>2015-10-18T15:17:18Z</time>
      </trkpt>
      <trkpt lat="44.13332" lon="3.24942">
        <ele>758</ele>
        <time>2015-10-18T15:19:18Z</time>
      </trkpt>
      <trkpt lat="44.13324" lon="3.24923">
        <ele>758</ele>
        <time>2015-10-18T15:21:18Z</time>
      </trkpt>
      <trkpt lat="44.13315" lon="3.24907">
        <ele>757</ele>
        <time>2015-10-18T15:23:18Z</time>
      </trkpt>
      <trkpt lat="44.13305" lon="3.24896">
        <ele>755</ele>
        <time>2015-10-18T15:25:18Z</time>
      </trkpt>
      <trkpt lat="44.13293" lon="3.24883">
        <ele>753</ele>
        <time>2015-10-18T15:27:18Z</time>
      </trkpt>
      <trkpt lat="44.13283" lon="3.2487">
        <ele>752</ele>
        <time>2015-10-18T15:29:18Z</time>
      </trkpt>
      <trkpt lat="44.13262" lon="3.24844">
        <ele>749</ele>
        <time>2015-10-18T15:31:18Z</time>
      </trkpt>
      <trkpt lat="44.13249" lon="3.24826">
        <ele>748</ele>
        <time>2015-10-18T15:33:18Z</time>
      </trkpt>
      <trkpt lat="44.13232" lon="3.24796">
        <ele>747</ele>
        <time>2015-10-18T15:35:18Z</time>
      </trkpt>
      <trkpt lat="44.13223" lon="3.24783">
        <ele>746</ele>
        <time>2015-10-18T15:37:18Z</time>
      </trkpt>
      <trkpt lat="44.13214" lon="3.2477">
        <ele>745</ele>
        <time>2015-10-18T15:39:18Z</time>
      </trkpt>
      <trkpt lat="44.13204" lon="3.24756">
        <ele>743</ele>
        <time>2015-10-18T15:41:18Z</time>
      </trkpt>
      <trkpt lat="44.13191" lon="3.2474">
        <ele>741</ele>
        <time>2015-10-18T15:43:18Z</time>
      </trkpt>
      <trkpt lat="44.13177" lon="3.24723">
        <ele>741</ele>
        <time>2015-10-18T15:45:18Z</time>
      </trkpt>
      <trkpt lat="44.13167" lon="3.2471">
        <ele>741</ele>
        <time>2015-10-18T15:47:18Z</time>
      </trkpt>
      <trkpt lat="44.13158" lon="3.24697">
        <ele>741</ele>
        <time>2015-10-18T15:49:18Z</time>
      </trkpt>
      <trkpt lat="44.13151" lon="3.24684">
        <ele>742</ele>
        <time>2015-10-18T15:51:18Z</time>
      </trkpt>
      <trkpt lat="44.13143" lon="3.24669">
        <ele>743</ele>
        <time>2015-10-18T15:53:18Z</time>
      </trkpt>
      <trkpt lat="44.13133" lon="3.24654">
        <ele>741</ele>
        <time>2015-10-18T15:55:18Z</time>
      </trkpt>
      <trkpt lat="44.13123" lon="3.24639">
        <ele>740</ele>
        <time>2015-10-18T15:57:18Z</time>
      </trkpt>
      <trkpt lat="44.13112" lon="3.24629">
        <ele>739</ele>
        <time>2015-10-18T15:59:18Z</time>
      </trkpt>
      <trkpt lat="44.131" lon="3.24618">
        <ele>737</ele>
        <time>2015-10-18T16:01:18Z</time>
      </trkpt>
      <trkpt lat="44.13089" lon="3.24611">
        <ele>735</ele>
        <time>2015-10-18T16:03:18Z</time>
      </trkpt>
      <trkpt lat="44.13075" lon="3.24604">
        <ele>733</ele>
        <time>2015-10-18T16:05:18Z</time>
      </trkpt>
      <trkpt lat="44.13061" lon="3.24595">
        <ele>731</ele>
        <time>2015-10-18T16:07:18Z</time>
      </trkpt>
      <trkpt lat="44.13051" lon="3.24578">
        <ele>730</ele>
        <time>2015-10-18T16:09:18Z</time>
      </trkpt>
      <trkpt lat="44.13047" lon="3.24562">
        <ele>727</ele>
        <time>2015-10-18T16:11:18Z</time>
      </trkpt>
      <trkpt lat="44.13039" lon="3.24559">
        <ele>724</ele>
        <time>2015-10-18T16:13:18Z</time>
      </trkpt>
      <trkpt lat="44.13026" lon="3.24566">
        <ele>722</ele>
        <time>2015-10-18T16:15:18Z</time>
      </trkpt>
      <trkpt lat="44.13022" lon="3.24565">
        <ele>720</ele>
        <time>2015-10-18T16:17:18Z</time>
      </trkpt>
      <trkpt lat="44.13015" lon="3.24565">
        <ele>718</ele>
        <time>2015-10-18T16:19:18Z</time>
      </trkpt>
      <trkpt lat="44.13004" lon="3.24566">
        <ele>716</ele>
        <time>2015-10-18T16:21:18Z</time>
      </trkpt>
      <trkpt lat="44.12997" lon="3.24567">
        <ele>714</ele>
        <time>2015-10-18T16:23:18Z</time>
      </trkpt>
      <trkpt lat="44.12993" lon="3.24561">
        <ele>711</ele>
        <time>2015-10-18T16:25:18Z</time>
      </trkpt>
      <trkpt lat="44.12996" lon="3.24558">
        <ele>712</ele>
        <time>2015-10-18T16:27:18Z</time>
      </trkpt>
      <trkpt lat="44.12997" lon="3.24557">
        <ele>712</ele>
        <time>2015-10-18T16:29:18Z</time>
      </trkpt>
      <trkpt lat="44.13007" lon="3.24546">
        <ele>712</ele>
        <time>2015-10-18T16:31:18Z</time>
      </trkpt>
      <trkpt lat="44.1302" lon="3.24529">
        <ele>713</ele>
        <time>2015-10-18T16:33:18Z</time>
      </trkpt>
      <trkpt lat="44.13031" lon="3.24516">
        <ele>714</ele>
        <time>2015-10-18T16:35:18Z</time>
      </trkpt>
      <trkpt lat="44.13041" lon="3.24501">
        <ele>715</ele>
        <time>2015-10-18T16:37:18Z</time>
      </trkpt>
      <trkpt lat="44.13051" lon="3.24489">
        <ele>715</ele>
        <time>2015-10-18T16:39:18Z</time>
      </trkpt>
      <trkpt lat="44.13058" lon="3.2448">
        <ele>715</ele>
        <time>2015-10-18T16:41:18Z</time>
      </trkpt>
      <trkpt lat="44.13072" lon="3.24461">
        <ele>714</ele>
        <time>2015-10-18T16:43:18Z</time>
      </trkpt>
      <trkpt lat="44.13082" lon="3.24448">
        <ele>714</ele>
        <time>2015-10-18T16:45:18Z</time>
      </trkpt>
      <trkpt lat="44.13084" lon="3.24447">
        <ele>715</ele>
        <time>2015-10-18T16:47:18Z</time>
      </trkpt>
      <trkpt lat="44.13084" lon="3.24446">
        <ele>715</ele>
        <time>2015-10-18T16:49:18Z</time>
      </trkpt>
      <trkpt lat="44.13077" lon="3.2445">
        <ele>713</ele>
        <time>2015-10-18T16:51:18Z</time>
      </trkpt>
      <trkpt lat="44.13073" lon="3.24454">
        <ele>712</ele>
        <time>2015-10-18T16:53:18Z</time>
      </trkpt>
      <trkpt lat="44.13061" lon="3.24462">
        <ele>710</ele>
        <time>2015-10-18T16:55:18Z</time>
      </trkpt>
      <trkpt lat="44.1305" lon="3.24467">
        <ele>707</ele>
        <time>2015-10-18T16:57:18Z</time>
      </trkpt>
      <trkpt lat="44.1304" lon="3.24474">
        <ele>706</ele>
        <time>2015-10-18T16:59:18Z</time>
      </trkpt>
      <trkpt lat="44.13032" lon="3.2448">
        <ele>705</ele>
        <time>2015-10-18T17:01:18Z</time>
      </trkpt>
      <trkpt lat="44.13028" lon="3.24484">
        <ele>705</ele>
        <time>2015-10-18T17:03:18Z</time>
      </trkpt>
      <trkpt lat="44.13019" lon="3.2449">
        <ele>704</ele>
        <time>2015-10-18T17:05:18Z</time>
      </trkpt>
      <trkpt lat="44.13009" lon="3.24494">
        <ele>702</ele>
        <time>2015-10-18T17:07:18Z</time>
      </trkpt>
      <trkpt lat="44.13002" lon="3.245">
        <ele>702</ele>
        <time>2015-10-18T17:09:18Z</time>
      </trkpt>
      <trkpt lat="44.12992" lon="3.24501">
        <ele>699</ele>
        <time>2015-10-18T17:11:18Z</time>
      </trkpt>
      <trkpt lat="44.12978" lon="3.24505">
        <ele>695</ele>
        <time>2015-10-18T17:13:18Z</time>
      </trkpt>
      <trkpt lat="44.12969" lon="3.24511">
        <ele>693</ele>
        <time>2015-10-18T17:15:18Z</time>
      </trkpt>
      <trkpt lat="44.12966" lon="3.24512">
        <ele>693</ele>
        <time>2015-10-18T17:17:18Z</time>
      </trkpt>
      <trkpt lat="44.12959" lon="3.24515">
        <ele>691</ele>
        <time>2015-10-18T17:19:18Z</time>
      </trkpt>
      <trkpt lat="44.1295" lon="3.24525">
        <ele>690</ele>
        <time>2015-10-18T17:21:18Z</time>
      </trkpt>
      <trkpt lat="44.12943" lon="3.24527">
        <ele>689</ele>
        <time>2015-10-18T17:23:18Z</time>
      </trkpt>
      <trkpt lat="44.12938" lon="3.24518">
        <ele>685</ele>
        <time>2015-10-18T17:25:18Z</time>
      </trkpt>
      <trkpt lat="44.12938" lon="3.24508">
        <ele>683</ele>
        <time>2015-10-18T17:27:18Z</time>
      </trkpt>
      <trkpt lat="44.12936" lon="3.24501">
        <ele>680</ele>
        <time>2015-10-18T17:29:18Z</time>
      </trkpt>
      <trkpt lat="44.12932" lon="3.24498">
        <ele>678</ele>
        <time>2015-10-18T17:31:18Z</time>
      </trkpt>
      <trkpt lat="44.12929" lon="3.24497">
        <ele>677</ele>
        <time>2015-10-18T17:33:18Z</time>
      </trkpt>
      <trkpt lat="44.1292" lon="3.24498">
        <ele>674</ele>
        <time>2015-10-18T17:35:18Z</time>
      </trkpt>
      <trkpt lat="44.12913" lon="3.24498">
        <ele>672</ele>
        <time>2015-10-18T17:37:18Z</time>
      </trkpt>
      <trkpt lat="44.12887" lon="3.24506">
        <ele>666</ele>
        <time>2015-10-18T17:39:18Z</time>
      </trkpt>
      <trkpt lat="44.12884" lon="3.24504">
        <ele>665</ele>
        <time>2015-10-18T17:41:18Z</time>
      </trkpt>
      <trkpt lat="44.12881" lon="3.24503">
        <ele>664</ele>
        <time>2015-10-18T17:43:18Z</time>
      </trkpt>
      <trkpt lat="44.1288" lon="3.24492">
        <ele>660</ele>
        <time>2015-10-18T17:45:18Z</time>
      </trkpt>
      <trkpt lat="44.12882" lon="3.2449">
        <ele>660</ele>
        <time>2015-10-18T17:47:18Z</time>
      </trkpt>
      <trkpt lat="44.12894" lon="3.24485">
        <ele>661</ele>
        <time>2015-10-18T17:49:18Z</time>
      </trkpt>
      <trkpt lat="44.12906" lon="3.24482">
        <ele>663</ele>
        <time>2015-10-18T17:51:18Z</time>
      </trkpt>
      <trkpt lat="44.12919" lon="3.24484">
        <ele>668</ele>
        <time>2015-10-18T17:53:18Z</time>
      </trkpt>
      <trkpt lat="44.1293" lon="3.24479">
        <ele>669</ele>
        <time>2015-10-18T17:55:18Z</time>
      </trkpt>
      <trkpt lat="44.12943" lon="3.24472">
        <ele>671</ele>
        <time>2015-10-18T17:57:18Z</time>
      </trkpt>
      <trkpt lat="44.12955" lon="3.24465">
        <ele>672</ele>
        <time>2015-10-18T17:59:18Z</time>
      </trkpt>
      <trkpt lat="44.12964" lon="3.24455">
        <ele>671</ele>
        <time>2015-10-18T18:01:18Z</time>
      </trkpt>
      <trkpt lat="44.12975" lon="3.24446">
        <ele>670</ele>
        <time>2015-10-18T18:03:18Z</time>
      </trkpt>
      <trkpt lat="44.12988" lon="3.24433">
        <ele>670</ele>
        <time>2015-10-18T18:05:18Z</time>
      </trkpt>
      <trkpt lat="44.12997" lon="3.24424">
        <ele>669</ele>
        <time>2015-10-18T18:07:18Z</time>
      </trkpt>
      <trkpt lat="44.13008" lon="3.24411">
        <ele>671</ele>
        <time>2015-10-18T18:09:18Z</time>
      </trkpt>
      <trkpt lat="44.13016" lon="3.24397">
        <ele>677</ele>
        <time>2015-10-18T18:11:18Z</time>
      </trkpt>
      <trkpt lat="44.13017" lon="3.24394">
        <ele>677</ele>
        <time>2015-10-18T18:13:18Z</time>
      </trkpt>
      <trkpt lat="44.13008" lon="3.24384">
        <ele>675</ele>
        <time>2015-10-18T18:15:18Z</time>
      </trkpt>
      <trkpt lat="44.12996" lon="3.24377">
        <ele>670</ele>
        <time>2015-10-18T18:17:18Z</time>
      </trkpt>
      <trkpt lat="44.12976" lon="3.24372">
        <ele>662</ele>
        <time>2015-10-18T18:19:18Z</time>
      </trkpt>
      <trkpt lat="44.12962" lon="3.24363">
        <ele>655</ele>
        <time>2015-10-18T18:21:18Z</time>
      </trkpt>
      <trkpt lat="44.12952" lon="3.2435">
        <ele>650</ele>
        <time>2015-10-18T18:23:18Z</time>
      </trkpt>
      <trkpt lat="44.12945" lon="3.2434">
        <ele>646</ele>
        <time>2015-10-18T18:25:18Z</time>
      </trkpt>
      <trkpt lat="44.12941" lon="3.24335">
        <ele>644</ele>
        <time>2015-10-18T18:27:18Z</time>
      </trkpt>
      <trkpt lat="44.12921" lon="3.24305">
        <ele>638</ele>
        <time>2015-10-18T18:29:18Z</time>
      </trkpt>
      <trkpt lat="44.12911" lon="3.24292">
        <ele>634</ele>
        <time>2015-10-18T18:31:18Z</time>
      </trkpt>
      <trkpt lat="44.12908" lon="3.24275">
        <ele>635</ele>
        <time>2015-10-18T18:33:18Z</time>
      </trkpt>
      <trkpt lat="44.12908" lon="3.24257">
        <ele>638</ele>
        <time>2015-10-18T18:35:18Z</time>
      </trkpt>
      <trkpt lat="44.12909" lon="3.24242">
        <ele>639</ele>
        <time>2015-10-18T18:37:18Z</time>
      </trkpt>
      <trkpt lat="44.12911" lon="3.2423">
        <ele>640</ele>
        <time>2015-10-18T18:39:18Z</time>
      </trkpt>
      <trkpt lat="44.12915" lon="3.24214">
        <ele>641</ele>
        <time>2015-10-18T18:41:18Z</time>
      </trkpt>
      <trkpt lat="44.12921" lon="3.2418">
        <ele>641</ele>
        <time>2015-10-18T18:43:18Z</time>
      </trkpt>
      <trkpt lat="44.12924" lon="3.24164">
        <ele>642</ele>
        <time>2015-10-18T18:45:18Z</time>
      </trkpt>
      <trkpt lat="44.12926" lon="3.24148">
        <ele>646</ele>
        <time>2015-10-18T18:47:18Z</time>
      </trkpt>
      <trkpt lat="44.12929" lon="3.24134">
        <ele>651</ele>
        <time>2015-10-18T18:49:18Z</time>
      </trkpt>
      <trkpt lat="44.1293" lon="3.24131">
        <ele>652</ele>
        <time>2015-10-18T18:51:18Z</time>
      </trkpt>
      <trkpt lat="44.1294" lon="3.24119">
        <ele>658</ele>
        <time>2015-10-18T18:53:18Z</time>
      </trkpt>
      <trkpt lat="44.12946" lon="3.24114">
        <ele>661</ele>
        <time>2015-10-18T18:55:18Z</time>
      </trkpt>
      <trkpt lat="44.12946" lon="3.2411">
        <ele>661</ele>
        <time>2015-10-18T18:57:18Z</time>
      </trkpt>
      <trkpt lat="44.1295" lon="3.24109">
        <ele>663</ele>
        <time>2015-10-18T18:59:18Z</time>
      </trkpt>
      <trkpt lat="44.12948" lon="3.2411">
        <ele>662</ele>
        <time>2015-10-18T19:01:18Z</time>
      </trkpt>
      <trkpt lat="44.12946" lon="3.24103">
        <ele>662</ele>
        <time>2015-10-18T19:03:18Z</time>
      </trkpt>
      <trkpt lat="44.12945" lon="3.24103">
        <ele>662</ele>
        <time>2015-10-18T19:05:18Z</time>
      </trkpt>
      <trkpt lat="44.12942" lon="3.24105">
        <ele>660</ele>
        <time>2015-10-18T19:07:18Z</time>
      </trkpt>
      <trkpt lat="44.12941" lon="3.241">
        <ele>661</ele>
        <time>2015-10-18T19:09:18Z</time>
      </trkpt>
      <trkpt lat="44.12935" lon="3.24092">
        <ele>660</ele>
        <time>2015-10-18T19:11:18Z</time>
      </trkpt>
      <trkpt lat="44.12926" lon="3.24087">
        <ele>659</ele>
        <time>2015-10-18T19:13:18Z</time>
      </trkpt>
      <trkpt lat="44.12922" lon="3.24083">
        <ele>658</ele>
        <time>2015-10-18T19:15:18Z</time>
      </trkpt>
      <trkpt lat="44.12913" lon="3.24073">
        <ele>662</ele>
        <time>2015-10-18T19:17:18Z</time>
      </trkpt>
      <trkpt lat="44.12911" lon="3.24068">
        <ele>664</ele>
        <time>2015-10-18T19:19:18Z</time>
      </trkpt>
      <trkpt lat="44.129" lon="3.24068">
        <ele>664</ele>
        <time>2015-10-18T19:21:18Z</time>
      </trkpt>
      <trkpt lat="44.12892" lon="3.24074">
        <ele>661</ele>
        <time>2015-10-18T19:23:18Z</time>
      </trkpt>
      <trkpt lat="44.12886" lon="3.2408">
        <ele>658</ele>
        <time>2015-10-18T19:25:18Z</time>
      </trkpt>
      <trkpt lat="44.12874" lon="3.2409">
        <ele>654</ele>
        <time>2015-10-18T19:27:18Z</time>
      </trkpt>
      <trkpt lat="44.12865" lon="3.24097">
        <ele>650</ele>
        <time>2015-10-18T19:29:18Z</time>
      </trkpt>
      <trkpt lat="44.12855" lon="3.241">
        <ele>648</ele>
        <time>2015-10-18T19:31:18Z</time>
      </trkpt>
      <trkpt lat="44.12844" lon="3.24103">
        <ele>645</ele>
        <time>2015-10-18T19:33:18Z</time>
      </trkpt>
      <trkpt lat="44.12831" lon="3.24107">
        <ele>642</ele>
        <time>2015-10-18T19:35:18Z</time>
      </trkpt>
      <trkpt lat="44.12817" lon="3.24115">
        <ele>639</ele>
        <time>2015-10-18T19:37:18Z</time>
      </trkpt>
      <trkpt lat="44.12806" lon="3.24119">
        <ele>638</ele>
        <time>2015-10-18T19:39:18Z</time>
      </trkpt>
      <trkpt lat="44.12798" lon="3.24122">
        <ele>638</ele>
        <time>2015-10-18T19:41:18Z</time>
      </trkpt>
      <trkpt lat="44.1279" lon="3.24123">
        <ele>638</ele>
        <time>2015-10-18T19:43:18Z</time>
      </trkpt>
      <trkpt lat="44.12771" lon="3.24146">
        <ele>628</ele>
        <time>2015-10-18T19:45:18Z</time>
      </trkpt>
      <trkpt lat="44.12744" lon="3.24175">
        <ele>615</ele>
        <time>2015-10-18T19:47:18Z</time>
      </trkpt>
      <trkpt lat="44.12738" lon="3.24177">
        <ele>614</ele>
        <time>2015-10-18T19:49:18Z</time>
      </trkpt>
      <trkpt lat="44.12727" lon="3.24175">
        <ele>613</ele>
        <time>2015-10-18T19:51:18Z</time>
      </trkpt>
      <trkpt lat="44.12719" lon="3.24173">
        <ele>613</ele>
        <time>2015-10-18T19:53:18Z</time>
      </trkpt>
      <trkpt lat="44.1271" lon="3.24171">
        <ele>613</ele>
        <time>2015-10-18T19:55:18Z</time>
      </trkpt>
      <trkpt lat="44.127" lon="3.2417">
        <ele>612</ele>
        <time>2015-10-18T19:57:18Z</time>
      </trkpt>
      <trkpt lat="44.12691" lon="3.2417">
        <ele>611</ele>
        <time>2015-10-18T19:59:18Z</time>
      </trkpt>
      <trkpt lat="44.12685" lon="3.24168">
        <ele>611</ele>
        <time>2015-10-18T20:01:18Z</time>
      </trkpt>
      <trkpt lat="44.12674" lon="3.24165">
        <ele>611</ele>
        <time>2015-10-18T20:03:18Z</time>
      </trkpt>
      <trkpt lat="44.12662" lon="3.24161">
        <ele>609</ele>
        <time>2015-10-18T20:05:18Z</time>
      </trkpt>
      <trkpt lat="44.12651" lon="3.24157">
        <ele>606</ele>
        <time>2015-10-18T20:07:18Z</time>
      </trkpt>
      <trkpt lat="44.12645" lon="3.24146">
        <ele>608</ele>
        <time>2015-10-18T20:09:18Z</time>
      </trkpt>
      <trkpt lat="44.12643" lon="3.24133">
        <ele>612</ele>
        <time>2015-10-18T20:11:18Z</time>
      </trkpt>
      <trkpt lat="44.12643" lon="3.2412">
        <ele>616</ele>
        <time>2015-10-18T20:13:18Z</time>
      </trkpt>
      <trkpt lat="44.12647" lon="3.24102">
        <ele>623</ele>
        <time>2015-10-18T20:15:18Z</time>
      </trkpt>
      <trkpt lat="44.12643" lon="3.24086">
        <ele>628</ele>
        <time>2015-10-18T20:17:18Z</time>
      </trkpt>
      <trkpt lat="44.12632" lon="3.24081">
        <ele>627</ele>
        <time>2015-10-18T20:19:18Z</time>
      </trkpt>
      <trkpt lat="44.12621" lon="3.24078">
        <ele>625</ele>
        <time>2015-10-18T20:21:18Z</time>
      </trkpt>
      <trkpt lat="44.1261" lon="3.24074">
        <ele>624</ele>
        <time>2015-10-18T20:23:18Z</time>
      </trkpt>
      <trkpt lat="44.12598" lon="3.24078">
        <ele>619</ele>
        <time>2015-10-18T20:25:18Z</time>
      </trkpt>
      <trkpt lat="44.12586" lon="3.2408">
        <ele>615</ele>
        <time>2015-10-18T20:27:18Z</time>
      </trkpt>
      <trkpt lat="44.12572" lon="3.24079">
        <ele>615</ele>
        <time>2015-10-18T20:29:18Z</time>
      </trkpt>
      <trkpt lat="44.12562" lon="3.24077">
        <ele>616</ele>
        <time>2015-10-18T20:31:18Z</time>
      </trkpt>
      <trkpt lat="44.1255" lon="3.24081">
        <ele>614</ele>
        <time>2015-10-18T20:33:18Z</time>
      </trkpt>
      <trkpt lat="44.12537" lon="3.24085">
        <ele>612</ele>
        <time>2015-10-18T20:35:18Z</time>
      </trkpt>
      <trkpt lat="44.12522" lon="3.24088">
        <ele>610</ele>
        <time>2015-10-18T20:37:18Z</time>
      </trkpt>
      <trkpt lat="44.1251" lon="3.24095">
        <ele>606</ele>
        <time>2015-10-18T20:39:18Z</time>
      </trkpt>
      <trkpt lat="44.12493" lon="3.24097">
        <ele>604</ele>
        <time>2015-10-18T20:41:18Z</time>
      </trkpt>
      <trkpt lat="44.12481" lon="3.24097">
        <ele>603</ele>
        <time>2015-10-18T20:43:18Z</time>
      </trkpt>
      <trkpt lat="44.12467" lon="3.24098">
        <ele>602</ele>
        <time>2015-10-18T20:45:18Z</time>
      </trkpt>
      <trkpt lat="44.12455" lon="3.241">
        <ele>600</ele>
        <time>2015-10-18T20:47:18Z</time>
      </trkpt>
      <trkpt lat="44.12442" lon="3.24101">
        <ele>598</ele>
        <time>2015-10-18T20:49:18Z</time>
      </trkpt>
      <trkpt lat="44.12425" lon="3.24101">
        <ele>597</ele>
        <time>2015-10-18T20:51:18Z</time>
      </trkpt>
      <trkpt lat="44.12409" lon="3.24102">
        <ele>593</ele>
        <time>2015-10-18T20:53:18Z</time>
      </trkpt>
      <trkpt lat="44.12396" lon="3.24098">
        <ele>592</ele>
        <time>2015-10-18T20:55:18Z</time>
      </trkpt>
      <trkpt lat="44.12383" lon="3.24087">
        <ele>593</ele>
        <time>2015-10-18T20:57:18Z</time>
      </trkpt>
      <trkpt lat="44.12374" lon="3.24079">
        <ele>593</ele>
        <time>2015-10-18T20:59:18Z</time>
      </trkpt>
      <trkpt lat="44.12364" lon="3.24069">
        <ele>592</ele>
        <time>2015-10-18T21:01:18Z</time>
      </trkpt>
      <trkpt lat="44.12355" lon="3.24061">
        <ele>591</ele>
        <time>2015-10-18T21:03:18Z</time>
      </trkpt>
      <trkpt lat="44.12343" lon="3.24048">
        <ele>589</ele>
        <time>2015-10-18T21:05:18Z</time>
      </trkpt>
      <trkpt lat="44.12334" lon="3.2403">
        <ele>590</ele>
        <time>2015-10-18T21:07:18Z</time>
      </trkpt>
      <trkpt lat="44.12329" lon="3.24015">
        <ele>590</ele>
        <time>2015-10-18T21:09:18Z</time>
      </trkpt>
      <trkpt lat="44.12326" lon="3.23996">
        <ele>592</ele>
        <time>2015-10-18T21:11:18Z</time>
      </trkpt>
      <trkpt lat="44.12326" lon="3.23975">
        <ele>594</ele>
        <time>2015-10-18T21:13:18Z</time>
      </trkpt>
      <trkpt lat="44.12324" lon="3.23955">
        <ele>595</ele>
        <time>2015-10-18T21:15:18Z</time>
      </trkpt>
      <trkpt lat="44.12322" lon="3.23934">
        <ele>596</ele>
        <time>2015-10-18T21:17:18Z</time>
      </trkpt>
      <trkpt lat="44.1232" lon="3.23918">
        <ele>596</ele>
        <time>2015-10-18T21:19:18Z</time>
      </trkpt>
      <trkpt lat="44.12314" lon="3.23881">
        <ele>593</ele>
        <time>2015-10-18T21:21:18Z</time>
      </trkpt>
      <trkpt lat="44.1231" lon="3.23845">
        <ele>591</ele>
        <time>2015-10-18T21:23:18Z</time>
      </trkpt>
      <trkpt lat="44.12311" lon="3.23823">
        <ele>591</ele>
        <time>2015-10-18T21:25:18Z</time>
      </trkpt>
      <trkpt lat="44.12314" lon="3.23804">
        <ele>591</ele>
        <time>2015-10-18T21:27:18Z</time>
      </trkpt>
      <trkpt lat="44.12319" lon="3.2379">
        <ele>592</ele>
        <time>2015-10-18T21:29:18Z</time>
      </trkpt>
      <trkpt lat="44.12318" lon="3.23775">
        <ele>591</ele>
        <time>2015-10-18T21:31:18Z</time>
      </trkpt>
      <trkpt lat="44.12314" lon="3.2376">
        <ele>590</ele>
        <time>2015-10-18T21:33:18Z</time>
      </trkpt>
      <trkpt lat="44.12309" lon="3.23746">
        <ele>587</ele>
        <time>2015-10-18T21:35:18Z</time>
      </trkpt>
      <trkpt lat="44.12305" lon="3.2373">
        <ele>585</ele>
        <time>2015-10-18T21:37:18Z</time>
      </trkpt>
      <trkpt lat="44.123" lon="3.23713">
        <ele>583</ele>
        <time>2015-10-18T21:39:18Z</time>
      </trkpt>
      <trkpt lat="44.12293" lon="3.2369">
        <ele>580</ele>
        <time>2015-10-18T21:41:18Z</time>
      </trkpt>
      <trkpt lat="44.12292" lon="3.23671">
        <ele>579</ele>
        <time>2015-10-18T21:43:18Z</time>
      </trkpt>
      <trkpt lat="44.12291" lon="3.23644">
        <ele>578</ele>
        <time>2015-10-18T21:45:18Z</time>
      </trkpt>
      <trkpt lat="44.12292" lon="3.23618">
        <ele>577</ele>
        <time>2015-10-18T21:47:18Z</time>
      </trkpt>
      <trkpt lat="44.12291" lon="3.23594">
        <ele>576</ele>
        <time>2015-10-18T21:49:18Z</time>
      </trkpt>
      <trkpt lat="44.12293" lon="3.23566">
        <ele>575</ele>
        <time>2015-10-18T21:51:18Z</time>
      </trkpt>
      <trkpt lat="44.123" lon="3.23546">
        <ele>576</ele>
        <time>2015-10-18T21:53:18Z</time>
      </trkpt>
      <trkpt lat="44.12307" lon="3.23526">
        <ele>576</ele>
        <time>2015-10-18T21:55:18Z</time>
      </trkpt>
      <trkpt lat="44.12312" lon="3.23502">
        <ele>576</ele>
        <time>2015-10-18T21:57:18Z</time>
      </trkpt>
      <trkpt lat="44.12316" lon="3.23479">
        <ele>576</ele>
        <time>2015-10-18T21:59:18Z</time>
      </trkpt>
      <trkpt lat="44.1232" lon="3.23458">
        <ele>575</ele>
        <time>2015-10-18T22:01:18Z</time>
      </trkpt>
      <trkpt lat="44.12322" lon="3.23438">
        <ele>575</ele>
        <time>2015-10-18T22:03:18Z</time>
      </trkpt>
      <trkpt lat="44.12323" lon="3.23414">
        <ele>574</ele>
        <time>2015-10-18T22:05:18Z</time>
      </trkpt>
      <trkpt lat="44.12327" lon="3.23399">
        <ele>574</ele>
        <time>2015-10-18T22:07:18Z</time>
      </trkpt>
      <trkpt lat="44.12331" lon="3.23379">
        <ele>575</ele>
        <time>2015-10-18T22:09:18Z</time>
      </trkpt>
      <trkpt lat="44.12336" lon="3.2336">
        <ele>575</ele>
        <time>2015-10-18T22:11:18Z</time>
      </trkpt>
      <trkpt lat="44.12345" lon="3.23344">
        <ele>576</ele>
        <time>2015-10-18T22:13:18Z</time>
      </trkpt>
      <trkpt lat="44.12355" lon="3.23329">
        <ele>576</ele>
        <time>2015-10-18T22:15:18Z</time>
      </trkpt>
      <trkpt lat="44.12366" lon="3.2331">
        <ele>572</ele>
        <time>2015-10-18T22:17:18Z</time>
      </trkpt>
      <trkpt lat="44.12362" lon="3.23294">
        <ele>568</ele>
        <time>2015-10-18T22:19:18Z</time>
      </trkpt>
      <trkpt lat="44.12357" lon="3.23278">
        <ele>564</ele>
        <time>2015-10-18T22:21:18Z</time>
      </trkpt>
      <trkpt lat="44.12357" lon="3.23258">
        <ele>560</ele>
        <time>2015-10-18T22:23:18Z</time>
      </trkpt>
      <trkpt lat="44.12361" lon="3.23244">
        <ele>555</ele>
        <time>2015-10-18T22:25:18Z</time>
      </trkpt>
      <trkpt lat="44.12371" lon="3.2325">
        <ele>558</ele>
        <time>2015-10-18T22:27:18Z</time>
      </trkpt>
      <trkpt lat="44.12385" lon="3.23254">
        <ele>559</ele>
        <time>2015-10-18T22:29:18Z</time>
      </trkpt>
      <trkpt lat="44.12398" lon="3.23253">
        <ele>559</ele>
        <time>2015-10-18T22:31:18Z</time>
      </trkpt>
      <trkpt lat="44.12416" lon="3.23246">
        <ele>556</ele>
        <time>2015-10-18T22:33:18Z</time>
      </trkpt>
      <trkpt lat="44.12433" lon="3.2324">
        <ele>557</ele>
        <time>2015-10-18T22:35:18Z</time>
      </trkpt>
      <trkpt lat="44.12454" lon="3.23229">
        <ele>557</ele>
        <time>2015-10-18T22:37:18Z</time>
      </trkpt>
      <trkpt lat="44.12481" lon="3.23213">
        <ele>557</ele>
        <time>2015-10-18T22:39:18Z</time>
      </trkpt>
      <trkpt lat="44.1245" lon="3.23216">
        <ele>551</ele>
        <time>2015-10-18T22:41:18Z</time>
      </trkpt>
      <trkpt lat="44.1244" lon="3.23215">
        <ele>548</ele>
        <time>2015-10-18T22:43:18Z</time>
      </trkpt>
      <trkpt lat="44.12428" lon="3.23212">
        <ele>544</ele>
        <time>2015-10-18T22:45:18Z</time>
      </trkpt>
      <trkpt lat="44.12418" lon="3.23205">
        <ele>539</ele>
        <time>2015-10-18T22:47:18Z</time>
      </trkpt>
      <trkpt lat="44.12406" lon="3.23196">
        <ele>534</ele>
        <time>2015-10-18T22:49:18Z</time>
      </trkpt>
      <trkpt lat="44.12391" lon="3.23186">
        <ele>529</ele>
        <time>2015-10-18T22:51:18Z</time>
      </trkpt>
      <trkpt lat="44.12371" lon="3.23176">
        <ele>523</ele>
        <time>2015-10-18T22:53:18Z</time>
      </trkpt>
      <trkpt lat="44.12361" lon="3.23172">
        <ele>520</ele>
        <time>2015-10-18T22:55:18Z</time>
      </trkpt>
      <trkpt lat="44.12334" lon="3.23169">
        <ele>516</ele>
        <time>2015-10-18T22:57:18Z</time>
      </trkpt>
      <trkpt lat="44.12344" lon="3.23158">
        <ele>512</ele>
        <time>2015-10-18T22:59:18Z</time>
      </trkpt>
      <trkpt lat="44.12358" lon="3.23154">
        <ele>511</ele>
        <time>2015-10-18T23:01:18Z</time>
      </trkpt>
      <trkpt lat="44.12371" lon="3.23152">
        <ele>511</ele>
        <time>2015-10-18T23:03:18Z</time>
      </trkpt>
      <trkpt lat="44.12383" lon="3.2315">
        <ele>511</ele>
        <time>2015-10-18T23:05:18Z</time>
      </trkpt>
      <trkpt lat="44.12403" lon="3.23149">
        <ele>513</ele>
        <time>2015-10-18T23:07:18Z</time>
      </trkpt>
      <trkpt lat="44.12393" lon="3.2314">
        <ele>508</ele>
        <time>2015-10-18T23:09:18Z</time>
      </trkpt>
      <trkpt lat="44.12381" lon="3.23132">
        <ele>503</ele>
        <time>2015-10-18T23:11:18Z</time>
      </trkpt>
      <trkpt lat="44.12368" lon="3.23125">
        <ele>498</ele>
        <time>2015-10-18T23:13:18Z</time>
      </trkpt>
      <trkpt lat="44.12354" lon="3.23121">
        <ele>495</ele>
        <time>2015-10-18T23:15:18Z</time>
      </trkpt>
      <trkpt lat="44.12338" lon="3.23129">
        <ele>497</ele>
        <time>2015-10-18T23:17:18Z</time>
      </trkpt>
      <trkpt lat="44.12318" lon="3.23136">
        <ele>496</ele>
        <time>2015-10-18T23:19:18Z</time>
      </trkpt>
      <trkpt lat="44.12334" lon="3.2312">
        <ele>493</ele>
        <time>2015-10-18T23:21:18Z</time>
      </trkpt>
      <trkpt lat="44.12346" lon="3.23111">
        <ele>490</ele>
        <time>2015-10-18T23:23:18Z</time>
      </trkpt>
      <trkpt lat="44.1236" lon="3.23101">
        <ele>486</ele>
        <time>2015-10-18T23:25:18Z</time>
      </trkpt>
      <trkpt lat="44.1238" lon="3.23095">
        <ele>485</ele>
        <time>2015-10-18T23:27:18Z</time>
      </trkpt>
      <trkpt lat="44.12401" lon="3.23094">
        <ele>487</ele>
        <time>2015-10-18T23:29:18Z</time>
      </trkpt>
      <trkpt lat="44.12381" lon="3.23081">
        <ele>479</ele>
        <time>2015-10-18T23:31:18Z</time>
      </trkpt>
      <trkpt lat="44.12371" lon="3.23077">
        <ele>476</ele>
        <time>2015-10-18T23:33:18Z</time>
      </trkpt>
      <trkpt lat="44.12355" lon="3.23061">
        <ele>467</ele>
        <time>2015-10-18T23:35:18Z</time>
      </trkpt>
      <trkpt lat="44.12369" lon="3.23054">
        <ele>465</ele>
        <time>2015-10-18T23:37:18Z</time>
      </trkpt>
      <trkpt lat="44.12382" lon="3.2306">
        <ele>470</ele>
        <time>2015-10-18T23:39:18Z</time>
      </trkpt>
      <trkpt lat="44.12395" lon="3.2306">
        <ele>472</ele>
        <time>2015-10-18T23:41:18Z</time>
      </trkpt>
      <trkpt lat="44.1241" lon="3.23055">
        <ele>473</ele>
        <time>2015-10-18T23:43:18Z</time>
      </trkpt>
      <trkpt lat="44.12425" lon="3.23043">
        <ele>472</ele>
        <time>2015-10-18T23:45:18Z</time>
      </trkpt>
      <trkpt lat="44.12431" lon="3.23031">
        <ele>470</ele>
        <time>2015-10-18T23:47:18Z</time>
      </trkpt>
      <trkpt lat="44.12436" lon="3.23006">
        <ele>463</ele>
        <time>2015-10-18T23:49:18Z</time>
      </trkpt>
      <trkpt lat="44.12444" lon="3.22978">
        <ele>455</ele>
        <time>2015-10-18T23:51:18Z</time>
      </trkpt>
      <trkpt lat="44.12455" lon="3.2296">
        <ele>453</ele>
        <time>2015-10-18T23:53:18Z</time>
      </trkpt>
      <trkpt lat="44.12465" lon="3.22946">
        <ele>452</ele>
        <time>2015-10-18T23:55:18Z</time>
      </trkpt>
      <trkpt lat="44.12474" lon="3.22935">
        <ele>452</ele>
        <time>2015-10-18T23:57:18Z</time>
      </trkpt>
      <trkpt lat="44.12482" lon="3.22917">
        <ele>450</ele>
        <time>2015-10-18T23:59:18Z</time>
      </trkpt>
      <trkpt lat="44.12491" lon="3.22902">
        <ele>449</ele>
        <time>2015-10-19T00:01:18Z</time>
      </trkpt>
      <trkpt lat="44.12499" lon="3.22887">
        <ele>447</ele>
        <time>2015-10-19T00:03:18Z</time>
      </trkpt>
      <trkpt lat="44.12509" lon="3.22882">
        <ele>449</ele>
        <time>2015-10-19T00:05:18Z</time>
      </trkpt>
      <trkpt lat="44.12522" lon="3.22873">
        <ele>453</ele>
        <time>2015-10-19T00:07:18Z</time>
      </trkpt>
      <trkpt lat="44.12536" lon="3.22867">
        <ele>457</ele>
        <time>2015-10-19T00:09:18Z</time>
      </trkpt>
      <trkpt lat="44.12542" lon="3.22851">
        <ele>455</ele>
        <time>2015-10-19T00:11:18Z</time>
      </trkpt>
      <trkpt lat="44.12549" lon="3.22822">
        <ele>450</ele>
        <time>2015-10-19T00:13:18Z</time>
      </trkpt>
      <trkpt lat="44.12552" lon="3.228">
        <ele>445</ele>
        <time>2015-10-19T00:15:18Z</time>
      </trkpt>
      <trkpt lat="44.12558" lon="3.22776">
        <ele>441</ele>
        <time>2015-10-19T00:17:18Z</time>
      </trkpt>
      <trkpt lat="44.12562" lon="3.22751">
        <ele>434</ele>
        <time>2015-10-19T00:19:18Z</time>
      </trkpt>
      <trkpt lat="44.12566" lon="3.22731">
        <ele>434</ele>
        <time>2015-10-19T00:21:18Z</time>
      </trkpt>
      <trkpt lat="44.1257" lon="3.22712">
        <ele>434</ele>
        <time>2015-10-19T00:23:18Z</time>
      </trkpt>
      <trkpt lat="44.12572" lon="3.22695">
        <ele>433</ele>
        <time>2015-10-19T00:25:18Z</time>
      </trkpt>
      <trkpt lat="44.12576" lon="3.22675">
        <ele>432</ele>
        <time>2015-10-19T00:27:18Z</time>
      </trkpt>
      <trkpt lat="44.12576" lon="3.2266">
        <ele>432</ele>
        <time>2015-10-19T00:29:18Z</time>
      </trkpt>
      <trkpt lat="44.12569" lon="3.22645">
        <ele>431</ele>
        <time>2015-10-19T00:31:18Z</time>
      </trkpt>
      <trkpt lat="44.12563" lon="3.22635">
        <ele>430</ele>
        <time>2015-10-19T00:33:18Z</time>
      </trkpt>
      <trkpt lat="44.12559" lon="3.22612">
        <ele>430</ele>
        <time>2015-10-19T00:35:18Z</time>
      </trkpt>
      <trkpt lat="44.12561" lon="3.22599">
        <ele>432</ele>
        <time>2015-10-19T00:37:18Z</time>
      </trkpt>
      <trkpt lat="44.12566" lon="3.22588">
        <ele>435</ele>
        <time>2015-10-19T00:39:18Z</time>
      </trkpt>
      <trkpt lat="44.12574" lon="3.22583">
        <ele>440</ele>
        <time>2015-10-19T00:41:18Z</time>
      </trkpt>
      <trkpt lat="44.12574" lon="3.22567">
        <ele>440</ele>
        <time>2015-10-19T00:43:18Z</time>
      </trkpt>
      <trkpt lat="44.12575" lon="3.22555">
        <ele>442</ele>
        <time>2015-10-19T00:45:18Z</time>
      </trkpt>
      <trkpt lat="44.12574" lon="3.22543">
        <ele>442</ele>
        <time>2015-10-19T00:47:18Z</time>
      </trkpt>
      <trkpt lat="44.12574" lon="3.22525">
        <ele>443</ele>
        <time>2015-10-19T00:49:18Z</time>
      </trkpt>
      <trkpt lat="44.12571" lon="3.22509">
        <ele>442</ele>
        <time>2015-10-19T00:51:18Z</time>
      </trkpt>
      <trkpt lat="44.1257" lon="3.22494">
        <ele>442</ele>
        <time>2015-10-19T00:53:18Z</time>
      </trkpt>
      <trkpt lat="44.1257" lon="3.22482">
        <ele>441</ele>
        <time>2015-10-19T00:55:18Z</time>
      </trkpt>
      <trkpt lat="44.12567" lon="3.22466">
        <ele>440</ele>
        <time>2015-10-19T00:57:18Z</time>
      </trkpt>
      <trkpt lat="44.12563" lon="3.22455">
        <ele>438</ele>
        <time>2015-10-19T00:59:18Z</time>
      </trkpt>
      <trkpt lat="44.12562" lon="3.22441">
        <ele>437</ele>
        <time>2015-10-19T01:01:18Z</time>
      </trkpt>
      <trkpt lat="44.12556" lon="3.22421">
        <ele>434</ele>
        <time>2015-10-19T01:03:18Z</time>
      </trkpt>
      <trkpt lat="44.12552" lon="3.22405">
        <ele>431</ele>
        <time>2015-10-19T01:05:18Z</time>
      </trkpt>
      <trkpt lat="44.12547" lon="3.22389">
        <ele>428</ele>
        <time>2015-10-19T01:07:18Z</time>
      </trkpt>
      <trkpt lat="44.12542" lon="3.22373">
        <ele>425</ele>
        <time>2015-10-19T01:09:18Z</time>
      </trkpt>
      <trkpt lat="44.12536" lon="3.22363">
        <ele>423</ele>
        <time>2015-10-19T01:11:18Z</time>
      </trkpt>
      <trkpt lat="44.12532" lon="3.22355">
        <ele>422</ele>
        <time>2015-10-19T01:13:18Z</time>
      </trkpt>
      <trkpt lat="44.12521" lon="3.22336">
        <ele>419</ele>
        <time>2015-10-19T01:15:18Z</time>
      </trkpt>
      <trkpt lat="44.12511" lon="3.22327">
        <ele>416</ele>
        <time>2015-10-19T01:17:18Z</time>
      </trkpt>
      <trkpt lat="44.12501" lon="3.22318">
        <ele>414</ele>
        <time>2015-10-19T01:19:18Z</time>
      </trkpt>
      <trkpt lat="44.12494" lon="3.22311">
        <ele>414</ele>
        <time>2015-10-19T01:21:18Z</time>
      </trkpt>
      <trkpt lat="44.12483" lon="3.22309">
        <ele>412</ele>
        <time>2015-10-19T01:23:18Z</time>
      </trkpt>
      <trkpt lat="44.12474" lon="3.22294">
        <ele>412</ele>
        <time>2015-10-19T01:25:18Z</time>
      </trkpt>
      <trkpt lat="44.12466" lon="3.22283">
        <ele>411</ele>
        <time>2015-10-19T01:27:18Z</time>
      </trkpt>
      <trkpt lat="44.12462" lon="3.22276">
        <ele>411</ele>
        <time>2015-10-19T01:29:18Z</time>
      </trkpt>
      <trkpt lat="44.12452" lon="3.22276">
        <ele>410</ele>
        <time>2015-10-19T01:31:18Z</time>
      </trkpt>
      <trkpt lat="44.12447" lon="3.22278">
        <ele>410</ele>
        <time>2015-10-19T01:33:18Z</time>
      </trkpt>
      <trkpt lat="44.12444" lon="3.2226">
        <ele>410</ele>
        <time>2015-10-19T01:35:18Z</time>
      </trkpt>
      <trkpt lat="44.12446" lon="3.22252">
        <ele>410</ele>
        <time>2015-10-19T01:37:18Z</time>
      </trkpt>
      <trkpt lat="44.12455" lon="3.22236">
        <ele>413</ele>
        <time>2015-10-19T01:39:18Z</time>
      </trkpt>
      <trkpt lat="44.12457" lon="3.22229">
        <ele>414</ele>
        <time>2015-10-19T01:41:18Z</time>
      </trkpt>
      <trkpt lat="44.1245" lon="3.22211">
        <ele>415</ele>
        <time>2015-10-19T01:43:18Z</time>
      </trkpt>
      <trkpt lat="44.12437" lon="3.22221">
        <ele>413</ele>
        <time>2015-10-19T01:45:18Z</time>
      </trkpt>
      <trkpt lat="44.1243" lon="3.22229">
        <ele>411</ele>
        <time>2015-10-19T01:47:18Z</time>
      </trkpt>
      <trkpt lat="44.12421" lon="3.22248">
        <ele>409</ele>
        <time>2015-10-19T01:49:18Z</time>
      </trkpt>
      <trkpt lat="44.12422" lon="3.22262">
        <ele>408</ele>
        <time>2015-10-19T01:51:18Z</time>
      </trkpt>
      <trkpt lat="44.12423" lon="3.22265">
        <ele>408</ele>
        <time>2015-10-19T01:53:18Z</time>
      </trkpt>
      <trkpt lat="44.12419" lon="3.22281">
        <ele>407</ele>
        <time>2015-10-19T01:55:18Z</time>
      </trkpt>
      <trkpt lat="44.1241" lon="3.22293">
        <ele>406</ele>
        <time>2015-10-19T01:57:18Z</time>
      </trkpt>
      <trkpt lat="44.12407" lon="3.22294">
        <ele>406</ele>
        <time>2015-10-19T01:59:18Z</time>
      </trkpt>
      <trkpt lat="44.12395" lon="3.22299">
        <ele>406</ele>
        <time>2015-10-19T02:01:18Z</time>
      </trkpt>
      <trkpt lat="44.12384" lon="3.22287">
        <ele>406</ele>
        <time>2015-10-19T02:03:18Z</time>
      </trkpt>
      <trkpt lat="44.12381" lon="3.22286">
        <ele>406</ele>
        <time>2015-10-19T02:05:18Z</time>
      </trkpt>
      <trkpt lat="44.12372" lon="3.22281">
        <ele>405</ele>
        <time>2015-10-19T02:07:18Z</time>
      </trkpt>
      <trkpt lat="44.12364" lon="3.22271">
        <ele>405</ele>
        <time>2015-10-19T02:09:18Z</time>
      </trkpt>
      <trkpt lat="44.12356" lon="3.22257">
        <ele>403</ele>
        <time>2015-10-19T02:11:18Z</time>
      </trkpt>
      <trkpt lat="44.12352" lon="3.2225">
        <ele>403</ele>
        <time>2015-10-19T02:13:18Z</time>
      </trkpt>
      <trkpt lat="44.12344" lon="3.22241">
        <ele>402</ele>
        <time>2015-10-19T02:15:18Z</time>
      </trkpt>
      <trkpt lat="44.12332" lon="3.22229">
        <ele>402</ele>
        <time>2015-10-19T02:17:18Z</time>
      </trkpt>
      <trkpt lat="44.12326" lon="3.22219">
        <ele>404</ele>
        <time>2015-10-19T02:19:18Z</time>
      </trkpt>
      <trkpt lat="44.1233" lon="3.2222">
        <ele>403</ele>
        <time>2015-10-19T02:21:18Z</time>
      </trkpt>
      <trkpt lat="44.12334" lon="3.2221">
        <ele>403</ele>
        <time>2015-10-19T02:23:18Z</time>
      </trkpt>
      <trkpt lat="44.12328" lon="3.22192">
        <ele>404</ele>
        <time>2015-10-19T02:25:18Z</time>
      </trkpt>
      <trkpt lat="44.12326" lon="3.22183">
        <ele>405</ele>
        <time>2015-10-19T02:27:18Z</time>
      </trkpt>
      <trkpt lat="44.12325" lon="3.22171">
        <ele>405</ele>
        <time>2015-10-19T02:29:18Z</time>
      </trkpt>
      <trkpt lat="44.12309" lon="3.22172">
        <ele>408</ele>
        <time>2015-10-19T02:31:18Z</time>
      </trkpt>
      <trkpt lat="44.12294" lon="3.22173">
        <ele>411</ele>
        <time>2015-10-19T02:33:18Z</time>
      </trkpt>
      <trkpt lat="44.12286" lon="3.22173">
        <ele>412</ele>
        <time>2015-10-19T02:35:18Z</time>
      </trkpt>
      <trkpt lat="44.1228" lon="3.22174">
        <ele>413</ele>
        <time>2015-10-19T02:37:18Z</time>
      </trkpt>
      <trkpt lat="44.12273" lon="3.22174">
        <ele>414</ele>
        <time>2015-10-19T02:39:18Z</time>
      </trkpt>
      <trkpt lat="44.12264" lon="3.22175">
        <ele>416</ele>
        <time>2015-10-19T02:41:18Z</time>
      </trkpt>
      <trkpt lat="44.12255" lon="3.22171">
        <ele>417</ele>
        <time>2015-10-19T02:43:18Z</time>
      </trkpt>
      <trkpt lat="44.1225" lon="3.22165">
        <ele>417</ele>
        <time>2015-10-19T02:45:18Z</time>
      </trkpt>
      <trkpt lat="44.12245" lon="3.22151">
        <ele>420</ele>
        <time>2015-10-19T02:47:18Z</time>
      </trkpt>
      <trkpt lat="44.12243" lon="3.2214">
        <ele>421</ele>
        <time>2015-10-19T02:49:18Z</time>
      </trkpt>
      <trkpt lat="44.12244" lon="3.22131">
        <ele>419</ele>
        <time>2015-10-19T02:51:18Z</time>
      </trkpt>
      <trkpt lat="44.12238" lon="3.2212">
        <ele>422</ele>
        <time>2015-10-19T02:53:18Z</time>
      </trkpt>
      <trkpt lat="44.12238" lon="3.22118">
        <ele>422</ele>
        <time>2015-10-19T02:55:18Z</time>
      </trkpt>
      <trkpt lat="44.12238" lon="3.22122">
        <ele>423</ele>
        <time>2015-10-19T02:57:18Z</time>
      </trkpt>
      <trkpt lat="44.12235" lon="3.22141">
        <ele>428</ele>
        <time>2015-10-19T02:59:18Z</time>
      </trkpt>
      <trkpt lat="44.12235" lon="3.22144">
        <ele>428</ele>
        <time>2015-10-19T03:01:18Z</time>
      </trkpt>
      <trkpt lat="44.12235" lon="3.22147">
        <ele>429</ele>
        <time>2015-10-19T03:03:18Z</time>
      </trkpt>
      <trkpt lat="44.12236" lon="3.22156">
        <ele>429</ele>
        <time>2015-10-19T03:05:18Z</time>
      </trkpt>
      <trkpt lat="44.12238" lon="3.22165">
        <ele>428</ele>
        <time>2015-10-19T03:07:18Z</time>
      </trkpt>
      <trkpt lat="44.12242" lon="3.22174">
        <ele>426</ele>
        <time>2015-10-19T03:09:18Z</time>
      </trkpt>
      <trkpt lat="44.12243" lon="3.22176">
        <ele>426</ele>
        <time>2015-10-19T03:11:18Z</time>
      </trkpt>
      <trkpt lat="44.12248" lon="3.22185">
        <ele>422</ele>
        <time>2015-10-19T03:13:18Z</time>
      </trkpt>
      <trkpt lat="44.12252" lon="3.22195">
        <ele>422</ele>
        <time>2015-10-19T03:15:18Z</time>
      </trkpt>
      <trkpt lat="44.12253" lon="3.22199">
        <ele>422</ele>
        <time>2015-10-19T03:17:18Z</time>
      </trkpt>
      <trkpt lat="44.12252" lon="3.22201">
        <ele>423</ele>
        <time>2015-10-19T03:19:18Z</time>
      </trkpt>
      <trkpt lat="44.12249" lon="3.22203">
        <ele>425</ele>
        <time>2015-10-19T03:21:18Z</time>
      </trkpt>
      <trkpt lat="44.12247" lon="3.2221">
        <ele>428</ele>
        <time>2015-10-19T03:23:18Z</time>
      </trkpt>
      <trkpt lat="44.12246" lon="3.22215">
        <ele>430</ele>
        <time>2015-10-19T03:25:18Z</time>
      </trkpt>
      <trkpt lat="44.12245" lon="3.22219">
        <ele>432</ele>
        <time>2015-10-19T03:27:18Z</time>
      </trkpt>
      <trkpt lat="44.12248" lon="3.22225">
        <ele>430</ele>
        <time>2015-10-19T03:29:18Z</time>
      </trkpt>
      <trkpt lat="44.12249" lon="3.22229">
        <ele>430</ele>
        <time>2015-10-19T03:31:18Z</time>
      </trkpt>
      <trkpt lat="44.12249" lon="3.22238">
        <ele>432</ele>
        <time>2015-10-19T03:33:18Z</time>
      </trkpt>
      <trkpt lat="44.12249" lon="3.22241">
        <ele>432</ele>
        <time>2015-10-19T03:35:18Z</time>
      </trkpt>
      <trkpt lat="44.12252" lon="3.22244">
        <ele>431</ele>
        <time>2015-10-19T03:37:18Z</time>
      </trkpt>
      <trkpt lat="44.1225" lon="3.22252">
        <ele>434</ele>
        <time>2015-10-19T03:39:18Z</time>
      </trkpt>
      <trkpt lat="44.12249" lon="3.22254">
        <ele>435</ele>
        <time>2015-10-19T03:41:18Z</time>
      </trkpt>
      <trkpt lat="44.12247" lon="3.22264">
        <ele>440</ele>
        <time>2015-10-19T03:43:18Z</time>
      </trkpt>
      <trkpt lat="44.1225" lon="3.22271">
        <ele>439</ele>
        <time>2015-10-19T03:45:18Z</time>
      </trkpt>
      <trkpt lat="44.12252" lon="3.22277">
        <ele>440</ele>
        <time>2015-10-19T03:47:18Z</time>
      </trkpt>
      <trkpt lat="44.1225" lon="3.22285">
        <ele>443</ele>
        <time>2015-10-19T03:49:18Z</time>
      </trkpt>
      <trkpt lat="44.12249" lon="3.2229">
        <ele>445</ele>
        <time>2015-10-19T03:51:18Z</time>
      </trkpt>
      <trkpt lat="44.1225" lon="3.22297">
        <ele>447</ele>
        <time>2015-10-19T03:53:18Z</time>
      </trkpt>
      <trkpt lat="44.1225" lon="3.223">
        <ele>447</ele>
        <time>2015-10-19T03:55:18Z</time>
      </trkpt>
      <trkpt lat="44.12247" lon="3.22307">
        <ele>452</ele>
        <time>2015-10-19T03:57:18Z</time>
      </trkpt>
      <trkpt lat="44.12248" lon="3.22312">
        <ele>453</ele>
        <time>2015-10-19T03:59:18Z</time>
      </trkpt>
      <trkpt lat="44.1225" lon="3.22316">
        <ele>452</ele>
        <time>2015-10-19T04:01:18Z</time>
      </trkpt>
      <trkpt lat="44.12247" lon="3.22317">
        <ele>455</ele>
        <time>2015-10-19T04:03:18Z</time>
      </trkpt>
      <trkpt lat="44.12241" lon="3.22316">
        <ele>459</ele>
        <time>2015-10-19T04:05:18Z</time>
      </trkpt>
      <trkpt lat="44.12238" lon="3.22313">
        <ele>461</ele>
        <time>2015-10-19T04:07:18Z</time>
      </trkpt>
      <trkpt lat="44.12239" lon="3.22315">
        <ele>461</ele>
        <time>2015-10-19T04:09:18Z</time>
      </trkpt>
      <trkpt lat="44.12236" lon="3.22318">
        <ele>464</ele>
        <time>2015-10-19T04:11:18Z</time>
      </trkpt>
      <trkpt lat="44.12232" lon="3.22315">
        <ele>467</ele>
        <time>2015-10-19T04:13:18Z</time>
      </trkpt>
      <trkpt lat="44.1223" lon="3.22313">
        <ele>468</ele>
        <time>2015-10-19T04:15:18Z</time>
      </trkpt>
      <trkpt lat="44.12229" lon="3.22313">
        <ele>469</ele>
        <time>2015-10-19T04:17:18Z</time>
      </trkpt>
      <trkpt lat="44.1223" lon="3.22316">
        <ele>468</ele>
        <time>2015-10-19T04:19:18Z</time>
      </trkpt>
      <trkpt lat="44.12228" lon="3.22319">
        <ele>471</ele>
        <time>2015-10-19T04:21:18Z</time>
      </trkpt>
      <trkpt lat="44.1223" lon="3.22322">
        <ele>470</ele>
        <time>2015-10-19T04:23:18Z</time>
      </trkpt>
      <trkpt lat="44.12231" lon="3.22323">
        <ele>469</ele>
        <time>2015-10-19T04:25:18Z</time>
      </trkpt>
      <trkpt lat="44.12229" lon="3.22326">
        <ele>472</ele>
        <time>2015-10-19T04:27:18Z</time>
      </trkpt>
      <trkpt lat="44.1223" lon="3.22331">
        <ele>472</ele>
        <time>2015-10-19T04:29:18Z</time>
      </trkpt>
      <trkpt lat="44.12231" lon="3.22334">
        <ele>472</ele>
        <time>2015-10-19T04:31:18Z</time>
      </trkpt>
      <trkpt lat="44.12235" lon="3.22336">
        <ele>470</ele>
        <time>2015-10-19T04:33:18Z</time>
      </trkpt>
      <trkpt lat="44.12238" lon="3.22339">
        <ele>469</ele>
        <time>2015-10-19T04:35:18Z</time>
      </trkpt>
      <trkpt lat="44.12241" lon="3.22345">
        <ele>470</ele>
        <time>2015-10-19T04:37:18Z</time>
      </trkpt>
      <trkpt lat="44.1224" lon="3.22351">
        <ele>473</ele>
        <time>2015-10-19T04:39:18Z</time>
      </trkpt>
      <trkpt lat="44.12239" lon="3.22353">
        <ele>475</ele>
        <time>2015-10-19T04:41:18Z</time>
      </trkpt>
      <trkpt lat="44.12237" lon="3.22353">
        <ele>477</ele>
        <time>2015-10-19T04:43:18Z</time>
      </trkpt>
      <trkpt lat="44.12234" lon="3.22351">
        <ele>478</ele>
        <time>2015-10-19T04:45:18Z</time>
      </trkpt>
      <trkpt lat="44.12232" lon="3.22349">
        <ele>478</ele>
        <time>2015-10-19T04:47:18Z</time>
      </trkpt>
      <trkpt lat="44.1223" lon="3.22349">
        <ele>480</ele>
        <time>2015-10-19T04:49:18Z</time>
      </trkpt>
      <trkpt lat="44.12227" lon="3.22349">
        <ele>482</ele>
        <time>2015-10-19T04:51:18Z</time>
      </trkpt>
      <trkpt lat="44.12223" lon="3.2235">
        <ele>486</ele>
        <time>2015-10-19T04:53:18Z</time>
      </trkpt>
      <trkpt lat="44.12217" lon="3.22352">
        <ele>491</ele>
        <time>2015-10-19T04:55:18Z</time>
      </trkpt>
      <trkpt lat="44.12217" lon="3.22356">
        <ele>493</ele>
        <time>2015-10-19T04:57:18Z</time>
      </trkpt>
      <trkpt lat="44.12218" lon="3.22357">
        <ele>492</ele>
        <time>2015-10-19T04:59:18Z</time>
      </trkpt>
      <trkpt lat="44.1222" lon="3.2236">
        <ele>492</ele>
        <time>2015-10-19T05:01:18Z</time>
      </trkpt>
      <trkpt lat="44.12221" lon="3.22363">
        <ele>493</ele>
        <time>2015-10-19T05:03:18Z</time>
      </trkpt>
      <trkpt lat="44.12222" lon="3.22364">
        <ele>492</ele>
        <time>2015-10-19T05:05:18Z</time>
      </trkpt>
      <trkpt lat="44.12225" lon="3.22368">
        <ele>492</ele>
        <time>2015-10-19T05:07:18Z</time>
      </trkpt>
      <trkpt lat="44.12235" lon="3.22375">
        <ele>488</ele>
        <time>2015-10-19T05:09:18Z</time>
      </trkpt>
      <trkpt lat="44.12238" lon="3.2238">
        <ele>488</ele>
        <time>2015-10-19T05:11:18Z</time>
      </trkpt>
      <trkpt lat="44.12239" lon="3.22385">
        <ele>490</ele>
        <time>2015-10-19T05:13:18Z</time>
      </trkpt>
      <trkpt lat="44.12241" lon="3.22393">
        <ele>493</ele>
        <time>2015-10-19T05:15:18Z</time>
      </trkpt>
      <trkpt lat="44.12243" lon="3.22403">
        <ele>496</ele>
        <time>2015-10-19T05:17:18Z</time>
      </trkpt>
      <trkpt lat="44.12239" lon="3.22408">
        <ele>501</ele>
        <time>2015-10-19T05:19:18Z</time>
      </trkpt>
      <trkpt lat="44.12237" lon="3.22411">
        <ele>504</ele>
        <time>2015-10-19T05:21:18Z</time>
      </trkpt>
      <trkpt lat="44.12239" lon="3.22416">
        <ele>505</ele>
        <time>2015-10-19T05:23:18Z</time>
      </trkpt>
      <trkpt lat="44.12239" lon="3.22418">
        <ele>506</ele>
        <time>2015-10-19T05:25:18Z</time>
      </trkpt>
      <trkpt lat="44.12241" lon="3.22424">
        <ele>506</ele>
        <time>2015-10-19T05:27:18Z</time>
      </trkpt>
      <trkpt lat="44.12243" lon="3.22429">
        <ele>507</ele>
        <time>2015-10-19T05:29:18Z</time>
      </trkpt>
      <trkpt lat="44.12245" lon="3.22433">
        <ele>507</ele>
        <time>2015-10-19T05:31:18Z</time>
      </trkpt>
      <trkpt lat="44.12248" lon="3.22437">
        <ele>507</ele>
        <time>2015-10-19T05:33:18Z</time>
      </trkpt>
      <trkpt lat="44.12252" lon="3.22441">
        <ele>506</ele>
        <time>2015-10-19T05:35:18Z</time>
      </trkpt>
      <trkpt lat="44.12257" lon="3.22445">
        <ele>503</ele>
        <time>2015-10-19T05:37:18Z</time>
      </trkpt>
      <trkpt lat="44.1226" lon="3.22447">
        <ele>502</ele>
        <time>2015-10-19T05:39:18Z</time>
      </trkpt>
      <trkpt lat="44.12265" lon="3.2245">
        <ele>499</ele>
        <time>2015-10-19T05:41:18Z</time>
      </trkpt>
      <trkpt lat="44.12266" lon="3.22458">
        <ele>501</ele>
        <time>2015-10-19T05:43:18Z</time>
      </trkpt>
      <trkpt lat="44.12266" lon="3.2246">
        <ele>501</ele>
        <time>2015-10-19T05:45:18Z</time>
      </trkpt>
      <trkpt lat="44.12264" lon="3.22469">
        <ele>506</ele>
        <time>2015-10-19T05:47:18Z</time>
      </trkpt>
      <trkpt lat="44.12265" lon="3.22476">
        <ele>508</ele>
        <time>2015-10-19T05:49:18Z</time>
      </trkpt>
      <trkpt lat="44.12264" lon="3.22483">
        <ele>511</ele>
        <time>2015-10-19T05:51:18Z</time>
      </trkpt>
      <trkpt lat="44.12264" lon="3.22485">
        <ele>511</ele>
        <time>2015-10-19T05:53:18Z</time>
      </trkpt>
      <trkpt lat="44.12261" lon="3.2249">
        <ele>515</ele>
        <time>2015-10-19T05:55:18Z</time>
      </trkpt>
      <trkpt lat="44.12258" lon="3.22497">
        <ele>520</ele>
        <time>2015-10-19T05:57:18Z</time>
      </trkpt>
      <trkpt lat="44.12255" lon="3.22504">
        <ele>523</ele>
        <time>2015-10-19T05:59:18Z</time>
      </trkpt>
      <trkpt lat="44.12254" lon="3.22512">
        <ele>524</ele>
        <time>2015-10-19T06:01:18Z</time>
      </trkpt>
      <trkpt lat="44.12256" lon="3.22521">
        <ele>522</ele>
        <time>2015-10-19T06:03:18Z</time>
      </trkpt>
      <trkpt lat="44.12255" lon="3.22523">
        <ele>523</ele>
        <time>2015-10-19T06:05:18Z</time>
      </trkpt>
      <trkpt lat="44.12255" lon="3.22533">
        <ele>523</ele>
        <time>2015-10-19T06:07:18Z</time>
      </trkpt>
      <trkpt lat="44.1225" lon="3.2254">
        <ele>526</ele>
        <time>2015-10-19T06:09:18Z</time>
      </trkpt>
      <trkpt lat="44.12249" lon="3.22541">
        <ele>526</ele>
        <time>2015-10-19T06:11:18Z</time>
      </trkpt>
      <trkpt lat="44.12246" lon="3.22549">
        <ele>527</ele>
        <time>2015-10-19T06:13:18Z</time>
      </trkpt>
      <trkpt lat="44.12238" lon="3.22545">
        <ele>530</ele>
        <time>2015-10-19T06:15:18Z</time>
      </trkpt>
      <trkpt lat="44.12236" lon="3.2254">
        <ele>531</ele>
        <time>2015-10-19T06:17:18Z</time>
      </trkpt>
      <trkpt lat="44.12233" lon="3.22539">
        <ele>533</ele>
        <time>2015-10-19T06:19:18Z</time>
      </trkpt>
      <trkpt lat="44.1223" lon="3.22534">
        <ele>534</ele>
        <time>2015-10-19T06:21:18Z</time>
      </trkpt>
      <trkpt lat="44.12227" lon="3.22532">
        <ele>535</ele>
        <time>2015-10-19T06:23:18Z</time>
      </trkpt>
      <trkpt lat="44.12226" lon="3.22527">
        <ele>536</ele>
        <time>2015-10-19T06:25:18Z</time>
      </trkpt>
      <trkpt lat="44.12224" lon="3.22524">
        <ele>537</ele>
        <time>2015-10-19T06:27:18Z</time>
      </trkpt>
      <trkpt lat="44.12215" lon="3.22522">
        <ele>541</ele>
        <time>2015-10-19T06:29:18Z</time>
      </trkpt>
      <trkpt lat="44.12211" lon="3.22516">
        <ele>543</ele>
        <time>2015-10-19T06:31:18Z</time>
      </trkpt>
      <trkpt lat="44.12205" lon="3.22512">
        <ele>546</ele>
        <time>2015-10-19T06:33:18Z</time>
      </trkpt>
      <trkpt lat="44.12201" lon="3.22514">
        <ele>548</ele>
        <time>2015-10-19T06:35:18Z</time>
      </trkpt>
      <trkpt lat="44.12198" lon="3.22516">
        <ele>549</ele>
        <time>2015-10-19T06:37:18Z</time>
      </trkpt>
      <trkpt lat="44.12196" lon="3.2252">
        <ele>549</ele>
        <time>2015-10-19T06:39:18Z</time>
      </trkpt>
      <trkpt lat="44.12193" lon="3.22526">
        <ele>550</ele>
        <time>2015-10-19T06:41:18Z</time>
      </trkpt>
      <trkpt lat="44.12185" lon="3.22532">
        <ele>552</ele>
        <time>2015-10-19T06:43:18Z</time>
      </trkpt>
      <trkpt lat="44.12184" lon="3.22533">
        <ele>553</ele>
        <time>2015-10-19T06:45:18Z</time>
      </trkpt>
      <trkpt lat="44.12182" lon="3.22534">
        <ele>553</ele>
        <time>2015-10-19T06:47:18Z</time>
      </trkpt>
      <trkpt lat="44.12177" lon="3.22535">
        <ele>555</ele>
        <time>2015-10-19T06:49:18Z</time>
      </trkpt>
      <trkpt lat="44.12174" lon="3.22538">
        <ele>556</ele>
        <time>2015-10-19T06:51:18Z</time>
      </trkpt>
      <trkpt lat="44.12165" lon="3.22544">
        <ele>558</ele>
        <time>2015-10-19T06:53:18Z</time>
      </trkpt>
      <trkpt lat="44.1216" lon="3.22544">
        <ele>560</ele>
        <time>2015-10-19T06:55:18Z</time>
      </trkpt>
      <trkpt lat="44.12153" lon="3.22548">
        <ele>562</ele>
        <time>2015-10-19T06:57:18Z</time>
      </trkpt>
      <trkpt lat="44.12152" lon="3.22549">
        <ele>562</ele>
        <time>2015-10-19T06:59:18Z</time>
      </trkpt>
      <trkpt lat="44.12145" lon="3.22555">
        <ele>564</ele>
        <time>2015-10-19T07:01:18Z</time>
      </trkpt>
      <trkpt lat="44.12141" lon="3.22557">
        <ele>565</ele>
        <time>2015-10-19T07:03:18Z</time>
      </trkpt>
      <trkpt lat="44.12139" lon="3.22559">
        <ele>566</ele>
        <time>2015-10-19T07:05:18Z</time>
      </trkpt>
      <trkpt lat="44.12134" lon="3.22561">
        <ele>567</ele>
        <time>2015-10-19T07:07:18Z</time>
      </trkpt>
      <trkpt lat="44.12133" lon="3.22562">
        <ele>567</ele>
        <time>2015-10-19T07:09:18Z</time>
      </trkpt>
      <trkpt lat="44.12131" lon="3.22562">
        <ele>568</ele>
        <time>2015-10-19T07:11:18Z</time>
      </trkpt>
      <trkpt lat="44.12127" lon="3.22563">
        <ele>569</ele>
        <time>2015-10-19T07:13:18Z</time>
      </trkpt>
      <trkpt lat="44.12123" lon="3.22568">
        <ele>570</ele>
        <time>2015-10-19T07:15:18Z</time>
      </trkpt>
      <trkpt lat="44.12121" lon="3.22572">
        <ele>570</ele>
        <time>2015-10-19T07:17:18Z</time>
      </trkpt>
      <trkpt lat="44.12115" lon="3.22583">
        <ele>570</ele>
        <time>2015-10-19T07:19:18Z</time>
      </trkpt>
      <trkpt lat="44.12109" lon="3.22593">
        <ele>571</ele>
        <time>2015-10-19T07:21:18Z</time>
      </trkpt>
      <trkpt lat="44.12104" lon="3.22608">
        <ele>570</ele>
        <time>2015-10-19T07:23:18Z</time>
      </trkpt>
      <trkpt lat="44.12099" lon="3.22626">
        <ele>570</ele>
        <time>2015-10-19T07:25:18Z</time>
      </trkpt>
      <trkpt lat="44.12093" lon="3.22636">
        <ele>570</ele>
        <time>2015-10-19T07:27:18Z</time>
      </trkpt>
      <trkpt lat="44.1209" lon="3.22655">
        <ele>569</ele>
        <time>2015-10-19T07:29:18Z</time>
      </trkpt>
      <trkpt lat="44.12088" lon="3.22662">
        <ele>569</ele>
        <time>2015-10-19T07:31:18Z</time>
      </trkpt>
      <trkpt lat="44.12082" lon="3.22681">
        <ele>567</ele>
        <time>2015-10-19T07:33:18Z</time>
      </trkpt>
      <trkpt lat="44.1208" lon="3.22685">
        <ele>567</ele>
        <time>2015-10-19T07:35:18Z</time>
      </trkpt>
      <trkpt lat="44.12078" lon="3.22704">
        <ele>562</ele>
        <time>2015-10-19T07:37:18Z</time>
      </trkpt>
      <trkpt lat="44.12074" lon="3.22713">
        <ele>561</ele>
        <time>2015-10-19T07:39:18Z</time>
      </trkpt>
      <trkpt lat="44.12073" lon="3.22714">
        <ele>561</ele>
        <time>2015-10-19T07:41:18Z</time>
      </trkpt>
      <trkpt lat="44.12063" lon="3.22717">
        <ele>563</ele>
        <time>2015-10-19T07:43:18Z</time>
      </trkpt>
      <trkpt lat="44.1206" lon="3.22714">
        <ele>565</ele>
        <time>2015-10-19T07:45:18Z</time>
      </trkpt>
      <trkpt lat="44.12059" lon="3.22714">
        <ele>565</ele>
        <time>2015-10-19T07:47:18Z</time>
      </trkpt>
      <trkpt lat="44.12054" lon="3.2271">
        <ele>567</ele>
        <time>2015-10-19T07:49:18Z</time>
      </trkpt>
      <trkpt lat="44.12049" lon="3.22707">
        <ele>570</ele>
        <time>2015-10-19T07:51:18Z</time>
      </trkpt>
      <trkpt lat="44.12042" lon="3.22703">
        <ele>573</ele>
        <time>2015-10-19T07:53:18Z</time>
      </trkpt>
      <trkpt lat="44.12041" lon="3.22702">
        <ele>573</ele>
        <time>2015-10-19T07:55:18Z</time>
      </trkpt>
      <trkpt lat="44.12034" lon="3.22697">
        <ele>576</ele>
        <time>2015-10-19T07:57:18Z</time>
      </trkpt>
      <trkpt lat="44.12029" lon="3.22694">
        <ele>579</ele>
        <time>2015-10-19T07:59:18Z</time>
      </trkpt>
      <trkpt lat="44.12019" lon="3.22696">
        <ele>581</ele>
        <time>2015-10-19T08:01:18Z</time>
      </trkpt>
      <trkpt lat="44.12016" lon="3.22698">
        <ele>581</ele>
        <time>2015-10-19T08:03:18Z</time>
      </trkpt>
      <trkpt lat="44.12008" lon="3.22696">
        <ele>584</ele>
        <time>2015-10-19T08:05:18Z</time>
      </trkpt>
      <trkpt lat="44.12002" lon="3.22696">
        <ele>586</ele>
        <time>2015-10-19T08:07:18Z</time>
      </trkpt>
      <trkpt lat="44.11998" lon="3.22695">
        <ele>587</ele>
        <time>2015-10-19T08:09:18Z</time>
      </trkpt>
      <trkpt lat="44.11991" lon="3.22693">
        <ele>590</ele>
        <time>2015-10-19T08:11:18Z</time>
      </trkpt>
      <trkpt lat="44.1199" lon="3.22693">
        <ele>590</ele>
        <time>2015-10-19T08:13:18Z</time>
      </trkpt>
      <trkpt lat="44.11984" lon="3.22691">
        <ele>592</ele>
        <time>2015-10-19T08:15:18Z</time>
      </trkpt>
      <trkpt lat="44.11982" lon="3.22692">
        <ele>593</ele>
        <time>2015-10-19T08:17:18Z</time>
      </trkpt>
      <trkpt lat="44.11975" lon="3.22691">
        <ele>595</ele>
        <time>2015-10-19T08:19:18Z</time>
      </trkpt>
      <trkpt lat="44.11975" lon="3.22691">
        <ele>595</ele>
        <time>2015-10-19T08:21:18Z</time>
      </trkpt>
      <trkpt lat="44.1197" lon="3.22695">
        <ele>595</ele>
        <time>2015-10-19T08:23:18Z</time>
      </trkpt>
      <trkpt lat="44.11963" lon="3.22696">
        <ele>597</ele>
        <time>2015-10-19T08:25:18Z</time>
      </trkpt>
      <trkpt lat="44.11962" lon="3.22696">
        <ele>597</ele>
        <time>2015-10-19T08:27:18Z</time>
      </trkpt>
      <trkpt lat="44.11958" lon="3.22698">
        <ele>597</ele>
        <time>2015-10-19T08:29:18Z</time>
      </trkpt>
      <trkpt lat="44.11949" lon="3.227">
        <ele>599</ele>
        <time>2015-10-19T08:31:18Z</time>
      </trkpt>
      <trkpt lat="44.11943" lon="3.22702">
        <ele>600</ele>
        <time>2015-10-19T08:33:18Z</time>
      </trkpt>
      <trkpt lat="44.11941" lon="3.22703">
        <ele>600</ele>
        <time>2015-10-19T08:35:18Z</time>
      </trkpt>
      <trkpt lat="44.11938" lon="3.22704">
        <ele>601</ele>
        <time>2015-10-19T08:37:18Z</time>
      </trkpt>
      <trkpt lat="44.11935" lon="3.22704">
        <ele>602</ele>
        <time>2015-10-19T08:39:18Z</time>
      </trkpt>
      <trkpt lat="44.11926" lon="3.22704">
        <ele>604</ele>
        <time>2015-10-19T08:41:18Z</time>
      </trkpt>
      <trkpt lat="44.11925" lon="3.22706">
        <ele>604</ele>
        <time>2015-10-19T08:43:18Z</time>
      </trkpt>
      <trkpt lat="44.11919" lon="3.22708">
        <ele>604</ele>
        <time>2015-10-19T08:45:18Z</time>
      </trkpt>
      <trkpt lat="44.11915" lon="3.2271">
        <ele>605</ele>
        <time>2015-10-19T08:47:18Z</time>
      </trkpt>
      <trkpt lat="44.11909" lon="3.22715">
        <ele>605</ele>
        <time>2015-10-19T08:49:18Z</time>
      </trkpt>
      <trkpt lat="44.11905" lon="3.22716">
        <ele>606</ele>
        <time>2015-10-19T08:51:18Z</time>
      </trkpt>
      <trkpt lat="44.11893" lon="3.22719">
        <ele>609</ele>
        <time>2015-10-19T08:53:18Z</time>
      </trkpt>
      <trkpt lat="44.11877" lon="3.22729">
        <ele>610</ele>
        <time>2015-10-19T08:55:18Z</time>
      </trkpt>
      <trkpt lat="44.11875" lon="3.22729">
        <ele>610</ele>
        <time>2015-10-19T08:57:18Z</time>
      </trkpt>
      <trkpt lat="44.11867" lon="3.22729">
        <ele>613</ele>
        <time>2015-10-19T08:59:18Z</time>
      </trkpt>
      <trkpt lat="44.11857" lon="3.22728">
        <ele>617</ele>
        <time>2015-10-19T09:01:18Z</time>
      </trkpt>
      <trkpt lat="44.11852" lon="3.22732">
        <ele>616</ele>
        <time>2015-10-19T09:03:18Z</time>
      </trkpt>
      <trkpt lat="44.11846" lon="3.22734">
        <ele>617</ele>
        <time>2015-10-19T09:05:18Z</time>
      </trkpt>
      <trkpt lat="44.11842" lon="3.22739">
        <ele>616</ele>
        <time>2015-10-19T09:07:18Z</time>
      </trkpt>
      <trkpt lat="44.11837" lon="3.2274">
        <ele>618</ele>
        <time>2015-10-19T09:09:18Z</time>
      </trkpt>
      <trkpt lat="44.11831" lon="3.22739">
        <ele>620</ele>
        <time>2015-10-19T09:11:18Z</time>
      </trkpt>
      <trkpt lat="44.11825" lon="3.22738">
        <ele>622</ele>
        <time>2015-10-19T09:13:18Z</time>
      </trkpt>
      <trkpt lat="44.11817" lon="3.22738">
        <ele>624</ele>
        <time>2015-10-19T09:15:18Z</time>
      </trkpt>
      <trkpt lat="44.11807" lon="3.2274">
        <ele>625</ele>
        <time>2015-10-19T09:17:18Z</time>
      </trkpt>
      <trkpt lat="44.11806" lon="3.22742">
        <ele>625</ele>
        <time>2015-10-19T09:19:18Z</time>
      </trkpt>
      <trkpt lat="44.11804" lon="3.22743">
        <ele>625</ele>
        <time>2015-10-19T09:21:18Z</time>
      </trkpt>
      <trkpt lat="44.11797" lon="3.22744">
        <ele>626</ele>
        <time>2015-10-19T09:23:18Z</time>
      </trkpt>
      <trkpt lat="44.11795" lon="3.22745">
        <ele>626</ele>
        <time>2015-10-19T09:25:18Z</time>
      </trkpt>
      <trkpt lat="44.11793" lon="3.22747">
        <ele>625</ele>
        <time>2015-10-19T09:27:18Z</time>
      </trkpt>
      <trkpt lat="44.11792" lon="3.22748">
        <ele>625</ele>
        <time>2015-10-19T09:29:18Z</time>
      </trkpt>
      <trkpt lat="44.11786" lon="3.22749">
        <ele>626</ele>
        <time>2015-10-19T09:31:18Z</time>
      </trkpt>
      <trkpt lat="44.11781" lon="3.22751">
        <ele>626</ele>
        <time>2015-10-19T09:33:18Z</time>
      </trkpt>
      <trkpt lat="44.11772" lon="3.22749">
        <ele>629</ele>
        <time>2015-10-19T09:35:18Z</time>
      </trkpt>
      <trkpt lat="44.11761" lon="3.22751">
        <ele>631</ele>
        <time>2015-10-19T09:37:18Z</time>
      </trkpt>
      <trkpt lat="44.11751" lon="3.22748">
        <ele>635</ele>
        <time>2015-10-19T09:39:18Z</time>
      </trkpt>
      <trkpt lat="44.11748" lon="3.22745">
        <ele>638</ele>
        <time>2015-10-19T09:41:18Z</time>
      </trkpt>
      <trkpt lat="44.11742" lon="3.22746">
        <ele>639</ele>
        <time>2015-10-19T09:43:18Z</time>
      </trkpt>
      <trkpt lat="44.11737" lon="3.2275">
        <ele>639</ele>
        <time>2015-10-19T09:45:18Z</time>
      </trkpt>
      <trkpt lat="44.11735" lon="3.22751">
        <ele>640</ele>
        <time>2015-10-19T09:47:18Z</time>
      </trkpt>
      <trkpt lat="44.11727" lon="3.2276">
        <ele>639</ele>
        <time>2015-10-19T09:49:18Z</time>
      </trkpt>
      <trkpt lat="44.11721" lon="3.22774">
        <ele>636</ele>
        <time>2015-10-19T09:51:18Z</time>
      </trkpt>
      <trkpt lat="44.11709" lon="3.22787">
        <ele>637</ele>
        <time>2015-10-19T09:53:18Z</time>
      </trkpt>
      <trkpt lat="44.11699" lon="3.22792">
        <ele>639</ele>
        <time>2015-10-19T09:55:18Z</time>
      </trkpt>
      <trkpt lat="44.11689" lon="3.2279">
        <ele>645</ele>
        <time>2015-10-19T09:57:18Z</time>
      </trkpt>
      <trkpt lat="44.1168" lon="3.22792">
        <ele>648</ele>
        <time>2015-10-19T09:59:18Z</time>
      </trkpt>
      <trkpt lat="44.11672" lon="3.22791">
        <ele>652</ele>
        <time>2015-10-19T10:01:18Z</time>
      </trkpt>
      <trkpt lat="44.11667" lon="3.22791">
        <ele>655</ele>
        <time>2015-10-19T10:03:18Z</time>
      </trkpt>
      <trkpt lat="44.11665" lon="3.22795">
        <ele>654</ele>
        <time>2015-10-19T10:05:18Z</time>
      </trkpt>
      <trkpt lat="44.11662" lon="3.22806">
        <ele>653</ele>
        <time>2015-10-19T10:07:18Z</time>
      </trkpt>
      <trkpt lat="44.11661" lon="3.22815">
        <ele>651</ele>
        <time>2015-10-19T10:09:18Z</time>
      </trkpt>
      <trkpt lat="44.11655" lon="3.22823">
        <ele>652</ele>
        <time>2015-10-19T10:11:18Z</time>
      </trkpt>
      <trkpt lat="44.11648" lon="3.22833">
        <ele>653</ele>
        <time>2015-10-19T10:13:18Z</time>
      </trkpt>
      <trkpt lat="44.11645" lon="3.22839">
        <ele>654</ele>
        <time>2015-10-19T10:15:18Z</time>
      </trkpt>
      <trkpt lat="44.11643" lon="3.22844">
        <ele>655</ele>
        <time>2015-10-19T10:17:18Z</time>
      </trkpt>
      <trkpt lat="44.11642" lon="3.22847">
        <ele>655</ele>
        <time>2015-10-19T10:19:18Z</time>
      </trkpt>
      <trkpt lat="44.11637" lon="3.22854">
        <ele>657</ele>
        <time>2015-10-19T10:21:18Z</time>
      </trkpt>
      <trkpt lat="44.11635" lon="3.22858">
        <ele>658</ele>
        <time>2015-10-19T10:23:18Z</time>
      </trkpt>
      <trkpt lat="44.11631" lon="3.22864">
        <ele>660</ele>
        <time>2015-10-19T10:25:18Z</time>
      </trkpt>
      <trkpt lat="44.11626" lon="3.2287">
        <ele>662</ele>
        <time>2015-10-19T10:27:18Z</time>
      </trkpt>
      <trkpt lat="44.11622" lon="3.22876">
        <ele>664</ele>
        <time>2015-10-19T10:29:18Z</time>
      </trkpt>
      <trkpt lat="44.11621" lon="3.22878">
        <ele>664</ele>
        <time>2015-10-19T10:31:18Z</time>
      </trkpt>
      <trkpt lat="44.11623" lon="3.22886">
        <ele>663</ele>
        <time>2015-10-19T10:33:18Z</time>
      </trkpt>
      <trkpt lat="44.11626" lon="3.22891">
        <ele>661</ele>
        <time>2015-10-19T10:35:18Z</time>
      </trkpt>
      <trkpt lat="44.11631" lon="3.22894">
        <ele>658</ele>
        <time>2015-10-19T10:37:18Z</time>
      </trkpt>
      <trkpt lat="44.11637" lon="3.22898">
        <ele>654</ele>
        <time>2015-10-19T10:39:18Z</time>
      </trkpt>
      <trkpt lat="44.11637" lon="3.22899">
        <ele>654</ele>
        <time>2015-10-19T10:41:18Z</time>
      </trkpt>
      <trkpt lat="44.1164" lon="3.22903">
        <ele>652</ele>
        <time>2015-10-19T10:43:18Z</time>
      </trkpt>
      <trkpt lat="44.11639" lon="3.22911">
        <ele>652</ele>
        <time>2015-10-19T10:45:18Z</time>
      </trkpt>
      <trkpt lat="44.11636" lon="3.22912">
        <ele>654</ele>
        <time>2015-10-19T10:47:18Z</time>
      </trkpt>
      <trkpt lat="44.1163" lon="3.22909">
        <ele>657</ele>
        <time>2015-10-19T10:49:18Z</time>
      </trkpt>
      <trkpt lat="44.11623" lon="3.22907">
        <ele>661</ele>
        <time>2015-10-19T10:51:18Z</time>
      </trkpt>
      <trkpt lat="44.1162" lon="3.22907">
        <ele>663</ele>
        <time>2015-10-19T10:53:18Z</time>
      </trkpt>
      <trkpt lat="44.11614" lon="3.22906">
        <ele>666</ele>
        <time>2015-10-19T10:55:18Z</time>
      </trkpt>
      <trkpt lat="44.11609" lon="3.22905">
        <ele>669</ele>
        <time>2015-10-19T10:57:18Z</time>
      </trkpt>
      <trkpt lat="44.11607" lon="3.22904">
        <ele>670</ele>
        <time>2015-10-19T10:59:18Z</time>
      </trkpt>
      <trkpt lat="44.11604" lon="3.22902">
        <ele>672</ele>
        <time>2015-10-19T11:01:18Z</time>
      </trkpt>
      <trkpt lat="44.11599" lon="3.229">
        <ele>675</ele>
        <time>2015-10-19T11:03:18Z</time>
      </trkpt>
      <trkpt lat="44.11594" lon="3.22898">
        <ele>678</ele>
        <time>2015-10-19T11:05:18Z</time>
      </trkpt>
      <trkpt lat="44.11589" lon="3.22896">
        <ele>681</ele>
        <time>2015-10-19T11:07:18Z</time>
      </trkpt>
      <trkpt lat="44.11579" lon="3.22889">
        <ele>686</ele>
        <time>2015-10-19T11:09:18Z</time>
      </trkpt>
      <trkpt lat="44.11574" lon="3.22886">
        <ele>688</ele>
        <time>2015-10-19T11:11:18Z</time>
      </trkpt>
      <trkpt lat="44.11571" lon="3.22883">
        <ele>689</ele>
        <time>2015-10-19T11:13:18Z</time>
      </trkpt>
      <trkpt lat="44.11564" lon="3.22886">
        <ele>692</ele>
        <time>2015-10-19T11:15:18Z</time>
      </trkpt>
      <trkpt lat="44.11556" lon="3.22882">
        <ele>695</ele>
        <time>2015-10-19T11:17:18Z</time>
      </trkpt>
      <trkpt lat="44.11555" lon="3.22881">
        <ele>695</ele>
        <time>2015-10-19T11:19:18Z</time>
      </trkpt>
      <trkpt lat="44.11553" lon="3.22884">
        <ele>696</ele>
        <time>2015-10-19T11:21:18Z</time>
      </trkpt>
      <trkpt lat="44.11547" lon="3.22879">
        <ele>698</ele>
        <time>2015-10-19T11:23:18Z</time>
      </trkpt>
      <trkpt lat="44.11548" lon="3.22877">
        <ele>698</ele>
        <time>2015-10-19T11:25:18Z</time>
      </trkpt>
      <trkpt lat="44.11547" lon="3.22874">
        <ele>699</ele>
        <time>2015-10-19T11:27:18Z</time>
      </trkpt>
      <trkpt lat="44.11543" lon="3.22873">
        <ele>700</ele>
        <time>2015-10-19T11:29:18Z</time>
      </trkpt>
      <trkpt lat="44.11539" lon="3.22873">
        <ele>702</ele>
        <time>2015-10-19T11:31:18Z</time>
      </trkpt>
      <trkpt lat="44.11534" lon="3.22874">
        <ele>704</ele>
        <time>2015-10-19T11:33:18Z</time>
      </trkpt>
      <trkpt lat="44.11532" lon="3.22879">
        <ele>704</ele>
        <time>2015-10-19T11:35:18Z</time>
      </trkpt>
      <trkpt lat="44.11531" lon="3.22881">
        <ele>704</ele>
        <time>2015-10-19T11:37:18Z</time>
      </trkpt>
      <trkpt lat="44.11528" lon="3.22882">
        <ele>705</ele>
        <time>2015-10-19T11:39:18Z</time>
      </trkpt>
      <trkpt lat="44.11526" lon="3.22881">
        <ele>706</ele>
        <time>2015-10-19T11:41:18Z</time>
      </trkpt>
      <trkpt lat="44.11523" lon="3.22882">
        <ele>707</ele>
        <time>2015-10-19T11:43:18Z</time>
      </trkpt>
      <trkpt lat="44.11521" lon="3.22885">
        <ele>708</ele>
        <time>2015-10-19T11:45:18Z</time>
      </trkpt>
      <trkpt lat="44.11512" lon="3.22885">
        <ele>711</ele>
        <time>2015-10-19T11:47:18Z</time>
      </trkpt>
      <trkpt lat="44.11511" lon="3.22885">
        <ele>711</ele>
        <time>2015-10-19T11:49:18Z</time>
      </trkpt>
      <trkpt lat="44.11507" lon="3.22887">
        <ele>713</ele>
        <time>2015-10-19T11:51:18Z</time>
      </trkpt>
      <trkpt lat="44.11502" lon="3.22887">
        <ele>714</ele>
        <time>2015-10-19T11:53:18Z</time>
      </trkpt>
      <trkpt lat="44.11497" lon="3.22881">
        <ele>716</ele>
        <time>2015-10-19T11:55:18Z</time>
      </trkpt>
      <trkpt lat="44.11494" lon="3.22882">
        <ele>717</ele>
        <time>2015-10-19T11:57:18Z</time>
      </trkpt>
      <trkpt lat="44.11492" lon="3.22887">
        <ele>717</ele>
        <time>2015-10-19T11:59:18Z</time>
      </trkpt>
      <trkpt lat="44.11492" lon="3.22888">
        <ele>717</ele>
        <time>2015-10-19T12:01:18Z</time>
      </trkpt>
      <trkpt lat="44.11491" lon="3.22896">
        <ele>716</ele>
        <time>2015-10-19T12:03:18Z</time>
      </trkpt>
      <trkpt lat="44.11491" lon="3.22902">
        <ele>716</ele>
        <time>2015-10-19T12:05:18Z</time>
      </trkpt>
      <trkpt lat="44.11491" lon="3.22911">
        <ele>715</ele>
        <time>2015-10-19T12:07:18Z</time>
      </trkpt>
      <trkpt lat="44.11487" lon="3.22916">
        <ele>716</ele>
        <time>2015-10-19T12:09:18Z</time>
      </trkpt>
      <trkpt lat="44.1148" lon="3.22919">
        <ele>717</ele>
        <time>2015-10-19T12:11:18Z</time>
      </trkpt>
      <trkpt lat="44.11477" lon="3.2292">
        <ele>718</ele>
        <time>2015-10-19T12:13:18Z</time>
      </trkpt>
      <trkpt lat="44.11473" lon="3.22918">
        <ele>719</ele>
        <time>2015-10-19T12:15:18Z</time>
      </trkpt>
      <trkpt lat="44.11469" lon="3.22918">
        <ele>719</ele>
        <time>2015-10-19T12:17:18Z</time>
      </trkpt>
      <trkpt lat="44.11464" lon="3.22916">
        <ele>720</ele>
        <time>2015-10-19T12:19:18Z</time>
      </trkpt>
      <trkpt lat="44.1146" lon="3.22916">
        <ele>721</ele>
        <time>2015-10-19T12:21:18Z</time>
      </trkpt>
      <trkpt lat="44.11449" lon="3.22917">
        <ele>723</ele>
        <time>2015-10-19T12:23:18Z</time>
      </trkpt>
      <trkpt lat="44.11447" lon="3.22916">
        <ele>724</ele>
        <time>2015-10-19T12:25:18Z</time>
      </trkpt>
      <trkpt lat="44.11442" lon="3.22915">
        <ele>725</ele>
        <time>2015-10-19T12:27:18Z</time>
      </trkpt>
      <trkpt lat="44.11439" lon="3.22916">
        <ele>725</ele>
        <time>2015-10-19T12:29:18Z</time>
      </trkpt>
      <trkpt lat="44.11431" lon="3.22914">
        <ele>727</ele>
        <time>2015-10-19T12:31:18Z</time>
      </trkpt>
      <trkpt lat="44.11428" lon="3.22914">
        <ele>728</ele>
        <time>2015-10-19T12:33:18Z</time>
      </trkpt>
      <trkpt lat="44.11423" lon="3.22912">
        <ele>729</ele>
        <time>2015-10-19T12:35:18Z</time>
      </trkpt>
      <trkpt lat="44.11421" lon="3.22912">
        <ele>729</ele>
        <time>2015-10-19T12:37:18Z</time>
      </trkpt>
      <trkpt lat="44.11414" lon="3.22912">
        <ele>730</ele>
        <time>2015-10-19T12:39:18Z</time>
      </trkpt>
      <trkpt lat="44.11411" lon="3.2291">
        <ele>731</ele>
        <time>2015-10-19T12:41:18Z</time>
      </trkpt>
      <trkpt lat="44.11407" lon="3.22912">
        <ele>731</ele>
        <time>2015-10-19T12:43:18Z</time>
      </trkpt>
      <trkpt lat="44.11405" lon="3.22911">
        <ele>731</ele>
        <time>2015-10-19T12:45:18Z</time>
      </trkpt>
      <trkpt lat="44.11402" lon="3.22911">
        <ele>731</ele>
        <time>2015-10-19T12:47:18Z</time>
      </trkpt>
      <trkpt lat="44.11395" lon="3.22911">
        <ele>732</ele>
        <time>2015-10-19T12:49:18Z</time>
      </trkpt>
      <trkpt lat="44.11387" lon="3.22908">
        <ele>733</ele>
        <time>2015-10-19T12:51:18Z</time>
      </trkpt>
      <trkpt lat="44.11379" lon="3.22906">
        <ele>733</ele>
        <time>2015-10-19T12:53:18Z</time>
      </trkpt>
      <trkpt lat="44.11372" lon="3.22905">
        <ele>734</ele>
        <time>2015-10-19T12:55:18Z</time>
      </trkpt>
      <trkpt lat="44.1137" lon="3.22903">
        <ele>734</ele>
        <time>2015-10-19T12:57:18Z</time>
      </trkpt>
      <trkpt lat="44.11368" lon="3.229">
        <ele>734</ele>
        <time>2015-10-19T12:59:18Z</time>
      </trkpt>
      <trkpt lat="44.11365" lon="3.22894">
        <ele>735</ele>
        <time>2015-10-19T13:01:18Z</time>
      </trkpt>
      <trkpt lat="44.11361" lon="3.22883">
        <ele>735</ele>
        <time>2015-10-19T13:03:18Z</time>
      </trkpt>
      <trkpt lat="44.11358" lon="3.22877">
        <ele>736</ele>
        <time>2015-10-19T13:05:18Z</time>
      </trkpt>
      <trkpt lat="44.1135" lon="3.22864">
        <ele>737</ele>
        <time>2015-10-19T13:07:18Z</time>
      </trkpt>
      <trkpt lat="44.11343" lon="3.22851">
        <ele>738</ele>
        <time>2015-10-19T13:09:18Z</time>
      </trkpt>
      <trkpt lat="44.11338" lon="3.22838">
        <ele>739</ele>
        <time>2015-10-19T13:11:18Z</time>
      </trkpt>
      <trkpt lat="44.11331" lon="3.22825">
        <ele>739</ele>
        <time>2015-10-19T13:13:18Z</time>
      </trkpt>
      <trkpt lat="44.11325" lon="3.22811">
        <ele>739</ele>
        <time>2015-10-19T13:15:18Z</time>
      </trkpt>
      <trkpt lat="44.1132" lon="3.22799">
        <ele>739</ele>
        <time>2015-10-19T13:17:18Z</time>
      </trkpt>
      <trkpt lat="44.11319" lon="3.22786">
        <ele>740</ele>
        <time>2015-10-19T13:19:18Z</time>
      </trkpt>
      <trkpt lat="44.11317" lon="3.22773">
        <ele>741</ele>
        <time>2015-10-19T13:21:18Z</time>
      </trkpt>
      <trkpt lat="44.11316" lon="3.22763">
        <ele>741</ele>
        <time>2015-10-19T13:23:18Z</time>
      </trkpt>
      <trkpt lat="44.11314" lon="3.22753">
        <ele>742</ele>
        <time>2015-10-19T13:25:18Z</time>
      </trkpt>
      <trkpt lat="44.11313" lon="3.22746">
        <ele>742</ele>
        <time>2015-10-19T13:27:18Z</time>
      </trkpt>
      <trkpt lat="44.11309" lon="3.22727">
        <ele>743</ele>
        <time>2015-10-19T13:29:18Z</time>
      </trkpt>
      <trkpt lat="44.11307" lon="3.22713">
        <ele>744</ele>
        <time>2015-10-19T13:31:18Z</time>
      </trkpt>
      <trkpt lat="44.11303" lon="3.22699">
        <ele>744</ele>
        <time>2015-10-19T13:33:18Z</time>
      </trkpt>
      <trkpt lat="44.11302" lon="3.22692">
        <ele>744</ele>
        <time>2015-10-19T13:35:18Z</time>
      </trkpt>
      <trkpt lat="44.11301" lon="3.22679">
        <ele>745</ele>
        <time>2015-10-19T13:37:18Z</time>
      </trkpt>
      <trkpt lat="44.11296" lon="3.22668">
        <ele>745</ele>
        <time>2015-10-19T13:39:18Z</time>
      </trkpt>
      <trkpt lat="44.11293" lon="3.22662">
        <ele>745</ele>
        <time>2015-10-19T13:41:18Z</time>
      </trkpt>
      <trkpt lat="44.11291" lon="3.22659">
        <ele>745</ele>
        <time>2015-10-19T13:43:18Z</time>
      </trkpt>
      <trkpt lat="44.1128" lon="3.22661">
        <ele>743</ele>
        <time>2015-10-19T13:45:18Z</time>
      </trkpt>
      <trkpt lat="44.1127" lon="3.22659">
        <ele>742</ele>
        <time>2015-10-19T13:47:18Z</time>
      </trkpt>
      <trkpt lat="44.11262" lon="3.2265">
        <ele>741</ele>
        <time>2015-10-19T13:49:18Z</time>
      </trkpt>
      <trkpt lat="44.11247" lon="3.22624">
        <ele>740</ele>
        <time>2015-10-19T13:51:18Z</time>
      </trkpt>
      <trkpt lat="44.11233" lon="3.22592">
        <ele>740</ele>
        <time>2015-10-19T13:53:18Z</time>
      </trkpt>
      <trkpt lat="44.11227" lon="3.22577">
        <ele>740</ele>
        <time>2015-10-19T13:55:18Z</time>
      </trkpt>
      <trkpt lat="44.11221" lon="3.22559">
        <ele>740</ele>
        <time>2015-10-19T13:57:18Z</time>
      </trkpt>
      <trkpt lat="44.11213" lon="3.22547">
        <ele>740</ele>
        <time>2015-10-19T13:59:18Z</time>
      </trkpt>
      <trkpt lat="44.11202" lon="3.22534">
        <ele>740</ele>
        <time>2015-10-19T14:01:18Z</time>
      </trkpt>
      <trkpt lat="44.11179" lon="3.22509">
        <ele>739</ele>
        <time>2015-10-19T14:03:18Z</time>
      </trkpt>
      <trkpt lat="44.1117" lon="3.22495">
        <ele>740</ele>
        <time>2015-10-19T14:05:18Z</time>
      </trkpt>
      <trkpt lat="44.1116" lon="3.22485">
        <ele>740</ele>
        <time>2015-10-19T14:07:18Z</time>
      </trkpt>
      <trkpt lat="44.1115" lon="3.22479">
        <ele>740</ele>
        <time>2015-10-19T14:09:18Z</time>
      </trkpt>
      <trkpt lat="44.11137" lon="3.22474">
        <ele>739</ele>
        <time>2015-10-19T14:11:18Z</time>
      </trkpt>
      <trkpt lat="44.11122" lon="3.22474">
        <ele>738</ele>
        <time>2015-10-19T14:13:18Z</time>
      </trkpt>
      <trkpt lat="44.11107" lon="3.22472">
        <ele>738</ele>
        <time>2015-10-19T14:15:18Z</time>
      </trkpt>
      <trkpt lat="44.11093" lon="3.22471">
        <ele>737</ele>
        <time>2015-10-19T14:17:18Z</time>
      </trkpt>
      <trkpt lat="44.11083" lon="3.22479">
        <ele>736</ele>
        <time>2015-10-19T14:19:18Z</time>
      </trkpt>
      <trkpt lat="44.11074" lon="3.22491">
        <ele>735</ele>
        <time>2015-10-19T14:21:18Z</time>
      </trkpt>
      <trkpt lat="44.11065" lon="3.22509">
        <ele>734</ele>
        <time>2015-10-19T14:23:18Z</time>
      </trkpt>
      <trkpt lat="44.11053" lon="3.22522">
        <ele>732</ele>
        <time>2015-10-19T14:25:18Z</time>
      </trkpt>
      <trkpt lat="44.11041" lon="3.22527">
        <ele>731</ele>
        <time>2015-10-19T14:27:18Z</time>
      </trkpt>
      <trkpt lat="44.11031" lon="3.22525">
        <ele>731</ele>
        <time>2015-10-19T14:29:18Z</time>
      </trkpt>
      <trkpt lat="44.11021" lon="3.22521">
        <ele>731</ele>
        <time>2015-10-19T14:31:18Z</time>
      </trkpt>
      <trkpt lat="44.11011" lon="3.22521">
        <ele>731</ele>
        <time>2015-10-19T14:33:18Z</time>
      </trkpt>
      <trkpt lat="44.10997" lon="3.22531">
        <ele>731</ele>
        <time>2015-10-19T14:35:18Z</time>
      </trkpt>
      <trkpt lat="44.10991" lon="3.22533">
        <ele>731</ele>
        <time>2015-10-19T14:37:18Z</time>
      </trkpt>
      <trkpt lat="44.10987" lon="3.22528">
        <ele>731</ele>
        <time>2015-10-19T14:39:18Z</time>
      </trkpt>
      <trkpt lat="44.10987" lon="3.22511">
        <ele>731</ele>
        <time>2015-10-19T14:41:18Z</time>
      </trkpt>
      <trkpt lat="44.10987" lon="3.22494">
        <ele>729</ele>
        <time>2015-10-19T14:43:18Z</time>
      </trkpt>
      <trkpt lat="44.10988" lon="3.22476">
        <ele>727</ele>
        <time>2015-10-19T14:45:18Z</time>
      </trkpt>
      <trkpt lat="44.10992" lon="3.22442">
        <ele>724</ele>
        <time>2015-10-19T14:47:18Z</time>
      </trkpt>
      <trkpt lat="44.10993" lon="3.22426">
        <ele>722</ele>
        <time>2015-10-19T14:49:18Z</time>
      </trkpt>
      <trkpt lat="44.10995" lon="3.22406">
        <ele>720</ele>
        <time>2015-10-19T14:51:18Z</time>
      </trkpt>
      <trkpt lat="44.10998" lon="3.22386">
        <ele>719</ele>
        <time>2015-10-19T14:53:18Z</time>
      </trkpt>
      <trkpt lat="44.10998" lon="3.22365">
        <ele>717</ele>
        <time>2015-10-19T14:55:18Z</time>
      </trkpt>
      <trkpt lat="44.11003" lon="3.22348">
        <ele>717</ele>
        <time>2015-10-19T14:57:18Z</time>
      </trkpt>
      <trkpt lat="44.11005" lon="3.22331">
        <ele>716</ele>
        <time>2015-10-19T14:59:18Z</time>
      </trkpt>
      <trkpt lat="44.11005" lon="3.22315">
        <ele>715</ele>
        <time>2015-10-19T15:01:18Z</time>
      </trkpt>
      <trkpt lat="44.11007" lon="3.22296">
        <ele>713</ele>
        <time>2015-10-19T15:03:18Z</time>
      </trkpt>
      <trkpt lat="44.1101" lon="3.22276">
        <ele>712</ele>
        <time>2015-10-19T15:05:18Z</time>
      </trkpt>
      <trkpt lat="44.11012" lon="3.22261">
        <ele>711</ele>
        <time>2015-10-19T15:07:18Z</time>
      </trkpt>
      <trkpt lat="44.11013" lon="3.22244">
        <ele>709</ele>
        <time>2015-10-19T15:09:18Z</time>
      </trkpt>
      <trkpt lat="44.11015" lon="3.22222">
        <ele>707</ele>
        <time>2015-10-19T15:11:18Z</time>
      </trkpt>
      <trkpt lat="44.11018" lon="3.22189">
        <ele>704</ele>
        <time>2015-10-19T15:13:18Z</time>
      </trkpt>
      <trkpt lat="44.11022" lon="3.22166">
        <ele>702</ele>
        <time>2015-10-19T15:15:18Z</time>
      </trkpt>
      <trkpt lat="44.11022" lon="3.22129">
        <ele>701</ele>
        <time>2015-10-19T15:17:18Z</time>
      </trkpt>
      <trkpt lat="44.11029" lon="3.22109">
        <ele>701</ele>
        <time>2015-10-19T15:19:18Z</time>
      </trkpt>
      <trkpt lat="44.11032" lon="3.22096">
        <ele>702</ele>
        <time>2015-10-19T15:21:18Z</time>
      </trkpt>
      <trkpt lat="44.1103" lon="3.22076">
        <ele>701</ele>
        <time>2015-10-19T15:23:18Z</time>
      </trkpt>
      <trkpt lat="44.11018" lon="3.22061">
        <ele>701</ele>
        <time>2015-10-19T15:25:18Z</time>
      </trkpt>
      <trkpt lat="44.11006" lon="3.2205">
        <ele>700</ele>
        <time>2015-10-19T15:27:18Z</time>
      </trkpt>
      <trkpt lat="44.10991" lon="3.22041">
        <ele>698</ele>
        <time>2015-10-19T15:29:18Z</time>
      </trkpt>
      <trkpt lat="44.10979" lon="3.22031">
        <ele>697</ele>
        <time>2015-10-19T15:31:18Z</time>
      </trkpt>
      <trkpt lat="44.1097" lon="3.2202">
        <ele>696</ele>
        <time>2015-10-19T15:33:18Z</time>
      </trkpt>
      <trkpt lat="44.10962" lon="3.22002">
        <ele>695</ele>
        <time>2015-10-19T15:35:18Z</time>
      </trkpt>
      <trkpt lat="44.10955" lon="3.21987">
        <ele>695</ele>
        <time>2015-10-19T15:37:18Z</time>
      </trkpt>
      <trkpt lat="44.10948" lon="3.21978">
        <ele>695</ele>
        <time>2015-10-19T15:39:18Z</time>
      </trkpt>
      <trkpt lat="44.10939" lon="3.21966">
        <ele>694</ele>
        <time>2015-10-19T15:41:18Z</time>
      </trkpt>
      <trkpt lat="44.1093" lon="3.21952">
        <ele>693</ele>
        <time>2015-10-19T15:43:18Z</time>
      </trkpt>
      <trkpt lat="44.10922" lon="3.21938">
        <ele>691</ele>
        <time>2015-10-19T15:45:18Z</time>
      </trkpt>
      <trkpt lat="44.10911" lon="3.21928">
        <ele>690</ele>
        <time>2015-10-19T15:47:18Z</time>
      </trkpt>
      <trkpt lat="44.10896" lon="3.21915">
        <ele>689</ele>
        <time>2015-10-19T15:49:18Z</time>
      </trkpt>
      <trkpt lat="44.10884" lon="3.21903">
        <ele>688</ele>
        <time>2015-10-19T15:51:18Z</time>
      </trkpt>
      <trkpt lat="44.10865" lon="3.21889">
        <ele>687</ele>
        <time>2015-10-19T15:53:18Z</time>
      </trkpt>
      <trkpt lat="44.10851" lon="3.21876">
        <ele>687</ele>
        <time>2015-10-19T15:55:18Z</time>
      </trkpt>
      <trkpt lat="44.10841" lon="3.21868">
        <ele>687</ele>
        <time>2015-10-19T15:57:18Z</time>
      </trkpt>
      <trkpt lat="44.10835" lon="3.21855">
        <ele>687</ele>
        <time>2015-10-19T15:59:18Z</time>
      </trkpt>
      <trkpt lat="44.10834" lon="3.21838">
        <ele>688</ele>
        <time>2015-10-19T16:01:18Z</time>
      </trkpt>
      <trkpt lat="44.10829" lon="3.21829">
        <ele>688</ele>
        <time>2015-10-19T16:03:18Z</time>
      </trkpt>
      <trkpt lat="44.10823" lon="3.2182">
        <ele>689</ele>
        <time>2015-10-19T16:05:18Z</time>
      </trkpt>
      <trkpt lat="44.10816" lon="3.21809">
        <ele>690</ele>
        <time>2015-10-19T16:07:18Z</time>
      </trkpt>
      <trkpt lat="44.10808" lon="3.21801">
        <ele>690</ele>
        <time>2015-10-19T16:09:18Z</time>
      </trkpt>
      <trkpt lat="44.10803" lon="3.21788">
        <ele>691</ele>
        <time>2015-10-19T16:11:18Z</time>
      </trkpt>
      <trkpt lat="44.10803" lon="3.21786">
        <ele>691</ele>
        <time>2015-10-19T16:13:18Z</time>
      </trkpt>
      <trkpt lat="44.108" lon="3.2177">
        <ele>692</ele>
        <time>2015-10-19T16:15:18Z</time>
      </trkpt>
      <trkpt lat="44.10798" lon="3.21761">
        <ele>692</ele>
        <time>2015-10-19T16:17:18Z</time>
      </trkpt>
      <trkpt lat="44.1079" lon="3.21755">
        <ele>692</ele>
        <time>2015-10-19T16:19:18Z</time>
      </trkpt>
      <trkpt lat="44.10787" lon="3.21753">
        <ele>692</ele>
        <time>2015-10-19T16:21:18Z</time>
      </trkpt>
      <trkpt lat="44.1078" lon="3.2175">
        <ele>692</ele>
        <time>2015-10-19T16:23:18Z</time>
      </trkpt>
      <trkpt lat="44.10768" lon="3.21749">
        <ele>692</ele>
        <time>2015-10-19T16:25:18Z</time>
      </trkpt>
      <trkpt lat="44.10758" lon="3.2175">
        <ele>692</ele>
        <time>2015-10-19T16:27:18Z</time>
      </trkpt>
      <trkpt lat="44.10742" lon="3.21748">
        <ele>692</ele>
        <time>2015-10-19T16:29:18Z</time>
      </trkpt>
      <trkpt lat="44.10731" lon="3.21747">
        <ele>692</ele>
        <time>2015-10-19T16:31:18Z</time>
      </trkpt>
      <trkpt lat="44.10723" lon="3.21745">
        <ele>692</ele>
        <time>2015-10-19T16:33:18Z</time>
      </trkpt>
      <trkpt lat="44.10716" lon="3.21743">
        <ele>692</ele>
        <time>2015-10-19T16:35:18Z</time>
      </trkpt>
      <trkpt lat="44.10709" lon="3.21742">
        <ele>692</ele>
        <time>2015-10-19T16:37:18Z</time>
      </trkpt>
      <trkpt lat="44.10703" lon="3.2174">
        <ele>691</ele>
        <time>2015-10-19T16:39:18Z</time>
      </trkpt>
      <trkpt lat="44.10692" lon="3.2174">
        <ele>691</ele>
        <time>2015-10-19T16:41:18Z</time>
      </trkpt>
      <trkpt lat="44.10685" lon="3.2174">
        <ele>691</ele>
        <time>2015-10-19T16:43:18Z</time>
      </trkpt>
      <trkpt lat="44.1068" lon="3.21743">
        <ele>692</ele>
        <time>2015-10-19T16:45:18Z</time>
      </trkpt>
      <trkpt lat="44.10676" lon="3.21744">
        <ele>692</ele>
        <time>2015-10-19T16:47:18Z</time>
      </trkpt>
      <trkpt lat="44.10675" lon="3.21751">
        <ele>692</ele>
        <time>2015-10-19T16:49:18Z</time>
      </trkpt>
      <trkpt lat="44.10673" lon="3.2176">
        <ele>692</ele>
        <time>2015-10-19T16:51:18Z</time>
      </trkpt>
      <trkpt lat="44.10673" lon="3.21767">
        <ele>691</ele>
        <time>2015-10-19T16:53:18Z</time>
      </trkpt>
      <trkpt lat="44.10674" lon="3.21775">
        <ele>691</ele>
        <time>2015-10-19T16:55:18Z</time>
      </trkpt>
      <trkpt lat="44.10667" lon="3.21783">
        <ele>690</ele>
        <time>2015-10-19T16:57:18Z</time>
      </trkpt>
      <trkpt lat="44.10672" lon="3.21738">
        <ele>691</ele>
        <time>2015-10-19T16:59:18Z</time>
      </trkpt>
      <trkpt lat="44.1068" lon="3.21735">
        <ele>691</ele>
        <time>2015-10-19T17:01:18Z</time>
      </trkpt>
      <trkpt lat="44.10687" lon="3.21733">
        <ele>691</ele>
        <time>2015-10-19T17:03:18Z</time>
      </trkpt>
      <trkpt lat="44.10694" lon="3.21732">
        <ele>691</ele>
        <time>2015-10-19T17:05:18Z</time>
      </trkpt>
      <trkpt lat="44.10701" lon="3.2173">
        <ele>691</ele>
        <time>2015-10-19T17:07:18Z</time>
      </trkpt>
      <trkpt lat="44.10706" lon="3.21729">
        <ele>691</ele>
        <time>2015-10-19T17:09:18Z</time>
      </trkpt>
      <trkpt lat="44.10713" lon="3.21727">
        <ele>691</ele>
        <time>2015-10-19T17:11:18Z</time>
      </trkpt>
      <trkpt lat="44.10719" lon="3.21725">
        <ele>691</ele>
        <time>2015-10-19T17:13:18Z</time>
      </trkpt>
      <trkpt lat="44.10726" lon="3.21723">
        <ele>691</ele>
        <time>2015-10-19T17:15:18Z</time>
      </trkpt>
      <trkpt lat="44.10732" lon="3.21711">
        <ele>690</ele>
        <time>2015-10-19T17:17:18Z</time>
      </trkpt>
      <trkpt lat="44.10733" lon="3.21705">
        <ele>690</ele>
        <time>2015-10-19T17:19:18Z</time>
      </trkpt>
      <trkpt lat="44.10723" lon="3.21683">
        <ele>689</ele>
        <time>2015-10-19T17:21:18Z</time>
      </trkpt>
      <trkpt lat="44.10699" lon="3.21646">
        <ele>687</ele>
        <time>2015-10-19T17:23:18Z</time>
      </trkpt>
      <trkpt lat="44.10691" lon="3.21632">
        <ele>687</ele>
        <time>2015-10-19T17:25:18Z</time>
      </trkpt>
      <trkpt lat="44.10682" lon="3.21616">
        <ele>687</ele>
        <time>2015-10-19T17:27:18Z</time>
      </trkpt>
      <trkpt lat="44.10673" lon="3.21601">
        <ele>687</ele>
        <time>2015-10-19T17:29:18Z</time>
      </trkpt>
      <trkpt lat="44.10666" lon="3.21583">
        <ele>687</ele>
        <time>2015-10-19T17:31:18Z</time>
      </trkpt>
      <trkpt lat="44.10658" lon="3.21565">
        <ele>688</ele>
        <time>2015-10-19T17:33:18Z</time>
      </trkpt>
      <trkpt lat="44.10652" lon="3.21547">
        <ele>689</ele>
        <time>2015-10-19T17:35:18Z</time>
      </trkpt>
      <trkpt lat="44.10649" lon="3.2153">
        <ele>689</ele>
        <time>2015-10-19T17:37:18Z</time>
      </trkpt>
      <trkpt lat="44.10647" lon="3.21512">
        <ele>690</ele>
        <time>2015-10-19T17:39:18Z</time>
      </trkpt>
      <trkpt lat="44.10648" lon="3.21502">
        <ele>691</ele>
        <time>2015-10-19T17:41:18Z</time>
      </trkpt>
      <trkpt lat="44.10651" lon="3.21496">
        <ele>691</ele>
        <time>2015-10-19T17:43:18Z</time>
      </trkpt>
      <trkpt lat="44.10654" lon="3.21495">
        <ele>691</ele>
        <time>2015-10-19T17:45:18Z</time>
      </trkpt>
      <trkpt lat="44.10657" lon="3.21493">
        <ele>691</ele>
        <time>2015-10-19T17:47:18Z</time>
      </trkpt>
      <trkpt lat="44.10662" lon="3.21491">
        <ele>691</ele>
        <time>2015-10-19T17:49:18Z</time>
      </trkpt>
      <trkpt lat="44.10666" lon="3.21488">
        <ele>691</ele>
        <time>2015-10-19T17:51:18Z</time>
      </trkpt>
      <trkpt lat="44.10671" lon="3.21489">
        <ele>691</ele>
        <time>2015-10-19T17:53:18Z</time>
      </trkpt>
      <trkpt lat="44.10676" lon="3.21489">
        <ele>691</ele>
        <time>2015-10-19T17:55:18Z</time>
      </trkpt>
      <trkpt lat="44.10685" lon="3.21493">
        <ele>690</ele>
        <time>2015-10-19T17:57:18Z</time>
      </trkpt>
      <trkpt lat="44.10699" lon="3.21493">
        <ele>690</ele>
        <time>2015-10-19T17:59:18Z</time>
      </trkpt>
      <trkpt lat="44.10711" lon="3.21492">
        <ele>690</ele>
        <time>2015-10-19T18:01:18Z</time>
      </trkpt>
      <trkpt lat="44.10726" lon="3.2149">
        <ele>690</ele>
        <time>2015-10-19T18:03:18Z</time>
      </trkpt>
      <trkpt lat="44.10742" lon="3.2149">
        <ele>690</ele>
        <time>2015-10-19T18:05:18Z</time>
      </trkpt>
      <trkpt lat="44.10754" lon="3.21492">
        <ele>689</ele>
        <time>2015-10-19T18:07:18Z</time>
      </trkpt>
      <trkpt lat="44.10768" lon="3.21494">
        <ele>687</ele>
        <time>2015-10-19T18:09:18Z</time>
      </trkpt>
      <trkpt lat="44.10781" lon="3.21494">
        <ele>685</ele>
        <time>2015-10-19T18:11:18Z</time>
      </trkpt>
      <trkpt lat="44.10795" lon="3.21491">
        <ele>683</ele>
        <time>2015-10-19T18:13:18Z</time>
      </trkpt>
      <trkpt lat="44.1081" lon="3.21487">
        <ele>681</ele>
        <time>2015-10-19T18:15:18Z</time>
      </trkpt>
      <trkpt lat="44.1082" lon="3.21478">
        <ele>680</ele>
        <time>2015-10-19T18:17:18Z</time>
      </trkpt>
      <trkpt lat="44.10828" lon="3.21463">
        <ele>681</ele>
        <time>2015-10-19T18:19:18Z</time>
      </trkpt>
      <trkpt lat="44.10848" lon="3.21436">
        <ele>681</ele>
        <time>2015-10-19T18:21:18Z</time>
      </trkpt>
      <trkpt lat="44.10858" lon="3.21421">
        <ele>681</ele>
        <time>2015-10-19T18:23:18Z</time>
      </trkpt>
      <trkpt lat="44.10869" lon="3.21408">
        <ele>680</ele>
        <time>2015-10-19T18:25:18Z</time>
      </trkpt>
      <trkpt lat="44.10878" lon="3.21397">
        <ele>680</ele>
        <time>2015-10-19T18:27:18Z</time>
      </trkpt>
      <trkpt lat="44.10888" lon="3.21384">
        <ele>679</ele>
        <time>2015-10-19T18:29:18Z</time>
      </trkpt>
      <trkpt lat="44.10896" lon="3.21371">
        <ele>679</ele>
        <time>2015-10-19T18:31:18Z</time>
      </trkpt>
      <trkpt lat="44.10904" lon="3.21356">
        <ele>678</ele>
        <time>2015-10-19T18:33:18Z</time>
      </trkpt>
      <trkpt lat="44.10912" lon="3.21339">
        <ele>678</ele>
        <time>2015-10-19T18:35:18Z</time>
      </trkpt>
      <trkpt lat="44.10916" lon="3.21322">
        <ele>678</ele>
        <time>2015-10-19T18:37:18Z</time>
      </trkpt>
      <trkpt lat="44.10917" lon="3.21304">
        <ele>678</ele>
        <time>2015-10-19T18:39:18Z</time>
      </trkpt>
      <trkpt lat="44.10914" lon="3.21286">
        <ele>678</ele>
        <time>2015-10-19T18:41:18Z</time>
      </trkpt>
      <trkpt lat="44.10914" lon="3.21267">
        <ele>678</ele>
        <time>2015-10-19T18:43:18Z</time>
      </trkpt>
      <trkpt lat="44.10914" lon="3.2125">
        <ele>677</ele>
        <time>2015-10-19T18:45:18Z</time>
      </trkpt>
      <trkpt lat="44.10911" lon="3.21236">
        <ele>677</ele>
        <time>2015-10-19T18:47:18Z</time>
      </trkpt>
      <trkpt lat="44.10908" lon="3.21225">
        <ele>677</ele>
        <time>2015-10-19T18:49:18Z</time>
      </trkpt>
      <trkpt lat="44.10905" lon="3.21206">
        <ele>677</ele>
        <time>2015-10-19T18:51:18Z</time>
      </trkpt>
      <trkpt lat="44.10904" lon="3.2119">
        <ele>676</ele>
        <time>2015-10-19T18:53:18Z</time>
      </trkpt>
      <trkpt lat="44.10903" lon="3.21173">
        <ele>675</ele>
        <time>2015-10-19T18:55:18Z</time>
      </trkpt>
      <trkpt lat="44.109" lon="3.21152">
        <ele>675</ele>
        <time>2015-10-19T18:57:18Z</time>
      </trkpt>
      <trkpt lat="44.10897" lon="3.21137">
        <ele>674</ele>
        <time>2015-10-19T18:59:18Z</time>
      </trkpt>
      <trkpt lat="44.10898" lon="3.21123">
        <ele>674</ele>
        <time>2015-10-19T19:01:18Z</time>
      </trkpt>
      <trkpt lat="44.10899" lon="3.21109">
        <ele>673</ele>
        <time>2015-10-19T19:03:18Z</time>
      </trkpt>
      <trkpt lat="44.10901" lon="3.21099">
        <ele>672</ele>
        <time>2015-10-19T19:05:18Z</time>
      </trkpt>
      <trkpt lat="44.10905" lon="3.2109">
        <ele>671</ele>
        <time>2015-10-19T19:07:18Z</time>
      </trkpt>
      <trkpt lat="44.1091" lon="3.21079">
        <ele>670</ele>
        <time>2015-10-19T19:09:18Z</time>
      </trkpt>
      <trkpt lat="44.1091" lon="3.2107">
        <ele>669</ele>
        <time>2015-10-19T19:11:18Z</time>
      </trkpt>
      <trkpt lat="44.10911" lon="3.21058">
        <ele>668</ele>
        <time>2015-10-19T19:13:18Z</time>
      </trkpt>
      <trkpt lat="44.10909" lon="3.21044">
        <ele>667</ele>
        <time>2015-10-19T19:15:18Z</time>
      </trkpt>
      <trkpt lat="44.10905" lon="3.21031">
        <ele>667</ele>
        <time>2015-10-19T19:17:18Z</time>
      </trkpt>
      <trkpt lat="44.10901" lon="3.21014">
        <ele>666</ele>
        <time>2015-10-19T19:19:18Z</time>
      </trkpt>
      <trkpt lat="44.10894" lon="3.20995">
        <ele>665</ele>
        <time>2015-10-19T19:21:18Z</time>
      </trkpt>
      <trkpt lat="44.1089" lon="3.20988">
        <ele>665</ele>
        <time>2015-10-19T19:23:18Z</time>
      </trkpt>
      <trkpt lat="44.10888" lon="3.20978">
        <ele>664</ele>
        <time>2015-10-19T19:25:18Z</time>
      </trkpt>
      <trkpt lat="44.10885" lon="3.20961">
        <ele>662</ele>
        <time>2015-10-19T19:27:18Z</time>
      </trkpt>
      <trkpt lat="44.10882" lon="3.20949">
        <ele>661</ele>
        <time>2015-10-19T19:29:18Z</time>
      </trkpt>
      <trkpt lat="44.10881" lon="3.20934">
        <ele>660</ele>
        <time>2015-10-19T19:31:18Z</time>
      </trkpt>
      <trkpt lat="44.10879" lon="3.20928">
        <ele>659</ele>
        <time>2015-10-19T19:33:18Z</time>
      </trkpt>
      <trkpt lat="44.10873" lon="3.20913">
        <ele>658</ele>
        <time>2015-10-19T19:35:18Z</time>
      </trkpt>
      <trkpt lat="44.10869" lon="3.20907">
        <ele>658</ele>
        <time>2015-10-19T19:37:18Z</time>
      </trkpt>
      <trkpt lat="44.1086" lon="3.20895">
        <ele>657</ele>
        <time>2015-10-19T19:39:18Z</time>
      </trkpt>
      <trkpt lat="44.10846" lon="3.20881">
        <ele>656</ele>
        <time>2015-10-19T19:41:18Z</time>
      </trkpt>
      <trkpt lat="44.10834" lon="3.20872">
        <ele>656</ele>
        <time>2015-10-19T19:43:18Z</time>
      </trkpt>
      <trkpt lat="44.10832" lon="3.2087">
        <ele>656</ele>
        <time>2015-10-19T19:45:18Z</time>
      </trkpt>
      <trkpt lat="44.10825" lon="3.20865">
        <ele>657</ele>
        <time>2015-10-19T19:47:18Z</time>
      </trkpt>
      <trkpt lat="44.10826" lon="3.20853">
        <ele>656</ele>
        <time>2015-10-19T19:49:18Z</time>
      </trkpt>
      <trkpt lat="44.1083" lon="3.20845">
        <ele>655</ele>
        <time>2015-10-19T19:51:18Z</time>
      </trkpt>
      <trkpt lat="44.10845" lon="3.20846">
        <ele>654</ele>
        <time>2015-10-19T19:53:18Z</time>
      </trkpt>
      <trkpt lat="44.10861" lon="3.20837">
        <ele>653</ele>
        <time>2015-10-19T19:55:18Z</time>
      </trkpt>
      <trkpt lat="44.10868" lon="3.20835">
        <ele>653</ele>
        <time>2015-10-19T19:57:18Z</time>
      </trkpt>
      <trkpt lat="44.10877" lon="3.20827">
        <ele>653</ele>
        <time>2015-10-19T19:59:18Z</time>
      </trkpt>
      <trkpt lat="44.10886" lon="3.20818">
        <ele>654</ele>
        <time>2015-10-19T20:01:18Z</time>
      </trkpt>
      <trkpt lat="44.10898" lon="3.20806">
        <ele>655</ele>
        <time>2015-10-19T20:03:18Z</time>
      </trkpt>
      <trkpt lat="44.10908" lon="3.20795">
        <ele>655</ele>
        <time>2015-10-19T20:05:18Z</time>
      </trkpt>
      <trkpt lat="44.10918" lon="3.20775">
        <ele>655</ele>
        <time>2015-10-19T20:07:18Z</time>
      </trkpt>
      <trkpt lat="44.10921" lon="3.20769">
        <ele>655</ele>
        <time>2015-10-19T20:09:18Z</time>
      </trkpt>
      <trkpt lat="44.10931" lon="3.20756">
        <ele>655</ele>
        <time>2015-10-19T20:11:18Z</time>
      </trkpt>
      <trkpt lat="44.10933" lon="3.20748">
        <ele>656</ele>
        <time>2015-10-19T20:13:18Z</time>
      </trkpt>
      <trkpt lat="44.10937" lon="3.20734">
        <ele>657</ele>
        <time>2015-10-19T20:15:18Z</time>
      </trkpt>
      <trkpt lat="44.10943" lon="3.20715">
        <ele>657</ele>
        <time>2015-10-19T20:17:18Z</time>
      </trkpt>
      <trkpt lat="44.10949" lon="3.20692">
        <ele>658</ele>
        <time>2015-10-19T20:19:18Z</time>
      </trkpt>
      <trkpt lat="44.10955" lon="3.20676">
        <ele>657</ele>
        <time>2015-10-19T20:21:18Z</time>
      </trkpt>
      <trkpt lat="44.10964" lon="3.20657">
        <ele>657</ele>
        <time>2015-10-19T20:23:18Z</time>
      </trkpt>
      <trkpt lat="44.10974" lon="3.20641">
        <ele>658</ele>
        <time>2015-10-19T20:25:18Z</time>
      </trkpt>
      <trkpt lat="44.10982" lon="3.20629">
        <ele>658</ele>
        <time>2015-10-19T20:27:18Z</time>
      </trkpt>
      <trkpt lat="44.10991" lon="3.20619">
        <ele>658</ele>
        <time>2015-10-19T20:29:18Z</time>
      </trkpt>
      <trkpt lat="44.10998" lon="3.20603">
        <ele>659</ele>
        <time>2015-10-19T20:31:18Z</time>
      </trkpt>
      <trkpt lat="44.11006" lon="3.20589">
        <ele>660</ele>
        <time>2015-10-19T20:33:18Z</time>
      </trkpt>
      <trkpt lat="44.11012" lon="3.20584">
        <ele>659</ele>
        <time>2015-10-19T20:35:18Z</time>
      </trkpt>
      <trkpt lat="44.11022" lon="3.20578">
        <ele>658</ele>
        <time>2015-10-19T20:37:18Z</time>
      </trkpt>
      <trkpt lat="44.11027" lon="3.20574">
        <ele>657</ele>
        <time>2015-10-19T20:39:18Z</time>
      </trkpt>
      <trkpt lat="44.11037" lon="3.20566">
        <ele>656</ele>
        <time>2015-10-19T20:41:18Z</time>
      </trkpt>
      <trkpt lat="44.11045" lon="3.20557">
        <ele>656</ele>
        <time>2015-10-19T20:43:18Z</time>
      </trkpt>
      <trkpt lat="44.11053" lon="3.20547">
        <ele>656</ele>
        <time>2015-10-19T20:45:18Z</time>
      </trkpt>
      <trkpt lat="44.11061" lon="3.20536">
        <ele>655</ele>
        <time>2015-10-19T20:47:18Z</time>
      </trkpt>
      <trkpt lat="44.11068" lon="3.20533">
        <ele>654</ele>
        <time>2015-10-19T20:49:18Z</time>
      </trkpt>
      <trkpt lat="44.11076" lon="3.20519">
        <ele>654</ele>
        <time>2015-10-19T20:51:18Z</time>
      </trkpt>
      <trkpt lat="44.11093" lon="3.2048">
        <ele>657</ele>
        <time>2015-10-19T20:53:18Z</time>
      </trkpt>
      <trkpt lat="44.11098" lon="3.20464">
        <ele>658</ele>
        <time>2015-10-19T20:55:18Z</time>
      </trkpt>
      <trkpt lat="44.11108" lon="3.20433">
        <ele>661</ele>
        <time>2015-10-19T20:57:18Z</time>
      </trkpt>
      <trkpt lat="44.11109" lon="3.20425">
        <ele>662</ele>
        <time>2015-10-19T20:59:18Z</time>
      </trkpt>
      <trkpt lat="44.1111" lon="3.20409">
        <ele>663</ele>
        <time>2015-10-19T21:01:18Z</time>
      </trkpt>
      <trkpt lat="44.1112" lon="3.20377">
        <ele>665</ele>
        <time>2015-10-19T21:03:18Z</time>
      </trkpt>
      <trkpt lat="44.11128" lon="3.20363">
        <ele>665</ele>
        <time>2015-10-19T21:05:18Z</time>
      </trkpt>
      <trkpt lat="44.11132" lon="3.2035">
        <ele>666</ele>
        <time>2015-10-19T21:07:18Z</time>
      </trkpt>
      <trkpt lat="44.11135" lon="3.20333">
        <ele>667</ele>
        <time>2015-10-19T21:09:18Z</time>
      </trkpt>
      <trkpt lat="44.11135" lon="3.20327">
        <ele>667</ele>
        <time>2015-10-19T21:11:18Z</time>
      </trkpt>
      <trkpt lat="44.11134" lon="3.20315">
        <ele>668</ele>
        <time>2015-10-19T21:13:18Z</time>
      </trkpt>
      <trkpt lat="44.11128" lon="3.20293">
        <ele>670</ele>
        <time>2015-10-19T21:15:18Z</time>
      </trkpt>
      <trkpt lat="44.11125" lon="3.20278">
        <ele>671</ele>
        <time>2015-10-19T21:17:18Z</time>
      </trkpt>
      <trkpt lat="44.11122" lon="3.20262">
        <ele>672</ele>
        <time>2015-10-19T21:19:18Z</time>
      </trkpt>
      <trkpt lat="44.11119" lon="3.20246">
        <ele>673</ele>
        <time>2015-10-19T21:21:18Z</time>
      </trkpt>
      <trkpt lat="44.11117" lon="3.20237">
        <ele>673</ele>
        <time>2015-10-19T21:23:18Z</time>
      </trkpt>
      <trkpt lat="44.11115" lon="3.20231">
        <ele>674</ele>
        <time>2015-10-19T21:25:18Z</time>
      </trkpt>
      <trkpt lat="44.11114" lon="3.20218">
        <ele>674</ele>
        <time>2015-10-19T21:27:18Z</time>
      </trkpt>
      <trkpt lat="44.11116" lon="3.20208">
        <ele>674</ele>
        <time>2015-10-19T21:29:18Z</time>
      </trkpt>
      <trkpt lat="44.1112" lon="3.20197">
        <ele>674</ele>
        <time>2015-10-19T21:31:18Z</time>
      </trkpt>
      <trkpt lat="44.11124" lon="3.20184">
        <ele>674</ele>
        <time>2015-10-19T21:33:18Z</time>
      </trkpt>
      <trkpt lat="44.11126" lon="3.20174">
        <ele>674</ele>
        <time>2015-10-19T21:35:18Z</time>
      </trkpt>
      <trkpt lat="44.11133" lon="3.20162">
        <ele>675</ele>
        <time>2015-10-19T21:37:18Z</time>
      </trkpt>
      <trkpt lat="44.11139" lon="3.20157">
        <ele>675</ele>
        <time>2015-10-19T21:39:18Z</time>
      </trkpt>
      <trkpt lat="44.11145" lon="3.20151">
        <ele>676</ele>
        <time>2015-10-19T21:41:18Z</time>
      </trkpt>
      <trkpt lat="44.11149" lon="3.20149">
        <ele>676</ele>
        <time>2015-10-19T21:43:18Z</time>
      </trkpt>
      <trkpt lat="44.11151" lon="3.20146">
        <ele>676</ele>
        <time>2015-10-19T21:45:18Z</time>
      </trkpt>
      <trkpt lat="44.11158" lon="3.20138">
        <ele>677</ele>
        <time>2015-10-19T21:47:18Z</time>
      </trkpt>
      <trkpt lat="44.11162" lon="3.20133">
        <ele>678</ele>
        <time>2015-10-19T21:49:18Z</time>
      </trkpt>
      <trkpt lat="44.11168" lon="3.20123">
        <ele>679</ele>
        <time>2015-10-19T21:51:18Z</time>
      </trkpt>
      <trkpt lat="44.11174" lon="3.20121">
        <ele>680</ele>
        <time>2015-10-19T21:53:18Z</time>
      </trkpt>
      <trkpt lat="44.11176" lon="3.20121">
        <ele>680</ele>
        <time>2015-10-19T21:55:18Z</time>
      </trkpt>
      <trkpt lat="44.11185" lon="3.20123">
        <ele>682</ele>
        <time>2015-10-19T21:57:18Z</time>
      </trkpt>
      <trkpt lat="44.11187" lon="3.20124">
        <ele>682</ele>
        <time>2015-10-19T21:59:18Z</time>
      </trkpt>
      <trkpt lat="44.11192" lon="3.20122">
        <ele>683</ele>
        <time>2015-10-19T22:01:18Z</time>
      </trkpt>
      <trkpt lat="44.11199" lon="3.20123">
        <ele>684</ele>
        <time>2015-10-19T22:03:18Z</time>
      </trkpt>
      <trkpt lat="44.11201" lon="3.20124">
        <ele>685</ele>
        <time>2015-10-19T22:05:18Z</time>
      </trkpt>
      <trkpt lat="44.11211" lon="3.20126">
        <ele>686</ele>
        <time>2015-10-19T22:07:18Z</time>
      </trkpt>
      <trkpt lat="44.11217" lon="3.20125">
        <ele>687</ele>
        <time>2015-10-19T22:09:18Z</time>
      </trkpt>
      <trkpt lat="44.1122" lon="3.20125">
        <ele>688</ele>
        <time>2015-10-19T22:11:18Z</time>
      </trkpt>
      <trkpt lat="44.11222" lon="3.2013">
        <ele>688</ele>
        <time>2015-10-19T22:13:18Z</time>
      </trkpt>
      <trkpt lat="44.11221" lon="3.20138">
        <ele>687</ele>
        <time>2015-10-19T22:15:18Z</time>
      </trkpt>
      <trkpt lat="44.11219" lon="3.20143">
        <ele>687</ele>
        <time>2015-10-19T22:17:18Z</time>
      </trkpt>
      <trkpt lat="44.11219" lon="3.2015">
        <ele>686</ele>
        <time>2015-10-19T22:19:18Z</time>
      </trkpt>
      <trkpt lat="44.11226" lon="3.20157">
        <ele>687</ele>
        <time>2015-10-19T22:21:18Z</time>
      </trkpt>
      <trkpt lat="44.11227" lon="3.20157">
        <ele>687</ele>
        <time>2015-10-19T22:23:18Z</time>
      </trkpt>
      <trkpt lat="44.11236" lon="3.20162">
        <ele>689</ele>
        <time>2015-10-19T22:25:18Z</time>
      </trkpt>
      <trkpt lat="44.11242" lon="3.20166">
        <ele>689</ele>
        <time>2015-10-19T22:27:18Z</time>
      </trkpt>
      <trkpt lat="44.1125" lon="3.20168">
        <ele>691</ele>
        <time>2015-10-19T22:29:18Z</time>
      </trkpt>
      <trkpt lat="44.1126" lon="3.2017">
        <ele>693</ele>
        <time>2015-10-19T22:31:18Z</time>
      </trkpt>
      <trkpt lat="44.11265" lon="3.20174">
        <ele>694</ele>
        <time>2015-10-19T22:33:18Z</time>
      </trkpt>
      <trkpt lat="44.11271" lon="3.20179">
        <ele>696</ele>
        <time>2015-10-19T22:35:18Z</time>
      </trkpt>
      <trkpt lat="44.11273" lon="3.20181">
        <ele>696</ele>
        <time>2015-10-19T22:37:18Z</time>
      </trkpt>
      <trkpt lat="44.11281" lon="3.20181">
        <ele>698</ele>
        <time>2015-10-19T22:39:18Z</time>
      </trkpt>
      <trkpt lat="44.1129" lon="3.20175">
        <ele>700</ele>
        <time>2015-10-19T22:41:18Z</time>
      </trkpt>
      <trkpt lat="44.11298" lon="3.20166">
        <ele>701</ele>
        <time>2015-10-19T22:43:18Z</time>
      </trkpt>
      <trkpt lat="44.11307" lon="3.20155">
        <ele>704</ele>
        <time>2015-10-19T22:45:18Z</time>
      </trkpt>
      <trkpt lat="44.11314" lon="3.20147">
        <ele>705</ele>
        <time>2015-10-19T22:47:18Z</time>
      </trkpt>
      <trkpt lat="44.1132" lon="3.20141">
        <ele>707</ele>
        <time>2015-10-19T22:49:18Z</time>
      </trkpt>
      <trkpt lat="44.11328" lon="3.20131">
        <ele>709</ele>
        <time>2015-10-19T22:51:18Z</time>
      </trkpt>
      <trkpt lat="44.11333" lon="3.20121">
        <ele>710</ele>
        <time>2015-10-19T22:53:18Z</time>
      </trkpt>
      <trkpt lat="44.11341" lon="3.20111">
        <ele>711</ele>
        <time>2015-10-19T22:55:18Z</time>
      </trkpt>
      <trkpt lat="44.11347" lon="3.20102">
        <ele>712</ele>
        <time>2015-10-19T22:57:18Z</time>
      </trkpt>
      <trkpt lat="44.11355" lon="3.20092">
        <ele>713</ele>
        <time>2015-10-19T22:59:18Z</time>
      </trkpt>
      <trkpt lat="44.11361" lon="3.20084">
        <ele>714</ele>
        <time>2015-10-19T23:01:18Z</time>
      </trkpt>
      <trkpt lat="44.11369" lon="3.20076">
        <ele>715</ele>
        <time>2015-10-19T23:03:18Z</time>
      </trkpt>
      <trkpt lat="44.11378" lon="3.20057">
        <ele>717</ele>
        <time>2015-10-19T23:05:18Z</time>
      </trkpt>
      <trkpt lat="44.11381" lon="3.20056">
        <ele>717</ele>
        <time>2015-10-19T23:07:18Z</time>
      </trkpt>
      <trkpt lat="44.11385" lon="3.20048">
        <ele>717</ele>
        <time>2015-10-19T23:09:18Z</time>
      </trkpt>
      <trkpt lat="44.11388" lon="3.20044">
        <ele>718</ele>
        <time>2015-10-19T23:11:18Z</time>
      </trkpt>
      <trkpt lat="44.11393" lon="3.20036">
        <ele>718</ele>
        <time>2015-10-19T23:13:18Z</time>
      </trkpt>
      <trkpt lat="44.114" lon="3.20027">
        <ele>719</ele>
        <time>2015-10-19T23:15:18Z</time>
      </trkpt>
      <trkpt lat="44.11405" lon="3.20017">
        <ele>720</ele>
        <time>2015-10-19T23:17:18Z</time>
      </trkpt>
      <trkpt lat="44.11411" lon="3.20007">
        <ele>720</ele>
        <time>2015-10-19T23:19:18Z</time>
      </trkpt>
      <trkpt lat="44.11419" lon="3.20001">
        <ele>721</ele>
        <time>2015-10-19T23:21:18Z</time>
      </trkpt>
      <trkpt lat="44.11425" lon="3.19994">
        <ele>721</ele>
        <time>2015-10-19T23:23:18Z</time>
      </trkpt>
      <trkpt lat="44.1143" lon="3.19989">
        <ele>721</ele>
        <time>2015-10-19T23:25:18Z</time>
      </trkpt>
      <trkpt lat="44.11434" lon="3.19986">
        <ele>721</ele>
        <time>2015-10-19T23:27:18Z</time>
      </trkpt>
      <trkpt lat="44.11435" lon="3.19976">
        <ele>721</ele>
        <time>2015-10-19T23:29:18Z</time>
      </trkpt>
      <trkpt lat="44.11433" lon="3.19973">
        <ele>722</ele>
        <time>2015-10-19T23:31:18Z</time>
      </trkpt>
      <trkpt lat="44.11426" lon="3.19965">
        <ele>722</ele>
        <time>2015-10-19T23:33:18Z</time>
      </trkpt>
      <trkpt lat="44.11424" lon="3.19963">
        <ele>722</ele>
        <time>2015-10-19T23:35:18Z</time>
      </trkpt>
      <trkpt lat="44.11424" lon="3.19955">
        <ele>723</ele>
        <time>2015-10-19T23:37:18Z</time>
      </trkpt>
      <trkpt lat="44.11422" lon="3.19938">
        <ele>724</ele>
        <time>2015-10-19T23:39:18Z</time>
      </trkpt>
      <trkpt lat="44.11416" lon="3.19927">
        <ele>724</ele>
        <time>2015-10-19T23:41:18Z</time>
      </trkpt>
      <trkpt lat="44.11405" lon="3.19912">
        <ele>725</ele>
        <time>2015-10-19T23:43:18Z</time>
      </trkpt>
      <trkpt lat="44.11398" lon="3.19903">
        <ele>725</ele>
        <time>2015-10-19T23:45:18Z</time>
      </trkpt>
      <trkpt lat="44.11387" lon="3.199">
        <ele>724</ele>
        <time>2015-10-19T23:47:18Z</time>
      </trkpt>
      <trkpt lat="44.11373" lon="3.19892">
        <ele>724</ele>
        <time>2015-10-19T23:49:18Z</time>
      </trkpt>
      <trkpt lat="44.11359" lon="3.19884">
        <ele>724</ele>
        <time>2015-10-19T23:51:18Z</time>
      </trkpt>
      <trkpt lat="44.11347" lon="3.19875">
        <ele>724</ele>
        <time>2015-10-19T23:53:18Z</time>
      </trkpt>
      <trkpt lat="44.11338" lon="3.19861">
        <ele>724</ele>
        <time>2015-10-19T23:55:18Z</time>
      </trkpt>
      <trkpt lat="44.11333" lon="3.19855">
        <ele>725</ele>
        <time>2015-10-19T23:57:18Z</time>
      </trkpt>
      <trkpt lat="44.11331" lon="3.19844">
        <ele>725</ele>
        <time>2015-10-19T23:59:18Z</time>
      </trkpt>
      <trkpt lat="44.11332" lon="3.19824">
        <ele>727</ele>
        <time>2015-10-20T00:01:18Z</time>
      </trkpt>
      <trkpt lat="44.11336" lon="3.19811">
        <ele>728</ele>
        <time>2015-10-20T00:03:18Z</time>
      </trkpt>
      <trkpt lat="44.11344" lon="3.19785">
        <ele>730</ele>
        <time>2015-10-20T00:05:18Z</time>
      </trkpt>
      <trkpt lat="44.11344" lon="3.19773">
        <ele>731</ele>
        <time>2015-10-20T00:07:18Z</time>
      </trkpt>
      <trkpt lat="44.11346" lon="3.1976">
        <ele>733</ele>
        <time>2015-10-20T00:09:18Z</time>
      </trkpt>
      <trkpt lat="44.1135" lon="3.19746">
        <ele>733</ele>
        <time>2015-10-20T00:11:18Z</time>
      </trkpt>
      <trkpt lat="44.11354" lon="3.19728">
        <ele>734</ele>
        <time>2015-10-20T00:13:18Z</time>
      </trkpt>
      <trkpt lat="44.11356" lon="3.19708">
        <ele>735</ele>
        <time>2015-10-20T00:15:18Z</time>
      </trkpt>
      <trkpt lat="44.11357" lon="3.19691">
        <ele>735</ele>
        <time>2015-10-20T00:17:18Z</time>
      </trkpt>
      <trkpt lat="44.11358" lon="3.19673">
        <ele>736</ele>
        <time>2015-10-20T00:19:18Z</time>
      </trkpt>
      <trkpt lat="44.11362" lon="3.19639">
        <ele>737</ele>
        <time>2015-10-20T00:21:18Z</time>
      </trkpt>
      <trkpt lat="44.11366" lon="3.19623">
        <ele>736</ele>
        <time>2015-10-20T00:23:18Z</time>
      </trkpt>
      <trkpt lat="44.1137" lon="3.19609">
        <ele>736</ele>
        <time>2015-10-20T00:25:18Z</time>
      </trkpt>
      <trkpt lat="44.11376" lon="3.19592">
        <ele>736</ele>
        <time>2015-10-20T00:27:18Z</time>
      </trkpt>
      <trkpt lat="44.11379" lon="3.19573">
        <ele>736</ele>
        <time>2015-10-20T00:29:18Z</time>
      </trkpt>
      <trkpt lat="44.11382" lon="3.19553">
        <ele>736</ele>
        <time>2015-10-20T00:31:18Z</time>
      </trkpt>
      <trkpt lat="44.11383" lon="3.19546">
        <ele>736</ele>
        <time>2015-10-20T00:33:18Z</time>
      </trkpt>
      <trkpt lat="44.11385" lon="3.19526">
        <ele>736</ele>
        <time>2015-10-20T00:35:18Z</time>
      </trkpt>
      <trkpt lat="44.11386" lon="3.19522">
        <ele>735</ele>
        <time>2015-10-20T00:37:18Z</time>
      </trkpt>
      <trkpt lat="44.11394" lon="3.19499">
        <ele>734</ele>
        <time>2015-10-20T00:39:18Z</time>
      </trkpt>
      <trkpt lat="44.11397" lon="3.19482">
        <ele>735</ele>
        <time>2015-10-20T00:41:18Z</time>
      </trkpt>
      <trkpt lat="44.11398" lon="3.1947">
        <ele>736</ele>
        <time>2015-10-20T00:43:18Z</time>
      </trkpt>
      <trkpt lat="44.11391" lon="3.19451">
        <ele>739</ele>
        <time>2015-10-20T00:45:18Z</time>
      </trkpt>
      <trkpt lat="44.11386" lon="3.19442">
        <ele>741</ele>
        <time>2015-10-20T00:47:18Z</time>
      </trkpt>
      <trkpt lat="44.11382" lon="3.19431">
        <ele>742</ele>
        <time>2015-10-20T00:49:18Z</time>
      </trkpt>
      <trkpt lat="44.11378" lon="3.1942">
        <ele>744</ele>
        <time>2015-10-20T00:51:18Z</time>
      </trkpt>
      <trkpt lat="44.11373" lon="3.19408">
        <ele>746</ele>
        <time>2015-10-20T00:53:18Z</time>
      </trkpt>
      <trkpt lat="44.11369" lon="3.19395">
        <ele>747</ele>
        <time>2015-10-20T00:55:18Z</time>
      </trkpt>
      <trkpt lat="44.11365" lon="3.19385">
        <ele>749</ele>
        <time>2015-10-20T00:57:18Z</time>
      </trkpt>
      <trkpt lat="44.11362" lon="3.19378">
        <ele>749</ele>
        <time>2015-10-20T00:59:18Z</time>
      </trkpt>
      <trkpt lat="44.11358" lon="3.19373">
        <ele>751</ele>
        <time>2015-10-20T01:01:18Z</time>
      </trkpt>
      <trkpt lat="44.11353" lon="3.19368">
        <ele>752</ele>
        <time>2015-10-20T01:03:18Z</time>
      </trkpt>
      <trkpt lat="44.11351" lon="3.19363">
        <ele>753</ele>
        <time>2015-10-20T01:05:18Z</time>
      </trkpt>
      <trkpt lat="44.11349" lon="3.19358">
        <ele>753</ele>
        <time>2015-10-20T01:07:18Z</time>
      </trkpt>
      <trkpt lat="44.11347" lon="3.19354">
        <ele>754</ele>
        <time>2015-10-20T01:09:18Z</time>
      </trkpt>
      <trkpt lat="44.11344" lon="3.19347">
        <ele>755</ele>
        <time>2015-10-20T01:11:18Z</time>
      </trkpt>
      <trkpt lat="44.11339" lon="3.19342">
        <ele>756</ele>
        <time>2015-10-20T01:13:18Z</time>
      </trkpt>
      <trkpt lat="44.11337" lon="3.19338">
        <ele>757</ele>
        <time>2015-10-20T01:15:18Z</time>
      </trkpt>
      <trkpt lat="44.1133" lon="3.19325">
        <ele>760</ele>
        <time>2015-10-20T01:17:18Z</time>
      </trkpt>
      <trkpt lat="44.11322" lon="3.19318">
        <ele>764</ele>
        <time>2015-10-20T01:19:18Z</time>
      </trkpt>
      <trkpt lat="44.11316" lon="3.1931">
        <ele>767</ele>
        <time>2015-10-20T01:21:18Z</time>
      </trkpt>
      <trkpt lat="44.11308" lon="3.19302">
        <ele>770</ele>
        <time>2015-10-20T01:23:18Z</time>
      </trkpt>
      <trkpt lat="44.11309" lon="3.19297">
        <ele>770</ele>
        <time>2015-10-20T01:25:18Z</time>
      </trkpt>
      <trkpt lat="44.11312" lon="3.19289">
        <ele>771</ele>
        <time>2015-10-20T01:27:18Z</time>
      </trkpt>
      <trkpt lat="44.11312" lon="3.19288">
        <ele>771</ele>
        <time>2015-10-20T01:29:18Z</time>
      </trkpt>
      <trkpt lat="44.11311" lon="3.19281">
        <ele>772</ele>
        <time>2015-10-20T01:31:18Z</time>
      </trkpt>
      <trkpt lat="44.11309" lon="3.19276">
        <ele>774</ele>
        <time>2015-10-20T01:33:18Z</time>
      </trkpt>
      <trkpt lat="44.11308" lon="3.19274">
        <ele>774</ele>
        <time>2015-10-20T01:35:18Z</time>
      </trkpt>
      <trkpt lat="44.1131" lon="3.1927">
        <ele>774</ele>
        <time>2015-10-20T01:37:18Z</time>
      </trkpt>
      <trkpt lat="44.11311" lon="3.19266">
        <ele>775</ele>
        <time>2015-10-20T01:39:18Z</time>
      </trkpt>
      <trkpt lat="44.1131" lon="3.19261">
        <ele>776</ele>
        <time>2015-10-20T01:41:18Z</time>
      </trkpt>
      <trkpt lat="44.11313" lon="3.19251">
        <ele>777</ele>
        <time>2015-10-20T01:43:18Z</time>
      </trkpt>
      <trkpt lat="44.11308" lon="3.19246">
        <ele>779</ele>
        <time>2015-10-20T01:45:18Z</time>
      </trkpt>
      <trkpt lat="44.11308" lon="3.19244">
        <ele>779</ele>
        <time>2015-10-20T01:47:18Z</time>
      </trkpt>
      <trkpt lat="44.11309" lon="3.19241">
        <ele>780</ele>
        <time>2015-10-20T01:49:18Z</time>
      </trkpt>
      <trkpt lat="44.1131" lon="3.19237">
        <ele>780</ele>
        <time>2015-10-20T01:51:18Z</time>
      </trkpt>
      <trkpt lat="44.11311" lon="3.19233">
        <ele>781</ele>
        <time>2015-10-20T01:53:18Z</time>
      </trkpt>
      <trkpt lat="44.11312" lon="3.1923">
        <ele>782</ele>
        <time>2015-10-20T01:55:18Z</time>
      </trkpt>
      <trkpt lat="44.11314" lon="3.19227">
        <ele>782</ele>
        <time>2015-10-20T01:57:18Z</time>
      </trkpt>
      <trkpt lat="44.11316" lon="3.19222">
        <ele>783</ele>
        <time>2015-10-20T01:59:18Z</time>
      </trkpt>
      <trkpt lat="44.11314" lon="3.19218">
        <ele>785</ele>
        <time>2015-10-20T02:01:18Z</time>
      </trkpt>
      <trkpt lat="44.11316" lon="3.19214">
        <ele>785</ele>
        <time>2015-10-20T02:03:18Z</time>
      </trkpt>
      <trkpt lat="44.11318" lon="3.19212">
        <ele>786</ele>
        <time>2015-10-20T02:05:18Z</time>
      </trkpt>
      <trkpt lat="44.1132" lon="3.19208">
        <ele>786</ele>
        <time>2015-10-20T02:07:18Z</time>
      </trkpt>
      <trkpt lat="44.11322" lon="3.19207">
        <ele>786</ele>
        <time>2015-10-20T02:09:18Z</time>
      </trkpt>
      <trkpt lat="44.11324" lon="3.19206">
        <ele>787</ele>
        <time>2015-10-20T02:11:18Z</time>
      </trkpt>
      <trkpt lat="44.11326" lon="3.19206">
        <ele>786</ele>
        <time>2015-10-20T02:13:18Z</time>
      </trkpt>
      <trkpt lat="44.11334" lon="3.19206">
        <ele>785</ele>
        <time>2015-10-20T02:15:18Z</time>
      </trkpt>
      <trkpt lat="44.11337" lon="3.19205">
        <ele>785</ele>
        <time>2015-10-20T02:17:18Z</time>
      </trkpt>
      <trkpt lat="44.11341" lon="3.19199">
        <ele>785</ele>
        <time>2015-10-20T02:19:18Z</time>
      </trkpt>
      <trkpt lat="44.11343" lon="3.19197">
        <ele>785</ele>
        <time>2015-10-20T02:21:18Z</time>
      </trkpt>
      <trkpt lat="44.11344" lon="3.19192">
        <ele>786</ele>
        <time>2015-10-20T02:23:18Z</time>
      </trkpt>
      <trkpt lat="44.11344" lon="3.19191">
        <ele>787</ele>
        <time>2015-10-20T02:25:18Z</time>
      </trkpt>
      <trkpt lat="44.11348" lon="3.1919">
        <ele>786</ele>
        <time>2015-10-20T02:27:18Z</time>
      </trkpt>
      <trkpt lat="44.11353" lon="3.19187">
        <ele>785</ele>
        <time>2015-10-20T02:29:18Z</time>
      </trkpt>
      <trkpt lat="44.11356" lon="3.19185">
        <ele>785</ele>
        <time>2015-10-20T02:31:18Z</time>
      </trkpt>
      <trkpt lat="44.11357" lon="3.1918">
        <ele>786</ele>
        <time>2015-10-20T02:33:18Z</time>
      </trkpt>
      <trkpt lat="44.11358" lon="3.19178">
        <ele>786</ele>
        <time>2015-10-20T02:35:18Z</time>
      </trkpt>
      <trkpt lat="44.11364" lon="3.19171">
        <ele>787</ele>
        <time>2015-10-20T02:37:18Z</time>
      </trkpt>
      <trkpt lat="44.11365" lon="3.1917">
        <ele>787</ele>
        <time>2015-10-20T02:39:18Z</time>
      </trkpt>
      <trkpt lat="44.11367" lon="3.19167">
        <ele>787</ele>
        <time>2015-10-20T02:41:18Z</time>
      </trkpt>
      <trkpt lat="44.11373" lon="3.19162">
        <ele>787</ele>
        <time>2015-10-20T02:43:18Z</time>
      </trkpt>
      <trkpt lat="44.11375" lon="3.19159">
        <ele>787</ele>
        <time>2015-10-20T02:45:18Z</time>
      </trkpt>
      <trkpt lat="44.11378" lon="3.19154">
        <ele>788</ele>
        <time>2015-10-20T02:47:18Z</time>
      </trkpt>
      <trkpt lat="44.11389" lon="3.19153">
        <ele>785</ele>
        <time>2015-10-20T02:49:18Z</time>
      </trkpt>
      <trkpt lat="44.11395" lon="3.19148">
        <ele>785</ele>
        <time>2015-10-20T02:51:18Z</time>
      </trkpt>
      <trkpt lat="44.114" lon="3.19147">
        <ele>784</ele>
        <time>2015-10-20T02:53:18Z</time>
      </trkpt>
      <trkpt lat="44.11407" lon="3.19149">
        <ele>782</ele>
        <time>2015-10-20T02:55:18Z</time>
      </trkpt>
      <trkpt lat="44.11411" lon="3.19149">
        <ele>781</ele>
        <time>2015-10-20T02:57:18Z</time>
      </trkpt>
      <trkpt lat="44.11418" lon="3.19151">
        <ele>778</ele>
        <time>2015-10-20T02:59:18Z</time>
      </trkpt>
      <trkpt lat="44.11427" lon="3.19144">
        <ele>775</ele>
        <time>2015-10-20T03:01:18Z</time>
      </trkpt>
      <trkpt lat="44.1143" lon="3.19136">
        <ele>776</ele>
        <time>2015-10-20T03:03:18Z</time>
      </trkpt>
      <trkpt lat="44.11428" lon="3.19129">
        <ele>779</ele>
        <time>2015-10-20T03:05:18Z</time>
      </trkpt>
      <trkpt lat="44.11427" lon="3.19125">
        <ele>781</ele>
        <time>2015-10-20T03:07:18Z</time>
      </trkpt>
      <trkpt lat="44.11425" lon="3.19119">
        <ele>784</ele>
        <time>2015-10-20T03:09:18Z</time>
      </trkpt>
      <trkpt lat="44.11423" lon="3.19115">
        <ele>787</ele>
        <time>2015-10-20T03:11:18Z</time>
      </trkpt>
      <trkpt lat="44.1142" lon="3.19105">
        <ele>791</ele>
        <time>2015-10-20T03:13:18Z</time>
      </trkpt>
      <trkpt lat="44.11419" lon="3.19099">
        <ele>794</ele>
        <time>2015-10-20T03:15:18Z</time>
      </trkpt>
      <trkpt lat="44.11424" lon="3.19087">
        <ele>795</ele>
        <time>2015-10-20T03:17:18Z</time>
      </trkpt>
      <trkpt lat="44.11425" lon="3.19086">
        <ele>795</ele>
        <time>2015-10-20T03:19:18Z</time>
      </trkpt>
      <trkpt lat="44.11427" lon="3.19084">
        <ele>795</ele>
        <time>2015-10-20T03:21:18Z</time>
      </trkpt>
      <trkpt lat="44.11434" lon="3.19083">
        <ele>791</ele>
        <time>2015-10-20T03:23:18Z</time>
      </trkpt>
      <trkpt lat="44.11447" lon="3.19081">
        <ele>785</ele>
        <time>2015-10-20T03:25:18Z</time>
      </trkpt>
      <trkpt lat="44.11449" lon="3.1908">
        <ele>785</ele>
        <time>2015-10-20T03:27:18Z</time>
      </trkpt>
      <trkpt lat="44.11455" lon="3.19071">
        <ele>784</ele>
        <time>2015-10-20T03:29:18Z</time>
      </trkpt>
      <trkpt lat="44.11456" lon="3.1907">
        <ele>784</ele>
        <time>2015-10-20T03:31:18Z</time>
      </trkpt>
      <trkpt lat="44.11463" lon="3.19061">
        <ele>783</ele>
        <time>2015-10-20T03:33:18Z</time>
      </trkpt>
      <trkpt lat="44.11463" lon="3.1906">
        <ele>783</ele>
        <time>2015-10-20T03:35:18Z</time>
      </trkpt>
      <trkpt lat="44.1147" lon="3.19058">
        <ele>780</ele>
        <time>2015-10-20T03:37:18Z</time>
      </trkpt>
      <trkpt lat="44.11473" lon="3.19056">
        <ele>779</ele>
        <time>2015-10-20T03:39:18Z</time>
      </trkpt>
      <trkpt lat="44.11487" lon="3.19052">
        <ele>773</ele>
        <time>2015-10-20T03:41:18Z</time>
      </trkpt>
      <trkpt lat="44.11494" lon="3.19047">
        <ele>771</ele>
        <time>2015-10-20T03:43:18Z</time>
      </trkpt>
      <trkpt lat="44.11498" lon="3.19041">
        <ele>771</ele>
        <time>2015-10-20T03:45:18Z</time>
      </trkpt>
      <trkpt lat="44.11503" lon="3.19027">
        <ele>772</ele>
        <time>2015-10-20T03:47:18Z</time>
      </trkpt>
      <trkpt lat="44.11503" lon="3.19022">
        <ele>774</ele>
        <time>2015-10-20T03:49:18Z</time>
      </trkpt>
      <trkpt lat="44.11504" lon="3.19017">
        <ele>775</ele>
        <time>2015-10-20T03:51:18Z</time>
      </trkpt>
      <trkpt lat="44.11498" lon="3.19008">
        <ele>781</ele>
        <time>2015-10-20T03:53:18Z</time>
      </trkpt>
      <trkpt lat="44.11496" lon="3.19003">
        <ele>783</ele>
        <time>2015-10-20T03:55:18Z</time>
      </trkpt>
      <trkpt lat="44.11493" lon="3.18996">
        <ele>785</ele>
        <time>2015-10-20T03:57:18Z</time>
      </trkpt>
      <trkpt lat="44.11494" lon="3.18978">
        <ele>783</ele>
        <time>2015-10-20T03:59:18Z</time>
      </trkpt>
      <trkpt lat="44.11492" lon="3.18971">
        <ele>783</ele>
        <time>2015-10-20T04:01:18Z</time>
      </trkpt>
      <trkpt lat="44.11483" lon="3.18961">
        <ele>787</ele>
        <time>2015-10-20T04:03:18Z</time>
      </trkpt>
      <trkpt lat="44.11475" lon="3.18951">
        <ele>790</ele>
        <time>2015-10-20T04:05:18Z</time>
      </trkpt>
      <trkpt lat="44.11469" lon="3.1894">
        <ele>792</ele>
        <time>2015-10-20T04:07:18Z</time>
      </trkpt>
      <trkpt lat="44.11465" lon="3.18936">
        <ele>794</ele>
        <time>2015-10-20T04:09:18Z</time>
      </trkpt>
      <trkpt lat="44.11458" lon="3.18933">
        <ele>798</ele>
        <time>2015-10-20T04:11:18Z</time>
      </trkpt>
      <trkpt lat="44.1145" lon="3.18923">
        <ele>801</ele>
        <time>2015-10-20T04:13:18Z</time>
      </trkpt>
      <trkpt lat="44.11445" lon="3.18915">
        <ele>804</ele>
        <time>2015-10-20T04:15:18Z</time>
      </trkpt>
      <trkpt lat="44.11443" lon="3.18903">
        <ele>806</ele>
        <time>2015-10-20T04:17:18Z</time>
      </trkpt>
      <trkpt lat="44.11442" lon="3.18901">
        <ele>806</ele>
        <time>2015-10-20T04:19:18Z</time>
      </trkpt>
      <trkpt lat="44.1144" lon="3.18889">
        <ele>808</ele>
        <time>2015-10-20T04:21:18Z</time>
      </trkpt>
      <trkpt lat="44.11439" lon="3.18888">
        <ele>808</ele>
        <time>2015-10-20T04:23:18Z</time>
      </trkpt>
      <trkpt lat="44.11441" lon="3.18879">
        <ele>808</ele>
        <time>2015-10-20T04:25:18Z</time>
      </trkpt>
      <trkpt lat="44.11446" lon="3.18874">
        <ele>806</ele>
        <time>2015-10-20T04:27:18Z</time>
      </trkpt>
      <trkpt lat="44.1145" lon="3.1887">
        <ele>804</ele>
        <time>2015-10-20T04:29:18Z</time>
      </trkpt>
      <trkpt lat="44.11458" lon="3.18864">
        <ele>801</ele>
        <time>2015-10-20T04:31:18Z</time>
      </trkpt>
      <trkpt lat="44.11458" lon="3.18862">
        <ele>801</ele>
        <time>2015-10-20T04:33:18Z</time>
      </trkpt>
      <trkpt lat="44.1146" lon="3.18863">
        <ele>800</ele>
        <time>2015-10-20T04:35:18Z</time>
      </trkpt>
      <trkpt lat="44.11467" lon="3.18858">
        <ele>797</ele>
        <time>2015-10-20T04:37:18Z</time>
      </trkpt>
      <trkpt lat="44.11468" lon="3.18856">
        <ele>797</ele>
        <time>2015-10-20T04:39:18Z</time>
      </trkpt>
      <trkpt lat="44.11475" lon="3.1885">
        <ele>794</ele>
        <time>2015-10-20T04:41:18Z</time>
      </trkpt>
      <trkpt lat="44.11483" lon="3.18835">
        <ele>793</ele>
        <time>2015-10-20T04:43:18Z</time>
      </trkpt>
      <trkpt lat="44.11487" lon="3.18823">
        <ele>792</ele>
        <time>2015-10-20T04:45:18Z</time>
      </trkpt>
      <trkpt lat="44.11487" lon="3.1882">
        <ele>792</ele>
        <time>2015-10-20T04:47:18Z</time>
      </trkpt>
      <trkpt lat="44.11488" lon="3.18814">
        <ele>792</ele>
        <time>2015-10-20T04:49:18Z</time>
      </trkpt>
      <trkpt lat="44.115" lon="3.18811">
        <ele>787</ele>
        <time>2015-10-20T04:51:18Z</time>
      </trkpt>
      <trkpt lat="44.11503" lon="3.18812">
        <ele>786</ele>
        <time>2015-10-20T04:53:18Z</time>
      </trkpt>
      <trkpt lat="44.11508" lon="3.18812">
        <ele>783</ele>
        <time>2015-10-20T04:55:18Z</time>
      </trkpt>
      <trkpt lat="44.11516" lon="3.18804">
        <ele>780</ele>
        <time>2015-10-20T04:57:18Z</time>
      </trkpt>
      <trkpt lat="44.11523" lon="3.18795">
        <ele>777</ele>
        <time>2015-10-20T04:59:18Z</time>
      </trkpt>
      <trkpt lat="44.11527" lon="3.18784">
        <ele>776</ele>
        <time>2015-10-20T05:01:18Z</time>
      </trkpt>
      <trkpt lat="44.11529" lon="3.18775">
        <ele>775</ele>
        <time>2015-10-20T05:03:18Z</time>
      </trkpt>
      <trkpt lat="44.11534" lon="3.18767">
        <ele>773</ele>
        <time>2015-10-20T05:05:18Z</time>
      </trkpt>
      <trkpt lat="44.11535" lon="3.18757">
        <ele>773</ele>
        <time>2015-10-20T05:07:18Z</time>
      </trkpt>
      <trkpt lat="44.11527" lon="3.18742">
        <ele>774</ele>
        <time>2015-10-20T05:09:18Z</time>
      </trkpt>
      <trkpt lat="44.11517" lon="3.18741">
        <ele>779</ele>
        <time>2015-10-20T05:11:18Z</time>
      </trkpt>
      <trkpt lat="44.11505" lon="3.18745">
        <ele>786</ele>
        <time>2015-10-20T05:13:18Z</time>
      </trkpt>
      <trkpt lat="44.11495" lon="3.18753">
        <ele>791</ele>
        <time>2015-10-20T05:15:18Z</time>
      </trkpt>
      <trkpt lat="44.11485" lon="3.18752">
        <ele>794</ele>
        <time>2015-10-20T05:17:18Z</time>
      </trkpt>
      <trkpt lat="44.11478" lon="3.18751">
        <ele>797</ele>
        <time>2015-10-20T05:19:18Z</time>
      </trkpt>
      <trkpt lat="44.11471" lon="3.18747">
        <ele>798</ele>
        <time>2015-10-20T05:21:18Z</time>
      </trkpt>
      <trkpt lat="44.1147" lon="3.18747">
        <ele>798</ele>
        <time>2015-10-20T05:23:18Z</time>
      </trkpt>
      <trkpt lat="44.11469" lon="3.18745">
        <ele>798</ele>
        <time>2015-10-20T05:25:18Z</time>
      </trkpt>
      <trkpt lat="44.11467" lon="3.18739">
        <ele>797</ele>
        <time>2015-10-20T05:27:18Z</time>
      </trkpt>
      <trkpt lat="44.11466" lon="3.18728">
        <ele>794</ele>
        <time>2015-10-20T05:29:18Z</time>
      </trkpt>
      <trkpt lat="44.11468" lon="3.18718">
        <ele>790</ele>
        <time>2015-10-20T05:31:18Z</time>
      </trkpt>
      <trkpt lat="44.11472" lon="3.18701">
        <ele>784</ele>
        <time>2015-10-20T05:33:18Z</time>
      </trkpt>
      <trkpt lat="44.11475" lon="3.18694">
        <ele>781</ele>
        <time>2015-10-20T05:35:18Z</time>
      </trkpt>
      <trkpt lat="44.11472" lon="3.18685">
        <ele>779</ele>
        <time>2015-10-20T05:37:18Z</time>
      </trkpt>
      <trkpt lat="44.11461" lon="3.18679">
        <ele>781</ele>
        <time>2015-10-20T05:39:18Z</time>
      </trkpt>
      <trkpt lat="44.1145" lon="3.18678">
        <ele>784</ele>
        <time>2015-10-20T05:41:18Z</time>
      </trkpt>
      <trkpt lat="44.11438" lon="3.18673">
        <ele>786</ele>
        <time>2015-10-20T05:43:18Z</time>
      </trkpt>
      <trkpt lat="44.11433" lon="3.18667">
        <ele>786</ele>
        <time>2015-10-20T05:45:18Z</time>
      </trkpt>
      <trkpt lat="44.11427" lon="3.1866">
        <ele>784</ele>
        <time>2015-10-20T05:47:18Z</time>
      </trkpt>
      <trkpt lat="44.11417" lon="3.18652">
        <ele>783</ele>
        <time>2015-10-20T05:49:18Z</time>
      </trkpt>
      <trkpt lat="44.11407" lon="3.18646">
        <ele>782</ele>
        <time>2015-10-20T05:51:18Z</time>
      </trkpt>
      <trkpt lat="44.11391" lon="3.18654">
        <ele>788</ele>
        <time>2015-10-20T05:53:18Z</time>
      </trkpt>
      <trkpt lat="44.1139" lon="3.18656">
        <ele>789</ele>
        <time>2015-10-20T05:55:18Z</time>
      </trkpt>
      <trkpt lat="44.1139" lon="3.18658">
        <ele>790</ele>
        <time>2015-10-20T05:57:18Z</time>
      </trkpt>
      <trkpt lat="44.11391" lon="3.18669">
        <ele>794</ele>
        <time>2015-10-20T05:59:18Z</time>
      </trkpt>
      <trkpt lat="44.11388" lon="3.18679">
        <ele>797</ele>
        <time>2015-10-20T06:01:18Z</time>
      </trkpt>
      <trkpt lat="44.11386" lon="3.18681">
        <ele>798</ele>
        <time>2015-10-20T06:03:18Z</time>
      </trkpt>
      <trkpt lat="44.11379" lon="3.18685">
        <ele>800</ele>
        <time>2015-10-20T06:05:18Z</time>
      </trkpt>
      <trkpt lat="44.1137" lon="3.18688">
        <ele>801</ele>
        <time>2015-10-20T06:07:18Z</time>
      </trkpt>
      <trkpt lat="44.11358" lon="3.18678">
        <ele>800</ele>
        <time>2015-10-20T06:09:18Z</time>
      </trkpt>
      <trkpt lat="44.11348" lon="3.18668">
        <ele>798</ele>
        <time>2015-10-20T06:11:18Z</time>
      </trkpt>
      <trkpt lat="44.11339" lon="3.18661">
        <ele>797</ele>
        <time>2015-10-20T06:13:18Z</time>
      </trkpt>
      <trkpt lat="44.11336" lon="3.18651">
        <ele>794</ele>
        <time>2015-10-20T06:15:18Z</time>
      </trkpt>
      <trkpt lat="44.11335" lon="3.18648">
        <ele>793</ele>
        <time>2015-10-20T06:17:18Z</time>
      </trkpt>
      <trkpt lat="44.11326" lon="3.18634">
        <ele>789</ele>
        <time>2015-10-20T06:19:18Z</time>
      </trkpt>
      <trkpt lat="44.11326" lon="3.1862">
        <ele>785</ele>
        <time>2015-10-20T06:21:18Z</time>
      </trkpt>
      <trkpt lat="44.11327" lon="3.18617">
        <ele>784</ele>
        <time>2015-10-20T06:23:18Z</time>
      </trkpt>
      <trkpt lat="44.11332" lon="3.18607">
        <ele>780</ele>
        <time>2015-10-20T06:25:18Z</time>
      </trkpt>
      <trkpt lat="44.11336" lon="3.186">
        <ele>777</ele>
        <time>2015-10-20T06:27:18Z</time>
      </trkpt>
      <trkpt lat="44.11338" lon="3.18596">
        <ele>775</ele>
        <time>2015-10-20T06:29:18Z</time>
      </trkpt>
      <trkpt lat="44.11332" lon="3.18585">
        <ele>773</ele>
        <time>2015-10-20T06:31:18Z</time>
      </trkpt>
      <trkpt lat="44.11322" lon="3.18576">
        <ele>771</ele>
        <time>2015-10-20T06:33:18Z</time>
      </trkpt>
      <trkpt lat="44.11315" lon="3.18573">
        <ele>772</ele>
        <time>2015-10-20T06:35:18Z</time>
      </trkpt>
      <trkpt lat="44.11311" lon="3.18569">
        <ele>771</ele>
        <time>2015-10-20T06:37:18Z</time>
      </trkpt>
      <trkpt lat="44.11297" lon="3.18568">
        <ele>773</ele>
        <time>2015-10-20T06:39:18Z</time>
      </trkpt>
      <trkpt lat="44.11295" lon="3.18568">
        <ele>774</ele>
        <time>2015-10-20T06:41:18Z</time>
      </trkpt>
      <trkpt lat="44.11284" lon="3.18568">
        <ele>776</ele>
        <time>2015-10-20T06:43:18Z</time>
      </trkpt>
      <trkpt lat="44.11279" lon="3.1857">
        <ele>778</ele>
        <time>2015-10-20T06:45:18Z</time>
      </trkpt>
      <trkpt lat="44.11268" lon="3.18565">
        <ele>778</ele>
        <time>2015-10-20T06:47:18Z</time>
      </trkpt>
      <trkpt lat="44.11256" lon="3.18569">
        <ele>782</ele>
        <time>2015-10-20T06:49:18Z</time>
      </trkpt>
      <trkpt lat="44.11245" lon="3.18573">
        <ele>785</ele>
        <time>2015-10-20T06:51:18Z</time>
      </trkpt>
      <trkpt lat="44.11234" lon="3.18577">
        <ele>786</ele>
        <time>2015-10-20T06:53:18Z</time>
      </trkpt>
      <trkpt lat="44.11222" lon="3.1858">
        <ele>788</ele>
        <time>2015-10-20T06:55:18Z</time>
      </trkpt>
      <trkpt lat="44.11211" lon="3.18593">
        <ele>791</ele>
        <time>2015-10-20T06:57:18Z</time>
      </trkpt>
      <trkpt lat="44.11202" lon="3.18587">
        <ele>790</ele>
        <time>2015-10-20T06:59:18Z</time>
      </trkpt>
      <trkpt lat="44.11199" lon="3.18578">
        <ele>788</ele>
        <time>2015-10-20T07:01:18Z</time>
      </trkpt>
      <trkpt lat="44.11188" lon="3.1857">
        <ele>786</ele>
        <time>2015-10-20T07:03:18Z</time>
      </trkpt>
      <trkpt lat="44.11176" lon="3.18561">
        <ele>784</ele>
        <time>2015-10-20T07:05:18Z</time>
      </trkpt>
      <trkpt lat="44.11165" lon="3.18554">
        <ele>782</ele>
        <time>2015-10-20T07:07:18Z</time>
      </trkpt>
      <trkpt lat="44.11154" lon="3.18548">
        <ele>781</ele>
        <time>2015-10-20T07:09:18Z</time>
      </trkpt>
      <trkpt lat="44.11152" lon="3.18547">
        <ele>781</ele>
        <time>2015-10-20T07:11:18Z</time>
      </trkpt>
      <trkpt lat="44.11142" lon="3.18554">
        <ele>784</ele>
        <time>2015-10-20T07:13:18Z</time>
      </trkpt>
      <trkpt lat="44.11141" lon="3.18556">
        <ele>784</ele>
        <time>2015-10-20T07:15:18Z</time>
      </trkpt>
      <trkpt lat="44.11132" lon="3.18567">
        <ele>788</ele>
        <time>2015-10-20T07:17:18Z</time>
      </trkpt>
      <trkpt lat="44.11123" lon="3.18571">
        <ele>789</ele>
        <time>2015-10-20T07:19:18Z</time>
      </trkpt>
      <trkpt lat="44.11116" lon="3.18569">
        <ele>789</ele>
        <time>2015-10-20T07:21:18Z</time>
      </trkpt>
      <trkpt lat="44.11109" lon="3.18564">
        <ele>788</ele>
        <time>2015-10-20T07:23:18Z</time>
      </trkpt>
      <trkpt lat="44.11096" lon="3.18555">
        <ele>786</ele>
        <time>2015-10-20T07:25:18Z</time>
      </trkpt>
      <trkpt lat="44.11087" lon="3.1855">
        <ele>785</ele>
        <time>2015-10-20T07:27:18Z</time>
      </trkpt>
      <trkpt lat="44.11071" lon="3.18528">
        <ele>783</ele>
        <time>2015-10-20T07:29:18Z</time>
      </trkpt>
      <trkpt lat="44.11059" lon="3.1852">
        <ele>785</ele>
        <time>2015-10-20T07:31:18Z</time>
      </trkpt>
      <trkpt lat="44.11051" lon="3.18513">
        <ele>786</ele>
        <time>2015-10-20T07:33:18Z</time>
      </trkpt>
      <trkpt lat="44.11048" lon="3.18499">
        <ele>784</ele>
        <time>2015-10-20T07:35:18Z</time>
      </trkpt>
      <trkpt lat="44.11038" lon="3.18484">
        <ele>784</ele>
        <time>2015-10-20T07:37:18Z</time>
      </trkpt>
      <trkpt lat="44.11035" lon="3.18458">
        <ele>781</ele>
        <time>2015-10-20T07:39:18Z</time>
      </trkpt>
      <trkpt lat="44.11031" lon="3.18448">
        <ele>781</ele>
        <time>2015-10-20T07:41:18Z</time>
      </trkpt>
      <trkpt lat="44.11019" lon="3.18438">
        <ele>783</ele>
        <time>2015-10-20T07:43:18Z</time>
      </trkpt>
      <trkpt lat="44.11016" lon="3.18431">
        <ele>783</ele>
        <time>2015-10-20T07:45:18Z</time>
      </trkpt>
      <trkpt lat="44.1102" lon="3.18419">
        <ele>780</ele>
        <time>2015-10-20T07:47:18Z</time>
      </trkpt>
      <trkpt lat="44.11026" lon="3.18408">
        <ele>776</ele>
        <time>2015-10-20T07:49:18Z</time>
      </trkpt>
      <trkpt lat="44.11026" lon="3.18403">
        <ele>776</ele>
        <time>2015-10-20T07:51:18Z</time>
      </trkpt>
      <trkpt lat="44.1102" lon="3.18387">
        <ele>776</ele>
        <time>2015-10-20T07:53:18Z</time>
      </trkpt>
      <trkpt lat="44.11013" lon="3.18376">
        <ele>777</ele>
        <time>2015-10-20T07:55:18Z</time>
      </trkpt>
      <trkpt lat="44.11006" lon="3.18362">
        <ele>778</ele>
        <time>2015-10-20T07:57:18Z</time>
      </trkpt>
      <trkpt lat="44.11006" lon="3.18352">
        <ele>777</ele>
        <time>2015-10-20T07:59:18Z</time>
      </trkpt>
      <trkpt lat="44.11004" lon="3.18338">
        <ele>776</ele>
        <time>2015-10-20T08:01:18Z</time>
      </trkpt>
      <trkpt lat="44.10999" lon="3.1833">
        <ele>776</ele>
        <time>2015-10-20T08:03:18Z</time>
      </trkpt>
      <trkpt lat="44.10997" lon="3.18323">
        <ele>774</ele>
        <time>2015-10-20T08:05:18Z</time>
      </trkpt>
      <trkpt lat="44.10996" lon="3.18311">
        <ele>773</ele>
        <time>2015-10-20T08:07:18Z</time>
      </trkpt>
      <trkpt lat="44.11001" lon="3.18302">
        <ele>771</ele>
        <time>2015-10-20T08:09:18Z</time>
      </trkpt>
      <trkpt lat="44.1099" lon="3.18287">
        <ele>769</ele>
        <time>2015-10-20T08:11:18Z</time>
      </trkpt>
      <trkpt lat="44.10983" lon="3.18274">
        <ele>768</ele>
        <time>2015-10-20T08:13:18Z</time>
      </trkpt>
      <trkpt lat="44.10979" lon="3.18265">
        <ele>767</ele>
        <time>2015-10-20T08:15:18Z</time>
      </trkpt>
      <trkpt lat="44.10979" lon="3.18258">
        <ele>766</ele>
        <time>2015-10-20T08:17:18Z</time>
      </trkpt>
      <trkpt lat="44.10972" lon="3.18245">
        <ele>765</ele>
        <time>2015-10-20T08:19:18Z</time>
      </trkpt>
      <trkpt lat="44.10965" lon="3.18234">
        <ele>764</ele>
        <time>2015-10-20T08:21:18Z</time>
      </trkpt>
      <trkpt lat="44.10966" lon="3.18221">
        <ele>763</ele>
        <time>2015-10-20T08:23:18Z</time>
      </trkpt>
      <trkpt lat="44.10972" lon="3.18219">
        <ele>762</ele>
        <time>2015-10-20T08:25:18Z</time>
      </trkpt>
      <trkpt lat="44.10984" lon="3.18219">
        <ele>761</ele>
        <time>2015-10-20T08:27:18Z</time>
      </trkpt>
      <trkpt lat="44.10985" lon="3.18205">
        <ele>760</ele>
        <time>2015-10-20T08:29:18Z</time>
      </trkpt>
      <trkpt lat="44.1099" lon="3.1819">
        <ele>758</ele>
        <time>2015-10-20T08:31:18Z</time>
      </trkpt>
      <trkpt lat="44.1099" lon="3.18176">
        <ele>757</ele>
        <time>2015-10-20T08:33:18Z</time>
      </trkpt>
      <trkpt lat="44.10983" lon="3.1816">
        <ele>756</ele>
        <time>2015-10-20T08:35:18Z</time>
      </trkpt>
      <trkpt lat="44.10978" lon="3.18143">
        <ele>755</ele>
        <time>2015-10-20T08:37:18Z</time>
      </trkpt>
      <trkpt lat="44.10976" lon="3.18127">
        <ele>754</ele>
        <time>2015-10-20T08:39:18Z</time>
      </trkpt>
      <trkpt lat="44.10975" lon="3.18121">
        <ele>754</ele>
        <time>2015-10-20T08:41:18Z</time>
      </trkpt>
      <trkpt lat="44.10978" lon="3.18095">
        <ele>751</ele>
        <time>2015-10-20T08:43:18Z</time>
      </trkpt>
      <trkpt lat="44.10979" lon="3.18092">
        <ele>751</ele>
        <time>2015-10-20T08:45:18Z</time>
      </trkpt>
      <trkpt lat="44.1098" lon="3.18074">
        <ele>749</ele>
        <time>2015-10-20T08:47:18Z</time>
      </trkpt>
      <trkpt lat="44.1098" lon="3.18065">
        <ele>749</ele>
        <time>2015-10-20T08:49:18Z</time>
      </trkpt>
      <trkpt lat="44.10971" lon="3.18047">
        <ele>747</ele>
        <time>2015-10-20T08:51:18Z</time>
      </trkpt>
      <trkpt lat="44.10969" lon="3.18034">
        <ele>746</ele>
        <time>2015-10-20T08:53:18Z</time>
      </trkpt>
      <trkpt lat="44.10974" lon="3.18026">
        <ele>745</ele>
        <time>2015-10-20T08:55:18Z</time>
      </trkpt>
      <trkpt lat="44.10979" lon="3.18012">
        <ele>743</ele>
        <time>2015-10-20T08:57:18Z</time>
      </trkpt>
      <trkpt lat="44.10987" lon="3.17995">
        <ele>741</ele>
        <time>2015-10-20T08:59:18Z</time>
      </trkpt>
      <trkpt lat="44.10996" lon="3.17982">
        <ele>740</ele>
        <time>2015-10-20T09:01:18Z</time>
      </trkpt>
      <trkpt lat="44.11006" lon="3.17975">
        <ele>739</ele>
        <time>2015-10-20T09:03:18Z</time>
      </trkpt>
      <trkpt lat="44.11019" lon="3.17971">
        <ele>736</ele>
        <time>2015-10-20T09:05:18Z</time>
      </trkpt>
      <trkpt lat="44.11029" lon="3.17966">
        <ele>734</ele>
        <time>2015-10-20T09:07:18Z</time>
      </trkpt>
      <trkpt lat="44.11036" lon="3.17959">
        <ele>732</ele>
        <time>2015-10-20T09:09:18Z</time>
      </trkpt>
      <trkpt lat="44.11045" lon="3.17952">
        <ele>730</ele>
        <time>2015-10-20T09:11:18Z</time>
      </trkpt>
      <trkpt lat="44.11048" lon="3.17949">
        <ele>729</ele>
        <time>2015-10-20T09:13:18Z</time>
      </trkpt>
      <trkpt lat="44.11052" lon="3.17934">
        <ele>727</ele>
        <time>2015-10-20T09:15:18Z</time>
      </trkpt>
      <trkpt lat="44.11049" lon="3.17925">
        <ele>727</ele>
        <time>2015-10-20T09:17:18Z</time>
      </trkpt>
      <trkpt lat="44.11038" lon="3.17915">
        <ele>728</ele>
        <time>2015-10-20T09:19:18Z</time>
      </trkpt>
      <trkpt lat="44.11022" lon="3.17907">
        <ele>731</ele>
        <time>2015-10-20T09:21:18Z</time>
      </trkpt>
      <trkpt lat="44.11013" lon="3.17897">
        <ele>731</ele>
        <time>2015-10-20T09:23:18Z</time>
      </trkpt>
      <trkpt lat="44.11002" lon="3.1789">
        <ele>733</ele>
        <time>2015-10-20T09:25:18Z</time>
      </trkpt>
      <trkpt lat="44.10996" lon="3.17884">
        <ele>733</ele>
        <time>2015-10-20T09:27:18Z</time>
      </trkpt>
      <trkpt lat="44.10988" lon="3.17875">
        <ele>732</ele>
        <time>2015-10-20T09:29:18Z</time>
      </trkpt>
      <trkpt lat="44.1098" lon="3.17864">
        <ele>732</ele>
        <time>2015-10-20T09:31:18Z</time>
      </trkpt>
      <trkpt lat="44.10979" lon="3.17861">
        <ele>732</ele>
        <time>2015-10-20T09:33:18Z</time>
      </trkpt>
      <trkpt lat="44.10971" lon="3.17848">
        <ele>731</ele>
        <time>2015-10-20T09:35:18Z</time>
      </trkpt>
      <trkpt lat="44.10961" lon="3.17834">
        <ele>731</ele>
        <time>2015-10-20T09:37:18Z</time>
      </trkpt>
      <trkpt lat="44.10955" lon="3.17819">
        <ele>731</ele>
        <time>2015-10-20T09:39:18Z</time>
      </trkpt>
      <trkpt lat="44.10947" lon="3.17804">
        <ele>732</ele>
        <time>2015-10-20T09:41:18Z</time>
      </trkpt>
      <trkpt lat="44.10939" lon="3.17794">
        <ele>734</ele>
        <time>2015-10-20T09:43:18Z</time>
      </trkpt>
      <trkpt lat="44.1093" lon="3.17783">
        <ele>736</ele>
        <time>2015-10-20T09:45:18Z</time>
      </trkpt>
      <trkpt lat="44.10918" lon="3.17774">
        <ele>739</ele>
        <time>2015-10-20T09:47:18Z</time>
      </trkpt>
      <trkpt lat="44.10909" lon="3.17768">
        <ele>739</ele>
        <time>2015-10-20T09:49:18Z</time>
      </trkpt>
      <trkpt lat="44.10898" lon="3.17766">
        <ele>738</ele>
        <time>2015-10-20T09:51:18Z</time>
      </trkpt>
      <trkpt lat="44.10888" lon="3.17762">
        <ele>737</ele>
        <time>2015-10-20T09:53:18Z</time>
      </trkpt>
      <trkpt lat="44.10887" lon="3.17749">
        <ele>738</ele>
        <time>2015-10-20T09:55:18Z</time>
      </trkpt>
      <trkpt lat="44.10888" lon="3.17731">
        <ele>738</ele>
        <time>2015-10-20T09:57:18Z</time>
      </trkpt>
      <trkpt lat="44.10889" lon="3.17717">
        <ele>738</ele>
        <time>2015-10-20T09:59:18Z</time>
      </trkpt>
      <trkpt lat="44.1089" lon="3.17698">
        <ele>738</ele>
        <time>2015-10-20T10:01:18Z</time>
      </trkpt>
      <trkpt lat="44.10896" lon="3.17663">
        <ele>738</ele>
        <time>2015-10-20T10:03:18Z</time>
      </trkpt>
      <trkpt lat="44.109" lon="3.17651">
        <ele>737</ele>
        <time>2015-10-20T10:05:18Z</time>
      </trkpt>
      <trkpt lat="44.10909" lon="3.17635">
        <ele>736</ele>
        <time>2015-10-20T10:07:18Z</time>
      </trkpt>
      <trkpt lat="44.10919" lon="3.17629">
        <ele>735</ele>
        <time>2015-10-20T10:09:18Z</time>
      </trkpt>
      <trkpt lat="44.10928" lon="3.17623">
        <ele>733</ele>
        <time>2015-10-20T10:11:18Z</time>
      </trkpt>
      <trkpt lat="44.10937" lon="3.17614">
        <ele>731</ele>
        <time>2015-10-20T10:13:18Z</time>
      </trkpt>
      <trkpt lat="44.10947" lon="3.17604">
        <ele>728</ele>
        <time>2015-10-20T10:15:18Z</time>
      </trkpt>
      <trkpt lat="44.10958" lon="3.17603">
        <ele>727</ele>
        <time>2015-10-20T10:17:18Z</time>
      </trkpt>
      <trkpt lat="44.10968" lon="3.17603">
        <ele>725</ele>
        <time>2015-10-20T10:19:18Z</time>
      </trkpt>
      <trkpt lat="44.10977" lon="3.17597">
        <ele>724</ele>
        <time>2015-10-20T10:21:18Z</time>
      </trkpt>
      <trkpt lat="44.10982" lon="3.17592">
        <ele>723</ele>
        <time>2015-10-20T10:23:18Z</time>
      </trkpt>
      <trkpt lat="44.10992" lon="3.17584">
        <ele>721</ele>
        <time>2015-10-20T10:25:18Z</time>
      </trkpt>
      <trkpt lat="44.10996" lon="3.17579">
        <ele>720</ele>
        <time>2015-10-20T10:27:18Z</time>
      </trkpt>
      <trkpt lat="44.11007" lon="3.17573">
        <ele>715</ele>
        <time>2015-10-20T10:29:18Z</time>
      </trkpt>
      <trkpt lat="44.11019" lon="3.17564">
        <ele>709</ele>
        <time>2015-10-20T10:31:18Z</time>
      </trkpt>
      <trkpt lat="44.11029" lon="3.17556">
        <ele>705</ele>
        <time>2015-10-20T10:33:18Z</time>
      </trkpt>
      <trkpt lat="44.11032" lon="3.1755">
        <ele>704</ele>
        <time>2015-10-20T10:35:18Z</time>
      </trkpt>
      <trkpt lat="44.11032" lon="3.17545">
        <ele>703</ele>
        <time>2015-10-20T10:37:18Z</time>
      </trkpt>
      <trkpt lat="44.11038" lon="3.17529">
        <ele>700</ele>
        <time>2015-10-20T10:39:18Z</time>
      </trkpt>
      <trkpt lat="44.11045" lon="3.17517">
        <ele>698</ele>
        <time>2015-10-20T10:41:18Z</time>
      </trkpt>
      <trkpt lat="44.11045" lon="3.17511">
        <ele>698</ele>
        <time>2015-10-20T10:43:18Z</time>
      </trkpt>
      <trkpt lat="44.11044" lon="3.175">
        <ele>697</ele>
        <time>2015-10-20T10:45:18Z</time>
      </trkpt>
      <trkpt lat="44.11045" lon="3.17492">
        <ele>695</ele>
        <time>2015-10-20T10:47:18Z</time>
      </trkpt>
      <trkpt lat="44.1105" lon="3.17477">
        <ele>692</ele>
        <time>2015-10-20T10:49:18Z</time>
      </trkpt>
      <trkpt lat="44.11056" lon="3.17463">
        <ele>689</ele>
        <time>2015-10-20T10:51:18Z</time>
      </trkpt>
      <trkpt lat="44.11057" lon="3.17453">
        <ele>687</ele>
        <time>2015-10-20T10:53:18Z</time>
      </trkpt>
      <trkpt lat="44.11056" lon="3.17449">
        <ele>686</ele>
        <time>2015-10-20T10:55:18Z</time>
      </trkpt>
      <trkpt lat="44.11057" lon="3.17445">
        <ele>685</ele>
        <time>2015-10-20T10:57:18Z</time>
      </trkpt>
      <trkpt lat="44.11052" lon="3.17435">
        <ele>683</ele>
        <time>2015-10-20T10:59:18Z</time>
      </trkpt>
      <trkpt lat="44.11045" lon="3.1743">
        <ele>682</ele>
        <time>2015-10-20T11:01:18Z</time>
      </trkpt>
      <trkpt lat="44.11043" lon="3.17424">
        <ele>680</ele>
        <time>2015-10-20T11:03:18Z</time>
      </trkpt>
      <trkpt lat="44.11042" lon="3.17416">
        <ele>678</ele>
        <time>2015-10-20T11:05:18Z</time>
      </trkpt>
      <trkpt lat="44.11044" lon="3.17402">
        <ele>675</ele>
        <time>2015-10-20T11:07:18Z</time>
      </trkpt>
      <trkpt lat="44.11046" lon="3.17393">
        <ele>672</ele>
        <time>2015-10-20T11:09:18Z</time>
      </trkpt>
      <trkpt lat="44.1105" lon="3.17383">
        <ele>670</ele>
        <time>2015-10-20T11:11:18Z</time>
      </trkpt>
      <trkpt lat="44.11052" lon="3.17374">
        <ele>668</ele>
        <time>2015-10-20T11:13:18Z</time>
      </trkpt>
      <trkpt lat="44.11047" lon="3.17365">
        <ele>664</ele>
        <time>2015-10-20T11:15:18Z</time>
      </trkpt>
      <trkpt lat="44.11049" lon="3.17357">
        <ele>662</ele>
        <time>2015-10-20T11:17:18Z</time>
      </trkpt>
      <trkpt lat="44.11054" lon="3.17343">
        <ele>659</ele>
        <time>2015-10-20T11:19:18Z</time>
      </trkpt>
      <trkpt lat="44.11055" lon="3.17341">
        <ele>659</ele>
        <time>2015-10-20T11:21:18Z</time>
      </trkpt>
      <trkpt lat="44.1106" lon="3.17339">
        <ele>659</ele>
        <time>2015-10-20T11:23:18Z</time>
      </trkpt>
      <trkpt lat="44.11061" lon="3.17339">
        <ele>659</ele>
        <time>2015-10-20T11:25:18Z</time>
      </trkpt>
      <trkpt lat="44.11062" lon="3.1733">
        <ele>656</ele>
        <time>2015-10-20T11:27:18Z</time>
      </trkpt>
      <trkpt lat="44.11064" lon="3.17323">
        <ele>654</ele>
        <time>2015-10-20T11:29:18Z</time>
      </trkpt>
      <trkpt lat="44.1106" lon="3.17318">
        <ele>652</ele>
        <time>2015-10-20T11:31:18Z</time>
      </trkpt>
      <trkpt lat="44.11051" lon="3.17312">
        <ele>649</ele>
        <time>2015-10-20T11:33:18Z</time>
      </trkpt>
      <trkpt lat="44.11044" lon="3.17309">
        <ele>647</ele>
        <time>2015-10-20T11:35:18Z</time>
      </trkpt>
      <trkpt lat="44.11039" lon="3.17308">
        <ele>646</ele>
        <time>2015-10-20T11:37:18Z</time>
      </trkpt>
      <trkpt lat="44.11038" lon="3.17307">
        <ele>646</ele>
        <time>2015-10-20T11:39:18Z</time>
      </trkpt>
      <trkpt lat="44.11033" lon="3.17304">
        <ele>645</ele>
        <time>2015-10-20T11:41:18Z</time>
      </trkpt>
      <trkpt lat="44.11032" lon="3.17301">
        <ele>643</ele>
        <time>2015-10-20T11:43:18Z</time>
      </trkpt>
      <trkpt lat="44.11034" lon="3.17291">
        <ele>640</ele>
        <time>2015-10-20T11:45:18Z</time>
      </trkpt>
      <trkpt lat="44.11034" lon="3.17283">
        <ele>638</ele>
        <time>2015-10-20T11:47:18Z</time>
      </trkpt>
      <trkpt lat="44.11028" lon="3.17278">
        <ele>636</ele>
        <time>2015-10-20T11:49:18Z</time>
      </trkpt>
      <trkpt lat="44.11029" lon="3.17271">
        <ele>634</ele>
        <time>2015-10-20T11:51:18Z</time>
      </trkpt>
      <trkpt lat="44.11028" lon="3.17269">
        <ele>633</ele>
        <time>2015-10-20T11:53:18Z</time>
      </trkpt>
      <trkpt lat="44.11031" lon="3.17259">
        <ele>630</ele>
        <time>2015-10-20T11:55:18Z</time>
      </trkpt>
      <trkpt lat="44.11031" lon="3.17253">
        <ele>628</ele>
        <time>2015-10-20T11:57:18Z</time>
      </trkpt>
      <trkpt lat="44.11037" lon="3.17243">
        <ele>626</ele>
        <time>2015-10-20T11:59:18Z</time>
      </trkpt>
      <trkpt lat="44.11041" lon="3.17237">
        <ele>625</ele>
        <time>2015-10-20T12:01:18Z</time>
      </trkpt>
      <trkpt lat="44.11045" lon="3.17235">
        <ele>625</ele>
        <time>2015-10-20T12:03:18Z</time>
      </trkpt>
      <trkpt lat="44.11045" lon="3.17227">
        <ele>623</ele>
        <time>2015-10-20T12:05:18Z</time>
      </trkpt>
      <trkpt lat="44.11046" lon="3.17222">
        <ele>622</ele>
        <time>2015-10-20T12:07:18Z</time>
      </trkpt>
      <trkpt lat="44.11048" lon="3.17212">
        <ele>620</ele>
        <time>2015-10-20T12:09:18Z</time>
      </trkpt>
      <trkpt lat="44.11048" lon="3.17209">
        <ele>620</ele>
        <time>2015-10-20T12:11:18Z</time>
      </trkpt>
      <trkpt lat="44.11049" lon="3.17194">
        <ele>617</ele>
        <time>2015-10-20T12:13:18Z</time>
      </trkpt>
      <trkpt lat="44.11052" lon="3.1719">
        <ele>616</ele>
        <time>2015-10-20T12:15:18Z</time>
      </trkpt>
      <trkpt lat="44.11052" lon="3.17178">
        <ele>613</ele>
        <time>2015-10-20T12:17:18Z</time>
      </trkpt>
      <trkpt lat="44.11053" lon="3.17168">
        <ele>611</ele>
        <time>2015-10-20T12:19:18Z</time>
      </trkpt>
      <trkpt lat="44.11054" lon="3.17163">
        <ele>610</ele>
        <time>2015-10-20T12:21:18Z</time>
      </trkpt>
      <trkpt lat="44.11058" lon="3.17157">
        <ele>609</ele>
        <time>2015-10-20T12:23:18Z</time>
      </trkpt>
      <trkpt lat="44.11058" lon="3.17153">
        <ele>608</ele>
        <time>2015-10-20T12:25:18Z</time>
      </trkpt>
      <trkpt lat="44.11056" lon="3.17144">
        <ele>605</ele>
        <time>2015-10-20T12:27:18Z</time>
      </trkpt>
      <trkpt lat="44.11053" lon="3.17132">
        <ele>602</ele>
        <time>2015-10-20T12:29:18Z</time>
      </trkpt>
      <trkpt lat="44.11045" lon="3.17131">
        <ele>600</ele>
        <time>2015-10-20T12:31:18Z</time>
      </trkpt>
      <trkpt lat="44.11041" lon="3.17131">
        <ele>600</ele>
        <time>2015-10-20T12:33:18Z</time>
      </trkpt>
      <trkpt lat="44.11037" lon="3.1713">
        <ele>599</ele>
        <time>2015-10-20T12:35:18Z</time>
      </trkpt>
      <trkpt lat="44.1103" lon="3.17133">
        <ele>599</ele>
        <time>2015-10-20T12:37:18Z</time>
      </trkpt>
      <trkpt lat="44.11025" lon="3.17143">
        <ele>601</ele>
        <time>2015-10-20T12:39:18Z</time>
      </trkpt>
      <trkpt lat="44.11023" lon="3.17147">
        <ele>602</ele>
        <time>2015-10-20T12:41:18Z</time>
      </trkpt>
      <trkpt lat="44.1102" lon="3.17161">
        <ele>606</ele>
        <time>2015-10-20T12:43:18Z</time>
      </trkpt>
      <trkpt lat="44.11018" lon="3.17168">
        <ele>608</ele>
        <time>2015-10-20T12:45:18Z</time>
      </trkpt>
      <trkpt lat="44.11019" lon="3.17171">
        <ele>609</ele>
        <time>2015-10-20T12:47:18Z</time>
      </trkpt>
      <trkpt lat="44.11013" lon="3.17181">
        <ele>610</ele>
        <time>2015-10-20T12:49:18Z</time>
      </trkpt>
      <trkpt lat="44.1101" lon="3.17187">
        <ele>611</ele>
        <time>2015-10-20T12:51:18Z</time>
      </trkpt>
      <trkpt lat="44.10999" lon="3.17203">
        <ele>614</ele>
        <time>2015-10-20T12:53:18Z</time>
      </trkpt>
      <trkpt lat="44.10991" lon="3.17212">
        <ele>614</ele>
        <time>2015-10-20T12:55:18Z</time>
      </trkpt>
      <trkpt lat="44.10984" lon="3.1722">
        <ele>614</ele>
        <time>2015-10-20T12:57:18Z</time>
      </trkpt>
      <trkpt lat="44.10981" lon="3.17227">
        <ele>616</ele>
        <time>2015-10-20T12:59:18Z</time>
      </trkpt>
      <trkpt lat="44.10979" lon="3.17236">
        <ele>618</ele>
        <time>2015-10-20T13:01:18Z</time>
      </trkpt>
      <trkpt lat="44.10967" lon="3.17259">
        <ele>624</ele>
        <time>2015-10-20T13:03:18Z</time>
      </trkpt>
      <trkpt lat="44.10958" lon="3.17264">
        <ele>625</ele>
        <time>2015-10-20T13:05:18Z</time>
      </trkpt>
      <trkpt lat="44.10953" lon="3.17259">
        <ele>623</ele>
        <time>2015-10-20T13:07:18Z</time>
      </trkpt>
      <trkpt lat="44.10951" lon="3.17255">
        <ele>621</ele>
        <time>2015-10-20T13:09:18Z</time>
      </trkpt>
      <trkpt lat="44.10947" lon="3.17251">
        <ele>619</ele>
        <time>2015-10-20T13:11:18Z</time>
      </trkpt>
      <trkpt lat="44.10939" lon="3.17246">
        <ele>616</ele>
        <time>2015-10-20T13:13:18Z</time>
      </trkpt>
      <trkpt lat="44.10938" lon="3.17244">
        <ele>616</ele>
        <time>2015-10-20T13:15:18Z</time>
      </trkpt>
      <trkpt lat="44.10933" lon="3.17239">
        <ele>613</ele>
        <time>2015-10-20T13:17:18Z</time>
      </trkpt>
      <trkpt lat="44.10924" lon="3.17236">
        <ele>610</ele>
        <time>2015-10-20T13:19:18Z</time>
      </trkpt>
      <trkpt lat="44.10914" lon="3.17228">
        <ele>605</ele>
        <time>2015-10-20T13:21:18Z</time>
      </trkpt>
      <trkpt lat="44.109" lon="3.17224">
        <ele>603</ele>
        <time>2015-10-20T13:23:18Z</time>
      </trkpt>
      <trkpt lat="44.10892" lon="3.1722">
        <ele>601</ele>
        <time>2015-10-20T13:25:18Z</time>
      </trkpt>
      <trkpt lat="44.10886" lon="3.17216">
        <ele>598</ele>
        <time>2015-10-20T13:27:18Z</time>
      </trkpt>
      <trkpt lat="44.10878" lon="3.17206">
        <ele>593</ele>
        <time>2015-10-20T13:29:18Z</time>
      </trkpt>
      <trkpt lat="44.10872" lon="3.17203">
        <ele>592</ele>
        <time>2015-10-20T13:31:18Z</time>
      </trkpt>
      <trkpt lat="44.10867" lon="3.17203">
        <ele>592</ele>
        <time>2015-10-20T13:33:18Z</time>
      </trkpt>
      <trkpt lat="44.10858" lon="3.17199">
        <ele>590</ele>
        <time>2015-10-20T13:35:18Z</time>
      </trkpt>
      <trkpt lat="44.1085" lon="3.17195">
        <ele>588</ele>
        <time>2015-10-20T13:37:18Z</time>
      </trkpt>
      <trkpt lat="44.10841" lon="3.17196">
        <ele>588</ele>
        <time>2015-10-20T13:39:18Z</time>
      </trkpt>
      <trkpt lat="44.10838" lon="3.17195">
        <ele>587</ele>
        <time>2015-10-20T13:41:18Z</time>
      </trkpt>
      <trkpt lat="44.10827" lon="3.17204">
        <ele>590</ele>
        <time>2015-10-20T13:43:18Z</time>
      </trkpt>
      <trkpt lat="44.10825" lon="3.17205">
        <ele>590</ele>
        <time>2015-10-20T13:45:18Z</time>
      </trkpt>
      <trkpt lat="44.10811" lon="3.17209">
        <ele>589</ele>
        <time>2015-10-20T13:47:18Z</time>
      </trkpt>
      <trkpt lat="44.10804" lon="3.1721">
        <ele>588</ele>
        <time>2015-10-20T13:49:18Z</time>
      </trkpt>
      <trkpt lat="44.10798" lon="3.1722">
        <ele>591</ele>
        <time>2015-10-20T13:51:18Z</time>
      </trkpt>
      <trkpt lat="44.10795" lon="3.17227">
        <ele>594</ele>
        <time>2015-10-20T13:53:18Z</time>
      </trkpt>
      <trkpt lat="44.10794" lon="3.17231">
        <ele>596</ele>
        <time>2015-10-20T13:55:18Z</time>
      </trkpt>
      <trkpt lat="44.10789" lon="3.17239">
        <ele>599</ele>
        <time>2015-10-20T13:57:18Z</time>
      </trkpt>
      <trkpt lat="44.10785" lon="3.17252">
        <ele>605</ele>
        <time>2015-10-20T13:59:18Z</time>
      </trkpt>
      <trkpt lat="44.10783" lon="3.17261">
        <ele>608</ele>
        <time>2015-10-20T14:01:18Z</time>
      </trkpt>
      <trkpt lat="44.10773" lon="3.17273">
        <ele>611</ele>
        <time>2015-10-20T14:03:18Z</time>
      </trkpt>
      <trkpt lat="44.10762" lon="3.17271">
        <ele>608</ele>
        <time>2015-10-20T14:05:18Z</time>
      </trkpt>
      <trkpt lat="44.10759" lon="3.1727">
        <ele>607</ele>
        <time>2015-10-20T14:07:18Z</time>
      </trkpt>
      <trkpt lat="44.10751" lon="3.1727">
        <ele>606</ele>
        <time>2015-10-20T14:09:18Z</time>
      </trkpt>
      <trkpt lat="44.10743" lon="3.17262">
        <ele>602</ele>
        <time>2015-10-20T14:11:18Z</time>
      </trkpt>
      <trkpt lat="44.10736" lon="3.17255">
        <ele>598</ele>
        <time>2015-10-20T14:13:18Z</time>
      </trkpt>
      <trkpt lat="44.10726" lon="3.17252">
        <ele>596</ele>
        <time>2015-10-20T14:15:18Z</time>
      </trkpt>
      <trkpt lat="44.10723" lon="3.17251">
        <ele>595</ele>
        <time>2015-10-20T14:17:18Z</time>
      </trkpt>
      <trkpt lat="44.10718" lon="3.1725">
        <ele>595</ele>
        <time>2015-10-20T14:19:18Z</time>
      </trkpt>
      <trkpt lat="44.10713" lon="3.17247">
        <ele>592</ele>
        <time>2015-10-20T14:21:18Z</time>
      </trkpt>
      <trkpt lat="44.10706" lon="3.17242">
        <ele>589</ele>
        <time>2015-10-20T14:23:18Z</time>
      </trkpt>
      <trkpt lat="44.10701" lon="3.17235">
        <ele>584</ele>
        <time>2015-10-20T14:25:18Z</time>
      </trkpt>
      <trkpt lat="44.10693" lon="3.17231">
        <ele>581</ele>
        <time>2015-10-20T14:27:18Z</time>
      </trkpt>
      <trkpt lat="44.10682" lon="3.17226">
        <ele>576</ele>
        <time>2015-10-20T14:29:18Z</time>
      </trkpt>
      <trkpt lat="44.10675" lon="3.17226">
        <ele>576</ele>
        <time>2015-10-20T14:31:18Z</time>
      </trkpt>
      <trkpt lat="44.10666" lon="3.17231">
        <ele>577</ele>
        <time>2015-10-20T14:33:18Z</time>
      </trkpt>
      <trkpt lat="44.10649" lon="3.17243">
        <ele>579</ele>
        <time>2015-10-20T14:35:18Z</time>
      </trkpt>
      <trkpt lat="44.10639" lon="3.17251">
        <ele>580</ele>
        <time>2015-10-20T14:37:18Z</time>
      </trkpt>
      <trkpt lat="44.10628" lon="3.17261">
        <ele>581</ele>
        <time>2015-10-20T14:39:18Z</time>
      </trkpt>
      <trkpt lat="44.10624" lon="3.17267">
        <ele>582</ele>
        <time>2015-10-20T14:41:18Z</time>
      </trkpt>
      <trkpt lat="44.10614" lon="3.17272">
        <ele>581</ele>
        <time>2015-10-20T14:43:18Z</time>
      </trkpt>
      <trkpt lat="44.1061" lon="3.17274">
        <ele>581</ele>
        <time>2015-10-20T14:45:18Z</time>
      </trkpt>
      <trkpt lat="44.10598" lon="3.17282">
        <ele>581</ele>
        <time>2015-10-20T14:47:18Z</time>
      </trkpt>
      <trkpt lat="44.10597" lon="3.17283">
        <ele>581</ele>
        <time>2015-10-20T14:49:18Z</time>
      </trkpt>
      <trkpt lat="44.10589" lon="3.17288">
        <ele>580</ele>
        <time>2015-10-20T14:51:18Z</time>
      </trkpt>
      <trkpt lat="44.10584" lon="3.17293">
        <ele>581</ele>
        <time>2015-10-20T14:53:18Z</time>
      </trkpt>
      <trkpt lat="44.10576" lon="3.17301">
        <ele>581</ele>
        <time>2015-10-20T14:55:18Z</time>
      </trkpt>
      <trkpt lat="44.10571" lon="3.17307">
        <ele>580</ele>
        <time>2015-10-20T14:57:18Z</time>
      </trkpt>
      <trkpt lat="44.10566" lon="3.17313">
        <ele>580</ele>
        <time>2015-10-20T14:59:18Z</time>
      </trkpt>
      <trkpt lat="44.10565" lon="3.17317">
        <ele>581</ele>
        <time>2015-10-20T15:01:18Z</time>
      </trkpt>
      <trkpt lat="44.10565" lon="3.17326">
        <ele>585</ele>
        <time>2015-10-20T15:03:18Z</time>
      </trkpt>
      <trkpt lat="44.10565" lon="3.1734">
        <ele>590</ele>
        <time>2015-10-20T15:05:18Z</time>
      </trkpt>
      <trkpt lat="44.10563" lon="3.17352">
        <ele>592</ele>
        <time>2015-10-20T15:07:18Z</time>
      </trkpt>
      <trkpt lat="44.1056" lon="3.1736">
        <ele>592</ele>
        <time>2015-10-20T15:09:18Z</time>
      </trkpt>
      <trkpt lat="44.10552" lon="3.17368">
        <ele>590</ele>
        <time>2015-10-20T15:11:18Z</time>
      </trkpt>
      <trkpt lat="44.10541" lon="3.1738">
        <ele>587</ele>
        <time>2015-10-20T15:13:18Z</time>
      </trkpt>
      <trkpt lat="44.10532" lon="3.17383">
        <ele>583</ele>
        <time>2015-10-20T15:15:18Z</time>
      </trkpt>
      <trkpt lat="44.10523" lon="3.17388">
        <ele>580</ele>
        <time>2015-10-20T15:17:18Z</time>
      </trkpt>
      <trkpt lat="44.10515" lon="3.17402">
        <ele>580</ele>
        <time>2015-10-20T15:19:18Z</time>
      </trkpt>
      <trkpt lat="44.10514" lon="3.17407">
        <ele>581</ele>
        <time>2015-10-20T15:21:18Z</time>
      </trkpt>
      <trkpt lat="44.10505" lon="3.17418">
        <ele>580</ele>
        <time>2015-10-20T15:23:18Z</time>
      </trkpt>
      <trkpt lat="44.105" lon="3.17428">
        <ele>579</ele>
        <time>2015-10-20T15:25:18Z</time>
      </trkpt>
      <trkpt lat="44.10493" lon="3.17437">
        <ele>580</ele>
        <time>2015-10-20T15:27:18Z</time>
      </trkpt>
      <trkpt lat="44.10487" lon="3.17452">
        <ele>582</ele>
        <time>2015-10-20T15:29:18Z</time>
      </trkpt>
      <trkpt lat="44.10479" lon="3.17464">
        <ele>583</ele>
        <time>2015-10-20T15:31:18Z</time>
      </trkpt>
      <trkpt lat="44.10473" lon="3.1747">
        <ele>583</ele>
        <time>2015-10-20T15:33:18Z</time>
      </trkpt>
      <trkpt lat="44.10461" lon="3.17476">
        <ele>582</ele>
        <time>2015-10-20T15:35:18Z</time>
      </trkpt>
      <trkpt lat="44.10455" lon="3.17481">
        <ele>581</ele>
        <time>2015-10-20T15:37:18Z</time>
      </trkpt>
      <trkpt lat="44.10442" lon="3.17489">
        <ele>579</ele>
        <time>2015-10-20T15:39:18Z</time>
      </trkpt>
      <trkpt lat="44.1043" lon="3.17497">
        <ele>577</ele>
        <time>2015-10-20T15:41:18Z</time>
      </trkpt>
      <trkpt lat="44.10423" lon="3.17508">
        <ele>577</ele>
        <time>2015-10-20T15:43:18Z</time>
      </trkpt>
      <trkpt lat="44.10422" lon="3.17511">
        <ele>577</ele>
        <time>2015-10-20T15:45:18Z</time>
      </trkpt>
      <trkpt lat="44.10424" lon="3.17527">
        <ele>579</ele>
        <time>2015-10-20T15:47:18Z</time>
      </trkpt>
      <trkpt lat="44.10429" lon="3.17544">
        <ele>583</ele>
        <time>2015-10-20T15:49:18Z</time>
      </trkpt>
      <trkpt lat="44.10425" lon="3.17554">
        <ele>583</ele>
        <time>2015-10-20T15:51:18Z</time>
      </trkpt>
      <trkpt lat="44.10422" lon="3.17556">
        <ele>583</ele>
        <time>2015-10-20T15:53:18Z</time>
      </trkpt>
      <trkpt lat="44.10418" lon="3.1756">
        <ele>582</ele>
        <time>2015-10-20T15:55:18Z</time>
      </trkpt>
      <trkpt lat="44.10414" lon="3.1756">
        <ele>583</ele>
        <time>2015-10-20T15:57:18Z</time>
      </trkpt>
      <trkpt lat="44.10412" lon="3.1756">
        <ele>583</ele>
        <time>2015-10-20T15:59:18Z</time>
      </trkpt>
      <trkpt lat="44.1041" lon="3.1756">
        <ele>584</ele>
        <time>2015-10-20T16:01:18Z</time>
      </trkpt>
      <trkpt lat="44.10405" lon="3.17555">
        <ele>585</ele>
        <time>2015-10-20T16:03:18Z</time>
      </trkpt>
      <trkpt lat="44.10398" lon="3.1754">
        <ele>585</ele>
        <time>2015-10-20T16:05:18Z</time>
      </trkpt>
      <trkpt lat="44.1039" lon="3.17527">
        <ele>586</ele>
        <time>2015-10-20T16:07:18Z</time>
      </trkpt>
      <trkpt lat="44.10387" lon="3.17515">
        <ele>586</ele>
        <time>2015-10-20T16:09:18Z</time>
      </trkpt>
      <trkpt lat="44.10382" lon="3.17499">
        <ele>586</ele>
        <time>2015-10-20T16:11:18Z</time>
      </trkpt>
      <trkpt lat="44.1038" lon="3.17482">
        <ele>586</ele>
        <time>2015-10-20T16:13:18Z</time>
      </trkpt>
      <trkpt lat="44.10385" lon="3.17465">
        <ele>584</ele>
        <time>2015-10-20T16:15:18Z</time>
      </trkpt>
      <trkpt lat="44.10387" lon="3.1745">
        <ele>583</ele>
        <time>2015-10-20T16:17:18Z</time>
      </trkpt>
      <trkpt lat="44.1039" lon="3.17429">
        <ele>581</ele>
        <time>2015-10-20T16:19:18Z</time>
      </trkpt>
      <trkpt lat="44.10392" lon="3.17417">
        <ele>580</ele>
        <time>2015-10-20T16:21:18Z</time>
      </trkpt>
      <trkpt lat="44.10394" lon="3.17408">
        <ele>579</ele>
        <time>2015-10-20T16:23:18Z</time>
      </trkpt>
      <trkpt lat="44.10397" lon="3.17391">
        <ele>576</ele>
        <time>2015-10-20T16:25:18Z</time>
      </trkpt>
      <trkpt lat="44.10397" lon="3.17385">
        <ele>576</ele>
        <time>2015-10-20T16:27:18Z</time>
      </trkpt>
      <trkpt lat="44.10405" lon="3.17368">
        <ele>571</ele>
        <time>2015-10-20T16:29:18Z</time>
      </trkpt>
      <trkpt lat="44.10408" lon="3.17365">
        <ele>569</ele>
        <time>2015-10-20T16:31:18Z</time>
      </trkpt>
      <trkpt lat="44.1041" lon="3.17347">
        <ele>566</ele>
        <time>2015-10-20T16:33:18Z</time>
      </trkpt>
      <trkpt lat="44.1041" lon="3.17344">
        <ele>566</ele>
        <time>2015-10-20T16:35:18Z</time>
      </trkpt>
      <trkpt lat="44.10407" lon="3.1733">
        <ele>568</ele>
        <time>2015-10-20T16:37:18Z</time>
      </trkpt>
      <trkpt lat="44.10407" lon="3.17313">
        <ele>568</ele>
        <time>2015-10-20T16:39:18Z</time>
      </trkpt>
      <trkpt lat="44.1041" lon="3.17307">
        <ele>566</ele>
        <time>2015-10-20T16:41:18Z</time>
      </trkpt>
      <trkpt lat="44.10411" lon="3.17301">
        <ele>565</ele>
        <time>2015-10-20T16:43:18Z</time>
      </trkpt>
      <trkpt lat="44.10412" lon="3.17295">
        <ele>565</ele>
        <time>2015-10-20T16:45:18Z</time>
      </trkpt>
      <trkpt lat="44.10404" lon="3.1728">
        <ele>571</ele>
        <time>2015-10-20T16:47:18Z</time>
      </trkpt>
      <trkpt lat="44.10394" lon="3.17265">
        <ele>578</ele>
        <time>2015-10-20T16:49:18Z</time>
      </trkpt>
      <trkpt lat="44.10393" lon="3.17259">
        <ele>579</ele>
        <time>2015-10-20T16:51:18Z</time>
      </trkpt>
      <trkpt lat="44.104" lon="3.17246">
        <ele>574</ele>
        <time>2015-10-20T16:53:18Z</time>
      </trkpt>
      <trkpt lat="44.10411" lon="3.17226">
        <ele>567</ele>
        <time>2015-10-20T16:55:18Z</time>
      </trkpt>
      <trkpt lat="44.10406" lon="3.17206">
        <ele>571</ele>
        <time>2015-10-20T16:57:18Z</time>
      </trkpt>
      <trkpt lat="44.10404" lon="3.172">
        <ele>572</ele>
        <time>2015-10-20T16:59:18Z</time>
      </trkpt>
      <trkpt lat="44.10407" lon="3.17189">
        <ele>570</ele>
        <time>2015-10-20T17:01:18Z</time>
      </trkpt>
      <trkpt lat="44.10409" lon="3.1718">
        <ele>569</ele>
        <time>2015-10-20T17:03:18Z</time>
      </trkpt>
      <trkpt lat="44.10414" lon="3.17164">
        <ele>566</ele>
        <time>2015-10-20T17:05:18Z</time>
      </trkpt>
      <trkpt lat="44.10419" lon="3.17152">
        <ele>564</ele>
        <time>2015-10-20T17:07:18Z</time>
      </trkpt>
      <trkpt lat="44.10424" lon="3.17143">
        <ele>562</ele>
        <time>2015-10-20T17:09:18Z</time>
      </trkpt>
      <trkpt lat="44.10432" lon="3.17129">
        <ele>559</ele>
        <time>2015-10-20T17:11:18Z</time>
      </trkpt>
      <trkpt lat="44.10435" lon="3.17114">
        <ele>559</ele>
        <time>2015-10-20T17:13:18Z</time>
      </trkpt>
      <trkpt lat="44.10437" lon="3.17101">
        <ele>560</ele>
        <time>2015-10-20T17:15:18Z</time>
      </trkpt>
      <trkpt lat="44.10445" lon="3.17102">
        <ele>554</ele>
        <time>2015-10-20T17:17:18Z</time>
      </trkpt>
      <trkpt lat="44.10442" lon="3.1711">
        <ele>555</ele>
        <time>2015-10-20T17:19:18Z</time>
      </trkpt>
      <trkpt lat="44.10438" lon="3.17126">
        <ele>555</ele>
        <time>2015-10-20T17:21:18Z</time>
      </trkpt>
      <trkpt lat="44.10432" lon="3.17144">
        <ele>557</ele>
        <time>2015-10-20T17:23:18Z</time>
      </trkpt>
      <trkpt lat="44.10428" lon="3.17161">
        <ele>557</ele>
        <time>2015-10-20T17:25:18Z</time>
      </trkpt>
      <trkpt lat="44.10426" lon="3.17173">
        <ele>557</ele>
        <time>2015-10-20T17:27:18Z</time>
      </trkpt>
      <trkpt lat="44.10425" lon="3.17178">
        <ele>558</ele>
        <time>2015-10-20T17:29:18Z</time>
      </trkpt>
      <trkpt lat="44.10425" lon="3.17183">
        <ele>558</ele>
        <time>2015-10-20T17:31:18Z</time>
      </trkpt>
      <trkpt lat="44.10425" lon="3.17198">
        <ele>558</ele>
        <time>2015-10-20T17:33:18Z</time>
      </trkpt>
      <trkpt lat="44.10429" lon="3.17216">
        <ele>556</ele>
        <time>2015-10-20T17:35:18Z</time>
      </trkpt>
      <trkpt lat="44.1043" lon="3.17236">
        <ele>556</ele>
        <time>2015-10-20T17:37:18Z</time>
      </trkpt>
      <trkpt lat="44.10432" lon="3.17252">
        <ele>556</ele>
        <time>2015-10-20T17:39:18Z</time>
      </trkpt>
      <trkpt lat="44.10436" lon="3.17269">
        <ele>555</ele>
        <time>2015-10-20T17:41:18Z</time>
      </trkpt>
      <trkpt lat="44.10437" lon="3.17288">
        <ele>556</ele>
        <time>2015-10-20T17:43:18Z</time>
      </trkpt>
      <trkpt lat="44.10438" lon="3.17305">
        <ele>557</ele>
        <time>2015-10-20T17:45:18Z</time>
      </trkpt>
      <trkpt lat="44.10441" lon="3.17321">
        <ele>557</ele>
        <time>2015-10-20T17:47:18Z</time>
      </trkpt>
      <trkpt lat="44.10443" lon="3.17337">
        <ele>558</ele>
        <time>2015-10-20T17:49:18Z</time>
      </trkpt>
      <trkpt lat="44.10442" lon="3.17349">
        <ele>560</ele>
        <time>2015-10-20T17:51:18Z</time>
      </trkpt>
      <trkpt lat="44.10438" lon="3.17364">
        <ele>562</ele>
        <time>2015-10-20T17:53:18Z</time>
      </trkpt>
      <trkpt lat="44.10435" lon="3.17387">
        <ele>566</ele>
        <time>2015-10-20T17:55:18Z</time>
      </trkpt>
      <trkpt lat="44.10436" lon="3.17398">
        <ele>567</ele>
        <time>2015-10-20T17:57:18Z</time>
      </trkpt>
      <trkpt lat="44.1044" lon="3.17393">
        <ele>567</ele>
        <time>2015-10-20T17:59:18Z</time>
      </trkpt>
      <trkpt lat="44.10442" lon="3.17382">
        <ele>565</ele>
        <time>2015-10-20T18:01:18Z</time>
      </trkpt>
      <trkpt lat="44.10448" lon="3.1737">
        <ele>563</ele>
        <time>2015-10-20T18:03:18Z</time>
      </trkpt>
      <trkpt lat="44.10456" lon="3.17359">
        <ele>561</ele>
        <time>2015-10-20T18:05:18Z</time>
      </trkpt>
      <trkpt lat="44.10464" lon="3.17348">
        <ele>558</ele>
        <time>2015-10-20T18:07:18Z</time>
      </trkpt>
      <trkpt lat="44.10472" lon="3.17341">
        <ele>555</ele>
        <time>2015-10-20T18:09:18Z</time>
      </trkpt>
      <trkpt lat="44.10473" lon="3.17339">
        <ele>554</ele>
        <time>2015-10-20T18:11:18Z</time>
      </trkpt>
      <trkpt lat="44.10473" lon="3.17327">
        <ele>552</ele>
        <time>2015-10-20T18:13:18Z</time>
      </trkpt>
      <trkpt lat="44.10476" lon="3.17314">
        <ele>549</ele>
        <time>2015-10-20T18:15:18Z</time>
      </trkpt>
      <trkpt lat="44.10476" lon="3.1731">
        <ele>549</ele>
        <time>2015-10-20T18:17:18Z</time>
      </trkpt>
      <trkpt lat="44.10476" lon="3.17287">
        <ele>545</ele>
        <time>2015-10-20T18:19:18Z</time>
      </trkpt>
      <trkpt lat="44.10473" lon="3.17275">
        <ele>544</ele>
        <time>2015-10-20T18:21:18Z</time>
      </trkpt>
      <trkpt lat="44.10472" lon="3.17263">
        <ele>543</ele>
        <time>2015-10-20T18:23:18Z</time>
      </trkpt>
      <trkpt lat="44.10474" lon="3.1725">
        <ele>540</ele>
        <time>2015-10-20T18:25:18Z</time>
      </trkpt>
      <trkpt lat="44.1048" lon="3.17242">
        <ele>536</ele>
        <time>2015-10-20T18:27:18Z</time>
      </trkpt>
      <trkpt lat="44.10486" lon="3.1723">
        <ele>531</ele>
        <time>2015-10-20T18:29:18Z</time>
      </trkpt>
      <trkpt lat="44.10492" lon="3.17213">
        <ele>525</ele>
        <time>2015-10-20T18:31:18Z</time>
      </trkpt>
      <trkpt lat="44.10493" lon="3.1721">
        <ele>524</ele>
        <time>2015-10-20T18:33:18Z</time>
      </trkpt>
      <trkpt lat="44.105" lon="3.17196">
        <ele>517</ele>
        <time>2015-10-20T18:35:18Z</time>
      </trkpt>
      <trkpt lat="44.10504" lon="3.17184">
        <ele>515</ele>
        <time>2015-10-20T18:37:18Z</time>
      </trkpt>
      <trkpt lat="44.10513" lon="3.17172">
        <ele>512</ele>
        <time>2015-10-20T18:39:18Z</time>
      </trkpt>
      <trkpt lat="44.10519" lon="3.17164">
        <ele>511</ele>
        <time>2015-10-20T18:41:18Z</time>
      </trkpt>
      <trkpt lat="44.10528" lon="3.17158">
        <ele>511</ele>
        <time>2015-10-20T18:43:18Z</time>
      </trkpt>
      <trkpt lat="44.10534" lon="3.17155">
        <ele>511</ele>
        <time>2015-10-20T18:45:18Z</time>
      </trkpt>
      <trkpt lat="44.10544" lon="3.1715">
        <ele>510</ele>
        <time>2015-10-20T18:47:18Z</time>
      </trkpt>
      <trkpt lat="44.10551" lon="3.17135">
        <ele>508</ele>
        <time>2015-10-20T18:49:18Z</time>
      </trkpt>
      <trkpt lat="44.1056" lon="3.17124">
        <ele>504</ele>
        <time>2015-10-20T18:51:18Z</time>
      </trkpt>
      <trkpt lat="44.10578" lon="3.17105">
        <ele>496</ele>
        <time>2015-10-20T18:53:18Z</time>
      </trkpt>
      <trkpt lat="44.10586" lon="3.17094">
        <ele>491</ele>
        <time>2015-10-20T18:55:18Z</time>
      </trkpt>
      <trkpt lat="44.10591" lon="3.1708">
        <ele>488</ele>
        <time>2015-10-20T18:57:18Z</time>
      </trkpt>
      <trkpt lat="44.10595" lon="3.17066">
        <ele>489</ele>
        <time>2015-10-20T18:59:18Z</time>
      </trkpt>
      <trkpt lat="44.10595" lon="3.17064">
        <ele>489</ele>
        <time>2015-10-20T19:01:18Z</time>
      </trkpt>
      <trkpt lat="44.10603" lon="3.17047">
        <ele>489</ele>
        <time>2015-10-20T19:03:18Z</time>
      </trkpt>
      <trkpt lat="44.10609" lon="3.17022">
        <ele>487</ele>
        <time>2015-10-20T19:05:18Z</time>
      </trkpt>
      <trkpt lat="44.10613" lon="3.17015">
        <ele>486</ele>
        <time>2015-10-20T19:07:18Z</time>
      </trkpt>
      <trkpt lat="44.10625" lon="3.17008">
        <ele>484</ele>
        <time>2015-10-20T19:09:18Z</time>
      </trkpt>
      <trkpt lat="44.10637" lon="3.17005">
        <ele>482</ele>
        <time>2015-10-20T19:11:18Z</time>
      </trkpt>
      <trkpt lat="44.10647" lon="3.17001">
        <ele>480</ele>
        <time>2015-10-20T19:13:18Z</time>
      </trkpt>
      <trkpt lat="44.1065" lon="3.16998">
        <ele>480</ele>
        <time>2015-10-20T19:15:18Z</time>
      </trkpt>
      <trkpt lat="44.10659" lon="3.16996">
        <ele>479</ele>
        <time>2015-10-20T19:17:18Z</time>
      </trkpt>
      <trkpt lat="44.10661" lon="3.16996">
        <ele>479</ele>
        <time>2015-10-20T19:19:18Z</time>
      </trkpt>
      <trkpt lat="44.10667" lon="3.16992">
        <ele>478</ele>
        <time>2015-10-20T19:21:18Z</time>
      </trkpt>
      <trkpt lat="44.10677" lon="3.16988">
        <ele>479</ele>
        <time>2015-10-20T19:23:18Z</time>
      </trkpt>
      <trkpt lat="44.10691" lon="3.16978">
        <ele>479</ele>
        <time>2015-10-20T19:25:18Z</time>
      </trkpt>
      <trkpt lat="44.10695" lon="3.16977">
        <ele>479</ele>
        <time>2015-10-20T19:27:18Z</time>
      </trkpt>
      <trkpt lat="44.10704" lon="3.16971">
        <ele>479</ele>
        <time>2015-10-20T19:29:18Z</time>
      </trkpt>
      <trkpt lat="44.1071" lon="3.16972">
        <ele>478</ele>
        <time>2015-10-20T19:31:18Z</time>
      </trkpt>
      <trkpt lat="44.10698" lon="3.16909">
        <ele>485</ele>
        <time>2015-10-20T19:33:18Z</time>
      </trkpt>
      <trkpt lat="44.10689" lon="3.16876">
        <ele>496</ele>
        <time>2015-10-20T19:35:18Z</time>
      </trkpt>
      <trkpt lat="44.10697" lon="3.16851">
        <ele>499</ele>
        <time>2015-10-20T19:37:18Z</time>
      </trkpt>
      <trkpt lat="44.10706" lon="3.1684">
        <ele>497</ele>
        <time>2015-10-20T19:39:18Z</time>
      </trkpt>
      <trkpt lat="44.10709" lon="3.16778">
        <ele>504</ele>
        <time>2015-10-20T19:41:18Z</time>
      </trkpt>
      <trkpt lat="44.10701" lon="3.16752">
        <ele>513</ele>
        <time>2015-10-20T19:43:18Z</time>
      </trkpt>
      <trkpt lat="44.10694" lon="3.16735">
        <ele>518</ele>
        <time>2015-10-20T19:45:18Z</time>
      </trkpt>
      <trkpt lat="44.10685" lon="3.16716">
        <ele>524</ele>
        <time>2015-10-20T19:47:18Z</time>
      </trkpt>
      <trkpt lat="44.10669" lon="3.1669">
        <ele>535</ele>
        <time>2015-10-20T19:49:18Z</time>
      </trkpt>
      <trkpt lat="44.10655" lon="3.1666">
        <ele>544</ele>
        <time>2015-10-20T19:51:18Z</time>
      </trkpt>
      <trkpt lat="44.1064" lon="3.16638">
        <ele>553</ele>
        <time>2015-10-20T19:53:18Z</time>
      </trkpt>
      <trkpt lat="44.10603" lon="3.16619">
        <ele>578</ele>
        <time>2015-10-20T19:55:18Z</time>
      </trkpt>
      <trkpt lat="44.10567" lon="3.16602">
        <ele>602</ele>
        <time>2015-10-20T19:57:18Z</time>
      </trkpt>
      <trkpt lat="44.10526" lon="3.16591">
        <ele>632</ele>
        <time>2015-10-20T19:59:18Z</time>
      </trkpt>
      <trkpt lat="44.10469" lon="3.16591">
        <ele>664</ele>
        <time>2015-10-20T20:01:18Z</time>
      </trkpt>
      <trkpt lat="44.1044" lon="3.16591">
        <ele>676</ele>
        <time>2015-10-20T20:03:18Z</time>
      </trkpt>
      <trkpt lat="44.10424" lon="3.1658">
        <ele>685</ele>
        <time>2015-10-20T20:05:18Z</time>
      </trkpt>
      <trkpt lat="44.10424" lon="3.16565">
        <ele>688</ele>
        <time>2015-10-20T20:07:18Z</time>
      </trkpt>
      <trkpt lat="44.10429" lon="3.1654">
        <ele>691</ele>
        <time>2015-10-20T20:09:18Z</time>
      </trkpt>
      <trkpt lat="44.10458" lon="3.16531">
        <ele>681</ele>
        <time>2015-10-20T20:11:18Z</time>
      </trkpt>
      <trkpt lat="44.10477" lon="3.16527">
        <ele>674</ele>
        <time>2015-10-20T20:13:18Z</time>
      </trkpt>
      <trkpt lat="44.10493" lon="3.16522">
        <ele>669</ele>
        <time>2015-10-20T20:15:18Z</time>
      </trkpt>
      <trkpt lat="44.10507" lon="3.16522">
        <ele>661</ele>
        <time>2015-10-20T20:17:18Z</time>
      </trkpt>
      <trkpt lat="44.10529" lon="3.16514">
        <ele>646</ele>
        <time>2015-10-20T20:19:18Z</time>
      </trkpt>
      <trkpt lat="44.10547" lon="3.16503">
        <ele>635</ele>
        <time>2015-10-20T20:21:18Z</time>
      </trkpt>
      <trkpt lat="44.10571" lon="3.1648">
        <ele>618</ele>
        <time>2015-10-20T20:23:18Z</time>
      </trkpt>
      <trkpt lat="44.10589" lon="3.1646">
        <ele>607</ele>
        <time>2015-10-20T20:25:18Z</time>
      </trkpt>
      <trkpt lat="44.10594" lon="3.16415">
        <ele>607</ele>
        <time>2015-10-20T20:27:18Z</time>
      </trkpt>
      <trkpt lat="44.10591" lon="3.16338">
        <ele>587</ele>
        <time>2015-10-20T20:29:18Z</time>
      </trkpt>
      <trkpt lat="44.10547" lon="3.16287">
        <ele>583</ele>
        <time>2015-10-20T20:31:18Z</time>
      </trkpt>
      <trkpt lat="44.10512" lon="3.1628">
        <ele>586</ele>
        <time>2015-10-20T20:33:18Z</time>
      </trkpt>
      <trkpt lat="44.10477" lon="3.16308">
        <ele>606</ele>
        <time>2015-10-20T20:35:18Z</time>
      </trkpt>
      <trkpt lat="44.10449" lon="3.16349">
        <ele>636</ele>
        <time>2015-10-20T20:37:18Z</time>
      </trkpt>
      <trkpt lat="44.10418" lon="3.16329">
        <ele>629</ele>
        <time>2015-10-20T20:39:18Z</time>
      </trkpt>
      <trkpt lat="44.10366" lon="3.16241">
        <ele>576</ele>
        <time>2015-10-20T20:41:18Z</time>
      </trkpt>
      <trkpt lat="44.10333" lon="3.16252">
        <ele>584</ele>
        <time>2015-10-20T20:43:18Z</time>
      </trkpt>
      <trkpt lat="44.10286" lon="3.16284">
        <ele>606</ele>
        <time>2015-10-20T20:45:18Z</time>
      </trkpt>
      <trkpt lat="44.10259" lon="3.16344">
        <ele>640</ele>
        <time>2015-10-20T20:47:18Z</time>
      </trkpt>
      <trkpt lat="44.10222" lon="3.16344">
        <ele>647</ele>
        <time>2015-10-20T20:49:18Z</time>
      </trkpt>
      <trkpt lat="44.10218" lon="3.16325">
        <ele>637</ele>
        <time>2015-10-20T20:51:18Z</time>
      </trkpt>
      <trkpt lat="44.10202" lon="3.16312">
        <ele>635</ele>
        <time>2015-10-20T20:53:18Z</time>
      </trkpt>
      <trkpt lat="44.10187" lon="3.16286">
        <ele>626</ele>
        <time>2015-10-20T20:55:18Z</time>
      </trkpt>
      <trkpt lat="44.10181" lon="3.16263">
        <ele>616</ele>
        <time>2015-10-20T20:57:18Z</time>
      </trkpt>
      <trkpt lat="44.10085" lon="3.16239">
        <ele>618</ele>
        <time>2015-10-20T20:59:18Z</time>
      </trkpt>
      <trkpt lat="44.10056" lon="3.16237">
        <ele>616</ele>
        <time>2015-10-20T21:01:18Z</time>
      </trkpt>
      <trkpt lat="44.10028" lon="3.16228">
        <ele>611</ele>
        <time>2015-10-20T21:03:18Z</time>
      </trkpt>
      <trkpt lat="44.10003" lon="3.16218">
        <ele>605</ele>
        <time>2015-10-20T21:05:18Z</time>
      </trkpt>
      <trkpt lat="44.09953" lon="3.16226">
        <ele>603</ele>
        <time>2015-10-20T21:07:18Z</time>
      </trkpt>
      <trkpt lat="44.09919" lon="3.16224">
        <ele>598</ele>
        <time>2015-10-20T21:09:18Z</time>
      </trkpt>
      <trkpt lat="44.09885" lon="3.16252">
        <ele>599</ele>
        <time>2015-10-20T21:11:18Z</time>
      </trkpt>
      <trkpt lat="44.09879" lon="3.16316">
        <ele>621</ele>
        <time>2015-10-20T21:13:18Z</time>
      </trkpt>
      <trkpt lat="44.09856" lon="3.16351">
        <ele>627</ele>
        <time>2015-10-20T21:15:18Z</time>
      </trkpt>
      <trkpt lat="44.09831" lon="3.16344">
        <ele>619</ele>
        <time>2015-10-20T21:17:18Z</time>
      </trkpt>
      <trkpt lat="44.09803" lon="3.16329">
        <ele>614</ele>
        <time>2015-10-20T21:19:18Z</time>
      </trkpt>
      <trkpt lat="44.09763" lon="3.16301">
        <ele>602</ele>
        <time>2015-10-20T21:21:18Z</time>
      </trkpt>
      <trkpt lat="44.09746" lon="3.16289">
        <ele>596</ele>
        <time>2015-10-20T21:23:18Z</time>
      </trkpt>
      <trkpt lat="44.09691" lon="3.16327">
        <ele>594</ele>
        <time>2015-10-20T21:25:18Z</time>
      </trkpt>
      <trkpt lat="44.09661" lon="3.16396">
        <ele>604</ele>
        <time>2015-10-20T21:27:18Z</time>
      </trkpt>
      <trkpt lat="44.09654" lon="3.16422">
        <ele>610</ele>
        <time>2015-10-20T21:29:18Z</time>
      </trkpt>
      <trkpt lat="44.09641" lon="3.1643">
        <ele>611</ele>
        <time>2015-10-20T21:31:18Z</time>
      </trkpt>
      <trkpt lat="44.0964" lon="3.16403">
        <ele>602</ele>
        <time>2015-10-20T21:33:18Z</time>
      </trkpt>
      <trkpt lat="44.09644" lon="3.16382">
        <ele>597</ele>
        <time>2015-10-20T21:35:18Z</time>
      </trkpt>
      <trkpt lat="44.09648" lon="3.16364">
        <ele>592</ele>
        <time>2015-10-20T21:37:18Z</time>
      </trkpt>
      <trkpt lat="44.09636" lon="3.16365">
        <ele>590</ele>
        <time>2015-10-20T21:39:18Z</time>
      </trkpt>
      <trkpt lat="44.09631" lon="3.1635">
        <ele>585</ele>
        <time>2015-10-20T21:41:18Z</time>
      </trkpt>
      <trkpt lat="44.09638" lon="3.16327">
        <ele>580</ele>
        <time>2015-10-20T21:43:18Z</time>
      </trkpt>
      <trkpt lat="44.09628" lon="3.16298">
        <ele>571</ele>
        <time>2015-10-20T21:45:18Z</time>
      </trkpt>
      <trkpt lat="44.09617" lon="3.16284">
        <ele>566</ele>
        <time>2015-10-20T21:47:18Z</time>
      </trkpt>
      <trkpt lat="44.09616" lon="3.16268">
        <ele>562</ele>
        <time>2015-10-20T21:49:18Z</time>
      </trkpt>
      <trkpt lat="44.09618" lon="3.16251">
        <ele>558</ele>
        <time>2015-10-20T21:51:18Z</time>
      </trkpt>
      <trkpt lat="44.09625" lon="3.16233">
        <ele>556</ele>
        <time>2015-10-20T21:53:18Z</time>
      </trkpt>
      <trkpt lat="44.09633" lon="3.1623">
        <ele>556</ele>
        <time>2015-10-20T21:55:18Z</time>
      </trkpt>
      <trkpt lat="44.09643" lon="3.16206">
        <ele>552</ele>
        <time>2015-10-20T21:57:18Z</time>
      </trkpt>
      <trkpt lat="44.09652" lon="3.16188">
        <ele>548</ele>
        <time>2015-10-20T21:59:18Z</time>
      </trkpt>
      <trkpt lat="44.09651" lon="3.16165">
        <ele>543</ele>
        <time>2015-10-20T22:01:18Z</time>
      </trkpt>
      <trkpt lat="44.0963" lon="3.16165">
        <ele>545</ele>
        <time>2015-10-20T22:03:18Z</time>
      </trkpt>
      <trkpt lat="44.09614" lon="3.16145">
        <ele>548</ele>
        <time>2015-10-20T22:05:18Z</time>
      </trkpt>
      <trkpt lat="44.09606" lon="3.16117">
        <ele>549</ele>
        <time>2015-10-20T22:07:18Z</time>
      </trkpt>
      <trkpt lat="44.09603" lon="3.16077">
        <ele>552</ele>
        <time>2015-10-20T22:09:18Z</time>
      </trkpt>
      <trkpt lat="44.09597" lon="3.16042">
        <ele>555</ele>
        <time>2015-10-20T22:11:18Z</time>
      </trkpt>
      <trkpt lat="44.09585" lon="3.16016">
        <ele>555</ele>
        <time>2015-10-20T22:13:18Z</time>
      </trkpt>
      <trkpt lat="44.09573" lon="3.16003">
        <ele>557</ele>
        <time>2015-10-20T22:15:18Z</time>
      </trkpt>
      <trkpt lat="44.0955" lon="3.16005">
        <ele>560</ele>
        <time>2015-10-20T22:17:18Z</time>
      </trkpt>
      <trkpt lat="44.09536" lon="3.16005">
        <ele>562</ele>
        <time>2015-10-20T22:19:18Z</time>
      </trkpt>
      <trkpt lat="44.0952" lon="3.16009">
        <ele>565</ele>
        <time>2015-10-20T22:21:18Z</time>
      </trkpt>
      <trkpt lat="44.09497" lon="3.16005">
        <ele>568</ele>
        <time>2015-10-20T22:23:18Z</time>
      </trkpt>
      <trkpt lat="44.09488" lon="3.15981">
        <ele>573</ele>
        <time>2015-10-20T22:25:18Z</time>
      </trkpt>
      <trkpt lat="44.09488" lon="3.15944">
        <ele>574</ele>
        <time>2015-10-20T22:27:18Z</time>
      </trkpt>
      <trkpt lat="44.09478" lon="3.15928">
        <ele>578</ele>
        <time>2015-10-20T22:29:18Z</time>
      </trkpt>
      <trkpt lat="44.09463" lon="3.15925">
        <ele>582</ele>
        <time>2015-10-20T22:31:18Z</time>
      </trkpt>
      <trkpt lat="44.09449" lon="3.15921">
        <ele>587</ele>
        <time>2015-10-20T22:33:18Z</time>
      </trkpt>
      <trkpt lat="44.09438" lon="3.15894">
        <ele>591</ele>
        <time>2015-10-20T22:35:18Z</time>
      </trkpt>
      <trkpt lat="44.09435" lon="3.15863">
        <ele>592</ele>
        <time>2015-10-20T22:37:18Z</time>
      </trkpt>
      <trkpt lat="44.09432" lon="3.15834">
        <ele>593</ele>
        <time>2015-10-20T22:39:18Z</time>
      </trkpt>
      <trkpt lat="44.09428" lon="3.15808">
        <ele>597</ele>
        <time>2015-10-20T22:41:18Z</time>
      </trkpt>
      <trkpt lat="44.09433" lon="3.15788">
        <ele>601</ele>
        <time>2015-10-20T22:43:18Z</time>
      </trkpt>
      <trkpt lat="44.09441" lon="3.15779">
        <ele>604</ele>
        <time>2015-10-20T22:45:18Z</time>
      </trkpt>
      <trkpt lat="44.09449" lon="3.1578">
        <ele>605</ele>
        <time>2015-10-20T22:47:18Z</time>
      </trkpt>
      <trkpt lat="44.09456" lon="3.15801">
        <ele>602</ele>
        <time>2015-10-20T22:49:18Z</time>
      </trkpt>
      <trkpt lat="44.09463" lon="3.15824">
        <ele>598</ele>
        <time>2015-10-20T22:51:18Z</time>
      </trkpt>
      <trkpt lat="44.09462" lon="3.15805">
        <ele>602</ele>
        <time>2015-10-20T22:53:18Z</time>
      </trkpt>
      <trkpt lat="44.09461" lon="3.15777">
        <ele>609</ele>
        <time>2015-10-20T22:55:18Z</time>
      </trkpt>
      <trkpt lat="44.09464" lon="3.15761">
        <ele>613</ele>
        <time>2015-10-20T22:57:18Z</time>
      </trkpt>
      <trkpt lat="44.09449" lon="3.15733">
        <ele>614</ele>
        <time>2015-10-20T22:59:18Z</time>
      </trkpt>
      <trkpt lat="44.09441" lon="3.15701">
        <ele>615</ele>
        <time>2015-10-20T23:01:18Z</time>
      </trkpt>
      <trkpt lat="44.09436" lon="3.15671">
        <ele>617</ele>
        <time>2015-10-20T23:03:18Z</time>
      </trkpt>
      <trkpt lat="44.0943" lon="3.15646">
        <ele>617</ele>
        <time>2015-10-20T23:05:18Z</time>
      </trkpt>
      <trkpt lat="44.09431" lon="3.15609">
        <ele>620</ele>
        <time>2015-10-20T23:07:18Z</time>
      </trkpt>
      <trkpt lat="44.09429" lon="3.15565">
        <ele>622</ele>
        <time>2015-10-20T23:09:18Z</time>
      </trkpt>
      <trkpt lat="44.09426" lon="3.15525">
        <ele>622</ele>
        <time>2015-10-20T23:11:18Z</time>
      </trkpt>
      <trkpt lat="44.09423" lon="3.15499">
        <ele>622</ele>
        <time>2015-10-20T23:13:18Z</time>
      </trkpt>
      <trkpt lat="44.09418" lon="3.15481">
        <ele>622</ele>
        <time>2015-10-20T23:15:18Z</time>
      </trkpt>
      <trkpt lat="44.09414" lon="3.1546">
        <ele>624</ele>
        <time>2015-10-20T23:17:18Z</time>
      </trkpt>
      <trkpt lat="44.09408" lon="3.15441">
        <ele>626</ele>
        <time>2015-10-20T23:19:18Z</time>
      </trkpt>
      <trkpt lat="44.094" lon="3.15423">
        <ele>628</ele>
        <time>2015-10-20T23:21:18Z</time>
      </trkpt>
      <trkpt lat="44.09396" lon="3.15409">
        <ele>630</ele>
        <time>2015-10-20T23:23:18Z</time>
      </trkpt>
      <trkpt lat="44.094" lon="3.15394">
        <ele>631</ele>
        <time>2015-10-20T23:25:18Z</time>
      </trkpt>
      <trkpt lat="44.09404" lon="3.15375">
        <ele>632</ele>
        <time>2015-10-20T23:27:18Z</time>
      </trkpt>
      <trkpt lat="44.09406" lon="3.1535">
        <ele>635</ele>
        <time>2015-10-20T23:29:18Z</time>
      </trkpt>
      <trkpt lat="44.09413" lon="3.15328">
        <ele>637</ele>
        <time>2015-10-20T23:31:18Z</time>
      </trkpt>
      <trkpt lat="44.09416" lon="3.15295">
        <ele>642</ele>
        <time>2015-10-20T23:33:18Z</time>
      </trkpt>
      <trkpt lat="44.09422" lon="3.15263">
        <ele>648</ele>
        <time>2015-10-20T23:35:18Z</time>
      </trkpt>
      <trkpt lat="44.09426" lon="3.15233">
        <ele>653</ele>
        <time>2015-10-20T23:37:18Z</time>
      </trkpt>
      <trkpt lat="44.09425" lon="3.15207">
        <ele>656</ele>
        <time>2015-10-20T23:39:18Z</time>
      </trkpt>
      <trkpt lat="44.0942" lon="3.15183">
        <ele>658</ele>
        <time>2015-10-20T23:41:18Z</time>
      </trkpt>
      <trkpt lat="44.09402" lon="3.15161">
        <ele>662</ele>
        <time>2015-10-20T23:43:18Z</time>
      </trkpt>
      <trkpt lat="44.0938" lon="3.15149">
        <ele>668</ele>
        <time>2015-10-20T23:45:18Z</time>
      </trkpt>
      <trkpt lat="44.09377" lon="3.15135">
        <ele>671</ele>
        <time>2015-10-20T23:47:18Z</time>
      </trkpt>
      <trkpt lat="44.09376" lon="3.1512">
        <ele>673</ele>
        <time>2015-10-20T23:49:18Z</time>
      </trkpt>
      <trkpt lat="44.09379" lon="3.15105">
        <ele>675</ele>
        <time>2015-10-20T23:51:18Z</time>
      </trkpt>
      <trkpt lat="44.09385" lon="3.15085">
        <ele>676</ele>
        <time>2015-10-20T23:53:18Z</time>
      </trkpt>
      <trkpt lat="44.09391" lon="3.15066">
        <ele>677</ele>
        <time>2015-10-20T23:55:18Z</time>
      </trkpt>
      <trkpt lat="44.094" lon="3.15046">
        <ele>677</ele>
        <time>2015-10-20T23:57:18Z</time>
      </trkpt>
      <trkpt lat="44.09411" lon="3.15025">
        <ele>676</ele>
        <time>2015-10-20T23:59:18Z</time>
      </trkpt>
      <trkpt lat="44.09422" lon="3.15006">
        <ele>678</ele>
        <time>2015-10-21T00:01:18Z</time>
      </trkpt>
      <trkpt lat="44.09435" lon="3.14983">
        <ele>681</ele>
        <time>2015-10-21T00:03:18Z</time>
      </trkpt>
      <trkpt lat="44.09441" lon="3.14967">
        <ele>683</ele>
        <time>2015-10-21T00:05:18Z</time>
      </trkpt>
      <trkpt lat="44.0945" lon="3.14957">
        <ele>684</ele>
        <time>2015-10-21T00:07:18Z</time>
      </trkpt>
      <trkpt lat="44.09461" lon="3.14952">
        <ele>684</ele>
        <time>2015-10-21T00:09:18Z</time>
      </trkpt>
      <trkpt lat="44.09471" lon="3.14945">
        <ele>684</ele>
        <time>2015-10-21T00:11:18Z</time>
      </trkpt>
      <trkpt lat="44.09481" lon="3.14942">
        <ele>684</ele>
        <time>2015-10-21T00:13:18Z</time>
      </trkpt>
      <trkpt lat="44.09491" lon="3.14938">
        <ele>684</ele>
        <time>2015-10-21T00:15:18Z</time>
      </trkpt>
      <trkpt lat="44.09503" lon="3.14934">
        <ele>684</ele>
        <time>2015-10-21T00:17:18Z</time>
      </trkpt>
      <trkpt lat="44.09513" lon="3.14929">
        <ele>686</ele>
        <time>2015-10-21T00:19:18Z</time>
      </trkpt>
      <trkpt lat="44.09521" lon="3.14924">
        <ele>688</ele>
        <time>2015-10-21T00:21:18Z</time>
      </trkpt>
      <trkpt lat="44.09532" lon="3.14913">
        <ele>690</ele>
        <time>2015-10-21T00:23:18Z</time>
      </trkpt>
      <trkpt lat="44.09538" lon="3.14907">
        <ele>692</ele>
        <time>2015-10-21T00:25:18Z</time>
      </trkpt>
      <trkpt lat="44.0955" lon="3.14899">
        <ele>695</ele>
        <time>2015-10-21T00:27:18Z</time>
      </trkpt>
      <trkpt lat="44.09555" lon="3.14882">
        <ele>696</ele>
        <time>2015-10-21T00:29:18Z</time>
      </trkpt>
      <trkpt lat="44.09563" lon="3.14858">
        <ele>698</ele>
        <time>2015-10-21T00:31:18Z</time>
      </trkpt>
      <trkpt lat="44.09568" lon="3.14843">
        <ele>699</ele>
        <time>2015-10-21T00:33:18Z</time>
      </trkpt>
      <trkpt lat="44.09577" lon="3.14836">
        <ele>700</ele>
        <time>2015-10-21T00:35:18Z</time>
      </trkpt>
      <trkpt lat="44.09588" lon="3.14828">
        <ele>702</ele>
        <time>2015-10-21T00:37:18Z</time>
      </trkpt>
      <trkpt lat="44.09598" lon="3.14818">
        <ele>704</ele>
        <time>2015-10-21T00:39:18Z</time>
      </trkpt>
      <trkpt lat="44.09608" lon="3.14801">
        <ele>705</ele>
        <time>2015-10-21T00:41:18Z</time>
      </trkpt>
      <trkpt lat="44.09621" lon="3.14807">
        <ele>707</ele>
        <time>2015-10-21T00:43:18Z</time>
      </trkpt>
      <trkpt lat="44.09628" lon="3.14816">
        <ele>708</ele>
        <time>2015-10-21T00:45:18Z</time>
      </trkpt>
      <trkpt lat="44.09637" lon="3.14821">
        <ele>710</ele>
        <time>2015-10-21T00:47:18Z</time>
      </trkpt>
      <trkpt lat="44.0965" lon="3.14828">
        <ele>712</ele>
        <time>2015-10-21T00:49:18Z</time>
      </trkpt>
      <trkpt lat="44.09662" lon="3.14841">
        <ele>715</ele>
        <time>2015-10-21T00:51:18Z</time>
      </trkpt>
      <trkpt lat="44.09678" lon="3.14853">
        <ele>717</ele>
        <time>2015-10-21T00:53:18Z</time>
      </trkpt>
      <trkpt lat="44.09698" lon="3.14866">
        <ele>719</ele>
        <time>2015-10-21T00:55:18Z</time>
      </trkpt>
      <trkpt lat="44.09717" lon="3.14867">
        <ele>721</ele>
        <time>2015-10-21T00:57:18Z</time>
      </trkpt>
      <trkpt lat="44.09728" lon="3.14872">
        <ele>722</ele>
        <time>2015-10-21T00:59:18Z</time>
      </trkpt>
      <trkpt lat="44.0974" lon="3.14858">
        <ele>722</ele>
        <time>2015-10-21T01:01:18Z</time>
      </trkpt>
      <trkpt lat="44.0976" lon="3.14836">
        <ele>723</ele>
        <time>2015-10-21T01:03:18Z</time>
      </trkpt>
      <trkpt lat="44.09766" lon="3.1481">
        <ele>721</ele>
        <time>2015-10-21T01:05:18Z</time>
      </trkpt>
      <trkpt lat="44.09774" lon="3.14802">
        <ele>721</ele>
        <time>2015-10-21T01:07:18Z</time>
      </trkpt>
      <trkpt lat="44.09786" lon="3.14794">
        <ele>721</ele>
        <time>2015-10-21T01:09:18Z</time>
      </trkpt>
      <trkpt lat="44.09801" lon="3.14783">
        <ele>721</ele>
        <time>2015-10-21T01:11:18Z</time>
      </trkpt>
      <trkpt lat="44.09813" lon="3.14773">
        <ele>721</ele>
        <time>2015-10-21T01:13:18Z</time>
      </trkpt>
      <trkpt lat="44.09832" lon="3.14756">
        <ele>721</ele>
        <time>2015-10-21T01:15:18Z</time>
      </trkpt>
      <trkpt lat="44.09857" lon="3.14726">
        <ele>719</ele>
        <time>2015-10-21T01:17:18Z</time>
      </trkpt>
      <trkpt lat="44.09873" lon="3.14689">
        <ele>715</ele>
        <time>2015-10-21T01:19:18Z</time>
      </trkpt>
      <trkpt lat="44.0988" lon="3.1467">
        <ele>713</ele>
        <time>2015-10-21T01:21:18Z</time>
      </trkpt>
      <trkpt lat="44.09885" lon="3.14645">
        <ele>711</ele>
        <time>2015-10-21T01:23:18Z</time>
      </trkpt>
      <trkpt lat="44.09886" lon="3.14615">
        <ele>709</ele>
        <time>2015-10-21T01:25:18Z</time>
      </trkpt>
      <trkpt lat="44.09868" lon="3.14619">
        <ele>712</ele>
        <time>2015-10-21T01:27:18Z</time>
      </trkpt>
      <trkpt lat="44.0988" lon="3.14591">
        <ele>709</ele>
        <time>2015-10-21T01:29:18Z</time>
      </trkpt>
      <trkpt lat="44.09875" lon="3.14578">
        <ele>709</ele>
        <time>2015-10-21T01:31:18Z</time>
      </trkpt>
      <trkpt lat="44.09871" lon="3.14563">
        <ele>710</ele>
        <time>2015-10-21T01:33:18Z</time>
      </trkpt>
      <trkpt lat="44.09873" lon="3.14552">
        <ele>710</ele>
        <time>2015-10-21T01:35:18Z</time>
      </trkpt>
      <trkpt lat="44.09879" lon="3.14542">
        <ele>710</ele>
        <time>2015-10-21T01:37:18Z</time>
      </trkpt>
      <trkpt lat="44.09885" lon="3.14532">
        <ele>709</ele>
        <time>2015-10-21T01:39:18Z</time>
      </trkpt>
      <trkpt lat="44.09897" lon="3.14522">
        <ele>707</ele>
        <time>2015-10-21T01:41:18Z</time>
      </trkpt>
      <trkpt lat="44.09907" lon="3.14466">
        <ele>709</ele>
        <time>2015-10-21T01:43:18Z</time>
      </trkpt>
      <trkpt lat="44.09908" lon="3.14439">
        <ele>710</ele>
        <time>2015-10-21T01:45:18Z</time>
      </trkpt>
      <trkpt lat="44.09915" lon="3.14396">
        <ele>713</ele>
        <time>2015-10-21T01:47:18Z</time>
      </trkpt>
      <trkpt lat="44.09928" lon="3.14366">
        <ele>711</ele>
        <time>2015-10-21T01:49:18Z</time>
      </trkpt>
      <trkpt lat="44.09935" lon="3.14332">
        <ele>713</ele>
        <time>2015-10-21T01:51:18Z</time>
      </trkpt>
      <trkpt lat="44.09945" lon="3.14265">
        <ele>717</ele>
        <time>2015-10-21T01:53:18Z</time>
      </trkpt>
      <trkpt lat="44.0995" lon="3.1422">
        <ele>723</ele>
        <time>2015-10-21T01:55:18Z</time>
      </trkpt>
      <trkpt lat="44.09964" lon="3.14168">
        <ele>730</ele>
        <time>2015-10-21T01:57:18Z</time>
      </trkpt>
      <trkpt lat="44.09962" lon="3.14149">
        <ele>732</ele>
        <time>2015-10-21T01:59:18Z</time>
      </trkpt>
      <trkpt lat="44.09954" lon="3.14126">
        <ele>735</ele>
        <time>2015-10-21T02:01:18Z</time>
      </trkpt>
      <trkpt lat="44.09943" lon="3.14104">
        <ele>737</ele>
        <time>2015-10-21T02:03:18Z</time>
      </trkpt>
      <trkpt lat="44.0993" lon="3.1409">
        <ele>738</ele>
        <time>2015-10-21T02:05:18Z</time>
      </trkpt>
      <trkpt lat="44.09912" lon="3.14088">
        <ele>737</ele>
        <time>2015-10-21T02:07:18Z</time>
      </trkpt>
      <trkpt lat="44.09897" lon="3.14086">
        <ele>737</ele>
        <time>2015-10-21T02:09:18Z</time>
      </trkpt>
      <trkpt lat="44.09879" lon="3.14075">
        <ele>735</ele>
        <time>2015-10-21T02:11:18Z</time>
      </trkpt>
      <trkpt lat="44.09872" lon="3.14061">
        <ele>734</ele>
        <time>2015-10-21T02:13:18Z</time>
      </trkpt>
      <trkpt lat="44.09863" lon="3.14034">
        <ele>731</ele>
        <time>2015-10-21T02:15:18Z</time>
      </trkpt>
      <trkpt lat="44.09859" lon="3.14007">
        <ele>729</ele>
        <time>2015-10-21T02:17:18Z</time>
      </trkpt>
      <trkpt lat="44.09861" lon="3.13947">
        <ele>725</ele>
        <time>2015-10-21T02:19:18Z</time>
      </trkpt>
      <trkpt lat="44.09863" lon="3.13938">
        <ele>724</ele>
        <time>2015-10-21T02:21:18Z</time>
      </trkpt>
      <trkpt lat="44.09857" lon="3.13921">
        <ele>723</ele>
        <time>2015-10-21T02:23:18Z</time>
      </trkpt>
      <trkpt lat="44.0985" lon="3.13896">
        <ele>720</ele>
        <time>2015-10-21T02:25:18Z</time>
      </trkpt>
      <trkpt lat="44.09847" lon="3.1386">
        <ele>717</ele>
        <time>2015-10-21T02:27:18Z</time>
      </trkpt>
      <trkpt lat="44.09843" lon="3.13835">
        <ele>715</ele>
        <time>2015-10-21T02:29:18Z</time>
      </trkpt>
      <trkpt lat="44.0984" lon="3.13826">
        <ele>714</ele>
        <time>2015-10-21T02:31:18Z</time>
      </trkpt>
      <trkpt lat="44.09835" lon="3.13816">
        <ele>712</ele>
        <time>2015-10-21T02:33:18Z</time>
      </trkpt>
      <trkpt lat="44.09827" lon="3.13805">
        <ele>711</ele>
        <time>2015-10-21T02:35:18Z</time>
      </trkpt>
      <trkpt lat="44.09815" lon="3.13801">
        <ele>711</ele>
        <time>2015-10-21T02:37:18Z</time>
      </trkpt>
      <trkpt lat="44.0981" lon="3.13794">
        <ele>711</ele>
        <time>2015-10-21T02:39:18Z</time>
      </trkpt>
      <trkpt lat="44.09802" lon="3.13784">
        <ele>711</ele>
        <time>2015-10-21T02:41:18Z</time>
      </trkpt>
      <trkpt lat="44.09799" lon="3.13763">
        <ele>709</ele>
        <time>2015-10-21T02:43:18Z</time>
      </trkpt>
      <trkpt lat="44.0978" lon="3.13724">
        <ele>708</ele>
        <time>2015-10-21T02:45:18Z</time>
      </trkpt>
      <trkpt lat="44.09769" lon="3.13708">
        <ele>709</ele>
        <time>2015-10-21T02:47:18Z</time>
      </trkpt>
      <trkpt lat="44.09758" lon="3.13699">
        <ele>710</ele>
        <time>2015-10-21T02:49:18Z</time>
      </trkpt>
      <trkpt lat="44.09739" lon="3.13686">
        <ele>713</ele>
        <time>2015-10-21T02:51:18Z</time>
      </trkpt>
      <trkpt lat="44.09731" lon="3.13677">
        <ele>714</ele>
        <time>2015-10-21T02:53:18Z</time>
      </trkpt>
      <trkpt lat="44.09724" lon="3.13667">
        <ele>716</ele>
        <time>2015-10-21T02:55:18Z</time>
      </trkpt>
      <trkpt lat="44.09714" lon="3.1364">
        <ele>718</ele>
        <time>2015-10-21T02:57:18Z</time>
      </trkpt>
      <trkpt lat="44.09706" lon="3.13619">
        <ele>720</ele>
        <time>2015-10-21T02:59:18Z</time>
      </trkpt>
      <trkpt lat="44.09693" lon="3.13604">
        <ele>723</ele>
        <time>2015-10-21T03:01:18Z</time>
      </trkpt>
      <trkpt lat="44.0968" lon="3.13592">
        <ele>726</ele>
        <time>2015-10-21T03:03:18Z</time>
      </trkpt>
      <trkpt lat="44.09665" lon="3.13584">
        <ele>729</ele>
        <time>2015-10-21T03:05:18Z</time>
      </trkpt>
      <trkpt lat="44.09645" lon="3.13572">
        <ele>727</ele>
        <time>2015-10-21T03:07:18Z</time>
      </trkpt>
      <trkpt lat="44.09633" lon="3.13565">
        <ele>726</ele>
        <time>2015-10-21T03:09:18Z</time>
      </trkpt>
      <trkpt lat="44.09618" lon="3.13559">
        <ele>724</ele>
        <time>2015-10-21T03:11:18Z</time>
      </trkpt>
      <trkpt lat="44.0961" lon="3.13568">
        <ele>728</ele>
        <time>2015-10-21T03:13:18Z</time>
      </trkpt>
      <trkpt lat="44.096" lon="3.13575">
        <ele>731</ele>
        <time>2015-10-21T03:15:18Z</time>
      </trkpt>
      <trkpt lat="44.09589" lon="3.13581">
        <ele>734</ele>
        <time>2015-10-21T03:17:18Z</time>
      </trkpt>
      <trkpt lat="44.09569" lon="3.136">
        <ele>737</ele>
        <time>2015-10-21T03:19:18Z</time>
      </trkpt>
      <trkpt lat="44.09555" lon="3.13607">
        <ele>738</ele>
        <time>2015-10-21T03:21:18Z</time>
      </trkpt>
      <trkpt lat="44.09539" lon="3.13607">
        <ele>738</ele>
        <time>2015-10-21T03:23:18Z</time>
      </trkpt>
      <trkpt lat="44.09519" lon="3.13607">
        <ele>739</ele>
        <time>2015-10-21T03:25:18Z</time>
      </trkpt>
      <trkpt lat="44.09494" lon="3.13596">
        <ele>739</ele>
        <time>2015-10-21T03:27:18Z</time>
      </trkpt>
      <trkpt lat="44.09484" lon="3.13595">
        <ele>738</ele>
        <time>2015-10-21T03:29:18Z</time>
      </trkpt>
      <trkpt lat="44.09468" lon="3.13589">
        <ele>737</ele>
        <time>2015-10-21T03:31:18Z</time>
      </trkpt>
      <trkpt lat="44.09444" lon="3.13576">
        <ele>734</ele>
        <time>2015-10-21T03:33:18Z</time>
      </trkpt>
      <trkpt lat="44.09427" lon="3.13577">
        <ele>734</ele>
        <time>2015-10-21T03:35:18Z</time>
      </trkpt>
      <trkpt lat="44.09408" lon="3.13582">
        <ele>735</ele>
        <time>2015-10-21T03:37:18Z</time>
      </trkpt>
      <trkpt lat="44.0938" lon="3.13599">
        <ele>736</ele>
        <time>2015-10-21T03:39:18Z</time>
      </trkpt>
      <trkpt lat="44.0936" lon="3.13612">
        <ele>736</ele>
        <time>2015-10-21T03:41:18Z</time>
      </trkpt>
      <trkpt lat="44.0934" lon="3.13629">
        <ele>737</ele>
        <time>2015-10-21T03:43:18Z</time>
      </trkpt>
      <trkpt lat="44.09324" lon="3.13641">
        <ele>737</ele>
        <time>2015-10-21T03:45:18Z</time>
      </trkpt>
      <trkpt lat="44.09305" lon="3.13656">
        <ele>736</ele>
        <time>2015-10-21T03:47:18Z</time>
      </trkpt>
      <trkpt lat="44.09293" lon="3.13669">
        <ele>736</ele>
        <time>2015-10-21T03:49:18Z</time>
      </trkpt>
      <trkpt lat="44.09281" lon="3.13683">
        <ele>736</ele>
        <time>2015-10-21T03:51:18Z</time>
      </trkpt>
      <trkpt lat="44.0927" lon="3.13686">
        <ele>734</ele>
        <time>2015-10-21T03:53:18Z</time>
      </trkpt>
      <trkpt lat="44.09254" lon="3.13693">
        <ele>733</ele>
        <time>2015-10-21T03:55:18Z</time>
      </trkpt>
      <trkpt lat="44.09241" lon="3.13711">
        <ele>732</ele>
        <time>2015-10-21T03:57:18Z</time>
      </trkpt>
      <trkpt lat="44.09231" lon="3.1371">
        <ele>730</ele>
        <time>2015-10-21T03:59:18Z</time>
      </trkpt>
      <trkpt lat="44.09215" lon="3.13711">
        <ele>726</ele>
        <time>2015-10-21T04:01:18Z</time>
      </trkpt>
      <trkpt lat="44.09202" lon="3.13715">
        <ele>724</ele>
        <time>2015-10-21T04:03:18Z</time>
      </trkpt>
      <trkpt lat="44.0918" lon="3.13726">
        <ele>721</ele>
        <time>2015-10-21T04:05:18Z</time>
      </trkpt>
      <trkpt lat="44.09167" lon="3.13748">
        <ele>723</ele>
        <time>2015-10-21T04:07:18Z</time>
      </trkpt>
      <trkpt lat="44.0916" lon="3.13763">
        <ele>724</ele>
        <time>2015-10-21T04:09:18Z</time>
      </trkpt>
      <trkpt lat="44.09148" lon="3.13768">
        <ele>723</ele>
        <time>2015-10-21T04:11:18Z</time>
      </trkpt>
      <trkpt lat="44.09134" lon="3.13765">
        <ele>722</ele>
        <time>2015-10-21T04:13:18Z</time>
      </trkpt>
      <trkpt lat="44.0912" lon="3.13763">
        <ele>721</ele>
        <time>2015-10-21T04:15:18Z</time>
      </trkpt>
      <trkpt lat="44.09112" lon="3.13752">
        <ele>719</ele>
        <time>2015-10-21T04:17:18Z</time>
      </trkpt>
      <trkpt lat="44.09108" lon="3.13735">
        <ele>717</ele>
        <time>2015-10-21T04:19:18Z</time>
      </trkpt>
      <trkpt lat="44.09102" lon="3.13718">
        <ele>715</ele>
        <time>2015-10-21T04:21:18Z</time>
      </trkpt>
      <trkpt lat="44.09092" lon="3.13702">
        <ele>714</ele>
        <time>2015-10-21T04:23:18Z</time>
      </trkpt>
      <trkpt lat="44.09071" lon="3.13691">
        <ele>715</ele>
        <time>2015-10-21T04:25:18Z</time>
      </trkpt>
      <trkpt lat="44.0906" lon="3.1368">
        <ele>716</ele>
        <time>2015-10-21T04:27:18Z</time>
      </trkpt>
      <trkpt lat="44.0905" lon="3.13665">
        <ele>716</ele>
        <time>2015-10-21T04:29:18Z</time>
      </trkpt>
      <trkpt lat="44.09042" lon="3.13655">
        <ele>716</ele>
        <time>2015-10-21T04:31:18Z</time>
      </trkpt>
      <trkpt lat="44.09031" lon="3.13652">
        <ele>717</ele>
        <time>2015-10-21T04:33:18Z</time>
      </trkpt>
      <trkpt lat="44.09012" lon="3.13645">
        <ele>720</ele>
        <time>2015-10-21T04:35:18Z</time>
      </trkpt>
      <trkpt lat="44.09003" lon="3.13634">
        <ele>720</ele>
        <time>2015-10-21T04:37:18Z</time>
      </trkpt>
      <trkpt lat="44.08993" lon="3.13618">
        <ele>719</ele>
        <time>2015-10-21T04:39:18Z</time>
      </trkpt>
      <trkpt lat="44.08984" lon="3.13604">
        <ele>718</ele>
        <time>2015-10-21T04:41:18Z</time>
      </trkpt>
      <trkpt lat="44.08966" lon="3.13599">
        <ele>719</ele>
        <time>2015-10-21T04:43:18Z</time>
      </trkpt>
      <trkpt lat="44.08949" lon="3.13605">
        <ele>721</ele>
        <time>2015-10-21T04:45:18Z</time>
      </trkpt>
      <trkpt lat="44.08935" lon="3.13606">
        <ele>722</ele>
        <time>2015-10-21T04:47:18Z</time>
      </trkpt>
      <trkpt lat="44.08938" lon="3.13591">
        <ele>721</ele>
        <time>2015-10-21T04:49:18Z</time>
      </trkpt>
      <trkpt lat="44.08943" lon="3.13572">
        <ele>716</ele>
        <time>2015-10-21T04:51:18Z</time>
      </trkpt>
      <trkpt lat="44.08942" lon="3.13555">
        <ele>712</ele>
        <time>2015-10-21T04:53:18Z</time>
      </trkpt>
      <trkpt lat="44.08932" lon="3.13549">
        <ele>712</ele>
        <time>2015-10-21T04:55:18Z</time>
      </trkpt>
      <trkpt lat="44.08919" lon="3.13544">
        <ele>712</ele>
        <time>2015-10-21T04:57:18Z</time>
      </trkpt>
      <trkpt lat="44.08914" lon="3.13527">
        <ele>709</ele>
        <time>2015-10-21T04:59:18Z</time>
      </trkpt>
      <trkpt lat="44.08922" lon="3.13498">
        <ele>700</ele>
        <time>2015-10-21T05:01:18Z</time>
      </trkpt>
      <trkpt lat="44.0893" lon="3.13474">
        <ele>690</ele>
        <time>2015-10-21T05:03:18Z</time>
      </trkpt>
      <trkpt lat="44.08938" lon="3.13457">
        <ele>683</ele>
        <time>2015-10-21T05:05:18Z</time>
      </trkpt>
      <trkpt lat="44.08948" lon="3.13434">
        <ele>675</ele>
        <time>2015-10-21T05:07:18Z</time>
      </trkpt>
      <trkpt lat="44.08958" lon="3.13416">
        <ele>668</ele>
        <time>2015-10-21T05:09:18Z</time>
      </trkpt>
      <trkpt lat="44.08959" lon="3.13404">
        <ele>664</ele>
        <time>2015-10-21T05:11:18Z</time>
      </trkpt>
      <trkpt lat="44.0896" lon="3.13393">
        <ele>660</ele>
        <time>2015-10-21T05:13:18Z</time>
      </trkpt>
      <trkpt lat="44.08965" lon="3.13371">
        <ele>652</ele>
        <time>2015-10-21T05:15:18Z</time>
      </trkpt>
      <trkpt lat="44.08969" lon="3.13346">
        <ele>643</ele>
        <time>2015-10-21T05:17:18Z</time>
      </trkpt>
      <trkpt lat="44.08968" lon="3.13327">
        <ele>636</ele>
        <time>2015-10-21T05:19:18Z</time>
      </trkpt>
      <trkpt lat="44.0896" lon="3.13297">
        <ele>623</ele>
        <time>2015-10-21T05:21:18Z</time>
      </trkpt>
      <trkpt lat="44.08955" lon="3.1328">
        <ele>616</ele>
        <time>2015-10-21T05:23:18Z</time>
      </trkpt>
      <trkpt lat="44.08955" lon="3.13262">
        <ele>608</ele>
        <time>2015-10-21T05:25:18Z</time>
      </trkpt>
      <trkpt lat="44.08963" lon="3.13239">
        <ele>600</ele>
        <time>2015-10-21T05:27:18Z</time>
      </trkpt>
      <trkpt lat="44.08974" lon="3.1323">
        <ele>597</ele>
        <time>2015-10-21T05:29:18Z</time>
      </trkpt>
      <trkpt lat="44.08978" lon="3.1321">
        <ele>591</ele>
        <time>2015-10-21T05:31:18Z</time>
      </trkpt>
      <trkpt lat="44.08972" lon="3.13193">
        <ele>584</ele>
        <time>2015-10-21T05:33:18Z</time>
      </trkpt>
      <trkpt lat="44.08962" lon="3.13173">
        <ele>577</ele>
        <time>2015-10-21T05:35:18Z</time>
      </trkpt>
      <trkpt lat="44.08953" lon="3.13162">
        <ele>573</ele>
        <time>2015-10-21T05:37:18Z</time>
      </trkpt>
      <trkpt lat="44.08948" lon="3.13134">
        <ele>563</ele>
        <time>2015-10-21T05:39:18Z</time>
      </trkpt>
      <trkpt lat="44.08961" lon="3.13125">
        <ele>561</ele>
        <time>2015-10-21T05:41:18Z</time>
      </trkpt>
      <trkpt lat="44.08968" lon="3.13119">
        <ele>559</ele>
        <time>2015-10-21T05:43:18Z</time>
      </trkpt>
      <trkpt lat="44.08963" lon="3.13103">
        <ele>553</ele>
        <time>2015-10-21T05:45:18Z</time>
      </trkpt>
      <trkpt lat="44.08956" lon="3.13094">
        <ele>550</ele>
        <time>2015-10-21T05:47:18Z</time>
      </trkpt>
      <trkpt lat="44.08949" lon="3.1307">
        <ele>543</ele>
        <time>2015-10-21T05:49:18Z</time>
      </trkpt>
      <trkpt lat="44.08945" lon="3.13054">
        <ele>538</ele>
        <time>2015-10-21T05:51:18Z</time>
      </trkpt>
      <trkpt lat="44.0896" lon="3.13034">
        <ele>533</ele>
        <time>2015-10-21T05:53:18Z</time>
      </trkpt>
      <trkpt lat="44.08966" lon="3.13029">
        <ele>531</ele>
        <time>2015-10-21T05:55:18Z</time>
      </trkpt>
      <trkpt lat="44.08984" lon="3.13018">
        <ele>527</ele>
        <time>2015-10-21T05:57:18Z</time>
      </trkpt>
      <trkpt lat="44.08993" lon="3.13013">
        <ele>525</ele>
        <time>2015-10-21T05:59:18Z</time>
      </trkpt>
      <trkpt lat="44.09001" lon="3.13009">
        <ele>523</ele>
        <time>2015-10-21T06:01:18Z</time>
      </trkpt>
      <trkpt lat="44.0901" lon="3.13001">
        <ele>519</ele>
        <time>2015-10-21T06:03:18Z</time>
      </trkpt>
      <trkpt lat="44.09019" lon="3.12998">
        <ele>518</ele>
        <time>2015-10-21T06:05:18Z</time>
      </trkpt>
      <trkpt lat="44.09031" lon="3.12992">
        <ele>516</ele>
        <time>2015-10-21T06:07:18Z</time>
      </trkpt>
      <trkpt lat="44.09039" lon="3.12986">
        <ele>515</ele>
        <time>2015-10-21T06:09:18Z</time>
      </trkpt>
      <trkpt lat="44.09049" lon="3.12984">
        <ele>514</ele>
        <time>2015-10-21T06:11:18Z</time>
      </trkpt>
      <trkpt lat="44.09062" lon="3.12982">
        <ele>512</ele>
        <time>2015-10-21T06:13:18Z</time>
      </trkpt>
      <trkpt lat="44.09073" lon="3.12983">
        <ele>511</ele>
        <time>2015-10-21T06:15:18Z</time>
      </trkpt>
      <trkpt lat="44.0908" lon="3.12987">
        <ele>510</ele>
        <time>2015-10-21T06:17:18Z</time>
      </trkpt>
      <trkpt lat="44.09086" lon="3.12995">
        <ele>509</ele>
        <time>2015-10-21T06:19:18Z</time>
      </trkpt>
      <trkpt lat="44.09101" lon="3.13012">
        <ele>511</ele>
        <time>2015-10-21T06:21:18Z</time>
      </trkpt>
      <trkpt lat="44.09109" lon="3.13016">
        <ele>511</ele>
        <time>2015-10-21T06:23:18Z</time>
      </trkpt>
      <trkpt lat="44.09119" lon="3.13014">
        <ele>509</ele>
        <time>2015-10-21T06:25:18Z</time>
      </trkpt>
      <trkpt lat="44.09131" lon="3.13011">
        <ele>507</ele>
        <time>2015-10-21T06:27:18Z</time>
      </trkpt>
      <trkpt lat="44.0914" lon="3.13006">
        <ele>504</ele>
        <time>2015-10-21T06:29:18Z</time>
      </trkpt>
      <trkpt lat="44.09153" lon="3.13002">
        <ele>501</ele>
        <time>2015-10-21T06:31:18Z</time>
      </trkpt>
      <trkpt lat="44.09168" lon="3.13">
        <ele>498</ele>
        <time>2015-10-21T06:33:18Z</time>
      </trkpt>
      <trkpt lat="44.09182" lon="3.13">
        <ele>497</ele>
        <time>2015-10-21T06:35:18Z</time>
      </trkpt>
      <trkpt lat="44.09193" lon="3.12997">
        <ele>497</ele>
        <time>2015-10-21T06:37:18Z</time>
      </trkpt>
      <trkpt lat="44.09202" lon="3.12989">
        <ele>496</ele>
        <time>2015-10-21T06:39:18Z</time>
      </trkpt>
      <trkpt lat="44.0921" lon="3.12981">
        <ele>495</ele>
        <time>2015-10-21T06:41:18Z</time>
      </trkpt>
      <trkpt lat="44.09219" lon="3.12974">
        <ele>494</ele>
        <time>2015-10-21T06:43:18Z</time>
      </trkpt>
      <trkpt lat="44.09229" lon="3.12971">
        <ele>493</ele>
        <time>2015-10-21T06:45:18Z</time>
      </trkpt>
      <trkpt lat="44.09252" lon="3.12954">
        <ele>488</ele>
        <time>2015-10-21T06:47:18Z</time>
      </trkpt>
      <trkpt lat="44.09266" lon="3.12945">
        <ele>484</ele>
        <time>2015-10-21T06:49:18Z</time>
      </trkpt>
      <trkpt lat="44.09273" lon="3.12943">
        <ele>483</ele>
        <time>2015-10-21T06:51:18Z</time>
      </trkpt>
      <trkpt lat="44.09272" lon="3.12937">
        <ele>482</ele>
        <time>2015-10-21T06:53:18Z</time>
      </trkpt>
      <trkpt lat="44.09262" lon="3.12934">
        <ele>483</ele>
        <time>2015-10-21T06:55:18Z</time>
      </trkpt>
      <trkpt lat="44.09262" lon="3.12929">
        <ele>482</ele>
        <time>2015-10-21T06:57:18Z</time>
      </trkpt>
      <trkpt lat="44.09266" lon="3.12926">
        <ele>481</ele>
        <time>2015-10-21T06:59:18Z</time>
      </trkpt>
      <trkpt lat="44.09272" lon="3.12923">
        <ele>479</ele>
        <time>2015-10-21T07:01:18Z</time>
      </trkpt>
      <trkpt lat="44.09278" lon="3.1292">
        <ele>478</ele>
        <time>2015-10-21T07:03:18Z</time>
      </trkpt>
      <trkpt lat="44.09289" lon="3.12915">
        <ele>476</ele>
        <time>2015-10-21T07:05:18Z</time>
      </trkpt>
      <trkpt lat="44.09297" lon="3.12912">
        <ele>476</ele>
        <time>2015-10-21T07:07:18Z</time>
      </trkpt>
      <trkpt lat="44.09301" lon="3.12915">
        <ele>474</ele>
        <time>2015-10-21T07:09:18Z</time>
      </trkpt>
      <trkpt lat="44.09313" lon="3.12918">
        <ele>472</ele>
        <time>2015-10-21T07:11:18Z</time>
      </trkpt>
      <trkpt lat="44.09322" lon="3.12922">
        <ele>471</ele>
        <time>2015-10-21T07:13:18Z</time>
      </trkpt>
      <trkpt lat="44.09338" lon="3.12927">
        <ele>470</ele>
        <time>2015-10-21T07:15:18Z</time>
      </trkpt>
      <trkpt lat="44.0935" lon="3.12931">
        <ele>469</ele>
        <time>2015-10-21T07:17:18Z</time>
      </trkpt>
      <trkpt lat="44.09361" lon="3.12934">
        <ele>469</ele>
        <time>2015-10-21T07:19:18Z</time>
      </trkpt>
      <trkpt lat="44.09372" lon="3.1294">
        <ele>469</ele>
        <time>2015-10-21T07:21:18Z</time>
      </trkpt>
      <trkpt lat="44.09388" lon="3.12944">
        <ele>468</ele>
        <time>2015-10-21T07:23:18Z</time>
      </trkpt>
      <trkpt lat="44.09399" lon="3.12951">
        <ele>469</ele>
        <time>2015-10-21T07:25:18Z</time>
      </trkpt>
      <trkpt lat="44.09404" lon="3.12955">
        <ele>469</ele>
        <time>2015-10-21T07:27:18Z</time>
      </trkpt>
      <trkpt lat="44.09411" lon="3.12962">
        <ele>470</ele>
        <time>2015-10-21T07:29:18Z</time>
      </trkpt>
      <trkpt lat="44.09421" lon="3.12968">
        <ele>471</ele>
        <time>2015-10-21T07:31:18Z</time>
      </trkpt>
      <trkpt lat="44.09427" lon="3.12969">
        <ele>471</ele>
        <time>2015-10-21T07:33:18Z</time>
      </trkpt>
      <trkpt lat="44.09434" lon="3.12966">
        <ele>471</ele>
        <time>2015-10-21T07:35:18Z</time>
      </trkpt>
      <trkpt lat="44.0944" lon="3.12961">
        <ele>469</ele>
        <time>2015-10-21T07:37:18Z</time>
      </trkpt>
      <trkpt lat="44.09446" lon="3.12952">
        <ele>467</ele>
        <time>2015-10-21T07:39:18Z</time>
      </trkpt>
      <trkpt lat="44.0945" lon="3.12943">
        <ele>464</ele>
        <time>2015-10-21T07:41:18Z</time>
      </trkpt>
      <trkpt lat="44.09458" lon="3.12935">
        <ele>461</ele>
        <time>2015-10-21T07:43:18Z</time>
      </trkpt>
      <trkpt lat="44.09464" lon="3.12928">
        <ele>459</ele>
        <time>2015-10-21T07:45:18Z</time>
      </trkpt>
      <trkpt lat="44.0947" lon="3.12918">
        <ele>455</ele>
        <time>2015-10-21T07:47:18Z</time>
      </trkpt>
      <trkpt lat="44.0948" lon="3.12906">
        <ele>454</ele>
        <time>2015-10-21T07:49:18Z</time>
      </trkpt>
      <trkpt lat="44.09488" lon="3.12896">
        <ele>452</ele>
        <time>2015-10-21T07:51:18Z</time>
      </trkpt>
      <trkpt lat="44.09494" lon="3.12886">
        <ele>451</ele>
        <time>2015-10-21T07:53:18Z</time>
      </trkpt>
      <trkpt lat="44.09499" lon="3.12877">
        <ele>449</ele>
        <time>2015-10-21T07:55:18Z</time>
      </trkpt>
      <trkpt lat="44.09502" lon="3.12868">
        <ele>448</ele>
        <time>2015-10-21T07:57:18Z</time>
      </trkpt>
      <trkpt lat="44.09497" lon="3.12859">
        <ele>449</ele>
        <time>2015-10-21T07:59:18Z</time>
      </trkpt>
      <trkpt lat="44.09504" lon="3.12846">
        <ele>446</ele>
        <time>2015-10-21T08:01:18Z</time>
      </trkpt>
      <trkpt lat="44.09506" lon="3.1284">
        <ele>446</ele>
        <time>2015-10-21T08:03:18Z</time>
      </trkpt>
      <trkpt lat="44.0951" lon="3.12834">
        <ele>445</ele>
        <time>2015-10-21T08:05:18Z</time>
      </trkpt>
      <trkpt lat="44.09518" lon="3.12823">
        <ele>447</ele>
        <time>2015-10-21T08:07:18Z</time>
      </trkpt>
      <trkpt lat="44.09527" lon="3.12817">
        <ele>447</ele>
        <time>2015-10-21T08:09:18Z</time>
      </trkpt>
      <trkpt lat="44.09531" lon="3.12814">
        <ele>447</ele>
        <time>2015-10-21T08:11:18Z</time>
      </trkpt>
      <trkpt lat="44.09536" lon="3.12812">
        <ele>447</ele>
        <time>2015-10-21T08:13:18Z</time>
      </trkpt>
      <trkpt lat="44.09541" lon="3.12812">
        <ele>446</ele>
        <time>2015-10-21T08:15:18Z</time>
      </trkpt>
      <trkpt lat="44.09546" lon="3.12811">
        <ele>445</ele>
        <time>2015-10-21T08:17:18Z</time>
      </trkpt>
      <trkpt lat="44.09558" lon="3.12812">
        <ele>442</ele>
        <time>2015-10-21T08:19:18Z</time>
      </trkpt>
      <trkpt lat="44.09565" lon="3.12812">
        <ele>441</ele>
        <time>2015-10-21T08:21:18Z</time>
      </trkpt>
      <trkpt lat="44.09571" lon="3.12807">
        <ele>441</ele>
        <time>2015-10-21T08:23:18Z</time>
      </trkpt>
      <trkpt lat="44.09575" lon="3.12804">
        <ele>440</ele>
        <time>2015-10-21T08:25:18Z</time>
      </trkpt>
      <trkpt lat="44.09582" lon="3.128">
        <ele>439</ele>
        <time>2015-10-21T08:27:18Z</time>
      </trkpt>
      <trkpt lat="44.09588" lon="3.12799">
        <ele>439</ele>
        <time>2015-10-21T08:29:18Z</time>
      </trkpt>
      <trkpt lat="44.09594" lon="3.12797">
        <ele>438</ele>
        <time>2015-10-21T08:31:18Z</time>
      </trkpt>
      <trkpt lat="44.09597" lon="3.12795">
        <ele>438</ele>
        <time>2015-10-21T08:33:18Z</time>
      </trkpt>
      <trkpt lat="44.09602" lon="3.12794">
        <ele>438</ele>
        <time>2015-10-21T08:35:18Z</time>
      </trkpt>
      <trkpt lat="44.09609" lon="3.12793">
        <ele>437</ele>
        <time>2015-10-21T08:37:18Z</time>
      </trkpt>
      <trkpt lat="44.09615" lon="3.12789">
        <ele>437</ele>
        <time>2015-10-21T08:39:18Z</time>
      </trkpt>
      <trkpt lat="44.09621" lon="3.12788">
        <ele>436</ele>
        <time>2015-10-21T08:41:18Z</time>
      </trkpt>
      <trkpt lat="44.09627" lon="3.12785">
        <ele>436</ele>
        <time>2015-10-21T08:43:18Z</time>
      </trkpt>
      <trkpt lat="44.09632" lon="3.12781">
        <ele>436</ele>
        <time>2015-10-21T08:45:18Z</time>
      </trkpt>
      <trkpt lat="44.09638" lon="3.12777">
        <ele>435</ele>
        <time>2015-10-21T08:47:18Z</time>
      </trkpt>
      <trkpt lat="44.0965" lon="3.12774">
        <ele>434</ele>
        <time>2015-10-21T08:49:18Z</time>
      </trkpt>
      <trkpt lat="44.09654" lon="3.12769">
        <ele>434</ele>
        <time>2015-10-21T08:51:18Z</time>
      </trkpt>
      <trkpt lat="44.09659" lon="3.12768">
        <ele>433</ele>
        <time>2015-10-21T08:53:18Z</time>
      </trkpt>
      <trkpt lat="44.09669" lon="3.1277">
        <ele>432</ele>
        <time>2015-10-21T08:55:18Z</time>
      </trkpt>
      <trkpt lat="44.09678" lon="3.12774">
        <ele>432</ele>
        <time>2015-10-21T08:57:18Z</time>
      </trkpt>
      <trkpt lat="44.09686" lon="3.12779">
        <ele>431</ele>
        <time>2015-10-21T08:59:18Z</time>
      </trkpt>
      <trkpt lat="44.09694" lon="3.12784">
        <ele>431</ele>
        <time>2015-10-21T09:01:18Z</time>
      </trkpt>
      <trkpt lat="44.09702" lon="3.1279">
        <ele>430</ele>
        <time>2015-10-21T09:03:18Z</time>
      </trkpt>
      <trkpt lat="44.09709" lon="3.12797">
        <ele>428</ele>
        <time>2015-10-21T09:05:18Z</time>
      </trkpt>
      <trkpt lat="44.09708" lon="3.12811">
        <ele>426</ele>
        <time>2015-10-21T09:07:18Z</time>
      </trkpt>
      <trkpt lat="44.09713" lon="3.12815">
        <ele>425</ele>
        <time>2015-10-21T09:09:18Z</time>
      </trkpt>
      <trkpt lat="44.09715" lon="3.12822">
        <ele>424</ele>
        <time>2015-10-21T09:11:18Z</time>
      </trkpt>
      <trkpt lat="44.09719" lon="3.12825">
        <ele>423</ele>
        <time>2015-10-21T09:13:18Z</time>
      </trkpt>
      <trkpt lat="44.09728" lon="3.1283">
        <ele>421</ele>
        <time>2015-10-21T09:15:18Z</time>
      </trkpt>
      <trkpt lat="44.09733" lon="3.12831">
        <ele>420</ele>
        <time>2015-10-21T09:17:18Z</time>
      </trkpt>
      <trkpt lat="44.0974" lon="3.12834">
        <ele>419</ele>
        <time>2015-10-21T09:19:18Z</time>
      </trkpt>
      <trkpt lat="44.09744" lon="3.12842">
        <ele>421</ele>
        <time>2015-10-21T09:21:18Z</time>
      </trkpt>
      <trkpt lat="44.09747" lon="3.12848">
        <ele>422</ele>
        <time>2015-10-21T09:23:18Z</time>
      </trkpt>
      <trkpt lat="44.09753" lon="3.12853">
        <ele>423</ele>
        <time>2015-10-21T09:25:18Z</time>
      </trkpt>
      <trkpt lat="44.09758" lon="3.12857">
        <ele>424</ele>
        <time>2015-10-21T09:27:18Z</time>
      </trkpt>
      <trkpt lat="44.09764" lon="3.12857">
        <ele>424</ele>
        <time>2015-10-21T09:29:18Z</time>
      </trkpt>
      <trkpt lat="44.09774" lon="3.12856">
        <ele>423</ele>
        <time>2015-10-21T09:31:18Z</time>
      </trkpt>
      <trkpt lat="44.09781" lon="3.12855">
        <ele>422</ele>
        <time>2015-10-21T09:33:18Z</time>
      </trkpt>
      <trkpt lat="44.09786" lon="3.12852">
        <ele>420</ele>
        <time>2015-10-21T09:35:18Z</time>
      </trkpt>
      <trkpt lat="44.0979" lon="3.12852">
        <ele>420</ele>
        <time>2015-10-21T09:37:18Z</time>
      </trkpt>
      <trkpt lat="44.098" lon="3.12853">
        <ele>420</ele>
        <time>2015-10-21T09:39:18Z</time>
      </trkpt>
      <trkpt lat="44.09806" lon="3.12851">
        <ele>418</ele>
        <time>2015-10-21T09:41:18Z</time>
      </trkpt>
      <trkpt lat="44.09817" lon="3.12841">
        <ele>414</ele>
        <time>2015-10-21T09:43:18Z</time>
      </trkpt>
      <trkpt lat="44.09828" lon="3.12834">
        <ele>410</ele>
        <time>2015-10-21T09:45:18Z</time>
      </trkpt>
      <trkpt lat="44.09839" lon="3.1283">
        <ele>410</ele>
        <time>2015-10-21T09:47:18Z</time>
      </trkpt>
      <trkpt lat="44.09851" lon="3.12822">
        <ele>411</ele>
        <time>2015-10-21T09:49:18Z</time>
      </trkpt>
      <trkpt lat="44.09861" lon="3.12822">
        <ele>411</ele>
        <time>2015-10-21T09:51:18Z</time>
      </trkpt>
      <trkpt lat="44.09873" lon="3.12816">
        <ele>411</ele>
        <time>2015-10-21T09:53:18Z</time>
      </trkpt>
      <trkpt lat="44.09884" lon="3.12806">
        <ele>411</ele>
        <time>2015-10-21T09:55:18Z</time>
      </trkpt>
      <trkpt lat="44.09888" lon="3.12794">
        <ele>410</ele>
        <time>2015-10-21T09:57:18Z</time>
      </trkpt>
      <trkpt lat="44.09896" lon="3.12787">
        <ele>409</ele>
        <time>2015-10-21T09:59:18Z</time>
      </trkpt>
      <trkpt lat="44.09907" lon="3.12787">
        <ele>408</ele>
        <time>2015-10-21T10:01:18Z</time>
      </trkpt>
      <trkpt lat="44.0992" lon="3.12783">
        <ele>406</ele>
        <time>2015-10-21T10:03:18Z</time>
      </trkpt>
      <trkpt lat="44.09933" lon="3.12778">
        <ele>404</ele>
        <time>2015-10-21T10:05:18Z</time>
      </trkpt>
      <trkpt lat="44.09945" lon="3.12772">
        <ele>402</ele>
        <time>2015-10-21T10:07:18Z</time>
      </trkpt>
      <trkpt lat="44.0996" lon="3.12773">
        <ele>400</ele>
        <time>2015-10-21T10:09:18Z</time>
      </trkpt>
      <trkpt lat="44.09973" lon="3.12773">
        <ele>399</ele>
        <time>2015-10-21T10:11:18Z</time>
      </trkpt>
      <trkpt lat="44.09989" lon="3.12772">
        <ele>396</ele>
        <time>2015-10-21T10:13:18Z</time>
      </trkpt>
      <trkpt lat="44.10005" lon="3.12773">
        <ele>395</ele>
        <time>2015-10-21T10:15:18Z</time>
      </trkpt>
      <trkpt lat="44.10025" lon="3.12776">
        <ele>394</ele>
        <time>2015-10-21T10:17:18Z</time>
      </trkpt>
      <trkpt lat="44.10046" lon="3.12783">
        <ele>393</ele>
        <time>2015-10-21T10:19:18Z</time>
      </trkpt>
      <trkpt lat="44.10066" lon="3.1279">
        <ele>393</ele>
        <time>2015-10-21T10:21:18Z</time>
      </trkpt>
      <trkpt lat="44.10085" lon="3.12798">
        <ele>393</ele>
        <time>2015-10-21T10:23:18Z</time>
      </trkpt>
      <trkpt lat="44.10101" lon="3.12808">
        <ele>391</ele>
        <time>2015-10-21T10:25:18Z</time>
      </trkpt>
      <trkpt lat="44.10105" lon="3.12821">
        <ele>393</ele>
        <time>2015-10-21T10:27:18Z</time>
      </trkpt>
      <trkpt lat="44.10109" lon="3.12835">
        <ele>395</ele>
        <time>2015-10-21T10:29:18Z</time>
      </trkpt>
      <trkpt lat="44.10115" lon="3.12853">
        <ele>398</ele>
        <time>2015-10-21T10:31:18Z</time>
      </trkpt>
      <trkpt lat="44.10124" lon="3.12872">
        <ele>399</ele>
        <time>2015-10-21T10:33:18Z</time>
      </trkpt>
      <trkpt lat="44.10131" lon="3.12891">
        <ele>400</ele>
        <time>2015-10-21T10:35:18Z</time>
      </trkpt>
      <trkpt lat="44.1013" lon="3.12907">
        <ele>404</ele>
        <time>2015-10-21T10:37:18Z</time>
      </trkpt>
      <trkpt lat="44.10132" lon="3.12915">
        <ele>405</ele>
        <time>2015-10-21T10:39:18Z</time>
      </trkpt>
      <trkpt lat="44.10138" lon="3.12924">
        <ele>403</ele>
        <time>2015-10-21T10:41:18Z</time>
      </trkpt>
      <trkpt lat="44.10147" lon="3.12935">
        <ele>399</ele>
        <time>2015-10-21T10:43:18Z</time>
      </trkpt>
      <trkpt lat="44.10164" lon="3.12946">
        <ele>388</ele>
        <time>2015-10-21T10:45:18Z</time>
      </trkpt>
      <trkpt lat="44.10158" lon="3.12968">
        <ele>398</ele>
        <time>2015-10-21T10:47:18Z</time>
      </trkpt>
      <trkpt lat="44.10166" lon="3.12978">
        <ele>394</ele>
        <time>2015-10-21T10:49:18Z</time>
      </trkpt>
      <trkpt lat="44.10183" lon="3.12994">
        <ele>393</ele>
        <time>2015-10-21T10:51:18Z</time>
      </trkpt>
      <trkpt lat="44.10196" lon="3.13017">
        <ele>397</ele>
        <time>2015-10-21T10:53:18Z</time>
      </trkpt>
      <trkpt lat="44.10212" lon="3.13029">
        <ele>395</ele>
        <time>2015-10-21T10:55:18Z</time>
      </trkpt>
      <trkpt lat="44.10205" lon="3.13012">
        <ele>392</ele>
        <time>2015-10-21T10:57:18Z</time>
      </trkpt>
      <trkpt lat="44.10193" lon="3.12991">
        <ele>390</ele>
        <time>2015-10-21T10:59:18Z</time>
      </trkpt>
      <trkpt lat="44.10182" lon="3.12976">
        <ele>390</ele>
        <time>2015-10-21T11:01:18Z</time>
      </trkpt>
      <trkpt lat="44.10173" lon="3.12963">
        <ele>389</ele>
        <time>2015-10-21T11:03:18Z</time>
      </trkpt>
      <trkpt lat="44.10178" lon="3.12953">
        <ele>386</ele>
        <time>2015-10-21T11:05:18Z</time>
      </trkpt>
      <trkpt lat="44.10189" lon="3.12934">
        <ele>380</ele>
        <time>2015-10-21T11:07:18Z</time>
      </trkpt>
      <trkpt lat="44.10196" lon="3.12926">
        <ele>377</ele>
        <time>2015-10-21T11:09:18Z</time>
      </trkpt>
      <trkpt lat="44.10207" lon="3.12915">
        <ele>375</ele>
        <time>2015-10-21T11:11:18Z</time>
      </trkpt>
      <trkpt lat="44.10212" lon="3.12914">
        <ele>374</ele>
        <time>2015-10-21T11:13:18Z</time>
      </trkpt>
      <trkpt lat="44.10224" lon="3.12913">
        <ele>373</ele>
        <time>2015-10-21T11:15:18Z</time>
      </trkpt>
      <trkpt lat="44.10227" lon="3.12911">
        <ele>373</ele>
        <time>2015-10-21T11:17:18Z</time>
      </trkpt>
      <trkpt lat="44.10228" lon="3.1291">
        <ele>373</ele>
        <time>2015-10-21T11:19:18Z</time>
      </trkpt>
      <trkpt lat="44.10226" lon="3.12902">
        <ele>373</ele>
        <time>2015-10-21T11:21:18Z</time>
      </trkpt>
      <trkpt lat="44.10221" lon="3.12887">
        <ele>374</ele>
        <time>2015-10-21T11:23:18Z</time>
      </trkpt>
      <trkpt lat="44.10218" lon="3.12882">
        <ele>374</ele>
        <time>2015-10-21T11:25:18Z</time>
      </trkpt>
      <trkpt lat="44.1021" lon="3.1287">
        <ele>374</ele>
        <time>2015-10-21T11:27:18Z</time>
      </trkpt>
      <trkpt lat="44.10207" lon="3.12862">
        <ele>374</ele>
        <time>2015-10-21T11:29:18Z</time>
      </trkpt>
      <trkpt lat="44.10205" lon="3.12846">
        <ele>374</ele>
        <time>2015-10-21T11:31:18Z</time>
      </trkpt>
      <trkpt lat="44.10202" lon="3.12839">
        <ele>373</ele>
        <time>2015-10-21T11:33:18Z</time>
      </trkpt>
      <trkpt lat="44.10201" lon="3.12826">
        <ele>373</ele>
        <time>2015-10-21T11:35:18Z</time>
      </trkpt>
      <trkpt lat="44.10196" lon="3.12804">
        <ele>372</ele>
        <time>2015-10-21T11:37:18Z</time>
      </trkpt>
      <trkpt lat="44.10195" lon="3.12792">
        <ele>372</ele>
        <time>2015-10-21T11:39:18Z</time>
      </trkpt>
      <trkpt lat="44.10194" lon="3.12789">
        <ele>372</ele>
        <time>2015-10-21T11:41:18Z</time>
      </trkpt>
      <trkpt lat="44.10191" lon="3.12769">
        <ele>371</ele>
        <time>2015-10-21T11:43:18Z</time>
      </trkpt>
      <trkpt lat="44.1019" lon="3.12759">
        <ele>371</ele>
        <time>2015-10-21T11:45:18Z</time>
      </trkpt>
      <trkpt lat="44.10189" lon="3.12742">
        <ele>370</ele>
        <time>2015-10-21T11:47:18Z</time>
      </trkpt>
      <trkpt lat="44.10187" lon="3.12721">
        <ele>369</ele>
        <time>2015-10-21T11:49:18Z</time>
      </trkpt>
      <trkpt lat="44.10191" lon="3.12717">
        <ele>369</ele>
        <time>2015-10-21T11:51:18Z</time>
      </trkpt>
      <trkpt lat="44.10195" lon="3.12716">
        <ele>370</ele>
        <time>2015-10-21T11:53:18Z</time>
      </trkpt>
      <trkpt lat="44.10196" lon="3.12718">
        <ele>370</ele>
        <time>2015-10-21T11:55:18Z</time>
      </trkpt>
      <trkpt lat="44.10197" lon="3.12717">
        <ele>370</ele>
        <time>2015-10-21T11:57:18Z</time>
      </trkpt>
      <trkpt lat="44.10205" lon="3.1272">
        <ele>372</ele>
        <time>2015-10-21T11:59:18Z</time>
      </trkpt>
      <trkpt lat="44.10216" lon="3.12726">
        <ele>373</ele>
        <time>2015-10-21T12:01:18Z</time>
      </trkpt>
      <trkpt lat="44.10223" lon="3.12731">
        <ele>375</ele>
        <time>2015-10-21T12:03:18Z</time>
      </trkpt>
      <trkpt lat="44.10227" lon="3.12732">
        <ele>375</ele>
        <time>2015-10-21T12:05:18Z</time>
      </trkpt>
      <trkpt lat="44.10233" lon="3.12734">
        <ele>376</ele>
        <time>2015-10-21T12:07:18Z</time>
      </trkpt>
      <trkpt lat="44.1024" lon="3.12737">
        <ele>377</ele>
        <time>2015-10-21T12:09:18Z</time>
      </trkpt>
      <trkpt lat="44.10247" lon="3.12738">
        <ele>378</ele>
        <time>2015-10-21T12:11:18Z</time>
      </trkpt>
      <trkpt lat="44.10253" lon="3.12732">
        <ele>379</ele>
        <time>2015-10-21T12:13:18Z</time>
      </trkpt>
      <trkpt lat="44.10258" lon="3.12723">
        <ele>380</ele>
        <time>2015-10-21T12:15:18Z</time>
      </trkpt>
      <trkpt lat="44.10261" lon="3.12718">
        <ele>381</ele>
        <time>2015-10-21T12:17:18Z</time>
      </trkpt>
      <trkpt lat="44.10264" lon="3.1271">
        <ele>382</ele>
        <time>2015-10-21T12:19:18Z</time>
      </trkpt>
      <trkpt lat="44.10267" lon="3.12705">
        <ele>382</ele>
        <time>2015-10-21T12:21:18Z</time>
      </trkpt>
      <trkpt lat="44.10273" lon="3.12698">
        <ele>384</ele>
        <time>2015-10-21T12:23:18Z</time>
      </trkpt>
      <trkpt lat="44.10279" lon="3.12695">
        <ele>385</ele>
        <time>2015-10-21T12:25:18Z</time>
      </trkpt>
      <trkpt lat="44.10282" lon="3.12689">
        <ele>386</ele>
        <time>2015-10-21T12:27:18Z</time>
      </trkpt>
      <trkpt lat="44.10288" lon="3.12687">
        <ele>388</ele>
        <time>2015-10-21T12:29:18Z</time>
      </trkpt>
      <trkpt lat="44.10293" lon="3.12685">
        <ele>389</ele>
        <time>2015-10-21T12:31:18Z</time>
      </trkpt>
      <trkpt lat="44.10299" lon="3.12681">
        <ele>390</ele>
        <time>2015-10-21T12:33:18Z</time>
      </trkpt>
      <trkpt lat="44.103" lon="3.12681">
        <ele>391</ele>
        <time>2015-10-21T12:35:18Z</time>
      </trkpt>
      <trkpt lat="44.10304" lon="3.12677">
        <ele>392</ele>
        <time>2015-10-21T12:37:18Z</time>
      </trkpt>
      <trkpt lat="44.10305" lon="3.12676">
        <ele>392</ele>
        <time>2015-10-21T12:39:18Z</time>
      </trkpt>
      <trkpt lat="44.1031" lon="3.12675">
        <ele>393</ele>
        <time>2015-10-21T12:41:18Z</time>
      </trkpt>
      <trkpt lat="44.10312" lon="3.12682">
        <ele>394</ele>
        <time>2015-10-21T12:43:18Z</time>
      </trkpt>
      <trkpt lat="44.10312" lon="3.12689">
        <ele>394</ele>
        <time>2015-10-21T12:45:18Z</time>
      </trkpt>
      <trkpt lat="44.10313" lon="3.12695">
        <ele>394</ele>
        <time>2015-10-21T12:47:18Z</time>
      </trkpt>
      <trkpt lat="44.10315" lon="3.127">
        <ele>394</ele>
        <time>2015-10-21T12:49:18Z</time>
      </trkpt>
      <trkpt lat="44.10317" lon="3.127">
        <ele>395</ele>
        <time>2015-10-21T12:51:18Z</time>
      </trkpt>
      <trkpt lat="44.1033" lon="3.12682">
        <ele>399</ele>
        <time>2015-10-21T12:53:18Z</time>
      </trkpt>
      <trkpt lat="44.10337" lon="3.12674">
        <ele>401</ele>
        <time>2015-10-21T12:55:18Z</time>
      </trkpt>
      <trkpt lat="44.10341" lon="3.12666">
        <ele>403</ele>
        <time>2015-10-21T12:57:18Z</time>
      </trkpt>
      <trkpt lat="44.10343" lon="3.12662">
        <ele>404</ele>
        <time>2015-10-21T12:59:18Z</time>
      </trkpt>
      <trkpt lat="44.10344" lon="3.12662">
        <ele>404</ele>
        <time>2015-10-21T13:01:18Z</time>
      </trkpt>
      <trkpt lat="44.10346" lon="3.12665">
        <ele>405</ele>
        <time>2015-10-21T13:03:18Z</time>
      </trkpt>
      <trkpt lat="44.10345" lon="3.12678">
        <ele>404</ele>
        <time>2015-10-21T13:05:18Z</time>
      </trkpt>
      <trkpt lat="44.10346" lon="3.12681">
        <ele>405</ele>
        <time>2015-10-21T13:07:18Z</time>
      </trkpt>
      <trkpt lat="44.1035" lon="3.12679">
        <ele>406</ele>
        <time>2015-10-21T13:09:18Z</time>
      </trkpt>
      <trkpt lat="44.10351" lon="3.12676">
        <ele>407</ele>
        <time>2015-10-21T13:11:18Z</time>
      </trkpt>
      <trkpt lat="44.10354" lon="3.12666">
        <ele>409</ele>
        <time>2015-10-21T13:13:18Z</time>
      </trkpt>
      <trkpt lat="44.10356" lon="3.1266">
        <ele>409</ele>
        <time>2015-10-21T13:15:18Z</time>
      </trkpt>
      <trkpt lat="44.10362" lon="3.12649">
        <ele>411</ele>
        <time>2015-10-21T13:17:18Z</time>
      </trkpt>
      <trkpt lat="44.10369" lon="3.12638">
        <ele>413</ele>
        <time>2015-10-21T13:19:18Z</time>
      </trkpt>
      <trkpt lat="44.10374" lon="3.12636">
        <ele>416</ele>
        <time>2015-10-21T13:21:18Z</time>
      </trkpt>
      <trkpt lat="44.1038" lon="3.12638">
        <ele>418</ele>
        <time>2015-10-21T13:23:18Z</time>
      </trkpt>
      <trkpt lat="44.10384" lon="3.12642">
        <ele>420</ele>
        <time>2015-10-21T13:25:18Z</time>
      </trkpt>
      <trkpt lat="44.10387" lon="3.12646">
        <ele>422</ele>
        <time>2015-10-21T13:27:18Z</time>
      </trkpt>
      <trkpt lat="44.10389" lon="3.12648">
        <ele>423</ele>
        <time>2015-10-21T13:29:18Z</time>
      </trkpt>
      <trkpt lat="44.10391" lon="3.12653">
        <ele>424</ele>
        <time>2015-10-21T13:31:18Z</time>
      </trkpt>
      <trkpt lat="44.10395" lon="3.12659">
        <ele>426</ele>
        <time>2015-10-21T13:33:18Z</time>
      </trkpt>
      <trkpt lat="44.10399" lon="3.12664">
        <ele>428</ele>
        <time>2015-10-21T13:35:18Z</time>
      </trkpt>
      <trkpt lat="44.10404" lon="3.12668">
        <ele>429</ele>
        <time>2015-10-21T13:37:18Z</time>
      </trkpt>
      <trkpt lat="44.10407" lon="3.12669">
        <ele>431</ele>
        <time>2015-10-21T13:39:18Z</time>
      </trkpt>
      <trkpt lat="44.1041" lon="3.12671">
        <ele>431</ele>
        <time>2015-10-21T13:41:18Z</time>
      </trkpt>
      <trkpt lat="44.10421" lon="3.1268">
        <ele>434</ele>
        <time>2015-10-21T13:43:18Z</time>
      </trkpt>
      <trkpt lat="44.10426" lon="3.12682">
        <ele>435</ele>
        <time>2015-10-21T13:45:18Z</time>
      </trkpt>
      <trkpt lat="44.10431" lon="3.12683">
        <ele>437</ele>
        <time>2015-10-21T13:47:18Z</time>
      </trkpt>
      <trkpt lat="44.10436" lon="3.12684">
        <ele>438</ele>
        <time>2015-10-21T13:49:18Z</time>
      </trkpt>
      <trkpt lat="44.10439" lon="3.12683">
        <ele>439</ele>
        <time>2015-10-21T13:51:18Z</time>
      </trkpt>
      <trkpt lat="44.10443" lon="3.12683">
        <ele>440</ele>
        <time>2015-10-21T13:53:18Z</time>
      </trkpt>
      <trkpt lat="44.10446" lon="3.12683">
        <ele>441</ele>
        <time>2015-10-21T13:55:18Z</time>
      </trkpt>
      <trkpt lat="44.1045" lon="3.12682">
        <ele>443</ele>
        <time>2015-10-21T13:57:18Z</time>
      </trkpt>
      <trkpt lat="44.10452" lon="3.12682">
        <ele>444</ele>
        <time>2015-10-21T13:59:18Z</time>
      </trkpt>
      <trkpt lat="44.10454" lon="3.12677">
        <ele>446</ele>
        <time>2015-10-21T14:01:18Z</time>
      </trkpt>
      <trkpt lat="44.10455" lon="3.12674">
        <ele>447</ele>
        <time>2015-10-21T14:03:18Z</time>
      </trkpt>
      <trkpt lat="44.10456" lon="3.12669">
        <ele>448</ele>
        <time>2015-10-21T14:05:18Z</time>
      </trkpt>
      <trkpt lat="44.10455" lon="3.12665">
        <ele>448</ele>
        <time>2015-10-21T14:07:18Z</time>
      </trkpt>
      <trkpt lat="44.10456" lon="3.12659">
        <ele>449</ele>
        <time>2015-10-21T14:09:18Z</time>
      </trkpt>
      <trkpt lat="44.10458" lon="3.12652">
        <ele>450</ele>
        <time>2015-10-21T14:11:18Z</time>
      </trkpt>
      <trkpt lat="44.10459" lon="3.12643">
        <ele>451</ele>
        <time>2015-10-21T14:13:18Z</time>
      </trkpt>
      <trkpt lat="44.10459" lon="3.12641">
        <ele>451</ele>
        <time>2015-10-21T14:15:18Z</time>
      </trkpt>
      <trkpt lat="44.1046" lon="3.12633">
        <ele>452</ele>
        <time>2015-10-21T14:17:18Z</time>
      </trkpt>
      <trkpt lat="44.10463" lon="3.12624">
        <ele>454</ele>
        <time>2015-10-21T14:19:18Z</time>
      </trkpt>
      <trkpt lat="44.10465" lon="3.12618">
        <ele>455</ele>
        <time>2015-10-21T14:21:18Z</time>
      </trkpt>
      <trkpt lat="44.10468" lon="3.1261">
        <ele>457</ele>
        <time>2015-10-21T14:23:18Z</time>
      </trkpt>
      <trkpt lat="44.1047" lon="3.12604">
        <ele>459</ele>
        <time>2015-10-21T14:25:18Z</time>
      </trkpt>
      <trkpt lat="44.10472" lon="3.12601">
        <ele>460</ele>
        <time>2015-10-21T14:27:18Z</time>
      </trkpt>
      <trkpt lat="44.10475" lon="3.12599">
        <ele>461</ele>
        <time>2015-10-21T14:29:18Z</time>
      </trkpt>
      <trkpt lat="44.10479" lon="3.12596">
        <ele>463</ele>
        <time>2015-10-21T14:31:18Z</time>
      </trkpt>
      <trkpt lat="44.1048" lon="3.12592">
        <ele>464</ele>
        <time>2015-10-21T14:33:18Z</time>
      </trkpt>
      <trkpt lat="44.10481" lon="3.12589">
        <ele>465</ele>
        <time>2015-10-21T14:35:18Z</time>
      </trkpt>
      <trkpt lat="44.10482" lon="3.12586">
        <ele>466</ele>
        <time>2015-10-21T14:37:18Z</time>
      </trkpt>
      <trkpt lat="44.10484" lon="3.12582">
        <ele>467</ele>
        <time>2015-10-21T14:39:18Z</time>
      </trkpt>
      <trkpt lat="44.10486" lon="3.1258">
        <ele>468</ele>
        <time>2015-10-21T14:41:18Z</time>
      </trkpt>
      <trkpt lat="44.10489" lon="3.12578">
        <ele>470</ele>
        <time>2015-10-21T14:43:18Z</time>
      </trkpt>
      <trkpt lat="44.10491" lon="3.12576">
        <ele>471</ele>
        <time>2015-10-21T14:45:18Z</time>
      </trkpt>
      <trkpt lat="44.10492" lon="3.12572">
        <ele>472</ele>
        <time>2015-10-21T14:47:18Z</time>
      </trkpt>
      <trkpt lat="44.10494" lon="3.1257">
        <ele>473</ele>
        <time>2015-10-21T14:49:18Z</time>
      </trkpt>
      <trkpt lat="44.10496" lon="3.12565">
        <ele>474</ele>
        <time>2015-10-21T14:51:18Z</time>
      </trkpt>
      <trkpt lat="44.10496" lon="3.12557">
        <ele>475</ele>
        <time>2015-10-21T14:53:18Z</time>
      </trkpt>
      <trkpt lat="44.10496" lon="3.12549">
        <ele>475</ele>
        <time>2015-10-21T14:55:18Z</time>
      </trkpt>
      <trkpt lat="44.10499" lon="3.12544">
        <ele>477</ele>
        <time>2015-10-21T14:57:18Z</time>
      </trkpt>
      <trkpt lat="44.10501" lon="3.12541">
        <ele>479</ele>
        <time>2015-10-21T14:59:18Z</time>
      </trkpt>
      <trkpt lat="44.10502" lon="3.12534">
        <ele>480</ele>
        <time>2015-10-21T15:01:18Z</time>
      </trkpt>
      <trkpt lat="44.10502" lon="3.12532">
        <ele>480</ele>
        <time>2015-10-21T15:03:18Z</time>
      </trkpt>
      <trkpt lat="44.10504" lon="3.12527">
        <ele>481</ele>
        <time>2015-10-21T15:05:18Z</time>
      </trkpt>
      <trkpt lat="44.10506" lon="3.12522">
        <ele>483</ele>
        <time>2015-10-21T15:07:18Z</time>
      </trkpt>
      <trkpt lat="44.10507" lon="3.1252">
        <ele>483</ele>
        <time>2015-10-21T15:09:18Z</time>
      </trkpt>
      <trkpt lat="44.10509" lon="3.12518">
        <ele>484</ele>
        <time>2015-10-21T15:11:18Z</time>
      </trkpt>
      <trkpt lat="44.1051" lon="3.12516">
        <ele>485</ele>
        <time>2015-10-21T15:13:18Z</time>
      </trkpt>
      <trkpt lat="44.10512" lon="3.12512">
        <ele>487</ele>
        <time>2015-10-21T15:15:18Z</time>
      </trkpt>
      <trkpt lat="44.10514" lon="3.12506">
        <ele>488</ele>
        <time>2015-10-21T15:17:18Z</time>
      </trkpt>
      <trkpt lat="44.10516" lon="3.125">
        <ele>490</ele>
        <time>2015-10-21T15:19:18Z</time>
      </trkpt>
      <trkpt lat="44.10517" lon="3.12493">
        <ele>490</ele>
        <time>2015-10-21T15:21:18Z</time>
      </trkpt>
      <trkpt lat="44.10517" lon="3.12491">
        <ele>491</ele>
        <time>2015-10-21T15:23:18Z</time>
      </trkpt>
      <trkpt lat="44.10518" lon="3.12481">
        <ele>491</ele>
        <time>2015-10-21T15:25:18Z</time>
      </trkpt>
      <trkpt lat="44.10518" lon="3.12454">
        <ele>492</ele>
        <time>2015-10-21T15:27:18Z</time>
      </trkpt>
      <trkpt lat="44.10521" lon="3.12423">
        <ele>494</ele>
        <time>2015-10-21T15:29:18Z</time>
      </trkpt>
      <trkpt lat="44.10525" lon="3.12412">
        <ele>497</ele>
        <time>2015-10-21T15:31:18Z</time>
      </trkpt>
      <trkpt lat="44.10528" lon="3.12403">
        <ele>499</ele>
        <time>2015-10-21T15:33:18Z</time>
      </trkpt>
      <trkpt lat="44.10529" lon="3.12403">
        <ele>500</ele>
        <time>2015-10-21T15:35:18Z</time>
      </trkpt>
      <trkpt lat="44.10531" lon="3.12405">
        <ele>501</ele>
        <time>2015-10-21T15:37:18Z</time>
      </trkpt>
      <trkpt lat="44.10531" lon="3.12411">
        <ele>501</ele>
        <time>2015-10-21T15:39:18Z</time>
      </trkpt>
      <trkpt lat="44.10533" lon="3.12416">
        <ele>503</ele>
        <time>2015-10-21T15:41:18Z</time>
      </trkpt>
      <trkpt lat="44.10534" lon="3.12418">
        <ele>503</ele>
        <time>2015-10-21T15:43:18Z</time>
      </trkpt>
      <trkpt lat="44.10537" lon="3.12418">
        <ele>505</ele>
        <time>2015-10-21T15:45:18Z</time>
      </trkpt>
      <trkpt lat="44.10539" lon="3.12418">
        <ele>507</ele>
        <time>2015-10-21T15:47:18Z</time>
      </trkpt>
      <trkpt lat="44.10541" lon="3.12418">
        <ele>508</ele>
        <time>2015-10-21T15:49:18Z</time>
      </trkpt>
      <trkpt lat="44.10544" lon="3.12416">
        <ele>510</ele>
        <time>2015-10-21T15:51:18Z</time>
      </trkpt>
      <trkpt lat="44.10546" lon="3.12418">
        <ele>511</ele>
        <time>2015-10-21T15:53:18Z</time>
      </trkpt>
      <trkpt lat="44.10549" lon="3.1242">
        <ele>513</ele>
        <time>2015-10-21T15:55:18Z</time>
      </trkpt>
      <trkpt lat="44.1055" lon="3.12421">
        <ele>514</ele>
        <time>2015-10-21T15:57:18Z</time>
      </trkpt>
      <trkpt lat="44.10553" lon="3.12424">
        <ele>516</ele>
        <time>2015-10-21T15:59:18Z</time>
      </trkpt>
      <trkpt lat="44.10555" lon="3.12426">
        <ele>517</ele>
        <time>2015-10-21T16:01:18Z</time>
      </trkpt>
      <trkpt lat="44.10557" lon="3.1243">
        <ele>518</ele>
        <time>2015-10-21T16:03:18Z</time>
      </trkpt>
      <trkpt lat="44.10559" lon="3.12432">
        <ele>519</ele>
        <time>2015-10-21T16:05:18Z</time>
      </trkpt>
      <trkpt lat="44.10562" lon="3.12435">
        <ele>521</ele>
        <time>2015-10-21T16:07:18Z</time>
      </trkpt>
      <trkpt lat="44.10563" lon="3.12441">
        <ele>521</ele>
        <time>2015-10-21T16:09:18Z</time>
      </trkpt>
      <trkpt lat="44.10565" lon="3.12447">
        <ele>522</ele>
        <time>2015-10-21T16:11:18Z</time>
      </trkpt>
      <trkpt lat="44.10568" lon="3.1245">
        <ele>523</ele>
        <time>2015-10-21T16:13:18Z</time>
      </trkpt>
      <trkpt lat="44.10571" lon="3.12456">
        <ele>525</ele>
        <time>2015-10-21T16:15:18Z</time>
      </trkpt>
      <trkpt lat="44.10574" lon="3.12459">
        <ele>526</ele>
        <time>2015-10-21T16:17:18Z</time>
      </trkpt>
      <trkpt lat="44.10577" lon="3.12459">
        <ele>528</ele>
        <time>2015-10-21T16:19:18Z</time>
      </trkpt>
      <trkpt lat="44.10579" lon="3.12461">
        <ele>529</ele>
        <time>2015-10-21T16:21:18Z</time>
      </trkpt>
      <trkpt lat="44.10581" lon="3.12465">
        <ele>530</ele>
        <time>2015-10-21T16:23:18Z</time>
      </trkpt>
      <trkpt lat="44.10585" lon="3.12468">
        <ele>532</ele>
        <time>2015-10-21T16:25:18Z</time>
      </trkpt>
      <trkpt lat="44.10588" lon="3.12472">
        <ele>533</ele>
        <time>2015-10-21T16:27:18Z</time>
      </trkpt>
      <trkpt lat="44.1059" lon="3.1248">
        <ele>533</ele>
        <time>2015-10-21T16:29:18Z</time>
      </trkpt>
      <trkpt lat="44.1059" lon="3.12481">
        <ele>533</ele>
        <time>2015-10-21T16:31:18Z</time>
      </trkpt>
      <trkpt lat="44.10594" lon="3.12485">
        <ele>535</ele>
        <time>2015-10-21T16:33:18Z</time>
      </trkpt>
      <trkpt lat="44.10598" lon="3.12489">
        <ele>537</ele>
        <time>2015-10-21T16:35:18Z</time>
      </trkpt>
      <trkpt lat="44.106" lon="3.12494">
        <ele>538</ele>
        <time>2015-10-21T16:37:18Z</time>
      </trkpt>
      <trkpt lat="44.10603" lon="3.12496">
        <ele>539</ele>
        <time>2015-10-21T16:39:18Z</time>
      </trkpt>
      <trkpt lat="44.10606" lon="3.125">
        <ele>540</ele>
        <time>2015-10-21T16:41:18Z</time>
      </trkpt>
      <trkpt lat="44.10609" lon="3.12502">
        <ele>542</ele>
        <time>2015-10-21T16:43:18Z</time>
      </trkpt>
      <trkpt lat="44.10612" lon="3.12508">
        <ele>542</ele>
        <time>2015-10-21T16:45:18Z</time>
      </trkpt>
      <trkpt lat="44.10617" lon="3.12511">
        <ele>544</ele>
        <time>2015-10-21T16:47:18Z</time>
      </trkpt>
      <trkpt lat="44.10621" lon="3.12512">
        <ele>546</ele>
        <time>2015-10-21T16:49:18Z</time>
      </trkpt>
      <trkpt lat="44.10623" lon="3.12511">
        <ele>547</ele>
        <time>2015-10-21T16:51:18Z</time>
      </trkpt>
      <trkpt lat="44.10625" lon="3.12513">
        <ele>548</ele>
        <time>2015-10-21T16:53:18Z</time>
      </trkpt>
      <trkpt lat="44.10628" lon="3.12513">
        <ele>549</ele>
        <time>2015-10-21T16:55:18Z</time>
      </trkpt>
      <trkpt lat="44.10631" lon="3.12514">
        <ele>551</ele>
        <time>2015-10-21T16:57:18Z</time>
      </trkpt>
      <trkpt lat="44.10633" lon="3.12516">
        <ele>551</ele>
        <time>2015-10-21T16:59:18Z</time>
      </trkpt>
      <trkpt lat="44.10636" lon="3.12518">
        <ele>552</ele>
        <time>2015-10-21T17:01:18Z</time>
      </trkpt>
      <trkpt lat="44.10639" lon="3.1252">
        <ele>553</ele>
        <time>2015-10-21T17:03:18Z</time>
      </trkpt>
      <trkpt lat="44.10641" lon="3.12517">
        <ele>555</ele>
        <time>2015-10-21T17:05:18Z</time>
      </trkpt>
      <trkpt lat="44.10642" lon="3.12512">
        <ele>557</ele>
        <time>2015-10-21T17:07:18Z</time>
      </trkpt>
      <trkpt lat="44.10644" lon="3.12511">
        <ele>559</ele>
        <time>2015-10-21T17:09:18Z</time>
      </trkpt>
      <trkpt lat="44.10646" lon="3.12516">
        <ele>558</ele>
        <time>2015-10-21T17:11:18Z</time>
      </trkpt>
      <trkpt lat="44.10647" lon="3.1252">
        <ele>557</ele>
        <time>2015-10-21T17:13:18Z</time>
      </trkpt>
      <trkpt lat="44.1065" lon="3.12524">
        <ele>557</ele>
        <time>2015-10-21T17:15:18Z</time>
      </trkpt>
      <trkpt lat="44.10652" lon="3.12526">
        <ele>558</ele>
        <time>2015-10-21T17:17:18Z</time>
      </trkpt>
      <trkpt lat="44.10655" lon="3.12529">
        <ele>558</ele>
        <time>2015-10-21T17:19:18Z</time>
      </trkpt>
      <trkpt lat="44.10658" lon="3.1253">
        <ele>559</ele>
        <time>2015-10-21T17:21:18Z</time>
      </trkpt>
      <trkpt lat="44.10662" lon="3.1253">
        <ele>561</ele>
        <time>2015-10-21T17:23:18Z</time>
      </trkpt>
      <trkpt lat="44.10666" lon="3.12527">
        <ele>565</ele>
        <time>2015-10-21T17:25:18Z</time>
      </trkpt>
      <trkpt lat="44.1067" lon="3.12528">
        <ele>565</ele>
        <time>2015-10-21T17:27:18Z</time>
      </trkpt>
      <trkpt lat="44.10673" lon="3.12529">
        <ele>566</ele>
        <time>2015-10-21T17:29:18Z</time>
      </trkpt>
      <trkpt lat="44.10676" lon="3.12529">
        <ele>567</ele>
        <time>2015-10-21T17:31:18Z</time>
      </trkpt>
      <trkpt lat="44.10681" lon="3.12528">
        <ele>568</ele>
        <time>2015-10-21T17:33:18Z</time>
      </trkpt>
      <trkpt lat="44.10685" lon="3.12529">
        <ele>569</ele>
        <time>2015-10-21T17:35:18Z</time>
      </trkpt>
      <trkpt lat="44.10688" lon="3.12529">
        <ele>570</ele>
        <time>2015-10-21T17:37:18Z</time>
      </trkpt>
      <trkpt lat="44.10693" lon="3.12532">
        <ele>569</ele>
        <time>2015-10-21T17:39:18Z</time>
      </trkpt>
      <trkpt lat="44.10696" lon="3.12531">
        <ele>571</ele>
        <time>2015-10-21T17:41:18Z</time>
      </trkpt>
      <trkpt lat="44.10697" lon="3.12524">
        <ele>574</ele>
        <time>2015-10-21T17:43:18Z</time>
      </trkpt>
      <trkpt lat="44.10697" lon="3.12523">
        <ele>575</ele>
        <time>2015-10-21T17:45:18Z</time>
      </trkpt>
      <trkpt lat="44.10701" lon="3.12522">
        <ele>576</ele>
        <time>2015-10-21T17:47:18Z</time>
      </trkpt>
      <trkpt lat="44.10704" lon="3.12521">
        <ele>577</ele>
        <time>2015-10-21T17:49:18Z</time>
      </trkpt>
      <trkpt lat="44.10706" lon="3.12519">
        <ele>579</ele>
        <time>2015-10-21T17:51:18Z</time>
      </trkpt>
      <trkpt lat="44.10708" lon="3.12519">
        <ele>580</ele>
        <time>2015-10-21T17:53:18Z</time>
      </trkpt>
      <trkpt lat="44.10712" lon="3.1252">
        <ele>580</ele>
        <time>2015-10-21T17:55:18Z</time>
      </trkpt>
      <trkpt lat="44.10715" lon="3.1252">
        <ele>581</ele>
        <time>2015-10-21T17:57:18Z</time>
      </trkpt>
      <trkpt lat="44.10718" lon="3.12526">
        <ele>579</ele>
        <time>2015-10-21T17:59:18Z</time>
      </trkpt>
      <trkpt lat="44.10719" lon="3.12528">
        <ele>578</ele>
        <time>2015-10-21T18:01:18Z</time>
      </trkpt>
      <trkpt lat="44.1072" lon="3.12528">
        <ele>578</ele>
        <time>2015-10-21T18:03:18Z</time>
      </trkpt>
      <trkpt lat="44.10727" lon="3.1253">
        <ele>579</ele>
        <time>2015-10-21T18:05:18Z</time>
      </trkpt>
      <trkpt lat="44.10731" lon="3.1253">
        <ele>580</ele>
        <time>2015-10-21T18:07:18Z</time>
      </trkpt>
      <trkpt lat="44.10733" lon="3.12529">
        <ele>581</ele>
        <time>2015-10-21T18:09:18Z</time>
      </trkpt>
      <trkpt lat="44.10738" lon="3.1253">
        <ele>582</ele>
        <time>2015-10-21T18:11:18Z</time>
      </trkpt>
      <trkpt lat="44.10741" lon="3.12527">
        <ele>584</ele>
        <time>2015-10-21T18:13:18Z</time>
      </trkpt>
      <trkpt lat="44.1074" lon="3.1252">
        <ele>588</ele>
        <time>2015-10-21T18:15:18Z</time>
      </trkpt>
      <trkpt lat="44.10738" lon="3.12517">
        <ele>589</ele>
        <time>2015-10-21T18:17:18Z</time>
      </trkpt>
      <trkpt lat="44.10733" lon="3.12514">
        <ele>589</ele>
        <time>2015-10-21T18:19:18Z</time>
      </trkpt>
      <trkpt lat="44.10733" lon="3.1251">
        <ele>591</ele>
        <time>2015-10-21T18:21:18Z</time>
      </trkpt>
      <trkpt lat="44.10731" lon="3.12503">
        <ele>594</ele>
        <time>2015-10-21T18:23:18Z</time>
      </trkpt>
      <trkpt lat="44.10731" lon="3.12497">
        <ele>597</ele>
        <time>2015-10-21T18:25:18Z</time>
      </trkpt>
      <trkpt lat="44.10733" lon="3.12495">
        <ele>598</ele>
        <time>2015-10-21T18:27:18Z</time>
      </trkpt>
      <trkpt lat="44.10735" lon="3.12492">
        <ele>600</ele>
        <time>2015-10-21T18:29:18Z</time>
      </trkpt>
      <trkpt lat="44.10737" lon="3.1249">
        <ele>602</ele>
        <time>2015-10-21T18:31:18Z</time>
      </trkpt>
      <trkpt lat="44.10738" lon="3.12488">
        <ele>603</ele>
        <time>2015-10-21T18:33:18Z</time>
      </trkpt>
      <trkpt lat="44.10735" lon="3.12484">
        <ele>603</ele>
        <time>2015-10-21T18:35:18Z</time>
      </trkpt>
      <trkpt lat="44.10737" lon="3.1248">
        <ele>605</ele>
        <time>2015-10-21T18:37:18Z</time>
      </trkpt>
      <trkpt lat="44.10741" lon="3.12478">
        <ele>607</ele>
        <time>2015-10-21T18:39:18Z</time>
      </trkpt>
      <trkpt lat="44.10744" lon="3.12477">
        <ele>609</ele>
        <time>2015-10-21T18:41:18Z</time>
      </trkpt>
      <trkpt lat="44.10745" lon="3.12473">
        <ele>611</ele>
        <time>2015-10-21T18:43:18Z</time>
      </trkpt>
      <trkpt lat="44.10746" lon="3.12467">
        <ele>613</ele>
        <time>2015-10-21T18:45:18Z</time>
      </trkpt>
      <trkpt lat="44.10746" lon="3.12458">
        <ele>617</ele>
        <time>2015-10-21T18:47:18Z</time>
      </trkpt>
      <trkpt lat="44.10746" lon="3.12457">
        <ele>617</ele>
        <time>2015-10-21T18:49:18Z</time>
      </trkpt>
      <trkpt lat="44.10747" lon="3.12447">
        <ele>621</ele>
        <time>2015-10-21T18:51:18Z</time>
      </trkpt>
      <trkpt lat="44.10748" lon="3.12445">
        <ele>622</ele>
        <time>2015-10-21T18:53:18Z</time>
      </trkpt>
      <trkpt lat="44.10743" lon="3.12438">
        <ele>623</ele>
        <time>2015-10-21T18:55:18Z</time>
      </trkpt>
      <trkpt lat="44.10737" lon="3.12431">
        <ele>623</ele>
        <time>2015-10-21T18:57:18Z</time>
      </trkpt>
      <trkpt lat="44.10729" lon="3.12425">
        <ele>621</ele>
        <time>2015-10-21T18:59:18Z</time>
      </trkpt>
      <trkpt lat="44.10721" lon="3.12414">
        <ele>620</ele>
        <time>2015-10-21T19:01:18Z</time>
      </trkpt>
      <trkpt lat="44.10713" lon="3.12399">
        <ele>619</ele>
        <time>2015-10-21T19:03:18Z</time>
      </trkpt>
      <trkpt lat="44.10709" lon="3.1239">
        <ele>619</ele>
        <time>2015-10-21T19:05:18Z</time>
      </trkpt>
      <trkpt lat="44.10704" lon="3.12374">
        <ele>619</ele>
        <time>2015-10-21T19:07:18Z</time>
      </trkpt>
      <trkpt lat="44.107" lon="3.12362">
        <ele>619</ele>
        <time>2015-10-21T19:09:18Z</time>
      </trkpt>
      <trkpt lat="44.10698" lon="3.12355">
        <ele>619</ele>
        <time>2015-10-21T19:11:18Z</time>
      </trkpt>
      <trkpt lat="44.10696" lon="3.12348">
        <ele>619</ele>
        <time>2015-10-21T19:13:18Z</time>
      </trkpt>
      <trkpt lat="44.10695" lon="3.12335">
        <ele>620</ele>
        <time>2015-10-21T19:15:18Z</time>
      </trkpt>
      <trkpt lat="44.10695" lon="3.12322">
        <ele>621</ele>
        <time>2015-10-21T19:17:18Z</time>
      </trkpt>
      <trkpt lat="44.10697" lon="3.1231">
        <ele>623</ele>
        <time>2015-10-21T19:19:18Z</time>
      </trkpt>
      <trkpt lat="44.10697" lon="3.12294">
        <ele>624</ele>
        <time>2015-10-21T19:21:18Z</time>
      </trkpt>
      <trkpt lat="44.10692" lon="3.12264">
        <ele>624</ele>
        <time>2015-10-21T19:23:18Z</time>
      </trkpt>
      <trkpt lat="44.10688" lon="3.12252">
        <ele>622</ele>
        <time>2015-10-21T19:25:18Z</time>
      </trkpt>
      <trkpt lat="44.10677" lon="3.12233">
        <ele>616</ele>
        <time>2015-10-21T19:27:18Z</time>
      </trkpt>
      <trkpt lat="44.10679" lon="3.12225">
        <ele>618</ele>
        <time>2015-10-21T19:29:18Z</time>
      </trkpt>
      <trkpt lat="44.10679" lon="3.12222">
        <ele>618</ele>
        <time>2015-10-21T19:31:18Z</time>
      </trkpt>
      <trkpt lat="44.10681" lon="3.12211">
        <ele>619</ele>
        <time>2015-10-21T19:33:18Z</time>
      </trkpt>
      <trkpt lat="44.10687" lon="3.12201">
        <ele>623</ele>
        <time>2015-10-21T19:35:18Z</time>
      </trkpt>
      <trkpt lat="44.10692" lon="3.12194">
        <ele>626</ele>
        <time>2015-10-21T19:37:18Z</time>
      </trkpt>
      <trkpt lat="44.107" lon="3.12191">
        <ele>632</ele>
        <time>2015-10-21T19:39:18Z</time>
      </trkpt>
      <trkpt lat="44.10701" lon="3.1219">
        <ele>632</ele>
        <time>2015-10-21T19:41:18Z</time>
      </trkpt>
      <trkpt lat="44.10707" lon="3.1219">
        <ele>636</ele>
        <time>2015-10-21T19:43:18Z</time>
      </trkpt>
      <trkpt lat="44.10711" lon="3.12189">
        <ele>639</ele>
        <time>2015-10-21T19:45:18Z</time>
      </trkpt>
      <trkpt lat="44.10712" lon="3.12187">
        <ele>640</ele>
        <time>2015-10-21T19:47:18Z</time>
      </trkpt>
      <trkpt lat="44.10715" lon="3.12188">
        <ele>642</ele>
        <time>2015-10-21T19:49:18Z</time>
      </trkpt>
      <trkpt lat="44.10718" lon="3.12188">
        <ele>644</ele>
        <time>2015-10-21T19:51:18Z</time>
      </trkpt>
      <trkpt lat="44.10721" lon="3.1219">
        <ele>646</ele>
        <time>2015-10-21T19:53:18Z</time>
      </trkpt>
      <trkpt lat="44.10724" lon="3.1219">
        <ele>647</ele>
        <time>2015-10-21T19:55:18Z</time>
      </trkpt>
      <trkpt lat="44.1073" lon="3.12189">
        <ele>651</ele>
        <time>2015-10-21T19:57:18Z</time>
      </trkpt>
      <trkpt lat="44.10734" lon="3.12189">
        <ele>654</ele>
        <time>2015-10-21T19:59:18Z</time>
      </trkpt>
      <trkpt lat="44.10737" lon="3.12186">
        <ele>656</ele>
        <time>2015-10-21T20:01:18Z</time>
      </trkpt>
      <trkpt lat="44.1074" lon="3.12184">
        <ele>659</ele>
        <time>2015-10-21T20:03:18Z</time>
      </trkpt>
      <trkpt lat="44.10743" lon="3.12184">
        <ele>660</ele>
        <time>2015-10-21T20:05:18Z</time>
      </trkpt>
      <trkpt lat="44.10748" lon="3.12185">
        <ele>664</ele>
        <time>2015-10-21T20:07:18Z</time>
      </trkpt>
      <trkpt lat="44.10751" lon="3.12183">
        <ele>666</ele>
        <time>2015-10-21T20:09:18Z</time>
      </trkpt>
      <trkpt lat="44.10752" lon="3.12176">
        <ele>667</ele>
        <time>2015-10-21T20:11:18Z</time>
      </trkpt>
      <trkpt lat="44.10756" lon="3.12171">
        <ele>669</ele>
        <time>2015-10-21T20:13:18Z</time>
      </trkpt>
      <trkpt lat="44.10757" lon="3.12167">
        <ele>669</ele>
        <time>2015-10-21T20:15:18Z</time>
      </trkpt>
      <trkpt lat="44.10758" lon="3.12162">
        <ele>670</ele>
        <time>2015-10-21T20:17:18Z</time>
      </trkpt>
      <trkpt lat="44.10758" lon="3.12155">
        <ele>671</ele>
        <time>2015-10-21T20:19:18Z</time>
      </trkpt>
      <trkpt lat="44.10759" lon="3.12149">
        <ele>672</ele>
        <time>2015-10-21T20:21:18Z</time>
      </trkpt>
      <trkpt lat="44.1076" lon="3.12146">
        <ele>673</ele>
        <time>2015-10-21T20:23:18Z</time>
      </trkpt>
      <trkpt lat="44.10762" lon="3.1214">
        <ele>674</ele>
        <time>2015-10-21T20:25:18Z</time>
      </trkpt>
      <trkpt lat="44.10763" lon="3.12137">
        <ele>675</ele>
        <time>2015-10-21T20:27:18Z</time>
      </trkpt>
      <trkpt lat="44.10764" lon="3.12133">
        <ele>675</ele>
        <time>2015-10-21T20:29:18Z</time>
      </trkpt>
      <trkpt lat="44.10765" lon="3.12124">
        <ele>677</ele>
        <time>2015-10-21T20:31:18Z</time>
      </trkpt>
      <trkpt lat="44.10766" lon="3.12112">
        <ele>678</ele>
        <time>2015-10-21T20:33:18Z</time>
      </trkpt>
      <trkpt lat="44.10768" lon="3.12101">
        <ele>681</ele>
        <time>2015-10-21T20:35:18Z</time>
      </trkpt>
      <trkpt lat="44.10772" lon="3.12097">
        <ele>683</ele>
        <time>2015-10-21T20:37:18Z</time>
      </trkpt>
      <trkpt lat="44.10774" lon="3.12094">
        <ele>684</ele>
        <time>2015-10-21T20:39:18Z</time>
      </trkpt>
      <trkpt lat="44.10776" lon="3.1209">
        <ele>685</ele>
        <time>2015-10-21T20:41:18Z</time>
      </trkpt>
      <trkpt lat="44.10778" lon="3.1209">
        <ele>686</ele>
        <time>2015-10-21T20:43:18Z</time>
      </trkpt>
      <trkpt lat="44.10779" lon="3.12089">
        <ele>687</ele>
        <time>2015-10-21T20:45:18Z</time>
      </trkpt>
      <trkpt lat="44.1078" lon="3.12081">
        <ele>688</ele>
        <time>2015-10-21T20:47:18Z</time>
      </trkpt>
      <trkpt lat="44.10782" lon="3.12076">
        <ele>690</ele>
        <time>2015-10-21T20:49:18Z</time>
      </trkpt>
      <trkpt lat="44.10784" lon="3.12072">
        <ele>691</ele>
        <time>2015-10-21T20:51:18Z</time>
      </trkpt>
      <trkpt lat="44.10787" lon="3.12072">
        <ele>693</ele>
        <time>2015-10-21T20:53:18Z</time>
      </trkpt>
      <trkpt lat="44.10789" lon="3.12072">
        <ele>694</ele>
        <time>2015-10-21T20:55:18Z</time>
      </trkpt>
      <trkpt lat="44.1079" lon="3.12072">
        <ele>694</ele>
        <time>2015-10-21T20:57:18Z</time>
      </trkpt>
      <trkpt lat="44.10792" lon="3.12078">
        <ele>694</ele>
        <time>2015-10-21T20:59:18Z</time>
      </trkpt>
      <trkpt lat="44.10795" lon="3.12087">
        <ele>695</ele>
        <time>2015-10-21T21:01:18Z</time>
      </trkpt>
      <trkpt lat="44.108" lon="3.12089">
        <ele>697</ele>
        <time>2015-10-21T21:03:18Z</time>
      </trkpt>
      <trkpt lat="44.10803" lon="3.12087">
        <ele>698</ele>
        <time>2015-10-21T21:05:18Z</time>
      </trkpt>
      <trkpt lat="44.10804" lon="3.12083">
        <ele>699</ele>
        <time>2015-10-21T21:07:18Z</time>
      </trkpt>
      <trkpt lat="44.10806" lon="3.12081">
        <ele>701</ele>
        <time>2015-10-21T21:09:18Z</time>
      </trkpt>
      <trkpt lat="44.10808" lon="3.12079">
        <ele>702</ele>
        <time>2015-10-21T21:11:18Z</time>
      </trkpt>
      <trkpt lat="44.1081" lon="3.12077">
        <ele>703</ele>
        <time>2015-10-21T21:13:18Z</time>
      </trkpt>
      <trkpt lat="44.10813" lon="3.12076">
        <ele>705</ele>
        <time>2015-10-21T21:15:18Z</time>
      </trkpt>
      <trkpt lat="44.10817" lon="3.12077">
        <ele>706</ele>
        <time>2015-10-21T21:17:18Z</time>
      </trkpt>
      <trkpt lat="44.10821" lon="3.12079">
        <ele>708</ele>
        <time>2015-10-21T21:19:18Z</time>
      </trkpt>
      <trkpt lat="44.10827" lon="3.12079">
        <ele>711</ele>
        <time>2015-10-21T21:21:18Z</time>
      </trkpt>
      <trkpt lat="44.10829" lon="3.12075">
        <ele>713</ele>
        <time>2015-10-21T21:23:18Z</time>
      </trkpt>
      <trkpt lat="44.10832" lon="3.12073">
        <ele>714</ele>
        <time>2015-10-21T21:25:18Z</time>
      </trkpt>
      <trkpt lat="44.10834" lon="3.12072">
        <ele>715</ele>
        <time>2015-10-21T21:27:18Z</time>
      </trkpt>
      <trkpt lat="44.10836" lon="3.12065">
        <ele>717</ele>
        <time>2015-10-21T21:29:18Z</time>
      </trkpt>
      <trkpt lat="44.10839" lon="3.12065">
        <ele>718</ele>
        <time>2015-10-21T21:31:18Z</time>
      </trkpt>
      <trkpt lat="44.10843" lon="3.12064">
        <ele>719</ele>
        <time>2015-10-21T21:33:18Z</time>
      </trkpt>
      <trkpt lat="44.10848" lon="3.12057">
        <ele>722</ele>
        <time>2015-10-21T21:35:18Z</time>
      </trkpt>
      <trkpt lat="44.1085" lon="3.12054">
        <ele>723</ele>
        <time>2015-10-21T21:37:18Z</time>
      </trkpt>
      <trkpt lat="44.10855" lon="3.12055">
        <ele>724</ele>
        <time>2015-10-21T21:39:18Z</time>
      </trkpt>
      <trkpt lat="44.10859" lon="3.12055">
        <ele>725</ele>
        <time>2015-10-21T21:41:18Z</time>
      </trkpt>
      <trkpt lat="44.10865" lon="3.12057">
        <ele>726</ele>
        <time>2015-10-21T21:43:18Z</time>
      </trkpt>
      <trkpt lat="44.10868" lon="3.12058">
        <ele>727</ele>
        <time>2015-10-21T21:45:18Z</time>
      </trkpt>
      <trkpt lat="44.10869" lon="3.12055">
        <ele>727</ele>
        <time>2015-10-21T21:47:18Z</time>
      </trkpt>
      <trkpt lat="44.10871" lon="3.12055">
        <ele>728</ele>
        <time>2015-10-21T21:49:18Z</time>
      </trkpt>
      <trkpt lat="44.10874" lon="3.12053">
        <ele>729</ele>
        <time>2015-10-21T21:51:18Z</time>
      </trkpt>
      <trkpt lat="44.10879" lon="3.12046">
        <ele>732</ele>
        <time>2015-10-21T21:53:18Z</time>
      </trkpt>
      <trkpt lat="44.10884" lon="3.12046">
        <ele>733</ele>
        <time>2015-10-21T21:55:18Z</time>
      </trkpt>
      <trkpt lat="44.10887" lon="3.12048">
        <ele>733</ele>
        <time>2015-10-21T21:57:18Z</time>
      </trkpt>
      <trkpt lat="44.10893" lon="3.12047">
        <ele>735</ele>
        <time>2015-10-21T21:59:18Z</time>
      </trkpt>
      <trkpt lat="44.10897" lon="3.12044">
        <ele>737</ele>
        <time>2015-10-21T22:01:18Z</time>
      </trkpt>
      <trkpt lat="44.10901" lon="3.12039">
        <ele>739</ele>
        <time>2015-10-21T22:03:18Z</time>
      </trkpt>
      <trkpt lat="44.10904" lon="3.12037">
        <ele>740</ele>
        <time>2015-10-21T22:05:18Z</time>
      </trkpt>
      <trkpt lat="44.10906" lon="3.1203">
        <ele>742</ele>
        <time>2015-10-21T22:07:18Z</time>
      </trkpt>
      <trkpt lat="44.1091" lon="3.12027">
        <ele>744</ele>
        <time>2015-10-21T22:09:18Z</time>
      </trkpt>
      <trkpt lat="44.10915" lon="3.12027">
        <ele>745</ele>
        <time>2015-10-21T22:11:18Z</time>
      </trkpt>
      <trkpt lat="44.10919" lon="3.12023">
        <ele>747</ele>
        <time>2015-10-21T22:13:18Z</time>
      </trkpt>
      <trkpt lat="44.10921" lon="3.12019">
        <ele>748</ele>
        <time>2015-10-21T22:15:18Z</time>
      </trkpt>
      <trkpt lat="44.10925" lon="3.12019">
        <ele>749</ele>
        <time>2015-10-21T22:17:18Z</time>
      </trkpt>
      <trkpt lat="44.10929" lon="3.12018">
        <ele>750</ele>
        <time>2015-10-21T22:19:18Z</time>
      </trkpt>
      <trkpt lat="44.10931" lon="3.12016">
        <ele>751</ele>
        <time>2015-10-21T22:21:18Z</time>
      </trkpt>
      <trkpt lat="44.10933" lon="3.1201">
        <ele>752</ele>
        <time>2015-10-21T22:23:18Z</time>
      </trkpt>
      <trkpt lat="44.10938" lon="3.1201">
        <ele>753</ele>
        <time>2015-10-21T22:25:18Z</time>
      </trkpt>
      <trkpt lat="44.10941" lon="3.12013">
        <ele>753</ele>
        <time>2015-10-21T22:27:18Z</time>
      </trkpt>
      <trkpt lat="44.10946" lon="3.12014">
        <ele>753</ele>
        <time>2015-10-21T22:29:18Z</time>
      </trkpt>
      <trkpt lat="44.10948" lon="3.12014">
        <ele>754</ele>
        <time>2015-10-21T22:31:18Z</time>
      </trkpt>
      <trkpt lat="44.10949" lon="3.12009">
        <ele>755</ele>
        <time>2015-10-21T22:33:18Z</time>
      </trkpt>
      <trkpt lat="44.10952" lon="3.12003">
        <ele>757</ele>
        <time>2015-10-21T22:35:18Z</time>
      </trkpt>
      <trkpt lat="44.10953" lon="3.12">
        <ele>758</ele>
        <time>2015-10-21T22:37:18Z</time>
      </trkpt>
      <trkpt lat="44.10956" lon="3.11998">
        <ele>759</ele>
        <time>2015-10-21T22:39:18Z</time>
      </trkpt>
      <trkpt lat="44.1096" lon="3.11998">
        <ele>760</ele>
        <time>2015-10-21T22:41:18Z</time>
      </trkpt>
      <trkpt lat="44.10964" lon="3.11998">
        <ele>760</ele>
        <time>2015-10-21T22:43:18Z</time>
      </trkpt>
      <trkpt lat="44.10971" lon="3.11999">
        <ele>761</ele>
        <time>2015-10-21T22:45:18Z</time>
      </trkpt>
      <trkpt lat="44.10976" lon="3.11997">
        <ele>762</ele>
        <time>2015-10-21T22:47:18Z</time>
      </trkpt>
      <trkpt lat="44.1098" lon="3.11991">
        <ele>764</ele>
        <time>2015-10-21T22:49:18Z</time>
      </trkpt>
      <trkpt lat="44.10985" lon="3.11987">
        <ele>766</ele>
        <time>2015-10-21T22:51:18Z</time>
      </trkpt>
      <trkpt lat="44.10986" lon="3.11986">
        <ele>766</ele>
        <time>2015-10-21T22:53:18Z</time>
      </trkpt>
      <trkpt lat="44.10991" lon="3.11985">
        <ele>767</ele>
        <time>2015-10-21T22:55:18Z</time>
      </trkpt>
      <trkpt lat="44.10992" lon="3.11984">
        <ele>767</ele>
        <time>2015-10-21T22:57:18Z</time>
      </trkpt>
      <trkpt lat="44.10996" lon="3.11976">
        <ele>770</ele>
        <time>2015-10-21T22:59:18Z</time>
      </trkpt>
      <trkpt lat="44.11" lon="3.11973">
        <ele>771</ele>
        <time>2015-10-21T23:01:18Z</time>
      </trkpt>
      <trkpt lat="44.11003" lon="3.11967">
        <ele>772</ele>
        <time>2015-10-21T23:03:18Z</time>
      </trkpt>
      <trkpt lat="44.11006" lon="3.11962">
        <ele>774</ele>
        <time>2015-10-21T23:05:18Z</time>
      </trkpt>
      <trkpt lat="44.1101" lon="3.11956">
        <ele>776</ele>
        <time>2015-10-21T23:07:18Z</time>
      </trkpt>
      <trkpt lat="44.11013" lon="3.11952">
        <ele>777</ele>
        <time>2015-10-21T23:09:18Z</time>
      </trkpt>
      <trkpt lat="44.11016" lon="3.11949">
        <ele>778</ele>
        <time>2015-10-21T23:11:18Z</time>
      </trkpt>
      <trkpt lat="44.1102" lon="3.11942">
        <ele>780</ele>
        <time>2015-10-21T23:13:18Z</time>
      </trkpt>
      <trkpt lat="44.11024" lon="3.11943">
        <ele>781</ele>
        <time>2015-10-21T23:15:18Z</time>
      </trkpt>
      <trkpt lat="44.11031" lon="3.11951">
        <ele>780</ele>
        <time>2015-10-21T23:17:18Z</time>
      </trkpt>
      <trkpt lat="44.11039" lon="3.11964">
        <ele>779</ele>
        <time>2015-10-21T23:19:18Z</time>
      </trkpt>
      <trkpt lat="44.1105" lon="3.11975">
        <ele>779</ele>
        <time>2015-10-21T23:21:18Z</time>
      </trkpt>
      <trkpt lat="44.1106" lon="3.11984">
        <ele>779</ele>
        <time>2015-10-21T23:23:18Z</time>
      </trkpt>
      <trkpt lat="44.11069" lon="3.11992">
        <ele>778</ele>
        <time>2015-10-21T23:25:18Z</time>
      </trkpt>
      <trkpt lat="44.11079" lon="3.12003">
        <ele>777</ele>
        <time>2015-10-21T23:27:18Z</time>
      </trkpt>
      <trkpt lat="44.11093" lon="3.12013">
        <ele>775</ele>
        <time>2015-10-21T23:29:18Z</time>
      </trkpt>
      <trkpt lat="44.11102" lon="3.12021">
        <ele>774</ele>
        <time>2015-10-21T23:31:18Z</time>
      </trkpt>
      <trkpt lat="44.11125" lon="3.12034">
        <ele>772</ele>
        <time>2015-10-21T23:33:18Z</time>
      </trkpt>
      <trkpt lat="44.11133" lon="3.12037">
        <ele>772</ele>
        <time>2015-10-21T23:35:18Z</time>
      </trkpt>
      <trkpt lat="44.11144" lon="3.12038">
        <ele>774</ele>
        <time>2015-10-21T23:37:18Z</time>
      </trkpt>
      <trkpt lat="44.1115" lon="3.12041">
        <ele>774</ele>
        <time>2015-10-21T23:39:18Z</time>
      </trkpt>
      <trkpt lat="44.11158" lon="3.12049">
        <ele>772</ele>
        <time>2015-10-21T23:41:18Z</time>
      </trkpt>
      <trkpt lat="44.11168" lon="3.12062">
        <ele>769</ele>
        <time>2015-10-21T23:43:18Z</time>
      </trkpt>
      <trkpt lat="44.11179" lon="3.12069">
        <ele>769</ele>
        <time>2015-10-21T23:45:18Z</time>
      </trkpt>
      <trkpt lat="44.11194" lon="3.12072">
        <ele>771</ele>
        <time>2015-10-21T23:47:18Z</time>
      </trkpt>
      <trkpt lat="44.11207" lon="3.12073">
        <ele>773</ele>
        <time>2015-10-21T23:49:18Z</time>
      </trkpt>
      <trkpt lat="44.11219" lon="3.12073">
        <ele>776</ele>
        <time>2015-10-21T23:51:18Z</time>
      </trkpt>
      <trkpt lat="44.11227" lon="3.12074">
        <ele>777</ele>
        <time>2015-10-21T23:53:18Z</time>
      </trkpt>
      <trkpt lat="44.11239" lon="3.12077">
        <ele>779</ele>
        <time>2015-10-21T23:55:18Z</time>
      </trkpt>
      <trkpt lat="44.11251" lon="3.12075">
        <ele>782</ele>
        <time>2015-10-21T23:57:18Z</time>
      </trkpt>
      <trkpt lat="44.11256" lon="3.12074">
        <ele>784</ele>
        <time>2015-10-21T23:59:18Z</time>
      </trkpt>
      <trkpt lat="44.11258" lon="3.12074">
        <ele>784</ele>
        <time>2015-10-22T00:01:18Z</time>
      </trkpt>
      <trkpt lat="44.11264" lon="3.12071">
        <ele>787</ele>
        <time>2015-10-22T00:03:18Z</time>
      </trkpt>
      <trkpt lat="44.11268" lon="3.12072">
        <ele>787</ele>
        <time>2015-10-22T00:05:18Z</time>
      </trkpt>
      <trkpt lat="44.1127" lon="3.12072">
        <ele>788</ele>
        <time>2015-10-22T00:07:18Z</time>
      </trkpt>
      <trkpt lat="44.11273" lon="3.12069">
        <ele>790</ele>
        <time>2015-10-22T00:09:18Z</time>
      </trkpt>
      <trkpt lat="44.11274" lon="3.12069">
        <ele>790</ele>
        <time>2015-10-22T00:11:18Z</time>
      </trkpt>
      <trkpt lat="44.11277" lon="3.12069">
        <ele>791</ele>
        <time>2015-10-22T00:13:18Z</time>
      </trkpt>
      <trkpt lat="44.1128" lon="3.12069">
        <ele>791</ele>
        <time>2015-10-22T00:15:18Z</time>
      </trkpt>
      <trkpt lat="44.11285" lon="3.12072">
        <ele>792</ele>
        <time>2015-10-22T00:17:18Z</time>
      </trkpt>
      <trkpt lat="44.11288" lon="3.12077">
        <ele>791</ele>
        <time>2015-10-22T00:19:18Z</time>
      </trkpt>
      <trkpt lat="44.11289" lon="3.12079">
        <ele>791</ele>
        <time>2015-10-22T00:21:18Z</time>
      </trkpt>
      <trkpt lat="44.11293" lon="3.12083">
        <ele>791</ele>
        <time>2015-10-22T00:23:18Z</time>
      </trkpt>
      <trkpt lat="44.11297" lon="3.12083">
        <ele>792</ele>
        <time>2015-10-22T00:25:18Z</time>
      </trkpt>
      <trkpt lat="44.11298" lon="3.12085">
        <ele>792</ele>
        <time>2015-10-22T00:27:18Z</time>
      </trkpt>
      <trkpt lat="44.11303" lon="3.12088">
        <ele>792</ele>
        <time>2015-10-22T00:29:18Z</time>
      </trkpt>
      <trkpt lat="44.11305" lon="3.12089">
        <ele>792</ele>
        <time>2015-10-22T00:31:18Z</time>
      </trkpt>
      <trkpt lat="44.11309" lon="3.1209">
        <ele>793</ele>
        <time>2015-10-22T00:33:18Z</time>
      </trkpt>
      <trkpt lat="44.11314" lon="3.12092">
        <ele>794</ele>
        <time>2015-10-22T00:35:18Z</time>
      </trkpt>
      <trkpt lat="44.11318" lon="3.12094">
        <ele>794</ele>
        <time>2015-10-22T00:37:18Z</time>
      </trkpt>
      <trkpt lat="44.11322" lon="3.12094">
        <ele>795</ele>
        <time>2015-10-22T00:39:18Z</time>
      </trkpt>
      <trkpt lat="44.11325" lon="3.12093">
        <ele>797</ele>
        <time>2015-10-22T00:41:18Z</time>
      </trkpt>
      <trkpt lat="44.11329" lon="3.12095">
        <ele>797</ele>
        <time>2015-10-22T00:43:18Z</time>
      </trkpt>
      <trkpt lat="44.11332" lon="3.12096">
        <ele>798</ele>
        <time>2015-10-22T00:45:18Z</time>
      </trkpt>
      <trkpt lat="44.11337" lon="3.12099">
        <ele>797</ele>
        <time>2015-10-22T00:47:18Z</time>
      </trkpt>
      <trkpt lat="44.11338" lon="3.121">
        <ele>797</ele>
        <time>2015-10-22T00:49:18Z</time>
      </trkpt>
      <trkpt lat="44.11342" lon="3.12101">
        <ele>797</ele>
        <time>2015-10-22T00:51:18Z</time>
      </trkpt>
      <trkpt lat="44.11344" lon="3.12101">
        <ele>797</ele>
        <time>2015-10-22T00:53:18Z</time>
      </trkpt>
      <trkpt lat="44.11348" lon="3.12101">
        <ele>798</ele>
        <time>2015-10-22T00:55:18Z</time>
      </trkpt>
      <trkpt lat="44.11352" lon="3.12101">
        <ele>798</ele>
        <time>2015-10-22T00:57:18Z</time>
      </trkpt>
      <trkpt lat="44.11363" lon="3.12102">
        <ele>799</ele>
        <time>2015-10-22T00:59:18Z</time>
      </trkpt>
      <trkpt lat="44.11367" lon="3.12102">
        <ele>799</ele>
        <time>2015-10-22T01:01:18Z</time>
      </trkpt>
      <trkpt lat="44.1137" lon="3.121">
        <ele>800</ele>
        <time>2015-10-22T01:03:18Z</time>
      </trkpt>
      <trkpt lat="44.11378" lon="3.12101">
        <ele>801</ele>
        <time>2015-10-22T01:05:18Z</time>
      </trkpt>
      <trkpt lat="44.11382" lon="3.12102">
        <ele>801</ele>
        <time>2015-10-22T01:07:18Z</time>
      </trkpt>
      <trkpt lat="44.1139" lon="3.12103">
        <ele>801</ele>
        <time>2015-10-22T01:09:18Z</time>
      </trkpt>
      <trkpt lat="44.11403" lon="3.12101">
        <ele>803</ele>
        <time>2015-10-22T01:11:18Z</time>
      </trkpt>
      <trkpt lat="44.11411" lon="3.12101">
        <ele>804</ele>
        <time>2015-10-22T01:13:18Z</time>
      </trkpt>
      <trkpt lat="44.11415" lon="3.12101">
        <ele>804</ele>
        <time>2015-10-22T01:15:18Z</time>
      </trkpt>
      <trkpt lat="44.11416" lon="3.12101">
        <ele>804</ele>
        <time>2015-10-22T01:17:18Z</time>
      </trkpt>
      <trkpt lat="44.11421" lon="3.121">
        <ele>805</ele>
        <time>2015-10-22T01:19:18Z</time>
      </trkpt>
      <trkpt lat="44.11426" lon="3.12098">
        <ele>806</ele>
        <time>2015-10-22T01:21:18Z</time>
      </trkpt>
      <trkpt lat="44.11433" lon="3.12096">
        <ele>807</ele>
        <time>2015-10-22T01:23:18Z</time>
      </trkpt>
      <trkpt lat="44.11439" lon="3.12093">
        <ele>808</ele>
        <time>2015-10-22T01:25:18Z</time>
      </trkpt>
      <trkpt lat="44.11447" lon="3.12088">
        <ele>810</ele>
        <time>2015-10-22T01:27:18Z</time>
      </trkpt>
      <trkpt lat="44.11452" lon="3.12085">
        <ele>811</ele>
        <time>2015-10-22T01:29:18Z</time>
      </trkpt>
      <trkpt lat="44.11457" lon="3.12079">
        <ele>812</ele>
        <time>2015-10-22T01:31:18Z</time>
      </trkpt>
      <trkpt lat="44.11459" lon="3.12077">
        <ele>813</ele>
        <time>2015-10-22T01:33:18Z</time>
      </trkpt>
      <trkpt lat="44.11465" lon="3.12073">
        <ele>814</ele>
        <time>2015-10-22T01:35:18Z</time>
      </trkpt>
      <trkpt lat="44.1147" lon="3.12069">
        <ele>815</ele>
        <time>2015-10-22T01:37:18Z</time>
      </trkpt>
      <trkpt lat="44.11484" lon="3.12059">
        <ele>818</ele>
        <time>2015-10-22T01:39:18Z</time>
      </trkpt>
      <trkpt lat="44.11491" lon="3.12055">
        <ele>819</ele>
        <time>2015-10-22T01:41:18Z</time>
      </trkpt>
      <trkpt lat="44.11496" lon="3.12052">
        <ele>820</ele>
        <time>2015-10-22T01:43:18Z</time>
      </trkpt>
      <trkpt lat="44.11498" lon="3.12051">
        <ele>820</ele>
        <time>2015-10-22T01:45:18Z</time>
      </trkpt>
      <trkpt lat="44.11506" lon="3.12045">
        <ele>822</ele>
        <time>2015-10-22T01:47:18Z</time>
      </trkpt>
      <trkpt lat="44.11517" lon="3.12041">
        <ele>823</ele>
        <time>2015-10-22T01:49:18Z</time>
      </trkpt>
      <trkpt lat="44.11524" lon="3.12037">
        <ele>824</ele>
        <time>2015-10-22T01:51:18Z</time>
      </trkpt>
      <trkpt lat="44.11532" lon="3.12035">
        <ele>824</ele>
        <time>2015-10-22T01:53:18Z</time>
      </trkpt>
      <trkpt lat="44.11539" lon="3.1203">
        <ele>825</ele>
        <time>2015-10-22T01:55:18Z</time>
      </trkpt>
      <trkpt lat="44.1154" lon="3.12029">
        <ele>825</ele>
        <time>2015-10-22T01:57:18Z</time>
      </trkpt>
      <trkpt lat="44.11546" lon="3.12026">
        <ele>826</ele>
        <time>2015-10-22T01:59:18Z</time>
      </trkpt>
      <trkpt lat="44.11547" lon="3.12025">
        <ele>826</ele>
        <time>2015-10-22T02:01:18Z</time>
      </trkpt>
      <trkpt lat="44.11555" lon="3.12021">
        <ele>826</ele>
        <time>2015-10-22T02:03:18Z</time>
      </trkpt>
      <trkpt lat="44.11563" lon="3.12015">
        <ele>827</ele>
        <time>2015-10-22T02:05:18Z</time>
      </trkpt>
      <trkpt lat="44.11566" lon="3.12013">
        <ele>828</ele>
        <time>2015-10-22T02:07:18Z</time>
      </trkpt>
      <trkpt lat="44.11574" lon="3.12005">
        <ele>829</ele>
        <time>2015-10-22T02:09:18Z</time>
      </trkpt>
      <trkpt lat="44.11579" lon="3.12006">
        <ele>828</ele>
        <time>2015-10-22T02:11:18Z</time>
      </trkpt>
      <trkpt lat="44.11583" lon="3.12007">
        <ele>828</ele>
        <time>2015-10-22T02:13:18Z</time>
      </trkpt>
      <trkpt lat="44.11595" lon="3.12011">
        <ele>828</ele>
        <time>2015-10-22T02:15:18Z</time>
      </trkpt>
      <trkpt lat="44.11598" lon="3.12013">
        <ele>828</ele>
        <time>2015-10-22T02:17:18Z</time>
      </trkpt>
      <trkpt lat="44.11609" lon="3.12017">
        <ele>828</ele>
        <time>2015-10-22T02:19:18Z</time>
      </trkpt>
      <trkpt lat="44.11623" lon="3.1202">
        <ele>828</ele>
        <time>2015-10-22T02:21:18Z</time>
      </trkpt>
      <trkpt lat="44.11628" lon="3.12022">
        <ele>828</ele>
        <time>2015-10-22T02:23:18Z</time>
      </trkpt>
      <trkpt lat="44.11636" lon="3.12023">
        <ele>828</ele>
        <time>2015-10-22T02:25:18Z</time>
      </trkpt>
      <trkpt lat="44.11649" lon="3.1203">
        <ele>827</ele>
        <time>2015-10-22T02:27:18Z</time>
      </trkpt>
      <trkpt lat="44.11659" lon="3.12028">
        <ele>828</ele>
        <time>2015-10-22T02:29:18Z</time>
      </trkpt>
      <trkpt lat="44.11662" lon="3.12026">
        <ele>828</ele>
        <time>2015-10-22T02:31:18Z</time>
      </trkpt>
      <trkpt lat="44.1167" lon="3.1203">
        <ele>828</ele>
        <time>2015-10-22T02:33:18Z</time>
      </trkpt>
      <trkpt lat="44.11678" lon="3.12039">
        <ele>828</ele>
        <time>2015-10-22T02:35:18Z</time>
      </trkpt>
      <trkpt lat="44.11682" lon="3.12043">
        <ele>828</ele>
        <time>2015-10-22T02:37:18Z</time>
      </trkpt>
      <trkpt lat="44.1169" lon="3.12047">
        <ele>828</ele>
        <time>2015-10-22T02:39:18Z</time>
      </trkpt>
      <trkpt lat="44.11698" lon="3.12051">
        <ele>829</ele>
        <time>2015-10-22T02:41:18Z</time>
      </trkpt>
      <trkpt lat="44.11705" lon="3.12054">
        <ele>829</ele>
        <time>2015-10-22T02:43:18Z</time>
      </trkpt>
      <trkpt lat="44.11713" lon="3.12056">
        <ele>830</ele>
        <time>2015-10-22T02:45:18Z</time>
      </trkpt>
      <trkpt lat="44.11724" lon="3.12052">
        <ele>831</ele>
        <time>2015-10-22T02:47:18Z</time>
      </trkpt>
      <trkpt lat="44.1173" lon="3.12052">
        <ele>832</ele>
        <time>2015-10-22T02:49:18Z</time>
      </trkpt>
      <trkpt lat="44.11738" lon="3.12052">
        <ele>832</ele>
        <time>2015-10-22T02:51:18Z</time>
      </trkpt>
      <trkpt lat="44.11748" lon="3.12055">
        <ele>833</ele>
        <time>2015-10-22T02:53:18Z</time>
      </trkpt>
      <trkpt lat="44.11753" lon="3.12056">
        <ele>834</ele>
        <time>2015-10-22T02:55:18Z</time>
      </trkpt>
      <trkpt lat="44.11758" lon="3.12059">
        <ele>834</ele>
        <time>2015-10-22T02:57:18Z</time>
      </trkpt>
      <trkpt lat="44.11769" lon="3.1206">
        <ele>835</ele>
        <time>2015-10-22T02:59:18Z</time>
      </trkpt>
      <trkpt lat="44.11775" lon="3.12056">
        <ele>835</ele>
        <time>2015-10-22T03:01:18Z</time>
      </trkpt>
      <trkpt lat="44.11785" lon="3.12043">
        <ele>835</ele>
        <time>2015-10-22T03:03:18Z</time>
      </trkpt>
      <trkpt lat="44.11802" lon="3.1203">
        <ele>836</ele>
        <time>2015-10-22T03:05:18Z</time>
      </trkpt>
      <trkpt lat="44.11807" lon="3.12026">
        <ele>836</ele>
        <time>2015-10-22T03:07:18Z</time>
      </trkpt>
      <trkpt lat="44.11816" lon="3.12023">
        <ele>837</ele>
        <time>2015-10-22T03:09:18Z</time>
      </trkpt>
      <trkpt lat="44.11835" lon="3.12004">
        <ele>837</ele>
        <time>2015-10-22T03:11:18Z</time>
      </trkpt>
      <trkpt lat="44.11843" lon="3.11996">
        <ele>838</ele>
        <time>2015-10-22T03:13:18Z</time>
      </trkpt>
      <trkpt lat="44.11854" lon="3.11993">
        <ele>838</ele>
        <time>2015-10-22T03:15:18Z</time>
      </trkpt>
      <trkpt lat="44.11862" lon="3.11989">
        <ele>839</ele>
        <time>2015-10-22T03:17:18Z</time>
      </trkpt>
      <trkpt lat="44.11871" lon="3.1198">
        <ele>839</ele>
        <time>2015-10-22T03:19:18Z</time>
      </trkpt>
      <trkpt lat="44.11885" lon="3.11975">
        <ele>840</ele>
        <time>2015-10-22T03:21:18Z</time>
      </trkpt>
      <trkpt lat="44.11896" lon="3.11979">
        <ele>840</ele>
        <time>2015-10-22T03:23:18Z</time>
      </trkpt>
      <trkpt lat="44.11905" lon="3.11985">
        <ele>841</ele>
        <time>2015-10-22T03:25:18Z</time>
      </trkpt>
      <trkpt lat="44.11914" lon="3.11987">
        <ele>841</ele>
        <time>2015-10-22T03:27:18Z</time>
      </trkpt>
      <trkpt lat="44.11926" lon="3.11985">
        <ele>841</ele>
        <time>2015-10-22T03:29:18Z</time>
      </trkpt>
      <trkpt lat="44.11936" lon="3.11972">
        <ele>841</ele>
        <time>2015-10-22T03:31:18Z</time>
      </trkpt>
      <trkpt lat="44.1194" lon="3.11961">
        <ele>840</ele>
        <time>2015-10-22T03:33:18Z</time>
      </trkpt>
      <trkpt lat="44.11948" lon="3.11948">
        <ele>840</ele>
        <time>2015-10-22T03:35:18Z</time>
      </trkpt>
      <trkpt lat="44.11959" lon="3.11943">
        <ele>839</ele>
        <time>2015-10-22T03:37:18Z</time>
      </trkpt>
      <trkpt lat="44.11968" lon="3.11932">
        <ele>839</ele>
        <time>2015-10-22T03:39:18Z</time>
      </trkpt>
      <trkpt lat="44.1197" lon="3.11931">
        <ele>839</ele>
        <time>2015-10-22T03:41:18Z</time>
      </trkpt>
      <trkpt lat="44.11978" lon="3.11928">
        <ele>839</ele>
        <time>2015-10-22T03:43:18Z</time>
      </trkpt>
      <trkpt lat="44.11988" lon="3.11926">
        <ele>838</ele>
        <time>2015-10-22T03:45:18Z</time>
      </trkpt>
      <trkpt lat="44.12" lon="3.11921">
        <ele>838</ele>
        <time>2015-10-22T03:47:18Z</time>
      </trkpt>
      <trkpt lat="44.12002" lon="3.1192">
        <ele>838</ele>
        <time>2015-10-22T03:49:18Z</time>
      </trkpt>
      <trkpt lat="44.12013" lon="3.11918">
        <ele>838</ele>
        <time>2015-10-22T03:51:18Z</time>
      </trkpt>
      <trkpt lat="44.12025" lon="3.11915">
        <ele>837</ele>
        <time>2015-10-22T03:53:18Z</time>
      </trkpt>
      <trkpt lat="44.12039" lon="3.11906">
        <ele>837</ele>
        <time>2015-10-22T03:55:18Z</time>
      </trkpt>
      <trkpt lat="44.12048" lon="3.11877">
        <ele>837</ele>
        <time>2015-10-22T03:57:18Z</time>
      </trkpt>
      <trkpt lat="44.1205" lon="3.11876">
        <ele>837</ele>
        <time>2015-10-22T03:59:18Z</time>
      </trkpt>
      <trkpt lat="44.1206" lon="3.11876">
        <ele>837</ele>
        <time>2015-10-22T04:01:18Z</time>
      </trkpt>
      <trkpt lat="44.12061" lon="3.11874">
        <ele>837</ele>
        <time>2015-10-22T04:03:18Z</time>
      </trkpt>
      <trkpt lat="44.12061" lon="3.1187">
        <ele>837</ele>
        <time>2015-10-22T04:05:18Z</time>
      </trkpt>
      <trkpt lat="44.12063" lon="3.11873">
        <ele>837</ele>
        <time>2015-10-22T04:07:18Z</time>
      </trkpt>
      <trkpt lat="44.12073" lon="3.11876">
        <ele>837</ele>
        <time>2015-10-22T04:09:18Z</time>
      </trkpt>
      <trkpt lat="44.12084" lon="3.11878">
        <ele>836</ele>
        <time>2015-10-22T04:11:18Z</time>
      </trkpt>
      <trkpt lat="44.12091" lon="3.1188">
        <ele>837</ele>
        <time>2015-10-22T04:13:18Z</time>
      </trkpt>
      <trkpt lat="44.12095" lon="3.11883">
        <ele>837</ele>
        <time>2015-10-22T04:15:18Z</time>
      </trkpt>
      <trkpt lat="44.12098" lon="3.11876">
        <ele>837</ele>
        <time>2015-10-22T04:17:18Z</time>
      </trkpt>
      <trkpt lat="44.12101" lon="3.11867">
        <ele>837</ele>
        <time>2015-10-22T04:19:18Z</time>
      </trkpt>
      <trkpt lat="44.121" lon="3.11867">
        <ele>837</ele>
        <time>2015-10-22T04:21:18Z</time>
      </trkpt>
      <trkpt lat="44.12099" lon="3.11865">
        <ele>837</ele>
        <time>2015-10-22T04:23:18Z</time>
      </trkpt>
      <trkpt lat="44.12092" lon="3.11862">
        <ele>837</ele>
        <time>2015-10-22T04:25:18Z</time>
      </trkpt>
      <trkpt lat="44.12092" lon="3.11861">
        <ele>837</ele>
        <time>2015-10-22T04:27:18Z</time>
      </trkpt>
      <trkpt lat="44.1209" lon="3.11861">
        <ele>837</ele>
        <time>2015-10-22T04:29:18Z</time>
      </trkpt>
      <trkpt lat="44.1208" lon="3.11859">
        <ele>837</ele>
        <time>2015-10-22T04:31:18Z</time>
      </trkpt>
      <trkpt lat="44.12077" lon="3.11858">
        <ele>837</ele>
        <time>2015-10-22T04:33:18Z</time>
      </trkpt>
      <trkpt lat="44.12066" lon="3.11856">
        <ele>837</ele>
        <time>2015-10-22T04:35:18Z</time>
      </trkpt>
      <trkpt lat="44.12058" lon="3.11849">
        <ele>837</ele>
        <time>2015-10-22T04:37:18Z</time>
      </trkpt>
      <trkpt lat="44.12051" lon="3.1184">
        <ele>837</ele>
        <time>2015-10-22T04:39:18Z</time>
      </trkpt>
      <trkpt lat="44.12044" lon="3.1183">
        <ele>837</ele>
        <time>2015-10-22T04:41:18Z</time>
      </trkpt>
      <trkpt lat="44.12037" lon="3.11821">
        <ele>838</ele>
        <time>2015-10-22T04:43:18Z</time>
      </trkpt>
      <trkpt lat="44.12029" lon="3.11812">
        <ele>839</ele>
        <time>2015-10-22T04:45:18Z</time>
      </trkpt>
      <trkpt lat="44.12021" lon="3.11804">
        <ele>840</ele>
        <time>2015-10-22T04:47:18Z</time>
      </trkpt>
      <trkpt lat="44.12012" lon="3.11801">
        <ele>840</ele>
        <time>2015-10-22T04:49:18Z</time>
      </trkpt>
      <trkpt lat="44.11992" lon="3.11794">
        <ele>841</ele>
        <time>2015-10-22T04:51:18Z</time>
      </trkpt>
      <trkpt lat="44.11988" lon="3.11793">
        <ele>841</ele>
        <time>2015-10-22T04:53:18Z</time>
      </trkpt>
      <trkpt lat="44.11975" lon="3.11796">
        <ele>842</ele>
        <time>2015-10-22T04:55:18Z</time>
      </trkpt>
      <trkpt lat="44.11958" lon="3.11797">
        <ele>843</ele>
        <time>2015-10-22T04:57:18Z</time>
      </trkpt>
      <trkpt lat="44.11947" lon="3.11803">
        <ele>843</ele>
        <time>2015-10-22T04:59:18Z</time>
      </trkpt>
      <trkpt lat="44.11937" lon="3.11809">
        <ele>843</ele>
        <time>2015-10-22T05:01:18Z</time>
      </trkpt>
      <trkpt lat="44.11925" lon="3.11815">
        <ele>843</ele>
        <time>2015-10-22T05:03:18Z</time>
      </trkpt>
      <trkpt lat="44.11917" lon="3.11818">
        <ele>843</ele>
        <time>2015-10-22T05:05:18Z</time>
      </trkpt>
      <trkpt lat="44.11907" lon="3.11823">
        <ele>843</ele>
        <time>2015-10-22T05:07:18Z</time>
      </trkpt>
      <trkpt lat="44.11895" lon="3.11829">
        <ele>843</ele>
        <time>2015-10-22T05:09:18Z</time>
      </trkpt>
      <trkpt lat="44.11893" lon="3.11829">
        <ele>844</ele>
        <time>2015-10-22T05:11:18Z</time>
      </trkpt>
      <trkpt lat="44.11882" lon="3.11834">
        <ele>844</ele>
        <time>2015-10-22T05:13:18Z</time>
      </trkpt>
      <trkpt lat="44.1188" lon="3.11834">
        <ele>844</ele>
        <time>2015-10-22T05:15:18Z</time>
      </trkpt>
      <trkpt lat="44.11869" lon="3.11837">
        <ele>844</ele>
        <time>2015-10-22T05:17:18Z</time>
      </trkpt>
      <trkpt lat="44.11858" lon="3.11837">
        <ele>845</ele>
        <time>2015-10-22T05:19:18Z</time>
      </trkpt>
      <trkpt lat="44.11848" lon="3.11839">
        <ele>845</ele>
        <time>2015-10-22T05:21:18Z</time>
      </trkpt>
      <trkpt lat="44.11846" lon="3.11838">
        <ele>845</ele>
        <time>2015-10-22T05:23:18Z</time>
      </trkpt>
      <trkpt lat="44.11838" lon="3.11833">
        <ele>846</ele>
        <time>2015-10-22T05:25:18Z</time>
      </trkpt>
      <trkpt lat="44.11836" lon="3.11832">
        <ele>846</ele>
        <time>2015-10-22T05:27:18Z</time>
      </trkpt>
      <trkpt lat="44.11833" lon="3.1183">
        <ele>846</ele>
        <time>2015-10-22T05:29:18Z</time>
      </trkpt>
      <trkpt lat="44.11824" lon="3.11822">
        <ele>847</ele>
        <time>2015-10-22T05:31:18Z</time>
      </trkpt>
      <trkpt lat="44.1182" lon="3.11813">
        <ele>848</ele>
        <time>2015-10-22T05:33:18Z</time>
      </trkpt>
      <trkpt lat="44.11813" lon="3.11803">
        <ele>849</ele>
        <time>2015-10-22T05:35:18Z</time>
      </trkpt>
      <trkpt lat="44.11807" lon="3.11796">
        <ele>850</ele>
        <time>2015-10-22T05:37:18Z</time>
      </trkpt>
      <trkpt lat="44.11802" lon="3.11791">
        <ele>851</ele>
        <time>2015-10-22T05:39:18Z</time>
      </trkpt>
      <trkpt lat="44.11794" lon="3.11785">
        <ele>851</ele>
        <time>2015-10-22T05:41:18Z</time>
      </trkpt>
      <trkpt lat="44.11787" lon="3.11778">
        <ele>852</ele>
        <time>2015-10-22T05:43:18Z</time>
      </trkpt>
      <trkpt lat="44.11786" lon="3.11776">
        <ele>852</ele>
        <time>2015-10-22T05:45:18Z</time>
      </trkpt>
      <trkpt lat="44.1178" lon="3.11767">
        <ele>853</ele>
        <time>2015-10-22T05:47:18Z</time>
      </trkpt>
      <trkpt lat="44.1177" lon="3.11756">
        <ele>854</ele>
        <time>2015-10-22T05:49:18Z</time>
      </trkpt>
      <trkpt lat="44.11762" lon="3.1175">
        <ele>855</ele>
        <time>2015-10-22T05:51:18Z</time>
      </trkpt>
      <trkpt lat="44.11754" lon="3.11748">
        <ele>855</ele>
        <time>2015-10-22T05:53:18Z</time>
      </trkpt>
      <trkpt lat="44.11731" lon="3.11734">
        <ele>856</ele>
        <time>2015-10-22T05:55:18Z</time>
      </trkpt>
      <trkpt lat="44.1173" lon="3.11734">
        <ele>856</ele>
        <time>2015-10-22T05:57:18Z</time>
      </trkpt>
      <trkpt lat="44.1172" lon="3.1173">
        <ele>856</ele>
        <time>2015-10-22T05:59:18Z</time>
      </trkpt>
      <trkpt lat="44.11714" lon="3.11727">
        <ele>856</ele>
        <time>2015-10-22T06:01:18Z</time>
      </trkpt>
      <trkpt lat="44.11711" lon="3.11726">
        <ele>856</ele>
        <time>2015-10-22T06:03:18Z</time>
      </trkpt>
      <trkpt lat="44.11705" lon="3.11723">
        <ele>856</ele>
        <time>2015-10-22T06:05:18Z</time>
      </trkpt>
      <trkpt lat="44.11692" lon="3.11717">
        <ele>857</ele>
        <time>2015-10-22T06:07:18Z</time>
      </trkpt>
      <trkpt lat="44.11681" lon="3.11711">
        <ele>857</ele>
        <time>2015-10-22T06:09:18Z</time>
      </trkpt>
      <trkpt lat="44.11676" lon="3.11709">
        <ele>857</ele>
        <time>2015-10-22T06:11:18Z</time>
      </trkpt>
      <trkpt lat="44.11667" lon="3.11708">
        <ele>858</ele>
        <time>2015-10-22T06:13:18Z</time>
      </trkpt>
      <trkpt lat="44.11666" lon="3.11707">
        <ele>858</ele>
        <time>2015-10-22T06:15:18Z</time>
      </trkpt>
      <trkpt lat="44.11654" lon="3.11706">
        <ele>857</ele>
        <time>2015-10-22T06:17:18Z</time>
      </trkpt>
      <trkpt lat="44.11643" lon="3.11704">
        <ele>857</ele>
        <time>2015-10-22T06:19:18Z</time>
      </trkpt>
      <trkpt lat="44.11637" lon="3.11703">
        <ele>857</ele>
        <time>2015-10-22T06:21:18Z</time>
      </trkpt>
      <trkpt lat="44.11628" lon="3.11705">
        <ele>857</ele>
        <time>2015-10-22T06:23:18Z</time>
      </trkpt>
      <trkpt lat="44.11611" lon="3.11709">
        <ele>856</ele>
        <time>2015-10-22T06:25:18Z</time>
      </trkpt>
      <trkpt lat="44.11596" lon="3.11713">
        <ele>855</ele>
        <time>2015-10-22T06:27:18Z</time>
      </trkpt>
      <trkpt lat="44.11586" lon="3.11713">
        <ele>855</ele>
        <time>2015-10-22T06:29:18Z</time>
      </trkpt>
      <trkpt lat="44.11583" lon="3.11713">
        <ele>855</ele>
        <time>2015-10-22T06:31:18Z</time>
      </trkpt>
      <trkpt lat="44.11572" lon="3.11713">
        <ele>855</ele>
        <time>2015-10-22T06:33:18Z</time>
      </trkpt>
      <trkpt lat="44.11557" lon="3.11711">
        <ele>854</ele>
        <time>2015-10-22T06:35:18Z</time>
      </trkpt>
      <trkpt lat="44.11555" lon="3.1171">
        <ele>854</ele>
        <time>2015-10-22T06:37:18Z</time>
      </trkpt>
      <trkpt lat="44.11542" lon="3.11706">
        <ele>854</ele>
        <time>2015-10-22T06:39:18Z</time>
      </trkpt>
      <trkpt lat="44.11531" lon="3.117">
        <ele>854</ele>
        <time>2015-10-22T06:41:18Z</time>
      </trkpt>
      <trkpt lat="44.1152" lon="3.11694">
        <ele>854</ele>
        <time>2015-10-22T06:43:18Z</time>
      </trkpt>
      <trkpt lat="44.11509" lon="3.1169">
        <ele>853</ele>
        <time>2015-10-22T06:45:18Z</time>
      </trkpt>
      <trkpt lat="44.11495" lon="3.11686">
        <ele>853</ele>
        <time>2015-10-22T06:47:18Z</time>
      </trkpt>
      <trkpt lat="44.11489" lon="3.11684">
        <ele>853</ele>
        <time>2015-10-22T06:49:18Z</time>
      </trkpt>
      <trkpt lat="44.11477" lon="3.11681">
        <ele>852</ele>
        <time>2015-10-22T06:51:18Z</time>
      </trkpt>
      <trkpt lat="44.11465" lon="3.11679">
        <ele>852</ele>
        <time>2015-10-22T06:53:18Z</time>
      </trkpt>
      <trkpt lat="44.11452" lon="3.11674">
        <ele>852</ele>
        <time>2015-10-22T06:55:18Z</time>
      </trkpt>
      <trkpt lat="44.1144" lon="3.11666">
        <ele>852</ele>
        <time>2015-10-22T06:57:18Z</time>
      </trkpt>
      <trkpt lat="44.1143" lon="3.11661">
        <ele>851</ele>
        <time>2015-10-22T06:59:18Z</time>
      </trkpt>
      <trkpt lat="44.11417" lon="3.11657">
        <ele>851</ele>
        <time>2015-10-22T07:01:18Z</time>
      </trkpt>
      <trkpt lat="44.11406" lon="3.11655">
        <ele>850</ele>
        <time>2015-10-22T07:03:18Z</time>
      </trkpt>
      <trkpt lat="44.11395" lon="3.11652">
        <ele>849</ele>
        <time>2015-10-22T07:05:18Z</time>
      </trkpt>
      <trkpt lat="44.11385" lon="3.11649">
        <ele>849</ele>
        <time>2015-10-22T07:07:18Z</time>
      </trkpt>
      <trkpt lat="44.11374" lon="3.11646">
        <ele>848</ele>
        <time>2015-10-22T07:09:18Z</time>
      </trkpt>
      <trkpt lat="44.11361" lon="3.1164">
        <ele>847</ele>
        <time>2015-10-22T07:11:18Z</time>
      </trkpt>
      <trkpt lat="44.1135" lon="3.11636">
        <ele>846</ele>
        <time>2015-10-22T07:13:18Z</time>
      </trkpt>
      <trkpt lat="44.11335" lon="3.1163">
        <ele>845</ele>
        <time>2015-10-22T07:15:18Z</time>
      </trkpt>
      <trkpt lat="44.11319" lon="3.11621">
        <ele>844</ele>
        <time>2015-10-22T07:17:18Z</time>
      </trkpt>
      <trkpt lat="44.11307" lon="3.11618">
        <ele>842</ele>
        <time>2015-10-22T07:19:18Z</time>
      </trkpt>
      <trkpt lat="44.11294" lon="3.11614">
        <ele>841</ele>
        <time>2015-10-22T07:21:18Z</time>
      </trkpt>
      <trkpt lat="44.11283" lon="3.11615">
        <ele>840</ele>
        <time>2015-10-22T07:23:18Z</time>
      </trkpt>
      <trkpt lat="44.11267" lon="3.11614">
        <ele>839</ele>
        <time>2015-10-22T07:25:18Z</time>
      </trkpt>
      <trkpt lat="44.11252" lon="3.11619">
        <ele>837</ele>
        <time>2015-10-22T07:27:18Z</time>
      </trkpt>
      <trkpt lat="44.11243" lon="3.11621">
        <ele>836</ele>
        <time>2015-10-22T07:29:18Z</time>
      </trkpt>
      <trkpt lat="44.11241" lon="3.11621">
        <ele>836</ele>
        <time>2015-10-22T07:31:18Z</time>
      </trkpt>
      <trkpt lat="44.11235" lon="3.11622">
        <ele>835</ele>
        <time>2015-10-22T07:33:18Z</time>
      </trkpt>
      <trkpt lat="44.11223" lon="3.11624">
        <ele>832</ele>
        <time>2015-10-22T07:35:18Z</time>
      </trkpt>
      <trkpt lat="44.11221" lon="3.11625">
        <ele>832</ele>
        <time>2015-10-22T07:37:18Z</time>
      </trkpt>
      <trkpt lat="44.11205" lon="3.11623">
        <ele>830</ele>
        <time>2015-10-22T07:39:18Z</time>
      </trkpt>
      <trkpt lat="44.11195" lon="3.11623">
        <ele>828</ele>
        <time>2015-10-22T07:41:18Z</time>
      </trkpt>
      <trkpt lat="44.11184" lon="3.11621">
        <ele>826</ele>
        <time>2015-10-22T07:43:18Z</time>
      </trkpt>
      <trkpt lat="44.11173" lon="3.11617">
        <ele>824</ele>
        <time>2015-10-22T07:45:18Z</time>
      </trkpt>
      <trkpt lat="44.11162" lon="3.11612">
        <ele>823</ele>
        <time>2015-10-22T07:47:18Z</time>
      </trkpt>
      <trkpt lat="44.11151" lon="3.11606">
        <ele>821</ele>
        <time>2015-10-22T07:49:18Z</time>
      </trkpt>
      <trkpt lat="44.1114" lon="3.11604">
        <ele>820</ele>
        <time>2015-10-22T07:51:18Z</time>
      </trkpt>
      <trkpt lat="44.11124" lon="3.11601">
        <ele>817</ele>
        <time>2015-10-22T07:53:18Z</time>
      </trkpt>
      <trkpt lat="44.11113" lon="3.116">
        <ele>815</ele>
        <time>2015-10-22T07:55:18Z</time>
      </trkpt>
      <trkpt lat="44.111" lon="3.11601">
        <ele>813</ele>
        <time>2015-10-22T07:57:18Z</time>
      </trkpt>
      <trkpt lat="44.11098" lon="3.116">
        <ele>813</ele>
        <time>2015-10-22T07:59:18Z</time>
      </trkpt>
      <trkpt lat="44.11095" lon="3.116">
        <ele>812</ele>
        <time>2015-10-22T08:01:18Z</time>
      </trkpt>
      <trkpt lat="44.11093" lon="3.11599">
        <ele>812</ele>
        <time>2015-10-22T08:03:18Z</time>
      </trkpt>
      <trkpt lat="44.11092" lon="3.11597">
        <ele>812</ele>
        <time>2015-10-22T08:05:18Z</time>
      </trkpt>
      <trkpt lat="44.1109" lon="3.11594">
        <ele>812</ele>
        <time>2015-10-22T08:07:18Z</time>
      </trkpt>
      <trkpt lat="44.1109" lon="3.11589">
        <ele>812</ele>
        <time>2015-10-22T08:09:18Z</time>
      </trkpt>
      <trkpt lat="44.11092" lon="3.11584">
        <ele>812</ele>
        <time>2015-10-22T08:11:18Z</time>
      </trkpt>
      <trkpt lat="44.11099" lon="3.11573">
        <ele>812</ele>
        <time>2015-10-22T08:13:18Z</time>
      </trkpt>
      <trkpt lat="44.11105" lon="3.11563">
        <ele>812</ele>
        <time>2015-10-22T08:15:18Z</time>
      </trkpt>
      <trkpt lat="44.11113" lon="3.1155">
        <ele>812</ele>
        <time>2015-10-22T08:17:18Z</time>
      </trkpt>
      <trkpt lat="44.11119" lon="3.11542">
        <ele>813</ele>
        <time>2015-10-22T08:19:18Z</time>
      </trkpt>
      <trkpt lat="44.11141" lon="3.11509">
        <ele>814</ele>
        <time>2015-10-22T08:21:18Z</time>
      </trkpt>
      <trkpt lat="44.1115" lon="3.11497">
        <ele>815</ele>
        <time>2015-10-22T08:23:18Z</time>
      </trkpt>
      <trkpt lat="44.11157" lon="3.11486">
        <ele>815</ele>
        <time>2015-10-22T08:25:18Z</time>
      </trkpt>
      <trkpt lat="44.11161" lon="3.1148">
        <ele>814</ele>
        <time>2015-10-22T08:27:18Z</time>
      </trkpt>
      <trkpt lat="44.11171" lon="3.11472">
        <ele>815</ele>
        <time>2015-10-22T08:29:18Z</time>
      </trkpt>
      <trkpt lat="44.11181" lon="3.11467">
        <ele>815</ele>
        <time>2015-10-22T08:31:18Z</time>
      </trkpt>
      <trkpt lat="44.11191" lon="3.11463">
        <ele>816</ele>
        <time>2015-10-22T08:33:18Z</time>
      </trkpt>
      <trkpt lat="44.11199" lon="3.11459">
        <ele>817</ele>
        <time>2015-10-22T08:35:18Z</time>
      </trkpt>
      <trkpt lat="44.1121" lon="3.11456">
        <ele>818</ele>
        <time>2015-10-22T08:37:18Z</time>
      </trkpt>
      <trkpt lat="44.11226" lon="3.11452">
        <ele>820</ele>
        <time>2015-10-22T08:39:18Z</time>
      </trkpt>
      <trkpt lat="44.11236" lon="3.1145">
        <ele>821</ele>
        <time>2015-10-22T08:41:18Z</time>
      </trkpt>
      <trkpt lat="44.11247" lon="3.11449">
        <ele>822</ele>
        <time>2015-10-22T08:43:18Z</time>
      </trkpt>
      <trkpt lat="44.11252" lon="3.11447">
        <ele>822</ele>
        <time>2015-10-22T08:45:18Z</time>
      </trkpt>
      <trkpt lat="44.11259" lon="3.11447">
        <ele>823</ele>
        <time>2015-10-22T08:47:18Z</time>
      </trkpt>
      <trkpt lat="44.11274" lon="3.11447">
        <ele>823</ele>
        <time>2015-10-22T08:49:18Z</time>
      </trkpt>
      <trkpt lat="44.11285" lon="3.11448">
        <ele>823</ele>
        <time>2015-10-22T08:51:18Z</time>
      </trkpt>
      <trkpt lat="44.11294" lon="3.11448">
        <ele>823</ele>
        <time>2015-10-22T08:53:18Z</time>
      </trkpt>
      <trkpt lat="44.11304" lon="3.11449">
        <ele>824</ele>
        <time>2015-10-22T08:55:18Z</time>
      </trkpt>
      <trkpt lat="44.11329" lon="3.11444">
        <ele>823</ele>
        <time>2015-10-22T08:57:18Z</time>
      </trkpt>
      <trkpt lat="44.11342" lon="3.11433">
        <ele>822</ele>
        <time>2015-10-22T08:59:18Z</time>
      </trkpt>
      <trkpt lat="44.11347" lon="3.11428">
        <ele>821</ele>
        <time>2015-10-22T09:01:18Z</time>
      </trkpt>
      <trkpt lat="44.11357" lon="3.11416">
        <ele>819</ele>
        <time>2015-10-22T09:03:18Z</time>
      </trkpt>
      <trkpt lat="44.1137" lon="3.11405">
        <ele>818</ele>
        <time>2015-10-22T09:05:18Z</time>
      </trkpt>
      <trkpt lat="44.11379" lon="3.11396">
        <ele>817</ele>
        <time>2015-10-22T09:07:18Z</time>
      </trkpt>
      <trkpt lat="44.11382" lon="3.11392">
        <ele>816</ele>
        <time>2015-10-22T09:09:18Z</time>
      </trkpt>
      <trkpt lat="44.11392" lon="3.1138">
        <ele>814</ele>
        <time>2015-10-22T09:11:18Z</time>
      </trkpt>
      <trkpt lat="44.11404" lon="3.11364">
        <ele>811</ele>
        <time>2015-10-22T09:13:18Z</time>
      </trkpt>
      <trkpt lat="44.11417" lon="3.11355">
        <ele>811</ele>
        <time>2015-10-22T09:15:18Z</time>
      </trkpt>
      <trkpt lat="44.11442" lon="3.1135">
        <ele>813</ele>
        <time>2015-10-22T09:17:18Z</time>
      </trkpt>
      <trkpt lat="44.11449" lon="3.11346">
        <ele>813</ele>
        <time>2015-10-22T09:19:18Z</time>
      </trkpt>
      <trkpt lat="44.11456" lon="3.11341">
        <ele>812</ele>
        <time>2015-10-22T09:21:18Z</time>
      </trkpt>
      <trkpt lat="44.11468" lon="3.11334">
        <ele>813</ele>
        <time>2015-10-22T09:23:18Z</time>
      </trkpt>
      <trkpt lat="44.1148" lon="3.11329">
        <ele>813</ele>
        <time>2015-10-22T09:25:18Z</time>
      </trkpt>
      <trkpt lat="44.11489" lon="3.11326">
        <ele>814</ele>
        <time>2015-10-22T09:27:18Z</time>
      </trkpt>
      <trkpt lat="44.11501" lon="3.11317">
        <ele>814</ele>
        <time>2015-10-22T09:29:18Z</time>
      </trkpt>
      <trkpt lat="44.11507" lon="3.11301">
        <ele>812</ele>
        <time>2015-10-22T09:31:18Z</time>
      </trkpt>
      <trkpt lat="44.11514" lon="3.11287">
        <ele>810</ele>
        <time>2015-10-22T09:33:18Z</time>
      </trkpt>
      <trkpt lat="44.11515" lon="3.11281">
        <ele>809</ele>
        <time>2015-10-22T09:35:18Z</time>
      </trkpt>
      <trkpt lat="44.11508" lon="3.11267">
        <ele>807</ele>
        <time>2015-10-22T09:37:18Z</time>
      </trkpt>
      <trkpt lat="44.11502" lon="3.1126">
        <ele>806</ele>
        <time>2015-10-22T09:39:18Z</time>
      </trkpt>
      <trkpt lat="44.11498" lon="3.11253">
        <ele>804</ele>
        <time>2015-10-22T09:41:18Z</time>
      </trkpt>
      <trkpt lat="44.1149" lon="3.11245">
        <ele>802</ele>
        <time>2015-10-22T09:43:18Z</time>
      </trkpt>
      <trkpt lat="44.11482" lon="3.11238">
        <ele>800</ele>
        <time>2015-10-22T09:45:18Z</time>
      </trkpt>
      <trkpt lat="44.11474" lon="3.11224">
        <ele>798</ele>
        <time>2015-10-22T09:47:18Z</time>
      </trkpt>
      <trkpt lat="44.11474" lon="3.11219">
        <ele>797</ele>
        <time>2015-10-22T09:49:18Z</time>
      </trkpt>
      <trkpt lat="44.11479" lon="3.11195">
        <ele>796</ele>
        <time>2015-10-22T09:51:18Z</time>
      </trkpt>
      <trkpt lat="44.11481" lon="3.1119">
        <ele>795</ele>
        <time>2015-10-22T09:53:18Z</time>
      </trkpt>
      <trkpt lat="44.11484" lon="3.11186">
        <ele>795</ele>
        <time>2015-10-22T09:55:18Z</time>
      </trkpt>
      <trkpt lat="44.11491" lon="3.11169">
        <ele>794</ele>
        <time>2015-10-22T09:57:18Z</time>
      </trkpt>
      <trkpt lat="44.11497" lon="3.11157">
        <ele>795</ele>
        <time>2015-10-22T09:59:18Z</time>
      </trkpt>
      <trkpt lat="44.11501" lon="3.11149">
        <ele>795</ele>
        <time>2015-10-22T10:01:18Z</time>
      </trkpt>
      <trkpt lat="44.11504" lon="3.11134">
        <ele>796</ele>
        <time>2015-10-22T10:03:18Z</time>
      </trkpt>
      <trkpt lat="44.115" lon="3.11119">
        <ele>796</ele>
        <time>2015-10-22T10:05:18Z</time>
      </trkpt>
      <trkpt lat="44.11492" lon="3.11108">
        <ele>796</ele>
        <time>2015-10-22T10:07:18Z</time>
      </trkpt>
      <trkpt lat="44.11484" lon="3.11094">
        <ele>797</ele>
        <time>2015-10-22T10:09:18Z</time>
      </trkpt>
      <trkpt lat="44.11475" lon="3.111">
        <ele>797</ele>
        <time>2015-10-22T10:11:18Z</time>
      </trkpt>
      <trkpt lat="44.11467" lon="3.11107">
        <ele>796</ele>
        <time>2015-10-22T10:13:18Z</time>
      </trkpt>
      <trkpt lat="44.11459" lon="3.11122">
        <ele>795</ele>
        <time>2015-10-22T10:15:18Z</time>
      </trkpt>
      <trkpt lat="44.11456" lon="3.11125">
        <ele>795</ele>
        <time>2015-10-22T10:17:18Z</time>
      </trkpt>
      <trkpt lat="44.11448" lon="3.11129">
        <ele>794</ele>
        <time>2015-10-22T10:19:18Z</time>
      </trkpt>
      <trkpt lat="44.11432" lon="3.11131">
        <ele>794</ele>
        <time>2015-10-22T10:21:18Z</time>
      </trkpt>
      <trkpt lat="44.11427" lon="3.11135">
        <ele>793</ele>
        <time>2015-10-22T10:23:18Z</time>
      </trkpt>
      <trkpt lat="44.11417" lon="3.11134">
        <ele>793</ele>
        <time>2015-10-22T10:25:18Z</time>
      </trkpt>
      <trkpt lat="44.11412" lon="3.11135">
        <ele>792</ele>
        <time>2015-10-22T10:27:18Z</time>
      </trkpt>
      <trkpt lat="44.11404" lon="3.11133">
        <ele>792</ele>
        <time>2015-10-22T10:29:18Z</time>
      </trkpt>
      <trkpt lat="44.11393" lon="3.11132">
        <ele>792</ele>
        <time>2015-10-22T10:31:18Z</time>
      </trkpt>
      <trkpt lat="44.11384" lon="3.11129">
        <ele>792</ele>
        <time>2015-10-22T10:33:18Z</time>
      </trkpt>
      <trkpt lat="44.11369" lon="3.11126">
        <ele>792</ele>
        <time>2015-10-22T10:35:18Z</time>
      </trkpt>
      <trkpt lat="44.1136" lon="3.11121">
        <ele>792</ele>
        <time>2015-10-22T10:37:18Z</time>
      </trkpt>
      <trkpt lat="44.11349" lon="3.11117">
        <ele>792</ele>
        <time>2015-10-22T10:39:18Z</time>
      </trkpt>
      <trkpt lat="44.1134" lon="3.11112">
        <ele>793</ele>
        <time>2015-10-22T10:41:18Z</time>
      </trkpt>
      <trkpt lat="44.11328" lon="3.11104">
        <ele>793</ele>
        <time>2015-10-22T10:43:18Z</time>
      </trkpt>
      <trkpt lat="44.11318" lon="3.111">
        <ele>792</ele>
        <time>2015-10-22T10:45:18Z</time>
      </trkpt>
      <trkpt lat="44.11308" lon="3.11094">
        <ele>792</ele>
        <time>2015-10-22T10:47:18Z</time>
      </trkpt>
      <trkpt lat="44.11302" lon="3.11089">
        <ele>792</ele>
        <time>2015-10-22T10:49:18Z</time>
      </trkpt>
      <trkpt lat="44.11289" lon="3.11081">
        <ele>791</ele>
        <time>2015-10-22T10:51:18Z</time>
      </trkpt>
      <trkpt lat="44.1128" lon="3.11073">
        <ele>791</ele>
        <time>2015-10-22T10:53:18Z</time>
      </trkpt>
      <trkpt lat="44.11267" lon="3.11064">
        <ele>791</ele>
        <time>2015-10-22T10:55:18Z</time>
      </trkpt>
      <trkpt lat="44.11258" lon="3.11054">
        <ele>792</ele>
        <time>2015-10-22T10:57:18Z</time>
      </trkpt>
      <trkpt lat="44.11239" lon="3.11033">
        <ele>793</ele>
        <time>2015-10-22T10:59:18Z</time>
      </trkpt>
      <trkpt lat="44.11231" lon="3.11025">
        <ele>793</ele>
        <time>2015-10-22T11:01:18Z</time>
      </trkpt>
      <trkpt lat="44.1122" lon="3.11014">
        <ele>793</ele>
        <time>2015-10-22T11:03:18Z</time>
      </trkpt>
      <trkpt lat="44.11213" lon="3.11006">
        <ele>794</ele>
        <time>2015-10-22T11:05:18Z</time>
      </trkpt>
      <trkpt lat="44.11204" lon="3.10999">
        <ele>794</ele>
        <time>2015-10-22T11:07:18Z</time>
      </trkpt>
      <trkpt lat="44.11195" lon="3.1099">
        <ele>794</ele>
        <time>2015-10-22T11:09:18Z</time>
      </trkpt>
      <trkpt lat="44.11192" lon="3.10983">
        <ele>795</ele>
        <time>2015-10-22T11:11:18Z</time>
      </trkpt>
      <trkpt lat="44.11186" lon="3.10973">
        <ele>796</ele>
        <time>2015-10-22T11:13:18Z</time>
      </trkpt>
      <trkpt lat="44.11178" lon="3.10965">
        <ele>797</ele>
        <time>2015-10-22T11:15:18Z</time>
      </trkpt>
      <trkpt lat="44.11171" lon="3.10961">
        <ele>796</ele>
        <time>2015-10-22T11:17:18Z</time>
      </trkpt>
      <trkpt lat="44.11158" lon="3.10955">
        <ele>796</ele>
        <time>2015-10-22T11:19:18Z</time>
      </trkpt>
      <trkpt lat="44.11145" lon="3.10951">
        <ele>796</ele>
        <time>2015-10-22T11:21:18Z</time>
      </trkpt>
      <trkpt lat="44.11132" lon="3.10949">
        <ele>795</ele>
        <time>2015-10-22T11:23:18Z</time>
      </trkpt>
      <trkpt lat="44.11121" lon="3.10945">
        <ele>794</ele>
        <time>2015-10-22T11:25:18Z</time>
      </trkpt>
      <trkpt lat="44.11109" lon="3.10939">
        <ele>794</ele>
        <time>2015-10-22T11:27:18Z</time>
      </trkpt>
      <trkpt lat="44.11101" lon="3.10934">
        <ele>794</ele>
        <time>2015-10-22T11:29:18Z</time>
      </trkpt>
      <trkpt lat="44.11094" lon="3.10921">
        <ele>796</ele>
        <time>2015-10-22T11:31:18Z</time>
      </trkpt>
      <trkpt lat="44.11088" lon="3.10911">
        <ele>797</ele>
        <time>2015-10-22T11:33:18Z</time>
      </trkpt>
      <trkpt lat="44.11082" lon="3.109">
        <ele>798</ele>
        <time>2015-10-22T11:35:18Z</time>
      </trkpt>
      <trkpt lat="44.11078" lon="3.10891">
        <ele>799</ele>
        <time>2015-10-22T11:37:18Z</time>
      </trkpt>
      <trkpt lat="44.11074" lon="3.10877">
        <ele>800</ele>
        <time>2015-10-22T11:39:18Z</time>
      </trkpt>
      <trkpt lat="44.11073" lon="3.10864">
        <ele>802</ele>
        <time>2015-10-22T11:41:18Z</time>
      </trkpt>
      <trkpt lat="44.11072" lon="3.10849">
        <ele>804</ele>
        <time>2015-10-22T11:43:18Z</time>
      </trkpt>
      <trkpt lat="44.11072" lon="3.10836">
        <ele>806</ele>
        <time>2015-10-22T11:45:18Z</time>
      </trkpt>
      <trkpt lat="44.11073" lon="3.10828">
        <ele>807</ele>
        <time>2015-10-22T11:47:18Z</time>
      </trkpt>
      <trkpt lat="44.11074" lon="3.10816">
        <ele>809</ele>
        <time>2015-10-22T11:49:18Z</time>
      </trkpt>
      <trkpt lat="44.11075" lon="3.1081">
        <ele>809</ele>
        <time>2015-10-22T11:51:18Z</time>
      </trkpt>
      <trkpt lat="44.11076" lon="3.10802">
        <ele>810</ele>
        <time>2015-10-22T11:53:18Z</time>
      </trkpt>
      <trkpt lat="44.11076" lon="3.10796">
        <ele>811</ele>
        <time>2015-10-22T11:55:18Z</time>
      </trkpt>
      <trkpt lat="44.11078" lon="3.10791">
        <ele>812</ele>
        <time>2015-10-22T11:57:18Z</time>
      </trkpt>
      <trkpt lat="44.11079" lon="3.10784">
        <ele>813</ele>
        <time>2015-10-22T11:59:18Z</time>
      </trkpt>
      <trkpt lat="44.1108" lon="3.10774">
        <ele>814</ele>
        <time>2015-10-22T12:01:18Z</time>
      </trkpt>
      <trkpt lat="44.1108" lon="3.10765">
        <ele>814</ele>
        <time>2015-10-22T12:03:18Z</time>
      </trkpt>
      <trkpt lat="44.11076" lon="3.10765">
        <ele>814</ele>
        <time>2015-10-22T12:05:18Z</time>
      </trkpt>
      <trkpt lat="44.1107" lon="3.10758">
        <ele>814</ele>
        <time>2015-10-22T12:07:18Z</time>
      </trkpt>
      <trkpt lat="44.11069" lon="3.10744">
        <ele>815</ele>
        <time>2015-10-22T12:09:18Z</time>
      </trkpt>
      <trkpt lat="44.11067" lon="3.10736">
        <ele>816</ele>
        <time>2015-10-22T12:11:18Z</time>
      </trkpt>
      <trkpt lat="44.11065" lon="3.10732">
        <ele>816</ele>
        <time>2015-10-22T12:13:18Z</time>
      </trkpt>
      <trkpt lat="44.11064" lon="3.10727">
        <ele>816</ele>
        <time>2015-10-22T12:15:18Z</time>
      </trkpt>
      <trkpt lat="44.11063" lon="3.1072">
        <ele>817</ele>
        <time>2015-10-22T12:17:18Z</time>
      </trkpt>
      <trkpt lat="44.11061" lon="3.10707">
        <ele>818</ele>
        <time>2015-10-22T12:19:18Z</time>
      </trkpt>
      <trkpt lat="44.1106" lon="3.107">
        <ele>819</ele>
        <time>2015-10-22T12:21:18Z</time>
      </trkpt>
      <trkpt lat="44.1106" lon="3.10696">
        <ele>819</ele>
        <time>2015-10-22T12:23:18Z</time>
      </trkpt>
      <trkpt lat="44.11059" lon="3.1069">
        <ele>820</ele>
        <time>2015-10-22T12:25:18Z</time>
      </trkpt>
      <trkpt lat="44.11058" lon="3.10687">
        <ele>820</ele>
        <time>2015-10-22T12:27:18Z</time>
      </trkpt>
      <trkpt lat="44.11057" lon="3.10683">
        <ele>820</ele>
        <time>2015-10-22T12:29:18Z</time>
      </trkpt>
      <trkpt lat="44.11055" lon="3.10681">
        <ele>820</ele>
        <time>2015-10-22T12:31:18Z</time>
      </trkpt>
      <trkpt lat="44.11054" lon="3.10677">
        <ele>821</ele>
        <time>2015-10-22T12:33:18Z</time>
      </trkpt>
      <trkpt lat="44.11053" lon="3.10676">
        <ele>821</ele>
        <time>2015-10-22T12:35:18Z</time>
      </trkpt>
      <trkpt lat="44.11051" lon="3.10677">
        <ele>821</ele>
        <time>2015-10-22T12:37:18Z</time>
      </trkpt>
      <trkpt lat="44.11049" lon="3.10678">
        <ele>820</ele>
        <time>2015-10-22T12:39:18Z</time>
      </trkpt>
      <trkpt lat="44.11047" lon="3.10679">
        <ele>820</ele>
        <time>2015-10-22T12:41:18Z</time>
      </trkpt>
      <trkpt lat="44.11044" lon="3.10681">
        <ele>820</ele>
        <time>2015-10-22T12:43:18Z</time>
      </trkpt>
      <trkpt lat="44.11041" lon="3.10682">
        <ele>819</ele>
        <time>2015-10-22T12:45:18Z</time>
      </trkpt>
      <trkpt lat="44.11033" lon="3.10685">
        <ele>818</ele>
        <time>2015-10-22T12:47:18Z</time>
      </trkpt>
      <trkpt lat="44.11028" lon="3.10683">
        <ele>818</ele>
        <time>2015-10-22T12:49:18Z</time>
      </trkpt>
      <trkpt lat="44.1102" lon="3.10677">
        <ele>818</ele>
        <time>2015-10-22T12:51:18Z</time>
      </trkpt>
      <trkpt lat="44.11014" lon="3.10671">
        <ele>819</ele>
        <time>2015-10-22T12:53:18Z</time>
      </trkpt>
      <trkpt lat="44.1101" lon="3.10664">
        <ele>819</ele>
        <time>2015-10-22T12:55:18Z</time>
      </trkpt>
      <trkpt lat="44.10999" lon="3.10661">
        <ele>818</ele>
        <time>2015-10-22T12:57:18Z</time>
      </trkpt>
      <trkpt lat="44.10992" lon="3.1066">
        <ele>815</ele>
        <time>2015-10-22T12:59:18Z</time>
      </trkpt>
      <trkpt lat="44.10988" lon="3.10652">
        <ele>814</ele>
        <time>2015-10-22T13:01:18Z</time>
      </trkpt>
      <trkpt lat="44.10987" lon="3.10647">
        <ele>814</ele>
        <time>2015-10-22T13:03:18Z</time>
      </trkpt>
      <trkpt lat="44.10987" lon="3.10643">
        <ele>814</ele>
        <time>2015-10-22T13:05:18Z</time>
      </trkpt>
      <trkpt lat="44.10986" lon="3.1064">
        <ele>814</ele>
        <time>2015-10-22T13:07:18Z</time>
      </trkpt>
      <trkpt lat="44.10985" lon="3.10637">
        <ele>814</ele>
        <time>2015-10-22T13:09:18Z</time>
      </trkpt>
      <trkpt lat="44.10984" lon="3.10633">
        <ele>813</ele>
        <time>2015-10-22T13:11:18Z</time>
      </trkpt>
      <trkpt lat="44.10984" lon="3.1063">
        <ele>814</ele>
        <time>2015-10-22T13:13:18Z</time>
      </trkpt>
      <trkpt lat="44.10983" lon="3.10624">
        <ele>814</ele>
        <time>2015-10-22T13:15:18Z</time>
      </trkpt>
      <trkpt lat="44.10983" lon="3.10615">
        <ele>814</ele>
        <time>2015-10-22T13:17:18Z</time>
      </trkpt>
      <trkpt lat="44.10984" lon="3.1061">
        <ele>815</ele>
        <time>2015-10-22T13:19:18Z</time>
      </trkpt>
      <trkpt lat="44.10986" lon="3.10608">
        <ele>816</ele>
        <time>2015-10-22T13:21:18Z</time>
      </trkpt>
      <trkpt lat="44.10989" lon="3.10606">
        <ele>818</ele>
        <time>2015-10-22T13:23:18Z</time>
      </trkpt>
      <trkpt lat="44.1099" lon="3.10602">
        <ele>818</ele>
        <time>2015-10-22T13:25:18Z</time>
      </trkpt>
      <trkpt lat="44.1099" lon="3.10592">
        <ele>819</ele>
        <time>2015-10-22T13:27:18Z</time>
      </trkpt>
      <trkpt lat="44.1099" lon="3.10589">
        <ele>819</ele>
        <time>2015-10-22T13:29:18Z</time>
      </trkpt>
      <trkpt lat="44.10989" lon="3.10575">
        <ele>819</ele>
        <time>2015-10-22T13:31:18Z</time>
      </trkpt>
      <trkpt lat="44.1099" lon="3.10562">
        <ele>820</ele>
        <time>2015-10-22T13:33:18Z</time>
      </trkpt>
      <trkpt lat="44.10993" lon="3.10555">
        <ele>821</ele>
        <time>2015-10-22T13:35:18Z</time>
      </trkpt>
      <trkpt lat="44.10999" lon="3.10551">
        <ele>824</ele>
        <time>2015-10-22T13:37:18Z</time>
      </trkpt>
      <trkpt lat="44.11" lon="3.10542">
        <ele>825</ele>
        <time>2015-10-22T13:39:18Z</time>
      </trkpt>
      <trkpt lat="44.10999" lon="3.10532">
        <ele>824</ele>
        <time>2015-10-22T13:41:18Z</time>
      </trkpt>
      <trkpt lat="44.10998" lon="3.10512">
        <ele>823</ele>
        <time>2015-10-22T13:43:18Z</time>
      </trkpt>
      <trkpt lat="44.11001" lon="3.10474">
        <ele>823</ele>
        <time>2015-10-22T13:45:18Z</time>
      </trkpt>
      <trkpt lat="44.11005" lon="3.10458">
        <ele>822</ele>
        <time>2015-10-22T13:47:18Z</time>
      </trkpt>
      <trkpt lat="44.11012" lon="3.1044">
        <ele>823</ele>
        <time>2015-10-22T13:49:18Z</time>
      </trkpt>
      <trkpt lat="44.11014" lon="3.10426">
        <ele>822</ele>
        <time>2015-10-22T13:51:18Z</time>
      </trkpt>
      <trkpt lat="44.11015" lon="3.1041">
        <ele>823</ele>
        <time>2015-10-22T13:53:18Z</time>
      </trkpt>
      <trkpt lat="44.11016" lon="3.10388">
        <ele>824</ele>
        <time>2015-10-22T13:55:18Z</time>
      </trkpt>
      <trkpt lat="44.11017" lon="3.1038">
        <ele>825</ele>
        <time>2015-10-22T13:57:18Z</time>
      </trkpt>
      <trkpt lat="44.11019" lon="3.10364">
        <ele>826</ele>
        <time>2015-10-22T13:59:18Z</time>
      </trkpt>
      <trkpt lat="44.1102" lon="3.10359">
        <ele>826</ele>
        <time>2015-10-22T14:01:18Z</time>
      </trkpt>
      <trkpt lat="44.11022" lon="3.10343">
        <ele>827</ele>
        <time>2015-10-22T14:03:18Z</time>
      </trkpt>
      <trkpt lat="44.11022" lon="3.10324">
        <ele>827</ele>
        <time>2015-10-22T14:05:18Z</time>
      </trkpt>
      <trkpt lat="44.11022" lon="3.10307">
        <ele>827</ele>
        <time>2015-10-22T14:07:18Z</time>
      </trkpt>
      <trkpt lat="44.11023" lon="3.10292">
        <ele>826</ele>
        <time>2015-10-22T14:09:18Z</time>
      </trkpt>
      <trkpt lat="44.11022" lon="3.10285">
        <ele>826</ele>
        <time>2015-10-22T14:11:18Z</time>
      </trkpt>
      <trkpt lat="44.11021" lon="3.10285">
        <ele>825</ele>
        <time>2015-10-22T14:13:18Z</time>
      </trkpt>
      <trkpt lat="44.11019" lon="3.10275">
        <ele>825</ele>
        <time>2015-10-22T14:15:18Z</time>
      </trkpt>
      <trkpt lat="44.11017" lon="3.1026">
        <ele>824</ele>
        <time>2015-10-22T14:17:18Z</time>
      </trkpt>
      <trkpt lat="44.1102" lon="3.10247">
        <ele>824</ele>
        <time>2015-10-22T14:19:18Z</time>
      </trkpt>
      <trkpt lat="44.1103" lon="3.10247">
        <ele>824</ele>
        <time>2015-10-22T14:21:18Z</time>
      </trkpt>
      <trkpt lat="44.11042" lon="3.10259">
        <ele>826</ele>
        <time>2015-10-22T14:23:18Z</time>
      </trkpt>
      <trkpt lat="44.11048" lon="3.10266">
        <ele>827</ele>
        <time>2015-10-22T14:25:18Z</time>
      </trkpt>
      <trkpt lat="44.11058" lon="3.10271">
        <ele>828</ele>
        <time>2015-10-22T14:27:18Z</time>
      </trkpt>
      <trkpt lat="44.11063" lon="3.10272">
        <ele>829</ele>
        <time>2015-10-22T14:29:18Z</time>
      </trkpt>
      <trkpt lat="44.11073" lon="3.10271">
        <ele>830</ele>
        <time>2015-10-22T14:31:18Z</time>
      </trkpt>
      <trkpt lat="44.11076" lon="3.10276">
        <ele>830</ele>
        <time>2015-10-22T14:33:18Z</time>
      </trkpt>
      <trkpt lat="44.11079" lon="3.10288">
        <ele>832</ele>
        <time>2015-10-22T14:35:18Z</time>
      </trkpt>
      <trkpt lat="44.11082" lon="3.10297">
        <ele>833</ele>
        <time>2015-10-22T14:37:18Z</time>
      </trkpt>
      <trkpt lat="44.11088" lon="3.10322">
        <ele>834</ele>
        <time>2015-10-22T14:39:18Z</time>
      </trkpt>
      <trkpt lat="44.11094" lon="3.10334">
        <ele>834</ele>
        <time>2015-10-22T14:41:18Z</time>
      </trkpt>
      <trkpt lat="44.11099" lon="3.10341">
        <ele>833</ele>
        <time>2015-10-22T14:43:18Z</time>
      </trkpt>
      <trkpt lat="44.11101" lon="3.10351">
        <ele>833</ele>
        <time>2015-10-22T14:45:18Z</time>
      </trkpt>
      <trkpt lat="44.11107" lon="3.10365">
        <ele>832</ele>
        <time>2015-10-22T14:47:18Z</time>
      </trkpt>
      <trkpt lat="44.11116" lon="3.10375">
        <ele>831</ele>
        <time>2015-10-22T14:49:18Z</time>
      </trkpt>
      <trkpt lat="44.11124" lon="3.10387">
        <ele>831</ele>
        <time>2015-10-22T14:51:18Z</time>
      </trkpt>
      <trkpt lat="44.11133" lon="3.104">
        <ele>831</ele>
        <time>2015-10-22T14:53:18Z</time>
      </trkpt>
      <trkpt lat="44.11136" lon="3.10404">
        <ele>831</ele>
        <time>2015-10-22T14:55:18Z</time>
      </trkpt>
      <trkpt lat="44.11144" lon="3.10417">
        <ele>831</ele>
        <time>2015-10-22T14:57:18Z</time>
      </trkpt>
      <trkpt lat="44.11151" lon="3.10424">
        <ele>831</ele>
        <time>2015-10-22T14:59:18Z</time>
      </trkpt>
      <trkpt lat="44.11158" lon="3.10434">
        <ele>830</ele>
        <time>2015-10-22T15:01:18Z</time>
      </trkpt>
      <trkpt lat="44.11162" lon="3.10442">
        <ele>830</ele>
        <time>2015-10-22T15:03:18Z</time>
      </trkpt>
      <trkpt lat="44.11165" lon="3.10448">
        <ele>830</ele>
        <time>2015-10-22T15:05:18Z</time>
      </trkpt>
      <trkpt lat="44.11172" lon="3.1044">
        <ele>829</ele>
        <time>2015-10-22T15:07:18Z</time>
      </trkpt>
      <trkpt lat="44.11174" lon="3.10439">
        <ele>828</ele>
        <time>2015-10-22T15:09:18Z</time>
      </trkpt>
      <trkpt lat="44.11184" lon="3.10433">
        <ele>827</ele>
        <time>2015-10-22T15:11:18Z</time>
      </trkpt>
      <trkpt lat="44.11191" lon="3.10429">
        <ele>825</ele>
        <time>2015-10-22T15:13:18Z</time>
      </trkpt>
      <trkpt lat="44.11196" lon="3.1043">
        <ele>825</ele>
        <time>2015-10-22T15:15:18Z</time>
      </trkpt>
      <trkpt lat="44.11209" lon="3.10428">
        <ele>823</ele>
        <time>2015-10-22T15:17:18Z</time>
      </trkpt>
      <trkpt lat="44.11218" lon="3.10423">
        <ele>821</ele>
        <time>2015-10-22T15:19:18Z</time>
      </trkpt>
      <trkpt lat="44.11231" lon="3.10414">
        <ele>818</ele>
        <time>2015-10-22T15:21:18Z</time>
      </trkpt>
      <trkpt lat="44.11235" lon="3.10409">
        <ele>816</ele>
        <time>2015-10-22T15:23:18Z</time>
      </trkpt>
      <trkpt lat="44.11246" lon="3.10399">
        <ele>811</ele>
        <time>2015-10-22T15:25:18Z</time>
      </trkpt>
      <trkpt lat="44.11248" lon="3.10397">
        <ele>810</ele>
        <time>2015-10-22T15:27:18Z</time>
      </trkpt>
      <trkpt lat="44.1125" lon="3.10391">
        <ele>808</ele>
        <time>2015-10-22T15:29:18Z</time>
      </trkpt>
      <trkpt lat="44.1125" lon="3.10388">
        <ele>807</ele>
        <time>2015-10-22T15:31:18Z</time>
      </trkpt>
      <trkpt lat="44.11251" lon="3.10383">
        <ele>806</ele>
        <time>2015-10-22T15:33:18Z</time>
      </trkpt>
      <trkpt lat="44.11251" lon="3.1038">
        <ele>805</ele>
        <time>2015-10-22T15:35:18Z</time>
      </trkpt>
      <trkpt lat="44.11253" lon="3.10377">
        <ele>804</ele>
        <time>2015-10-22T15:37:18Z</time>
      </trkpt>
      <trkpt lat="44.11254" lon="3.10376">
        <ele>803</ele>
        <time>2015-10-22T15:39:18Z</time>
      </trkpt>
      <trkpt lat="44.11256" lon="3.10371">
        <ele>802</ele>
        <time>2015-10-22T15:41:18Z</time>
      </trkpt>
      <trkpt lat="44.11258" lon="3.10369">
        <ele>801</ele>
        <time>2015-10-22T15:43:18Z</time>
      </trkpt>
      <trkpt lat="44.11259" lon="3.10367">
        <ele>800</ele>
        <time>2015-10-22T15:45:18Z</time>
      </trkpt>
      <trkpt lat="44.1126" lon="3.10367">
        <ele>800</ele>
        <time>2015-10-22T15:47:18Z</time>
      </trkpt>
      <trkpt lat="44.11261" lon="3.10366">
        <ele>799</ele>
        <time>2015-10-22T15:49:18Z</time>
      </trkpt>
      <trkpt lat="44.11255" lon="3.10361">
        <ele>799</ele>
        <time>2015-10-22T15:51:18Z</time>
      </trkpt>
      <trkpt lat="44.11254" lon="3.10357">
        <ele>798</ele>
        <time>2015-10-22T15:53:18Z</time>
      </trkpt>
      <trkpt lat="44.11259" lon="3.10357">
        <ele>797</ele>
        <time>2015-10-22T15:55:18Z</time>
      </trkpt>
      <trkpt lat="44.11267" lon="3.10358">
        <ele>796</ele>
        <time>2015-10-22T15:57:18Z</time>
      </trkpt>
      <trkpt lat="44.11269" lon="3.10354">
        <ele>795</ele>
        <time>2015-10-22T15:59:18Z</time>
      </trkpt>
      <trkpt lat="44.11271" lon="3.10352">
        <ele>794</ele>
        <time>2015-10-22T16:01:18Z</time>
      </trkpt>
      <trkpt lat="44.11273" lon="3.1035">
        <ele>793</ele>
        <time>2015-10-22T16:03:18Z</time>
      </trkpt>
      <trkpt lat="44.11273" lon="3.10348">
        <ele>793</ele>
        <time>2015-10-22T16:05:18Z</time>
      </trkpt>
      <trkpt lat="44.11279" lon="3.10345">
        <ele>791</ele>
        <time>2015-10-22T16:07:18Z</time>
      </trkpt>
      <trkpt lat="44.11284" lon="3.10345">
        <ele>790</ele>
        <time>2015-10-22T16:09:18Z</time>
      </trkpt>
      <trkpt lat="44.11286" lon="3.10342">
        <ele>789</ele>
        <time>2015-10-22T16:11:18Z</time>
      </trkpt>
      <trkpt lat="44.11284" lon="3.10339">
        <ele>788</ele>
        <time>2015-10-22T16:13:18Z</time>
      </trkpt>
      <trkpt lat="44.11279" lon="3.10332">
        <ele>787</ele>
        <time>2015-10-22T16:15:18Z</time>
      </trkpt>
      <trkpt lat="44.11273" lon="3.10327">
        <ele>786</ele>
        <time>2015-10-22T16:17:18Z</time>
      </trkpt>
      <trkpt lat="44.11266" lon="3.10324">
        <ele>786</ele>
        <time>2015-10-22T16:19:18Z</time>
      </trkpt>
      <trkpt lat="44.11262" lon="3.10321">
        <ele>785</ele>
        <time>2015-10-22T16:21:18Z</time>
      </trkpt>
      <trkpt lat="44.11264" lon="3.10319">
        <ele>784</ele>
        <time>2015-10-22T16:23:18Z</time>
      </trkpt>
      <trkpt lat="44.11271" lon="3.10321">
        <ele>784</ele>
        <time>2015-10-22T16:25:18Z</time>
      </trkpt>
      <trkpt lat="44.11276" lon="3.10321">
        <ele>783</ele>
        <time>2015-10-22T16:27:18Z</time>
      </trkpt>
      <trkpt lat="44.11277" lon="3.1032">
        <ele>783</ele>
        <time>2015-10-22T16:29:18Z</time>
      </trkpt>
      <trkpt lat="44.1128" lon="3.10318">
        <ele>781</ele>
        <time>2015-10-22T16:31:18Z</time>
      </trkpt>
      <trkpt lat="44.11274" lon="3.10312">
        <ele>780</ele>
        <time>2015-10-22T16:33:18Z</time>
      </trkpt>
      <trkpt lat="44.11272" lon="3.10309">
        <ele>779</ele>
        <time>2015-10-22T16:35:18Z</time>
      </trkpt>
      <trkpt lat="44.11273" lon="3.10306">
        <ele>778</ele>
        <time>2015-10-22T16:37:18Z</time>
      </trkpt>
      <trkpt lat="44.11279" lon="3.10303">
        <ele>776</ele>
        <time>2015-10-22T16:39:18Z</time>
      </trkpt>
      <trkpt lat="44.11291" lon="3.10301">
        <ele>773</ele>
        <time>2015-10-22T16:41:18Z</time>
      </trkpt>
      <trkpt lat="44.11292" lon="3.103">
        <ele>773</ele>
        <time>2015-10-22T16:43:18Z</time>
      </trkpt>
      <trkpt lat="44.11289" lon="3.10294">
        <ele>771</ele>
        <time>2015-10-22T16:45:18Z</time>
      </trkpt>
      <trkpt lat="44.11287" lon="3.10292">
        <ele>770</ele>
        <time>2015-10-22T16:47:18Z</time>
      </trkpt>
      <trkpt lat="44.11283" lon="3.10288">
        <ele>769</ele>
        <time>2015-10-22T16:49:18Z</time>
      </trkpt>
      <trkpt lat="44.11276" lon="3.10285">
        <ele>769</ele>
        <time>2015-10-22T16:51:18Z</time>
      </trkpt>
      <trkpt lat="44.11274" lon="3.10285">
        <ele>770</ele>
        <time>2015-10-22T16:53:18Z</time>
      </trkpt>
      <trkpt lat="44.11271" lon="3.10285">
        <ele>770</ele>
        <time>2015-10-22T16:55:18Z</time>
      </trkpt>
      <trkpt lat="44.1127" lon="3.10285">
        <ele>770</ele>
        <time>2015-10-22T16:57:18Z</time>
      </trkpt>
      <trkpt lat="44.11263" lon="3.10278">
        <ele>769</ele>
        <time>2015-10-22T16:59:18Z</time>
      </trkpt>
      <trkpt lat="44.11262" lon="3.10277">
        <ele>768</ele>
        <time>2015-10-22T17:01:18Z</time>
      </trkpt>
      <trkpt lat="44.11264" lon="3.10271">
        <ele>766</ele>
        <time>2015-10-22T17:03:18Z</time>
      </trkpt>
      <trkpt lat="44.11266" lon="3.10267">
        <ele>764</ele>
        <time>2015-10-22T17:05:18Z</time>
      </trkpt>
      <trkpt lat="44.11271" lon="3.10266">
        <ele>763</ele>
        <time>2015-10-22T17:07:18Z</time>
      </trkpt>
      <trkpt lat="44.11273" lon="3.10266">
        <ele>763</ele>
        <time>2015-10-22T17:09:18Z</time>
      </trkpt>
      <trkpt lat="44.11276" lon="3.10265">
        <ele>762</ele>
        <time>2015-10-22T17:11:18Z</time>
      </trkpt>
      <trkpt lat="44.11277" lon="3.10256">
        <ele>758</ele>
        <time>2015-10-22T17:13:18Z</time>
      </trkpt>
      <trkpt lat="44.11276" lon="3.10246">
        <ele>755</ele>
        <time>2015-10-22T17:15:18Z</time>
      </trkpt>
      <trkpt lat="44.11276" lon="3.10241">
        <ele>753</ele>
        <time>2015-10-22T17:17:18Z</time>
      </trkpt>
      <trkpt lat="44.11282" lon="3.10239">
        <ele>752</ele>
        <time>2015-10-22T17:19:18Z</time>
      </trkpt>
      <trkpt lat="44.11289" lon="3.10234">
        <ele>749</ele>
        <time>2015-10-22T17:21:18Z</time>
      </trkpt>
      <trkpt lat="44.11288" lon="3.10228">
        <ele>747</ele>
        <time>2015-10-22T17:23:18Z</time>
      </trkpt>
      <trkpt lat="44.11289" lon="3.10227">
        <ele>747</ele>
        <time>2015-10-22T17:25:18Z</time>
      </trkpt>
      <trkpt lat="44.11296" lon="3.10224">
        <ele>744</ele>
        <time>2015-10-22T17:27:18Z</time>
      </trkpt>
      <trkpt lat="44.11304" lon="3.10222">
        <ele>742</ele>
        <time>2015-10-22T17:29:18Z</time>
      </trkpt>
      <trkpt lat="44.11304" lon="3.10221">
        <ele>741</ele>
        <time>2015-10-22T17:31:18Z</time>
      </trkpt>
      <trkpt lat="44.11301" lon="3.10218">
        <ele>741</ele>
        <time>2015-10-22T17:33:18Z</time>
      </trkpt>
      <trkpt lat="44.11297" lon="3.10206">
        <ele>738</ele>
        <time>2015-10-22T17:35:18Z</time>
      </trkpt>
      <trkpt lat="44.11295" lon="3.10199">
        <ele>736</ele>
        <time>2015-10-22T17:37:18Z</time>
      </trkpt>
      <trkpt lat="44.11291" lon="3.10191">
        <ele>735</ele>
        <time>2015-10-22T17:39:18Z</time>
      </trkpt>
      <trkpt lat="44.11289" lon="3.10187">
        <ele>734</ele>
        <time>2015-10-22T17:41:18Z</time>
      </trkpt>
      <trkpt lat="44.1129" lon="3.10184">
        <ele>733</ele>
        <time>2015-10-22T17:43:18Z</time>
      </trkpt>
      <trkpt lat="44.1129" lon="3.1018">
        <ele>731</ele>
        <time>2015-10-22T17:45:18Z</time>
      </trkpt>
      <trkpt lat="44.11291" lon="3.10174">
        <ele>729</ele>
        <time>2015-10-22T17:47:18Z</time>
      </trkpt>
      <trkpt lat="44.11293" lon="3.10175">
        <ele>729</ele>
        <time>2015-10-22T17:49:18Z</time>
      </trkpt>
      <trkpt lat="44.11297" lon="3.10176">
        <ele>728</ele>
        <time>2015-10-22T17:51:18Z</time>
      </trkpt>
      <trkpt lat="44.11305" lon="3.10174">
        <ele>724</ele>
        <time>2015-10-22T17:53:18Z</time>
      </trkpt>
      <trkpt lat="44.11308" lon="3.10172">
        <ele>722</ele>
        <time>2015-10-22T17:55:18Z</time>
      </trkpt>
      <trkpt lat="44.11312" lon="3.10167">
        <ele>719</ele>
        <time>2015-10-22T17:57:18Z</time>
      </trkpt>
      <trkpt lat="44.11314" lon="3.10164">
        <ele>717</ele>
        <time>2015-10-22T17:59:18Z</time>
      </trkpt>
      <trkpt lat="44.11309" lon="3.10162">
        <ele>718</ele>
        <time>2015-10-22T18:01:18Z</time>
      </trkpt>
      <trkpt lat="44.11304" lon="3.10162">
        <ele>720</ele>
        <time>2015-10-22T18:03:18Z</time>
      </trkpt>
      <trkpt lat="44.11303" lon="3.10162">
        <ele>720</ele>
        <time>2015-10-22T18:05:18Z</time>
      </trkpt>
      <trkpt lat="44.11299" lon="3.10153">
        <ele>718</ele>
        <time>2015-10-22T18:07:18Z</time>
      </trkpt>
      <trkpt lat="44.11297" lon="3.10151">
        <ele>719</ele>
        <time>2015-10-22T18:09:18Z</time>
      </trkpt>
      <trkpt lat="44.11298" lon="3.10145">
        <ele>716</ele>
        <time>2015-10-22T18:11:18Z</time>
      </trkpt>
      <trkpt lat="44.11299" lon="3.10141">
        <ele>714</ele>
        <time>2015-10-22T18:13:18Z</time>
      </trkpt>
      <trkpt lat="44.11299" lon="3.10139">
        <ele>713</ele>
        <time>2015-10-22T18:15:18Z</time>
      </trkpt>
      <trkpt lat="44.11303" lon="3.10137">
        <ele>711</ele>
        <time>2015-10-22T18:17:18Z</time>
      </trkpt>
      <trkpt lat="44.11307" lon="3.10133">
        <ele>707</ele>
        <time>2015-10-22T18:19:18Z</time>
      </trkpt>
      <trkpt lat="44.1131" lon="3.10137">
        <ele>707</ele>
        <time>2015-10-22T18:21:18Z</time>
      </trkpt>
      <trkpt lat="44.11314" lon="3.10135">
        <ele>705</ele>
        <time>2015-10-22T18:23:18Z</time>
      </trkpt>
      <trkpt lat="44.11315" lon="3.10129">
        <ele>702</ele>
        <time>2015-10-22T18:25:18Z</time>
      </trkpt>
      <trkpt lat="44.11315" lon="3.10128">
        <ele>701</ele>
        <time>2015-10-22T18:27:18Z</time>
      </trkpt>
      <trkpt lat="44.11322" lon="3.10125">
        <ele>696</ele>
        <time>2015-10-22T18:29:18Z</time>
      </trkpt>
      <trkpt lat="44.11325" lon="3.10125">
        <ele>695</ele>
        <time>2015-10-22T18:31:18Z</time>
      </trkpt>
      <trkpt lat="44.11329" lon="3.10122">
        <ele>691</ele>
        <time>2015-10-22T18:33:18Z</time>
      </trkpt>
      <trkpt lat="44.11335" lon="3.10116">
        <ele>686</ele>
        <time>2015-10-22T18:35:18Z</time>
      </trkpt>
      <trkpt lat="44.11339" lon="3.10118">
        <ele>686</ele>
        <time>2015-10-22T18:37:18Z</time>
      </trkpt>
      <trkpt lat="44.11341" lon="3.10121">
        <ele>686</ele>
        <time>2015-10-22T18:39:18Z</time>
      </trkpt>
      <trkpt lat="44.11343" lon="3.10124">
        <ele>687</ele>
        <time>2015-10-22T18:41:18Z</time>
      </trkpt>
      <trkpt lat="44.11344" lon="3.10124">
        <ele>687</ele>
        <time>2015-10-22T18:43:18Z</time>
      </trkpt>
      <trkpt lat="44.11351" lon="3.10123">
        <ele>684</ele>
        <time>2015-10-22T18:45:18Z</time>
      </trkpt>
      <trkpt lat="44.11352" lon="3.10124">
        <ele>685</ele>
        <time>2015-10-22T18:47:18Z</time>
      </trkpt>
      <trkpt lat="44.11354" lon="3.10125">
        <ele>685</ele>
        <time>2015-10-22T18:49:18Z</time>
      </trkpt>
      <trkpt lat="44.11355" lon="3.10127">
        <ele>685</ele>
        <time>2015-10-22T18:51:18Z</time>
      </trkpt>
      <trkpt lat="44.11359" lon="3.10129">
        <ele>685</ele>
        <time>2015-10-22T18:53:18Z</time>
      </trkpt>
      <trkpt lat="44.1136" lon="3.10132">
        <ele>686</ele>
        <time>2015-10-22T18:55:18Z</time>
      </trkpt>
      <trkpt lat="44.11361" lon="3.10134">
        <ele>687</ele>
        <time>2015-10-22T18:57:18Z</time>
      </trkpt>
      <trkpt lat="44.11364" lon="3.10135">
        <ele>686</ele>
        <time>2015-10-22T18:59:18Z</time>
      </trkpt>
      <trkpt lat="44.11367" lon="3.10138">
        <ele>687</ele>
        <time>2015-10-22T19:01:18Z</time>
      </trkpt>
      <trkpt lat="44.11368" lon="3.10142">
        <ele>688</ele>
        <time>2015-10-22T19:03:18Z</time>
      </trkpt>
      <trkpt lat="44.11369" lon="3.10145">
        <ele>689</ele>
        <time>2015-10-22T19:05:18Z</time>
      </trkpt>
      <trkpt lat="44.11369" lon="3.10146">
        <ele>690</ele>
        <time>2015-10-22T19:07:18Z</time>
      </trkpt>
      <trkpt lat="44.11374" lon="3.10145">
        <ele>688</ele>
        <time>2015-10-22T19:09:18Z</time>
      </trkpt>
      <trkpt lat="44.11379" lon="3.10149">
        <ele>688</ele>
        <time>2015-10-22T19:11:18Z</time>
      </trkpt>
      <trkpt lat="44.11382" lon="3.10153">
        <ele>689</ele>
        <time>2015-10-22T19:13:18Z</time>
      </trkpt>
      <trkpt lat="44.1139" lon="3.10156">
        <ele>688</ele>
        <time>2015-10-22T19:15:18Z</time>
      </trkpt>
      <trkpt lat="44.11399" lon="3.10162">
        <ele>688</ele>
        <time>2015-10-22T19:17:18Z</time>
      </trkpt>
      <trkpt lat="44.11403" lon="3.10162">
        <ele>687</ele>
        <time>2015-10-22T19:19:18Z</time>
      </trkpt>
      <trkpt lat="44.11407" lon="3.10166">
        <ele>688</ele>
        <time>2015-10-22T19:21:18Z</time>
      </trkpt>
      <trkpt lat="44.11409" lon="3.1017">
        <ele>689</ele>
        <time>2015-10-22T19:23:18Z</time>
      </trkpt>
      <trkpt lat="44.11417" lon="3.10177">
        <ele>690</ele>
        <time>2015-10-22T19:25:18Z</time>
      </trkpt>
      <trkpt lat="44.11419" lon="3.10181">
        <ele>692</ele>
        <time>2015-10-22T19:27:18Z</time>
      </trkpt>
      <trkpt lat="44.1142" lon="3.10182">
        <ele>692</ele>
        <time>2015-10-22T19:29:18Z</time>
      </trkpt>
      <trkpt lat="44.11422" lon="3.10185">
        <ele>692</ele>
        <time>2015-10-22T19:31:18Z</time>
      </trkpt>
      <trkpt lat="44.11425" lon="3.10189">
        <ele>693</ele>
        <time>2015-10-22T19:33:18Z</time>
      </trkpt>
      <trkpt lat="44.11428" lon="3.10196">
        <ele>695</ele>
        <time>2015-10-22T19:35:18Z</time>
      </trkpt>
      <trkpt lat="44.11428" lon="3.10203">
        <ele>699</ele>
        <time>2015-10-22T19:37:18Z</time>
      </trkpt>
      <trkpt lat="44.11427" lon="3.10204">
        <ele>700</ele>
        <time>2015-10-22T19:39:18Z</time>
      </trkpt>
      <trkpt lat="44.11431" lon="3.10204">
        <ele>698</ele>
        <time>2015-10-22T19:41:18Z</time>
      </trkpt>
      <trkpt lat="44.1143" lon="3.10213">
        <ele>703</ele>
        <time>2015-10-22T19:43:18Z</time>
      </trkpt>
      <trkpt lat="44.11427" lon="3.10217">
        <ele>706</ele>
        <time>2015-10-22T19:45:18Z</time>
      </trkpt>
      <trkpt lat="44.1143" lon="3.10218">
        <ele>705</ele>
        <time>2015-10-22T19:47:18Z</time>
      </trkpt>
      <trkpt lat="44.11434" lon="3.10223">
        <ele>706</ele>
        <time>2015-10-22T19:49:18Z</time>
      </trkpt>
      <trkpt lat="44.11434" lon="3.1022">
        <ele>704</ele>
        <time>2015-10-22T19:51:18Z</time>
      </trkpt>
      <trkpt lat="44.11438" lon="3.1021">
        <ele>697</ele>
        <time>2015-10-22T19:53:18Z</time>
      </trkpt>
      <trkpt lat="44.11445" lon="3.10212">
        <ele>695</ele>
        <time>2015-10-22T19:55:18Z</time>
      </trkpt>
      <trkpt lat="44.11449" lon="3.10215">
        <ele>694</ele>
        <time>2015-10-22T19:57:18Z</time>
      </trkpt>
      <trkpt lat="44.11458" lon="3.10222">
        <ele>693</ele>
        <time>2015-10-22T19:59:18Z</time>
      </trkpt>
      <trkpt lat="44.11461" lon="3.10224">
        <ele>693</ele>
        <time>2015-10-22T20:01:18Z</time>
      </trkpt>
      <trkpt lat="44.11465" lon="3.10224">
        <ele>691</ele>
        <time>2015-10-22T20:03:18Z</time>
      </trkpt>
      <trkpt lat="44.11468" lon="3.10224">
        <ele>689</ele>
        <time>2015-10-22T20:05:18Z</time>
      </trkpt>
      <trkpt lat="44.11474" lon="3.10225">
        <ele>686</ele>
        <time>2015-10-22T20:07:18Z</time>
      </trkpt>
      <trkpt lat="44.11482" lon="3.10232">
        <ele>685</ele>
        <time>2015-10-22T20:09:18Z</time>
      </trkpt>
      <trkpt lat="44.11489" lon="3.10235">
        <ele>683</ele>
        <time>2015-10-22T20:11:18Z</time>
      </trkpt>
      <trkpt lat="44.1149" lon="3.10236">
        <ele>683</ele>
        <time>2015-10-22T20:13:18Z</time>
      </trkpt>
      <trkpt lat="44.11493" lon="3.10237">
        <ele>682</ele>
        <time>2015-10-22T20:15:18Z</time>
      </trkpt>
      <trkpt lat="44.115" lon="3.10237">
        <ele>678</ele>
        <time>2015-10-22T20:17:18Z</time>
      </trkpt>
      <trkpt lat="44.11506" lon="3.10235">
        <ele>674</ele>
        <time>2015-10-22T20:19:18Z</time>
      </trkpt>
      <trkpt lat="44.11508" lon="3.10235">
        <ele>673</ele>
        <time>2015-10-22T20:21:18Z</time>
      </trkpt>
      <trkpt lat="44.11516" lon="3.10237">
        <ele>670</ele>
        <time>2015-10-22T20:23:18Z</time>
      </trkpt>
      <trkpt lat="44.11516" lon="3.10237">
        <ele>670</ele>
        <time>2015-10-22T20:25:18Z</time>
      </trkpt>
      <trkpt lat="44.11521" lon="3.10235">
        <ele>667</ele>
        <time>2015-10-22T20:27:18Z</time>
      </trkpt>
      <trkpt lat="44.11523" lon="3.10234">
        <ele>666</ele>
        <time>2015-10-22T20:29:18Z</time>
      </trkpt>
      <trkpt lat="44.11531" lon="3.10235">
        <ele>662</ele>
        <time>2015-10-22T20:31:18Z</time>
      </trkpt>
      <trkpt lat="44.11532" lon="3.10235">
        <ele>662</ele>
        <time>2015-10-22T20:33:18Z</time>
      </trkpt>
      <trkpt lat="44.11537" lon="3.10235">
        <ele>660</ele>
        <time>2015-10-22T20:35:18Z</time>
      </trkpt>
      <trkpt lat="44.11538" lon="3.10233">
        <ele>658</ele>
        <time>2015-10-22T20:37:18Z</time>
      </trkpt>
      <trkpt lat="44.1154" lon="3.1023">
        <ele>656</ele>
        <time>2015-10-22T20:39:18Z</time>
      </trkpt>
      <trkpt lat="44.1154" lon="3.10221">
        <ele>653</ele>
        <time>2015-10-22T20:41:18Z</time>
      </trkpt>
      <trkpt lat="44.11543" lon="3.10211">
        <ele>648</ele>
        <time>2015-10-22T20:43:18Z</time>
      </trkpt>
      <trkpt lat="44.11547" lon="3.10208">
        <ele>645</ele>
        <time>2015-10-22T20:45:18Z</time>
      </trkpt>
      <trkpt lat="44.11552" lon="3.10202">
        <ele>640</ele>
        <time>2015-10-22T20:47:18Z</time>
      </trkpt>
      <trkpt lat="44.11547" lon="3.10196">
        <ele>640</ele>
        <time>2015-10-22T20:49:18Z</time>
      </trkpt>
      <trkpt lat="44.11545" lon="3.10187">
        <ele>638</ele>
        <time>2015-10-22T20:51:18Z</time>
      </trkpt>
      <trkpt lat="44.11541" lon="3.10178">
        <ele>636</ele>
        <time>2015-10-22T20:53:18Z</time>
      </trkpt>
      <trkpt lat="44.11541" lon="3.10174">
        <ele>635</ele>
        <time>2015-10-22T20:55:18Z</time>
      </trkpt>
      <trkpt lat="44.11541" lon="3.10167">
        <ele>632</ele>
        <time>2015-10-22T20:57:18Z</time>
      </trkpt>
      <trkpt lat="44.11543" lon="3.10165">
        <ele>630</ele>
        <time>2015-10-22T20:59:18Z</time>
      </trkpt>
      <trkpt lat="44.11546" lon="3.10165">
        <ele>629</ele>
        <time>2015-10-22T21:01:18Z</time>
      </trkpt>
      <trkpt lat="44.11549" lon="3.10161">
        <ele>626</ele>
        <time>2015-10-22T21:03:18Z</time>
      </trkpt>
      <trkpt lat="44.11549" lon="3.10156">
        <ele>624</ele>
        <time>2015-10-22T21:05:18Z</time>
      </trkpt>
      <trkpt lat="44.11552" lon="3.10149">
        <ele>621</ele>
        <time>2015-10-22T21:07:18Z</time>
      </trkpt>
      <trkpt lat="44.11551" lon="3.10142">
        <ele>619</ele>
        <time>2015-10-22T21:09:18Z</time>
      </trkpt>
      <trkpt lat="44.11553" lon="3.10141">
        <ele>617</ele>
        <time>2015-10-22T21:11:18Z</time>
      </trkpt>
      <trkpt lat="44.11553" lon="3.10135">
        <ele>615</ele>
        <time>2015-10-22T21:13:18Z</time>
      </trkpt>
      <trkpt lat="44.1155" lon="3.10127">
        <ele>614</ele>
        <time>2015-10-22T21:15:18Z</time>
      </trkpt>
      <trkpt lat="44.1155" lon="3.1012">
        <ele>611</ele>
        <time>2015-10-22T21:17:18Z</time>
      </trkpt>
      <trkpt lat="44.11552" lon="3.10119">
        <ele>610</ele>
        <time>2015-10-22T21:19:18Z</time>
      </trkpt>
      <trkpt lat="44.11551" lon="3.10109">
        <ele>607</ele>
        <time>2015-10-22T21:21:18Z</time>
      </trkpt>
      <trkpt lat="44.11548" lon="3.10103">
        <ele>606</ele>
        <time>2015-10-22T21:23:18Z</time>
      </trkpt>
      <trkpt lat="44.11542" lon="3.10092">
        <ele>604</ele>
        <time>2015-10-22T21:25:18Z</time>
      </trkpt>
      <trkpt lat="44.11537" lon="3.10091">
        <ele>606</ele>
        <time>2015-10-22T21:27:18Z</time>
      </trkpt>
      <trkpt lat="44.11536" lon="3.1009">
        <ele>606</ele>
        <time>2015-10-22T21:29:18Z</time>
      </trkpt>
      <trkpt lat="44.11534" lon="3.10089">
        <ele>607</ele>
        <time>2015-10-22T21:31:18Z</time>
      </trkpt>
      <trkpt lat="44.1153" lon="3.10086">
        <ele>607</ele>
        <time>2015-10-22T21:33:18Z</time>
      </trkpt>
      <trkpt lat="44.11527" lon="3.10084">
        <ele>608</ele>
        <time>2015-10-22T21:35:18Z</time>
      </trkpt>
      <trkpt lat="44.11521" lon="3.10079">
        <ele>609</ele>
        <time>2015-10-22T21:37:18Z</time>
      </trkpt>
      <trkpt lat="44.11516" lon="3.10073">
        <ele>609</ele>
        <time>2015-10-22T21:39:18Z</time>
      </trkpt>
      <trkpt lat="44.11511" lon="3.10072">
        <ele>610</ele>
        <time>2015-10-22T21:41:18Z</time>
      </trkpt>
      <trkpt lat="44.1151" lon="3.10071">
        <ele>610</ele>
        <time>2015-10-22T21:43:18Z</time>
      </trkpt>
      <trkpt lat="44.11506" lon="3.10067">
        <ele>611</ele>
        <time>2015-10-22T21:45:18Z</time>
      </trkpt>
      <trkpt lat="44.11502" lon="3.10062">
        <ele>611</ele>
        <time>2015-10-22T21:47:18Z</time>
      </trkpt>
      <trkpt lat="44.11497" lon="3.10053">
        <ele>609</ele>
        <time>2015-10-22T21:49:18Z</time>
      </trkpt>
      <trkpt lat="44.11494" lon="3.10047">
        <ele>608</ele>
        <time>2015-10-22T21:51:18Z</time>
      </trkpt>
      <trkpt lat="44.11487" lon="3.10034">
        <ele>606</ele>
        <time>2015-10-22T21:53:18Z</time>
      </trkpt>
      <trkpt lat="44.11481" lon="3.10027">
        <ele>605</ele>
        <time>2015-10-22T21:55:18Z</time>
      </trkpt>
      <trkpt lat="44.11475" lon="3.1002">
        <ele>605</ele>
        <time>2015-10-22T21:57:18Z</time>
      </trkpt>
      <trkpt lat="44.1147" lon="3.10009">
        <ele>603</ele>
        <time>2015-10-22T21:59:18Z</time>
      </trkpt>
      <trkpt lat="44.11468" lon="3.10004">
        <ele>602</ele>
        <time>2015-10-22T22:01:18Z</time>
      </trkpt>
      <trkpt lat="44.11466" lon="3.09994">
        <ele>599</ele>
        <time>2015-10-22T22:03:18Z</time>
      </trkpt>
      <trkpt lat="44.11462" lon="3.09984">
        <ele>598</ele>
        <time>2015-10-22T22:05:18Z</time>
      </trkpt>
      <trkpt lat="44.11457" lon="3.09975">
        <ele>597</ele>
        <time>2015-10-22T22:07:18Z</time>
      </trkpt>
      <trkpt lat="44.11453" lon="3.09963">
        <ele>595</ele>
        <time>2015-10-22T22:09:18Z</time>
      </trkpt>
      <trkpt lat="44.11446" lon="3.09952">
        <ele>594</ele>
        <time>2015-10-22T22:11:18Z</time>
      </trkpt>
      <trkpt lat="44.11443" lon="3.09942">
        <ele>592</ele>
        <time>2015-10-22T22:13:18Z</time>
      </trkpt>
      <trkpt lat="44.11444" lon="3.09938">
        <ele>591</ele>
        <time>2015-10-22T22:15:18Z</time>
      </trkpt>
      <trkpt lat="44.11445" lon="3.09934">
        <ele>589</ele>
        <time>2015-10-22T22:17:18Z</time>
      </trkpt>
      <trkpt lat="44.11446" lon="3.09932">
        <ele>588</ele>
        <time>2015-10-22T22:19:18Z</time>
      </trkpt>
      <trkpt lat="44.1145" lon="3.09936">
        <ele>588</ele>
        <time>2015-10-22T22:21:18Z</time>
      </trkpt>
      <trkpt lat="44.11456" lon="3.09936">
        <ele>586</ele>
        <time>2015-10-22T22:23:18Z</time>
      </trkpt>
      <trkpt lat="44.11459" lon="3.09931">
        <ele>583</ele>
        <time>2015-10-22T22:25:18Z</time>
      </trkpt>
      <trkpt lat="44.11464" lon="3.09929">
        <ele>581</ele>
        <time>2015-10-22T22:27:18Z</time>
      </trkpt>
      <trkpt lat="44.11467" lon="3.09929">
        <ele>580</ele>
        <time>2015-10-22T22:29:18Z</time>
      </trkpt>
      <trkpt lat="44.11467" lon="3.09928">
        <ele>580</ele>
        <time>2015-10-22T22:31:18Z</time>
      </trkpt>
      <trkpt lat="44.1147" lon="3.09929">
        <ele>579</ele>
        <time>2015-10-22T22:33:18Z</time>
      </trkpt>
      <trkpt lat="44.11472" lon="3.09928">
        <ele>578</ele>
        <time>2015-10-22T22:35:18Z</time>
      </trkpt>
      <trkpt lat="44.11477" lon="3.09918">
        <ele>573</ele>
        <time>2015-10-22T22:37:18Z</time>
      </trkpt>
      <trkpt lat="44.11479" lon="3.09912">
        <ele>571</ele>
        <time>2015-10-22T22:39:18Z</time>
      </trkpt>
      <trkpt lat="44.11483" lon="3.09897">
        <ele>567</ele>
        <time>2015-10-22T22:41:18Z</time>
      </trkpt>
      <trkpt lat="44.11485" lon="3.09894">
        <ele>566</ele>
        <time>2015-10-22T22:43:18Z</time>
      </trkpt>
      <trkpt lat="44.11487" lon="3.09883">
        <ele>563</ele>
        <time>2015-10-22T22:45:18Z</time>
      </trkpt>
      <trkpt lat="44.11491" lon="3.09871">
        <ele>560</ele>
        <time>2015-10-22T22:47:18Z</time>
      </trkpt>
      <trkpt lat="44.11493" lon="3.09867">
        <ele>558</ele>
        <time>2015-10-22T22:49:18Z</time>
      </trkpt>
      <trkpt lat="44.11496" lon="3.09864">
        <ele>557</ele>
        <time>2015-10-22T22:51:18Z</time>
      </trkpt>
      <trkpt lat="44.11498" lon="3.09853">
        <ele>555</ele>
        <time>2015-10-22T22:53:18Z</time>
      </trkpt>
      <trkpt lat="44.115" lon="3.09848">
        <ele>553</ele>
        <time>2015-10-22T22:55:18Z</time>
      </trkpt>
      <trkpt lat="44.11507" lon="3.09833">
        <ele>550</ele>
        <time>2015-10-22T22:57:18Z</time>
      </trkpt>
      <trkpt lat="44.11517" lon="3.09818">
        <ele>545</ele>
        <time>2015-10-22T22:59:18Z</time>
      </trkpt>
      <trkpt lat="44.11518" lon="3.09808">
        <ele>543</ele>
        <time>2015-10-22T23:01:18Z</time>
      </trkpt>
      <trkpt lat="44.1152" lon="3.098">
        <ele>542</ele>
        <time>2015-10-22T23:03:18Z</time>
      </trkpt>
      <trkpt lat="44.1152" lon="3.09787">
        <ele>539</ele>
        <time>2015-10-22T23:05:18Z</time>
      </trkpt>
      <trkpt lat="44.11521" lon="3.09767">
        <ele>536</ele>
        <time>2015-10-22T23:07:18Z</time>
      </trkpt>
      <trkpt lat="44.1152" lon="3.09749">
        <ele>533</ele>
        <time>2015-10-22T23:09:18Z</time>
      </trkpt>
      <trkpt lat="44.1152" lon="3.09737">
        <ele>531</ele>
        <time>2015-10-22T23:11:18Z</time>
      </trkpt>
      <trkpt lat="44.11522" lon="3.09719">
        <ele>529</ele>
        <time>2015-10-22T23:13:18Z</time>
      </trkpt>
      <trkpt lat="44.11523" lon="3.09705">
        <ele>526</ele>
        <time>2015-10-22T23:15:18Z</time>
      </trkpt>
      <trkpt lat="44.11519" lon="3.09686">
        <ele>523</ele>
        <time>2015-10-22T23:17:18Z</time>
      </trkpt>
      <trkpt lat="44.11518" lon="3.09684">
        <ele>523</ele>
        <time>2015-10-22T23:19:18Z</time>
      </trkpt>
      <trkpt lat="44.11511" lon="3.09647">
        <ele>518</ele>
        <time>2015-10-22T23:21:18Z</time>
      </trkpt>
      <trkpt lat="44.11509" lon="3.09633">
        <ele>517</ele>
        <time>2015-10-22T23:23:18Z</time>
      </trkpt>
      <trkpt lat="44.11507" lon="3.09621">
        <ele>515</ele>
        <time>2015-10-22T23:25:18Z</time>
      </trkpt>
      <trkpt lat="44.115" lon="3.09593">
        <ele>512</ele>
        <time>2015-10-22T23:27:18Z</time>
      </trkpt>
      <trkpt lat="44.11496" lon="3.09578">
        <ele>511</ele>
        <time>2015-10-22T23:29:18Z</time>
      </trkpt>
      <trkpt lat="44.11493" lon="3.09565">
        <ele>509</ele>
        <time>2015-10-22T23:31:18Z</time>
      </trkpt>
      <trkpt lat="44.11485" lon="3.09528">
        <ele>506</ele>
        <time>2015-10-22T23:33:18Z</time>
      </trkpt>
      <trkpt lat="44.11483" lon="3.09512">
        <ele>505</ele>
        <time>2015-10-22T23:35:18Z</time>
      </trkpt>
      <trkpt lat="44.1148" lon="3.09495">
        <ele>503</ele>
        <time>2015-10-22T23:37:18Z</time>
      </trkpt>
      <trkpt lat="44.11475" lon="3.09467">
        <ele>499</ele>
        <time>2015-10-22T23:39:18Z</time>
      </trkpt>
      <trkpt lat="44.11477" lon="3.09453">
        <ele>497</ele>
        <time>2015-10-22T23:41:18Z</time>
      </trkpt>
      <trkpt lat="44.11479" lon="3.09446">
        <ele>496</ele>
        <time>2015-10-22T23:43:18Z</time>
      </trkpt>
      <trkpt lat="44.11485" lon="3.09429">
        <ele>493</ele>
        <time>2015-10-22T23:45:18Z</time>
      </trkpt>
      <trkpt lat="44.11486" lon="3.09424">
        <ele>492</ele>
        <time>2015-10-22T23:47:18Z</time>
      </trkpt>
      <trkpt lat="44.11479" lon="3.09412">
        <ele>490</ele>
        <time>2015-10-22T23:49:18Z</time>
      </trkpt>
      <trkpt lat="44.11464" lon="3.09399">
        <ele>488</ele>
        <time>2015-10-22T23:51:18Z</time>
      </trkpt>
      <trkpt lat="44.11454" lon="3.0939">
        <ele>486</ele>
        <time>2015-10-22T23:53:18Z</time>
      </trkpt>
      <trkpt lat="44.11445" lon="3.09379">
        <ele>484</ele>
        <time>2015-10-22T23:55:18Z</time>
      </trkpt>
      <trkpt lat="44.11438" lon="3.09371">
        <ele>483</ele>
        <time>2015-10-22T23:57:18Z</time>
      </trkpt>
      <trkpt lat="44.11429" lon="3.09363">
        <ele>482</ele>
        <time>2015-10-22T23:59:18Z</time>
      </trkpt>
      <trkpt lat="44.11422" lon="3.09358">
        <ele>481</ele>
        <time>2015-10-23T00:01:18Z</time>
      </trkpt>
      <trkpt lat="44.11427" lon="3.09353">
        <ele>480</ele>
        <time>2015-10-23T00:03:18Z</time>
      </trkpt>
      <trkpt lat="44.11429" lon="3.09354">
        <ele>480</ele>
        <time>2015-10-23T00:05:18Z</time>
      </trkpt>
      <trkpt lat="44.11447" lon="3.09357">
        <ele>479</ele>
        <time>2015-10-23T00:07:18Z</time>
      </trkpt>
      <trkpt lat="44.11459" lon="3.09355">
        <ele>478</ele>
        <time>2015-10-23T00:09:18Z</time>
      </trkpt>
      <trkpt lat="44.11472" lon="3.09352">
        <ele>477</ele>
        <time>2015-10-23T00:11:18Z</time>
      </trkpt>
      <trkpt lat="44.11486" lon="3.09351">
        <ele>475</ele>
        <time>2015-10-23T00:13:18Z</time>
      </trkpt>
      <trkpt lat="44.11494" lon="3.09349">
        <ele>474</ele>
        <time>2015-10-23T00:15:18Z</time>
      </trkpt>
      <trkpt lat="44.11507" lon="3.09346">
        <ele>473</ele>
        <time>2015-10-23T00:17:18Z</time>
      </trkpt>
      <trkpt lat="44.11523" lon="3.09341">
        <ele>472</ele>
        <time>2015-10-23T00:19:18Z</time>
      </trkpt>
      <trkpt lat="44.11541" lon="3.09335">
        <ele>470</ele>
        <time>2015-10-23T00:21:18Z</time>
      </trkpt>
      <trkpt lat="44.1155" lon="3.09332">
        <ele>470</ele>
        <time>2015-10-23T00:23:18Z</time>
      </trkpt>
      <trkpt lat="44.11564" lon="3.09326">
        <ele>468</ele>
        <time>2015-10-23T00:25:18Z</time>
      </trkpt>
      <trkpt lat="44.11577" lon="3.09323">
        <ele>468</ele>
        <time>2015-10-23T00:27:18Z</time>
      </trkpt>
      <trkpt lat="44.11592" lon="3.0932">
        <ele>466</ele>
        <time>2015-10-23T00:29:18Z</time>
      </trkpt>
      <trkpt lat="44.11608" lon="3.0932">
        <ele>463</ele>
        <time>2015-10-23T00:31:18Z</time>
      </trkpt>
      <trkpt lat="44.11621" lon="3.09321">
        <ele>461</ele>
        <time>2015-10-23T00:33:18Z</time>
      </trkpt>
      <trkpt lat="44.11623" lon="3.0932">
        <ele>460</ele>
        <time>2015-10-23T00:35:18Z</time>
      </trkpt>
      <trkpt lat="44.11623" lon="3.09301">
        <ele>455</ele>
        <time>2015-10-23T00:37:18Z</time>
      </trkpt>
      <trkpt lat="44.11619" lon="3.09283">
        <ele>451</ele>
        <time>2015-10-23T00:39:18Z</time>
      </trkpt>
      <trkpt lat="44.11613" lon="3.09269">
        <ele>449</ele>
        <time>2015-10-23T00:41:18Z</time>
      </trkpt>
      <trkpt lat="44.11605" lon="3.09255">
        <ele>447</ele>
        <time>2015-10-23T00:43:18Z</time>
      </trkpt>
      <trkpt lat="44.11594" lon="3.09244">
        <ele>447</ele>
        <time>2015-10-23T00:45:18Z</time>
      </trkpt>
      <trkpt lat="44.11584" lon="3.09232">
        <ele>446</ele>
        <time>2015-10-23T00:47:18Z</time>
      </trkpt>
      <trkpt lat="44.11575" lon="3.09224">
        <ele>445</ele>
        <time>2015-10-23T00:49:18Z</time>
      </trkpt>
      <trkpt lat="44.11567" lon="3.09218">
        <ele>443</ele>
        <time>2015-10-23T00:51:18Z</time>
      </trkpt>
      <trkpt lat="44.1155" lon="3.09214">
        <ele>444</ele>
        <time>2015-10-23T00:53:18Z</time>
      </trkpt>
      <trkpt lat="44.11548" lon="3.09212">
        <ele>443</ele>
        <time>2015-10-23T00:55:18Z</time>
      </trkpt>
      <trkpt lat="44.11546" lon="3.09201">
        <ele>441</ele>
        <time>2015-10-23T00:57:18Z</time>
      </trkpt>
      <trkpt lat="44.11548" lon="3.09191">
        <ele>438</ele>
        <time>2015-10-23T00:59:18Z</time>
      </trkpt>
      <trkpt lat="44.11537" lon="3.0918">
        <ele>437</ele>
        <time>2015-10-23T01:01:18Z</time>
      </trkpt>
      <trkpt lat="44.11519" lon="3.09163">
        <ele>435</ele>
        <time>2015-10-23T01:03:18Z</time>
      </trkpt>
      <trkpt lat="44.11514" lon="3.09157">
        <ele>434</ele>
        <time>2015-10-23T01:05:18Z</time>
      </trkpt>
      <trkpt lat="44.11506" lon="3.0915">
        <ele>432</ele>
        <time>2015-10-23T01:07:18Z</time>
      </trkpt>
      <trkpt lat="44.11496" lon="3.09136">
        <ele>429</ele>
        <time>2015-10-23T01:09:18Z</time>
      </trkpt>
      <trkpt lat="44.1149" lon="3.09126">
        <ele>427</ele>
        <time>2015-10-23T01:11:18Z</time>
      </trkpt>
      <trkpt lat="44.11478" lon="3.0911">
        <ele>425</ele>
        <time>2015-10-23T01:13:18Z</time>
      </trkpt>
      <trkpt lat="44.11469" lon="3.09098">
        <ele>423</ele>
        <time>2015-10-23T01:15:18Z</time>
      </trkpt>
      <trkpt lat="44.11458" lon="3.09083">
        <ele>422</ele>
        <time>2015-10-23T01:17:18Z</time>
      </trkpt>
      <trkpt lat="44.11443" lon="3.09071">
        <ele>422</ele>
        <time>2015-10-23T01:19:18Z</time>
      </trkpt>
      <trkpt lat="44.11436" lon="3.0906">
        <ele>421</ele>
        <time>2015-10-23T01:21:18Z</time>
      </trkpt>
      <trkpt lat="44.11427" lon="3.09045">
        <ele>419</ele>
        <time>2015-10-23T01:23:18Z</time>
      </trkpt>
      <trkpt lat="44.11419" lon="3.09026">
        <ele>416</ele>
        <time>2015-10-23T01:25:18Z</time>
      </trkpt>
      <trkpt lat="44.11416" lon="3.09014">
        <ele>414</ele>
        <time>2015-10-23T01:27:18Z</time>
      </trkpt>
      <trkpt lat="44.11415" lon="3.09002">
        <ele>411</ele>
        <time>2015-10-23T01:29:18Z</time>
      </trkpt>
      <trkpt lat="44.11406" lon="3.08987">
        <ele>408</ele>
        <time>2015-10-23T01:31:18Z</time>
      </trkpt>
      <trkpt lat="44.11399" lon="3.08966">
        <ele>403</ele>
        <time>2015-10-23T01:33:18Z</time>
      </trkpt>
      <trkpt lat="44.11396" lon="3.08962">
        <ele>402</ele>
        <time>2015-10-23T01:35:18Z</time>
      </trkpt>
      <trkpt lat="44.11401" lon="3.08953">
        <ele>399</ele>
        <time>2015-10-23T01:37:18Z</time>
      </trkpt>
      <trkpt lat="44.11408" lon="3.0895">
        <ele>398</ele>
        <time>2015-10-23T01:39:18Z</time>
      </trkpt>
      <trkpt lat="44.11413" lon="3.08939">
        <ele>394</ele>
        <time>2015-10-23T01:41:18Z</time>
      </trkpt>
      <trkpt lat="44.1142" lon="3.08934">
        <ele>392</ele>
        <time>2015-10-23T01:43:18Z</time>
      </trkpt>
      <trkpt lat="44.11422" lon="3.08921">
        <ele>389</ele>
        <time>2015-10-23T01:45:18Z</time>
      </trkpt>
      <trkpt lat="44.11431" lon="3.08914">
        <ele>386</ele>
        <time>2015-10-23T01:47:18Z</time>
      </trkpt>
      <trkpt lat="44.11438" lon="3.08916">
        <ele>386</ele>
        <time>2015-10-23T01:49:18Z</time>
      </trkpt>
      <trkpt lat="44.11452" lon="3.08924">
        <ele>386</ele>
        <time>2015-10-23T01:51:18Z</time>
      </trkpt>
      <trkpt lat="44.11464" lon="3.08931">
        <ele>386</ele>
        <time>2015-10-23T01:53:18Z</time>
      </trkpt>
      <trkpt lat="44.11473" lon="3.08937">
        <ele>386</ele>
        <time>2015-10-23T01:55:18Z</time>
      </trkpt>
      <trkpt lat="44.11482" lon="3.08944">
        <ele>387</ele>
        <time>2015-10-23T01:57:18Z</time>
      </trkpt>
      <trkpt lat="44.11484" lon="3.08948">
        <ele>387</ele>
        <time>2015-10-23T01:59:18Z</time>
      </trkpt>
      <trkpt lat="44.11476" lon="3.08948">
        <ele>388</ele>
        <time>2015-10-23T02:01:18Z</time>
      </trkpt>
      <trkpt lat="44.11473" lon="3.08947">
        <ele>388</ele>
        <time>2015-10-23T02:03:18Z</time>
      </trkpt>
    </trkseg>
  </trk>
</gpx>